<?xml version="1.0" encoding="UTF-8" standalone="no" ?>
<gpx xmlns="http://www.topografix.com/GPX/1/1" xmlns:xsi="http://www.w3.org/2001/XMLSchema-instance" xsi:schemaLocation="http://www.topografix.com/GPX/1/1 http://www.topografix.com/GPX/1/1/gpx.xsd" version="1.1" creator="VisuGPX - https://www.visugpx.com">
  <metadata>
    <name>Normandicat_900_BRM_300</name>
    <desc><![CDATA[BRM 300 validé lors de la Normandicat 900 - 2023]]></desc>
  </metadata>
  <trk>
    <name><![CDATA[Normandicat 900 - BRM 300]]></name>
    <extensions>
      <line xmlns="http://www.topografix.com/GPX/gpx_style/0/2">
        <color>0000FF</color>
        <width>4</width>
      </line>
    </extensions>
    <trkseg>
      <trkpt lat="49.22975" lon="-0.30612">
        <ele>26.8</ele>
        <time>2023-05-17T19:58:56Z</time>
      </trkpt>
      <trkpt lat="49.22959" lon="-0.30596">
        <ele>26.8</ele>
        <time>2023-05-17T20:00:36Z</time>
      </trkpt>
      <trkpt lat="49.22939" lon="-0.3059">
        <ele>26.8</ele>
        <time>2023-05-17T20:00:45Z</time>
      </trkpt>
      <trkpt lat="49.22921" lon="-0.3059">
        <ele>26.8</ele>
        <time>2023-05-17T20:00:51Z</time>
      </trkpt>
      <trkpt lat="49.22901" lon="-0.30589">
        <ele>27</ele>
        <time>2023-05-17T20:00:57Z</time>
      </trkpt>
      <trkpt lat="49.22882" lon="-0.30589">
        <ele>26.6</ele>
        <time>2023-05-17T20:01:01Z</time>
      </trkpt>
      <trkpt lat="49.22864" lon="-0.30588">
        <ele>26.3</ele>
        <time>2023-05-17T20:01:05Z</time>
      </trkpt>
      <trkpt lat="49.22845" lon="-0.30587">
        <ele>26</ele>
        <time>2023-05-17T20:01:09Z</time>
      </trkpt>
      <trkpt lat="49.22825" lon="-0.30586">
        <ele>25.8</ele>
        <time>2023-05-17T20:01:13Z</time>
      </trkpt>
      <trkpt lat="49.22806" lon="-0.30583">
        <ele>25.6</ele>
        <time>2023-05-17T20:01:17Z</time>
      </trkpt>
      <trkpt lat="49.22787" lon="-0.30596">
        <ele>25.5</ele>
        <time>2023-05-17T20:01:21Z</time>
      </trkpt>
      <trkpt lat="49.22771" lon="-0.30612">
        <ele>25.6</ele>
        <time>2023-05-17T20:01:25Z</time>
      </trkpt>
      <trkpt lat="49.22756" lon="-0.30633">
        <ele>25.5</ele>
        <time>2023-05-17T20:01:29Z</time>
      </trkpt>
      <trkpt lat="49.22761" lon="-0.30661">
        <ele>25.6</ele>
        <time>2023-05-17T20:01:33Z</time>
      </trkpt>
      <trkpt lat="49.22772" lon="-0.30688">
        <ele>25.8</ele>
        <time>2023-05-17T20:01:37Z</time>
      </trkpt>
      <trkpt lat="49.22783" lon="-0.30719">
        <ele>26</ele>
        <time>2023-05-17T20:01:41Z</time>
      </trkpt>
      <trkpt lat="49.22792" lon="-0.30751">
        <ele>26.3</ele>
        <time>2023-05-17T20:01:45Z</time>
      </trkpt>
      <trkpt lat="49.22797" lon="-0.30786">
        <ele>26.7</ele>
        <time>2023-05-17T20:01:49Z</time>
      </trkpt>
      <trkpt lat="49.22799" lon="-0.30819">
        <ele>27</ele>
        <time>2023-05-17T20:01:53Z</time>
      </trkpt>
      <trkpt lat="49.22798" lon="-0.30851">
        <ele>27.4</ele>
        <time>2023-05-17T20:01:57Z</time>
      </trkpt>
      <trkpt lat="49.22796" lon="-0.30882">
        <ele>27.7</ele>
        <time>2023-05-17T20:02:01Z</time>
      </trkpt>
      <trkpt lat="49.22804" lon="-0.30911">
        <ele>28.1</ele>
        <time>2023-05-17T20:02:06Z</time>
      </trkpt>
      <trkpt lat="49.22824" lon="-0.30913">
        <ele>28.3</ele>
        <time>2023-05-17T20:02:10Z</time>
      </trkpt>
      <trkpt lat="49.22843" lon="-0.30894">
        <ele>28.3</ele>
        <time>2023-05-17T20:02:14Z</time>
      </trkpt>
      <trkpt lat="49.22862" lon="-0.30872">
        <ele>28.2</ele>
        <time>2023-05-17T20:02:18Z</time>
      </trkpt>
      <trkpt lat="49.22878" lon="-0.30857">
        <ele>28.1</ele>
        <time>2023-05-17T20:02:21Z</time>
      </trkpt>
      <trkpt lat="49.22894" lon="-0.30843">
        <ele>28</ele>
        <time>2023-05-17T20:02:24Z</time>
      </trkpt>
      <trkpt lat="49.22911" lon="-0.30829">
        <ele>28</ele>
        <time>2023-05-17T20:02:27Z</time>
      </trkpt>
      <trkpt lat="49.22928" lon="-0.30817">
        <ele>27.9</ele>
        <time>2023-05-17T20:02:30Z</time>
      </trkpt>
      <trkpt lat="49.22946" lon="-0.30806">
        <ele>28</ele>
        <time>2023-05-17T20:02:33Z</time>
      </trkpt>
      <trkpt lat="49.22962" lon="-0.30792">
        <ele>28</ele>
        <time>2023-05-17T20:02:36Z</time>
      </trkpt>
      <trkpt lat="49.2298" lon="-0.30779">
        <ele>28.1</ele>
        <time>2023-05-17T20:02:39Z</time>
      </trkpt>
      <trkpt lat="49.22997" lon="-0.30766">
        <ele>28.2</ele>
        <time>2023-05-17T20:02:42Z</time>
      </trkpt>
      <trkpt lat="49.23018" lon="-0.3075">
        <ele>28.3</ele>
        <time>2023-05-17T20:02:46Z</time>
      </trkpt>
      <trkpt lat="49.23035" lon="-0.3074">
        <ele>28.3</ele>
        <time>2023-05-17T20:02:49Z</time>
      </trkpt>
      <trkpt lat="49.23051" lon="-0.30728">
        <ele>28.3</ele>
        <time>2023-05-17T20:02:52Z</time>
      </trkpt>
      <trkpt lat="49.23066" lon="-0.3071">
        <ele>28.1</ele>
        <time>2023-05-17T20:02:55Z</time>
      </trkpt>
      <trkpt lat="49.23081" lon="-0.30691">
        <ele>27.9</ele>
        <time>2023-05-17T20:02:58Z</time>
      </trkpt>
      <trkpt lat="49.23097" lon="-0.30673">
        <ele>27.7</ele>
        <time>2023-05-17T20:03:01Z</time>
      </trkpt>
      <trkpt lat="49.23109" lon="-0.30645">
        <ele>27.3</ele>
        <time>2023-05-17T20:03:05Z</time>
      </trkpt>
      <trkpt lat="49.23119" lon="-0.30614">
        <ele>27.1</ele>
        <time>2023-05-17T20:03:09Z</time>
      </trkpt>
      <trkpt lat="49.23138" lon="-0.30613">
        <ele>27.1</ele>
        <time>2023-05-17T20:03:12Z</time>
      </trkpt>
      <trkpt lat="49.2315" lon="-0.30636">
        <ele>27.1</ele>
        <time>2023-05-17T20:03:15Z</time>
      </trkpt>
      <trkpt lat="49.23146" lon="-0.30669">
        <ele>27.2</ele>
        <time>2023-05-17T20:03:18Z</time>
      </trkpt>
      <trkpt lat="49.23153" lon="-0.30698">
        <ele>27.3</ele>
        <time>2023-05-17T20:03:21Z</time>
      </trkpt>
      <trkpt lat="49.23167" lon="-0.30719">
        <ele>27.4</ele>
        <time>2023-05-17T20:03:24Z</time>
      </trkpt>
      <trkpt lat="49.23183" lon="-0.30734">
        <ele>27.7</ele>
        <time>2023-05-17T20:03:27Z</time>
      </trkpt>
      <trkpt lat="49.23201" lon="-0.30757">
        <ele>28.1</ele>
        <time>2023-05-17T20:03:31Z</time>
      </trkpt>
      <trkpt lat="49.23217" lon="-0.30784">
        <ele>28.5</ele>
        <time>2023-05-17T20:03:35Z</time>
      </trkpt>
      <trkpt lat="49.23226" lon="-0.30809">
        <ele>28.7</ele>
        <time>2023-05-17T20:03:38Z</time>
      </trkpt>
      <trkpt lat="49.23238" lon="-0.30832">
        <ele>28.9</ele>
        <time>2023-05-17T20:03:41Z</time>
      </trkpt>
      <trkpt lat="49.23248" lon="-0.30856">
        <ele>29.2</ele>
        <time>2023-05-17T20:03:44Z</time>
      </trkpt>
      <trkpt lat="49.23256" lon="-0.30883">
        <ele>29.4</ele>
        <time>2023-05-17T20:03:47Z</time>
      </trkpt>
      <trkpt lat="49.23262" lon="-0.30909">
        <ele>29.6</ele>
        <time>2023-05-17T20:03:50Z</time>
      </trkpt>
      <trkpt lat="49.23274" lon="-0.30937">
        <ele>29.9</ele>
        <time>2023-05-17T20:03:54Z</time>
      </trkpt>
      <trkpt lat="49.23283" lon="-0.30962">
        <ele>30.2</ele>
        <time>2023-05-17T20:03:57Z</time>
      </trkpt>
      <trkpt lat="49.23303" lon="-0.3098">
        <ele>30.6</ele>
        <time>2023-05-17T20:04:01Z</time>
      </trkpt>
      <trkpt lat="49.23326" lon="-0.30971">
        <ele>30.9</ele>
        <time>2023-05-17T20:04:05Z</time>
      </trkpt>
      <trkpt lat="49.2334" lon="-0.30954">
        <ele>31</ele>
        <time>2023-05-17T20:04:08Z</time>
      </trkpt>
      <trkpt lat="49.23356" lon="-0.30939">
        <ele>31.1</ele>
        <time>2023-05-17T20:04:11Z</time>
      </trkpt>
      <trkpt lat="49.23372" lon="-0.30925">
        <ele>31.2</ele>
        <time>2023-05-17T20:04:14Z</time>
      </trkpt>
      <trkpt lat="49.23391" lon="-0.30915">
        <ele>31.1</ele>
        <time>2023-05-17T20:04:17Z</time>
      </trkpt>
      <trkpt lat="49.2341" lon="-0.3091">
        <ele>31</ele>
        <time>2023-05-17T20:04:20Z</time>
      </trkpt>
      <trkpt lat="49.23431" lon="-0.30906">
        <ele>31</ele>
        <time>2023-05-17T20:04:23Z</time>
      </trkpt>
      <trkpt lat="49.2345" lon="-0.30905">
        <ele>30.9</ele>
        <time>2023-05-17T20:04:26Z</time>
      </trkpt>
      <trkpt lat="49.2347" lon="-0.30909">
        <ele>30.9</ele>
        <time>2023-05-17T20:04:29Z</time>
      </trkpt>
      <trkpt lat="49.23489" lon="-0.30921">
        <ele>31</ele>
        <time>2023-05-17T20:04:32Z</time>
      </trkpt>
      <trkpt lat="49.23507" lon="-0.3094">
        <ele>31.1</ele>
        <time>2023-05-17T20:04:35Z</time>
      </trkpt>
      <trkpt lat="49.2352" lon="-0.30966">
        <ele>31</ele>
        <time>2023-05-17T20:04:38Z</time>
      </trkpt>
      <trkpt lat="49.23533" lon="-0.30992">
        <ele>30.9</ele>
        <time>2023-05-17T20:04:41Z</time>
      </trkpt>
      <trkpt lat="49.23548" lon="-0.31018">
        <ele>30.6</ele>
        <time>2023-05-17T20:04:44Z</time>
      </trkpt>
      <trkpt lat="49.23564" lon="-0.31046">
        <ele>30.2</ele>
        <time>2023-05-17T20:04:47Z</time>
      </trkpt>
      <trkpt lat="49.23579" lon="-0.31074">
        <ele>29.8</ele>
        <time>2023-05-17T20:04:50Z</time>
      </trkpt>
      <trkpt lat="49.23593" lon="-0.31101">
        <ele>29.4</ele>
        <time>2023-05-17T20:04:53Z</time>
      </trkpt>
      <trkpt lat="49.23609" lon="-0.31128">
        <ele>29.1</ele>
        <time>2023-05-17T20:04:56Z</time>
      </trkpt>
      <trkpt lat="49.23625" lon="-0.31157">
        <ele>28.6</ele>
        <time>2023-05-17T20:04:59Z</time>
      </trkpt>
      <trkpt lat="49.23641" lon="-0.31185">
        <ele>28.1</ele>
        <time>2023-05-17T20:05:02Z</time>
      </trkpt>
      <trkpt lat="49.23657" lon="-0.31214">
        <ele>27.6</ele>
        <time>2023-05-17T20:05:05Z</time>
      </trkpt>
      <trkpt lat="49.23674" lon="-0.31245">
        <ele>27</ele>
        <time>2023-05-17T20:05:08Z</time>
      </trkpt>
      <trkpt lat="49.2369" lon="-0.31277">
        <ele>26.4</ele>
        <time>2023-05-17T20:05:11Z</time>
      </trkpt>
      <trkpt lat="49.23701" lon="-0.31299">
        <ele>25.8</ele>
        <time>2023-05-17T20:05:13Z</time>
      </trkpt>
      <trkpt lat="49.23713" lon="-0.31321">
        <ele>25.2</ele>
        <time>2023-05-17T20:05:15Z</time>
      </trkpt>
      <trkpt lat="49.23725" lon="-0.31346">
        <ele>24.4</ele>
        <time>2023-05-17T20:05:17Z</time>
      </trkpt>
      <trkpt lat="49.23736" lon="-0.3137">
        <ele>23.9</ele>
        <time>2023-05-17T20:05:19Z</time>
      </trkpt>
      <trkpt lat="49.23747" lon="-0.31394">
        <ele>23.6</ele>
        <time>2023-05-17T20:05:21Z</time>
      </trkpt>
      <trkpt lat="49.23758" lon="-0.31418">
        <ele>23.5</ele>
        <time>2023-05-17T20:05:23Z</time>
      </trkpt>
      <trkpt lat="49.2377" lon="-0.31441">
        <ele>23.4</ele>
        <time>2023-05-17T20:05:25Z</time>
      </trkpt>
      <trkpt lat="49.23781" lon="-0.31464">
        <ele>23.4</ele>
        <time>2023-05-17T20:05:27Z</time>
      </trkpt>
      <trkpt lat="49.23797" lon="-0.31495">
        <ele>23.7</ele>
        <time>2023-05-17T20:05:30Z</time>
      </trkpt>
      <trkpt lat="49.23813" lon="-0.31526">
        <ele>24.1</ele>
        <time>2023-05-17T20:05:33Z</time>
      </trkpt>
      <trkpt lat="49.23829" lon="-0.31554">
        <ele>24.5</ele>
        <time>2023-05-17T20:05:36Z</time>
      </trkpt>
      <trkpt lat="49.23846" lon="-0.3158">
        <ele>24.8</ele>
        <time>2023-05-17T20:05:39Z</time>
      </trkpt>
      <trkpt lat="49.23863" lon="-0.31605">
        <ele>24.8</ele>
        <time>2023-05-17T20:05:42Z</time>
      </trkpt>
      <trkpt lat="49.2388" lon="-0.3163">
        <ele>24.8</ele>
        <time>2023-05-17T20:05:45Z</time>
      </trkpt>
      <trkpt lat="49.23895" lon="-0.31656">
        <ele>24.8</ele>
        <time>2023-05-17T20:05:48Z</time>
      </trkpt>
      <trkpt lat="49.23911" lon="-0.3168">
        <ele>25</ele>
        <time>2023-05-17T20:05:51Z</time>
      </trkpt>
      <trkpt lat="49.23927" lon="-0.31704">
        <ele>25</ele>
        <time>2023-05-17T20:05:54Z</time>
      </trkpt>
      <trkpt lat="49.23942" lon="-0.31728">
        <ele>25.2</ele>
        <time>2023-05-17T20:05:57Z</time>
      </trkpt>
      <trkpt lat="49.23958" lon="-0.31751">
        <ele>25.3</ele>
        <time>2023-05-17T20:06:00Z</time>
      </trkpt>
      <trkpt lat="49.23973" lon="-0.31775">
        <ele>25.3</ele>
        <time>2023-05-17T20:06:03Z</time>
      </trkpt>
      <trkpt lat="49.23989" lon="-0.31799">
        <ele>25.3</ele>
        <time>2023-05-17T20:06:06Z</time>
      </trkpt>
      <trkpt lat="49.24005" lon="-0.31823">
        <ele>25.3</ele>
        <time>2023-05-17T20:06:09Z</time>
      </trkpt>
      <trkpt lat="49.2402" lon="-0.31848">
        <ele>25.3</ele>
        <time>2023-05-17T20:06:12Z</time>
      </trkpt>
      <trkpt lat="49.24035" lon="-0.31872">
        <ele>25.4</ele>
        <time>2023-05-17T20:06:15Z</time>
      </trkpt>
      <trkpt lat="49.2405" lon="-0.31896">
        <ele>25.4</ele>
        <time>2023-05-17T20:06:18Z</time>
      </trkpt>
      <trkpt lat="49.24065" lon="-0.31917">
        <ele>25.4</ele>
        <time>2023-05-17T20:06:21Z</time>
      </trkpt>
      <trkpt lat="49.2408" lon="-0.31939">
        <ele>25.4</ele>
        <time>2023-05-17T20:06:24Z</time>
      </trkpt>
      <trkpt lat="49.24096" lon="-0.31962">
        <ele>25.3</ele>
        <time>2023-05-17T20:06:27Z</time>
      </trkpt>
      <trkpt lat="49.24112" lon="-0.31986">
        <ele>25.4</ele>
        <time>2023-05-17T20:06:30Z</time>
      </trkpt>
      <trkpt lat="49.24126" lon="-0.3201">
        <ele>25.2</ele>
        <time>2023-05-17T20:06:33Z</time>
      </trkpt>
      <trkpt lat="49.2414" lon="-0.32035">
        <ele>25.1</ele>
        <time>2023-05-17T20:06:36Z</time>
      </trkpt>
      <trkpt lat="49.24158" lon="-0.32059">
        <ele>25</ele>
        <time>2023-05-17T20:06:39Z</time>
      </trkpt>
      <trkpt lat="49.24174" lon="-0.32083">
        <ele>24.9</ele>
        <time>2023-05-17T20:06:42Z</time>
      </trkpt>
      <trkpt lat="49.24191" lon="-0.32107">
        <ele>24.8</ele>
        <time>2023-05-17T20:06:45Z</time>
      </trkpt>
      <trkpt lat="49.24207" lon="-0.32131">
        <ele>24.5</ele>
        <time>2023-05-17T20:06:48Z</time>
      </trkpt>
      <trkpt lat="49.24217" lon="-0.32158">
        <ele>24.2</ele>
        <time>2023-05-17T20:06:51Z</time>
      </trkpt>
      <trkpt lat="49.24217" lon="-0.32195">
        <ele>23.5</ele>
        <time>2023-05-17T20:06:54Z</time>
      </trkpt>
      <trkpt lat="49.24224" lon="-0.32231">
        <ele>22.6</ele>
        <time>2023-05-17T20:06:57Z</time>
      </trkpt>
      <trkpt lat="49.2423" lon="-0.32269">
        <ele>21.6</ele>
        <time>2023-05-17T20:07:00Z</time>
      </trkpt>
      <trkpt lat="49.24237" lon="-0.32307">
        <ele>20.7</ele>
        <time>2023-05-17T20:07:03Z</time>
      </trkpt>
      <trkpt lat="49.24238" lon="-0.32348">
        <ele>19.6</ele>
        <time>2023-05-17T20:07:06Z</time>
      </trkpt>
      <trkpt lat="49.24244" lon="-0.32387">
        <ele>18.7</ele>
        <time>2023-05-17T20:07:09Z</time>
      </trkpt>
      <trkpt lat="49.24259" lon="-0.3242">
        <ele>17.9</ele>
        <time>2023-05-17T20:07:12Z</time>
      </trkpt>
      <trkpt lat="49.2428" lon="-0.32441">
        <ele>16.9</ele>
        <time>2023-05-17T20:07:15Z</time>
      </trkpt>
      <trkpt lat="49.24298" lon="-0.32446">
        <ele>16.1</ele>
        <time>2023-05-17T20:07:17Z</time>
      </trkpt>
      <trkpt lat="49.24322" lon="-0.32463">
        <ele>15.2</ele>
        <time>2023-05-17T20:07:20Z</time>
      </trkpt>
      <trkpt lat="49.24342" lon="-0.32488">
        <ele>14.4</ele>
        <time>2023-05-17T20:07:23Z</time>
      </trkpt>
      <trkpt lat="49.24342" lon="-0.3252">
        <ele>13.8</ele>
        <time>2023-05-17T20:07:25Z</time>
      </trkpt>
      <trkpt lat="49.24333" lon="-0.32545">
        <ele>13.8</ele>
        <time>2023-05-17T20:07:27Z</time>
      </trkpt>
      <trkpt lat="49.24318" lon="-0.32578">
        <ele>14.4</ele>
        <time>2023-05-17T20:07:30Z</time>
      </trkpt>
      <trkpt lat="49.24306" lon="-0.3261">
        <ele>15.3</ele>
        <time>2023-05-17T20:07:33Z</time>
      </trkpt>
      <trkpt lat="49.243" lon="-0.32641">
        <ele>16.5</ele>
        <time>2023-05-17T20:07:36Z</time>
      </trkpt>
      <trkpt lat="49.24289" lon="-0.32671">
        <ele>17.9</ele>
        <time>2023-05-17T20:07:39Z</time>
      </trkpt>
      <trkpt lat="49.24277" lon="-0.32692">
        <ele>19.6</ele>
        <time>2023-05-17T20:07:42Z</time>
      </trkpt>
      <trkpt lat="49.24264" lon="-0.32713">
        <ele>21.4</ele>
        <time>2023-05-17T20:07:46Z</time>
      </trkpt>
      <trkpt lat="49.2425" lon="-0.32735">
        <ele>20.9</ele>
        <time>2023-05-17T20:07:51Z</time>
      </trkpt>
      <trkpt lat="49.24261" lon="-0.32759">
        <ele>24</ele>
        <time>2023-05-17T20:07:56Z</time>
      </trkpt>
      <trkpt lat="49.24278" lon="-0.32778">
        <ele>24.1</ele>
        <time>2023-05-17T20:08:00Z</time>
      </trkpt>
      <trkpt lat="49.24297" lon="-0.32798">
        <ele>24.1</ele>
        <time>2023-05-17T20:08:04Z</time>
      </trkpt>
      <trkpt lat="49.24314" lon="-0.32811">
        <ele>24.2</ele>
        <time>2023-05-17T20:08:07Z</time>
      </trkpt>
      <trkpt lat="49.2433" lon="-0.32832">
        <ele>24.1</ele>
        <time>2023-05-17T20:08:11Z</time>
      </trkpt>
      <trkpt lat="49.24346" lon="-0.32856">
        <ele>24</ele>
        <time>2023-05-17T20:08:15Z</time>
      </trkpt>
      <trkpt lat="49.24365" lon="-0.32878">
        <ele>23.8</ele>
        <time>2023-05-17T20:08:19Z</time>
      </trkpt>
      <trkpt lat="49.24382" lon="-0.32893">
        <ele>23.6</ele>
        <time>2023-05-17T20:08:22Z</time>
      </trkpt>
      <trkpt lat="49.24386" lon="-0.32923">
        <ele>23.6</ele>
        <time>2023-05-17T20:08:25Z</time>
      </trkpt>
      <trkpt lat="49.24384" lon="-0.32952">
        <ele>23.6</ele>
        <time>2023-05-17T20:08:28Z</time>
      </trkpt>
      <trkpt lat="49.24379" lon="-0.32987">
        <ele>23.8</ele>
        <time>2023-05-17T20:08:32Z</time>
      </trkpt>
      <trkpt lat="49.24372" lon="-0.33016">
        <ele>23.9</ele>
        <time>2023-05-17T20:08:35Z</time>
      </trkpt>
      <trkpt lat="49.24366" lon="-0.33046">
        <ele>24.1</ele>
        <time>2023-05-17T20:08:38Z</time>
      </trkpt>
      <trkpt lat="49.2436" lon="-0.33076">
        <ele>24.3</ele>
        <time>2023-05-17T20:08:41Z</time>
      </trkpt>
      <trkpt lat="49.24355" lon="-0.33106">
        <ele>24.5</ele>
        <time>2023-05-17T20:08:44Z</time>
      </trkpt>
      <trkpt lat="49.24354" lon="-0.33138">
        <ele>24.8</ele>
        <time>2023-05-17T20:08:47Z</time>
      </trkpt>
      <trkpt lat="49.24354" lon="-0.33168">
        <ele>24.8</ele>
        <time>2023-05-17T20:08:50Z</time>
      </trkpt>
      <trkpt lat="49.24356" lon="-0.332">
        <ele>25</ele>
        <time>2023-05-17T20:08:53Z</time>
      </trkpt>
      <trkpt lat="49.24359" lon="-0.3323">
        <ele>25.1</ele>
        <time>2023-05-17T20:08:56Z</time>
      </trkpt>
      <trkpt lat="49.24361" lon="-0.33261">
        <ele>25.2</ele>
        <time>2023-05-17T20:08:59Z</time>
      </trkpt>
      <trkpt lat="49.24363" lon="-0.33292">
        <ele>25.4</ele>
        <time>2023-05-17T20:09:02Z</time>
      </trkpt>
      <trkpt lat="49.24365" lon="-0.33324">
        <ele>25.5</ele>
        <time>2023-05-17T20:09:05Z</time>
      </trkpt>
      <trkpt lat="49.24366" lon="-0.33353">
        <ele>25.6</ele>
        <time>2023-05-17T20:09:08Z</time>
      </trkpt>
      <trkpt lat="49.24369" lon="-0.33384">
        <ele>25.7</ele>
        <time>2023-05-17T20:09:11Z</time>
      </trkpt>
      <trkpt lat="49.24371" lon="-0.33416">
        <ele>25.8</ele>
        <time>2023-05-17T20:09:14Z</time>
      </trkpt>
      <trkpt lat="49.24375" lon="-0.33447">
        <ele>26</ele>
        <time>2023-05-17T20:09:17Z</time>
      </trkpt>
      <trkpt lat="49.24375" lon="-0.33477">
        <ele>26.1</ele>
        <time>2023-05-17T20:09:20Z</time>
      </trkpt>
      <trkpt lat="49.24378" lon="-0.33507">
        <ele>26.2</ele>
        <time>2023-05-17T20:09:23Z</time>
      </trkpt>
      <trkpt lat="49.24386" lon="-0.33532">
        <ele>26.4</ele>
        <time>2023-05-17T20:09:26Z</time>
      </trkpt>
      <trkpt lat="49.24396" lon="-0.33558">
        <ele>26.5</ele>
        <time>2023-05-17T20:09:29Z</time>
      </trkpt>
      <trkpt lat="49.24388" lon="-0.33587">
        <ele>26.6</ele>
        <time>2023-05-17T20:09:32Z</time>
      </trkpt>
      <trkpt lat="49.24379" lon="-0.33617">
        <ele>26.7</ele>
        <time>2023-05-17T20:09:35Z</time>
      </trkpt>
      <trkpt lat="49.24377" lon="-0.3365">
        <ele>26.8</ele>
        <time>2023-05-17T20:09:38Z</time>
      </trkpt>
      <trkpt lat="49.24377" lon="-0.33684">
        <ele>26.8</ele>
        <time>2023-05-17T20:09:41Z</time>
      </trkpt>
      <trkpt lat="49.24375" lon="-0.33719">
        <ele>26.8</ele>
        <time>2023-05-17T20:09:44Z</time>
      </trkpt>
      <trkpt lat="49.24374" lon="-0.33752">
        <ele>26.9</ele>
        <time>2023-05-17T20:09:47Z</time>
      </trkpt>
      <trkpt lat="49.24372" lon="-0.33786">
        <ele>26.9</ele>
        <time>2023-05-17T20:09:50Z</time>
      </trkpt>
      <trkpt lat="49.24372" lon="-0.33818">
        <ele>26.9</ele>
        <time>2023-05-17T20:09:53Z</time>
      </trkpt>
      <trkpt lat="49.2437" lon="-0.33852">
        <ele>26.9</ele>
        <time>2023-05-17T20:09:56Z</time>
      </trkpt>
      <trkpt lat="49.24367" lon="-0.33885">
        <ele>27</ele>
        <time>2023-05-17T20:09:59Z</time>
      </trkpt>
      <trkpt lat="49.24363" lon="-0.33917">
        <ele>27</ele>
        <time>2023-05-17T20:10:02Z</time>
      </trkpt>
      <trkpt lat="49.2436" lon="-0.33951">
        <ele>27.1</ele>
        <time>2023-05-17T20:10:05Z</time>
      </trkpt>
      <trkpt lat="49.24355" lon="-0.33984">
        <ele>27.2</ele>
        <time>2023-05-17T20:10:08Z</time>
      </trkpt>
      <trkpt lat="49.2435" lon="-0.34017">
        <ele>27.2</ele>
        <time>2023-05-17T20:10:11Z</time>
      </trkpt>
      <trkpt lat="49.24346" lon="-0.34051">
        <ele>27.2</ele>
        <time>2023-05-17T20:10:14Z</time>
      </trkpt>
      <trkpt lat="49.24342" lon="-0.34086">
        <ele>27.3</ele>
        <time>2023-05-17T20:10:17Z</time>
      </trkpt>
      <trkpt lat="49.24337" lon="-0.34119">
        <ele>27.5</ele>
        <time>2023-05-17T20:10:20Z</time>
      </trkpt>
      <trkpt lat="49.24333" lon="-0.34151">
        <ele>27.7</ele>
        <time>2023-05-17T20:10:23Z</time>
      </trkpt>
      <trkpt lat="49.24329" lon="-0.34183">
        <ele>28</ele>
        <time>2023-05-17T20:10:26Z</time>
      </trkpt>
      <trkpt lat="49.24324" lon="-0.34216">
        <ele>28.3</ele>
        <time>2023-05-17T20:10:29Z</time>
      </trkpt>
      <trkpt lat="49.24322" lon="-0.34249">
        <ele>28.6</ele>
        <time>2023-05-17T20:10:32Z</time>
      </trkpt>
      <trkpt lat="49.24321" lon="-0.34283">
        <ele>29</ele>
        <time>2023-05-17T20:10:35Z</time>
      </trkpt>
      <trkpt lat="49.24323" lon="-0.34316">
        <ele>29.6</ele>
        <time>2023-05-17T20:10:38Z</time>
      </trkpt>
      <trkpt lat="49.24326" lon="-0.34347">
        <ele>30.2</ele>
        <time>2023-05-17T20:10:41Z</time>
      </trkpt>
      <trkpt lat="49.24332" lon="-0.34376">
        <ele>30.8</ele>
        <time>2023-05-17T20:10:44Z</time>
      </trkpt>
      <trkpt lat="49.24339" lon="-0.34403">
        <ele>31.4</ele>
        <time>2023-05-17T20:10:47Z</time>
      </trkpt>
      <trkpt lat="49.24345" lon="-0.34429">
        <ele>32</ele>
        <time>2023-05-17T20:10:50Z</time>
      </trkpt>
      <trkpt lat="49.24351" lon="-0.34455">
        <ele>32.6</ele>
        <time>2023-05-17T20:10:53Z</time>
      </trkpt>
      <trkpt lat="49.24359" lon="-0.34488">
        <ele>33.2</ele>
        <time>2023-05-17T20:10:57Z</time>
      </trkpt>
      <trkpt lat="49.24368" lon="-0.34521">
        <ele>33.9</ele>
        <time>2023-05-17T20:11:01Z</time>
      </trkpt>
      <trkpt lat="49.24376" lon="-0.34553">
        <ele>34.5</ele>
        <time>2023-05-17T20:11:05Z</time>
      </trkpt>
      <trkpt lat="49.24384" lon="-0.34587">
        <ele>35</ele>
        <time>2023-05-17T20:11:09Z</time>
      </trkpt>
      <trkpt lat="49.2439" lon="-0.34613">
        <ele>35.3</ele>
        <time>2023-05-17T20:11:12Z</time>
      </trkpt>
      <trkpt lat="49.24397" lon="-0.34639">
        <ele>35.6</ele>
        <time>2023-05-17T20:11:15Z</time>
      </trkpt>
      <trkpt lat="49.24403" lon="-0.34665">
        <ele>35.8</ele>
        <time>2023-05-17T20:11:18Z</time>
      </trkpt>
      <trkpt lat="49.2441" lon="-0.34691">
        <ele>36</ele>
        <time>2023-05-17T20:11:21Z</time>
      </trkpt>
      <trkpt lat="49.24416" lon="-0.34717">
        <ele>36.2</ele>
        <time>2023-05-17T20:11:24Z</time>
      </trkpt>
      <trkpt lat="49.24422" lon="-0.34745">
        <ele>36.3</ele>
        <time>2023-05-17T20:11:27Z</time>
      </trkpt>
      <trkpt lat="49.24429" lon="-0.34772">
        <ele>36.4</ele>
        <time>2023-05-17T20:11:30Z</time>
      </trkpt>
      <trkpt lat="49.24435" lon="-0.348">
        <ele>36.5</ele>
        <time>2023-05-17T20:11:33Z</time>
      </trkpt>
      <trkpt lat="49.24442" lon="-0.3483">
        <ele>36.7</ele>
        <time>2023-05-17T20:11:36Z</time>
      </trkpt>
      <trkpt lat="49.24448" lon="-0.3486">
        <ele>36.9</ele>
        <time>2023-05-17T20:11:39Z</time>
      </trkpt>
      <trkpt lat="49.24453" lon="-0.34891">
        <ele>37</ele>
        <time>2023-05-17T20:11:42Z</time>
      </trkpt>
      <trkpt lat="49.2446" lon="-0.34921">
        <ele>37.2</ele>
        <time>2023-05-17T20:11:45Z</time>
      </trkpt>
      <trkpt lat="49.24466" lon="-0.3495">
        <ele>37.3</ele>
        <time>2023-05-17T20:11:48Z</time>
      </trkpt>
      <trkpt lat="49.24472" lon="-0.34979">
        <ele>37.4</ele>
        <time>2023-05-17T20:11:51Z</time>
      </trkpt>
      <trkpt lat="49.24478" lon="-0.35009">
        <ele>37.6</ele>
        <time>2023-05-17T20:11:54Z</time>
      </trkpt>
      <trkpt lat="49.24485" lon="-0.35039">
        <ele>37.7</ele>
        <time>2023-05-17T20:11:57Z</time>
      </trkpt>
      <trkpt lat="49.24494" lon="-0.35068">
        <ele>37.9</ele>
        <time>2023-05-17T20:12:00Z</time>
      </trkpt>
      <trkpt lat="49.24502" lon="-0.35098">
        <ele>38</ele>
        <time>2023-05-17T20:12:03Z</time>
      </trkpt>
      <trkpt lat="49.24511" lon="-0.35127">
        <ele>38</ele>
        <time>2023-05-17T20:12:06Z</time>
      </trkpt>
      <trkpt lat="49.2452" lon="-0.35156">
        <ele>37.9</ele>
        <time>2023-05-17T20:12:09Z</time>
      </trkpt>
      <trkpt lat="49.24529" lon="-0.35185">
        <ele>37.8</ele>
        <time>2023-05-17T20:12:12Z</time>
      </trkpt>
      <trkpt lat="49.24538" lon="-0.35215">
        <ele>37.5</ele>
        <time>2023-05-17T20:12:15Z</time>
      </trkpt>
      <trkpt lat="49.24548" lon="-0.35246">
        <ele>37</ele>
        <time>2023-05-17T20:12:18Z</time>
      </trkpt>
      <trkpt lat="49.24559" lon="-0.35278">
        <ele>36.4</ele>
        <time>2023-05-17T20:12:21Z</time>
      </trkpt>
      <trkpt lat="49.24569" lon="-0.35313">
        <ele>35.7</ele>
        <time>2023-05-17T20:12:24Z</time>
      </trkpt>
      <trkpt lat="49.2458" lon="-0.35347">
        <ele>35</ele>
        <time>2023-05-17T20:12:27Z</time>
      </trkpt>
      <trkpt lat="49.24592" lon="-0.35383">
        <ele>34.4</ele>
        <time>2023-05-17T20:12:30Z</time>
      </trkpt>
      <trkpt lat="49.24605" lon="-0.35418">
        <ele>34</ele>
        <time>2023-05-17T20:12:33Z</time>
      </trkpt>
      <trkpt lat="49.24619" lon="-0.35453">
        <ele>34</ele>
        <time>2023-05-17T20:12:36Z</time>
      </trkpt>
      <trkpt lat="49.24632" lon="-0.35486">
        <ele>34.3</ele>
        <time>2023-05-17T20:12:39Z</time>
      </trkpt>
      <trkpt lat="49.24644" lon="-0.35517">
        <ele>34.9</ele>
        <time>2023-05-17T20:12:42Z</time>
      </trkpt>
      <trkpt lat="49.24655" lon="-0.35543">
        <ele>35.5</ele>
        <time>2023-05-17T20:12:45Z</time>
      </trkpt>
      <trkpt lat="49.24665" lon="-0.35569">
        <ele>36.2</ele>
        <time>2023-05-17T20:12:48Z</time>
      </trkpt>
      <trkpt lat="49.24676" lon="-0.35595">
        <ele>36.9</ele>
        <time>2023-05-17T20:12:51Z</time>
      </trkpt>
      <trkpt lat="49.24686" lon="-0.35619">
        <ele>37.5</ele>
        <time>2023-05-17T20:12:54Z</time>
      </trkpt>
      <trkpt lat="49.24698" lon="-0.3565">
        <ele>38.2</ele>
        <time>2023-05-17T20:12:58Z</time>
      </trkpt>
      <trkpt lat="49.2471" lon="-0.3568">
        <ele>38.9</ele>
        <time>2023-05-17T20:13:02Z</time>
      </trkpt>
      <trkpt lat="49.24721" lon="-0.3571">
        <ele>39.5</ele>
        <time>2023-05-17T20:13:06Z</time>
      </trkpt>
      <trkpt lat="49.24733" lon="-0.3574">
        <ele>40.2</ele>
        <time>2023-05-17T20:13:10Z</time>
      </trkpt>
      <trkpt lat="49.24746" lon="-0.35769">
        <ele>40.8</ele>
        <time>2023-05-17T20:13:14Z</time>
      </trkpt>
      <trkpt lat="49.24758" lon="-0.358">
        <ele>41.4</ele>
        <time>2023-05-17T20:13:18Z</time>
      </trkpt>
      <trkpt lat="49.24771" lon="-0.35831">
        <ele>41.9</ele>
        <time>2023-05-17T20:13:22Z</time>
      </trkpt>
      <trkpt lat="49.24782" lon="-0.35862">
        <ele>42.4</ele>
        <time>2023-05-17T20:13:26Z</time>
      </trkpt>
      <trkpt lat="49.24795" lon="-0.35892">
        <ele>42.9</ele>
        <time>2023-05-17T20:13:30Z</time>
      </trkpt>
      <trkpt lat="49.24807" lon="-0.35922">
        <ele>43.3</ele>
        <time>2023-05-17T20:13:34Z</time>
      </trkpt>
      <trkpt lat="49.24818" lon="-0.35951">
        <ele>43.7</ele>
        <time>2023-05-17T20:13:38Z</time>
      </trkpt>
      <trkpt lat="49.24829" lon="-0.35981">
        <ele>44.1</ele>
        <time>2023-05-17T20:13:42Z</time>
      </trkpt>
      <trkpt lat="49.24841" lon="-0.36009">
        <ele>44.4</ele>
        <time>2023-05-17T20:13:46Z</time>
      </trkpt>
      <trkpt lat="49.24854" lon="-0.36039">
        <ele>44.8</ele>
        <time>2023-05-17T20:13:50Z</time>
      </trkpt>
      <trkpt lat="49.24866" lon="-0.3607">
        <ele>45.2</ele>
        <time>2023-05-17T20:13:54Z</time>
      </trkpt>
      <trkpt lat="49.24879" lon="-0.361">
        <ele>45.5</ele>
        <time>2023-05-17T20:13:58Z</time>
      </trkpt>
      <trkpt lat="49.2489" lon="-0.36131">
        <ele>45.8</ele>
        <time>2023-05-17T20:14:02Z</time>
      </trkpt>
      <trkpt lat="49.24903" lon="-0.3616">
        <ele>46.1</ele>
        <time>2023-05-17T20:14:06Z</time>
      </trkpt>
      <trkpt lat="49.24916" lon="-0.36189">
        <ele>46.4</ele>
        <time>2023-05-17T20:14:10Z</time>
      </trkpt>
      <trkpt lat="49.2493" lon="-0.36218">
        <ele>46.5</ele>
        <time>2023-05-17T20:14:14Z</time>
      </trkpt>
      <trkpt lat="49.24943" lon="-0.36239">
        <ele>46.5</ele>
        <time>2023-05-17T20:14:17Z</time>
      </trkpt>
      <trkpt lat="49.24955" lon="-0.3626">
        <ele>46.5</ele>
        <time>2023-05-17T20:14:20Z</time>
      </trkpt>
      <trkpt lat="49.24968" lon="-0.36281">
        <ele>46.5</ele>
        <time>2023-05-17T20:14:23Z</time>
      </trkpt>
      <trkpt lat="49.2498" lon="-0.36303">
        <ele>46.5</ele>
        <time>2023-05-17T20:14:26Z</time>
      </trkpt>
      <trkpt lat="49.24993" lon="-0.36325">
        <ele>46.5</ele>
        <time>2023-05-17T20:14:29Z</time>
      </trkpt>
      <trkpt lat="49.25005" lon="-0.36345">
        <ele>46.5</ele>
        <time>2023-05-17T20:14:32Z</time>
      </trkpt>
      <trkpt lat="49.25018" lon="-0.36368">
        <ele>46.4</ele>
        <time>2023-05-17T20:14:35Z</time>
      </trkpt>
      <trkpt lat="49.25032" lon="-0.36391">
        <ele>46.4</ele>
        <time>2023-05-17T20:14:38Z</time>
      </trkpt>
      <trkpt lat="49.25046" lon="-0.36414">
        <ele>46.4</ele>
        <time>2023-05-17T20:14:41Z</time>
      </trkpt>
      <trkpt lat="49.2506" lon="-0.36438">
        <ele>46.4</ele>
        <time>2023-05-17T20:14:44Z</time>
      </trkpt>
      <trkpt lat="49.25075" lon="-0.36461">
        <ele>46.4</ele>
        <time>2023-05-17T20:14:47Z</time>
      </trkpt>
      <trkpt lat="49.25089" lon="-0.36485">
        <ele>46.5</ele>
        <time>2023-05-17T20:14:50Z</time>
      </trkpt>
      <trkpt lat="49.25101" lon="-0.36506">
        <ele>46.6</ele>
        <time>2023-05-17T20:14:53Z</time>
      </trkpt>
      <trkpt lat="49.25109" lon="-0.36531">
        <ele>46.6</ele>
        <time>2023-05-17T20:14:56Z</time>
      </trkpt>
      <trkpt lat="49.25115" lon="-0.36558">
        <ele>46.7</ele>
        <time>2023-05-17T20:14:59Z</time>
      </trkpt>
      <trkpt lat="49.25122" lon="-0.36585">
        <ele>46.7</ele>
        <time>2023-05-17T20:15:02Z</time>
      </trkpt>
      <trkpt lat="49.25131" lon="-0.36609">
        <ele>46.7</ele>
        <time>2023-05-17T20:15:05Z</time>
      </trkpt>
      <trkpt lat="49.25145" lon="-0.36629">
        <ele>46.8</ele>
        <time>2023-05-17T20:15:08Z</time>
      </trkpt>
      <trkpt lat="49.25163" lon="-0.36643">
        <ele>46.9</ele>
        <time>2023-05-17T20:15:11Z</time>
      </trkpt>
      <trkpt lat="49.25177" lon="-0.3666">
        <ele>47.2</ele>
        <time>2023-05-17T20:15:14Z</time>
      </trkpt>
      <trkpt lat="49.25193" lon="-0.36676">
        <ele>47.3</ele>
        <time>2023-05-17T20:15:17Z</time>
      </trkpt>
      <trkpt lat="49.25209" lon="-0.36691">
        <ele>47.3</ele>
        <time>2023-05-17T20:15:20Z</time>
      </trkpt>
      <trkpt lat="49.25224" lon="-0.36707">
        <ele>47.2</ele>
        <time>2023-05-17T20:15:23Z</time>
      </trkpt>
      <trkpt lat="49.25242" lon="-0.36722">
        <ele>47.1</ele>
        <time>2023-05-17T20:15:26Z</time>
      </trkpt>
      <trkpt lat="49.25258" lon="-0.36736">
        <ele>46.9</ele>
        <time>2023-05-17T20:15:29Z</time>
      </trkpt>
      <trkpt lat="49.25275" lon="-0.36753">
        <ele>46.7</ele>
        <time>2023-05-17T20:15:32Z</time>
      </trkpt>
      <trkpt lat="49.25291" lon="-0.36766">
        <ele>46.4</ele>
        <time>2023-05-17T20:15:35Z</time>
      </trkpt>
      <trkpt lat="49.25309" lon="-0.36774">
        <ele>46.1</ele>
        <time>2023-05-17T20:15:38Z</time>
      </trkpt>
      <trkpt lat="49.25326" lon="-0.36789">
        <ele>45.7</ele>
        <time>2023-05-17T20:15:41Z</time>
      </trkpt>
      <trkpt lat="49.25345" lon="-0.36808">
        <ele>45.3</ele>
        <time>2023-05-17T20:15:44Z</time>
      </trkpt>
      <trkpt lat="49.25365" lon="-0.36826">
        <ele>45</ele>
        <time>2023-05-17T20:15:47Z</time>
      </trkpt>
      <trkpt lat="49.25381" lon="-0.36849">
        <ele>44.8</ele>
        <time>2023-05-17T20:15:50Z</time>
      </trkpt>
      <trkpt lat="49.25397" lon="-0.36869">
        <ele>44.5</ele>
        <time>2023-05-17T20:15:53Z</time>
      </trkpt>
      <trkpt lat="49.25414" lon="-0.36891">
        <ele>44.2</ele>
        <time>2023-05-17T20:15:56Z</time>
      </trkpt>
      <trkpt lat="49.2543" lon="-0.36911">
        <ele>43.9</ele>
        <time>2023-05-17T20:15:59Z</time>
      </trkpt>
      <trkpt lat="49.25446" lon="-0.36931">
        <ele>43.6</ele>
        <time>2023-05-17T20:16:02Z</time>
      </trkpt>
      <trkpt lat="49.25457" lon="-0.36961">
        <ele>43.3</ele>
        <time>2023-05-17T20:16:05Z</time>
      </trkpt>
      <trkpt lat="49.25459" lon="-0.36995">
        <ele>43.1</ele>
        <time>2023-05-17T20:16:08Z</time>
      </trkpt>
      <trkpt lat="49.25467" lon="-0.37026">
        <ele>42.9</ele>
        <time>2023-05-17T20:16:11Z</time>
      </trkpt>
      <trkpt lat="49.25476" lon="-0.37061">
        <ele>42.9</ele>
        <time>2023-05-17T20:16:14Z</time>
      </trkpt>
      <trkpt lat="49.25487" lon="-0.37095">
        <ele>43</ele>
        <time>2023-05-17T20:16:17Z</time>
      </trkpt>
      <trkpt lat="49.25495" lon="-0.3712">
        <ele>43.1</ele>
        <time>2023-05-17T20:16:20Z</time>
      </trkpt>
      <trkpt lat="49.25504" lon="-0.37145">
        <ele>43.1</ele>
        <time>2023-05-17T20:16:23Z</time>
      </trkpt>
      <trkpt lat="49.2552" lon="-0.37168">
        <ele>43.1</ele>
        <time>2023-05-17T20:16:27Z</time>
      </trkpt>
      <trkpt lat="49.25536" lon="-0.37185">
        <ele>43.1</ele>
        <time>2023-05-17T20:17:00Z</time>
      </trkpt>
      <trkpt lat="49.2555" lon="-0.37201">
        <ele>43.2</ele>
        <time>2023-05-17T20:17:07Z</time>
      </trkpt>
      <trkpt lat="49.25562" lon="-0.37226">
        <ele>43.3</ele>
        <time>2023-05-17T20:17:13Z</time>
      </trkpt>
      <trkpt lat="49.25567" lon="-0.37254">
        <ele>43.4</ele>
        <time>2023-05-17T20:17:17Z</time>
      </trkpt>
      <trkpt lat="49.25572" lon="-0.37286">
        <ele>43.4</ele>
        <time>2023-05-17T20:17:21Z</time>
      </trkpt>
      <trkpt lat="49.25564" lon="-0.37317">
        <ele>43.8</ele>
        <time>2023-05-17T20:17:25Z</time>
      </trkpt>
      <trkpt lat="49.25572" lon="-0.37344">
        <ele>44.6</ele>
        <time>2023-05-17T20:17:30Z</time>
      </trkpt>
      <trkpt lat="49.25592" lon="-0.37348">
        <ele>44.5</ele>
        <time>2023-05-17T20:17:35Z</time>
      </trkpt>
      <trkpt lat="49.25611" lon="-0.37355">
        <ele>44.7</ele>
        <time>2023-05-17T20:17:39Z</time>
      </trkpt>
      <trkpt lat="49.25632" lon="-0.3736">
        <ele>45</ele>
        <time>2023-05-17T20:17:43Z</time>
      </trkpt>
      <trkpt lat="49.25651" lon="-0.37365">
        <ele>45.3</ele>
        <time>2023-05-17T20:17:47Z</time>
      </trkpt>
      <trkpt lat="49.25674" lon="-0.37368">
        <ele>45.5</ele>
        <time>2023-05-17T20:17:51Z</time>
      </trkpt>
      <trkpt lat="49.25697" lon="-0.37376">
        <ele>45.7</ele>
        <time>2023-05-17T20:17:55Z</time>
      </trkpt>
      <trkpt lat="49.25715" lon="-0.37381">
        <ele>45.9</ele>
        <time>2023-05-17T20:17:58Z</time>
      </trkpt>
      <trkpt lat="49.25733" lon="-0.37386">
        <ele>46.1</ele>
        <time>2023-05-17T20:18:01Z</time>
      </trkpt>
      <trkpt lat="49.25752" lon="-0.37391">
        <ele>46.4</ele>
        <time>2023-05-17T20:18:04Z</time>
      </trkpt>
      <trkpt lat="49.25771" lon="-0.37394">
        <ele>46.7</ele>
        <time>2023-05-17T20:18:07Z</time>
      </trkpt>
      <trkpt lat="49.25789" lon="-0.37399">
        <ele>47</ele>
        <time>2023-05-17T20:18:10Z</time>
      </trkpt>
      <trkpt lat="49.2581" lon="-0.37403">
        <ele>47.4</ele>
        <time>2023-05-17T20:18:14Z</time>
      </trkpt>
      <trkpt lat="49.25831" lon="-0.3741">
        <ele>47.7</ele>
        <time>2023-05-17T20:18:18Z</time>
      </trkpt>
      <trkpt lat="49.25855" lon="-0.37417">
        <ele>48</ele>
        <time>2023-05-17T20:18:22Z</time>
      </trkpt>
      <trkpt lat="49.25878" lon="-0.37423">
        <ele>48.3</ele>
        <time>2023-05-17T20:18:26Z</time>
      </trkpt>
      <trkpt lat="49.25901" lon="-0.37432">
        <ele>48.7</ele>
        <time>2023-05-17T20:18:30Z</time>
      </trkpt>
      <trkpt lat="49.25919" lon="-0.37437">
        <ele>49.1</ele>
        <time>2023-05-17T20:18:33Z</time>
      </trkpt>
      <trkpt lat="49.25937" lon="-0.37441">
        <ele>49.4</ele>
        <time>2023-05-17T20:18:36Z</time>
      </trkpt>
      <trkpt lat="49.25955" lon="-0.37446">
        <ele>49.7</ele>
        <time>2023-05-17T20:18:39Z</time>
      </trkpt>
      <trkpt lat="49.25977" lon="-0.37452">
        <ele>50</ele>
        <time>2023-05-17T20:18:43Z</time>
      </trkpt>
      <trkpt lat="49.25998" lon="-0.37459">
        <ele>50.3</ele>
        <time>2023-05-17T20:18:47Z</time>
      </trkpt>
      <trkpt lat="49.26021" lon="-0.37465">
        <ele>50.5</ele>
        <time>2023-05-17T20:18:51Z</time>
      </trkpt>
      <trkpt lat="49.26043" lon="-0.3747">
        <ele>50.9</ele>
        <time>2023-05-17T20:18:55Z</time>
      </trkpt>
      <trkpt lat="49.26065" lon="-0.37476">
        <ele>51.2</ele>
        <time>2023-05-17T20:18:59Z</time>
      </trkpt>
      <trkpt lat="49.26088" lon="-0.37483">
        <ele>51.5</ele>
        <time>2023-05-17T20:19:03Z</time>
      </trkpt>
      <trkpt lat="49.26106" lon="-0.37489">
        <ele>51.6</ele>
        <time>2023-05-17T20:19:06Z</time>
      </trkpt>
      <trkpt lat="49.26129" lon="-0.37495">
        <ele>51.7</ele>
        <time>2023-05-17T20:19:10Z</time>
      </trkpt>
      <trkpt lat="49.26147" lon="-0.375">
        <ele>51.8</ele>
        <time>2023-05-17T20:19:13Z</time>
      </trkpt>
      <trkpt lat="49.26166" lon="-0.37504">
        <ele>51.9</ele>
        <time>2023-05-17T20:19:16Z</time>
      </trkpt>
      <trkpt lat="49.26185" lon="-0.37509">
        <ele>51.9</ele>
        <time>2023-05-17T20:19:19Z</time>
      </trkpt>
      <trkpt lat="49.26203" lon="-0.37514">
        <ele>52</ele>
        <time>2023-05-17T20:19:22Z</time>
      </trkpt>
      <trkpt lat="49.26223" lon="-0.3752">
        <ele>52</ele>
        <time>2023-05-17T20:19:25Z</time>
      </trkpt>
      <trkpt lat="49.26241" lon="-0.37525">
        <ele>52</ele>
        <time>2023-05-17T20:19:28Z</time>
      </trkpt>
      <trkpt lat="49.26261" lon="-0.37529">
        <ele>52</ele>
        <time>2023-05-17T20:19:31Z</time>
      </trkpt>
      <trkpt lat="49.26281" lon="-0.37535">
        <ele>52</ele>
        <time>2023-05-17T20:19:34Z</time>
      </trkpt>
      <trkpt lat="49.263" lon="-0.37539">
        <ele>52</ele>
        <time>2023-05-17T20:19:37Z</time>
      </trkpt>
      <trkpt lat="49.26321" lon="-0.37544">
        <ele>51.9</ele>
        <time>2023-05-17T20:19:40Z</time>
      </trkpt>
      <trkpt lat="49.26341" lon="-0.37549">
        <ele>51.9</ele>
        <time>2023-05-17T20:19:43Z</time>
      </trkpt>
      <trkpt lat="49.26361" lon="-0.37556">
        <ele>51.9</ele>
        <time>2023-05-17T20:19:46Z</time>
      </trkpt>
      <trkpt lat="49.2638" lon="-0.37563">
        <ele>51.8</ele>
        <time>2023-05-17T20:19:49Z</time>
      </trkpt>
      <trkpt lat="49.26401" lon="-0.3757">
        <ele>51.8</ele>
        <time>2023-05-17T20:19:52Z</time>
      </trkpt>
      <trkpt lat="49.26421" lon="-0.37576">
        <ele>51.7</ele>
        <time>2023-05-17T20:19:55Z</time>
      </trkpt>
      <trkpt lat="49.26441" lon="-0.37582">
        <ele>51.6</ele>
        <time>2023-05-17T20:19:58Z</time>
      </trkpt>
      <trkpt lat="49.26461" lon="-0.37586">
        <ele>51.5</ele>
        <time>2023-05-17T20:20:01Z</time>
      </trkpt>
      <trkpt lat="49.26482" lon="-0.37592">
        <ele>51.4</ele>
        <time>2023-05-17T20:20:04Z</time>
      </trkpt>
      <trkpt lat="49.26503" lon="-0.37597">
        <ele>51.3</ele>
        <time>2023-05-17T20:20:07Z</time>
      </trkpt>
      <trkpt lat="49.26523" lon="-0.37602">
        <ele>51.1</ele>
        <time>2023-05-17T20:20:10Z</time>
      </trkpt>
      <trkpt lat="49.26543" lon="-0.37608">
        <ele>51</ele>
        <time>2023-05-17T20:20:13Z</time>
      </trkpt>
      <trkpt lat="49.26564" lon="-0.37615">
        <ele>50.9</ele>
        <time>2023-05-17T20:20:16Z</time>
      </trkpt>
      <trkpt lat="49.26584" lon="-0.37621">
        <ele>50.8</ele>
        <time>2023-05-17T20:20:19Z</time>
      </trkpt>
      <trkpt lat="49.26603" lon="-0.37625">
        <ele>50.8</ele>
        <time>2023-05-17T20:20:22Z</time>
      </trkpt>
      <trkpt lat="49.26622" lon="-0.37631">
        <ele>50.7</ele>
        <time>2023-05-17T20:20:25Z</time>
      </trkpt>
      <trkpt lat="49.26641" lon="-0.37637">
        <ele>50.6</ele>
        <time>2023-05-17T20:20:28Z</time>
      </trkpt>
      <trkpt lat="49.2666" lon="-0.37643">
        <ele>50.4</ele>
        <time>2023-05-17T20:20:31Z</time>
      </trkpt>
      <trkpt lat="49.2668" lon="-0.37648">
        <ele>50.3</ele>
        <time>2023-05-17T20:20:34Z</time>
      </trkpt>
      <trkpt lat="49.267" lon="-0.37653">
        <ele>50.2</ele>
        <time>2023-05-17T20:20:37Z</time>
      </trkpt>
      <trkpt lat="49.26719" lon="-0.37658">
        <ele>50.1</ele>
        <time>2023-05-17T20:20:40Z</time>
      </trkpt>
      <trkpt lat="49.26739" lon="-0.37663">
        <ele>50.1</ele>
        <time>2023-05-17T20:20:43Z</time>
      </trkpt>
      <trkpt lat="49.26759" lon="-0.37668">
        <ele>50</ele>
        <time>2023-05-17T20:20:46Z</time>
      </trkpt>
      <trkpt lat="49.26778" lon="-0.37674">
        <ele>49.9</ele>
        <time>2023-05-17T20:20:49Z</time>
      </trkpt>
      <trkpt lat="49.26797" lon="-0.37684">
        <ele>49.9</ele>
        <time>2023-05-17T20:20:52Z</time>
      </trkpt>
      <trkpt lat="49.26817" lon="-0.3769">
        <ele>49.9</ele>
        <time>2023-05-17T20:20:55Z</time>
      </trkpt>
      <trkpt lat="49.26837" lon="-0.37687">
        <ele>49.6</ele>
        <time>2023-05-17T20:20:58Z</time>
      </trkpt>
      <trkpt lat="49.26858" lon="-0.37686">
        <ele>49.2</ele>
        <time>2023-05-17T20:21:01Z</time>
      </trkpt>
      <trkpt lat="49.26879" lon="-0.37685">
        <ele>49.1</ele>
        <time>2023-05-17T20:21:04Z</time>
      </trkpt>
      <trkpt lat="49.269" lon="-0.37686">
        <ele>48.9</ele>
        <time>2023-05-17T20:21:07Z</time>
      </trkpt>
      <trkpt lat="49.26922" lon="-0.37687">
        <ele>48.7</ele>
        <time>2023-05-17T20:21:10Z</time>
      </trkpt>
      <trkpt lat="49.26944" lon="-0.3769">
        <ele>48.4</ele>
        <time>2023-05-17T20:21:13Z</time>
      </trkpt>
      <trkpt lat="49.26965" lon="-0.37694">
        <ele>48.3</ele>
        <time>2023-05-17T20:21:16Z</time>
      </trkpt>
      <trkpt lat="49.26986" lon="-0.37699">
        <ele>48.1</ele>
        <time>2023-05-17T20:21:19Z</time>
      </trkpt>
      <trkpt lat="49.27008" lon="-0.37705">
        <ele>47.7</ele>
        <time>2023-05-17T20:21:22Z</time>
      </trkpt>
      <trkpt lat="49.2703" lon="-0.37712">
        <ele>47.4</ele>
        <time>2023-05-17T20:21:25Z</time>
      </trkpt>
      <trkpt lat="49.27052" lon="-0.37717">
        <ele>47.2</ele>
        <time>2023-05-17T20:21:28Z</time>
      </trkpt>
      <trkpt lat="49.27074" lon="-0.37723">
        <ele>46.9</ele>
        <time>2023-05-17T20:21:31Z</time>
      </trkpt>
      <trkpt lat="49.27096" lon="-0.3773">
        <ele>46.7</ele>
        <time>2023-05-17T20:21:34Z</time>
      </trkpt>
      <trkpt lat="49.27118" lon="-0.37735">
        <ele>46.4</ele>
        <time>2023-05-17T20:21:37Z</time>
      </trkpt>
      <trkpt lat="49.27141" lon="-0.37741">
        <ele>46.3</ele>
        <time>2023-05-17T20:21:40Z</time>
      </trkpt>
      <trkpt lat="49.27162" lon="-0.37748">
        <ele>46.3</ele>
        <time>2023-05-17T20:21:43Z</time>
      </trkpt>
      <trkpt lat="49.27183" lon="-0.37754">
        <ele>46.3</ele>
        <time>2023-05-17T20:21:46Z</time>
      </trkpt>
      <trkpt lat="49.27203" lon="-0.37761">
        <ele>46.2</ele>
        <time>2023-05-17T20:21:49Z</time>
      </trkpt>
      <trkpt lat="49.27223" lon="-0.37768">
        <ele>46.2</ele>
        <time>2023-05-17T20:21:52Z</time>
      </trkpt>
      <trkpt lat="49.27244" lon="-0.37775">
        <ele>46.2</ele>
        <time>2023-05-17T20:21:55Z</time>
      </trkpt>
      <trkpt lat="49.27265" lon="-0.3778">
        <ele>46</ele>
        <time>2023-05-17T20:21:58Z</time>
      </trkpt>
      <trkpt lat="49.27285" lon="-0.37785">
        <ele>45.9</ele>
        <time>2023-05-17T20:22:01Z</time>
      </trkpt>
      <trkpt lat="49.27305" lon="-0.3779">
        <ele>45.8</ele>
        <time>2023-05-17T20:22:04Z</time>
      </trkpt>
      <trkpt lat="49.27326" lon="-0.37795">
        <ele>45.6</ele>
        <time>2023-05-17T20:22:07Z</time>
      </trkpt>
      <trkpt lat="49.27347" lon="-0.378">
        <ele>45.4</ele>
        <time>2023-05-17T20:22:10Z</time>
      </trkpt>
      <trkpt lat="49.27368" lon="-0.37805">
        <ele>45.3</ele>
        <time>2023-05-17T20:22:13Z</time>
      </trkpt>
      <trkpt lat="49.27389" lon="-0.37811">
        <ele>45.3</ele>
        <time>2023-05-17T20:22:16Z</time>
      </trkpt>
      <trkpt lat="49.27409" lon="-0.37819">
        <ele>45.3</ele>
        <time>2023-05-17T20:22:19Z</time>
      </trkpt>
      <trkpt lat="49.2743" lon="-0.37824">
        <ele>45.4</ele>
        <time>2023-05-17T20:22:22Z</time>
      </trkpt>
      <trkpt lat="49.27449" lon="-0.37829">
        <ele>45.7</ele>
        <time>2023-05-17T20:22:25Z</time>
      </trkpt>
      <trkpt lat="49.27468" lon="-0.37835">
        <ele>46.2</ele>
        <time>2023-05-17T20:22:28Z</time>
      </trkpt>
      <trkpt lat="49.27487" lon="-0.3783">
        <ele>46.8</ele>
        <time>2023-05-17T20:22:31Z</time>
      </trkpt>
      <trkpt lat="49.27498" lon="-0.37803">
        <ele>47.4</ele>
        <time>2023-05-17T20:22:35Z</time>
      </trkpt>
      <trkpt lat="49.2752" lon="-0.37796">
        <ele>47.6</ele>
        <time>2023-05-17T20:22:39Z</time>
      </trkpt>
      <trkpt lat="49.27541" lon="-0.37793">
        <ele>47.9</ele>
        <time>2023-05-17T20:22:43Z</time>
      </trkpt>
      <trkpt lat="49.27556" lon="-0.37811">
        <ele>47.9</ele>
        <time>2023-05-17T20:22:47Z</time>
      </trkpt>
      <trkpt lat="49.2756" lon="-0.37839">
        <ele>47.8</ele>
        <time>2023-05-17T20:22:50Z</time>
      </trkpt>
      <trkpt lat="49.27571" lon="-0.37868">
        <ele>48.2</ele>
        <time>2023-05-17T20:22:54Z</time>
      </trkpt>
      <trkpt lat="49.27569" lon="-0.37897">
        <ele>48.4</ele>
        <time>2023-05-17T20:23:02Z</time>
      </trkpt>
      <trkpt lat="49.27558" lon="-0.37927">
        <ele>48.3</ele>
        <time>2023-05-17T20:23:08Z</time>
      </trkpt>
      <trkpt lat="49.27541" lon="-0.37945">
        <ele>47.9</ele>
        <time>2023-05-17T20:23:12Z</time>
      </trkpt>
      <trkpt lat="49.27519" lon="-0.37946">
        <ele>47.1</ele>
        <time>2023-05-17T20:23:17Z</time>
      </trkpt>
      <trkpt lat="49.27516" lon="-0.37975">
        <ele>46.8</ele>
        <time>2023-05-17T20:23:29Z</time>
      </trkpt>
      <trkpt lat="49.27528" lon="-0.38008">
        <ele>46.2</ele>
        <time>2023-05-17T20:23:33Z</time>
      </trkpt>
      <trkpt lat="49.27532" lon="-0.38041">
        <ele>45.5</ele>
        <time>2023-05-17T20:23:36Z</time>
      </trkpt>
      <trkpt lat="49.27537" lon="-0.38077">
        <ele>44.8</ele>
        <time>2023-05-17T20:23:39Z</time>
      </trkpt>
      <trkpt lat="49.27543" lon="-0.38112">
        <ele>44.1</ele>
        <time>2023-05-17T20:23:42Z</time>
      </trkpt>
      <trkpt lat="49.27551" lon="-0.38148">
        <ele>43.4</ele>
        <time>2023-05-17T20:23:45Z</time>
      </trkpt>
      <trkpt lat="49.2756" lon="-0.38185">
        <ele>42.6</ele>
        <time>2023-05-17T20:23:48Z</time>
      </trkpt>
      <trkpt lat="49.2757" lon="-0.38223">
        <ele>41.8</ele>
        <time>2023-05-17T20:23:51Z</time>
      </trkpt>
      <trkpt lat="49.27576" lon="-0.38249">
        <ele>41.3</ele>
        <time>2023-05-17T20:23:53Z</time>
      </trkpt>
      <trkpt lat="49.27586" lon="-0.38288">
        <ele>40.7</ele>
        <time>2023-05-17T20:23:56Z</time>
      </trkpt>
      <trkpt lat="49.27593" lon="-0.38313">
        <ele>40.5</ele>
        <time>2023-05-17T20:23:58Z</time>
      </trkpt>
      <trkpt lat="49.27602" lon="-0.3835">
        <ele>40.2</ele>
        <time>2023-05-17T20:24:01Z</time>
      </trkpt>
      <trkpt lat="49.27612" lon="-0.38386">
        <ele>39.8</ele>
        <time>2023-05-17T20:24:04Z</time>
      </trkpt>
      <trkpt lat="49.27622" lon="-0.38422">
        <ele>39.6</ele>
        <time>2023-05-17T20:24:07Z</time>
      </trkpt>
      <trkpt lat="49.27631" lon="-0.38457">
        <ele>39.4</ele>
        <time>2023-05-17T20:24:10Z</time>
      </trkpt>
      <trkpt lat="49.27639" lon="-0.38493">
        <ele>39.2</ele>
        <time>2023-05-17T20:24:13Z</time>
      </trkpt>
      <trkpt lat="49.27649" lon="-0.38529">
        <ele>39</ele>
        <time>2023-05-17T20:24:16Z</time>
      </trkpt>
      <trkpt lat="49.27658" lon="-0.38563">
        <ele>38.8</ele>
        <time>2023-05-17T20:24:19Z</time>
      </trkpt>
      <trkpt lat="49.27667" lon="-0.38599">
        <ele>38.6</ele>
        <time>2023-05-17T20:24:22Z</time>
      </trkpt>
      <trkpt lat="49.27677" lon="-0.38635">
        <ele>38.4</ele>
        <time>2023-05-17T20:24:25Z</time>
      </trkpt>
      <trkpt lat="49.27685" lon="-0.38671">
        <ele>38.2</ele>
        <time>2023-05-17T20:24:28Z</time>
      </trkpt>
      <trkpt lat="49.27694" lon="-0.38707">
        <ele>38</ele>
        <time>2023-05-17T20:24:31Z</time>
      </trkpt>
      <trkpt lat="49.27704" lon="-0.3874">
        <ele>37.8</ele>
        <time>2023-05-17T20:24:34Z</time>
      </trkpt>
      <trkpt lat="49.27713" lon="-0.38775">
        <ele>37.7</ele>
        <time>2023-05-17T20:24:37Z</time>
      </trkpt>
      <trkpt lat="49.27722" lon="-0.38808">
        <ele>37.6</ele>
        <time>2023-05-17T20:24:40Z</time>
      </trkpt>
      <trkpt lat="49.2773" lon="-0.38842">
        <ele>37.5</ele>
        <time>2023-05-17T20:24:43Z</time>
      </trkpt>
      <trkpt lat="49.27739" lon="-0.38875">
        <ele>37.3</ele>
        <time>2023-05-17T20:24:46Z</time>
      </trkpt>
      <trkpt lat="49.27747" lon="-0.3891">
        <ele>37.1</ele>
        <time>2023-05-17T20:24:49Z</time>
      </trkpt>
      <trkpt lat="49.27757" lon="-0.38944">
        <ele>36.9</ele>
        <time>2023-05-17T20:24:52Z</time>
      </trkpt>
      <trkpt lat="49.27766" lon="-0.38977">
        <ele>36.6</ele>
        <time>2023-05-17T20:24:55Z</time>
      </trkpt>
      <trkpt lat="49.27774" lon="-0.39011">
        <ele>36.5</ele>
        <time>2023-05-17T20:24:58Z</time>
      </trkpt>
      <trkpt lat="49.27783" lon="-0.39044">
        <ele>36.4</ele>
        <time>2023-05-17T20:25:01Z</time>
      </trkpt>
      <trkpt lat="49.27791" lon="-0.39077">
        <ele>36.2</ele>
        <time>2023-05-17T20:25:04Z</time>
      </trkpt>
      <trkpt lat="49.278" lon="-0.3911">
        <ele>36</ele>
        <time>2023-05-17T20:25:07Z</time>
      </trkpt>
      <trkpt lat="49.27809" lon="-0.39144">
        <ele>36</ele>
        <time>2023-05-17T20:25:10Z</time>
      </trkpt>
      <trkpt lat="49.27817" lon="-0.39176">
        <ele>35.8</ele>
        <time>2023-05-17T20:25:13Z</time>
      </trkpt>
      <trkpt lat="49.27826" lon="-0.39208">
        <ele>36</ele>
        <time>2023-05-17T20:25:16Z</time>
      </trkpt>
      <trkpt lat="49.27834" lon="-0.39242">
        <ele>36.2</ele>
        <time>2023-05-17T20:25:19Z</time>
      </trkpt>
      <trkpt lat="49.27843" lon="-0.39274">
        <ele>36.2</ele>
        <time>2023-05-17T20:25:22Z</time>
      </trkpt>
      <trkpt lat="49.2785" lon="-0.39307">
        <ele>36.1</ele>
        <time>2023-05-17T20:25:25Z</time>
      </trkpt>
      <trkpt lat="49.27859" lon="-0.39339">
        <ele>36.1</ele>
        <time>2023-05-17T20:25:28Z</time>
      </trkpt>
      <trkpt lat="49.27868" lon="-0.3937">
        <ele>36.1</ele>
        <time>2023-05-17T20:25:31Z</time>
      </trkpt>
      <trkpt lat="49.27876" lon="-0.394">
        <ele>36.1</ele>
        <time>2023-05-17T20:25:34Z</time>
      </trkpt>
      <trkpt lat="49.27884" lon="-0.3943">
        <ele>36.3</ele>
        <time>2023-05-17T20:25:37Z</time>
      </trkpt>
      <trkpt lat="49.27892" lon="-0.3946">
        <ele>36.3</ele>
        <time>2023-05-17T20:25:40Z</time>
      </trkpt>
      <trkpt lat="49.279" lon="-0.3949">
        <ele>36.4</ele>
        <time>2023-05-17T20:25:43Z</time>
      </trkpt>
      <trkpt lat="49.27907" lon="-0.39519">
        <ele>36.6</ele>
        <time>2023-05-17T20:25:46Z</time>
      </trkpt>
      <trkpt lat="49.27915" lon="-0.39549">
        <ele>36.9</ele>
        <time>2023-05-17T20:25:49Z</time>
      </trkpt>
      <trkpt lat="49.27923" lon="-0.39577">
        <ele>37</ele>
        <time>2023-05-17T20:25:52Z</time>
      </trkpt>
      <trkpt lat="49.2793" lon="-0.39606">
        <ele>37.1</ele>
        <time>2023-05-17T20:25:55Z</time>
      </trkpt>
      <trkpt lat="49.27936" lon="-0.39635">
        <ele>37.4</ele>
        <time>2023-05-17T20:25:58Z</time>
      </trkpt>
      <trkpt lat="49.27943" lon="-0.39663">
        <ele>37.5</ele>
        <time>2023-05-17T20:26:01Z</time>
      </trkpt>
      <trkpt lat="49.27951" lon="-0.39691">
        <ele>37.6</ele>
        <time>2023-05-17T20:26:04Z</time>
      </trkpt>
      <trkpt lat="49.27959" lon="-0.3972">
        <ele>37.8</ele>
        <time>2023-05-17T20:26:07Z</time>
      </trkpt>
      <trkpt lat="49.27966" lon="-0.39748">
        <ele>38</ele>
        <time>2023-05-17T20:26:10Z</time>
      </trkpt>
      <trkpt lat="49.27974" lon="-0.39776">
        <ele>38.1</ele>
        <time>2023-05-17T20:26:13Z</time>
      </trkpt>
      <trkpt lat="49.27982" lon="-0.39805">
        <ele>38.2</ele>
        <time>2023-05-17T20:26:16Z</time>
      </trkpt>
      <trkpt lat="49.27989" lon="-0.39834">
        <ele>38.5</ele>
        <time>2023-05-17T20:26:19Z</time>
      </trkpt>
      <trkpt lat="49.27996" lon="-0.39862">
        <ele>38.7</ele>
        <time>2023-05-17T20:26:22Z</time>
      </trkpt>
      <trkpt lat="49.28004" lon="-0.39889">
        <ele>38.9</ele>
        <time>2023-05-17T20:26:25Z</time>
      </trkpt>
      <trkpt lat="49.28011" lon="-0.39916">
        <ele>39.1</ele>
        <time>2023-05-17T20:26:28Z</time>
      </trkpt>
      <trkpt lat="49.28018" lon="-0.39943">
        <ele>39.4</ele>
        <time>2023-05-17T20:26:31Z</time>
      </trkpt>
      <trkpt lat="49.28025" lon="-0.3997">
        <ele>39.8</ele>
        <time>2023-05-17T20:26:34Z</time>
      </trkpt>
      <trkpt lat="49.28032" lon="-0.39996">
        <ele>40.1</ele>
        <time>2023-05-17T20:26:37Z</time>
      </trkpt>
      <trkpt lat="49.2804" lon="-0.40023">
        <ele>40.6</ele>
        <time>2023-05-17T20:26:40Z</time>
      </trkpt>
      <trkpt lat="49.28045" lon="-0.4005">
        <ele>41</ele>
        <time>2023-05-17T20:26:43Z</time>
      </trkpt>
      <trkpt lat="49.28055" lon="-0.4008">
        <ele>41.5</ele>
        <time>2023-05-17T20:26:47Z</time>
      </trkpt>
      <trkpt lat="49.28063" lon="-0.40111">
        <ele>42</ele>
        <time>2023-05-17T20:26:51Z</time>
      </trkpt>
      <trkpt lat="49.28072" lon="-0.40142">
        <ele>42.6</ele>
        <time>2023-05-17T20:26:55Z</time>
      </trkpt>
      <trkpt lat="49.28081" lon="-0.40174">
        <ele>43.1</ele>
        <time>2023-05-17T20:26:59Z</time>
      </trkpt>
      <trkpt lat="49.28091" lon="-0.40205">
        <ele>43.7</ele>
        <time>2023-05-17T20:27:03Z</time>
      </trkpt>
      <trkpt lat="49.28101" lon="-0.40235">
        <ele>44.3</ele>
        <time>2023-05-17T20:27:07Z</time>
      </trkpt>
      <trkpt lat="49.28111" lon="-0.40264">
        <ele>44.9</ele>
        <time>2023-05-17T20:27:11Z</time>
      </trkpt>
      <trkpt lat="49.28121" lon="-0.40292">
        <ele>45.4</ele>
        <time>2023-05-17T20:27:15Z</time>
      </trkpt>
      <trkpt lat="49.28131" lon="-0.40321">
        <ele>46</ele>
        <time>2023-05-17T20:27:19Z</time>
      </trkpt>
      <trkpt lat="49.28142" lon="-0.40348">
        <ele>46.5</ele>
        <time>2023-05-17T20:27:23Z</time>
      </trkpt>
      <trkpt lat="49.28153" lon="-0.40376">
        <ele>46.9</ele>
        <time>2023-05-17T20:27:27Z</time>
      </trkpt>
      <trkpt lat="49.28164" lon="-0.40402">
        <ele>47.4</ele>
        <time>2023-05-17T20:27:31Z</time>
      </trkpt>
      <trkpt lat="49.28175" lon="-0.40428">
        <ele>47.8</ele>
        <time>2023-05-17T20:27:35Z</time>
      </trkpt>
      <trkpt lat="49.28187" lon="-0.40453">
        <ele>48.2</ele>
        <time>2023-05-17T20:27:39Z</time>
      </trkpt>
      <trkpt lat="49.282" lon="-0.40479">
        <ele>48.6</ele>
        <time>2023-05-17T20:27:43Z</time>
      </trkpt>
      <trkpt lat="49.28212" lon="-0.40504">
        <ele>48.8</ele>
        <time>2023-05-17T20:27:47Z</time>
      </trkpt>
      <trkpt lat="49.28225" lon="-0.4053">
        <ele>49.1</ele>
        <time>2023-05-17T20:27:51Z</time>
      </trkpt>
      <trkpt lat="49.28239" lon="-0.40555">
        <ele>49.3</ele>
        <time>2023-05-17T20:27:55Z</time>
      </trkpt>
      <trkpt lat="49.28254" lon="-0.40581">
        <ele>49.6</ele>
        <time>2023-05-17T20:27:59Z</time>
      </trkpt>
      <trkpt lat="49.28268" lon="-0.40606">
        <ele>49.9</ele>
        <time>2023-05-17T20:28:03Z</time>
      </trkpt>
      <trkpt lat="49.28283" lon="-0.4063">
        <ele>50.2</ele>
        <time>2023-05-17T20:28:07Z</time>
      </trkpt>
      <trkpt lat="49.28298" lon="-0.40656">
        <ele>50.4</ele>
        <time>2023-05-17T20:28:11Z</time>
      </trkpt>
      <trkpt lat="49.28313" lon="-0.40682">
        <ele>50.6</ele>
        <time>2023-05-17T20:28:15Z</time>
      </trkpt>
      <trkpt lat="49.28328" lon="-0.40708">
        <ele>50.9</ele>
        <time>2023-05-17T20:28:19Z</time>
      </trkpt>
      <trkpt lat="49.28345" lon="-0.40733">
        <ele>51.2</ele>
        <time>2023-05-17T20:28:23Z</time>
      </trkpt>
      <trkpt lat="49.28361" lon="-0.40757">
        <ele>51.6</ele>
        <time>2023-05-17T20:28:27Z</time>
      </trkpt>
      <trkpt lat="49.28379" lon="-0.40778">
        <ele>51.9</ele>
        <time>2023-05-17T20:28:31Z</time>
      </trkpt>
      <trkpt lat="49.28397" lon="-0.40793">
        <ele>52.2</ele>
        <time>2023-05-17T20:28:35Z</time>
      </trkpt>
      <trkpt lat="49.28414" lon="-0.40816">
        <ele>52.6</ele>
        <time>2023-05-17T20:28:39Z</time>
      </trkpt>
      <trkpt lat="49.28423" lon="-0.40849">
        <ele>52.6</ele>
        <time>2023-05-17T20:28:43Z</time>
      </trkpt>
      <trkpt lat="49.28435" lon="-0.40873">
        <ele>52.6</ele>
        <time>2023-05-17T20:28:46Z</time>
      </trkpt>
      <trkpt lat="49.28449" lon="-0.40893">
        <ele>52.7</ele>
        <time>2023-05-17T20:28:49Z</time>
      </trkpt>
      <trkpt lat="49.28462" lon="-0.40915">
        <ele>52.8</ele>
        <time>2023-05-17T20:28:52Z</time>
      </trkpt>
      <trkpt lat="49.28475" lon="-0.40935">
        <ele>52.8</ele>
        <time>2023-05-17T20:28:55Z</time>
      </trkpt>
      <trkpt lat="49.28489" lon="-0.40957">
        <ele>52.9</ele>
        <time>2023-05-17T20:28:58Z</time>
      </trkpt>
      <trkpt lat="49.28503" lon="-0.40978">
        <ele>53</ele>
        <time>2023-05-17T20:29:01Z</time>
      </trkpt>
      <trkpt lat="49.28516" lon="-0.40999">
        <ele>53.1</ele>
        <time>2023-05-17T20:29:04Z</time>
      </trkpt>
      <trkpt lat="49.28529" lon="-0.41019">
        <ele>53.2</ele>
        <time>2023-05-17T20:29:07Z</time>
      </trkpt>
      <trkpt lat="49.28542" lon="-0.41039">
        <ele>53.2</ele>
        <time>2023-05-17T20:29:10Z</time>
      </trkpt>
      <trkpt lat="49.28556" lon="-0.41059">
        <ele>53.3</ele>
        <time>2023-05-17T20:29:13Z</time>
      </trkpt>
      <trkpt lat="49.28572" lon="-0.41085">
        <ele>53.4</ele>
        <time>2023-05-17T20:29:17Z</time>
      </trkpt>
      <trkpt lat="49.28586" lon="-0.41105">
        <ele>53.6</ele>
        <time>2023-05-17T20:29:20Z</time>
      </trkpt>
      <trkpt lat="49.28598" lon="-0.41125">
        <ele>53.6</ele>
        <time>2023-05-17T20:29:23Z</time>
      </trkpt>
      <trkpt lat="49.28615" lon="-0.41152">
        <ele>53.8</ele>
        <time>2023-05-17T20:29:27Z</time>
      </trkpt>
      <trkpt lat="49.28632" lon="-0.41178">
        <ele>53.9</ele>
        <time>2023-05-17T20:29:31Z</time>
      </trkpt>
      <trkpt lat="49.28645" lon="-0.41197">
        <ele>53.9</ele>
        <time>2023-05-17T20:29:34Z</time>
      </trkpt>
      <trkpt lat="49.28661" lon="-0.41223">
        <ele>54.1</ele>
        <time>2023-05-17T20:29:38Z</time>
      </trkpt>
      <trkpt lat="49.28678" lon="-0.41249">
        <ele>54.2</ele>
        <time>2023-05-17T20:29:42Z</time>
      </trkpt>
      <trkpt lat="49.28691" lon="-0.41269">
        <ele>54.3</ele>
        <time>2023-05-17T20:29:45Z</time>
      </trkpt>
      <trkpt lat="49.28704" lon="-0.41289">
        <ele>54.4</ele>
        <time>2023-05-17T20:29:48Z</time>
      </trkpt>
      <trkpt lat="49.28717" lon="-0.41309">
        <ele>54.5</ele>
        <time>2023-05-17T20:29:51Z</time>
      </trkpt>
      <trkpt lat="49.2873" lon="-0.4133">
        <ele>54.7</ele>
        <time>2023-05-17T20:29:54Z</time>
      </trkpt>
      <trkpt lat="49.28742" lon="-0.4135">
        <ele>54.8</ele>
        <time>2023-05-17T20:29:57Z</time>
      </trkpt>
      <trkpt lat="49.28759" lon="-0.41374">
        <ele>55.1</ele>
        <time>2023-05-17T20:30:01Z</time>
      </trkpt>
      <trkpt lat="49.28776" lon="-0.41399">
        <ele>55.3</ele>
        <time>2023-05-17T20:30:05Z</time>
      </trkpt>
      <trkpt lat="49.28792" lon="-0.41423">
        <ele>55.6</ele>
        <time>2023-05-17T20:30:09Z</time>
      </trkpt>
      <trkpt lat="49.28809" lon="-0.41449">
        <ele>55.8</ele>
        <time>2023-05-17T20:30:13Z</time>
      </trkpt>
      <trkpt lat="49.28825" lon="-0.41474">
        <ele>55.9</ele>
        <time>2023-05-17T20:30:17Z</time>
      </trkpt>
      <trkpt lat="49.28842" lon="-0.415">
        <ele>56</ele>
        <time>2023-05-17T20:30:21Z</time>
      </trkpt>
      <trkpt lat="49.28857" lon="-0.41525">
        <ele>56.1</ele>
        <time>2023-05-17T20:30:25Z</time>
      </trkpt>
      <trkpt lat="49.28873" lon="-0.4155">
        <ele>56.4</ele>
        <time>2023-05-17T20:30:29Z</time>
      </trkpt>
      <trkpt lat="49.28889" lon="-0.41575">
        <ele>56.7</ele>
        <time>2023-05-17T20:30:33Z</time>
      </trkpt>
      <trkpt lat="49.28904" lon="-0.416">
        <ele>57</ele>
        <time>2023-05-17T20:30:37Z</time>
      </trkpt>
      <trkpt lat="49.2892" lon="-0.41624">
        <ele>57.3</ele>
        <time>2023-05-17T20:30:41Z</time>
      </trkpt>
      <trkpt lat="49.28937" lon="-0.41649">
        <ele>57.6</ele>
        <time>2023-05-17T20:30:45Z</time>
      </trkpt>
      <trkpt lat="49.28953" lon="-0.41675">
        <ele>58</ele>
        <time>2023-05-17T20:30:49Z</time>
      </trkpt>
      <trkpt lat="49.28969" lon="-0.417">
        <ele>58.4</ele>
        <time>2023-05-17T20:30:53Z</time>
      </trkpt>
      <trkpt lat="49.28985" lon="-0.41725">
        <ele>58.7</ele>
        <time>2023-05-17T20:30:57Z</time>
      </trkpt>
      <trkpt lat="49.29001" lon="-0.41749">
        <ele>59.1</ele>
        <time>2023-05-17T20:31:01Z</time>
      </trkpt>
      <trkpt lat="49.29017" lon="-0.41773">
        <ele>59.3</ele>
        <time>2023-05-17T20:31:05Z</time>
      </trkpt>
      <trkpt lat="49.29032" lon="-0.418">
        <ele>59.6</ele>
        <time>2023-05-17T20:31:09Z</time>
      </trkpt>
      <trkpt lat="49.29049" lon="-0.41823">
        <ele>59.8</ele>
        <time>2023-05-17T20:31:13Z</time>
      </trkpt>
      <trkpt lat="49.29066" lon="-0.41848">
        <ele>59.9</ele>
        <time>2023-05-17T20:31:17Z</time>
      </trkpt>
      <trkpt lat="49.29079" lon="-0.41867">
        <ele>60</ele>
        <time>2023-05-17T20:31:20Z</time>
      </trkpt>
      <trkpt lat="49.29092" lon="-0.41888">
        <ele>60.2</ele>
        <time>2023-05-17T20:31:23Z</time>
      </trkpt>
      <trkpt lat="49.29108" lon="-0.41913">
        <ele>60.3</ele>
        <time>2023-05-17T20:31:27Z</time>
      </trkpt>
      <trkpt lat="49.29121" lon="-0.41932">
        <ele>60.3</ele>
        <time>2023-05-17T20:31:30Z</time>
      </trkpt>
      <trkpt lat="49.29134" lon="-0.41954">
        <ele>60.3</ele>
        <time>2023-05-17T20:31:33Z</time>
      </trkpt>
      <trkpt lat="49.29147" lon="-0.41975">
        <ele>60.3</ele>
        <time>2023-05-17T20:31:36Z</time>
      </trkpt>
      <trkpt lat="49.2916" lon="-0.41995">
        <ele>60.2</ele>
        <time>2023-05-17T20:31:39Z</time>
      </trkpt>
      <trkpt lat="49.29174" lon="-0.42015">
        <ele>60.1</ele>
        <time>2023-05-17T20:31:42Z</time>
      </trkpt>
      <trkpt lat="49.29188" lon="-0.42036">
        <ele>59.9</ele>
        <time>2023-05-17T20:31:45Z</time>
      </trkpt>
      <trkpt lat="49.29201" lon="-0.42058">
        <ele>59.7</ele>
        <time>2023-05-17T20:31:48Z</time>
      </trkpt>
      <trkpt lat="49.29215" lon="-0.4208">
        <ele>59.5</ele>
        <time>2023-05-17T20:31:51Z</time>
      </trkpt>
      <trkpt lat="49.2923" lon="-0.42103">
        <ele>59.3</ele>
        <time>2023-05-17T20:31:54Z</time>
      </trkpt>
      <trkpt lat="49.29244" lon="-0.42126">
        <ele>59.1</ele>
        <time>2023-05-17T20:31:57Z</time>
      </trkpt>
      <trkpt lat="49.29259" lon="-0.42149">
        <ele>58.9</ele>
        <time>2023-05-17T20:32:00Z</time>
      </trkpt>
      <trkpt lat="49.29273" lon="-0.42172">
        <ele>58.6</ele>
        <time>2023-05-17T20:32:03Z</time>
      </trkpt>
      <trkpt lat="49.29289" lon="-0.42193">
        <ele>58.4</ele>
        <time>2023-05-17T20:32:06Z</time>
      </trkpt>
      <trkpt lat="49.29304" lon="-0.42217">
        <ele>58.2</ele>
        <time>2023-05-17T20:32:09Z</time>
      </trkpt>
      <trkpt lat="49.29319" lon="-0.4224">
        <ele>58</ele>
        <time>2023-05-17T20:32:12Z</time>
      </trkpt>
      <trkpt lat="49.29335" lon="-0.42264">
        <ele>57.8</ele>
        <time>2023-05-17T20:32:15Z</time>
      </trkpt>
      <trkpt lat="49.2935" lon="-0.42288">
        <ele>57.6</ele>
        <time>2023-05-17T20:32:18Z</time>
      </trkpt>
      <trkpt lat="49.29365" lon="-0.42312">
        <ele>57.4</ele>
        <time>2023-05-17T20:32:21Z</time>
      </trkpt>
      <trkpt lat="49.29381" lon="-0.42336">
        <ele>57.2</ele>
        <time>2023-05-17T20:32:24Z</time>
      </trkpt>
      <trkpt lat="49.29397" lon="-0.42361">
        <ele>57</ele>
        <time>2023-05-17T20:32:27Z</time>
      </trkpt>
      <trkpt lat="49.29412" lon="-0.42385">
        <ele>56.7</ele>
        <time>2023-05-17T20:32:30Z</time>
      </trkpt>
      <trkpt lat="49.29428" lon="-0.4241">
        <ele>56.4</ele>
        <time>2023-05-17T20:32:33Z</time>
      </trkpt>
      <trkpt lat="49.29445" lon="-0.42434">
        <ele>56.3</ele>
        <time>2023-05-17T20:32:36Z</time>
      </trkpt>
      <trkpt lat="49.29461" lon="-0.42459">
        <ele>56</ele>
        <time>2023-05-17T20:32:39Z</time>
      </trkpt>
      <trkpt lat="49.29477" lon="-0.42484">
        <ele>55.8</ele>
        <time>2023-05-17T20:32:42Z</time>
      </trkpt>
      <trkpt lat="49.29493" lon="-0.42509">
        <ele>55.6</ele>
        <time>2023-05-17T20:32:45Z</time>
      </trkpt>
      <trkpt lat="49.29509" lon="-0.42534">
        <ele>55.3</ele>
        <time>2023-05-17T20:32:48Z</time>
      </trkpt>
      <trkpt lat="49.29525" lon="-0.4256">
        <ele>55.1</ele>
        <time>2023-05-17T20:32:51Z</time>
      </trkpt>
      <trkpt lat="49.29541" lon="-0.42585">
        <ele>54.8</ele>
        <time>2023-05-17T20:32:54Z</time>
      </trkpt>
      <trkpt lat="49.29557" lon="-0.4261">
        <ele>54.6</ele>
        <time>2023-05-17T20:32:57Z</time>
      </trkpt>
      <trkpt lat="49.29573" lon="-0.42635">
        <ele>54.4</ele>
        <time>2023-05-17T20:33:00Z</time>
      </trkpt>
      <trkpt lat="49.29589" lon="-0.42659">
        <ele>54.1</ele>
        <time>2023-05-17T20:33:03Z</time>
      </trkpt>
      <trkpt lat="49.29605" lon="-0.42685">
        <ele>53.9</ele>
        <time>2023-05-17T20:33:06Z</time>
      </trkpt>
      <trkpt lat="49.29621" lon="-0.4271">
        <ele>53.6</ele>
        <time>2023-05-17T20:33:09Z</time>
      </trkpt>
      <trkpt lat="49.29637" lon="-0.42735">
        <ele>53.4</ele>
        <time>2023-05-17T20:33:12Z</time>
      </trkpt>
      <trkpt lat="49.29653" lon="-0.42758">
        <ele>53.1</ele>
        <time>2023-05-17T20:33:15Z</time>
      </trkpt>
      <trkpt lat="49.29668" lon="-0.42782">
        <ele>52.9</ele>
        <time>2023-05-17T20:33:18Z</time>
      </trkpt>
      <trkpt lat="49.29684" lon="-0.42807">
        <ele>52.8</ele>
        <time>2023-05-17T20:33:21Z</time>
      </trkpt>
      <trkpt lat="49.297" lon="-0.42832">
        <ele>52.5</ele>
        <time>2023-05-17T20:33:24Z</time>
      </trkpt>
      <trkpt lat="49.29716" lon="-0.42857">
        <ele>52.2</ele>
        <time>2023-05-17T20:33:27Z</time>
      </trkpt>
      <trkpt lat="49.29731" lon="-0.4288">
        <ele>51.9</ele>
        <time>2023-05-17T20:33:30Z</time>
      </trkpt>
      <trkpt lat="49.29747" lon="-0.42904">
        <ele>51.6</ele>
        <time>2023-05-17T20:33:33Z</time>
      </trkpt>
      <trkpt lat="49.29763" lon="-0.42928">
        <ele>51.3</ele>
        <time>2023-05-17T20:33:36Z</time>
      </trkpt>
      <trkpt lat="49.29778" lon="-0.42953">
        <ele>51</ele>
        <time>2023-05-17T20:33:39Z</time>
      </trkpt>
      <trkpt lat="49.29794" lon="-0.42978">
        <ele>50.8</ele>
        <time>2023-05-17T20:33:42Z</time>
      </trkpt>
      <trkpt lat="49.2981" lon="-0.43003">
        <ele>50.6</ele>
        <time>2023-05-17T20:33:45Z</time>
      </trkpt>
      <trkpt lat="49.29827" lon="-0.43029">
        <ele>50.3</ele>
        <time>2023-05-17T20:33:48Z</time>
      </trkpt>
      <trkpt lat="49.29843" lon="-0.43055">
        <ele>50.1</ele>
        <time>2023-05-17T20:33:51Z</time>
      </trkpt>
      <trkpt lat="49.29859" lon="-0.43079">
        <ele>49.9</ele>
        <time>2023-05-17T20:33:54Z</time>
      </trkpt>
      <trkpt lat="49.29875" lon="-0.43103">
        <ele>49.6</ele>
        <time>2023-05-17T20:33:57Z</time>
      </trkpt>
      <trkpt lat="49.29891" lon="-0.43129">
        <ele>49.3</ele>
        <time>2023-05-17T20:34:00Z</time>
      </trkpt>
      <trkpt lat="49.29907" lon="-0.43153">
        <ele>49</ele>
        <time>2023-05-17T20:34:03Z</time>
      </trkpt>
      <trkpt lat="49.29924" lon="-0.43178">
        <ele>48.8</ele>
        <time>2023-05-17T20:34:06Z</time>
      </trkpt>
      <trkpt lat="49.29941" lon="-0.43204">
        <ele>48.5</ele>
        <time>2023-05-17T20:34:09Z</time>
      </trkpt>
      <trkpt lat="49.29957" lon="-0.43228">
        <ele>48.3</ele>
        <time>2023-05-17T20:34:12Z</time>
      </trkpt>
      <trkpt lat="49.29974" lon="-0.43252">
        <ele>48.1</ele>
        <time>2023-05-17T20:34:15Z</time>
      </trkpt>
      <trkpt lat="49.29991" lon="-0.43277">
        <ele>47.8</ele>
        <time>2023-05-17T20:34:18Z</time>
      </trkpt>
      <trkpt lat="49.30008" lon="-0.433">
        <ele>47.5</ele>
        <time>2023-05-17T20:34:21Z</time>
      </trkpt>
      <trkpt lat="49.30025" lon="-0.43323">
        <ele>47.3</ele>
        <time>2023-05-17T20:34:24Z</time>
      </trkpt>
      <trkpt lat="49.30042" lon="-0.43347">
        <ele>47</ele>
        <time>2023-05-17T20:34:27Z</time>
      </trkpt>
      <trkpt lat="49.30059" lon="-0.43368">
        <ele>46.8</ele>
        <time>2023-05-17T20:34:30Z</time>
      </trkpt>
      <trkpt lat="49.30077" lon="-0.4339">
        <ele>46.6</ele>
        <time>2023-05-17T20:34:33Z</time>
      </trkpt>
      <trkpt lat="49.30095" lon="-0.43412">
        <ele>46.4</ele>
        <time>2023-05-17T20:34:36Z</time>
      </trkpt>
      <trkpt lat="49.30112" lon="-0.43434">
        <ele>46.2</ele>
        <time>2023-05-17T20:34:39Z</time>
      </trkpt>
      <trkpt lat="49.3013" lon="-0.43456">
        <ele>46.1</ele>
        <time>2023-05-17T20:34:42Z</time>
      </trkpt>
      <trkpt lat="49.30148" lon="-0.43477">
        <ele>45.9</ele>
        <time>2023-05-17T20:34:45Z</time>
      </trkpt>
      <trkpt lat="49.30165" lon="-0.43497">
        <ele>45.8</ele>
        <time>2023-05-17T20:34:48Z</time>
      </trkpt>
      <trkpt lat="49.30182" lon="-0.43518">
        <ele>45.6</ele>
        <time>2023-05-17T20:34:51Z</time>
      </trkpt>
      <trkpt lat="49.30201" lon="-0.43538">
        <ele>45.5</ele>
        <time>2023-05-17T20:34:54Z</time>
      </trkpt>
      <trkpt lat="49.30219" lon="-0.43558">
        <ele>45.5</ele>
        <time>2023-05-17T20:34:57Z</time>
      </trkpt>
      <trkpt lat="49.30236" lon="-0.43579">
        <ele>45.4</ele>
        <time>2023-05-17T20:35:00Z</time>
      </trkpt>
      <trkpt lat="49.30254" lon="-0.436">
        <ele>45.3</ele>
        <time>2023-05-17T20:35:03Z</time>
      </trkpt>
      <trkpt lat="49.30273" lon="-0.43619">
        <ele>45.3</ele>
        <time>2023-05-17T20:35:06Z</time>
      </trkpt>
      <trkpt lat="49.30291" lon="-0.43639">
        <ele>45.4</ele>
        <time>2023-05-17T20:35:09Z</time>
      </trkpt>
      <trkpt lat="49.30308" lon="-0.4366">
        <ele>45.4</ele>
        <time>2023-05-17T20:35:12Z</time>
      </trkpt>
      <trkpt lat="49.30327" lon="-0.43675">
        <ele>45.2</ele>
        <time>2023-05-17T20:35:15Z</time>
      </trkpt>
      <trkpt lat="49.30348" lon="-0.43682">
        <ele>45.3</ele>
        <time>2023-05-17T20:35:18Z</time>
      </trkpt>
      <trkpt lat="49.30368" lon="-0.43697">
        <ele>45.3</ele>
        <time>2023-05-17T20:35:21Z</time>
      </trkpt>
      <trkpt lat="49.30382" lon="-0.43726">
        <ele>45.2</ele>
        <time>2023-05-17T20:35:24Z</time>
      </trkpt>
      <trkpt lat="49.304" lon="-0.43746">
        <ele>44.8</ele>
        <time>2023-05-17T20:35:27Z</time>
      </trkpt>
      <trkpt lat="49.30421" lon="-0.43762">
        <ele>44.4</ele>
        <time>2023-05-17T20:35:30Z</time>
      </trkpt>
      <trkpt lat="49.30444" lon="-0.43775">
        <ele>43.8</ele>
        <time>2023-05-17T20:35:33Z</time>
      </trkpt>
      <trkpt lat="49.30466" lon="-0.4379">
        <ele>43.3</ele>
        <time>2023-05-17T20:35:36Z</time>
      </trkpt>
      <trkpt lat="49.30489" lon="-0.43805">
        <ele>42.8</ele>
        <time>2023-05-17T20:35:39Z</time>
      </trkpt>
      <trkpt lat="49.30512" lon="-0.43819">
        <ele>42.3</ele>
        <time>2023-05-17T20:35:42Z</time>
      </trkpt>
      <trkpt lat="49.30536" lon="-0.43832">
        <ele>41.9</ele>
        <time>2023-05-17T20:35:45Z</time>
      </trkpt>
      <trkpt lat="49.30558" lon="-0.43846">
        <ele>41.5</ele>
        <time>2023-05-17T20:35:48Z</time>
      </trkpt>
      <trkpt lat="49.30582" lon="-0.4386">
        <ele>41</ele>
        <time>2023-05-17T20:35:51Z</time>
      </trkpt>
      <trkpt lat="49.30605" lon="-0.43873">
        <ele>40.6</ele>
        <time>2023-05-17T20:35:54Z</time>
      </trkpt>
      <trkpt lat="49.30627" lon="-0.43888">
        <ele>40.1</ele>
        <time>2023-05-17T20:35:57Z</time>
      </trkpt>
      <trkpt lat="49.3065" lon="-0.43904">
        <ele>39.7</ele>
        <time>2023-05-17T20:36:00Z</time>
      </trkpt>
      <trkpt lat="49.30672" lon="-0.4392">
        <ele>39.3</ele>
        <time>2023-05-17T20:36:03Z</time>
      </trkpt>
      <trkpt lat="49.30694" lon="-0.43938">
        <ele>39</ele>
        <time>2023-05-17T20:36:06Z</time>
      </trkpt>
      <trkpt lat="49.30714" lon="-0.43956">
        <ele>38.7</ele>
        <time>2023-05-17T20:36:09Z</time>
      </trkpt>
      <trkpt lat="49.30737" lon="-0.43977">
        <ele>38.3</ele>
        <time>2023-05-17T20:36:12Z</time>
      </trkpt>
      <trkpt lat="49.30758" lon="-0.43998">
        <ele>38</ele>
        <time>2023-05-17T20:36:15Z</time>
      </trkpt>
      <trkpt lat="49.30779" lon="-0.44019">
        <ele>37.8</ele>
        <time>2023-05-17T20:36:18Z</time>
      </trkpt>
      <trkpt lat="49.30798" lon="-0.44041">
        <ele>37.8</ele>
        <time>2023-05-17T20:36:21Z</time>
      </trkpt>
      <trkpt lat="49.30817" lon="-0.44061">
        <ele>38</ele>
        <time>2023-05-17T20:36:24Z</time>
      </trkpt>
      <trkpt lat="49.30836" lon="-0.44081">
        <ele>38.2</ele>
        <time>2023-05-17T20:36:27Z</time>
      </trkpt>
      <trkpt lat="49.30854" lon="-0.441">
        <ele>38.4</ele>
        <time>2023-05-17T20:36:30Z</time>
      </trkpt>
      <trkpt lat="49.30871" lon="-0.44119">
        <ele>38.7</ele>
        <time>2023-05-17T20:36:33Z</time>
      </trkpt>
      <trkpt lat="49.30887" lon="-0.44136">
        <ele>39</ele>
        <time>2023-05-17T20:36:36Z</time>
      </trkpt>
      <trkpt lat="49.30904" lon="-0.44154">
        <ele>39.4</ele>
        <time>2023-05-17T20:36:39Z</time>
      </trkpt>
      <trkpt lat="49.3092" lon="-0.44171">
        <ele>39.7</ele>
        <time>2023-05-17T20:36:42Z</time>
      </trkpt>
      <trkpt lat="49.30936" lon="-0.44187">
        <ele>40</ele>
        <time>2023-05-17T20:36:45Z</time>
      </trkpt>
      <trkpt lat="49.30951" lon="-0.44205">
        <ele>40.3</ele>
        <time>2023-05-17T20:36:48Z</time>
      </trkpt>
      <trkpt lat="49.30966" lon="-0.44221">
        <ele>40.6</ele>
        <time>2023-05-17T20:36:51Z</time>
      </trkpt>
      <trkpt lat="49.30985" lon="-0.44242">
        <ele>40.8</ele>
        <time>2023-05-17T20:36:55Z</time>
      </trkpt>
      <trkpt lat="49.31" lon="-0.44258">
        <ele>40.9</ele>
        <time>2023-05-17T20:36:58Z</time>
      </trkpt>
      <trkpt lat="49.31015" lon="-0.44273">
        <ele>40.9</ele>
        <time>2023-05-17T20:37:01Z</time>
      </trkpt>
      <trkpt lat="49.31034" lon="-0.44294">
        <ele>40.9</ele>
        <time>2023-05-17T20:37:05Z</time>
      </trkpt>
      <trkpt lat="49.31054" lon="-0.44315">
        <ele>41</ele>
        <time>2023-05-17T20:37:09Z</time>
      </trkpt>
      <trkpt lat="49.31069" lon="-0.44331">
        <ele>40.9</ele>
        <time>2023-05-17T20:37:12Z</time>
      </trkpt>
      <trkpt lat="49.31085" lon="-0.44347">
        <ele>40.7</ele>
        <time>2023-05-17T20:37:15Z</time>
      </trkpt>
      <trkpt lat="49.311" lon="-0.44364">
        <ele>40.6</ele>
        <time>2023-05-17T20:37:18Z</time>
      </trkpt>
      <trkpt lat="49.31116" lon="-0.44382">
        <ele>40.4</ele>
        <time>2023-05-17T20:37:21Z</time>
      </trkpt>
      <trkpt lat="49.31131" lon="-0.44399">
        <ele>40.2</ele>
        <time>2023-05-17T20:37:24Z</time>
      </trkpt>
      <trkpt lat="49.31148" lon="-0.44417">
        <ele>39.9</ele>
        <time>2023-05-17T20:37:27Z</time>
      </trkpt>
      <trkpt lat="49.31165" lon="-0.44436">
        <ele>39.6</ele>
        <time>2023-05-17T20:37:30Z</time>
      </trkpt>
      <trkpt lat="49.31183" lon="-0.44455">
        <ele>39.3</ele>
        <time>2023-05-17T20:37:33Z</time>
      </trkpt>
      <trkpt lat="49.31201" lon="-0.44474">
        <ele>39.1</ele>
        <time>2023-05-17T20:37:36Z</time>
      </trkpt>
      <trkpt lat="49.31219" lon="-0.44494">
        <ele>38.8</ele>
        <time>2023-05-17T20:37:39Z</time>
      </trkpt>
      <trkpt lat="49.31237" lon="-0.44514">
        <ele>38.6</ele>
        <time>2023-05-17T20:37:42Z</time>
      </trkpt>
      <trkpt lat="49.31256" lon="-0.44534">
        <ele>38.3</ele>
        <time>2023-05-17T20:37:45Z</time>
      </trkpt>
      <trkpt lat="49.31275" lon="-0.44554">
        <ele>38</ele>
        <time>2023-05-17T20:37:48Z</time>
      </trkpt>
      <trkpt lat="49.31293" lon="-0.44574">
        <ele>37.6</ele>
        <time>2023-05-17T20:37:51Z</time>
      </trkpt>
      <trkpt lat="49.31312" lon="-0.44595">
        <ele>37.3</ele>
        <time>2023-05-17T20:37:54Z</time>
      </trkpt>
      <trkpt lat="49.31331" lon="-0.44615">
        <ele>36.9</ele>
        <time>2023-05-17T20:37:57Z</time>
      </trkpt>
      <trkpt lat="49.3135" lon="-0.44636">
        <ele>36.5</ele>
        <time>2023-05-17T20:38:00Z</time>
      </trkpt>
      <trkpt lat="49.31369" lon="-0.44657">
        <ele>36.2</ele>
        <time>2023-05-17T20:38:03Z</time>
      </trkpt>
      <trkpt lat="49.31387" lon="-0.44677">
        <ele>36</ele>
        <time>2023-05-17T20:38:06Z</time>
      </trkpt>
      <trkpt lat="49.31406" lon="-0.44697">
        <ele>35.9</ele>
        <time>2023-05-17T20:38:09Z</time>
      </trkpt>
      <trkpt lat="49.31424" lon="-0.44716">
        <ele>35.7</ele>
        <time>2023-05-17T20:38:12Z</time>
      </trkpt>
      <trkpt lat="49.31443" lon="-0.44737">
        <ele>35.5</ele>
        <time>2023-05-17T20:38:15Z</time>
      </trkpt>
      <trkpt lat="49.31461" lon="-0.44757">
        <ele>35.3</ele>
        <time>2023-05-17T20:38:18Z</time>
      </trkpt>
      <trkpt lat="49.3148" lon="-0.44778">
        <ele>35.2</ele>
        <time>2023-05-17T20:38:21Z</time>
      </trkpt>
      <trkpt lat="49.31498" lon="-0.44798">
        <ele>35.1</ele>
        <time>2023-05-17T20:38:24Z</time>
      </trkpt>
      <trkpt lat="49.31519" lon="-0.44818">
        <ele>35.2</ele>
        <time>2023-05-17T20:38:27Z</time>
      </trkpt>
      <trkpt lat="49.31537" lon="-0.44838">
        <ele>35.2</ele>
        <time>2023-05-17T20:38:30Z</time>
      </trkpt>
      <trkpt lat="49.31556" lon="-0.44859">
        <ele>35</ele>
        <time>2023-05-17T20:38:33Z</time>
      </trkpt>
      <trkpt lat="49.31574" lon="-0.44879">
        <ele>34.9</ele>
        <time>2023-05-17T20:38:36Z</time>
      </trkpt>
      <trkpt lat="49.31591" lon="-0.44899">
        <ele>34.8</ele>
        <time>2023-05-17T20:38:39Z</time>
      </trkpt>
      <trkpt lat="49.31609" lon="-0.44919">
        <ele>34.8</ele>
        <time>2023-05-17T20:38:42Z</time>
      </trkpt>
      <trkpt lat="49.31627" lon="-0.4494">
        <ele>34.7</ele>
        <time>2023-05-17T20:38:45Z</time>
      </trkpt>
      <trkpt lat="49.31645" lon="-0.44959">
        <ele>34.7</ele>
        <time>2023-05-17T20:38:48Z</time>
      </trkpt>
      <trkpt lat="49.31662" lon="-0.4498">
        <ele>34.5</ele>
        <time>2023-05-17T20:38:51Z</time>
      </trkpt>
      <trkpt lat="49.3168" lon="-0.45001">
        <ele>34.4</ele>
        <time>2023-05-17T20:38:54Z</time>
      </trkpt>
      <trkpt lat="49.31698" lon="-0.45022">
        <ele>34.2</ele>
        <time>2023-05-17T20:38:57Z</time>
      </trkpt>
      <trkpt lat="49.31716" lon="-0.45044">
        <ele>34.1</ele>
        <time>2023-05-17T20:39:00Z</time>
      </trkpt>
      <trkpt lat="49.31735" lon="-0.45065">
        <ele>33.9</ele>
        <time>2023-05-17T20:39:03Z</time>
      </trkpt>
      <trkpt lat="49.31753" lon="-0.45086">
        <ele>33.8</ele>
        <time>2023-05-17T20:39:06Z</time>
      </trkpt>
      <trkpt lat="49.31771" lon="-0.45107">
        <ele>33.5</ele>
        <time>2023-05-17T20:39:09Z</time>
      </trkpt>
      <trkpt lat="49.31789" lon="-0.45129">
        <ele>33.3</ele>
        <time>2023-05-17T20:39:12Z</time>
      </trkpt>
      <trkpt lat="49.31807" lon="-0.45149">
        <ele>33</ele>
        <time>2023-05-17T20:39:15Z</time>
      </trkpt>
      <trkpt lat="49.31826" lon="-0.45169">
        <ele>32.9</ele>
        <time>2023-05-17T20:39:18Z</time>
      </trkpt>
      <trkpt lat="49.31844" lon="-0.45188">
        <ele>32.6</ele>
        <time>2023-05-17T20:39:21Z</time>
      </trkpt>
      <trkpt lat="49.31862" lon="-0.45209">
        <ele>32.4</ele>
        <time>2023-05-17T20:39:24Z</time>
      </trkpt>
      <trkpt lat="49.31881" lon="-0.4523">
        <ele>32.2</ele>
        <time>2023-05-17T20:39:27Z</time>
      </trkpt>
      <trkpt lat="49.31899" lon="-0.4525">
        <ele>31.9</ele>
        <time>2023-05-17T20:39:30Z</time>
      </trkpt>
      <trkpt lat="49.31917" lon="-0.45269">
        <ele>31.6</ele>
        <time>2023-05-17T20:39:33Z</time>
      </trkpt>
      <trkpt lat="49.31937" lon="-0.45288">
        <ele>31.4</ele>
        <time>2023-05-17T20:39:36Z</time>
      </trkpt>
      <trkpt lat="49.31956" lon="-0.45305">
        <ele>31.2</ele>
        <time>2023-05-17T20:39:39Z</time>
      </trkpt>
      <trkpt lat="49.31976" lon="-0.45324">
        <ele>30.9</ele>
        <time>2023-05-17T20:39:42Z</time>
      </trkpt>
      <trkpt lat="49.31995" lon="-0.45341">
        <ele>30.6</ele>
        <time>2023-05-17T20:39:45Z</time>
      </trkpt>
      <trkpt lat="49.32015" lon="-0.45359">
        <ele>30.3</ele>
        <time>2023-05-17T20:39:48Z</time>
      </trkpt>
      <trkpt lat="49.32034" lon="-0.45377">
        <ele>30</ele>
        <time>2023-05-17T20:39:51Z</time>
      </trkpt>
      <trkpt lat="49.32055" lon="-0.45395">
        <ele>29.7</ele>
        <time>2023-05-17T20:39:54Z</time>
      </trkpt>
      <trkpt lat="49.32075" lon="-0.45411">
        <ele>29.4</ele>
        <time>2023-05-17T20:39:57Z</time>
      </trkpt>
      <trkpt lat="49.32095" lon="-0.45428">
        <ele>29</ele>
        <time>2023-05-17T20:40:00Z</time>
      </trkpt>
      <trkpt lat="49.32117" lon="-0.45447">
        <ele>28.6</ele>
        <time>2023-05-17T20:40:03Z</time>
      </trkpt>
      <trkpt lat="49.32138" lon="-0.45465">
        <ele>28.3</ele>
        <time>2023-05-17T20:40:06Z</time>
      </trkpt>
      <trkpt lat="49.32159" lon="-0.45483">
        <ele>27.9</ele>
        <time>2023-05-17T20:40:09Z</time>
      </trkpt>
      <trkpt lat="49.3218" lon="-0.45501">
        <ele>27.8</ele>
        <time>2023-05-17T20:40:12Z</time>
      </trkpt>
      <trkpt lat="49.32199" lon="-0.45517">
        <ele>27.8</ele>
        <time>2023-05-17T20:40:15Z</time>
      </trkpt>
      <trkpt lat="49.32222" lon="-0.45523">
        <ele>27.6</ele>
        <time>2023-05-17T20:40:18Z</time>
      </trkpt>
      <trkpt lat="49.32244" lon="-0.45537">
        <ele>27.4</ele>
        <time>2023-05-17T20:40:21Z</time>
      </trkpt>
      <trkpt lat="49.32254" lon="-0.45569">
        <ele>27.1</ele>
        <time>2023-05-17T20:40:24Z</time>
      </trkpt>
      <trkpt lat="49.3227" lon="-0.4559">
        <ele>26.8</ele>
        <time>2023-05-17T20:40:27Z</time>
      </trkpt>
      <trkpt lat="49.32291" lon="-0.45609">
        <ele>26.5</ele>
        <time>2023-05-17T20:40:30Z</time>
      </trkpt>
      <trkpt lat="49.32312" lon="-0.45628">
        <ele>26.2</ele>
        <time>2023-05-17T20:40:33Z</time>
      </trkpt>
      <trkpt lat="49.32333" lon="-0.45648">
        <ele>25.8</ele>
        <time>2023-05-17T20:40:36Z</time>
      </trkpt>
      <trkpt lat="49.32353" lon="-0.4567">
        <ele>25.3</ele>
        <time>2023-05-17T20:40:39Z</time>
      </trkpt>
      <trkpt lat="49.32374" lon="-0.45691">
        <ele>24.9</ele>
        <time>2023-05-17T20:40:42Z</time>
      </trkpt>
      <trkpt lat="49.32395" lon="-0.45711">
        <ele>24.5</ele>
        <time>2023-05-17T20:40:45Z</time>
      </trkpt>
      <trkpt lat="49.32414" lon="-0.45733">
        <ele>24.1</ele>
        <time>2023-05-17T20:40:48Z</time>
      </trkpt>
      <trkpt lat="49.32434" lon="-0.45755">
        <ele>23.7</ele>
        <time>2023-05-17T20:40:51Z</time>
      </trkpt>
      <trkpt lat="49.32456" lon="-0.45778">
        <ele>23.2</ele>
        <time>2023-05-17T20:40:54Z</time>
      </trkpt>
      <trkpt lat="49.32476" lon="-0.458">
        <ele>22.7</ele>
        <time>2023-05-17T20:40:57Z</time>
      </trkpt>
      <trkpt lat="49.32496" lon="-0.45822">
        <ele>22.2</ele>
        <time>2023-05-17T20:41:00Z</time>
      </trkpt>
      <trkpt lat="49.32517" lon="-0.45845">
        <ele>21.8</ele>
        <time>2023-05-17T20:41:03Z</time>
      </trkpt>
      <trkpt lat="49.32537" lon="-0.45865">
        <ele>21.5</ele>
        <time>2023-05-17T20:41:06Z</time>
      </trkpt>
      <trkpt lat="49.32557" lon="-0.45888">
        <ele>21</ele>
        <time>2023-05-17T20:41:09Z</time>
      </trkpt>
      <trkpt lat="49.32578" lon="-0.45911">
        <ele>20.6</ele>
        <time>2023-05-17T20:41:12Z</time>
      </trkpt>
      <trkpt lat="49.32597" lon="-0.45932">
        <ele>20.2</ele>
        <time>2023-05-17T20:41:15Z</time>
      </trkpt>
      <trkpt lat="49.32617" lon="-0.45954">
        <ele>19.8</ele>
        <time>2023-05-17T20:41:18Z</time>
      </trkpt>
      <trkpt lat="49.32637" lon="-0.45977">
        <ele>19.5</ele>
        <time>2023-05-17T20:41:21Z</time>
      </trkpt>
      <trkpt lat="49.32657" lon="-0.45998">
        <ele>19.1</ele>
        <time>2023-05-17T20:41:24Z</time>
      </trkpt>
      <trkpt lat="49.32676" lon="-0.4602">
        <ele>18.6</ele>
        <time>2023-05-17T20:41:27Z</time>
      </trkpt>
      <trkpt lat="49.32696" lon="-0.46041">
        <ele>18.1</ele>
        <time>2023-05-17T20:41:30Z</time>
      </trkpt>
      <trkpt lat="49.32715" lon="-0.46063">
        <ele>17.7</ele>
        <time>2023-05-17T20:41:33Z</time>
      </trkpt>
      <trkpt lat="49.32735" lon="-0.46083">
        <ele>17.4</ele>
        <time>2023-05-17T20:41:36Z</time>
      </trkpt>
      <trkpt lat="49.32754" lon="-0.46103">
        <ele>16.9</ele>
        <time>2023-05-17T20:41:39Z</time>
      </trkpt>
      <trkpt lat="49.32773" lon="-0.46113">
        <ele>16.7</ele>
        <time>2023-05-17T20:41:45Z</time>
      </trkpt>
      <trkpt lat="49.3279" lon="-0.46126">
        <ele>16.6</ele>
        <time>2023-05-17T20:41:49Z</time>
      </trkpt>
      <trkpt lat="49.32783" lon="-0.46158">
        <ele>15.9</ele>
        <time>2023-05-17T20:41:53Z</time>
      </trkpt>
      <trkpt lat="49.32764" lon="-0.46175">
        <ele>15.1</ele>
        <time>2023-05-17T20:41:56Z</time>
      </trkpt>
      <trkpt lat="49.32748" lon="-0.46195">
        <ele>14</ele>
        <time>2023-05-17T20:41:59Z</time>
      </trkpt>
      <trkpt lat="49.32728" lon="-0.46217">
        <ele>12.6</ele>
        <time>2023-05-17T20:42:02Z</time>
      </trkpt>
      <trkpt lat="49.32706" lon="-0.46241">
        <ele>11</ele>
        <time>2023-05-17T20:42:05Z</time>
      </trkpt>
      <trkpt lat="49.3269" lon="-0.46257">
        <ele>9.8</ele>
        <time>2023-05-17T20:42:07Z</time>
      </trkpt>
      <trkpt lat="49.32675" lon="-0.46274">
        <ele>8.8</ele>
        <time>2023-05-17T20:42:09Z</time>
      </trkpt>
      <trkpt lat="49.32658" lon="-0.46294">
        <ele>7.9</ele>
        <time>2023-05-17T20:42:11Z</time>
      </trkpt>
      <trkpt lat="49.32642" lon="-0.46314">
        <ele>7.1</ele>
        <time>2023-05-17T20:42:13Z</time>
      </trkpt>
      <trkpt lat="49.32627" lon="-0.46333">
        <ele>6.4</ele>
        <time>2023-05-17T20:42:15Z</time>
      </trkpt>
      <trkpt lat="49.32609" lon="-0.46357">
        <ele>5.6</ele>
        <time>2023-05-17T20:42:18Z</time>
      </trkpt>
      <trkpt lat="49.32596" lon="-0.46379">
        <ele>5</ele>
        <time>2023-05-17T20:42:22Z</time>
      </trkpt>
      <trkpt lat="49.32591" lon="-0.46416">
        <ele>4.4</ele>
        <time>2023-05-17T20:42:42Z</time>
      </trkpt>
      <trkpt lat="49.32592" lon="-0.46444">
        <ele>4.3</ele>
        <time>2023-05-17T20:43:17Z</time>
      </trkpt>
      <trkpt lat="49.32595" lon="-0.46472">
        <ele>4.1</ele>
        <time>2023-05-17T20:43:20Z</time>
      </trkpt>
      <trkpt lat="49.32596" lon="-0.46505">
        <ele>3.8</ele>
        <time>2023-05-17T20:43:23Z</time>
      </trkpt>
      <trkpt lat="49.32597" lon="-0.46539">
        <ele>3.6</ele>
        <time>2023-05-17T20:43:26Z</time>
      </trkpt>
      <trkpt lat="49.32599" lon="-0.46574">
        <ele>3.5</ele>
        <time>2023-05-17T20:43:29Z</time>
      </trkpt>
      <trkpt lat="49.326" lon="-0.46609">
        <ele>3.5</ele>
        <time>2023-05-17T20:43:32Z</time>
      </trkpt>
      <trkpt lat="49.32601" lon="-0.46642">
        <ele>3.5</ele>
        <time>2023-05-17T20:43:35Z</time>
      </trkpt>
      <trkpt lat="49.32602" lon="-0.46674">
        <ele>3.5</ele>
        <time>2023-05-17T20:43:38Z</time>
      </trkpt>
      <trkpt lat="49.32602" lon="-0.46706">
        <ele>3.6</ele>
        <time>2023-05-17T20:43:41Z</time>
      </trkpt>
      <trkpt lat="49.32603" lon="-0.46736">
        <ele>3.6</ele>
        <time>2023-05-17T20:43:44Z</time>
      </trkpt>
      <trkpt lat="49.32604" lon="-0.46767">
        <ele>3.7</ele>
        <time>2023-05-17T20:43:47Z</time>
      </trkpt>
      <trkpt lat="49.32608" lon="-0.46796">
        <ele>3.8</ele>
        <time>2023-05-17T20:43:50Z</time>
      </trkpt>
      <trkpt lat="49.32616" lon="-0.46823">
        <ele>4</ele>
        <time>2023-05-17T20:43:53Z</time>
      </trkpt>
      <trkpt lat="49.32626" lon="-0.46848">
        <ele>4.2</ele>
        <time>2023-05-17T20:43:56Z</time>
      </trkpt>
      <trkpt lat="49.32636" lon="-0.46873">
        <ele>4.4</ele>
        <time>2023-05-17T20:43:59Z</time>
      </trkpt>
      <trkpt lat="49.32647" lon="-0.46897">
        <ele>4.6</ele>
        <time>2023-05-17T20:44:03Z</time>
      </trkpt>
      <trkpt lat="49.32669" lon="-0.46904">
        <ele>4.4</ele>
        <time>2023-05-17T20:44:07Z</time>
      </trkpt>
      <trkpt lat="49.32687" lon="-0.46907">
        <ele>4.4</ele>
        <time>2023-05-17T20:44:10Z</time>
      </trkpt>
      <trkpt lat="49.32709" lon="-0.46911">
        <ele>4.5</ele>
        <time>2023-05-17T20:44:14Z</time>
      </trkpt>
      <trkpt lat="49.32728" lon="-0.46922">
        <ele>4.5</ele>
        <time>2023-05-17T20:44:18Z</time>
      </trkpt>
      <trkpt lat="49.32737" lon="-0.46954">
        <ele>4.8</ele>
        <time>2023-05-17T20:44:22Z</time>
      </trkpt>
      <trkpt lat="49.32748" lon="-0.46983">
        <ele>5.2</ele>
        <time>2023-05-17T20:44:26Z</time>
      </trkpt>
      <trkpt lat="49.32757" lon="-0.47013">
        <ele>5.5</ele>
        <time>2023-05-17T20:44:30Z</time>
      </trkpt>
      <trkpt lat="49.32767" lon="-0.47038">
        <ele>5.6</ele>
        <time>2023-05-17T20:44:34Z</time>
      </trkpt>
      <trkpt lat="49.32778" lon="-0.47068">
        <ele>5.7</ele>
        <time>2023-05-17T20:44:38Z</time>
      </trkpt>
      <trkpt lat="49.32792" lon="-0.47096">
        <ele>5.7</ele>
        <time>2023-05-17T20:44:42Z</time>
      </trkpt>
      <trkpt lat="49.32813" lon="-0.47112">
        <ele>5.7</ele>
        <time>2023-05-17T20:44:46Z</time>
      </trkpt>
      <trkpt lat="49.32829" lon="-0.47124">
        <ele>5.7</ele>
        <time>2023-05-17T20:44:49Z</time>
      </trkpt>
      <trkpt lat="49.3285" lon="-0.4714">
        <ele>5.6</ele>
        <time>2023-05-17T20:44:53Z</time>
      </trkpt>
      <trkpt lat="49.32868" lon="-0.47155">
        <ele>5.5</ele>
        <time>2023-05-17T20:44:57Z</time>
      </trkpt>
      <trkpt lat="49.32887" lon="-0.47167">
        <ele>5.4</ele>
        <time>2023-05-17T20:45:01Z</time>
      </trkpt>
      <trkpt lat="49.32903" lon="-0.47192">
        <ele>5.3</ele>
        <time>2023-05-17T20:45:05Z</time>
      </trkpt>
      <trkpt lat="49.32915" lon="-0.47218">
        <ele>5.2</ele>
        <time>2023-05-17T20:45:09Z</time>
      </trkpt>
      <trkpt lat="49.32929" lon="-0.47246">
        <ele>4.9</ele>
        <time>2023-05-17T20:45:13Z</time>
      </trkpt>
      <trkpt lat="49.32941" lon="-0.47268">
        <ele>4.7</ele>
        <time>2023-05-17T20:45:16Z</time>
      </trkpt>
      <trkpt lat="49.32955" lon="-0.47285">
        <ele>4.5</ele>
        <time>2023-05-17T20:45:19Z</time>
      </trkpt>
      <trkpt lat="49.32967" lon="-0.47308">
        <ele>4.4</ele>
        <time>2023-05-17T20:45:22Z</time>
      </trkpt>
      <trkpt lat="49.32982" lon="-0.47337">
        <ele>4.2</ele>
        <time>2023-05-17T20:45:26Z</time>
      </trkpt>
      <trkpt lat="49.32996" lon="-0.47358">
        <ele>4</ele>
        <time>2023-05-17T20:45:30Z</time>
      </trkpt>
      <trkpt lat="49.33008" lon="-0.47385">
        <ele>4.3</ele>
        <time>2023-05-17T20:45:34Z</time>
      </trkpt>
      <trkpt lat="49.3302" lon="-0.47414">
        <ele>4.7</ele>
        <time>2023-05-17T20:45:38Z</time>
      </trkpt>
      <trkpt lat="49.33015" lon="-0.47447">
        <ele>5.2</ele>
        <time>2023-05-17T20:45:42Z</time>
      </trkpt>
      <trkpt lat="49.33003" lon="-0.47472">
        <ele>5.6</ele>
        <time>2023-05-17T20:45:46Z</time>
      </trkpt>
      <trkpt lat="49.33007" lon="-0.47506">
        <ele>6</ele>
        <time>2023-05-17T20:45:50Z</time>
      </trkpt>
      <trkpt lat="49.33018" lon="-0.47528">
        <ele>6.2</ele>
        <time>2023-05-17T20:45:53Z</time>
      </trkpt>
      <trkpt lat="49.3303" lon="-0.47558">
        <ele>6.6</ele>
        <time>2023-05-17T20:45:57Z</time>
      </trkpt>
      <trkpt lat="49.33042" lon="-0.47586">
        <ele>7.1</ele>
        <time>2023-05-17T20:46:01Z</time>
      </trkpt>
      <trkpt lat="49.33056" lon="-0.47615">
        <ele>7.6</ele>
        <time>2023-05-17T20:46:05Z</time>
      </trkpt>
      <trkpt lat="49.33068" lon="-0.47644">
        <ele>8</ele>
        <time>2023-05-17T20:46:09Z</time>
      </trkpt>
      <trkpt lat="49.33081" lon="-0.47673">
        <ele>8.4</ele>
        <time>2023-05-17T20:46:13Z</time>
      </trkpt>
      <trkpt lat="49.33093" lon="-0.47703">
        <ele>8.7</ele>
        <time>2023-05-17T20:46:17Z</time>
      </trkpt>
      <trkpt lat="49.33105" lon="-0.47732">
        <ele>9.1</ele>
        <time>2023-05-17T20:46:21Z</time>
      </trkpt>
      <trkpt lat="49.33117" lon="-0.47761">
        <ele>9.4</ele>
        <time>2023-05-17T20:46:25Z</time>
      </trkpt>
      <trkpt lat="49.3313" lon="-0.4779">
        <ele>9.8</ele>
        <time>2023-05-17T20:46:29Z</time>
      </trkpt>
      <trkpt lat="49.33142" lon="-0.47819">
        <ele>10.1</ele>
        <time>2023-05-17T20:46:33Z</time>
      </trkpt>
      <trkpt lat="49.33154" lon="-0.47849">
        <ele>10.7</ele>
        <time>2023-05-17T20:46:37Z</time>
      </trkpt>
      <trkpt lat="49.33166" lon="-0.47877">
        <ele>11.4</ele>
        <time>2023-05-17T20:46:41Z</time>
      </trkpt>
      <trkpt lat="49.33178" lon="-0.47904">
        <ele>12.2</ele>
        <time>2023-05-17T20:46:45Z</time>
      </trkpt>
      <trkpt lat="49.33189" lon="-0.47931">
        <ele>12.7</ele>
        <time>2023-05-17T20:46:49Z</time>
      </trkpt>
      <trkpt lat="49.33201" lon="-0.47958">
        <ele>13.1</ele>
        <time>2023-05-17T20:46:53Z</time>
      </trkpt>
      <trkpt lat="49.33213" lon="-0.47988">
        <ele>13.2</ele>
        <time>2023-05-17T20:46:57Z</time>
      </trkpt>
      <trkpt lat="49.33219" lon="-0.48014">
        <ele>13.2</ele>
        <time>2023-05-17T20:47:00Z</time>
      </trkpt>
      <trkpt lat="49.33225" lon="-0.48048">
        <ele>13.4</ele>
        <time>2023-05-17T20:47:04Z</time>
      </trkpt>
      <trkpt lat="49.33229" lon="-0.48075">
        <ele>13.6</ele>
        <time>2023-05-17T20:47:07Z</time>
      </trkpt>
      <trkpt lat="49.33231" lon="-0.48102">
        <ele>14</ele>
        <time>2023-05-17T20:47:10Z</time>
      </trkpt>
      <trkpt lat="49.33232" lon="-0.4813">
        <ele>14.5</ele>
        <time>2023-05-17T20:47:13Z</time>
      </trkpt>
      <trkpt lat="49.3323" lon="-0.48165">
        <ele>15.3</ele>
        <time>2023-05-17T20:47:17Z</time>
      </trkpt>
      <trkpt lat="49.33224" lon="-0.48198">
        <ele>16.1</ele>
        <time>2023-05-17T20:47:21Z</time>
      </trkpt>
      <trkpt lat="49.33216" lon="-0.48228">
        <ele>17.1</ele>
        <time>2023-05-17T20:47:25Z</time>
      </trkpt>
      <trkpt lat="49.33206" lon="-0.48255">
        <ele>18.1</ele>
        <time>2023-05-17T20:47:29Z</time>
      </trkpt>
      <trkpt lat="49.33196" lon="-0.48278">
        <ele>19</ele>
        <time>2023-05-17T20:47:33Z</time>
      </trkpt>
      <trkpt lat="49.33185" lon="-0.483">
        <ele>20.1</ele>
        <time>2023-05-17T20:47:37Z</time>
      </trkpt>
      <trkpt lat="49.33168" lon="-0.48323">
        <ele>21.5</ele>
        <time>2023-05-17T20:47:42Z</time>
      </trkpt>
      <trkpt lat="49.33154" lon="-0.48342">
        <ele>22.6</ele>
        <time>2023-05-17T20:47:46Z</time>
      </trkpt>
      <trkpt lat="49.33137" lon="-0.48364">
        <ele>23.9</ele>
        <time>2023-05-17T20:47:51Z</time>
      </trkpt>
      <trkpt lat="49.33121" lon="-0.48385">
        <ele>25</ele>
        <time>2023-05-17T20:47:56Z</time>
      </trkpt>
      <trkpt lat="49.33107" lon="-0.48403">
        <ele>25.8</ele>
        <time>2023-05-17T20:48:00Z</time>
      </trkpt>
      <trkpt lat="49.33093" lon="-0.48422">
        <ele>26.5</ele>
        <time>2023-05-17T20:48:04Z</time>
      </trkpt>
      <trkpt lat="49.3308" lon="-0.48445">
        <ele>27.2</ele>
        <time>2023-05-17T20:48:08Z</time>
      </trkpt>
      <trkpt lat="49.33071" lon="-0.48473">
        <ele>27.7</ele>
        <time>2023-05-17T20:48:12Z</time>
      </trkpt>
      <trkpt lat="49.33066" lon="-0.48505">
        <ele>28.1</ele>
        <time>2023-05-17T20:48:16Z</time>
      </trkpt>
      <trkpt lat="49.33064" lon="-0.48538">
        <ele>28.2</ele>
        <time>2023-05-17T20:48:20Z</time>
      </trkpt>
      <trkpt lat="49.33066" lon="-0.4857">
        <ele>28.3</ele>
        <time>2023-05-17T20:48:24Z</time>
      </trkpt>
      <trkpt lat="49.33071" lon="-0.48604">
        <ele>28.5</ele>
        <time>2023-05-17T20:48:28Z</time>
      </trkpt>
      <trkpt lat="49.33078" lon="-0.48639">
        <ele>28.5</ele>
        <time>2023-05-17T20:48:32Z</time>
      </trkpt>
      <trkpt lat="49.33083" lon="-0.48674">
        <ele>28.6</ele>
        <time>2023-05-17T20:48:36Z</time>
      </trkpt>
      <trkpt lat="49.33089" lon="-0.48702">
        <ele>28.6</ele>
        <time>2023-05-17T20:48:39Z</time>
      </trkpt>
      <trkpt lat="49.33095" lon="-0.48729">
        <ele>28.7</ele>
        <time>2023-05-17T20:48:42Z</time>
      </trkpt>
      <trkpt lat="49.33102" lon="-0.48755">
        <ele>28.7</ele>
        <time>2023-05-17T20:48:45Z</time>
      </trkpt>
      <trkpt lat="49.33109" lon="-0.48783">
        <ele>28.7</ele>
        <time>2023-05-17T20:48:48Z</time>
      </trkpt>
      <trkpt lat="49.33117" lon="-0.48811">
        <ele>28.6</ele>
        <time>2023-05-17T20:48:51Z</time>
      </trkpt>
      <trkpt lat="49.33123" lon="-0.48841">
        <ele>28.4</ele>
        <time>2023-05-17T20:48:54Z</time>
      </trkpt>
      <trkpt lat="49.33128" lon="-0.4887">
        <ele>28.2</ele>
        <time>2023-05-17T20:48:57Z</time>
      </trkpt>
      <trkpt lat="49.33132" lon="-0.48901">
        <ele>27.8</ele>
        <time>2023-05-17T20:49:00Z</time>
      </trkpt>
      <trkpt lat="49.33135" lon="-0.48934">
        <ele>27</ele>
        <time>2023-05-17T20:49:03Z</time>
      </trkpt>
      <trkpt lat="49.33135" lon="-0.4897">
        <ele>26</ele>
        <time>2023-05-17T20:49:06Z</time>
      </trkpt>
      <trkpt lat="49.33134" lon="-0.49008">
        <ele>24.7</ele>
        <time>2023-05-17T20:49:09Z</time>
      </trkpt>
      <trkpt lat="49.3313" lon="-0.49047">
        <ele>22.8</ele>
        <time>2023-05-17T20:49:12Z</time>
      </trkpt>
      <trkpt lat="49.33129" lon="-0.49076">
        <ele>21.1</ele>
        <time>2023-05-17T20:49:14Z</time>
      </trkpt>
      <trkpt lat="49.33138" lon="-0.49113">
        <ele>19</ele>
        <time>2023-05-17T20:49:17Z</time>
      </trkpt>
      <trkpt lat="49.33163" lon="-0.49128">
        <ele>16.8</ele>
        <time>2023-05-17T20:49:20Z</time>
      </trkpt>
      <trkpt lat="49.33183" lon="-0.49131">
        <ele>15.1</ele>
        <time>2023-05-17T20:49:22Z</time>
      </trkpt>
      <trkpt lat="49.33203" lon="-0.49136">
        <ele>13.5</ele>
        <time>2023-05-17T20:49:24Z</time>
      </trkpt>
      <trkpt lat="49.33223" lon="-0.49143">
        <ele>12.4</ele>
        <time>2023-05-17T20:49:26Z</time>
      </trkpt>
      <trkpt lat="49.33245" lon="-0.49155">
        <ele>11.6</ele>
        <time>2023-05-17T20:49:28Z</time>
      </trkpt>
      <trkpt lat="49.33267" lon="-0.49166">
        <ele>11.1</ele>
        <time>2023-05-17T20:49:30Z</time>
      </trkpt>
      <trkpt lat="49.33289" lon="-0.49179">
        <ele>10.8</ele>
        <time>2023-05-17T20:49:32Z</time>
      </trkpt>
      <trkpt lat="49.33309" lon="-0.49187">
        <ele>10.8</ele>
        <time>2023-05-17T20:49:34Z</time>
      </trkpt>
      <trkpt lat="49.33328" lon="-0.49187">
        <ele>10.8</ele>
        <time>2023-05-17T20:49:36Z</time>
      </trkpt>
      <trkpt lat="49.33352" lon="-0.49181">
        <ele>10.8</ele>
        <time>2023-05-17T20:49:39Z</time>
      </trkpt>
      <trkpt lat="49.33378" lon="-0.49176">
        <ele>11</ele>
        <time>2023-05-17T20:49:42Z</time>
      </trkpt>
      <trkpt lat="49.33399" lon="-0.49169">
        <ele>10.9</ele>
        <time>2023-05-17T20:49:45Z</time>
      </trkpt>
      <trkpt lat="49.33419" lon="-0.49159">
        <ele>10.5</ele>
        <time>2023-05-17T20:49:48Z</time>
      </trkpt>
      <trkpt lat="49.33442" lon="-0.49145">
        <ele>9.9</ele>
        <time>2023-05-17T20:49:51Z</time>
      </trkpt>
      <trkpt lat="49.3346" lon="-0.49143">
        <ele>9.7</ele>
        <time>2023-05-17T20:49:53Z</time>
      </trkpt>
      <trkpt lat="49.33485" lon="-0.49156">
        <ele>9.9</ele>
        <time>2023-05-17T20:49:56Z</time>
      </trkpt>
      <trkpt lat="49.33497" lon="-0.49185">
        <ele>10.3</ele>
        <time>2023-05-17T20:49:59Z</time>
      </trkpt>
      <trkpt lat="49.335" lon="-0.49214">
        <ele>10.7</ele>
        <time>2023-05-17T20:50:02Z</time>
      </trkpt>
      <trkpt lat="49.33501" lon="-0.4925">
        <ele>11.3</ele>
        <time>2023-05-17T20:50:06Z</time>
      </trkpt>
      <trkpt lat="49.33508" lon="-0.49275">
        <ele>11.9</ele>
        <time>2023-05-17T20:50:09Z</time>
      </trkpt>
      <trkpt lat="49.33522" lon="-0.49303">
        <ele>12.9</ele>
        <time>2023-05-17T20:50:13Z</time>
      </trkpt>
      <trkpt lat="49.33532" lon="-0.49334">
        <ele>13.6</ele>
        <time>2023-05-17T20:50:18Z</time>
      </trkpt>
      <trkpt lat="49.33541" lon="-0.49362">
        <ele>14</ele>
        <time>2023-05-17T20:50:22Z</time>
      </trkpt>
      <trkpt lat="49.33551" lon="-0.49391">
        <ele>14.2</ele>
        <time>2023-05-17T20:50:26Z</time>
      </trkpt>
      <trkpt lat="49.33559" lon="-0.49416">
        <ele>14.2</ele>
        <time>2023-05-17T20:50:30Z</time>
      </trkpt>
      <trkpt lat="49.33565" lon="-0.49444">
        <ele>14.2</ele>
        <time>2023-05-17T20:50:34Z</time>
      </trkpt>
      <trkpt lat="49.33573" lon="-0.49475">
        <ele>14.2</ele>
        <time>2023-05-17T20:50:39Z</time>
      </trkpt>
      <trkpt lat="49.3358" lon="-0.49504">
        <ele>14.1</ele>
        <time>2023-05-17T20:50:43Z</time>
      </trkpt>
      <trkpt lat="49.33589" lon="-0.49528">
        <ele>13.5</ele>
        <time>2023-05-17T20:50:46Z</time>
      </trkpt>
      <trkpt lat="49.33605" lon="-0.49554">
        <ele>11.9</ele>
        <time>2023-05-17T20:50:49Z</time>
      </trkpt>
      <trkpt lat="49.33621" lon="-0.49588">
        <ele>9.5</ele>
        <time>2023-05-17T20:50:52Z</time>
      </trkpt>
      <trkpt lat="49.33627" lon="-0.49617">
        <ele>7.9</ele>
        <time>2023-05-17T20:50:54Z</time>
      </trkpt>
      <trkpt lat="49.33635" lon="-0.49647">
        <ele>6.7</ele>
        <time>2023-05-17T20:50:56Z</time>
      </trkpt>
      <trkpt lat="49.33643" lon="-0.49675">
        <ele>5.9</ele>
        <time>2023-05-17T20:50:58Z</time>
      </trkpt>
      <trkpt lat="49.33651" lon="-0.497">
        <ele>5.5</ele>
        <time>2023-05-17T20:51:00Z</time>
      </trkpt>
      <trkpt lat="49.33667" lon="-0.49731">
        <ele>5</ele>
        <time>2023-05-17T20:51:03Z</time>
      </trkpt>
      <trkpt lat="49.33684" lon="-0.4976">
        <ele>5.1</ele>
        <time>2023-05-17T20:51:06Z</time>
      </trkpt>
      <trkpt lat="49.33698" lon="-0.49786">
        <ele>5.3</ele>
        <time>2023-05-17T20:51:09Z</time>
      </trkpt>
      <trkpt lat="49.3371" lon="-0.49808">
        <ele>5.6</ele>
        <time>2023-05-17T20:51:12Z</time>
      </trkpt>
      <trkpt lat="49.3372" lon="-0.49832">
        <ele>5.8</ele>
        <time>2023-05-17T20:51:15Z</time>
      </trkpt>
      <trkpt lat="49.3373" lon="-0.4986">
        <ele>6.2</ele>
        <time>2023-05-17T20:51:18Z</time>
      </trkpt>
      <trkpt lat="49.33742" lon="-0.49884">
        <ele>6.7</ele>
        <time>2023-05-17T20:51:21Z</time>
      </trkpt>
      <trkpt lat="49.33754" lon="-0.49908">
        <ele>7.3</ele>
        <time>2023-05-17T20:51:24Z</time>
      </trkpt>
      <trkpt lat="49.33764" lon="-0.49932">
        <ele>7.9</ele>
        <time>2023-05-17T20:51:27Z</time>
      </trkpt>
      <trkpt lat="49.33777" lon="-0.49961">
        <ele>8.6</ele>
        <time>2023-05-17T20:51:31Z</time>
      </trkpt>
      <trkpt lat="49.3379" lon="-0.49987">
        <ele>9.3</ele>
        <time>2023-05-17T20:51:35Z</time>
      </trkpt>
      <trkpt lat="49.33804" lon="-0.50014">
        <ele>9.7</ele>
        <time>2023-05-17T20:51:39Z</time>
      </trkpt>
      <trkpt lat="49.33819" lon="-0.50041">
        <ele>9.8</ele>
        <time>2023-05-17T20:51:43Z</time>
      </trkpt>
      <trkpt lat="49.33835" lon="-0.50068">
        <ele>9.6</ele>
        <time>2023-05-17T20:51:47Z</time>
      </trkpt>
      <trkpt lat="49.33849" lon="-0.5009">
        <ele>9.3</ele>
        <time>2023-05-17T20:51:50Z</time>
      </trkpt>
      <trkpt lat="49.33861" lon="-0.50113">
        <ele>9</ele>
        <time>2023-05-17T20:51:53Z</time>
      </trkpt>
      <trkpt lat="49.33874" lon="-0.50136">
        <ele>8.6</ele>
        <time>2023-05-17T20:51:56Z</time>
      </trkpt>
      <trkpt lat="49.33887" lon="-0.5016">
        <ele>8.3</ele>
        <time>2023-05-17T20:51:59Z</time>
      </trkpt>
      <trkpt lat="49.33899" lon="-0.50184">
        <ele>8.1</ele>
        <time>2023-05-17T20:52:02Z</time>
      </trkpt>
      <trkpt lat="49.33912" lon="-0.50208">
        <ele>8</ele>
        <time>2023-05-17T20:52:05Z</time>
      </trkpt>
      <trkpt lat="49.33924" lon="-0.50234">
        <ele>7.9</ele>
        <time>2023-05-17T20:52:08Z</time>
      </trkpt>
      <trkpt lat="49.33937" lon="-0.50258">
        <ele>7.9</ele>
        <time>2023-05-17T20:52:11Z</time>
      </trkpt>
      <trkpt lat="49.33948" lon="-0.50284">
        <ele>8</ele>
        <time>2023-05-17T20:52:14Z</time>
      </trkpt>
      <trkpt lat="49.3396" lon="-0.5031">
        <ele>8.1</ele>
        <time>2023-05-17T20:52:17Z</time>
      </trkpt>
      <trkpt lat="49.3397" lon="-0.50336">
        <ele>8.3</ele>
        <time>2023-05-17T20:52:20Z</time>
      </trkpt>
      <trkpt lat="49.3398" lon="-0.50362">
        <ele>8.4</ele>
        <time>2023-05-17T20:52:23Z</time>
      </trkpt>
      <trkpt lat="49.33989" lon="-0.50391">
        <ele>8.3</ele>
        <time>2023-05-17T20:52:26Z</time>
      </trkpt>
      <trkpt lat="49.33997" lon="-0.50421">
        <ele>8.1</ele>
        <time>2023-05-17T20:52:29Z</time>
      </trkpt>
      <trkpt lat="49.34002" lon="-0.50453">
        <ele>7.8</ele>
        <time>2023-05-17T20:52:32Z</time>
      </trkpt>
      <trkpt lat="49.34007" lon="-0.50486">
        <ele>7.8</ele>
        <time>2023-05-17T20:52:35Z</time>
      </trkpt>
      <trkpt lat="49.34011" lon="-0.50518">
        <ele>7.8</ele>
        <time>2023-05-17T20:52:38Z</time>
      </trkpt>
      <trkpt lat="49.34013" lon="-0.50547">
        <ele>7.9</ele>
        <time>2023-05-17T20:52:41Z</time>
      </trkpt>
      <trkpt lat="49.34018" lon="-0.50576">
        <ele>8.1</ele>
        <time>2023-05-17T20:52:44Z</time>
      </trkpt>
      <trkpt lat="49.34026" lon="-0.50604">
        <ele>8.5</ele>
        <time>2023-05-17T20:52:47Z</time>
      </trkpt>
      <trkpt lat="49.34032" lon="-0.50632">
        <ele>8.7</ele>
        <time>2023-05-17T20:52:50Z</time>
      </trkpt>
      <trkpt lat="49.3404" lon="-0.50659">
        <ele>8.6</ele>
        <time>2023-05-17T20:52:53Z</time>
      </trkpt>
      <trkpt lat="49.34047" lon="-0.50687">
        <ele>8.3</ele>
        <time>2023-05-17T20:52:56Z</time>
      </trkpt>
      <trkpt lat="49.34055" lon="-0.50715">
        <ele>7.8</ele>
        <time>2023-05-17T20:52:59Z</time>
      </trkpt>
      <trkpt lat="49.34061" lon="-0.50746">
        <ele>7.3</ele>
        <time>2023-05-17T20:53:02Z</time>
      </trkpt>
      <trkpt lat="49.34069" lon="-0.50781">
        <ele>6.6</ele>
        <time>2023-05-17T20:53:05Z</time>
      </trkpt>
      <trkpt lat="49.34078" lon="-0.50816">
        <ele>5.8</ele>
        <time>2023-05-17T20:53:08Z</time>
      </trkpt>
      <trkpt lat="49.34085" lon="-0.50849">
        <ele>5.3</ele>
        <time>2023-05-17T20:53:11Z</time>
      </trkpt>
      <trkpt lat="49.3409" lon="-0.50885">
        <ele>5</ele>
        <time>2023-05-17T20:53:14Z</time>
      </trkpt>
      <trkpt lat="49.34093" lon="-0.50919">
        <ele>4.9</ele>
        <time>2023-05-17T20:53:17Z</time>
      </trkpt>
      <trkpt lat="49.34092" lon="-0.50955">
        <ele>5</ele>
        <time>2023-05-17T20:53:20Z</time>
      </trkpt>
      <trkpt lat="49.34091" lon="-0.50989">
        <ele>5.4</ele>
        <time>2023-05-17T20:53:23Z</time>
      </trkpt>
      <trkpt lat="49.3409" lon="-0.5102">
        <ele>6</ele>
        <time>2023-05-17T20:53:26Z</time>
      </trkpt>
      <trkpt lat="49.3409" lon="-0.51049">
        <ele>6.8</ele>
        <time>2023-05-17T20:53:29Z</time>
      </trkpt>
      <trkpt lat="49.3409" lon="-0.51077">
        <ele>7.9</ele>
        <time>2023-05-17T20:53:32Z</time>
      </trkpt>
      <trkpt lat="49.34091" lon="-0.51107">
        <ele>9.1</ele>
        <time>2023-05-17T20:53:36Z</time>
      </trkpt>
      <trkpt lat="49.34095" lon="-0.51138">
        <ele>10</ele>
        <time>2023-05-17T20:53:41Z</time>
      </trkpt>
      <trkpt lat="49.34103" lon="-0.51169">
        <ele>10.9</ele>
        <time>2023-05-17T20:53:46Z</time>
      </trkpt>
      <trkpt lat="49.34113" lon="-0.51196">
        <ele>11.4</ele>
        <time>2023-05-17T20:53:50Z</time>
      </trkpt>
      <trkpt lat="49.34122" lon="-0.51226">
        <ele>11.8</ele>
        <time>2023-05-17T20:53:54Z</time>
      </trkpt>
      <trkpt lat="49.3413" lon="-0.51254">
        <ele>12</ele>
        <time>2023-05-17T20:53:58Z</time>
      </trkpt>
      <trkpt lat="49.3414" lon="-0.51284">
        <ele>12.1</ele>
        <time>2023-05-17T20:54:02Z</time>
      </trkpt>
      <trkpt lat="49.3415" lon="-0.51317">
        <ele>12.1</ele>
        <time>2023-05-17T20:54:06Z</time>
      </trkpt>
      <trkpt lat="49.34158" lon="-0.51343">
        <ele>12</ele>
        <time>2023-05-17T20:54:09Z</time>
      </trkpt>
      <trkpt lat="49.34166" lon="-0.51369">
        <ele>11.6</ele>
        <time>2023-05-17T20:54:12Z</time>
      </trkpt>
      <trkpt lat="49.34175" lon="-0.51398">
        <ele>11.3</ele>
        <time>2023-05-17T20:54:15Z</time>
      </trkpt>
      <trkpt lat="49.34184" lon="-0.51424">
        <ele>11</ele>
        <time>2023-05-17T20:54:18Z</time>
      </trkpt>
      <trkpt lat="49.34196" lon="-0.51454">
        <ele>10.5</ele>
        <time>2023-05-17T20:54:22Z</time>
      </trkpt>
      <trkpt lat="49.34203" lon="-0.51484">
        <ele>10.2</ele>
        <time>2023-05-17T20:54:26Z</time>
      </trkpt>
      <trkpt lat="49.34212" lon="-0.51517">
        <ele>9.7</ele>
        <time>2023-05-17T20:54:30Z</time>
      </trkpt>
      <trkpt lat="49.34221" lon="-0.51542">
        <ele>9.3</ele>
        <time>2023-05-17T20:54:33Z</time>
      </trkpt>
      <trkpt lat="49.3423" lon="-0.51569">
        <ele>8.8</ele>
        <time>2023-05-17T20:54:36Z</time>
      </trkpt>
      <trkpt lat="49.34239" lon="-0.51595">
        <ele>8.3</ele>
        <time>2023-05-17T20:54:39Z</time>
      </trkpt>
      <trkpt lat="49.34248" lon="-0.51622">
        <ele>7.8</ele>
        <time>2023-05-17T20:54:42Z</time>
      </trkpt>
      <trkpt lat="49.34256" lon="-0.51648">
        <ele>7.4</ele>
        <time>2023-05-17T20:54:45Z</time>
      </trkpt>
      <trkpt lat="49.34264" lon="-0.51675">
        <ele>7.2</ele>
        <time>2023-05-17T20:54:48Z</time>
      </trkpt>
      <trkpt lat="49.34268" lon="-0.51702">
        <ele>7.2</ele>
        <time>2023-05-17T20:54:51Z</time>
      </trkpt>
      <trkpt lat="49.34254" lon="-0.51729">
        <ele>7.8</ele>
        <time>2023-05-17T20:54:55Z</time>
      </trkpt>
      <trkpt lat="49.34237" lon="-0.51751">
        <ele>8.9</ele>
        <time>2023-05-17T20:54:59Z</time>
      </trkpt>
      <trkpt lat="49.34223" lon="-0.51773">
        <ele>10.2</ele>
        <time>2023-05-17T20:55:03Z</time>
      </trkpt>
      <trkpt lat="49.34211" lon="-0.51801">
        <ele>11.8</ele>
        <time>2023-05-17T20:55:08Z</time>
      </trkpt>
      <trkpt lat="49.342" lon="-0.51827">
        <ele>13.5</ele>
        <time>2023-05-17T20:55:13Z</time>
      </trkpt>
      <trkpt lat="49.34189" lon="-0.51852">
        <ele>15.2</ele>
        <time>2023-05-17T20:55:18Z</time>
      </trkpt>
      <trkpt lat="49.34179" lon="-0.51876">
        <ele>16.7</ele>
        <time>2023-05-17T20:55:23Z</time>
      </trkpt>
      <trkpt lat="49.34168" lon="-0.51902">
        <ele>18.4</ele>
        <time>2023-05-17T20:55:28Z</time>
      </trkpt>
      <trkpt lat="49.34158" lon="-0.51925">
        <ele>19.7</ele>
        <time>2023-05-17T20:55:33Z</time>
      </trkpt>
      <trkpt lat="49.34145" lon="-0.51947">
        <ele>20.9</ele>
        <time>2023-05-17T20:55:38Z</time>
      </trkpt>
      <trkpt lat="49.34131" lon="-0.51967">
        <ele>22.2</ele>
        <time>2023-05-17T20:55:43Z</time>
      </trkpt>
      <trkpt lat="49.34116" lon="-0.51985">
        <ele>23.3</ele>
        <time>2023-05-17T20:55:48Z</time>
      </trkpt>
      <trkpt lat="49.34101" lon="-0.52002">
        <ele>24.4</ele>
        <time>2023-05-17T20:55:53Z</time>
      </trkpt>
      <trkpt lat="49.34084" lon="-0.52019">
        <ele>25.5</ele>
        <time>2023-05-17T20:55:58Z</time>
      </trkpt>
      <trkpt lat="49.34067" lon="-0.52036">
        <ele>26.4</ele>
        <time>2023-05-17T20:56:03Z</time>
      </trkpt>
      <trkpt lat="49.34049" lon="-0.52055">
        <ele>27.2</ele>
        <time>2023-05-17T20:56:08Z</time>
      </trkpt>
      <trkpt lat="49.34032" lon="-0.52073">
        <ele>28</ele>
        <time>2023-05-17T20:56:13Z</time>
      </trkpt>
      <trkpt lat="49.34014" lon="-0.52091">
        <ele>28.8</ele>
        <time>2023-05-17T20:56:18Z</time>
      </trkpt>
      <trkpt lat="49.33999" lon="-0.52109">
        <ele>29.5</ele>
        <time>2023-05-17T20:56:23Z</time>
      </trkpt>
      <trkpt lat="49.33984" lon="-0.52128">
        <ele>30.1</ele>
        <time>2023-05-17T20:56:28Z</time>
      </trkpt>
      <trkpt lat="49.3397" lon="-0.52149">
        <ele>30.6</ele>
        <time>2023-05-17T20:56:33Z</time>
      </trkpt>
      <trkpt lat="49.33956" lon="-0.52172">
        <ele>30.9</ele>
        <time>2023-05-17T20:56:38Z</time>
      </trkpt>
      <trkpt lat="49.33943" lon="-0.52194">
        <ele>31.1</ele>
        <time>2023-05-17T20:56:43Z</time>
      </trkpt>
      <trkpt lat="49.33941" lon="-0.52222">
        <ele>31</ele>
        <time>2023-05-17T20:56:48Z</time>
      </trkpt>
      <trkpt lat="49.33948" lon="-0.52249">
        <ele>30.6</ele>
        <time>2023-05-17T20:56:52Z</time>
      </trkpt>
      <trkpt lat="49.33957" lon="-0.52279">
        <ele>30.1</ele>
        <time>2023-05-17T20:56:56Z</time>
      </trkpt>
      <trkpt lat="49.33967" lon="-0.5231">
        <ele>29.6</ele>
        <time>2023-05-17T20:57:00Z</time>
      </trkpt>
      <trkpt lat="49.33979" lon="-0.52341">
        <ele>29.3</ele>
        <time>2023-05-17T20:57:04Z</time>
      </trkpt>
      <trkpt lat="49.33991" lon="-0.52373">
        <ele>28.8</ele>
        <time>2023-05-17T20:57:08Z</time>
      </trkpt>
      <trkpt lat="49.34001" lon="-0.52397">
        <ele>28.3</ele>
        <time>2023-05-17T20:57:11Z</time>
      </trkpt>
      <trkpt lat="49.3401" lon="-0.52423">
        <ele>27.8</ele>
        <time>2023-05-17T20:57:14Z</time>
      </trkpt>
      <trkpt lat="49.34018" lon="-0.5245">
        <ele>27.5</ele>
        <time>2023-05-17T20:57:17Z</time>
      </trkpt>
      <trkpt lat="49.34025" lon="-0.52479">
        <ele>27.3</ele>
        <time>2023-05-17T20:57:20Z</time>
      </trkpt>
      <trkpt lat="49.34031" lon="-0.52509">
        <ele>27.2</ele>
        <time>2023-05-17T20:57:23Z</time>
      </trkpt>
      <trkpt lat="49.34035" lon="-0.52538">
        <ele>27.3</ele>
        <time>2023-05-17T20:57:26Z</time>
      </trkpt>
      <trkpt lat="49.34038" lon="-0.52566">
        <ele>27.4</ele>
        <time>2023-05-17T20:57:29Z</time>
      </trkpt>
      <trkpt lat="49.34042" lon="-0.52601">
        <ele>27.6</ele>
        <time>2023-05-17T20:57:33Z</time>
      </trkpt>
      <trkpt lat="49.34049" lon="-0.52635">
        <ele>27.5</ele>
        <time>2023-05-17T20:57:37Z</time>
      </trkpt>
      <trkpt lat="49.34059" lon="-0.52664">
        <ele>27.2</ele>
        <time>2023-05-17T20:57:41Z</time>
      </trkpt>
      <trkpt lat="49.34073" lon="-0.52692">
        <ele>26.4</ele>
        <time>2023-05-17T20:57:45Z</time>
      </trkpt>
      <trkpt lat="49.34083" lon="-0.52716">
        <ele>25.3</ele>
        <time>2023-05-17T20:57:49Z</time>
      </trkpt>
      <trkpt lat="49.34099" lon="-0.52731">
        <ele>23.2</ele>
        <time>2023-05-17T20:57:53Z</time>
      </trkpt>
      <trkpt lat="49.34117" lon="-0.52735">
        <ele>21.5</ele>
        <time>2023-05-17T20:57:56Z</time>
      </trkpt>
      <trkpt lat="49.34138" lon="-0.52739">
        <ele>19.4</ele>
        <time>2023-05-17T20:58:00Z</time>
      </trkpt>
      <trkpt lat="49.34159" lon="-0.52743">
        <ele>17.5</ele>
        <time>2023-05-17T20:58:07Z</time>
      </trkpt>
      <trkpt lat="49.34164" lon="-0.52775">
        <ele>17</ele>
        <time>2023-05-17T20:58:14Z</time>
      </trkpt>
      <trkpt lat="49.34159" lon="-0.52806">
        <ele>17.3</ele>
        <time>2023-05-17T20:58:18Z</time>
      </trkpt>
      <trkpt lat="49.34153" lon="-0.52838">
        <ele>17.5</ele>
        <time>2023-05-17T20:58:22Z</time>
      </trkpt>
      <trkpt lat="49.34147" lon="-0.52874">
        <ele>17.7</ele>
        <time>2023-05-17T20:58:26Z</time>
      </trkpt>
      <trkpt lat="49.34141" lon="-0.52901">
        <ele>17.9</ele>
        <time>2023-05-17T20:58:29Z</time>
      </trkpt>
      <trkpt lat="49.34135" lon="-0.52936">
        <ele>18.2</ele>
        <time>2023-05-17T20:58:33Z</time>
      </trkpt>
      <trkpt lat="49.3413" lon="-0.52964">
        <ele>18.4</ele>
        <time>2023-05-17T20:58:36Z</time>
      </trkpt>
      <trkpt lat="49.34124" lon="-0.52999">
        <ele>18.8</ele>
        <time>2023-05-17T20:58:40Z</time>
      </trkpt>
      <trkpt lat="49.34119" lon="-0.53033">
        <ele>19.1</ele>
        <time>2023-05-17T20:58:44Z</time>
      </trkpt>
      <trkpt lat="49.34114" lon="-0.53069">
        <ele>19.4</ele>
        <time>2023-05-17T20:58:48Z</time>
      </trkpt>
      <trkpt lat="49.3411" lon="-0.53096">
        <ele>19.6</ele>
        <time>2023-05-17T20:58:51Z</time>
      </trkpt>
      <trkpt lat="49.34106" lon="-0.53124">
        <ele>19.8</ele>
        <time>2023-05-17T20:58:54Z</time>
      </trkpt>
      <trkpt lat="49.34103" lon="-0.53151">
        <ele>20</ele>
        <time>2023-05-17T20:58:57Z</time>
      </trkpt>
      <trkpt lat="49.34099" lon="-0.53179">
        <ele>20.1</ele>
        <time>2023-05-17T20:59:00Z</time>
      </trkpt>
      <trkpt lat="49.34096" lon="-0.53207">
        <ele>20.3</ele>
        <time>2023-05-17T20:59:03Z</time>
      </trkpt>
      <trkpt lat="49.34092" lon="-0.53236">
        <ele>20.5</ele>
        <time>2023-05-17T20:59:06Z</time>
      </trkpt>
      <trkpt lat="49.34089" lon="-0.53266">
        <ele>20.7</ele>
        <time>2023-05-17T20:59:09Z</time>
      </trkpt>
      <trkpt lat="49.34086" lon="-0.53295">
        <ele>20.8</ele>
        <time>2023-05-17T20:59:12Z</time>
      </trkpt>
      <trkpt lat="49.34083" lon="-0.53325">
        <ele>21</ele>
        <time>2023-05-17T20:59:15Z</time>
      </trkpt>
      <trkpt lat="49.3408" lon="-0.53354">
        <ele>21.1</ele>
        <time>2023-05-17T20:59:18Z</time>
      </trkpt>
      <trkpt lat="49.34077" lon="-0.53382">
        <ele>21.1</ele>
        <time>2023-05-17T20:59:21Z</time>
      </trkpt>
      <trkpt lat="49.34074" lon="-0.5341">
        <ele>21.1</ele>
        <time>2023-05-17T20:59:24Z</time>
      </trkpt>
      <trkpt lat="49.3407" lon="-0.53439">
        <ele>21.1</ele>
        <time>2023-05-17T20:59:27Z</time>
      </trkpt>
      <trkpt lat="49.34067" lon="-0.5347">
        <ele>21.1</ele>
        <time>2023-05-17T20:59:30Z</time>
      </trkpt>
      <trkpt lat="49.34063" lon="-0.53502">
        <ele>21</ele>
        <time>2023-05-17T20:59:33Z</time>
      </trkpt>
      <trkpt lat="49.3406" lon="-0.53532">
        <ele>21</ele>
        <time>2023-05-17T20:59:36Z</time>
      </trkpt>
      <trkpt lat="49.34058" lon="-0.53563">
        <ele>20.9</ele>
        <time>2023-05-17T20:59:39Z</time>
      </trkpt>
      <trkpt lat="49.34054" lon="-0.53594">
        <ele>20.8</ele>
        <time>2023-05-17T20:59:42Z</time>
      </trkpt>
      <trkpt lat="49.3405" lon="-0.53624">
        <ele>20.7</ele>
        <time>2023-05-17T20:59:45Z</time>
      </trkpt>
      <trkpt lat="49.34046" lon="-0.53656">
        <ele>20.6</ele>
        <time>2023-05-17T20:59:48Z</time>
      </trkpt>
      <trkpt lat="49.34043" lon="-0.53687">
        <ele>20.5</ele>
        <time>2023-05-17T20:59:51Z</time>
      </trkpt>
      <trkpt lat="49.34039" lon="-0.53719">
        <ele>20.3</ele>
        <time>2023-05-17T20:59:54Z</time>
      </trkpt>
      <trkpt lat="49.34036" lon="-0.53751">
        <ele>20.1</ele>
        <time>2023-05-17T20:59:57Z</time>
      </trkpt>
      <trkpt lat="49.34033" lon="-0.53783">
        <ele>19.9</ele>
        <time>2023-05-17T21:00:00Z</time>
      </trkpt>
      <trkpt lat="49.34029" lon="-0.53815">
        <ele>19.8</ele>
        <time>2023-05-17T21:00:03Z</time>
      </trkpt>
      <trkpt lat="49.34025" lon="-0.53848">
        <ele>19.5</ele>
        <time>2023-05-17T21:00:06Z</time>
      </trkpt>
      <trkpt lat="49.34021" lon="-0.5388">
        <ele>19.3</ele>
        <time>2023-05-17T21:00:09Z</time>
      </trkpt>
      <trkpt lat="49.34018" lon="-0.53913">
        <ele>19.1</ele>
        <time>2023-05-17T21:00:12Z</time>
      </trkpt>
      <trkpt lat="49.34015" lon="-0.53946">
        <ele>19</ele>
        <time>2023-05-17T21:00:15Z</time>
      </trkpt>
      <trkpt lat="49.34012" lon="-0.53979">
        <ele>18.8</ele>
        <time>2023-05-17T21:00:18Z</time>
      </trkpt>
      <trkpt lat="49.34007" lon="-0.54012">
        <ele>18.6</ele>
        <time>2023-05-17T21:00:21Z</time>
      </trkpt>
      <trkpt lat="49.34003" lon="-0.54044">
        <ele>18.4</ele>
        <time>2023-05-17T21:00:24Z</time>
      </trkpt>
      <trkpt lat="49.33999" lon="-0.54077">
        <ele>18.2</ele>
        <time>2023-05-17T21:00:27Z</time>
      </trkpt>
      <trkpt lat="49.33996" lon="-0.5411">
        <ele>18</ele>
        <time>2023-05-17T21:00:30Z</time>
      </trkpt>
      <trkpt lat="49.33993" lon="-0.54144">
        <ele>17.9</ele>
        <time>2023-05-17T21:00:33Z</time>
      </trkpt>
      <trkpt lat="49.33989" lon="-0.54177">
        <ele>17.7</ele>
        <time>2023-05-17T21:00:36Z</time>
      </trkpt>
      <trkpt lat="49.33985" lon="-0.54211">
        <ele>17.6</ele>
        <time>2023-05-17T21:00:39Z</time>
      </trkpt>
      <trkpt lat="49.33982" lon="-0.54245">
        <ele>17.4</ele>
        <time>2023-05-17T21:00:42Z</time>
      </trkpt>
      <trkpt lat="49.33978" lon="-0.54279">
        <ele>17.1</ele>
        <time>2023-05-17T21:00:45Z</time>
      </trkpt>
      <trkpt lat="49.33974" lon="-0.54313">
        <ele>17</ele>
        <time>2023-05-17T21:00:48Z</time>
      </trkpt>
      <trkpt lat="49.33971" lon="-0.54346">
        <ele>16.9</ele>
        <time>2023-05-17T21:00:51Z</time>
      </trkpt>
      <trkpt lat="49.33967" lon="-0.54378">
        <ele>16.9</ele>
        <time>2023-05-17T21:00:54Z</time>
      </trkpt>
      <trkpt lat="49.33963" lon="-0.54412">
        <ele>16.7</ele>
        <time>2023-05-17T21:00:57Z</time>
      </trkpt>
      <trkpt lat="49.33959" lon="-0.54446">
        <ele>16.5</ele>
        <time>2023-05-17T21:01:00Z</time>
      </trkpt>
      <trkpt lat="49.33957" lon="-0.54479">
        <ele>16.3</ele>
        <time>2023-05-17T21:01:03Z</time>
      </trkpt>
      <trkpt lat="49.33953" lon="-0.54511">
        <ele>16.2</ele>
        <time>2023-05-17T21:01:06Z</time>
      </trkpt>
      <trkpt lat="49.33949" lon="-0.54544">
        <ele>16.1</ele>
        <time>2023-05-17T21:01:09Z</time>
      </trkpt>
      <trkpt lat="49.33946" lon="-0.54577">
        <ele>15.9</ele>
        <time>2023-05-17T21:01:12Z</time>
      </trkpt>
      <trkpt lat="49.33942" lon="-0.5461">
        <ele>15.7</ele>
        <time>2023-05-17T21:01:15Z</time>
      </trkpt>
      <trkpt lat="49.33939" lon="-0.54643">
        <ele>15.6</ele>
        <time>2023-05-17T21:01:18Z</time>
      </trkpt>
      <trkpt lat="49.33935" lon="-0.54676">
        <ele>15.5</ele>
        <time>2023-05-17T21:01:21Z</time>
      </trkpt>
      <trkpt lat="49.3393" lon="-0.54708">
        <ele>15.4</ele>
        <time>2023-05-17T21:01:24Z</time>
      </trkpt>
      <trkpt lat="49.33926" lon="-0.54742">
        <ele>15.2</ele>
        <time>2023-05-17T21:01:27Z</time>
      </trkpt>
      <trkpt lat="49.33923" lon="-0.54774">
        <ele>15.1</ele>
        <time>2023-05-17T21:01:30Z</time>
      </trkpt>
      <trkpt lat="49.3392" lon="-0.54808">
        <ele>15</ele>
        <time>2023-05-17T21:01:33Z</time>
      </trkpt>
      <trkpt lat="49.33915" lon="-0.54841">
        <ele>14.8</ele>
        <time>2023-05-17T21:01:36Z</time>
      </trkpt>
      <trkpt lat="49.33912" lon="-0.54875">
        <ele>14.6</ele>
        <time>2023-05-17T21:01:39Z</time>
      </trkpt>
      <trkpt lat="49.33908" lon="-0.54908">
        <ele>14.4</ele>
        <time>2023-05-17T21:01:42Z</time>
      </trkpt>
      <trkpt lat="49.33905" lon="-0.5494">
        <ele>14.3</ele>
        <time>2023-05-17T21:01:45Z</time>
      </trkpt>
      <trkpt lat="49.33901" lon="-0.54973">
        <ele>14</ele>
        <time>2023-05-17T21:01:48Z</time>
      </trkpt>
      <trkpt lat="49.33898" lon="-0.55006">
        <ele>13.8</ele>
        <time>2023-05-17T21:01:51Z</time>
      </trkpt>
      <trkpt lat="49.33894" lon="-0.55039">
        <ele>13.6</ele>
        <time>2023-05-17T21:01:54Z</time>
      </trkpt>
      <trkpt lat="49.3389" lon="-0.55073">
        <ele>13.4</ele>
        <time>2023-05-17T21:01:57Z</time>
      </trkpt>
      <trkpt lat="49.33886" lon="-0.55106">
        <ele>13.2</ele>
        <time>2023-05-17T21:02:00Z</time>
      </trkpt>
      <trkpt lat="49.33883" lon="-0.55139">
        <ele>13</ele>
        <time>2023-05-17T21:02:03Z</time>
      </trkpt>
      <trkpt lat="49.3388" lon="-0.55173">
        <ele>12.8</ele>
        <time>2023-05-17T21:02:06Z</time>
      </trkpt>
      <trkpt lat="49.33876" lon="-0.55206">
        <ele>12.6</ele>
        <time>2023-05-17T21:02:09Z</time>
      </trkpt>
      <trkpt lat="49.33872" lon="-0.55239">
        <ele>12.5</ele>
        <time>2023-05-17T21:02:12Z</time>
      </trkpt>
      <trkpt lat="49.33868" lon="-0.55273">
        <ele>12.3</ele>
        <time>2023-05-17T21:02:15Z</time>
      </trkpt>
      <trkpt lat="49.33865" lon="-0.55306">
        <ele>12.1</ele>
        <time>2023-05-17T21:02:18Z</time>
      </trkpt>
      <trkpt lat="49.33861" lon="-0.55339">
        <ele>12</ele>
        <time>2023-05-17T21:02:21Z</time>
      </trkpt>
      <trkpt lat="49.33857" lon="-0.55372">
        <ele>11.8</ele>
        <time>2023-05-17T21:02:24Z</time>
      </trkpt>
      <trkpt lat="49.33854" lon="-0.55406">
        <ele>11.6</ele>
        <time>2023-05-17T21:02:27Z</time>
      </trkpt>
      <trkpt lat="49.3385" lon="-0.55439">
        <ele>11.5</ele>
        <time>2023-05-17T21:02:30Z</time>
      </trkpt>
      <trkpt lat="49.33846" lon="-0.55473">
        <ele>11.3</ele>
        <time>2023-05-17T21:02:33Z</time>
      </trkpt>
      <trkpt lat="49.33843" lon="-0.55506">
        <ele>11.2</ele>
        <time>2023-05-17T21:02:36Z</time>
      </trkpt>
      <trkpt lat="49.33839" lon="-0.55539">
        <ele>11</ele>
        <time>2023-05-17T21:02:39Z</time>
      </trkpt>
      <trkpt lat="49.33835" lon="-0.55572">
        <ele>10.7</ele>
        <time>2023-05-17T21:02:42Z</time>
      </trkpt>
      <trkpt lat="49.33831" lon="-0.55605">
        <ele>10.5</ele>
        <time>2023-05-17T21:02:45Z</time>
      </trkpt>
      <trkpt lat="49.33828" lon="-0.55638">
        <ele>10.2</ele>
        <time>2023-05-17T21:02:48Z</time>
      </trkpt>
      <trkpt lat="49.33824" lon="-0.55672">
        <ele>10</ele>
        <time>2023-05-17T21:02:51Z</time>
      </trkpt>
      <trkpt lat="49.3382" lon="-0.55705">
        <ele>9.8</ele>
        <time>2023-05-17T21:02:54Z</time>
      </trkpt>
      <trkpt lat="49.33817" lon="-0.55738">
        <ele>9.5</ele>
        <time>2023-05-17T21:02:57Z</time>
      </trkpt>
      <trkpt lat="49.33813" lon="-0.55771">
        <ele>9.2</ele>
        <time>2023-05-17T21:03:00Z</time>
      </trkpt>
      <trkpt lat="49.3381" lon="-0.55805">
        <ele>8.9</ele>
        <time>2023-05-17T21:03:03Z</time>
      </trkpt>
      <trkpt lat="49.33807" lon="-0.5584">
        <ele>8.7</ele>
        <time>2023-05-17T21:03:06Z</time>
      </trkpt>
      <trkpt lat="49.33804" lon="-0.55874">
        <ele>8.4</ele>
        <time>2023-05-17T21:03:09Z</time>
      </trkpt>
      <trkpt lat="49.33801" lon="-0.55908">
        <ele>8.2</ele>
        <time>2023-05-17T21:03:12Z</time>
      </trkpt>
      <trkpt lat="49.33798" lon="-0.55943">
        <ele>7.9</ele>
        <time>2023-05-17T21:03:15Z</time>
      </trkpt>
      <trkpt lat="49.33795" lon="-0.55977">
        <ele>7.6</ele>
        <time>2023-05-17T21:03:18Z</time>
      </trkpt>
      <trkpt lat="49.33793" lon="-0.56011">
        <ele>7.3</ele>
        <time>2023-05-17T21:03:21Z</time>
      </trkpt>
      <trkpt lat="49.3379" lon="-0.56045">
        <ele>7.1</ele>
        <time>2023-05-17T21:03:24Z</time>
      </trkpt>
      <trkpt lat="49.33789" lon="-0.56079">
        <ele>6.9</ele>
        <time>2023-05-17T21:03:27Z</time>
      </trkpt>
      <trkpt lat="49.33788" lon="-0.56115">
        <ele>6.6</ele>
        <time>2023-05-17T21:03:30Z</time>
      </trkpt>
      <trkpt lat="49.33787" lon="-0.56149">
        <ele>6.3</ele>
        <time>2023-05-17T21:03:33Z</time>
      </trkpt>
      <trkpt lat="49.33786" lon="-0.56184">
        <ele>6.2</ele>
        <time>2023-05-17T21:03:36Z</time>
      </trkpt>
      <trkpt lat="49.33786" lon="-0.56216">
        <ele>6.1</ele>
        <time>2023-05-17T21:03:39Z</time>
      </trkpt>
      <trkpt lat="49.33785" lon="-0.56247">
        <ele>6</ele>
        <time>2023-05-17T21:03:42Z</time>
      </trkpt>
      <trkpt lat="49.33784" lon="-0.56278">
        <ele>5.9</ele>
        <time>2023-05-17T21:03:45Z</time>
      </trkpt>
      <trkpt lat="49.33783" lon="-0.5631">
        <ele>5.8</ele>
        <time>2023-05-17T21:03:48Z</time>
      </trkpt>
      <trkpt lat="49.33783" lon="-0.56344">
        <ele>5.7</ele>
        <time>2023-05-17T21:03:51Z</time>
      </trkpt>
      <trkpt lat="49.33784" lon="-0.56375">
        <ele>5.6</ele>
        <time>2023-05-17T21:03:54Z</time>
      </trkpt>
      <trkpt lat="49.33784" lon="-0.56408">
        <ele>5.4</ele>
        <time>2023-05-17T21:03:57Z</time>
      </trkpt>
      <trkpt lat="49.33785" lon="-0.56441">
        <ele>5.3</ele>
        <time>2023-05-17T21:04:00Z</time>
      </trkpt>
      <trkpt lat="49.33785" lon="-0.56475">
        <ele>5.3</ele>
        <time>2023-05-17T21:04:03Z</time>
      </trkpt>
      <trkpt lat="49.33787" lon="-0.56509">
        <ele>5.2</ele>
        <time>2023-05-17T21:04:06Z</time>
      </trkpt>
      <trkpt lat="49.33788" lon="-0.56542">
        <ele>5.2</ele>
        <time>2023-05-17T21:04:09Z</time>
      </trkpt>
      <trkpt lat="49.3379" lon="-0.56576">
        <ele>5.2</ele>
        <time>2023-05-17T21:04:12Z</time>
      </trkpt>
      <trkpt lat="49.33791" lon="-0.56609">
        <ele>5</ele>
        <time>2023-05-17T21:04:15Z</time>
      </trkpt>
      <trkpt lat="49.33792" lon="-0.56642">
        <ele>4.9</ele>
        <time>2023-05-17T21:04:18Z</time>
      </trkpt>
      <trkpt lat="49.33795" lon="-0.56674">
        <ele>4.9</ele>
        <time>2023-05-17T21:04:21Z</time>
      </trkpt>
      <trkpt lat="49.33796" lon="-0.56707">
        <ele>4.9</ele>
        <time>2023-05-17T21:04:24Z</time>
      </trkpt>
      <trkpt lat="49.33799" lon="-0.5674">
        <ele>4.9</ele>
        <time>2023-05-17T21:04:27Z</time>
      </trkpt>
      <trkpt lat="49.33802" lon="-0.56772">
        <ele>4.8</ele>
        <time>2023-05-17T21:04:30Z</time>
      </trkpt>
      <trkpt lat="49.33805" lon="-0.56804">
        <ele>4.8</ele>
        <time>2023-05-17T21:04:33Z</time>
      </trkpt>
      <trkpt lat="49.33809" lon="-0.56834">
        <ele>4.7</ele>
        <time>2023-05-17T21:04:36Z</time>
      </trkpt>
      <trkpt lat="49.33812" lon="-0.56865">
        <ele>4.7</ele>
        <time>2023-05-17T21:04:39Z</time>
      </trkpt>
      <trkpt lat="49.33815" lon="-0.56896">
        <ele>4.7</ele>
        <time>2023-05-17T21:04:42Z</time>
      </trkpt>
      <trkpt lat="49.33818" lon="-0.56929">
        <ele>4.8</ele>
        <time>2023-05-17T21:04:45Z</time>
      </trkpt>
      <trkpt lat="49.33821" lon="-0.5696">
        <ele>4.8</ele>
        <time>2023-05-17T21:04:48Z</time>
      </trkpt>
      <trkpt lat="49.33824" lon="-0.56993">
        <ele>4.7</ele>
        <time>2023-05-17T21:04:51Z</time>
      </trkpt>
      <trkpt lat="49.33826" lon="-0.57025">
        <ele>4.7</ele>
        <time>2023-05-17T21:04:54Z</time>
      </trkpt>
      <trkpt lat="49.3383" lon="-0.57058">
        <ele>4.7</ele>
        <time>2023-05-17T21:04:57Z</time>
      </trkpt>
      <trkpt lat="49.33833" lon="-0.5709">
        <ele>4.8</ele>
        <time>2023-05-17T21:05:00Z</time>
      </trkpt>
      <trkpt lat="49.33836" lon="-0.57121">
        <ele>4.9</ele>
        <time>2023-05-17T21:05:03Z</time>
      </trkpt>
      <trkpt lat="49.33838" lon="-0.57152">
        <ele>5</ele>
        <time>2023-05-17T21:05:06Z</time>
      </trkpt>
      <trkpt lat="49.33841" lon="-0.57183">
        <ele>5.1</ele>
        <time>2023-05-17T21:05:09Z</time>
      </trkpt>
      <trkpt lat="49.33845" lon="-0.57215">
        <ele>5.2</ele>
        <time>2023-05-17T21:05:12Z</time>
      </trkpt>
      <trkpt lat="49.33847" lon="-0.57245">
        <ele>5.3</ele>
        <time>2023-05-17T21:05:15Z</time>
      </trkpt>
      <trkpt lat="49.3385" lon="-0.57275">
        <ele>5.4</ele>
        <time>2023-05-17T21:05:18Z</time>
      </trkpt>
      <trkpt lat="49.33853" lon="-0.57306">
        <ele>5.5</ele>
        <time>2023-05-17T21:05:21Z</time>
      </trkpt>
      <trkpt lat="49.33856" lon="-0.57336">
        <ele>5.6</ele>
        <time>2023-05-17T21:05:24Z</time>
      </trkpt>
      <trkpt lat="49.33858" lon="-0.57366">
        <ele>5.7</ele>
        <time>2023-05-17T21:05:27Z</time>
      </trkpt>
      <trkpt lat="49.33861" lon="-0.57395">
        <ele>5.8</ele>
        <time>2023-05-17T21:05:30Z</time>
      </trkpt>
      <trkpt lat="49.33864" lon="-0.57425">
        <ele>5.9</ele>
        <time>2023-05-17T21:05:33Z</time>
      </trkpt>
      <trkpt lat="49.33868" lon="-0.57455">
        <ele>6</ele>
        <time>2023-05-17T21:05:36Z</time>
      </trkpt>
      <trkpt lat="49.33871" lon="-0.57485">
        <ele>6.1</ele>
        <time>2023-05-17T21:05:39Z</time>
      </trkpt>
      <trkpt lat="49.33873" lon="-0.57515">
        <ele>6</ele>
        <time>2023-05-17T21:05:42Z</time>
      </trkpt>
      <trkpt lat="49.33876" lon="-0.57545">
        <ele>6</ele>
        <time>2023-05-17T21:05:45Z</time>
      </trkpt>
      <trkpt lat="49.33878" lon="-0.57574">
        <ele>5.9</ele>
        <time>2023-05-17T21:05:48Z</time>
      </trkpt>
      <trkpt lat="49.33882" lon="-0.57604">
        <ele>5.8</ele>
        <time>2023-05-17T21:05:51Z</time>
      </trkpt>
      <trkpt lat="49.33883" lon="-0.57635">
        <ele>5.8</ele>
        <time>2023-05-17T21:05:54Z</time>
      </trkpt>
      <trkpt lat="49.33887" lon="-0.57666">
        <ele>5.7</ele>
        <time>2023-05-17T21:05:57Z</time>
      </trkpt>
      <trkpt lat="49.33891" lon="-0.57698">
        <ele>5.6</ele>
        <time>2023-05-17T21:06:00Z</time>
      </trkpt>
      <trkpt lat="49.33895" lon="-0.57728">
        <ele>5.5</ele>
        <time>2023-05-17T21:06:03Z</time>
      </trkpt>
      <trkpt lat="49.33897" lon="-0.57759">
        <ele>5.4</ele>
        <time>2023-05-17T21:06:06Z</time>
      </trkpt>
      <trkpt lat="49.339" lon="-0.57793">
        <ele>5.3</ele>
        <time>2023-05-17T21:06:09Z</time>
      </trkpt>
      <trkpt lat="49.33903" lon="-0.57825">
        <ele>5.2</ele>
        <time>2023-05-17T21:06:12Z</time>
      </trkpt>
      <trkpt lat="49.33907" lon="-0.57857">
        <ele>5</ele>
        <time>2023-05-17T21:06:15Z</time>
      </trkpt>
      <trkpt lat="49.33909" lon="-0.5789">
        <ele>4.9</ele>
        <time>2023-05-17T21:06:18Z</time>
      </trkpt>
      <trkpt lat="49.33912" lon="-0.57922">
        <ele>4.8</ele>
        <time>2023-05-17T21:06:21Z</time>
      </trkpt>
      <trkpt lat="49.33914" lon="-0.57955">
        <ele>4.6</ele>
        <time>2023-05-17T21:06:24Z</time>
      </trkpt>
      <trkpt lat="49.33917" lon="-0.57986">
        <ele>4.5</ele>
        <time>2023-05-17T21:06:27Z</time>
      </trkpt>
      <trkpt lat="49.3392" lon="-0.58017">
        <ele>4.4</ele>
        <time>2023-05-17T21:06:30Z</time>
      </trkpt>
      <trkpt lat="49.33924" lon="-0.58048">
        <ele>4.2</ele>
        <time>2023-05-17T21:06:33Z</time>
      </trkpt>
      <trkpt lat="49.33926" lon="-0.58081">
        <ele>3.9</ele>
        <time>2023-05-17T21:06:36Z</time>
      </trkpt>
      <trkpt lat="49.33928" lon="-0.58116">
        <ele>3.7</ele>
        <time>2023-05-17T21:06:39Z</time>
      </trkpt>
      <trkpt lat="49.33932" lon="-0.58148">
        <ele>3.6</ele>
        <time>2023-05-17T21:06:42Z</time>
      </trkpt>
      <trkpt lat="49.33936" lon="-0.5818">
        <ele>3.5</ele>
        <time>2023-05-17T21:06:45Z</time>
      </trkpt>
      <trkpt lat="49.3394" lon="-0.58213">
        <ele>3.4</ele>
        <time>2023-05-17T21:06:48Z</time>
      </trkpt>
      <trkpt lat="49.33943" lon="-0.58245">
        <ele>3.4</ele>
        <time>2023-05-17T21:06:51Z</time>
      </trkpt>
      <trkpt lat="49.33946" lon="-0.58276">
        <ele>3.4</ele>
        <time>2023-05-17T21:06:54Z</time>
      </trkpt>
      <trkpt lat="49.33949" lon="-0.58306">
        <ele>3.4</ele>
        <time>2023-05-17T21:06:57Z</time>
      </trkpt>
      <trkpt lat="49.33952" lon="-0.58338">
        <ele>3.5</ele>
        <time>2023-05-17T21:07:00Z</time>
      </trkpt>
      <trkpt lat="49.33955" lon="-0.58369">
        <ele>3.6</ele>
        <time>2023-05-17T21:07:03Z</time>
      </trkpt>
      <trkpt lat="49.33957" lon="-0.58399">
        <ele>3.7</ele>
        <time>2023-05-17T21:07:06Z</time>
      </trkpt>
      <trkpt lat="49.3396" lon="-0.58429">
        <ele>3.7</ele>
        <time>2023-05-17T21:07:09Z</time>
      </trkpt>
      <trkpt lat="49.33963" lon="-0.58457">
        <ele>3.8</ele>
        <time>2023-05-17T21:07:12Z</time>
      </trkpt>
      <trkpt lat="49.33965" lon="-0.58486">
        <ele>4</ele>
        <time>2023-05-17T21:07:15Z</time>
      </trkpt>
      <trkpt lat="49.33969" lon="-0.58514">
        <ele>4.2</ele>
        <time>2023-05-17T21:07:18Z</time>
      </trkpt>
      <trkpt lat="49.33972" lon="-0.58542">
        <ele>4.3</ele>
        <time>2023-05-17T21:07:21Z</time>
      </trkpt>
      <trkpt lat="49.33974" lon="-0.5857">
        <ele>4.5</ele>
        <time>2023-05-17T21:07:24Z</time>
      </trkpt>
      <trkpt lat="49.33977" lon="-0.58605">
        <ele>4.6</ele>
        <time>2023-05-17T21:07:28Z</time>
      </trkpt>
      <trkpt lat="49.3398" lon="-0.58632">
        <ele>4.7</ele>
        <time>2023-05-17T21:07:31Z</time>
      </trkpt>
      <trkpt lat="49.33981" lon="-0.58661">
        <ele>4.8</ele>
        <time>2023-05-17T21:07:34Z</time>
      </trkpt>
      <trkpt lat="49.33981" lon="-0.58688">
        <ele>4.8</ele>
        <time>2023-05-17T21:07:37Z</time>
      </trkpt>
      <trkpt lat="49.3398" lon="-0.58726">
        <ele>4.8</ele>
        <time>2023-05-17T21:07:41Z</time>
      </trkpt>
      <trkpt lat="49.33979" lon="-0.58756">
        <ele>4.8</ele>
        <time>2023-05-17T21:07:44Z</time>
      </trkpt>
      <trkpt lat="49.33981" lon="-0.58787">
        <ele>4.8</ele>
        <time>2023-05-17T21:07:47Z</time>
      </trkpt>
      <trkpt lat="49.33982" lon="-0.58817">
        <ele>4.9</ele>
        <time>2023-05-17T21:07:50Z</time>
      </trkpt>
      <trkpt lat="49.33981" lon="-0.58848">
        <ele>4.9</ele>
        <time>2023-05-17T21:07:53Z</time>
      </trkpt>
      <trkpt lat="49.33982" lon="-0.58879">
        <ele>4.9</ele>
        <time>2023-05-17T21:07:56Z</time>
      </trkpt>
      <trkpt lat="49.33983" lon="-0.58911">
        <ele>4.8</ele>
        <time>2023-05-17T21:07:59Z</time>
      </trkpt>
      <trkpt lat="49.33984" lon="-0.58942">
        <ele>4.7</ele>
        <time>2023-05-17T21:08:02Z</time>
      </trkpt>
      <trkpt lat="49.33984" lon="-0.58973">
        <ele>4.7</ele>
        <time>2023-05-17T21:08:05Z</time>
      </trkpt>
      <trkpt lat="49.33985" lon="-0.59005">
        <ele>4.6</ele>
        <time>2023-05-17T21:08:08Z</time>
      </trkpt>
      <trkpt lat="49.33986" lon="-0.59037">
        <ele>4.6</ele>
        <time>2023-05-17T21:08:11Z</time>
      </trkpt>
      <trkpt lat="49.33987" lon="-0.5907">
        <ele>4.5</ele>
        <time>2023-05-17T21:08:14Z</time>
      </trkpt>
      <trkpt lat="49.33987" lon="-0.59101">
        <ele>4.5</ele>
        <time>2023-05-17T21:08:17Z</time>
      </trkpt>
      <trkpt lat="49.33988" lon="-0.59131">
        <ele>4.5</ele>
        <time>2023-05-17T21:08:20Z</time>
      </trkpt>
      <trkpt lat="49.33989" lon="-0.59161">
        <ele>4.5</ele>
        <time>2023-05-17T21:08:23Z</time>
      </trkpt>
      <trkpt lat="49.3399" lon="-0.59191">
        <ele>4.5</ele>
        <time>2023-05-17T21:08:26Z</time>
      </trkpt>
      <trkpt lat="49.3399" lon="-0.5922">
        <ele>4.5</ele>
        <time>2023-05-17T21:08:29Z</time>
      </trkpt>
      <trkpt lat="49.33991" lon="-0.59249">
        <ele>4.6</ele>
        <time>2023-05-17T21:08:32Z</time>
      </trkpt>
      <trkpt lat="49.3399" lon="-0.59279">
        <ele>4.6</ele>
        <time>2023-05-17T21:08:35Z</time>
      </trkpt>
      <trkpt lat="49.33991" lon="-0.59307">
        <ele>4.6</ele>
        <time>2023-05-17T21:08:38Z</time>
      </trkpt>
      <trkpt lat="49.33989" lon="-0.59336">
        <ele>4.7</ele>
        <time>2023-05-17T21:08:41Z</time>
      </trkpt>
      <trkpt lat="49.33988" lon="-0.59364">
        <ele>4.7</ele>
        <time>2023-05-17T21:08:44Z</time>
      </trkpt>
      <trkpt lat="49.33987" lon="-0.59393">
        <ele>4.7</ele>
        <time>2023-05-17T21:08:47Z</time>
      </trkpt>
      <trkpt lat="49.33986" lon="-0.59422">
        <ele>4.8</ele>
        <time>2023-05-17T21:08:50Z</time>
      </trkpt>
      <trkpt lat="49.33983" lon="-0.59452">
        <ele>4.8</ele>
        <time>2023-05-17T21:08:53Z</time>
      </trkpt>
      <trkpt lat="49.3398" lon="-0.59483">
        <ele>4.9</ele>
        <time>2023-05-17T21:08:56Z</time>
      </trkpt>
      <trkpt lat="49.33974" lon="-0.59513">
        <ele>4.9</ele>
        <time>2023-05-17T21:08:59Z</time>
      </trkpt>
      <trkpt lat="49.33969" lon="-0.59542">
        <ele>4.9</ele>
        <time>2023-05-17T21:09:02Z</time>
      </trkpt>
      <trkpt lat="49.33962" lon="-0.59571">
        <ele>5</ele>
        <time>2023-05-17T21:09:05Z</time>
      </trkpt>
      <trkpt lat="49.33953" lon="-0.59597">
        <ele>5.1</ele>
        <time>2023-05-17T21:09:08Z</time>
      </trkpt>
      <trkpt lat="49.33941" lon="-0.59627">
        <ele>5.2</ele>
        <time>2023-05-17T21:09:12Z</time>
      </trkpt>
      <trkpt lat="49.33929" lon="-0.59649">
        <ele>5.2</ele>
        <time>2023-05-17T21:09:15Z</time>
      </trkpt>
      <trkpt lat="49.33918" lon="-0.59673">
        <ele>5.1</ele>
        <time>2023-05-17T21:09:18Z</time>
      </trkpt>
      <trkpt lat="49.33907" lon="-0.59697">
        <ele>4.9</ele>
        <time>2023-05-17T21:09:21Z</time>
      </trkpt>
      <trkpt lat="49.33894" lon="-0.59722">
        <ele>4.8</ele>
        <time>2023-05-17T21:09:24Z</time>
      </trkpt>
      <trkpt lat="49.33881" lon="-0.59748">
        <ele>4.8</ele>
        <time>2023-05-17T21:09:27Z</time>
      </trkpt>
      <trkpt lat="49.33869" lon="-0.59774">
        <ele>4.7</ele>
        <time>2023-05-17T21:09:30Z</time>
      </trkpt>
      <trkpt lat="49.33857" lon="-0.59801">
        <ele>4.6</ele>
        <time>2023-05-17T21:09:33Z</time>
      </trkpt>
      <trkpt lat="49.33844" lon="-0.59828">
        <ele>4.4</ele>
        <time>2023-05-17T21:09:36Z</time>
      </trkpt>
      <trkpt lat="49.33833" lon="-0.59856">
        <ele>4.3</ele>
        <time>2023-05-17T21:09:39Z</time>
      </trkpt>
      <trkpt lat="49.33823" lon="-0.59884">
        <ele>4.2</ele>
        <time>2023-05-17T21:09:42Z</time>
      </trkpt>
      <trkpt lat="49.33814" lon="-0.59912">
        <ele>4.1</ele>
        <time>2023-05-17T21:09:45Z</time>
      </trkpt>
      <trkpt lat="49.33806" lon="-0.59941">
        <ele>4.1</ele>
        <time>2023-05-17T21:09:48Z</time>
      </trkpt>
      <trkpt lat="49.33799" lon="-0.5997">
        <ele>4</ele>
        <time>2023-05-17T21:09:51Z</time>
      </trkpt>
      <trkpt lat="49.33793" lon="-0.59999">
        <ele>3.9</ele>
        <time>2023-05-17T21:09:54Z</time>
      </trkpt>
      <trkpt lat="49.33787" lon="-0.60028">
        <ele>3.9</ele>
        <time>2023-05-17T21:09:57Z</time>
      </trkpt>
      <trkpt lat="49.33783" lon="-0.60057">
        <ele>3.9</ele>
        <time>2023-05-17T21:10:00Z</time>
      </trkpt>
      <trkpt lat="49.33779" lon="-0.60086">
        <ele>3.9</ele>
        <time>2023-05-17T21:10:03Z</time>
      </trkpt>
      <trkpt lat="49.33776" lon="-0.60114">
        <ele>4</ele>
        <time>2023-05-17T21:10:06Z</time>
      </trkpt>
      <trkpt lat="49.33774" lon="-0.60143">
        <ele>4.2</ele>
        <time>2023-05-17T21:10:09Z</time>
      </trkpt>
      <trkpt lat="49.33772" lon="-0.60179">
        <ele>4.7</ele>
        <time>2023-05-17T21:10:13Z</time>
      </trkpt>
      <trkpt lat="49.33773" lon="-0.60214">
        <ele>5.4</ele>
        <time>2023-05-17T21:10:17Z</time>
      </trkpt>
      <trkpt lat="49.33773" lon="-0.60245">
        <ele>6.2</ele>
        <time>2023-05-17T21:10:21Z</time>
      </trkpt>
      <trkpt lat="49.33775" lon="-0.60275">
        <ele>7.2</ele>
        <time>2023-05-17T21:10:25Z</time>
      </trkpt>
      <trkpt lat="49.33778" lon="-0.60309">
        <ele>8.4</ele>
        <time>2023-05-17T21:10:30Z</time>
      </trkpt>
      <trkpt lat="49.33782" lon="-0.60339">
        <ele>9.7</ele>
        <time>2023-05-17T21:10:35Z</time>
      </trkpt>
      <trkpt lat="49.33785" lon="-0.60367">
        <ele>10.9</ele>
        <time>2023-05-17T21:10:40Z</time>
      </trkpt>
      <trkpt lat="49.33791" lon="-0.60397">
        <ele>12.4</ele>
        <time>2023-05-17T21:10:46Z</time>
      </trkpt>
      <trkpt lat="49.33797" lon="-0.60423">
        <ele>14</ele>
        <time>2023-05-17T21:10:52Z</time>
      </trkpt>
      <trkpt lat="49.33804" lon="-0.60452">
        <ele>15.9</ele>
        <time>2023-05-17T21:10:59Z</time>
      </trkpt>
      <trkpt lat="49.33813" lon="-0.60479">
        <ele>17.5</ele>
        <time>2023-05-17T21:11:06Z</time>
      </trkpt>
      <trkpt lat="49.33821" lon="-0.60507">
        <ele>19</ele>
        <time>2023-05-17T21:11:13Z</time>
      </trkpt>
      <trkpt lat="49.33829" lon="-0.60532">
        <ele>20.5</ele>
        <time>2023-05-17T21:11:20Z</time>
      </trkpt>
      <trkpt lat="49.33836" lon="-0.60558">
        <ele>22.2</ele>
        <time>2023-05-17T21:11:27Z</time>
      </trkpt>
      <trkpt lat="49.33845" lon="-0.60584">
        <ele>23.9</ele>
        <time>2023-05-17T21:11:34Z</time>
      </trkpt>
      <trkpt lat="49.33853" lon="-0.60611">
        <ele>25.6</ele>
        <time>2023-05-17T21:11:41Z</time>
      </trkpt>
      <trkpt lat="49.33861" lon="-0.60639">
        <ele>27.4</ele>
        <time>2023-05-17T21:11:48Z</time>
      </trkpt>
      <trkpt lat="49.3387" lon="-0.60665">
        <ele>29.3</ele>
        <time>2023-05-17T21:11:55Z</time>
      </trkpt>
      <trkpt lat="49.33877" lon="-0.60692">
        <ele>31.3</ele>
        <time>2023-05-17T21:12:02Z</time>
      </trkpt>
      <trkpt lat="49.33883" lon="-0.60718">
        <ele>33.3</ele>
        <time>2023-05-17T21:12:09Z</time>
      </trkpt>
      <trkpt lat="49.33888" lon="-0.60749">
        <ele>35.4</ele>
        <time>2023-05-17T21:12:16Z</time>
      </trkpt>
      <trkpt lat="49.33893" lon="-0.6078">
        <ele>37.6</ele>
        <time>2023-05-17T21:12:23Z</time>
      </trkpt>
      <trkpt lat="49.33894" lon="-0.60809">
        <ele>39.5</ele>
        <time>2023-05-17T21:12:30Z</time>
      </trkpt>
      <trkpt lat="49.33894" lon="-0.60839">
        <ele>41.4</ele>
        <time>2023-05-17T21:12:37Z</time>
      </trkpt>
      <trkpt lat="49.33893" lon="-0.60869">
        <ele>41.7</ele>
        <time>2023-05-17T21:12:44Z</time>
      </trkpt>
      <trkpt lat="49.33891" lon="-0.609">
        <ele>43.1</ele>
        <time>2023-05-17T21:12:51Z</time>
      </trkpt>
      <trkpt lat="49.33889" lon="-0.60931">
        <ele>44.3</ele>
        <time>2023-05-17T21:12:58Z</time>
      </trkpt>
      <trkpt lat="49.33887" lon="-0.6096">
        <ele>45.4</ele>
        <time>2023-05-17T21:13:04Z</time>
      </trkpt>
      <trkpt lat="49.33884" lon="-0.60989">
        <ele>46.3</ele>
        <time>2023-05-17T21:13:10Z</time>
      </trkpt>
      <trkpt lat="49.33882" lon="-0.6102">
        <ele>47.1</ele>
        <time>2023-05-17T21:13:16Z</time>
      </trkpt>
      <trkpt lat="49.3388" lon="-0.61048">
        <ele>47.7</ele>
        <time>2023-05-17T21:13:21Z</time>
      </trkpt>
      <trkpt lat="49.33878" lon="-0.61078">
        <ele>48.3</ele>
        <time>2023-05-17T21:13:26Z</time>
      </trkpt>
      <trkpt lat="49.33877" lon="-0.61112">
        <ele>48.7</ele>
        <time>2023-05-17T21:13:31Z</time>
      </trkpt>
      <trkpt lat="49.33877" lon="-0.61146">
        <ele>49</ele>
        <time>2023-05-17T21:13:36Z</time>
      </trkpt>
      <trkpt lat="49.33877" lon="-0.61175">
        <ele>49.2</ele>
        <time>2023-05-17T21:13:40Z</time>
      </trkpt>
      <trkpt lat="49.33877" lon="-0.61204">
        <ele>49.4</ele>
        <time>2023-05-17T21:13:44Z</time>
      </trkpt>
      <trkpt lat="49.33879" lon="-0.61233">
        <ele>49.5</ele>
        <time>2023-05-17T21:13:48Z</time>
      </trkpt>
      <trkpt lat="49.33881" lon="-0.61262">
        <ele>49.7</ele>
        <time>2023-05-17T21:13:52Z</time>
      </trkpt>
      <trkpt lat="49.33884" lon="-0.61293">
        <ele>49.9</ele>
        <time>2023-05-17T21:13:56Z</time>
      </trkpt>
      <trkpt lat="49.33886" lon="-0.61325">
        <ele>50.2</ele>
        <time>2023-05-17T21:14:00Z</time>
      </trkpt>
      <trkpt lat="49.33889" lon="-0.61355">
        <ele>50.3</ele>
        <time>2023-05-17T21:14:04Z</time>
      </trkpt>
      <trkpt lat="49.33892" lon="-0.61389">
        <ele>50.5</ele>
        <time>2023-05-17T21:14:08Z</time>
      </trkpt>
      <trkpt lat="49.33894" lon="-0.61421">
        <ele>50.7</ele>
        <time>2023-05-17T21:14:12Z</time>
      </trkpt>
      <trkpt lat="49.33897" lon="-0.61455">
        <ele>50.8</ele>
        <time>2023-05-17T21:14:16Z</time>
      </trkpt>
      <trkpt lat="49.33899" lon="-0.61489">
        <ele>50.9</ele>
        <time>2023-05-17T21:14:20Z</time>
      </trkpt>
      <trkpt lat="49.33902" lon="-0.61523">
        <ele>51</ele>
        <time>2023-05-17T21:14:24Z</time>
      </trkpt>
      <trkpt lat="49.33904" lon="-0.61556">
        <ele>51.2</ele>
        <time>2023-05-17T21:14:28Z</time>
      </trkpt>
      <trkpt lat="49.33905" lon="-0.6159">
        <ele>51.4</ele>
        <time>2023-05-17T21:14:32Z</time>
      </trkpt>
      <trkpt lat="49.33903" lon="-0.61622">
        <ele>51.6</ele>
        <time>2023-05-17T21:14:36Z</time>
      </trkpt>
      <trkpt lat="49.33898" lon="-0.61654">
        <ele>51.8</ele>
        <time>2023-05-17T21:14:40Z</time>
      </trkpt>
      <trkpt lat="49.33889" lon="-0.61683">
        <ele>51.9</ele>
        <time>2023-05-17T21:14:44Z</time>
      </trkpt>
      <trkpt lat="49.33876" lon="-0.6171">
        <ele>51.9</ele>
        <time>2023-05-17T21:14:48Z</time>
      </trkpt>
      <trkpt lat="49.3386" lon="-0.61734">
        <ele>51.9</ele>
        <time>2023-05-17T21:14:52Z</time>
      </trkpt>
      <trkpt lat="49.33842" lon="-0.61755">
        <ele>52</ele>
        <time>2023-05-17T21:14:56Z</time>
      </trkpt>
      <trkpt lat="49.33821" lon="-0.61773">
        <ele>52</ele>
        <time>2023-05-17T21:15:00Z</time>
      </trkpt>
      <trkpt lat="49.338" lon="-0.61783">
        <ele>52.2</ele>
        <time>2023-05-17T21:15:04Z</time>
      </trkpt>
      <trkpt lat="49.33777" lon="-0.6179">
        <ele>52.3</ele>
        <time>2023-05-17T21:15:08Z</time>
      </trkpt>
      <trkpt lat="49.33754" lon="-0.61795">
        <ele>52.3</ele>
        <time>2023-05-17T21:15:12Z</time>
      </trkpt>
      <trkpt lat="49.3373" lon="-0.618">
        <ele>52</ele>
        <time>2023-05-17T21:15:16Z</time>
      </trkpt>
      <trkpt lat="49.33711" lon="-0.61805">
        <ele>51.7</ele>
        <time>2023-05-17T21:15:19Z</time>
      </trkpt>
      <trkpt lat="49.33691" lon="-0.61811">
        <ele>51.2</ele>
        <time>2023-05-17T21:15:22Z</time>
      </trkpt>
      <trkpt lat="49.33668" lon="-0.61816">
        <ele>50.4</ele>
        <time>2023-05-17T21:15:25Z</time>
      </trkpt>
      <trkpt lat="49.33644" lon="-0.61821">
        <ele>49.3</ele>
        <time>2023-05-17T21:15:28Z</time>
      </trkpt>
      <trkpt lat="49.33619" lon="-0.6183">
        <ele>47.8</ele>
        <time>2023-05-17T21:15:31Z</time>
      </trkpt>
      <trkpt lat="49.33601" lon="-0.61838">
        <ele>46.5</ele>
        <time>2023-05-17T21:15:33Z</time>
      </trkpt>
      <trkpt lat="49.33584" lon="-0.61851">
        <ele>45</ele>
        <time>2023-05-17T21:15:35Z</time>
      </trkpt>
      <trkpt lat="49.3357" lon="-0.61869">
        <ele>43.4</ele>
        <time>2023-05-17T21:15:37Z</time>
      </trkpt>
      <trkpt lat="49.33557" lon="-0.61894">
        <ele>41.4</ele>
        <time>2023-05-17T21:15:39Z</time>
      </trkpt>
      <trkpt lat="49.33554" lon="-0.61928">
        <ele>39.4</ele>
        <time>2023-05-17T21:15:41Z</time>
      </trkpt>
      <trkpt lat="49.33555" lon="-0.61962">
        <ele>37.5</ele>
        <time>2023-05-17T21:15:43Z</time>
      </trkpt>
      <trkpt lat="49.33563" lon="-0.61995">
        <ele>35.6</ele>
        <time>2023-05-17T21:15:45Z</time>
      </trkpt>
      <trkpt lat="49.33578" lon="-0.62026">
        <ele>32.9</ele>
        <time>2023-05-17T21:15:47Z</time>
      </trkpt>
      <trkpt lat="49.33598" lon="-0.62052">
        <ele>30.2</ele>
        <time>2023-05-17T21:15:49Z</time>
      </trkpt>
      <trkpt lat="49.33619" lon="-0.62077">
        <ele>27.5</ele>
        <time>2023-05-17T21:15:51Z</time>
      </trkpt>
      <trkpt lat="49.33642" lon="-0.62095">
        <ele>24.8</ele>
        <time>2023-05-17T21:15:53Z</time>
      </trkpt>
      <trkpt lat="49.3367" lon="-0.62103">
        <ele>21.8</ele>
        <time>2023-05-17T21:15:55Z</time>
      </trkpt>
      <trkpt lat="49.33695" lon="-0.62099">
        <ele>19.4</ele>
        <time>2023-05-17T21:15:57Z</time>
      </trkpt>
      <trkpt lat="49.3372" lon="-0.62092">
        <ele>17</ele>
        <time>2023-05-17T21:15:59Z</time>
      </trkpt>
      <trkpt lat="49.33744" lon="-0.62087">
        <ele>15.3</ele>
        <time>2023-05-17T21:16:01Z</time>
      </trkpt>
      <trkpt lat="49.33766" lon="-0.62086">
        <ele>14.1</ele>
        <time>2023-05-17T21:16:03Z</time>
      </trkpt>
      <trkpt lat="49.33783" lon="-0.621">
        <ele>13.1</ele>
        <time>2023-05-17T21:16:05Z</time>
      </trkpt>
      <trkpt lat="49.33795" lon="-0.62125">
        <ele>12.2</ele>
        <time>2023-05-17T21:16:07Z</time>
      </trkpt>
      <trkpt lat="49.33801" lon="-0.62152">
        <ele>11.9</ele>
        <time>2023-05-17T21:16:09Z</time>
      </trkpt>
      <trkpt lat="49.3381" lon="-0.62186">
        <ele>12.2</ele>
        <time>2023-05-17T21:16:12Z</time>
      </trkpt>
      <trkpt lat="49.33819" lon="-0.62217">
        <ele>12.9</ele>
        <time>2023-05-17T21:16:15Z</time>
      </trkpt>
      <trkpt lat="49.33827" lon="-0.62244">
        <ele>13.2</ele>
        <time>2023-05-17T21:16:18Z</time>
      </trkpt>
      <trkpt lat="49.33831" lon="-0.62276">
        <ele>12.8</ele>
        <time>2023-05-17T21:16:21Z</time>
      </trkpt>
      <trkpt lat="49.33835" lon="-0.62311">
        <ele>12.4</ele>
        <time>2023-05-17T21:16:24Z</time>
      </trkpt>
      <trkpt lat="49.33839" lon="-0.62346">
        <ele>12.3</ele>
        <time>2023-05-17T21:16:27Z</time>
      </trkpt>
      <trkpt lat="49.33841" lon="-0.62379">
        <ele>12.3</ele>
        <time>2023-05-17T21:16:30Z</time>
      </trkpt>
      <trkpt lat="49.33827" lon="-0.62404">
        <ele>12.7</ele>
        <time>2023-05-17T21:16:34Z</time>
      </trkpt>
      <trkpt lat="49.33806" lon="-0.62407">
        <ele>13.9</ele>
        <time>2023-05-17T21:16:38Z</time>
      </trkpt>
      <trkpt lat="49.33785" lon="-0.62414">
        <ele>15.4</ele>
        <time>2023-05-17T21:16:43Z</time>
      </trkpt>
      <trkpt lat="49.33781" lon="-0.62445">
        <ele>16.3</ele>
        <time>2023-05-17T21:16:48Z</time>
      </trkpt>
      <trkpt lat="49.33786" lon="-0.62477">
        <ele>16.4</ele>
        <time>2023-05-17T21:16:52Z</time>
      </trkpt>
      <trkpt lat="49.3379" lon="-0.62511">
        <ele>16.6</ele>
        <time>2023-05-17T21:16:56Z</time>
      </trkpt>
      <trkpt lat="49.33794" lon="-0.62546">
        <ele>16.7</ele>
        <time>2023-05-17T21:17:00Z</time>
      </trkpt>
      <trkpt lat="49.33797" lon="-0.62581">
        <ele>16.7</ele>
        <time>2023-05-17T21:17:04Z</time>
      </trkpt>
      <trkpt lat="49.338" lon="-0.62615">
        <ele>16.8</ele>
        <time>2023-05-17T21:17:08Z</time>
      </trkpt>
      <trkpt lat="49.33803" lon="-0.6265">
        <ele>16.9</ele>
        <time>2023-05-17T21:17:12Z</time>
      </trkpt>
      <trkpt lat="49.33806" lon="-0.62677">
        <ele>16.9</ele>
        <time>2023-05-17T21:17:15Z</time>
      </trkpt>
      <trkpt lat="49.33809" lon="-0.62705">
        <ele>16.9</ele>
        <time>2023-05-17T21:17:18Z</time>
      </trkpt>
      <trkpt lat="49.33813" lon="-0.62732">
        <ele>16.9</ele>
        <time>2023-05-17T21:17:21Z</time>
      </trkpt>
      <trkpt lat="49.33816" lon="-0.62767">
        <ele>17</ele>
        <time>2023-05-17T21:17:25Z</time>
      </trkpt>
      <trkpt lat="49.33818" lon="-0.62803">
        <ele>17.2</ele>
        <time>2023-05-17T21:17:29Z</time>
      </trkpt>
      <trkpt lat="49.33822" lon="-0.62836">
        <ele>17.7</ele>
        <time>2023-05-17T21:17:33Z</time>
      </trkpt>
      <trkpt lat="49.33825" lon="-0.62869">
        <ele>18.3</ele>
        <time>2023-05-17T21:17:37Z</time>
      </trkpt>
      <trkpt lat="49.33829" lon="-0.629">
        <ele>19</ele>
        <time>2023-05-17T21:17:41Z</time>
      </trkpt>
      <trkpt lat="49.33833" lon="-0.62931">
        <ele>19.8</ele>
        <time>2023-05-17T21:17:45Z</time>
      </trkpt>
      <trkpt lat="49.33835" lon="-0.6296">
        <ele>20.6</ele>
        <time>2023-05-17T21:17:49Z</time>
      </trkpt>
      <trkpt lat="49.33838" lon="-0.62988">
        <ele>21.5</ele>
        <time>2023-05-17T21:17:53Z</time>
      </trkpt>
      <trkpt lat="49.33842" lon="-0.63022">
        <ele>22.5</ele>
        <time>2023-05-17T21:17:58Z</time>
      </trkpt>
      <trkpt lat="49.33844" lon="-0.63056">
        <ele>23.4</ele>
        <time>2023-05-17T21:18:03Z</time>
      </trkpt>
      <trkpt lat="49.33847" lon="-0.63089">
        <ele>23.7</ele>
        <time>2023-05-17T21:18:08Z</time>
      </trkpt>
      <trkpt lat="49.33844" lon="-0.63119">
        <ele>23.7</ele>
        <time>2023-05-17T21:18:12Z</time>
      </trkpt>
      <trkpt lat="49.33837" lon="-0.6315">
        <ele>23.8</ele>
        <time>2023-05-17T21:18:16Z</time>
      </trkpt>
      <trkpt lat="49.3383" lon="-0.63181">
        <ele>23.8</ele>
        <time>2023-05-17T21:18:20Z</time>
      </trkpt>
      <trkpt lat="49.33823" lon="-0.63212">
        <ele>23.8</ele>
        <time>2023-05-17T21:18:24Z</time>
      </trkpt>
      <trkpt lat="49.33816" lon="-0.63244">
        <ele>23.9</ele>
        <time>2023-05-17T21:18:28Z</time>
      </trkpt>
      <trkpt lat="49.3381" lon="-0.63275">
        <ele>24.1</ele>
        <time>2023-05-17T21:18:32Z</time>
      </trkpt>
      <trkpt lat="49.33806" lon="-0.63308">
        <ele>24.2</ele>
        <time>2023-05-17T21:18:36Z</time>
      </trkpt>
      <trkpt lat="49.33801" lon="-0.63341">
        <ele>24.4</ele>
        <time>2023-05-17T21:18:40Z</time>
      </trkpt>
      <trkpt lat="49.33798" lon="-0.63374">
        <ele>24.8</ele>
        <time>2023-05-17T21:18:44Z</time>
      </trkpt>
      <trkpt lat="49.33799" lon="-0.63406">
        <ele>25.3</ele>
        <time>2023-05-17T21:18:48Z</time>
      </trkpt>
      <trkpt lat="49.33804" lon="-0.63435">
        <ele>26.1</ele>
        <time>2023-05-17T21:18:52Z</time>
      </trkpt>
      <trkpt lat="49.33805" lon="-0.63463">
        <ele>27</ele>
        <time>2023-05-17T21:18:56Z</time>
      </trkpt>
      <trkpt lat="49.33798" lon="-0.63494">
        <ele>27.9</ele>
        <time>2023-05-17T21:19:01Z</time>
      </trkpt>
      <trkpt lat="49.33788" lon="-0.63519">
        <ele>29.1</ele>
        <time>2023-05-17T21:19:06Z</time>
      </trkpt>
      <trkpt lat="49.33777" lon="-0.63547">
        <ele>30.6</ele>
        <time>2023-05-17T21:19:12Z</time>
      </trkpt>
      <trkpt lat="49.33767" lon="-0.63575">
        <ele>31.9</ele>
        <time>2023-05-17T21:19:18Z</time>
      </trkpt>
      <trkpt lat="49.33759" lon="-0.63601">
        <ele>32.9</ele>
        <time>2023-05-17T21:19:23Z</time>
      </trkpt>
      <trkpt lat="49.33753" lon="-0.63631">
        <ele>34</ele>
        <time>2023-05-17T21:19:28Z</time>
      </trkpt>
      <trkpt lat="49.33752" lon="-0.6366">
        <ele>35</ele>
        <time>2023-05-17T21:19:33Z</time>
      </trkpt>
      <trkpt lat="49.3375" lon="-0.63692">
        <ele>36.1</ele>
        <time>2023-05-17T21:19:39Z</time>
      </trkpt>
      <trkpt lat="49.33749" lon="-0.63724">
        <ele>37.3</ele>
        <time>2023-05-17T21:19:45Z</time>
      </trkpt>
      <trkpt lat="49.33747" lon="-0.63754">
        <ele>38.4</ele>
        <time>2023-05-17T21:19:51Z</time>
      </trkpt>
      <trkpt lat="49.33746" lon="-0.63782">
        <ele>39.5</ele>
        <time>2023-05-17T21:19:57Z</time>
      </trkpt>
      <trkpt lat="49.33744" lon="-0.63814">
        <ele>40.9</ele>
        <time>2023-05-17T21:20:04Z</time>
      </trkpt>
      <trkpt lat="49.33742" lon="-0.63844">
        <ele>42.2</ele>
        <time>2023-05-17T21:20:10Z</time>
      </trkpt>
      <trkpt lat="49.33737" lon="-0.63874">
        <ele>43.6</ele>
        <time>2023-05-17T21:20:17Z</time>
      </trkpt>
      <trkpt lat="49.33734" lon="-0.63902">
        <ele>44.8</ele>
        <time>2023-05-17T21:20:22Z</time>
      </trkpt>
      <trkpt lat="49.33728" lon="-0.63929">
        <ele>46.1</ele>
        <time>2023-05-17T21:20:28Z</time>
      </trkpt>
      <trkpt lat="49.33719" lon="-0.63956">
        <ele>47.2</ele>
        <time>2023-05-17T21:20:34Z</time>
      </trkpt>
      <trkpt lat="49.33711" lon="-0.63985">
        <ele>48.5</ele>
        <time>2023-05-17T21:20:40Z</time>
      </trkpt>
      <trkpt lat="49.33704" lon="-0.64013">
        <ele>49.7</ele>
        <time>2023-05-17T21:20:46Z</time>
      </trkpt>
      <trkpt lat="49.33695" lon="-0.64039">
        <ele>50.9</ele>
        <time>2023-05-17T21:20:52Z</time>
      </trkpt>
      <trkpt lat="49.33685" lon="-0.64063">
        <ele>52.2</ele>
        <time>2023-05-17T21:20:58Z</time>
      </trkpt>
      <trkpt lat="49.33674" lon="-0.64086">
        <ele>53.3</ele>
        <time>2023-05-17T21:21:04Z</time>
      </trkpt>
      <trkpt lat="49.33659" lon="-0.64109">
        <ele>54.4</ele>
        <time>2023-05-17T21:21:10Z</time>
      </trkpt>
      <trkpt lat="49.33646" lon="-0.64128">
        <ele>55.1</ele>
        <time>2023-05-17T21:21:15Z</time>
      </trkpt>
      <trkpt lat="49.33633" lon="-0.64154">
        <ele>55.5</ele>
        <time>2023-05-17T21:21:21Z</time>
      </trkpt>
      <trkpt lat="49.33637" lon="-0.64186">
        <ele>55.8</ele>
        <time>2023-05-17T21:21:27Z</time>
      </trkpt>
      <trkpt lat="49.33645" lon="-0.64217">
        <ele>55.9</ele>
        <time>2023-05-17T21:21:32Z</time>
      </trkpt>
      <trkpt lat="49.33651" lon="-0.64244">
        <ele>55.9</ele>
        <time>2023-05-17T21:21:36Z</time>
      </trkpt>
      <trkpt lat="49.33657" lon="-0.64271">
        <ele>56.1</ele>
        <time>2023-05-17T21:21:40Z</time>
      </trkpt>
      <trkpt lat="49.33665" lon="-0.64299">
        <ele>56.3</ele>
        <time>2023-05-17T21:21:44Z</time>
      </trkpt>
      <trkpt lat="49.33666" lon="-0.64328">
        <ele>56.5</ele>
        <time>2023-05-17T21:21:48Z</time>
      </trkpt>
      <trkpt lat="49.33665" lon="-0.64361">
        <ele>56.4</ele>
        <time>2023-05-17T21:21:52Z</time>
      </trkpt>
      <trkpt lat="49.33659" lon="-0.64396">
        <ele>56.4</ele>
        <time>2023-05-17T21:21:56Z</time>
      </trkpt>
      <trkpt lat="49.33643" lon="-0.64418">
        <ele>56.5</ele>
        <time>2023-05-17T21:22:00Z</time>
      </trkpt>
      <trkpt lat="49.33628" lon="-0.64437">
        <ele>56.5</ele>
        <time>2023-05-17T21:22:03Z</time>
      </trkpt>
      <trkpt lat="49.33624" lon="-0.64472">
        <ele>56.3</ele>
        <time>2023-05-17T21:22:07Z</time>
      </trkpt>
      <trkpt lat="49.33634" lon="-0.64496">
        <ele>56.1</ele>
        <time>2023-05-17T21:22:10Z</time>
      </trkpt>
      <trkpt lat="49.33642" lon="-0.64521">
        <ele>55.9</ele>
        <time>2023-05-17T21:22:13Z</time>
      </trkpt>
      <trkpt lat="49.33648" lon="-0.64547">
        <ele>55.7</ele>
        <time>2023-05-17T21:22:16Z</time>
      </trkpt>
      <trkpt lat="49.33652" lon="-0.64575">
        <ele>55.6</ele>
        <time>2023-05-17T21:22:19Z</time>
      </trkpt>
      <trkpt lat="49.33655" lon="-0.64603">
        <ele>55.4</ele>
        <time>2023-05-17T21:22:22Z</time>
      </trkpt>
      <trkpt lat="49.33657" lon="-0.64632">
        <ele>55.2</ele>
        <time>2023-05-17T21:22:25Z</time>
      </trkpt>
      <trkpt lat="49.33658" lon="-0.64661">
        <ele>55.1</ele>
        <time>2023-05-17T21:22:28Z</time>
      </trkpt>
      <trkpt lat="49.3366" lon="-0.64692">
        <ele>54.9</ele>
        <time>2023-05-17T21:22:31Z</time>
      </trkpt>
      <trkpt lat="49.33662" lon="-0.64723">
        <ele>54.8</ele>
        <time>2023-05-17T21:22:34Z</time>
      </trkpt>
      <trkpt lat="49.33666" lon="-0.64752">
        <ele>54.7</ele>
        <time>2023-05-17T21:22:37Z</time>
      </trkpt>
      <trkpt lat="49.33671" lon="-0.64779">
        <ele>54.4</ele>
        <time>2023-05-17T21:22:40Z</time>
      </trkpt>
      <trkpt lat="49.33676" lon="-0.64808">
        <ele>53.8</ele>
        <time>2023-05-17T21:22:43Z</time>
      </trkpt>
      <trkpt lat="49.3368" lon="-0.64839">
        <ele>53</ele>
        <time>2023-05-17T21:22:46Z</time>
      </trkpt>
      <trkpt lat="49.33681" lon="-0.64876">
        <ele>51.7</ele>
        <time>2023-05-17T21:22:49Z</time>
      </trkpt>
      <trkpt lat="49.33675" lon="-0.64912">
        <ele>50.3</ele>
        <time>2023-05-17T21:22:52Z</time>
      </trkpt>
      <trkpt lat="49.33675" lon="-0.64941">
        <ele>49.2</ele>
        <time>2023-05-17T21:22:54Z</time>
      </trkpt>
      <trkpt lat="49.3368" lon="-0.64968">
        <ele>48.2</ele>
        <time>2023-05-17T21:22:56Z</time>
      </trkpt>
      <trkpt lat="49.33689" lon="-0.65008">
        <ele>46.8</ele>
        <time>2023-05-17T21:22:59Z</time>
      </trkpt>
      <trkpt lat="49.33693" lon="-0.65036">
        <ele>45.9</ele>
        <time>2023-05-17T21:23:01Z</time>
      </trkpt>
      <trkpt lat="49.33697" lon="-0.65066">
        <ele>45.4</ele>
        <time>2023-05-17T21:23:03Z</time>
      </trkpt>
      <trkpt lat="49.33698" lon="-0.65096">
        <ele>45.2</ele>
        <time>2023-05-17T21:23:05Z</time>
      </trkpt>
      <trkpt lat="49.33699" lon="-0.65136">
        <ele>45.5</ele>
        <time>2023-05-17T21:23:08Z</time>
      </trkpt>
      <trkpt lat="49.33697" lon="-0.65173">
        <ele>46.2</ele>
        <time>2023-05-17T21:23:11Z</time>
      </trkpt>
      <trkpt lat="49.33694" lon="-0.65208">
        <ele>47</ele>
        <time>2023-05-17T21:23:14Z</time>
      </trkpt>
      <trkpt lat="49.33692" lon="-0.65239">
        <ele>47.7</ele>
        <time>2023-05-17T21:23:17Z</time>
      </trkpt>
      <trkpt lat="49.33689" lon="-0.65268">
        <ele>48.2</ele>
        <time>2023-05-17T21:23:20Z</time>
      </trkpt>
      <trkpt lat="49.33686" lon="-0.65304">
        <ele>48.9</ele>
        <time>2023-05-17T21:23:24Z</time>
      </trkpt>
      <trkpt lat="49.33682" lon="-0.65331">
        <ele>49.2</ele>
        <time>2023-05-17T21:23:27Z</time>
      </trkpt>
      <trkpt lat="49.33677" lon="-0.65358">
        <ele>49.5</ele>
        <time>2023-05-17T21:23:30Z</time>
      </trkpt>
      <trkpt lat="49.33674" lon="-0.65387">
        <ele>49.8</ele>
        <time>2023-05-17T21:23:33Z</time>
      </trkpt>
      <trkpt lat="49.33674" lon="-0.65416">
        <ele>50</ele>
        <time>2023-05-17T21:23:36Z</time>
      </trkpt>
      <trkpt lat="49.33678" lon="-0.65443">
        <ele>50.3</ele>
        <time>2023-05-17T21:23:39Z</time>
      </trkpt>
      <trkpt lat="49.33684" lon="-0.65478">
        <ele>50.6</ele>
        <time>2023-05-17T21:23:43Z</time>
      </trkpt>
      <trkpt lat="49.33687" lon="-0.65507">
        <ele>50.8</ele>
        <time>2023-05-17T21:23:46Z</time>
      </trkpt>
      <trkpt lat="49.33691" lon="-0.65534">
        <ele>51.1</ele>
        <time>2023-05-17T21:23:49Z</time>
      </trkpt>
      <trkpt lat="49.33697" lon="-0.65561">
        <ele>51.2</ele>
        <time>2023-05-17T21:23:52Z</time>
      </trkpt>
      <trkpt lat="49.33708" lon="-0.65584">
        <ele>51.2</ele>
        <time>2023-05-17T21:23:55Z</time>
      </trkpt>
      <trkpt lat="49.33722" lon="-0.65606">
        <ele>51.2</ele>
        <time>2023-05-17T21:23:58Z</time>
      </trkpt>
      <trkpt lat="49.33727" lon="-0.65634">
        <ele>51.2</ele>
        <time>2023-05-17T21:24:01Z</time>
      </trkpt>
      <trkpt lat="49.33723" lon="-0.65663">
        <ele>51.3</ele>
        <time>2023-05-17T21:24:04Z</time>
      </trkpt>
      <trkpt lat="49.33714" lon="-0.65691">
        <ele>51.3</ele>
        <time>2023-05-17T21:24:07Z</time>
      </trkpt>
      <trkpt lat="49.33704" lon="-0.65717">
        <ele>51.3</ele>
        <time>2023-05-17T21:24:10Z</time>
      </trkpt>
      <trkpt lat="49.33695" lon="-0.65743">
        <ele>51.3</ele>
        <time>2023-05-17T21:24:13Z</time>
      </trkpt>
      <trkpt lat="49.33685" lon="-0.65769">
        <ele>51.4</ele>
        <time>2023-05-17T21:24:16Z</time>
      </trkpt>
      <trkpt lat="49.33675" lon="-0.65795">
        <ele>51.5</ele>
        <time>2023-05-17T21:24:19Z</time>
      </trkpt>
      <trkpt lat="49.33667" lon="-0.65822">
        <ele>51.6</ele>
        <time>2023-05-17T21:24:22Z</time>
      </trkpt>
      <trkpt lat="49.33659" lon="-0.65848">
        <ele>51.7</ele>
        <time>2023-05-17T21:24:25Z</time>
      </trkpt>
      <trkpt lat="49.33652" lon="-0.65875">
        <ele>51.9</ele>
        <time>2023-05-17T21:24:28Z</time>
      </trkpt>
      <trkpt lat="49.33644" lon="-0.65903">
        <ele>52</ele>
        <time>2023-05-17T21:24:31Z</time>
      </trkpt>
      <trkpt lat="49.33637" lon="-0.65929">
        <ele>52.2</ele>
        <time>2023-05-17T21:24:34Z</time>
      </trkpt>
      <trkpt lat="49.33625" lon="-0.65954">
        <ele>52.5</ele>
        <time>2023-05-17T21:24:37Z</time>
      </trkpt>
      <trkpt lat="49.33615" lon="-0.65977">
        <ele>52.7</ele>
        <time>2023-05-17T21:24:40Z</time>
      </trkpt>
      <trkpt lat="49.33604" lon="-0.66">
        <ele>52.9</ele>
        <time>2023-05-17T21:24:43Z</time>
      </trkpt>
      <trkpt lat="49.33589" lon="-0.66029">
        <ele>53.2</ele>
        <time>2023-05-17T21:24:47Z</time>
      </trkpt>
      <trkpt lat="49.33576" lon="-0.66057">
        <ele>53.7</ele>
        <time>2023-05-17T21:24:51Z</time>
      </trkpt>
      <trkpt lat="49.33564" lon="-0.66085">
        <ele>54.1</ele>
        <time>2023-05-17T21:24:55Z</time>
      </trkpt>
      <trkpt lat="49.33556" lon="-0.66111">
        <ele>54.5</ele>
        <time>2023-05-17T21:24:58Z</time>
      </trkpt>
      <trkpt lat="49.3355" lon="-0.66137">
        <ele>54.9</ele>
        <time>2023-05-17T21:25:01Z</time>
      </trkpt>
      <trkpt lat="49.33544" lon="-0.6617">
        <ele>55.4</ele>
        <time>2023-05-17T21:25:05Z</time>
      </trkpt>
      <trkpt lat="49.33538" lon="-0.66202">
        <ele>56</ele>
        <time>2023-05-17T21:25:09Z</time>
      </trkpt>
      <trkpt lat="49.33531" lon="-0.66235">
        <ele>56.6</ele>
        <time>2023-05-17T21:25:13Z</time>
      </trkpt>
      <trkpt lat="49.33524" lon="-0.66265">
        <ele>57.1</ele>
        <time>2023-05-17T21:25:17Z</time>
      </trkpt>
      <trkpt lat="49.33514" lon="-0.66294">
        <ele>57.7</ele>
        <time>2023-05-17T21:25:21Z</time>
      </trkpt>
      <trkpt lat="49.33505" lon="-0.66327">
        <ele>58.3</ele>
        <time>2023-05-17T21:25:25Z</time>
      </trkpt>
      <trkpt lat="49.33496" lon="-0.66359">
        <ele>58.7</ele>
        <time>2023-05-17T21:25:29Z</time>
      </trkpt>
      <trkpt lat="49.33487" lon="-0.66389">
        <ele>59.1</ele>
        <time>2023-05-17T21:25:33Z</time>
      </trkpt>
      <trkpt lat="49.33478" lon="-0.66423">
        <ele>59.5</ele>
        <time>2023-05-17T21:25:37Z</time>
      </trkpt>
      <trkpt lat="49.3347" lon="-0.66456">
        <ele>60</ele>
        <time>2023-05-17T21:25:41Z</time>
      </trkpt>
      <trkpt lat="49.3346" lon="-0.66487">
        <ele>60.4</ele>
        <time>2023-05-17T21:25:45Z</time>
      </trkpt>
      <trkpt lat="49.33452" lon="-0.66518">
        <ele>61</ele>
        <time>2023-05-17T21:25:49Z</time>
      </trkpt>
      <trkpt lat="49.33444" lon="-0.66548">
        <ele>61.4</ele>
        <time>2023-05-17T21:25:53Z</time>
      </trkpt>
      <trkpt lat="49.33435" lon="-0.66578">
        <ele>61.7</ele>
        <time>2023-05-17T21:25:57Z</time>
      </trkpt>
      <trkpt lat="49.33425" lon="-0.66609">
        <ele>61.9</ele>
        <time>2023-05-17T21:26:01Z</time>
      </trkpt>
      <trkpt lat="49.33412" lon="-0.66639">
        <ele>62.1</ele>
        <time>2023-05-17T21:26:05Z</time>
      </trkpt>
      <trkpt lat="49.33399" lon="-0.6667">
        <ele>62.2</ele>
        <time>2023-05-17T21:26:09Z</time>
      </trkpt>
      <trkpt lat="49.33388" lon="-0.66692">
        <ele>62.3</ele>
        <time>2023-05-17T21:26:12Z</time>
      </trkpt>
      <trkpt lat="49.33375" lon="-0.66713">
        <ele>62.3</ele>
        <time>2023-05-17T21:26:15Z</time>
      </trkpt>
      <trkpt lat="49.33362" lon="-0.66735">
        <ele>62.3</ele>
        <time>2023-05-17T21:26:18Z</time>
      </trkpt>
      <trkpt lat="49.33349" lon="-0.66757">
        <ele>62.4</ele>
        <time>2023-05-17T21:26:21Z</time>
      </trkpt>
      <trkpt lat="49.33336" lon="-0.66779">
        <ele>62.5</ele>
        <time>2023-05-17T21:26:24Z</time>
      </trkpt>
      <trkpt lat="49.33322" lon="-0.668">
        <ele>62.4</ele>
        <time>2023-05-17T21:26:27Z</time>
      </trkpt>
      <trkpt lat="49.33309" lon="-0.66821">
        <ele>62.4</ele>
        <time>2023-05-17T21:26:30Z</time>
      </trkpt>
      <trkpt lat="49.33294" lon="-0.66842">
        <ele>62.4</ele>
        <time>2023-05-17T21:26:33Z</time>
      </trkpt>
      <trkpt lat="49.33279" lon="-0.66863">
        <ele>62.4</ele>
        <time>2023-05-17T21:26:36Z</time>
      </trkpt>
      <trkpt lat="49.33265" lon="-0.66886">
        <ele>62.4</ele>
        <time>2023-05-17T21:26:39Z</time>
      </trkpt>
      <trkpt lat="49.33256" lon="-0.66914">
        <ele>62.4</ele>
        <time>2023-05-17T21:26:42Z</time>
      </trkpt>
      <trkpt lat="49.33248" lon="-0.66943">
        <ele>62.4</ele>
        <time>2023-05-17T21:26:45Z</time>
      </trkpt>
      <trkpt lat="49.33242" lon="-0.66972">
        <ele>62.4</ele>
        <time>2023-05-17T21:26:48Z</time>
      </trkpt>
      <trkpt lat="49.33236" lon="-0.67001">
        <ele>62.5</ele>
        <time>2023-05-17T21:26:51Z</time>
      </trkpt>
      <trkpt lat="49.33229" lon="-0.67029">
        <ele>62.5</ele>
        <time>2023-05-17T21:26:54Z</time>
      </trkpt>
      <trkpt lat="49.33223" lon="-0.67058">
        <ele>62.5</ele>
        <time>2023-05-17T21:26:57Z</time>
      </trkpt>
      <trkpt lat="49.33217" lon="-0.67087">
        <ele>62.5</ele>
        <time>2023-05-17T21:27:00Z</time>
      </trkpt>
      <trkpt lat="49.3321" lon="-0.67117">
        <ele>62.4</ele>
        <time>2023-05-17T21:27:03Z</time>
      </trkpt>
      <trkpt lat="49.33204" lon="-0.67147">
        <ele>62.4</ele>
        <time>2023-05-17T21:27:06Z</time>
      </trkpt>
      <trkpt lat="49.33197" lon="-0.67178">
        <ele>62.4</ele>
        <time>2023-05-17T21:27:09Z</time>
      </trkpt>
      <trkpt lat="49.33191" lon="-0.67209">
        <ele>62.4</ele>
        <time>2023-05-17T21:27:12Z</time>
      </trkpt>
      <trkpt lat="49.33187" lon="-0.6724">
        <ele>62.4</ele>
        <time>2023-05-17T21:27:15Z</time>
      </trkpt>
      <trkpt lat="49.33183" lon="-0.67272">
        <ele>62.2</ele>
        <time>2023-05-17T21:27:18Z</time>
      </trkpt>
      <trkpt lat="49.33182" lon="-0.67304">
        <ele>62.1</ele>
        <time>2023-05-17T21:27:21Z</time>
      </trkpt>
      <trkpt lat="49.33184" lon="-0.67335">
        <ele>62.1</ele>
        <time>2023-05-17T21:27:24Z</time>
      </trkpt>
      <trkpt lat="49.33189" lon="-0.67367">
        <ele>62</ele>
        <time>2023-05-17T21:27:27Z</time>
      </trkpt>
      <trkpt lat="49.33198" lon="-0.67397">
        <ele>62</ele>
        <time>2023-05-17T21:27:30Z</time>
      </trkpt>
      <trkpt lat="49.33206" lon="-0.67426">
        <ele>61.9</ele>
        <time>2023-05-17T21:27:33Z</time>
      </trkpt>
      <trkpt lat="49.33215" lon="-0.67455">
        <ele>61.9</ele>
        <time>2023-05-17T21:27:36Z</time>
      </trkpt>
      <trkpt lat="49.33223" lon="-0.67484">
        <ele>61.9</ele>
        <time>2023-05-17T21:27:39Z</time>
      </trkpt>
      <trkpt lat="49.33231" lon="-0.67512">
        <ele>62</ele>
        <time>2023-05-17T21:27:42Z</time>
      </trkpt>
      <trkpt lat="49.33237" lon="-0.67542">
        <ele>62</ele>
        <time>2023-05-17T21:27:45Z</time>
      </trkpt>
      <trkpt lat="49.33243" lon="-0.67572">
        <ele>62</ele>
        <time>2023-05-17T21:27:48Z</time>
      </trkpt>
      <trkpt lat="49.33247" lon="-0.67602">
        <ele>61.9</ele>
        <time>2023-05-17T21:27:51Z</time>
      </trkpt>
      <trkpt lat="49.33251" lon="-0.67633">
        <ele>61.8</ele>
        <time>2023-05-17T21:27:54Z</time>
      </trkpt>
      <trkpt lat="49.33254" lon="-0.67665">
        <ele>61.7</ele>
        <time>2023-05-17T21:27:57Z</time>
      </trkpt>
      <trkpt lat="49.33257" lon="-0.67697">
        <ele>61.5</ele>
        <time>2023-05-17T21:28:00Z</time>
      </trkpt>
      <trkpt lat="49.33258" lon="-0.6773">
        <ele>61.3</ele>
        <time>2023-05-17T21:28:03Z</time>
      </trkpt>
      <trkpt lat="49.33259" lon="-0.67764">
        <ele>61.1</ele>
        <time>2023-05-17T21:28:06Z</time>
      </trkpt>
      <trkpt lat="49.3326" lon="-0.67797">
        <ele>60.9</ele>
        <time>2023-05-17T21:28:09Z</time>
      </trkpt>
      <trkpt lat="49.33261" lon="-0.67831">
        <ele>60.8</ele>
        <time>2023-05-17T21:28:12Z</time>
      </trkpt>
      <trkpt lat="49.33263" lon="-0.67864">
        <ele>60.8</ele>
        <time>2023-05-17T21:28:15Z</time>
      </trkpt>
      <trkpt lat="49.33269" lon="-0.67896">
        <ele>60.7</ele>
        <time>2023-05-17T21:28:18Z</time>
      </trkpt>
      <trkpt lat="49.33278" lon="-0.67925">
        <ele>60.7</ele>
        <time>2023-05-17T21:28:21Z</time>
      </trkpt>
      <trkpt lat="49.33286" lon="-0.67954">
        <ele>60.6</ele>
        <time>2023-05-17T21:28:24Z</time>
      </trkpt>
      <trkpt lat="49.33295" lon="-0.67982">
        <ele>60.6</ele>
        <time>2023-05-17T21:28:27Z</time>
      </trkpt>
      <trkpt lat="49.33303" lon="-0.6801">
        <ele>60.5</ele>
        <time>2023-05-17T21:28:30Z</time>
      </trkpt>
      <trkpt lat="49.3331" lon="-0.6804">
        <ele>60.4</ele>
        <time>2023-05-17T21:28:33Z</time>
      </trkpt>
      <trkpt lat="49.33317" lon="-0.6807">
        <ele>60.3</ele>
        <time>2023-05-17T21:28:36Z</time>
      </trkpt>
      <trkpt lat="49.33322" lon="-0.68101">
        <ele>60.2</ele>
        <time>2023-05-17T21:28:39Z</time>
      </trkpt>
      <trkpt lat="49.33328" lon="-0.68131">
        <ele>60</ele>
        <time>2023-05-17T21:28:42Z</time>
      </trkpt>
      <trkpt lat="49.33332" lon="-0.68163">
        <ele>59.8</ele>
        <time>2023-05-17T21:28:45Z</time>
      </trkpt>
      <trkpt lat="49.33336" lon="-0.68194">
        <ele>59.6</ele>
        <time>2023-05-17T21:28:48Z</time>
      </trkpt>
      <trkpt lat="49.33339" lon="-0.68226">
        <ele>59.3</ele>
        <time>2023-05-17T21:28:51Z</time>
      </trkpt>
      <trkpt lat="49.33341" lon="-0.6826">
        <ele>59</ele>
        <time>2023-05-17T21:28:54Z</time>
      </trkpt>
      <trkpt lat="49.33342" lon="-0.68293">
        <ele>58.6</ele>
        <time>2023-05-17T21:28:57Z</time>
      </trkpt>
      <trkpt lat="49.33343" lon="-0.68327">
        <ele>58.2</ele>
        <time>2023-05-17T21:29:00Z</time>
      </trkpt>
      <trkpt lat="49.33344" lon="-0.68363">
        <ele>57.9</ele>
        <time>2023-05-17T21:29:03Z</time>
      </trkpt>
      <trkpt lat="49.33346" lon="-0.68398">
        <ele>57.5</ele>
        <time>2023-05-17T21:29:06Z</time>
      </trkpt>
      <trkpt lat="49.3335" lon="-0.68432">
        <ele>57.2</ele>
        <time>2023-05-17T21:29:09Z</time>
      </trkpt>
      <trkpt lat="49.33356" lon="-0.68467">
        <ele>57</ele>
        <time>2023-05-17T21:29:12Z</time>
      </trkpt>
      <trkpt lat="49.33365" lon="-0.68499">
        <ele>56.9</ele>
        <time>2023-05-17T21:29:15Z</time>
      </trkpt>
      <trkpt lat="49.33374" lon="-0.68529">
        <ele>56.9</ele>
        <time>2023-05-17T21:29:18Z</time>
      </trkpt>
      <trkpt lat="49.33382" lon="-0.6856">
        <ele>56.8</ele>
        <time>2023-05-17T21:29:21Z</time>
      </trkpt>
      <trkpt lat="49.33389" lon="-0.68591">
        <ele>56.8</ele>
        <time>2023-05-17T21:29:24Z</time>
      </trkpt>
      <trkpt lat="49.33394" lon="-0.68623">
        <ele>56.9</ele>
        <time>2023-05-17T21:29:27Z</time>
      </trkpt>
      <trkpt lat="49.33395" lon="-0.68654">
        <ele>56.9</ele>
        <time>2023-05-17T21:29:30Z</time>
      </trkpt>
      <trkpt lat="49.33396" lon="-0.68686">
        <ele>56.8</ele>
        <time>2023-05-17T21:29:33Z</time>
      </trkpt>
      <trkpt lat="49.33398" lon="-0.68717">
        <ele>56.9</ele>
        <time>2023-05-17T21:29:36Z</time>
      </trkpt>
      <trkpt lat="49.33402" lon="-0.6875">
        <ele>56.9</ele>
        <time>2023-05-17T21:29:39Z</time>
      </trkpt>
      <trkpt lat="49.33406" lon="-0.68781">
        <ele>57</ele>
        <time>2023-05-17T21:29:42Z</time>
      </trkpt>
      <trkpt lat="49.33411" lon="-0.68811">
        <ele>57</ele>
        <time>2023-05-17T21:29:45Z</time>
      </trkpt>
      <trkpt lat="49.33418" lon="-0.6884">
        <ele>57</ele>
        <time>2023-05-17T21:29:48Z</time>
      </trkpt>
      <trkpt lat="49.33427" lon="-0.68866">
        <ele>57.1</ele>
        <time>2023-05-17T21:29:51Z</time>
      </trkpt>
      <trkpt lat="49.33437" lon="-0.68893">
        <ele>57.1</ele>
        <time>2023-05-17T21:29:54Z</time>
      </trkpt>
      <trkpt lat="49.33447" lon="-0.6892">
        <ele>57.1</ele>
        <time>2023-05-17T21:29:57Z</time>
      </trkpt>
      <trkpt lat="49.33457" lon="-0.68948">
        <ele>57.1</ele>
        <time>2023-05-17T21:30:00Z</time>
      </trkpt>
      <trkpt lat="49.33467" lon="-0.68976">
        <ele>57.1</ele>
        <time>2023-05-17T21:30:03Z</time>
      </trkpt>
      <trkpt lat="49.33475" lon="-0.69003">
        <ele>57.1</ele>
        <time>2023-05-17T21:30:06Z</time>
      </trkpt>
      <trkpt lat="49.33481" lon="-0.69032">
        <ele>57.1</ele>
        <time>2023-05-17T21:30:09Z</time>
      </trkpt>
      <trkpt lat="49.33488" lon="-0.69063">
        <ele>57</ele>
        <time>2023-05-17T21:30:12Z</time>
      </trkpt>
      <trkpt lat="49.33495" lon="-0.69094">
        <ele>57</ele>
        <time>2023-05-17T21:30:15Z</time>
      </trkpt>
      <trkpt lat="49.33501" lon="-0.69124">
        <ele>56.9</ele>
        <time>2023-05-17T21:30:18Z</time>
      </trkpt>
      <trkpt lat="49.33507" lon="-0.69154">
        <ele>56.8</ele>
        <time>2023-05-17T21:30:21Z</time>
      </trkpt>
      <trkpt lat="49.33514" lon="-0.69182">
        <ele>56.8</ele>
        <time>2023-05-17T21:30:24Z</time>
      </trkpt>
      <trkpt lat="49.33519" lon="-0.69212">
        <ele>56.7</ele>
        <time>2023-05-17T21:30:27Z</time>
      </trkpt>
      <trkpt lat="49.33526" lon="-0.69242">
        <ele>56.6</ele>
        <time>2023-05-17T21:30:30Z</time>
      </trkpt>
      <trkpt lat="49.33531" lon="-0.69272">
        <ele>56.4</ele>
        <time>2023-05-17T21:30:33Z</time>
      </trkpt>
      <trkpt lat="49.33536" lon="-0.69301">
        <ele>56.3</ele>
        <time>2023-05-17T21:30:36Z</time>
      </trkpt>
      <trkpt lat="49.33542" lon="-0.69331">
        <ele>56.2</ele>
        <time>2023-05-17T21:30:39Z</time>
      </trkpt>
      <trkpt lat="49.33547" lon="-0.69361">
        <ele>56.1</ele>
        <time>2023-05-17T21:30:42Z</time>
      </trkpt>
      <trkpt lat="49.33551" lon="-0.69389">
        <ele>55.9</ele>
        <time>2023-05-17T21:30:45Z</time>
      </trkpt>
      <trkpt lat="49.33553" lon="-0.69423">
        <ele>55.6</ele>
        <time>2023-05-17T21:30:48Z</time>
      </trkpt>
      <trkpt lat="49.33555" lon="-0.69453">
        <ele>55.3</ele>
        <time>2023-05-17T21:30:51Z</time>
      </trkpt>
      <trkpt lat="49.33558" lon="-0.69486">
        <ele>54.9</ele>
        <time>2023-05-17T21:30:54Z</time>
      </trkpt>
      <trkpt lat="49.33561" lon="-0.6952">
        <ele>54.3</ele>
        <time>2023-05-17T21:30:57Z</time>
      </trkpt>
      <trkpt lat="49.33564" lon="-0.69556">
        <ele>53.4</ele>
        <time>2023-05-17T21:31:00Z</time>
      </trkpt>
      <trkpt lat="49.33569" lon="-0.69591">
        <ele>52.7</ele>
        <time>2023-05-17T21:31:03Z</time>
      </trkpt>
      <trkpt lat="49.33574" lon="-0.69625">
        <ele>51.9</ele>
        <time>2023-05-17T21:31:06Z</time>
      </trkpt>
      <trkpt lat="49.33586" lon="-0.69658">
        <ele>51.3</ele>
        <time>2023-05-17T21:31:09Z</time>
      </trkpt>
      <trkpt lat="49.33599" lon="-0.69686">
        <ele>51.5</ele>
        <time>2023-05-17T21:31:12Z</time>
      </trkpt>
      <trkpt lat="49.33603" lon="-0.69718">
        <ele>51.8</ele>
        <time>2023-05-17T21:31:15Z</time>
      </trkpt>
      <trkpt lat="49.33605" lon="-0.69748">
        <ele>52</ele>
        <time>2023-05-17T21:31:18Z</time>
      </trkpt>
      <trkpt lat="49.33605" lon="-0.69779">
        <ele>52.4</ele>
        <time>2023-05-17T21:31:21Z</time>
      </trkpt>
      <trkpt lat="49.33602" lon="-0.69807">
        <ele>52.9</ele>
        <time>2023-05-17T21:31:24Z</time>
      </trkpt>
      <trkpt lat="49.33596" lon="-0.69842">
        <ele>53.6</ele>
        <time>2023-05-17T21:31:28Z</time>
      </trkpt>
      <trkpt lat="49.33589" lon="-0.69877">
        <ele>54.3</ele>
        <time>2023-05-17T21:31:32Z</time>
      </trkpt>
      <trkpt lat="49.33582" lon="-0.69911">
        <ele>54.8</ele>
        <time>2023-05-17T21:31:36Z</time>
      </trkpt>
      <trkpt lat="49.33576" lon="-0.69944">
        <ele>55.3</ele>
        <time>2023-05-17T21:31:40Z</time>
      </trkpt>
      <trkpt lat="49.3357" lon="-0.69977">
        <ele>55.6</ele>
        <time>2023-05-17T21:31:44Z</time>
      </trkpt>
      <trkpt lat="49.33562" lon="-0.7001">
        <ele>55.9</ele>
        <time>2023-05-17T21:31:48Z</time>
      </trkpt>
      <trkpt lat="49.33555" lon="-0.70045">
        <ele>56.2</ele>
        <time>2023-05-17T21:31:52Z</time>
      </trkpt>
      <trkpt lat="49.3355" lon="-0.70072">
        <ele>56.3</ele>
        <time>2023-05-17T21:31:55Z</time>
      </trkpt>
      <trkpt lat="49.33543" lon="-0.70107">
        <ele>56.5</ele>
        <time>2023-05-17T21:31:59Z</time>
      </trkpt>
      <trkpt lat="49.33537" lon="-0.70134">
        <ele>56.6</ele>
        <time>2023-05-17T21:32:02Z</time>
      </trkpt>
      <trkpt lat="49.33532" lon="-0.70161">
        <ele>56.7</ele>
        <time>2023-05-17T21:32:05Z</time>
      </trkpt>
      <trkpt lat="49.33527" lon="-0.70189">
        <ele>56.7</ele>
        <time>2023-05-17T21:32:08Z</time>
      </trkpt>
      <trkpt lat="49.33521" lon="-0.70217">
        <ele>56.9</ele>
        <time>2023-05-17T21:32:11Z</time>
      </trkpt>
      <trkpt lat="49.33515" lon="-0.70244">
        <ele>57</ele>
        <time>2023-05-17T21:32:14Z</time>
      </trkpt>
      <trkpt lat="49.33511" lon="-0.70271">
        <ele>57.1</ele>
        <time>2023-05-17T21:32:17Z</time>
      </trkpt>
      <trkpt lat="49.33508" lon="-0.703">
        <ele>57.2</ele>
        <time>2023-05-17T21:32:20Z</time>
      </trkpt>
      <trkpt lat="49.33508" lon="-0.70328">
        <ele>57.2</ele>
        <time>2023-05-17T21:32:23Z</time>
      </trkpt>
      <trkpt lat="49.33508" lon="-0.70356">
        <ele>57.3</ele>
        <time>2023-05-17T21:32:26Z</time>
      </trkpt>
      <trkpt lat="49.3351" lon="-0.70385">
        <ele>57.4</ele>
        <time>2023-05-17T21:32:29Z</time>
      </trkpt>
      <trkpt lat="49.33511" lon="-0.70414">
        <ele>57.3</ele>
        <time>2023-05-17T21:32:32Z</time>
      </trkpt>
      <trkpt lat="49.33514" lon="-0.70444">
        <ele>57.2</ele>
        <time>2023-05-17T21:32:35Z</time>
      </trkpt>
      <trkpt lat="49.33517" lon="-0.70471">
        <ele>57.1</ele>
        <time>2023-05-17T21:32:38Z</time>
      </trkpt>
      <trkpt lat="49.33519" lon="-0.70503">
        <ele>56.7</ele>
        <time>2023-05-17T21:32:41Z</time>
      </trkpt>
      <trkpt lat="49.33522" lon="-0.70534">
        <ele>56.2</ele>
        <time>2023-05-17T21:32:44Z</time>
      </trkpt>
      <trkpt lat="49.33525" lon="-0.70567">
        <ele>55.6</ele>
        <time>2023-05-17T21:32:47Z</time>
      </trkpt>
      <trkpt lat="49.3353" lon="-0.70598">
        <ele>55</ele>
        <time>2023-05-17T21:32:50Z</time>
      </trkpt>
      <trkpt lat="49.33533" lon="-0.70631">
        <ele>54.3</ele>
        <time>2023-05-17T21:32:53Z</time>
      </trkpt>
      <trkpt lat="49.33541" lon="-0.70663">
        <ele>53.4</ele>
        <time>2023-05-17T21:32:56Z</time>
      </trkpt>
      <trkpt lat="49.33555" lon="-0.70691">
        <ele>52.9</ele>
        <time>2023-05-17T21:32:59Z</time>
      </trkpt>
      <trkpt lat="49.3357" lon="-0.70722">
        <ele>52.8</ele>
        <time>2023-05-17T21:33:02Z</time>
      </trkpt>
      <trkpt lat="49.33585" lon="-0.70752">
        <ele>53.1</ele>
        <time>2023-05-17T21:33:05Z</time>
      </trkpt>
      <trkpt lat="49.33596" lon="-0.70781">
        <ele>53.5</ele>
        <time>2023-05-17T21:33:08Z</time>
      </trkpt>
      <trkpt lat="49.33605" lon="-0.70809">
        <ele>54.1</ele>
        <time>2023-05-17T21:33:11Z</time>
      </trkpt>
      <trkpt lat="49.33615" lon="-0.7084">
        <ele>54.8</ele>
        <time>2023-05-17T21:33:15Z</time>
      </trkpt>
      <trkpt lat="49.33623" lon="-0.70872">
        <ele>55.6</ele>
        <time>2023-05-17T21:33:19Z</time>
      </trkpt>
      <trkpt lat="49.33629" lon="-0.70902">
        <ele>56.4</ele>
        <time>2023-05-17T21:33:23Z</time>
      </trkpt>
      <trkpt lat="49.3364" lon="-0.70931">
        <ele>57.2</ele>
        <time>2023-05-17T21:33:27Z</time>
      </trkpt>
      <trkpt lat="49.3365" lon="-0.70958">
        <ele>57.8</ele>
        <time>2023-05-17T21:33:31Z</time>
      </trkpt>
      <trkpt lat="49.33659" lon="-0.70985">
        <ele>58.4</ele>
        <time>2023-05-17T21:33:35Z</time>
      </trkpt>
      <trkpt lat="49.3367" lon="-0.71011">
        <ele>59</ele>
        <time>2023-05-17T21:33:39Z</time>
      </trkpt>
      <trkpt lat="49.3368" lon="-0.71039">
        <ele>59.6</ele>
        <time>2023-05-17T21:33:43Z</time>
      </trkpt>
      <trkpt lat="49.33689" lon="-0.71065">
        <ele>60.3</ele>
        <time>2023-05-17T21:33:47Z</time>
      </trkpt>
      <trkpt lat="49.33697" lon="-0.71091">
        <ele>60.8</ele>
        <time>2023-05-17T21:33:51Z</time>
      </trkpt>
      <trkpt lat="49.33705" lon="-0.71118">
        <ele>61.4</ele>
        <time>2023-05-17T21:33:55Z</time>
      </trkpt>
      <trkpt lat="49.33712" lon="-0.71144">
        <ele>62</ele>
        <time>2023-05-17T21:33:59Z</time>
      </trkpt>
      <trkpt lat="49.33719" lon="-0.71171">
        <ele>62.7</ele>
        <time>2023-05-17T21:34:03Z</time>
      </trkpt>
      <trkpt lat="49.33725" lon="-0.71197">
        <ele>63.4</ele>
        <time>2023-05-17T21:34:07Z</time>
      </trkpt>
      <trkpt lat="49.3373" lon="-0.71224">
        <ele>64.1</ele>
        <time>2023-05-17T21:34:11Z</time>
      </trkpt>
      <trkpt lat="49.33736" lon="-0.71256">
        <ele>65</ele>
        <time>2023-05-17T21:34:16Z</time>
      </trkpt>
      <trkpt lat="49.33742" lon="-0.71287">
        <ele>66</ele>
        <time>2023-05-17T21:34:21Z</time>
      </trkpt>
      <trkpt lat="49.33751" lon="-0.71317">
        <ele>66.9</ele>
        <time>2023-05-17T21:34:26Z</time>
      </trkpt>
      <trkpt lat="49.33764" lon="-0.71342">
        <ele>67.8</ele>
        <time>2023-05-17T21:34:31Z</time>
      </trkpt>
      <trkpt lat="49.33778" lon="-0.71365">
        <ele>68.7</ele>
        <time>2023-05-17T21:34:36Z</time>
      </trkpt>
      <trkpt lat="49.33792" lon="-0.71386">
        <ele>69.3</ele>
        <time>2023-05-17T21:34:41Z</time>
      </trkpt>
      <trkpt lat="49.33804" lon="-0.71411">
        <ele>70.1</ele>
        <time>2023-05-17T21:34:46Z</time>
      </trkpt>
      <trkpt lat="49.33812" lon="-0.71439">
        <ele>70.8</ele>
        <time>2023-05-17T21:34:51Z</time>
      </trkpt>
      <trkpt lat="49.33821" lon="-0.71468">
        <ele>71.5</ele>
        <time>2023-05-17T21:34:56Z</time>
      </trkpt>
      <trkpt lat="49.33831" lon="-0.71492">
        <ele>72.1</ele>
        <time>2023-05-17T21:35:00Z</time>
      </trkpt>
      <trkpt lat="49.33841" lon="-0.71517">
        <ele>72.4</ele>
        <time>2023-05-17T21:35:04Z</time>
      </trkpt>
      <trkpt lat="49.33853" lon="-0.71543">
        <ele>72.7</ele>
        <time>2023-05-17T21:35:08Z</time>
      </trkpt>
      <trkpt lat="49.33863" lon="-0.71571">
        <ele>72.9</ele>
        <time>2023-05-17T21:35:12Z</time>
      </trkpt>
      <trkpt lat="49.33875" lon="-0.71599">
        <ele>73.2</ele>
        <time>2023-05-17T21:35:16Z</time>
      </trkpt>
      <trkpt lat="49.33884" lon="-0.71627">
        <ele>73.3</ele>
        <time>2023-05-17T21:35:20Z</time>
      </trkpt>
      <trkpt lat="49.33895" lon="-0.71653">
        <ele>73.5</ele>
        <time>2023-05-17T21:35:24Z</time>
      </trkpt>
      <trkpt lat="49.33905" lon="-0.71683">
        <ele>73.6</ele>
        <time>2023-05-17T21:35:28Z</time>
      </trkpt>
      <trkpt lat="49.33912" lon="-0.71716">
        <ele>73.7</ele>
        <time>2023-05-17T21:35:32Z</time>
      </trkpt>
      <trkpt lat="49.33917" lon="-0.71747">
        <ele>73.7</ele>
        <time>2023-05-17T21:35:36Z</time>
      </trkpt>
      <trkpt lat="49.33919" lon="-0.71781">
        <ele>73.8</ele>
        <time>2023-05-17T21:35:40Z</time>
      </trkpt>
      <trkpt lat="49.33922" lon="-0.71815">
        <ele>73.8</ele>
        <time>2023-05-17T21:35:44Z</time>
      </trkpt>
      <trkpt lat="49.33921" lon="-0.71849">
        <ele>73.8</ele>
        <time>2023-05-17T21:35:48Z</time>
      </trkpt>
      <trkpt lat="49.33918" lon="-0.71876">
        <ele>73.6</ele>
        <time>2023-05-17T21:35:51Z</time>
      </trkpt>
      <trkpt lat="49.33916" lon="-0.71904">
        <ele>73.4</ele>
        <time>2023-05-17T21:35:54Z</time>
      </trkpt>
      <trkpt lat="49.33914" lon="-0.71933">
        <ele>73.2</ele>
        <time>2023-05-17T21:35:57Z</time>
      </trkpt>
      <trkpt lat="49.33913" lon="-0.71963">
        <ele>72.9</ele>
        <time>2023-05-17T21:36:00Z</time>
      </trkpt>
      <trkpt lat="49.33911" lon="-0.71994">
        <ele>72.6</ele>
        <time>2023-05-17T21:36:03Z</time>
      </trkpt>
      <trkpt lat="49.33909" lon="-0.72025">
        <ele>72.3</ele>
        <time>2023-05-17T21:36:06Z</time>
      </trkpt>
      <trkpt lat="49.33902" lon="-0.72053">
        <ele>71.9</ele>
        <time>2023-05-17T21:36:09Z</time>
      </trkpt>
      <trkpt lat="49.33887" lon="-0.72067">
        <ele>71.4</ele>
        <time>2023-05-17T21:36:12Z</time>
      </trkpt>
      <trkpt lat="49.33865" lon="-0.72063">
        <ele>70.7</ele>
        <time>2023-05-17T21:36:15Z</time>
      </trkpt>
      <trkpt lat="49.33844" lon="-0.72058">
        <ele>70.1</ele>
        <time>2023-05-17T21:36:18Z</time>
      </trkpt>
      <trkpt lat="49.33822" lon="-0.72063">
        <ele>69.7</ele>
        <time>2023-05-17T21:36:21Z</time>
      </trkpt>
      <trkpt lat="49.33807" lon="-0.72088">
        <ele>69.4</ele>
        <time>2023-05-17T21:36:24Z</time>
      </trkpt>
      <trkpt lat="49.33804" lon="-0.72121">
        <ele>68.9</ele>
        <time>2023-05-17T21:36:27Z</time>
      </trkpt>
      <trkpt lat="49.33801" lon="-0.72153">
        <ele>68.5</ele>
        <time>2023-05-17T21:36:30Z</time>
      </trkpt>
      <trkpt lat="49.33797" lon="-0.72187">
        <ele>68.3</ele>
        <time>2023-05-17T21:36:33Z</time>
      </trkpt>
      <trkpt lat="49.33794" lon="-0.72219">
        <ele>68.2</ele>
        <time>2023-05-17T21:36:36Z</time>
      </trkpt>
      <trkpt lat="49.33789" lon="-0.7225">
        <ele>68</ele>
        <time>2023-05-17T21:36:39Z</time>
      </trkpt>
      <trkpt lat="49.33784" lon="-0.72282">
        <ele>67.8</ele>
        <time>2023-05-17T21:36:42Z</time>
      </trkpt>
      <trkpt lat="49.33778" lon="-0.72314">
        <ele>67.7</ele>
        <time>2023-05-17T21:36:45Z</time>
      </trkpt>
      <trkpt lat="49.33772" lon="-0.72346">
        <ele>67.6</ele>
        <time>2023-05-17T21:36:48Z</time>
      </trkpt>
      <trkpt lat="49.33765" lon="-0.72376">
        <ele>67.4</ele>
        <time>2023-05-17T21:36:51Z</time>
      </trkpt>
      <trkpt lat="49.33758" lon="-0.72406">
        <ele>67.3</ele>
        <time>2023-05-17T21:36:54Z</time>
      </trkpt>
      <trkpt lat="49.33751" lon="-0.72437">
        <ele>67.3</ele>
        <time>2023-05-17T21:36:57Z</time>
      </trkpt>
      <trkpt lat="49.33742" lon="-0.72466">
        <ele>67.3</ele>
        <time>2023-05-17T21:37:00Z</time>
      </trkpt>
      <trkpt lat="49.33733" lon="-0.72495">
        <ele>67.4</ele>
        <time>2023-05-17T21:37:03Z</time>
      </trkpt>
      <trkpt lat="49.33724" lon="-0.72524">
        <ele>67.4</ele>
        <time>2023-05-17T21:37:06Z</time>
      </trkpt>
      <trkpt lat="49.33717" lon="-0.72552">
        <ele>67.4</ele>
        <time>2023-05-17T21:37:09Z</time>
      </trkpt>
      <trkpt lat="49.33709" lon="-0.72579">
        <ele>67.2</ele>
        <time>2023-05-17T21:37:12Z</time>
      </trkpt>
      <trkpt lat="49.33701" lon="-0.7261">
        <ele>67.1</ele>
        <time>2023-05-17T21:37:15Z</time>
      </trkpt>
      <trkpt lat="49.33695" lon="-0.72642">
        <ele>67</ele>
        <time>2023-05-17T21:37:18Z</time>
      </trkpt>
      <trkpt lat="49.3369" lon="-0.72673">
        <ele>66.9</ele>
        <time>2023-05-17T21:37:21Z</time>
      </trkpt>
      <trkpt lat="49.33686" lon="-0.72704">
        <ele>66.9</ele>
        <time>2023-05-17T21:37:24Z</time>
      </trkpt>
      <trkpt lat="49.33683" lon="-0.72735">
        <ele>66.8</ele>
        <time>2023-05-17T21:37:27Z</time>
      </trkpt>
      <trkpt lat="49.33681" lon="-0.72767">
        <ele>66.8</ele>
        <time>2023-05-17T21:37:30Z</time>
      </trkpt>
      <trkpt lat="49.33678" lon="-0.72798">
        <ele>66.8</ele>
        <time>2023-05-17T21:37:33Z</time>
      </trkpt>
      <trkpt lat="49.33677" lon="-0.7283">
        <ele>66.7</ele>
        <time>2023-05-17T21:37:36Z</time>
      </trkpt>
      <trkpt lat="49.33676" lon="-0.72862">
        <ele>66.6</ele>
        <time>2023-05-17T21:37:39Z</time>
      </trkpt>
      <trkpt lat="49.33675" lon="-0.72893">
        <ele>66.5</ele>
        <time>2023-05-17T21:37:42Z</time>
      </trkpt>
      <trkpt lat="49.33674" lon="-0.72925">
        <ele>66.4</ele>
        <time>2023-05-17T21:37:45Z</time>
      </trkpt>
      <trkpt lat="49.33674" lon="-0.72957">
        <ele>66.4</ele>
        <time>2023-05-17T21:37:48Z</time>
      </trkpt>
      <trkpt lat="49.33673" lon="-0.72989">
        <ele>66.2</ele>
        <time>2023-05-17T21:37:51Z</time>
      </trkpt>
      <trkpt lat="49.33673" lon="-0.7302">
        <ele>66</ele>
        <time>2023-05-17T21:37:54Z</time>
      </trkpt>
      <trkpt lat="49.33674" lon="-0.73052">
        <ele>65.7</ele>
        <time>2023-05-17T21:37:57Z</time>
      </trkpt>
      <trkpt lat="49.33677" lon="-0.73084">
        <ele>65.5</ele>
        <time>2023-05-17T21:38:00Z</time>
      </trkpt>
      <trkpt lat="49.3368" lon="-0.73116">
        <ele>65.2</ele>
        <time>2023-05-17T21:38:03Z</time>
      </trkpt>
      <trkpt lat="49.33684" lon="-0.73148">
        <ele>65</ele>
        <time>2023-05-17T21:38:06Z</time>
      </trkpt>
      <trkpt lat="49.33687" lon="-0.7318">
        <ele>64.6</ele>
        <time>2023-05-17T21:38:09Z</time>
      </trkpt>
      <trkpt lat="49.33691" lon="-0.73212">
        <ele>64.1</ele>
        <time>2023-05-17T21:38:12Z</time>
      </trkpt>
      <trkpt lat="49.33694" lon="-0.73247">
        <ele>63.5</ele>
        <time>2023-05-17T21:38:15Z</time>
      </trkpt>
      <trkpt lat="49.33699" lon="-0.73282">
        <ele>61.9</ele>
        <time>2023-05-17T21:38:18Z</time>
      </trkpt>
      <trkpt lat="49.33704" lon="-0.73322">
        <ele>59.9</ele>
        <time>2023-05-17T21:38:21Z</time>
      </trkpt>
      <trkpt lat="49.33706" lon="-0.7335">
        <ele>58.1</ele>
        <time>2023-05-17T21:38:23Z</time>
      </trkpt>
      <trkpt lat="49.33708" lon="-0.73381">
        <ele>56.1</ele>
        <time>2023-05-17T21:38:25Z</time>
      </trkpt>
      <trkpt lat="49.33714" lon="-0.73415">
        <ele>53.9</ele>
        <time>2023-05-17T21:38:27Z</time>
      </trkpt>
      <trkpt lat="49.3372" lon="-0.73448">
        <ele>51.6</ele>
        <time>2023-05-17T21:38:29Z</time>
      </trkpt>
      <trkpt lat="49.33726" lon="-0.7348">
        <ele>50</ele>
        <time>2023-05-17T21:38:31Z</time>
      </trkpt>
      <trkpt lat="49.33725" lon="-0.73512">
        <ele>47.8</ele>
        <time>2023-05-17T21:38:33Z</time>
      </trkpt>
      <trkpt lat="49.33715" lon="-0.73542">
        <ele>45.4</ele>
        <time>2023-05-17T21:38:35Z</time>
      </trkpt>
      <trkpt lat="49.33701" lon="-0.7357">
        <ele>43.4</ele>
        <time>2023-05-17T21:38:37Z</time>
      </trkpt>
      <trkpt lat="49.33684" lon="-0.73597">
        <ele>41.4</ele>
        <time>2023-05-17T21:38:39Z</time>
      </trkpt>
      <trkpt lat="49.33667" lon="-0.73624">
        <ele>39.7</ele>
        <time>2023-05-17T21:38:41Z</time>
      </trkpt>
      <trkpt lat="49.3365" lon="-0.73653">
        <ele>37.9</ele>
        <time>2023-05-17T21:38:43Z</time>
      </trkpt>
      <trkpt lat="49.3364" lon="-0.73687">
        <ele>36.1</ele>
        <time>2023-05-17T21:38:45Z</time>
      </trkpt>
      <trkpt lat="49.33639" lon="-0.73723">
        <ele>34.3</ele>
        <time>2023-05-17T21:38:47Z</time>
      </trkpt>
      <trkpt lat="49.33654" lon="-0.73752">
        <ele>32.4</ele>
        <time>2023-05-17T21:38:50Z</time>
      </trkpt>
      <trkpt lat="49.33679" lon="-0.73745">
        <ele>30.6</ele>
        <time>2023-05-17T21:38:53Z</time>
      </trkpt>
      <trkpt lat="49.33705" lon="-0.73735">
        <ele>28.9</ele>
        <time>2023-05-17T21:38:56Z</time>
      </trkpt>
      <trkpt lat="49.33724" lon="-0.73728">
        <ele>27.9</ele>
        <time>2023-05-17T21:38:58Z</time>
      </trkpt>
      <trkpt lat="49.33743" lon="-0.73719">
        <ele>27</ele>
        <time>2023-05-17T21:39:00Z</time>
      </trkpt>
      <trkpt lat="49.33762" lon="-0.73712">
        <ele>26.3</ele>
        <time>2023-05-17T21:39:02Z</time>
      </trkpt>
      <trkpt lat="49.3378" lon="-0.73705">
        <ele>25.9</ele>
        <time>2023-05-17T21:39:04Z</time>
      </trkpt>
      <trkpt lat="49.33806" lon="-0.73695">
        <ele>25.2</ele>
        <time>2023-05-17T21:39:07Z</time>
      </trkpt>
      <trkpt lat="49.33831" lon="-0.7368">
        <ele>24.9</ele>
        <time>2023-05-17T21:39:10Z</time>
      </trkpt>
      <trkpt lat="49.33854" lon="-0.73665">
        <ele>24.4</ele>
        <time>2023-05-17T21:39:13Z</time>
      </trkpt>
      <trkpt lat="49.33875" lon="-0.73671">
        <ele>24.1</ele>
        <time>2023-05-17T21:39:16Z</time>
      </trkpt>
      <trkpt lat="49.33895" lon="-0.7369">
        <ele>23.8</ele>
        <time>2023-05-17T21:39:19Z</time>
      </trkpt>
      <trkpt lat="49.3391" lon="-0.73714">
        <ele>23.5</ele>
        <time>2023-05-17T21:39:22Z</time>
      </trkpt>
      <trkpt lat="49.33922" lon="-0.73738">
        <ele>23.3</ele>
        <time>2023-05-17T21:39:25Z</time>
      </trkpt>
      <trkpt lat="49.33934" lon="-0.73765">
        <ele>22.9</ele>
        <time>2023-05-17T21:39:28Z</time>
      </trkpt>
      <trkpt lat="49.33946" lon="-0.73796">
        <ele>22</ele>
        <time>2023-05-17T21:39:31Z</time>
      </trkpt>
      <trkpt lat="49.33958" lon="-0.73826">
        <ele>20.9</ele>
        <time>2023-05-17T21:39:34Z</time>
      </trkpt>
      <trkpt lat="49.33972" lon="-0.73859">
        <ele>19.6</ele>
        <time>2023-05-17T21:39:37Z</time>
      </trkpt>
      <trkpt lat="49.33986" lon="-0.73894">
        <ele>18.2</ele>
        <time>2023-05-17T21:39:40Z</time>
      </trkpt>
      <trkpt lat="49.33997" lon="-0.73918">
        <ele>17.3</ele>
        <time>2023-05-17T21:39:42Z</time>
      </trkpt>
      <trkpt lat="49.34007" lon="-0.73942">
        <ele>16.5</ele>
        <time>2023-05-17T21:39:44Z</time>
      </trkpt>
      <trkpt lat="49.34017" lon="-0.73966">
        <ele>15.7</ele>
        <time>2023-05-17T21:39:46Z</time>
      </trkpt>
      <trkpt lat="49.34027" lon="-0.73991">
        <ele>15</ele>
        <time>2023-05-17T21:39:48Z</time>
      </trkpt>
      <trkpt lat="49.34037" lon="-0.74017">
        <ele>14.4</ele>
        <time>2023-05-17T21:39:50Z</time>
      </trkpt>
      <trkpt lat="49.34047" lon="-0.74041">
        <ele>13.9</ele>
        <time>2023-05-17T21:39:52Z</time>
      </trkpt>
      <trkpt lat="49.34056" lon="-0.74064">
        <ele>13.4</ele>
        <time>2023-05-17T21:39:54Z</time>
      </trkpt>
      <trkpt lat="49.34071" lon="-0.74099">
        <ele>12.7</ele>
        <time>2023-05-17T21:39:57Z</time>
      </trkpt>
      <trkpt lat="49.34082" lon="-0.74122">
        <ele>12.3</ele>
        <time>2023-05-17T21:39:59Z</time>
      </trkpt>
      <trkpt lat="49.34094" lon="-0.74142">
        <ele>11.9</ele>
        <time>2023-05-17T21:40:01Z</time>
      </trkpt>
      <trkpt lat="49.34112" lon="-0.7417">
        <ele>11.5</ele>
        <time>2023-05-17T21:40:04Z</time>
      </trkpt>
      <trkpt lat="49.34127" lon="-0.742">
        <ele>11.1</ele>
        <time>2023-05-17T21:40:07Z</time>
      </trkpt>
      <trkpt lat="49.34137" lon="-0.74233">
        <ele>10.7</ele>
        <time>2023-05-17T21:40:10Z</time>
      </trkpt>
      <trkpt lat="49.34145" lon="-0.74267">
        <ele>10.5</ele>
        <time>2023-05-17T21:40:13Z</time>
      </trkpt>
      <trkpt lat="49.34154" lon="-0.74302">
        <ele>10.2</ele>
        <time>2023-05-17T21:40:16Z</time>
      </trkpt>
      <trkpt lat="49.34162" lon="-0.74335">
        <ele>10</ele>
        <time>2023-05-17T21:40:19Z</time>
      </trkpt>
      <trkpt lat="49.34169" lon="-0.74368">
        <ele>9.9</ele>
        <time>2023-05-17T21:40:22Z</time>
      </trkpt>
      <trkpt lat="49.34177" lon="-0.744">
        <ele>9.8</ele>
        <time>2023-05-17T21:40:25Z</time>
      </trkpt>
      <trkpt lat="49.34185" lon="-0.74433">
        <ele>9.8</ele>
        <time>2023-05-17T21:40:28Z</time>
      </trkpt>
      <trkpt lat="49.34192" lon="-0.74465">
        <ele>9.8</ele>
        <time>2023-05-17T21:40:31Z</time>
      </trkpt>
      <trkpt lat="49.34199" lon="-0.74497">
        <ele>9.7</ele>
        <time>2023-05-17T21:40:34Z</time>
      </trkpt>
      <trkpt lat="49.34207" lon="-0.7453">
        <ele>9.6</ele>
        <time>2023-05-17T21:40:37Z</time>
      </trkpt>
      <trkpt lat="49.34215" lon="-0.74562">
        <ele>9.6</ele>
        <time>2023-05-17T21:40:40Z</time>
      </trkpt>
      <trkpt lat="49.34222" lon="-0.74594">
        <ele>9.5</ele>
        <time>2023-05-17T21:40:43Z</time>
      </trkpt>
      <trkpt lat="49.34229" lon="-0.74624">
        <ele>9.4</ele>
        <time>2023-05-17T21:40:46Z</time>
      </trkpt>
      <trkpt lat="49.34237" lon="-0.74654">
        <ele>9.3</ele>
        <time>2023-05-17T21:40:49Z</time>
      </trkpt>
      <trkpt lat="49.34244" lon="-0.74686">
        <ele>9.2</ele>
        <time>2023-05-17T21:40:52Z</time>
      </trkpt>
      <trkpt lat="49.34251" lon="-0.74717">
        <ele>9.1</ele>
        <time>2023-05-17T21:40:55Z</time>
      </trkpt>
      <trkpt lat="49.34258" lon="-0.74747">
        <ele>9.1</ele>
        <time>2023-05-17T21:40:58Z</time>
      </trkpt>
      <trkpt lat="49.34264" lon="-0.74779">
        <ele>9</ele>
        <time>2023-05-17T21:41:01Z</time>
      </trkpt>
      <trkpt lat="49.3427" lon="-0.7481">
        <ele>8.9</ele>
        <time>2023-05-17T21:41:04Z</time>
      </trkpt>
      <trkpt lat="49.34276" lon="-0.74841">
        <ele>8.9</ele>
        <time>2023-05-17T21:41:07Z</time>
      </trkpt>
      <trkpt lat="49.34281" lon="-0.74872">
        <ele>8.8</ele>
        <time>2023-05-17T21:41:10Z</time>
      </trkpt>
      <trkpt lat="49.34284" lon="-0.74902">
        <ele>8.7</ele>
        <time>2023-05-17T21:41:13Z</time>
      </trkpt>
      <trkpt lat="49.34288" lon="-0.74933">
        <ele>8.7</ele>
        <time>2023-05-17T21:41:16Z</time>
      </trkpt>
      <trkpt lat="49.34292" lon="-0.74964">
        <ele>8.6</ele>
        <time>2023-05-17T21:41:19Z</time>
      </trkpt>
      <trkpt lat="49.34296" lon="-0.74995">
        <ele>8.5</ele>
        <time>2023-05-17T21:41:22Z</time>
      </trkpt>
      <trkpt lat="49.34301" lon="-0.75027">
        <ele>8.4</ele>
        <time>2023-05-17T21:41:25Z</time>
      </trkpt>
      <trkpt lat="49.34306" lon="-0.75057">
        <ele>8.4</ele>
        <time>2023-05-17T21:41:28Z</time>
      </trkpt>
      <trkpt lat="49.3431" lon="-0.75087">
        <ele>8.3</ele>
        <time>2023-05-17T21:41:31Z</time>
      </trkpt>
      <trkpt lat="49.34315" lon="-0.75117">
        <ele>8.3</ele>
        <time>2023-05-17T21:41:34Z</time>
      </trkpt>
      <trkpt lat="49.3432" lon="-0.75147">
        <ele>8.6</ele>
        <time>2023-05-17T21:41:37Z</time>
      </trkpt>
      <trkpt lat="49.34325" lon="-0.75175">
        <ele>9</ele>
        <time>2023-05-17T21:41:40Z</time>
      </trkpt>
      <trkpt lat="49.34333" lon="-0.75209">
        <ele>9.6</ele>
        <time>2023-05-17T21:41:44Z</time>
      </trkpt>
      <trkpt lat="49.34342" lon="-0.7524">
        <ele>10.1</ele>
        <time>2023-05-17T21:41:48Z</time>
      </trkpt>
      <trkpt lat="49.34348" lon="-0.75268">
        <ele>10.6</ele>
        <time>2023-05-17T21:41:52Z</time>
      </trkpt>
      <trkpt lat="49.34352" lon="-0.75297">
        <ele>11.7</ele>
        <time>2023-05-17T21:41:56Z</time>
      </trkpt>
      <trkpt lat="49.34356" lon="-0.75325">
        <ele>12.2</ele>
        <time>2023-05-17T21:42:00Z</time>
      </trkpt>
      <trkpt lat="49.3436" lon="-0.75353">
        <ele>12.7</ele>
        <time>2023-05-17T21:42:04Z</time>
      </trkpt>
      <trkpt lat="49.34366" lon="-0.75385">
        <ele>13.5</ele>
        <time>2023-05-17T21:42:09Z</time>
      </trkpt>
      <trkpt lat="49.34371" lon="-0.75416">
        <ele>14.3</ele>
        <time>2023-05-17T21:42:14Z</time>
      </trkpt>
      <trkpt lat="49.34372" lon="-0.75448">
        <ele>14.7</ele>
        <time>2023-05-17T21:42:19Z</time>
      </trkpt>
      <trkpt lat="49.34367" lon="-0.75479">
        <ele>15.6</ele>
        <time>2023-05-17T21:42:24Z</time>
      </trkpt>
      <trkpt lat="49.34366" lon="-0.75512">
        <ele>16.6</ele>
        <time>2023-05-17T21:42:29Z</time>
      </trkpt>
      <trkpt lat="49.34368" lon="-0.75545">
        <ele>17.5</ele>
        <time>2023-05-17T21:42:34Z</time>
      </trkpt>
      <trkpt lat="49.34368" lon="-0.75578">
        <ele>18.1</ele>
        <time>2023-05-17T21:42:39Z</time>
      </trkpt>
      <trkpt lat="49.34367" lon="-0.75611">
        <ele>18.7</ele>
        <time>2023-05-17T21:42:44Z</time>
      </trkpt>
      <trkpt lat="49.34369" lon="-0.75643">
        <ele>19.3</ele>
        <time>2023-05-17T21:42:49Z</time>
      </trkpt>
      <trkpt lat="49.34372" lon="-0.75677">
        <ele>19.9</ele>
        <time>2023-05-17T21:42:54Z</time>
      </trkpt>
      <trkpt lat="49.34379" lon="-0.75709">
        <ele>20.4</ele>
        <time>2023-05-17T21:42:59Z</time>
      </trkpt>
      <trkpt lat="49.34385" lon="-0.75735">
        <ele>20.8</ele>
        <time>2023-05-17T21:43:03Z</time>
      </trkpt>
      <trkpt lat="49.34391" lon="-0.75763">
        <ele>21.2</ele>
        <time>2023-05-17T21:43:07Z</time>
      </trkpt>
      <trkpt lat="49.34398" lon="-0.75792">
        <ele>21.7</ele>
        <time>2023-05-17T21:43:11Z</time>
      </trkpt>
      <trkpt lat="49.34403" lon="-0.75821">
        <ele>22</ele>
        <time>2023-05-17T21:43:15Z</time>
      </trkpt>
      <trkpt lat="49.34405" lon="-0.75852">
        <ele>22.3</ele>
        <time>2023-05-17T21:43:19Z</time>
      </trkpt>
      <trkpt lat="49.34405" lon="-0.75882">
        <ele>22.6</ele>
        <time>2023-05-17T21:43:23Z</time>
      </trkpt>
      <trkpt lat="49.34402" lon="-0.75912">
        <ele>23</ele>
        <time>2023-05-17T21:43:27Z</time>
      </trkpt>
      <trkpt lat="49.34396" lon="-0.75943">
        <ele>23.4</ele>
        <time>2023-05-17T21:43:31Z</time>
      </trkpt>
      <trkpt lat="49.34392" lon="-0.75974">
        <ele>23.6</ele>
        <time>2023-05-17T21:43:35Z</time>
      </trkpt>
      <trkpt lat="49.34388" lon="-0.76006">
        <ele>23.8</ele>
        <time>2023-05-17T21:43:39Z</time>
      </trkpt>
      <trkpt lat="49.34384" lon="-0.76039">
        <ele>23.9</ele>
        <time>2023-05-17T21:43:43Z</time>
      </trkpt>
      <trkpt lat="49.34378" lon="-0.76074">
        <ele>24.1</ele>
        <time>2023-05-17T21:43:47Z</time>
      </trkpt>
      <trkpt lat="49.34374" lon="-0.76109">
        <ele>24.4</ele>
        <time>2023-05-17T21:43:51Z</time>
      </trkpt>
      <trkpt lat="49.34372" lon="-0.76137">
        <ele>24.7</ele>
        <time>2023-05-17T21:43:54Z</time>
      </trkpt>
      <trkpt lat="49.34368" lon="-0.76172">
        <ele>25.2</ele>
        <time>2023-05-17T21:43:58Z</time>
      </trkpt>
      <trkpt lat="49.34365" lon="-0.76206">
        <ele>25.7</ele>
        <time>2023-05-17T21:44:02Z</time>
      </trkpt>
      <trkpt lat="49.34362" lon="-0.76237">
        <ele>26.3</ele>
        <time>2023-05-17T21:44:06Z</time>
      </trkpt>
      <trkpt lat="49.34358" lon="-0.76267">
        <ele>26.8</ele>
        <time>2023-05-17T21:44:10Z</time>
      </trkpt>
      <trkpt lat="49.34356" lon="-0.76297">
        <ele>27.3</ele>
        <time>2023-05-17T21:44:14Z</time>
      </trkpt>
      <trkpt lat="49.34355" lon="-0.76328">
        <ele>27.8</ele>
        <time>2023-05-17T21:44:18Z</time>
      </trkpt>
      <trkpt lat="49.34353" lon="-0.76358">
        <ele>28.2</ele>
        <time>2023-05-17T21:44:22Z</time>
      </trkpt>
      <trkpt lat="49.3435" lon="-0.76387">
        <ele>28.6</ele>
        <time>2023-05-17T21:44:26Z</time>
      </trkpt>
      <trkpt lat="49.34348" lon="-0.76416">
        <ele>29</ele>
        <time>2023-05-17T21:44:30Z</time>
      </trkpt>
      <trkpt lat="49.34347" lon="-0.76446">
        <ele>29.4</ele>
        <time>2023-05-17T21:44:34Z</time>
      </trkpt>
      <trkpt lat="49.34346" lon="-0.76478">
        <ele>29.7</ele>
        <time>2023-05-17T21:44:38Z</time>
      </trkpt>
      <trkpt lat="49.34344" lon="-0.76508">
        <ele>30</ele>
        <time>2023-05-17T21:44:42Z</time>
      </trkpt>
      <trkpt lat="49.34341" lon="-0.76539">
        <ele>30.5</ele>
        <time>2023-05-17T21:44:46Z</time>
      </trkpt>
      <trkpt lat="49.34337" lon="-0.76566">
        <ele>31</ele>
        <time>2023-05-17T21:44:50Z</time>
      </trkpt>
      <trkpt lat="49.34328" lon="-0.76591">
        <ele>31.7</ele>
        <time>2023-05-17T21:44:54Z</time>
      </trkpt>
      <trkpt lat="49.3432" lon="-0.76623">
        <ele>32.4</ele>
        <time>2023-05-17T21:44:59Z</time>
      </trkpt>
      <trkpt lat="49.34316" lon="-0.76651">
        <ele>33.1</ele>
        <time>2023-05-17T21:45:03Z</time>
      </trkpt>
      <trkpt lat="49.34316" lon="-0.76681">
        <ele>33.8</ele>
        <time>2023-05-17T21:45:07Z</time>
      </trkpt>
      <trkpt lat="49.34317" lon="-0.76713">
        <ele>34.7</ele>
        <time>2023-05-17T21:45:12Z</time>
      </trkpt>
      <trkpt lat="49.34318" lon="-0.76741">
        <ele>35.6</ele>
        <time>2023-05-17T21:45:17Z</time>
      </trkpt>
      <trkpt lat="49.3432" lon="-0.76771">
        <ele>36.7</ele>
        <time>2023-05-17T21:45:22Z</time>
      </trkpt>
      <trkpt lat="49.34322" lon="-0.76803">
        <ele>38</ele>
        <time>2023-05-17T21:45:28Z</time>
      </trkpt>
      <trkpt lat="49.34326" lon="-0.76835">
        <ele>39.3</ele>
        <time>2023-05-17T21:45:34Z</time>
      </trkpt>
      <trkpt lat="49.34327" lon="-0.76865">
        <ele>40.6</ele>
        <time>2023-05-17T21:45:40Z</time>
      </trkpt>
      <trkpt lat="49.34333" lon="-0.76895">
        <ele>42.1</ele>
        <time>2023-05-17T21:45:47Z</time>
      </trkpt>
      <trkpt lat="49.34342" lon="-0.76922">
        <ele>43.7</ele>
        <time>2023-05-17T21:45:54Z</time>
      </trkpt>
      <trkpt lat="49.34349" lon="-0.76948">
        <ele>45.2</ele>
        <time>2023-05-17T21:46:00Z</time>
      </trkpt>
      <trkpt lat="49.34358" lon="-0.76975">
        <ele>46.8</ele>
        <time>2023-05-17T21:46:07Z</time>
      </trkpt>
      <trkpt lat="49.34368" lon="-0.77001">
        <ele>48.5</ele>
        <time>2023-05-17T21:46:14Z</time>
      </trkpt>
      <trkpt lat="49.34376" lon="-0.77026">
        <ele>50.1</ele>
        <time>2023-05-17T21:46:21Z</time>
      </trkpt>
      <trkpt lat="49.34385" lon="-0.77051">
        <ele>51.5</ele>
        <time>2023-05-17T21:46:28Z</time>
      </trkpt>
      <trkpt lat="49.34394" lon="-0.77078">
        <ele>53.1</ele>
        <time>2023-05-17T21:46:36Z</time>
      </trkpt>
      <trkpt lat="49.34403" lon="-0.77103">
        <ele>54.6</ele>
        <time>2023-05-17T21:46:43Z</time>
      </trkpt>
      <trkpt lat="49.34411" lon="-0.77129">
        <ele>56.3</ele>
        <time>2023-05-17T21:46:51Z</time>
      </trkpt>
      <trkpt lat="49.3442" lon="-0.77156">
        <ele>58</ele>
        <time>2023-05-17T21:46:59Z</time>
      </trkpt>
      <trkpt lat="49.34426" lon="-0.77185">
        <ele>59.6</ele>
        <time>2023-05-17T21:47:07Z</time>
      </trkpt>
      <trkpt lat="49.3443" lon="-0.77214">
        <ele>61</ele>
        <time>2023-05-17T21:47:14Z</time>
      </trkpt>
      <trkpt lat="49.34432" lon="-0.77245">
        <ele>62.3</ele>
        <time>2023-05-17T21:47:21Z</time>
      </trkpt>
      <trkpt lat="49.3443" lon="-0.77274">
        <ele>63.3</ele>
        <time>2023-05-17T21:47:27Z</time>
      </trkpt>
      <trkpt lat="49.34429" lon="-0.77304">
        <ele>64.3</ele>
        <time>2023-05-17T21:47:33Z</time>
      </trkpt>
      <trkpt lat="49.34429" lon="-0.77336">
        <ele>64.8</ele>
        <time>2023-05-17T21:47:39Z</time>
      </trkpt>
      <trkpt lat="49.34428" lon="-0.77363">
        <ele>65.4</ele>
        <time>2023-05-17T21:47:44Z</time>
      </trkpt>
      <trkpt lat="49.34429" lon="-0.77396">
        <ele>66.1</ele>
        <time>2023-05-17T21:47:50Z</time>
      </trkpt>
      <trkpt lat="49.3443" lon="-0.77425">
        <ele>66.6</ele>
        <time>2023-05-17T21:47:55Z</time>
      </trkpt>
      <trkpt lat="49.34433" lon="-0.77457">
        <ele>66.9</ele>
        <time>2023-05-17T21:48:00Z</time>
      </trkpt>
      <trkpt lat="49.34433" lon="-0.77487">
        <ele>67.2</ele>
        <time>2023-05-17T21:48:04Z</time>
      </trkpt>
      <trkpt lat="49.34435" lon="-0.77519">
        <ele>67.5</ele>
        <time>2023-05-17T21:48:08Z</time>
      </trkpt>
      <trkpt lat="49.34437" lon="-0.77552">
        <ele>67.8</ele>
        <time>2023-05-17T21:48:12Z</time>
      </trkpt>
      <trkpt lat="49.3444" lon="-0.77586">
        <ele>68.1</ele>
        <time>2023-05-17T21:48:16Z</time>
      </trkpt>
      <trkpt lat="49.34445" lon="-0.7762">
        <ele>68.4</ele>
        <time>2023-05-17T21:48:20Z</time>
      </trkpt>
      <trkpt lat="49.34449" lon="-0.77654">
        <ele>68.7</ele>
        <time>2023-05-17T21:48:24Z</time>
      </trkpt>
      <trkpt lat="49.34456" lon="-0.77686">
        <ele>68.9</ele>
        <time>2023-05-17T21:48:28Z</time>
      </trkpt>
      <trkpt lat="49.34463" lon="-0.77712">
        <ele>69</ele>
        <time>2023-05-17T21:48:31Z</time>
      </trkpt>
      <trkpt lat="49.34471" lon="-0.77738">
        <ele>69.2</ele>
        <time>2023-05-17T21:48:34Z</time>
      </trkpt>
      <trkpt lat="49.34479" lon="-0.77763">
        <ele>69.4</ele>
        <time>2023-05-17T21:48:37Z</time>
      </trkpt>
      <trkpt lat="49.34488" lon="-0.77789">
        <ele>69.6</ele>
        <time>2023-05-17T21:48:40Z</time>
      </trkpt>
      <trkpt lat="49.34497" lon="-0.77816">
        <ele>69.8</ele>
        <time>2023-05-17T21:48:43Z</time>
      </trkpt>
      <trkpt lat="49.34504" lon="-0.77844">
        <ele>69.9</ele>
        <time>2023-05-17T21:48:46Z</time>
      </trkpt>
      <trkpt lat="49.34511" lon="-0.77873">
        <ele>70</ele>
        <time>2023-05-17T21:48:49Z</time>
      </trkpt>
      <trkpt lat="49.34517" lon="-0.779">
        <ele>70.1</ele>
        <time>2023-05-17T21:48:52Z</time>
      </trkpt>
      <trkpt lat="49.34523" lon="-0.77929">
        <ele>70.1</ele>
        <time>2023-05-17T21:48:55Z</time>
      </trkpt>
      <trkpt lat="49.34528" lon="-0.77959">
        <ele>70.2</ele>
        <time>2023-05-17T21:48:58Z</time>
      </trkpt>
      <trkpt lat="49.34533" lon="-0.77988">
        <ele>70.2</ele>
        <time>2023-05-17T21:49:01Z</time>
      </trkpt>
      <trkpt lat="49.34538" lon="-0.7802">
        <ele>70.2</ele>
        <time>2023-05-17T21:49:04Z</time>
      </trkpt>
      <trkpt lat="49.34544" lon="-0.78051">
        <ele>70.2</ele>
        <time>2023-05-17T21:49:07Z</time>
      </trkpt>
      <trkpt lat="49.3455" lon="-0.78082">
        <ele>70.1</ele>
        <time>2023-05-17T21:49:10Z</time>
      </trkpt>
      <trkpt lat="49.34558" lon="-0.78113">
        <ele>69.9</ele>
        <time>2023-05-17T21:49:13Z</time>
      </trkpt>
      <trkpt lat="49.34568" lon="-0.78142">
        <ele>69.7</ele>
        <time>2023-05-17T21:49:16Z</time>
      </trkpt>
      <trkpt lat="49.3458" lon="-0.78167">
        <ele>69.6</ele>
        <time>2023-05-17T21:49:19Z</time>
      </trkpt>
      <trkpt lat="49.34594" lon="-0.78191">
        <ele>69.5</ele>
        <time>2023-05-17T21:49:22Z</time>
      </trkpt>
      <trkpt lat="49.34608" lon="-0.78213">
        <ele>69.4</ele>
        <time>2023-05-17T21:49:25Z</time>
      </trkpt>
      <trkpt lat="49.34622" lon="-0.78235">
        <ele>69.3</ele>
        <time>2023-05-17T21:49:28Z</time>
      </trkpt>
      <trkpt lat="49.34636" lon="-0.78257">
        <ele>69.2</ele>
        <time>2023-05-17T21:49:31Z</time>
      </trkpt>
      <trkpt lat="49.34651" lon="-0.78279">
        <ele>69.1</ele>
        <time>2023-05-17T21:49:34Z</time>
      </trkpt>
      <trkpt lat="49.34665" lon="-0.78302">
        <ele>69.1</ele>
        <time>2023-05-17T21:49:37Z</time>
      </trkpt>
      <trkpt lat="49.34678" lon="-0.78326">
        <ele>69</ele>
        <time>2023-05-17T21:49:40Z</time>
      </trkpt>
      <trkpt lat="49.3469" lon="-0.78352">
        <ele>69</ele>
        <time>2023-05-17T21:49:43Z</time>
      </trkpt>
      <trkpt lat="49.347" lon="-0.78378">
        <ele>68.9</ele>
        <time>2023-05-17T21:49:46Z</time>
      </trkpt>
      <trkpt lat="49.3471" lon="-0.78411">
        <ele>68.8</ele>
        <time>2023-05-17T21:49:50Z</time>
      </trkpt>
      <trkpt lat="49.3472" lon="-0.78444">
        <ele>68.5</ele>
        <time>2023-05-17T21:49:54Z</time>
      </trkpt>
      <trkpt lat="49.3473" lon="-0.78477">
        <ele>68.3</ele>
        <time>2023-05-17T21:49:58Z</time>
      </trkpt>
      <trkpt lat="49.34739" lon="-0.78504">
        <ele>68.1</ele>
        <time>2023-05-17T21:50:01Z</time>
      </trkpt>
      <trkpt lat="49.3475" lon="-0.78527">
        <ele>68</ele>
        <time>2023-05-17T21:50:04Z</time>
      </trkpt>
      <trkpt lat="49.34765" lon="-0.78547">
        <ele>67.8</ele>
        <time>2023-05-17T21:50:07Z</time>
      </trkpt>
      <trkpt lat="49.34781" lon="-0.78567">
        <ele>67.6</ele>
        <time>2023-05-17T21:50:10Z</time>
      </trkpt>
      <trkpt lat="49.34797" lon="-0.78585">
        <ele>67.4</ele>
        <time>2023-05-17T21:50:13Z</time>
      </trkpt>
      <trkpt lat="49.34813" lon="-0.78605">
        <ele>67.2</ele>
        <time>2023-05-17T21:50:16Z</time>
      </trkpt>
      <trkpt lat="49.34828" lon="-0.78627">
        <ele>67</ele>
        <time>2023-05-17T21:50:19Z</time>
      </trkpt>
      <trkpt lat="49.34839" lon="-0.78652">
        <ele>66.9</ele>
        <time>2023-05-17T21:50:22Z</time>
      </trkpt>
      <trkpt lat="49.34844" lon="-0.78682">
        <ele>66.7</ele>
        <time>2023-05-17T21:50:25Z</time>
      </trkpt>
      <trkpt lat="49.34847" lon="-0.78714">
        <ele>66.7</ele>
        <time>2023-05-17T21:50:28Z</time>
      </trkpt>
      <trkpt lat="49.34848" lon="-0.78745">
        <ele>66.6</ele>
        <time>2023-05-17T21:50:31Z</time>
      </trkpt>
      <trkpt lat="49.34849" lon="-0.78776">
        <ele>66.5</ele>
        <time>2023-05-17T21:50:34Z</time>
      </trkpt>
      <trkpt lat="49.34849" lon="-0.78807">
        <ele>66.4</ele>
        <time>2023-05-17T21:50:37Z</time>
      </trkpt>
      <trkpt lat="49.34849" lon="-0.78839">
        <ele>66.3</ele>
        <time>2023-05-17T21:50:40Z</time>
      </trkpt>
      <trkpt lat="49.34849" lon="-0.78871">
        <ele>66.2</ele>
        <time>2023-05-17T21:50:43Z</time>
      </trkpt>
      <trkpt lat="49.34849" lon="-0.78901">
        <ele>66.1</ele>
        <time>2023-05-17T21:50:46Z</time>
      </trkpt>
      <trkpt lat="49.34848" lon="-0.78933">
        <ele>66.1</ele>
        <time>2023-05-17T21:50:49Z</time>
      </trkpt>
      <trkpt lat="49.34848" lon="-0.78967">
        <ele>65.9</ele>
        <time>2023-05-17T21:50:52Z</time>
      </trkpt>
      <trkpt lat="49.34847" lon="-0.79">
        <ele>65.8</ele>
        <time>2023-05-17T21:50:55Z</time>
      </trkpt>
      <trkpt lat="49.34847" lon="-0.79033">
        <ele>65.7</ele>
        <time>2023-05-17T21:50:58Z</time>
      </trkpt>
      <trkpt lat="49.34848" lon="-0.79064">
        <ele>65.5</ele>
        <time>2023-05-17T21:51:01Z</time>
      </trkpt>
      <trkpt lat="49.3485" lon="-0.79097">
        <ele>65.4</ele>
        <time>2023-05-17T21:51:04Z</time>
      </trkpt>
      <trkpt lat="49.34854" lon="-0.79129">
        <ele>65</ele>
        <time>2023-05-17T21:51:07Z</time>
      </trkpt>
      <trkpt lat="49.34864" lon="-0.79159">
        <ele>64.5</ele>
        <time>2023-05-17T21:51:10Z</time>
      </trkpt>
      <trkpt lat="49.34878" lon="-0.79189">
        <ele>63.9</ele>
        <time>2023-05-17T21:51:13Z</time>
      </trkpt>
      <trkpt lat="49.34895" lon="-0.79217">
        <ele>63.6</ele>
        <time>2023-05-17T21:51:16Z</time>
      </trkpt>
      <trkpt lat="49.3491" lon="-0.79244">
        <ele>63.6</ele>
        <time>2023-05-17T21:51:19Z</time>
      </trkpt>
      <trkpt lat="49.34924" lon="-0.79269">
        <ele>63.7</ele>
        <time>2023-05-17T21:51:22Z</time>
      </trkpt>
      <trkpt lat="49.34931" lon="-0.79301">
        <ele>63.7</ele>
        <time>2023-05-17T21:51:25Z</time>
      </trkpt>
      <trkpt lat="49.34933" lon="-0.79334">
        <ele>63.7</ele>
        <time>2023-05-17T21:51:28Z</time>
      </trkpt>
      <trkpt lat="49.34931" lon="-0.79366">
        <ele>63.8</ele>
        <time>2023-05-17T21:51:31Z</time>
      </trkpt>
      <trkpt lat="49.3493" lon="-0.79398">
        <ele>63.9</ele>
        <time>2023-05-17T21:51:34Z</time>
      </trkpt>
      <trkpt lat="49.3493" lon="-0.79428">
        <ele>63.9</ele>
        <time>2023-05-17T21:51:37Z</time>
      </trkpt>
      <trkpt lat="49.34929" lon="-0.79458">
        <ele>64</ele>
        <time>2023-05-17T21:51:40Z</time>
      </trkpt>
      <trkpt lat="49.34928" lon="-0.79487">
        <ele>63.9</ele>
        <time>2023-05-17T21:51:43Z</time>
      </trkpt>
      <trkpt lat="49.34926" lon="-0.79517">
        <ele>63.8</ele>
        <time>2023-05-17T21:51:46Z</time>
      </trkpt>
      <trkpt lat="49.34924" lon="-0.79548">
        <ele>63.6</ele>
        <time>2023-05-17T21:51:49Z</time>
      </trkpt>
      <trkpt lat="49.34922" lon="-0.7958">
        <ele>63.5</ele>
        <time>2023-05-17T21:51:52Z</time>
      </trkpt>
      <trkpt lat="49.34919" lon="-0.79612">
        <ele>63.4</ele>
        <time>2023-05-17T21:51:55Z</time>
      </trkpt>
      <trkpt lat="49.34916" lon="-0.79644">
        <ele>63.4</ele>
        <time>2023-05-17T21:51:58Z</time>
      </trkpt>
      <trkpt lat="49.34912" lon="-0.79674">
        <ele>63.4</ele>
        <time>2023-05-17T21:52:01Z</time>
      </trkpt>
      <trkpt lat="49.3491" lon="-0.79705">
        <ele>63.2</ele>
        <time>2023-05-17T21:52:04Z</time>
      </trkpt>
      <trkpt lat="49.34907" lon="-0.79736">
        <ele>63</ele>
        <time>2023-05-17T21:52:07Z</time>
      </trkpt>
      <trkpt lat="49.34903" lon="-0.79767">
        <ele>62.9</ele>
        <time>2023-05-17T21:52:10Z</time>
      </trkpt>
      <trkpt lat="49.34901" lon="-0.798">
        <ele>62.7</ele>
        <time>2023-05-17T21:52:13Z</time>
      </trkpt>
      <trkpt lat="49.34898" lon="-0.79834">
        <ele>62.7</ele>
        <time>2023-05-17T21:52:16Z</time>
      </trkpt>
      <trkpt lat="49.34892" lon="-0.79863">
        <ele>62.7</ele>
        <time>2023-05-17T21:52:19Z</time>
      </trkpt>
      <trkpt lat="49.34881" lon="-0.7989">
        <ele>62.7</ele>
        <time>2023-05-17T21:52:22Z</time>
      </trkpt>
      <trkpt lat="49.34868" lon="-0.79915">
        <ele>62.8</ele>
        <time>2023-05-17T21:52:25Z</time>
      </trkpt>
      <trkpt lat="49.34856" lon="-0.7994">
        <ele>62.9</ele>
        <time>2023-05-17T21:52:28Z</time>
      </trkpt>
      <trkpt lat="49.34844" lon="-0.79965">
        <ele>63</ele>
        <time>2023-05-17T21:52:31Z</time>
      </trkpt>
      <trkpt lat="49.34834" lon="-0.79988">
        <ele>63.1</ele>
        <time>2023-05-17T21:52:34Z</time>
      </trkpt>
      <trkpt lat="49.34821" lon="-0.80011">
        <ele>63.2</ele>
        <time>2023-05-17T21:52:37Z</time>
      </trkpt>
      <trkpt lat="49.34805" lon="-0.80027">
        <ele>63.3</ele>
        <time>2023-05-17T21:52:40Z</time>
      </trkpt>
      <trkpt lat="49.34789" lon="-0.8004">
        <ele>63.3</ele>
        <time>2023-05-17T21:52:43Z</time>
      </trkpt>
      <trkpt lat="49.34776" lon="-0.80059">
        <ele>63.3</ele>
        <time>2023-05-17T21:52:46Z</time>
      </trkpt>
      <trkpt lat="49.34772" lon="-0.80095">
        <ele>63.1</ele>
        <time>2023-05-17T21:52:50Z</time>
      </trkpt>
      <trkpt lat="49.34773" lon="-0.80127">
        <ele>62.9</ele>
        <time>2023-05-17T21:52:53Z</time>
      </trkpt>
      <trkpt lat="49.34773" lon="-0.8016">
        <ele>62.7</ele>
        <time>2023-05-17T21:52:56Z</time>
      </trkpt>
      <trkpt lat="49.34772" lon="-0.80193">
        <ele>62.5</ele>
        <time>2023-05-17T21:52:59Z</time>
      </trkpt>
      <trkpt lat="49.34769" lon="-0.80226">
        <ele>62.2</ele>
        <time>2023-05-17T21:53:02Z</time>
      </trkpt>
      <trkpt lat="49.34765" lon="-0.80259">
        <ele>61.7</ele>
        <time>2023-05-17T21:53:05Z</time>
      </trkpt>
      <trkpt lat="49.34763" lon="-0.80292">
        <ele>61.1</ele>
        <time>2023-05-17T21:53:08Z</time>
      </trkpt>
      <trkpt lat="49.34756" lon="-0.80326">
        <ele>60.2</ele>
        <time>2023-05-17T21:53:11Z</time>
      </trkpt>
      <trkpt lat="49.34748" lon="-0.80362">
        <ele>59.1</ele>
        <time>2023-05-17T21:53:14Z</time>
      </trkpt>
      <trkpt lat="49.34737" lon="-0.80398">
        <ele>57.6</ele>
        <time>2023-05-17T21:53:17Z</time>
      </trkpt>
      <trkpt lat="49.34725" lon="-0.80434">
        <ele>56</ele>
        <time>2023-05-17T21:53:20Z</time>
      </trkpt>
      <trkpt lat="49.34718" lon="-0.8046">
        <ele>55.3</ele>
        <time>2023-05-17T21:53:22Z</time>
      </trkpt>
      <trkpt lat="49.34709" lon="-0.80485">
        <ele>54.4</ele>
        <time>2023-05-17T21:53:24Z</time>
      </trkpt>
      <trkpt lat="49.34698" lon="-0.80523">
        <ele>52.8</ele>
        <time>2023-05-17T21:53:27Z</time>
      </trkpt>
      <trkpt lat="49.34689" lon="-0.80559">
        <ele>51.5</ele>
        <time>2023-05-17T21:53:30Z</time>
      </trkpt>
      <trkpt lat="49.34687" lon="-0.80588">
        <ele>50.8</ele>
        <time>2023-05-17T21:53:32Z</time>
      </trkpt>
      <trkpt lat="49.3469" lon="-0.8062">
        <ele>50.5</ele>
        <time>2023-05-17T21:53:34Z</time>
      </trkpt>
      <trkpt lat="49.34694" lon="-0.80651">
        <ele>50.6</ele>
        <time>2023-05-17T21:53:36Z</time>
      </trkpt>
      <trkpt lat="49.34698" lon="-0.80679">
        <ele>51.3</ele>
        <time>2023-05-17T21:53:38Z</time>
      </trkpt>
      <trkpt lat="49.34705" lon="-0.80713">
        <ele>52.5</ele>
        <time>2023-05-17T21:53:41Z</time>
      </trkpt>
      <trkpt lat="49.34711" lon="-0.80744">
        <ele>53.1</ele>
        <time>2023-05-17T21:53:44Z</time>
      </trkpt>
      <trkpt lat="49.34718" lon="-0.80773">
        <ele>53.8</ele>
        <time>2023-05-17T21:53:48Z</time>
      </trkpt>
      <trkpt lat="49.34731" lon="-0.80799">
        <ele>55</ele>
        <time>2023-05-17T21:53:53Z</time>
      </trkpt>
      <trkpt lat="49.34741" lon="-0.80824">
        <ele>56.5</ele>
        <time>2023-05-17T21:53:58Z</time>
      </trkpt>
      <trkpt lat="49.34756" lon="-0.80843">
        <ele>57.9</ele>
        <time>2023-05-17T21:54:03Z</time>
      </trkpt>
      <trkpt lat="49.34769" lon="-0.80869">
        <ele>59.2</ele>
        <time>2023-05-17T21:54:08Z</time>
      </trkpt>
      <trkpt lat="49.34781" lon="-0.80893">
        <ele>60.4</ele>
        <time>2023-05-17T21:54:13Z</time>
      </trkpt>
      <trkpt lat="49.34793" lon="-0.8092">
        <ele>61.4</ele>
        <time>2023-05-17T21:54:18Z</time>
      </trkpt>
      <trkpt lat="49.34804" lon="-0.80945">
        <ele>62.1</ele>
        <time>2023-05-17T21:54:23Z</time>
      </trkpt>
      <trkpt lat="49.34817" lon="-0.80972">
        <ele>62.9</ele>
        <time>2023-05-17T21:54:28Z</time>
      </trkpt>
      <trkpt lat="49.3483" lon="-0.80999">
        <ele>63.4</ele>
        <time>2023-05-17T21:54:33Z</time>
      </trkpt>
      <trkpt lat="49.34839" lon="-0.81022">
        <ele>63.7</ele>
        <time>2023-05-17T21:54:37Z</time>
      </trkpt>
      <trkpt lat="49.34849" lon="-0.81047">
        <ele>64</ele>
        <time>2023-05-17T21:54:41Z</time>
      </trkpt>
      <trkpt lat="49.34858" lon="-0.81073">
        <ele>64.3</ele>
        <time>2023-05-17T21:54:45Z</time>
      </trkpt>
      <trkpt lat="49.34865" lon="-0.81101">
        <ele>64.5</ele>
        <time>2023-05-17T21:54:49Z</time>
      </trkpt>
      <trkpt lat="49.34869" lon="-0.81131">
        <ele>64.6</ele>
        <time>2023-05-17T21:54:53Z</time>
      </trkpt>
      <trkpt lat="49.34871" lon="-0.81165">
        <ele>64.7</ele>
        <time>2023-05-17T21:54:57Z</time>
      </trkpt>
      <trkpt lat="49.34873" lon="-0.81198">
        <ele>64.8</ele>
        <time>2023-05-17T21:55:01Z</time>
      </trkpt>
      <trkpt lat="49.34875" lon="-0.81232">
        <ele>64.9</ele>
        <time>2023-05-17T21:55:05Z</time>
      </trkpt>
      <trkpt lat="49.34873" lon="-0.81265">
        <ele>65.1</ele>
        <time>2023-05-17T21:55:09Z</time>
      </trkpt>
      <trkpt lat="49.34872" lon="-0.81297">
        <ele>65.4</ele>
        <time>2023-05-17T21:55:13Z</time>
      </trkpt>
      <trkpt lat="49.34875" lon="-0.81328">
        <ele>65.7</ele>
        <time>2023-05-17T21:55:17Z</time>
      </trkpt>
      <trkpt lat="49.34881" lon="-0.81358">
        <ele>65.9</ele>
        <time>2023-05-17T21:55:21Z</time>
      </trkpt>
      <trkpt lat="49.34885" lon="-0.81387">
        <ele>66</ele>
        <time>2023-05-17T21:55:25Z</time>
      </trkpt>
      <trkpt lat="49.3489" lon="-0.81418">
        <ele>66</ele>
        <time>2023-05-17T21:55:29Z</time>
      </trkpt>
      <trkpt lat="49.34893" lon="-0.8145">
        <ele>66.1</ele>
        <time>2023-05-17T21:55:33Z</time>
      </trkpt>
      <trkpt lat="49.34895" lon="-0.81481">
        <ele>66.1</ele>
        <time>2023-05-17T21:55:37Z</time>
      </trkpt>
      <trkpt lat="49.34894" lon="-0.81513">
        <ele>66.2</ele>
        <time>2023-05-17T21:55:41Z</time>
      </trkpt>
      <trkpt lat="49.34892" lon="-0.81545">
        <ele>66.2</ele>
        <time>2023-05-17T21:55:45Z</time>
      </trkpt>
      <trkpt lat="49.34889" lon="-0.81578">
        <ele>66.3</ele>
        <time>2023-05-17T21:55:49Z</time>
      </trkpt>
      <trkpt lat="49.34887" lon="-0.8161">
        <ele>66.4</ele>
        <time>2023-05-17T21:55:53Z</time>
      </trkpt>
      <trkpt lat="49.34886" lon="-0.81643">
        <ele>66.5</ele>
        <time>2023-05-17T21:55:57Z</time>
      </trkpt>
      <trkpt lat="49.34884" lon="-0.81678">
        <ele>66.5</ele>
        <time>2023-05-17T21:56:01Z</time>
      </trkpt>
      <trkpt lat="49.34881" lon="-0.81715">
        <ele>66.6</ele>
        <time>2023-05-17T21:56:05Z</time>
      </trkpt>
      <trkpt lat="49.34882" lon="-0.8175">
        <ele>66.6</ele>
        <time>2023-05-17T21:56:09Z</time>
      </trkpt>
      <trkpt lat="49.34885" lon="-0.81784">
        <ele>66.5</ele>
        <time>2023-05-17T21:56:13Z</time>
      </trkpt>
      <trkpt lat="49.3489" lon="-0.81811">
        <ele>66.3</ele>
        <time>2023-05-17T21:56:16Z</time>
      </trkpt>
      <trkpt lat="49.34895" lon="-0.81839">
        <ele>66.2</ele>
        <time>2023-05-17T21:56:19Z</time>
      </trkpt>
      <trkpt lat="49.349" lon="-0.81866">
        <ele>66.1</ele>
        <time>2023-05-17T21:56:22Z</time>
      </trkpt>
      <trkpt lat="49.34905" lon="-0.81893">
        <ele>66.2</ele>
        <time>2023-05-17T21:56:25Z</time>
      </trkpt>
      <trkpt lat="49.3491" lon="-0.81921">
        <ele>66.3</ele>
        <time>2023-05-17T21:56:28Z</time>
      </trkpt>
      <trkpt lat="49.34913" lon="-0.81958">
        <ele>66.3</ele>
        <time>2023-05-17T21:56:32Z</time>
      </trkpt>
      <trkpt lat="49.34917" lon="-0.81986">
        <ele>66.4</ele>
        <time>2023-05-17T21:56:35Z</time>
      </trkpt>
      <trkpt lat="49.34921" lon="-0.82013">
        <ele>66.5</ele>
        <time>2023-05-17T21:56:38Z</time>
      </trkpt>
      <trkpt lat="49.34925" lon="-0.8204">
        <ele>66.5</ele>
        <time>2023-05-17T21:56:41Z</time>
      </trkpt>
      <trkpt lat="49.34929" lon="-0.82068">
        <ele>66.5</ele>
        <time>2023-05-17T21:56:44Z</time>
      </trkpt>
      <trkpt lat="49.34936" lon="-0.82102">
        <ele>66.6</ele>
        <time>2023-05-17T21:56:48Z</time>
      </trkpt>
      <trkpt lat="49.34942" lon="-0.82129">
        <ele>66.6</ele>
        <time>2023-05-17T21:56:51Z</time>
      </trkpt>
      <trkpt lat="49.34947" lon="-0.82156">
        <ele>66.7</ele>
        <time>2023-05-17T21:56:54Z</time>
      </trkpt>
      <trkpt lat="49.34953" lon="-0.82183">
        <ele>66.8</ele>
        <time>2023-05-17T21:56:57Z</time>
      </trkpt>
      <trkpt lat="49.34959" lon="-0.8221">
        <ele>66.8</ele>
        <time>2023-05-17T21:57:00Z</time>
      </trkpt>
      <trkpt lat="49.34964" lon="-0.82238">
        <ele>66.8</ele>
        <time>2023-05-17T21:57:03Z</time>
      </trkpt>
      <trkpt lat="49.3497" lon="-0.82267">
        <ele>66.8</ele>
        <time>2023-05-17T21:57:06Z</time>
      </trkpt>
      <trkpt lat="49.34977" lon="-0.82296">
        <ele>66.8</ele>
        <time>2023-05-17T21:57:09Z</time>
      </trkpt>
      <trkpt lat="49.34985" lon="-0.82323">
        <ele>66.9</ele>
        <time>2023-05-17T21:57:12Z</time>
      </trkpt>
      <trkpt lat="49.34989" lon="-0.82352">
        <ele>66.9</ele>
        <time>2023-05-17T21:57:15Z</time>
      </trkpt>
      <trkpt lat="49.34995" lon="-0.82384">
        <ele>66.8</ele>
        <time>2023-05-17T21:57:18Z</time>
      </trkpt>
      <trkpt lat="49.35002" lon="-0.82417">
        <ele>66.7</ele>
        <time>2023-05-17T21:57:21Z</time>
      </trkpt>
      <trkpt lat="49.35008" lon="-0.82447">
        <ele>66.6</ele>
        <time>2023-05-17T21:57:24Z</time>
      </trkpt>
      <trkpt lat="49.35015" lon="-0.82477">
        <ele>66.7</ele>
        <time>2023-05-17T21:57:27Z</time>
      </trkpt>
      <trkpt lat="49.35022" lon="-0.82509">
        <ele>66.7</ele>
        <time>2023-05-17T21:57:30Z</time>
      </trkpt>
      <trkpt lat="49.35028" lon="-0.82539">
        <ele>66.7</ele>
        <time>2023-05-17T21:57:33Z</time>
      </trkpt>
      <trkpt lat="49.35032" lon="-0.82571">
        <ele>66.6</ele>
        <time>2023-05-17T21:57:36Z</time>
      </trkpt>
      <trkpt lat="49.35036" lon="-0.82603">
        <ele>66.7</ele>
        <time>2023-05-17T21:57:39Z</time>
      </trkpt>
      <trkpt lat="49.3504" lon="-0.82636">
        <ele>66.9</ele>
        <time>2023-05-17T21:57:42Z</time>
      </trkpt>
      <trkpt lat="49.35043" lon="-0.82667">
        <ele>67</ele>
        <time>2023-05-17T21:57:45Z</time>
      </trkpt>
      <trkpt lat="49.35046" lon="-0.82698">
        <ele>67.1</ele>
        <time>2023-05-17T21:57:48Z</time>
      </trkpt>
      <trkpt lat="49.35048" lon="-0.82729">
        <ele>67.3</ele>
        <time>2023-05-17T21:57:51Z</time>
      </trkpt>
      <trkpt lat="49.35047" lon="-0.82759">
        <ele>67.5</ele>
        <time>2023-05-17T21:57:54Z</time>
      </trkpt>
      <trkpt lat="49.35045" lon="-0.82787">
        <ele>67.7</ele>
        <time>2023-05-17T21:57:57Z</time>
      </trkpt>
      <trkpt lat="49.35041" lon="-0.82817">
        <ele>67.8</ele>
        <time>2023-05-17T21:58:00Z</time>
      </trkpt>
      <trkpt lat="49.35036" lon="-0.82846">
        <ele>68</ele>
        <time>2023-05-17T21:58:03Z</time>
      </trkpt>
      <trkpt lat="49.35033" lon="-0.82875">
        <ele>68.1</ele>
        <time>2023-05-17T21:58:06Z</time>
      </trkpt>
      <trkpt lat="49.35029" lon="-0.82904">
        <ele>68.3</ele>
        <time>2023-05-17T21:58:09Z</time>
      </trkpt>
      <trkpt lat="49.35026" lon="-0.82934">
        <ele>68.3</ele>
        <time>2023-05-17T21:58:12Z</time>
      </trkpt>
      <trkpt lat="49.35023" lon="-0.82965">
        <ele>68.4</ele>
        <time>2023-05-17T21:58:15Z</time>
      </trkpt>
      <trkpt lat="49.3502" lon="-0.82996">
        <ele>68.4</ele>
        <time>2023-05-17T21:58:18Z</time>
      </trkpt>
      <trkpt lat="49.35018" lon="-0.83028">
        <ele>68.3</ele>
        <time>2023-05-17T21:58:21Z</time>
      </trkpt>
      <trkpt lat="49.35017" lon="-0.8306">
        <ele>68.3</ele>
        <time>2023-05-17T21:58:24Z</time>
      </trkpt>
      <trkpt lat="49.35015" lon="-0.83092">
        <ele>68.3</ele>
        <time>2023-05-17T21:58:27Z</time>
      </trkpt>
      <trkpt lat="49.35014" lon="-0.83125">
        <ele>68.2</ele>
        <time>2023-05-17T21:58:30Z</time>
      </trkpt>
      <trkpt lat="49.35012" lon="-0.83157">
        <ele>68.2</ele>
        <time>2023-05-17T21:58:33Z</time>
      </trkpt>
      <trkpt lat="49.35011" lon="-0.83187">
        <ele>68.1</ele>
        <time>2023-05-17T21:58:36Z</time>
      </trkpt>
      <trkpt lat="49.3501" lon="-0.83218">
        <ele>68.1</ele>
        <time>2023-05-17T21:58:39Z</time>
      </trkpt>
      <trkpt lat="49.35009" lon="-0.83249">
        <ele>68</ele>
        <time>2023-05-17T21:58:42Z</time>
      </trkpt>
      <trkpt lat="49.35009" lon="-0.8328">
        <ele>67.9</ele>
        <time>2023-05-17T21:58:45Z</time>
      </trkpt>
      <trkpt lat="49.35008" lon="-0.83311">
        <ele>67.7</ele>
        <time>2023-05-17T21:58:48Z</time>
      </trkpt>
      <trkpt lat="49.35008" lon="-0.83344">
        <ele>67.4</ele>
        <time>2023-05-17T21:58:51Z</time>
      </trkpt>
      <trkpt lat="49.35007" lon="-0.83378">
        <ele>67.1</ele>
        <time>2023-05-17T21:58:54Z</time>
      </trkpt>
      <trkpt lat="49.35006" lon="-0.8341">
        <ele>66.8</ele>
        <time>2023-05-17T21:58:57Z</time>
      </trkpt>
      <trkpt lat="49.35004" lon="-0.83444">
        <ele>66.6</ele>
        <time>2023-05-17T21:59:00Z</time>
      </trkpt>
      <trkpt lat="49.35004" lon="-0.83476">
        <ele>66.4</ele>
        <time>2023-05-17T21:59:03Z</time>
      </trkpt>
      <trkpt lat="49.35003" lon="-0.83509">
        <ele>66.3</ele>
        <time>2023-05-17T21:59:06Z</time>
      </trkpt>
      <trkpt lat="49.35002" lon="-0.83541">
        <ele>66.2</ele>
        <time>2023-05-17T21:59:09Z</time>
      </trkpt>
      <trkpt lat="49.35002" lon="-0.83572">
        <ele>66.2</ele>
        <time>2023-05-17T21:59:12Z</time>
      </trkpt>
      <trkpt lat="49.35" lon="-0.83604">
        <ele>66</ele>
        <time>2023-05-17T21:59:15Z</time>
      </trkpt>
      <trkpt lat="49.34999" lon="-0.83637">
        <ele>65.8</ele>
        <time>2023-05-17T21:59:18Z</time>
      </trkpt>
      <trkpt lat="49.34998" lon="-0.83666">
        <ele>65.6</ele>
        <time>2023-05-17T21:59:21Z</time>
      </trkpt>
      <trkpt lat="49.34997" lon="-0.83699">
        <ele>65.3</ele>
        <time>2023-05-17T21:59:24Z</time>
      </trkpt>
      <trkpt lat="49.34993" lon="-0.83732">
        <ele>65</ele>
        <time>2023-05-17T21:59:27Z</time>
      </trkpt>
      <trkpt lat="49.3499" lon="-0.83765">
        <ele>64.8</ele>
        <time>2023-05-17T21:59:30Z</time>
      </trkpt>
      <trkpt lat="49.34987" lon="-0.838">
        <ele>64.4</ele>
        <time>2023-05-17T21:59:33Z</time>
      </trkpt>
      <trkpt lat="49.3498" lon="-0.83833">
        <ele>64.1</ele>
        <time>2023-05-17T21:59:36Z</time>
      </trkpt>
      <trkpt lat="49.3497" lon="-0.83864">
        <ele>63.7</ele>
        <time>2023-05-17T21:59:39Z</time>
      </trkpt>
      <trkpt lat="49.34957" lon="-0.83897">
        <ele>63.5</ele>
        <time>2023-05-17T21:59:42Z</time>
      </trkpt>
      <trkpt lat="49.34943" lon="-0.83928">
        <ele>63.3</ele>
        <time>2023-05-17T21:59:45Z</time>
      </trkpt>
      <trkpt lat="49.34929" lon="-0.83961">
        <ele>63.3</ele>
        <time>2023-05-17T21:59:48Z</time>
      </trkpt>
      <trkpt lat="49.34918" lon="-0.83993">
        <ele>63.3</ele>
        <time>2023-05-17T21:59:51Z</time>
      </trkpt>
      <trkpt lat="49.34907" lon="-0.84023">
        <ele>63.2</ele>
        <time>2023-05-17T21:59:54Z</time>
      </trkpt>
      <trkpt lat="49.34898" lon="-0.84057">
        <ele>63.1</ele>
        <time>2023-05-17T21:59:57Z</time>
      </trkpt>
      <trkpt lat="49.34891" lon="-0.84092">
        <ele>63.1</ele>
        <time>2023-05-17T22:00:00Z</time>
      </trkpt>
      <trkpt lat="49.34883" lon="-0.84126">
        <ele>62.9</ele>
        <time>2023-05-17T22:00:03Z</time>
      </trkpt>
      <trkpt lat="49.34875" lon="-0.8416">
        <ele>62.7</ele>
        <time>2023-05-17T22:00:06Z</time>
      </trkpt>
      <trkpt lat="49.34871" lon="-0.84197">
        <ele>62.4</ele>
        <time>2023-05-17T22:00:09Z</time>
      </trkpt>
      <trkpt lat="49.3487" lon="-0.84235">
        <ele>62.2</ele>
        <time>2023-05-17T22:00:12Z</time>
      </trkpt>
      <trkpt lat="49.3487" lon="-0.84268">
        <ele>61.9</ele>
        <time>2023-05-17T22:00:15Z</time>
      </trkpt>
      <trkpt lat="49.34868" lon="-0.84309">
        <ele>61.5</ele>
        <time>2023-05-17T22:00:18Z</time>
      </trkpt>
      <trkpt lat="49.34868" lon="-0.84347">
        <ele>60.9</ele>
        <time>2023-05-17T22:00:21Z</time>
      </trkpt>
      <trkpt lat="49.34869" lon="-0.84386">
        <ele>60.3</ele>
        <time>2023-05-17T22:00:24Z</time>
      </trkpt>
      <trkpt lat="49.3487" lon="-0.84413">
        <ele>59.8</ele>
        <time>2023-05-17T22:00:26Z</time>
      </trkpt>
      <trkpt lat="49.34868" lon="-0.84442">
        <ele>59.3</ele>
        <time>2023-05-17T22:00:28Z</time>
      </trkpt>
      <trkpt lat="49.34865" lon="-0.8447">
        <ele>59.2</ele>
        <time>2023-05-17T22:00:30Z</time>
      </trkpt>
      <trkpt lat="49.34858" lon="-0.8451">
        <ele>59.2</ele>
        <time>2023-05-17T22:00:33Z</time>
      </trkpt>
      <trkpt lat="49.34856" lon="-0.84548">
        <ele>59.2</ele>
        <time>2023-05-17T22:00:36Z</time>
      </trkpt>
      <trkpt lat="49.34854" lon="-0.84586">
        <ele>59.3</ele>
        <time>2023-05-17T22:00:39Z</time>
      </trkpt>
      <trkpt lat="49.34851" lon="-0.84621">
        <ele>59.4</ele>
        <time>2023-05-17T22:00:42Z</time>
      </trkpt>
      <trkpt lat="49.34848" lon="-0.84658">
        <ele>59.5</ele>
        <time>2023-05-17T22:00:45Z</time>
      </trkpt>
      <trkpt lat="49.34847" lon="-0.84692">
        <ele>59.8</ele>
        <time>2023-05-17T22:00:48Z</time>
      </trkpt>
      <trkpt lat="49.34847" lon="-0.84723">
        <ele>60.3</ele>
        <time>2023-05-17T22:00:51Z</time>
      </trkpt>
      <trkpt lat="49.34847" lon="-0.84751">
        <ele>60.7</ele>
        <time>2023-05-17T22:00:54Z</time>
      </trkpt>
      <trkpt lat="49.34848" lon="-0.84785">
        <ele>61.3</ele>
        <time>2023-05-17T22:00:58Z</time>
      </trkpt>
      <trkpt lat="49.34851" lon="-0.84817">
        <ele>61.8</ele>
        <time>2023-05-17T22:01:02Z</time>
      </trkpt>
      <trkpt lat="49.34856" lon="-0.84847">
        <ele>62.2</ele>
        <time>2023-05-17T22:01:06Z</time>
      </trkpt>
      <trkpt lat="49.34852" lon="-0.8488">
        <ele>62.5</ele>
        <time>2023-05-17T22:01:10Z</time>
      </trkpt>
      <trkpt lat="49.34838" lon="-0.84907">
        <ele>62.6</ele>
        <time>2023-05-17T22:01:14Z</time>
      </trkpt>
      <trkpt lat="49.34821" lon="-0.84927">
        <ele>62.8</ele>
        <time>2023-05-17T22:01:18Z</time>
      </trkpt>
      <trkpt lat="49.34806" lon="-0.84944">
        <ele>63</ele>
        <time>2023-05-17T22:01:21Z</time>
      </trkpt>
      <trkpt lat="49.34789" lon="-0.84968">
        <ele>63.2</ele>
        <time>2023-05-17T22:01:25Z</time>
      </trkpt>
      <trkpt lat="49.34774" lon="-0.84998">
        <ele>63.3</ele>
        <time>2023-05-17T22:01:29Z</time>
      </trkpt>
      <trkpt lat="49.34763" lon="-0.8502">
        <ele>63.4</ele>
        <time>2023-05-17T22:01:32Z</time>
      </trkpt>
      <trkpt lat="49.34751" lon="-0.8505">
        <ele>63.6</ele>
        <time>2023-05-17T22:01:36Z</time>
      </trkpt>
      <trkpt lat="49.34739" lon="-0.8508">
        <ele>63.9</ele>
        <time>2023-05-17T22:01:40Z</time>
      </trkpt>
      <trkpt lat="49.34728" lon="-0.85109">
        <ele>64.1</ele>
        <time>2023-05-17T22:01:44Z</time>
      </trkpt>
      <trkpt lat="49.3472" lon="-0.85135">
        <ele>64</ele>
        <time>2023-05-17T22:01:47Z</time>
      </trkpt>
      <trkpt lat="49.3471" lon="-0.85167">
        <ele>64.1</ele>
        <time>2023-05-17T22:01:51Z</time>
      </trkpt>
      <trkpt lat="49.34701" lon="-0.85199">
        <ele>64</ele>
        <time>2023-05-17T22:01:55Z</time>
      </trkpt>
      <trkpt lat="49.34691" lon="-0.85233">
        <ele>63.9</ele>
        <time>2023-05-17T22:01:59Z</time>
      </trkpt>
      <trkpt lat="49.34684" lon="-0.85259">
        <ele>63.7</ele>
        <time>2023-05-17T22:02:02Z</time>
      </trkpt>
      <trkpt lat="49.34677" lon="-0.85285">
        <ele>63.4</ele>
        <time>2023-05-17T22:02:05Z</time>
      </trkpt>
      <trkpt lat="49.34668" lon="-0.85314">
        <ele>62.9</ele>
        <time>2023-05-17T22:02:08Z</time>
      </trkpt>
      <trkpt lat="49.34667" lon="-0.85348">
        <ele>62.3</ele>
        <time>2023-05-17T22:02:11Z</time>
      </trkpt>
      <trkpt lat="49.34675" lon="-0.85383">
        <ele>61.8</ele>
        <time>2023-05-17T22:02:14Z</time>
      </trkpt>
      <trkpt lat="49.34682" lon="-0.85411">
        <ele>61.5</ele>
        <time>2023-05-17T22:02:17Z</time>
      </trkpt>
      <trkpt lat="49.34694" lon="-0.85437">
        <ele>61.4</ele>
        <time>2023-05-17T22:02:20Z</time>
      </trkpt>
      <trkpt lat="49.34713" lon="-0.85452">
        <ele>61.3</ele>
        <time>2023-05-17T22:02:23Z</time>
      </trkpt>
      <trkpt lat="49.34732" lon="-0.8546">
        <ele>61.5</ele>
        <time>2023-05-17T22:02:26Z</time>
      </trkpt>
      <trkpt lat="49.34751" lon="-0.85467">
        <ele>61.8</ele>
        <time>2023-05-17T22:02:29Z</time>
      </trkpt>
      <trkpt lat="49.34769" lon="-0.85474">
        <ele>62.1</ele>
        <time>2023-05-17T22:02:32Z</time>
      </trkpt>
      <trkpt lat="49.34789" lon="-0.85487">
        <ele>62.5</ele>
        <time>2023-05-17T22:02:36Z</time>
      </trkpt>
      <trkpt lat="49.34811" lon="-0.85496">
        <ele>63</ele>
        <time>2023-05-17T22:02:40Z</time>
      </trkpt>
      <trkpt lat="49.34825" lon="-0.85515">
        <ele>63.8</ele>
        <time>2023-05-17T22:02:44Z</time>
      </trkpt>
      <trkpt lat="49.34828" lon="-0.85545">
        <ele>64.6</ele>
        <time>2023-05-17T22:02:49Z</time>
      </trkpt>
      <trkpt lat="49.34834" lon="-0.85574">
        <ele>65.2</ele>
        <time>2023-05-17T22:02:53Z</time>
      </trkpt>
      <trkpt lat="49.34838" lon="-0.85601">
        <ele>65.9</ele>
        <time>2023-05-17T22:02:57Z</time>
      </trkpt>
      <trkpt lat="49.3484" lon="-0.8563">
        <ele>66.5</ele>
        <time>2023-05-17T22:03:01Z</time>
      </trkpt>
      <trkpt lat="49.34839" lon="-0.8566">
        <ele>66.9</ele>
        <time>2023-05-17T22:03:05Z</time>
      </trkpt>
      <trkpt lat="49.34836" lon="-0.85694">
        <ele>67.3</ele>
        <time>2023-05-17T22:03:09Z</time>
      </trkpt>
      <trkpt lat="49.34836" lon="-0.85727">
        <ele>67.7</ele>
        <time>2023-05-17T22:03:13Z</time>
      </trkpt>
      <trkpt lat="49.34834" lon="-0.85759">
        <ele>68</ele>
        <time>2023-05-17T22:03:17Z</time>
      </trkpt>
      <trkpt lat="49.34833" lon="-0.85795">
        <ele>68.3</ele>
        <time>2023-05-17T22:03:21Z</time>
      </trkpt>
      <trkpt lat="49.34834" lon="-0.85829">
        <ele>68.5</ele>
        <time>2023-05-17T22:03:25Z</time>
      </trkpt>
      <trkpt lat="49.34842" lon="-0.8586">
        <ele>68.6</ele>
        <time>2023-05-17T22:03:29Z</time>
      </trkpt>
      <trkpt lat="49.34854" lon="-0.85887">
        <ele>68.6</ele>
        <time>2023-05-17T22:03:33Z</time>
      </trkpt>
      <trkpt lat="49.34867" lon="-0.85908">
        <ele>68.6</ele>
        <time>2023-05-17T22:03:36Z</time>
      </trkpt>
      <trkpt lat="49.3488" lon="-0.85928">
        <ele>68.6</ele>
        <time>2023-05-17T22:03:40Z</time>
      </trkpt>
      <trkpt lat="49.34892" lon="-0.85951">
        <ele>68.3</ele>
        <time>2023-05-17T22:03:46Z</time>
      </trkpt>
      <trkpt lat="49.34904" lon="-0.85977">
        <ele>68.1</ele>
        <time>2023-05-17T22:03:53Z</time>
      </trkpt>
      <trkpt lat="49.34914" lon="-0.86001">
        <ele>68</ele>
        <time>2023-05-17T22:03:59Z</time>
      </trkpt>
      <trkpt lat="49.34923" lon="-0.86028">
        <ele>67.8</ele>
        <time>2023-05-17T22:04:06Z</time>
      </trkpt>
      <trkpt lat="49.34935" lon="-0.86051">
        <ele>67.6</ele>
        <time>2023-05-17T22:04:13Z</time>
      </trkpt>
      <trkpt lat="49.34945" lon="-0.86076">
        <ele>67.3</ele>
        <time>2023-05-17T22:05:04Z</time>
      </trkpt>
      <trkpt lat="49.34957" lon="-0.86097">
        <ele>67.1</ele>
        <time>2023-05-17T22:05:10Z</time>
      </trkpt>
      <trkpt lat="49.34969" lon="-0.86121">
        <ele>66.8</ele>
        <time>2023-05-17T22:05:15Z</time>
      </trkpt>
      <trkpt lat="49.34981" lon="-0.86148">
        <ele>66.6</ele>
        <time>2023-05-17T22:05:20Z</time>
      </trkpt>
      <trkpt lat="49.34992" lon="-0.86173">
        <ele>66.3</ele>
        <time>2023-05-17T22:05:25Z</time>
      </trkpt>
      <trkpt lat="49.35002" lon="-0.86198">
        <ele>66.1</ele>
        <time>2023-05-17T22:05:29Z</time>
      </trkpt>
      <trkpt lat="49.35014" lon="-0.86227">
        <ele>65.9</ele>
        <time>2023-05-17T22:05:34Z</time>
      </trkpt>
      <trkpt lat="49.35026" lon="-0.86255">
        <ele>65.6</ele>
        <time>2023-05-17T22:05:39Z</time>
      </trkpt>
      <trkpt lat="49.35037" lon="-0.8628">
        <ele>65.3</ele>
        <time>2023-05-17T22:05:43Z</time>
      </trkpt>
      <trkpt lat="49.35049" lon="-0.86304">
        <ele>65.1</ele>
        <time>2023-05-17T22:05:47Z</time>
      </trkpt>
      <trkpt lat="49.3506" lon="-0.86328">
        <ele>64.9</ele>
        <time>2023-05-17T22:05:51Z</time>
      </trkpt>
      <trkpt lat="49.35072" lon="-0.86353">
        <ele>64.6</ele>
        <time>2023-05-17T22:05:55Z</time>
      </trkpt>
      <trkpt lat="49.35083" lon="-0.86381">
        <ele>64.2</ele>
        <time>2023-05-17T22:05:59Z</time>
      </trkpt>
      <trkpt lat="49.35094" lon="-0.86405">
        <ele>63.9</ele>
        <time>2023-05-17T22:06:02Z</time>
      </trkpt>
      <trkpt lat="49.35107" lon="-0.86435">
        <ele>63.4</ele>
        <time>2023-05-17T22:06:06Z</time>
      </trkpt>
      <trkpt lat="49.35118" lon="-0.86458">
        <ele>62.9</ele>
        <time>2023-05-17T22:06:09Z</time>
      </trkpt>
      <trkpt lat="49.35131" lon="-0.86489">
        <ele>62.3</ele>
        <time>2023-05-17T22:06:13Z</time>
      </trkpt>
      <trkpt lat="49.35142" lon="-0.86512">
        <ele>61.8</ele>
        <time>2023-05-17T22:06:16Z</time>
      </trkpt>
      <trkpt lat="49.35154" lon="-0.86535">
        <ele>61.4</ele>
        <time>2023-05-17T22:06:19Z</time>
      </trkpt>
      <trkpt lat="49.35164" lon="-0.8656">
        <ele>60.9</ele>
        <time>2023-05-17T22:06:22Z</time>
      </trkpt>
      <trkpt lat="49.35175" lon="-0.86584">
        <ele>60.5</ele>
        <time>2023-05-17T22:06:25Z</time>
      </trkpt>
      <trkpt lat="49.35186" lon="-0.86609">
        <ele>60.2</ele>
        <time>2023-05-17T22:06:28Z</time>
      </trkpt>
      <trkpt lat="49.35197" lon="-0.86633">
        <ele>59.9</ele>
        <time>2023-05-17T22:06:31Z</time>
      </trkpt>
      <trkpt lat="49.35208" lon="-0.86656">
        <ele>59.7</ele>
        <time>2023-05-17T22:06:34Z</time>
      </trkpt>
      <trkpt lat="49.35222" lon="-0.86685">
        <ele>59.5</ele>
        <time>2023-05-17T22:06:38Z</time>
      </trkpt>
      <trkpt lat="49.35232" lon="-0.86708">
        <ele>59.5</ele>
        <time>2023-05-17T22:06:41Z</time>
      </trkpt>
      <trkpt lat="49.35242" lon="-0.86733">
        <ele>59.6</ele>
        <time>2023-05-17T22:06:44Z</time>
      </trkpt>
      <trkpt lat="49.35251" lon="-0.86758">
        <ele>59.7</ele>
        <time>2023-05-17T22:06:47Z</time>
      </trkpt>
      <trkpt lat="49.35259" lon="-0.86784">
        <ele>59.7</ele>
        <time>2023-05-17T22:06:50Z</time>
      </trkpt>
      <trkpt lat="49.35267" lon="-0.8681">
        <ele>59.6</ele>
        <time>2023-05-17T22:06:53Z</time>
      </trkpt>
      <trkpt lat="49.35274" lon="-0.86837">
        <ele>59.6</ele>
        <time>2023-05-17T22:06:56Z</time>
      </trkpt>
      <trkpt lat="49.35283" lon="-0.86865">
        <ele>59.5</ele>
        <time>2023-05-17T22:06:59Z</time>
      </trkpt>
      <trkpt lat="49.35292" lon="-0.86892">
        <ele>59.4</ele>
        <time>2023-05-17T22:07:02Z</time>
      </trkpt>
      <trkpt lat="49.35299" lon="-0.8692">
        <ele>59.3</ele>
        <time>2023-05-17T22:07:05Z</time>
      </trkpt>
      <trkpt lat="49.35309" lon="-0.8695">
        <ele>59.3</ele>
        <time>2023-05-17T22:07:08Z</time>
      </trkpt>
      <trkpt lat="49.35316" lon="-0.86978">
        <ele>59.2</ele>
        <time>2023-05-17T22:07:11Z</time>
      </trkpt>
      <trkpt lat="49.35325" lon="-0.87005">
        <ele>59.1</ele>
        <time>2023-05-17T22:07:14Z</time>
      </trkpt>
      <trkpt lat="49.35335" lon="-0.87032">
        <ele>59</ele>
        <time>2023-05-17T22:07:17Z</time>
      </trkpt>
      <trkpt lat="49.35347" lon="-0.87056">
        <ele>58.8</ele>
        <time>2023-05-17T22:07:20Z</time>
      </trkpt>
      <trkpt lat="49.35362" lon="-0.87078">
        <ele>58.4</ele>
        <time>2023-05-17T22:07:23Z</time>
      </trkpt>
      <trkpt lat="49.3538" lon="-0.87096">
        <ele>57.9</ele>
        <time>2023-05-17T22:07:26Z</time>
      </trkpt>
      <trkpt lat="49.35401" lon="-0.87109">
        <ele>57.5</ele>
        <time>2023-05-17T22:07:29Z</time>
      </trkpt>
      <trkpt lat="49.35422" lon="-0.8712">
        <ele>56.9</ele>
        <time>2023-05-17T22:07:32Z</time>
      </trkpt>
      <trkpt lat="49.35444" lon="-0.87131">
        <ele>56.4</ele>
        <time>2023-05-17T22:07:35Z</time>
      </trkpt>
      <trkpt lat="49.35465" lon="-0.87145">
        <ele>56.1</ele>
        <time>2023-05-17T22:07:38Z</time>
      </trkpt>
      <trkpt lat="49.35484" lon="-0.87164">
        <ele>56</ele>
        <time>2023-05-17T22:07:41Z</time>
      </trkpt>
      <trkpt lat="49.35501" lon="-0.87185">
        <ele>56</ele>
        <time>2023-05-17T22:07:44Z</time>
      </trkpt>
      <trkpt lat="49.35517" lon="-0.87207">
        <ele>56.1</ele>
        <time>2023-05-17T22:07:47Z</time>
      </trkpt>
      <trkpt lat="49.35531" lon="-0.87228">
        <ele>56.2</ele>
        <time>2023-05-17T22:07:50Z</time>
      </trkpt>
      <trkpt lat="49.35546" lon="-0.8725">
        <ele>56.4</ele>
        <time>2023-05-17T22:07:53Z</time>
      </trkpt>
      <trkpt lat="49.35561" lon="-0.87271">
        <ele>56.3</ele>
        <time>2023-05-17T22:07:56Z</time>
      </trkpt>
      <trkpt lat="49.35576" lon="-0.87293">
        <ele>56.3</ele>
        <time>2023-05-17T22:07:59Z</time>
      </trkpt>
      <trkpt lat="49.3559" lon="-0.87317">
        <ele>56.2</ele>
        <time>2023-05-17T22:08:02Z</time>
      </trkpt>
      <trkpt lat="49.35603" lon="-0.87342">
        <ele>56.1</ele>
        <time>2023-05-17T22:08:05Z</time>
      </trkpt>
      <trkpt lat="49.35615" lon="-0.87367">
        <ele>56</ele>
        <time>2023-05-17T22:08:08Z</time>
      </trkpt>
      <trkpt lat="49.35628" lon="-0.87393">
        <ele>55.7</ele>
        <time>2023-05-17T22:08:11Z</time>
      </trkpt>
      <trkpt lat="49.35643" lon="-0.87416">
        <ele>55.5</ele>
        <time>2023-05-17T22:08:14Z</time>
      </trkpt>
      <trkpt lat="49.35658" lon="-0.87439">
        <ele>55</ele>
        <time>2023-05-17T22:08:17Z</time>
      </trkpt>
      <trkpt lat="49.35675" lon="-0.87463">
        <ele>54.4</ele>
        <time>2023-05-17T22:08:20Z</time>
      </trkpt>
      <trkpt lat="49.35692" lon="-0.87485">
        <ele>53.7</ele>
        <time>2023-05-17T22:08:23Z</time>
      </trkpt>
      <trkpt lat="49.3571" lon="-0.87509">
        <ele>52.8</ele>
        <time>2023-05-17T22:08:26Z</time>
      </trkpt>
      <trkpt lat="49.35729" lon="-0.87535">
        <ele>52</ele>
        <time>2023-05-17T22:08:29Z</time>
      </trkpt>
      <trkpt lat="49.35749" lon="-0.87559">
        <ele>51.1</ele>
        <time>2023-05-17T22:08:32Z</time>
      </trkpt>
      <trkpt lat="49.3577" lon="-0.8758">
        <ele>50.2</ele>
        <time>2023-05-17T22:08:35Z</time>
      </trkpt>
      <trkpt lat="49.35795" lon="-0.87597">
        <ele>49.4</ele>
        <time>2023-05-17T22:08:38Z</time>
      </trkpt>
      <trkpt lat="49.35818" lon="-0.8761">
        <ele>48.6</ele>
        <time>2023-05-17T22:08:41Z</time>
      </trkpt>
      <trkpt lat="49.35842" lon="-0.87627">
        <ele>47.9</ele>
        <time>2023-05-17T22:08:44Z</time>
      </trkpt>
      <trkpt lat="49.35864" lon="-0.87651">
        <ele>47.6</ele>
        <time>2023-05-17T22:08:47Z</time>
      </trkpt>
      <trkpt lat="49.35873" lon="-0.87689">
        <ele>47.1</ele>
        <time>2023-05-17T22:08:50Z</time>
      </trkpt>
      <trkpt lat="49.35875" lon="-0.87726">
        <ele>46.8</ele>
        <time>2023-05-17T22:08:53Z</time>
      </trkpt>
      <trkpt lat="49.35876" lon="-0.87761">
        <ele>46.6</ele>
        <time>2023-05-17T22:08:56Z</time>
      </trkpt>
      <trkpt lat="49.35878" lon="-0.87796">
        <ele>46.4</ele>
        <time>2023-05-17T22:08:59Z</time>
      </trkpt>
      <trkpt lat="49.35881" lon="-0.87832">
        <ele>46.2</ele>
        <time>2023-05-17T22:09:02Z</time>
      </trkpt>
      <trkpt lat="49.35883" lon="-0.87867">
        <ele>46</ele>
        <time>2023-05-17T22:09:05Z</time>
      </trkpt>
      <trkpt lat="49.35885" lon="-0.87902">
        <ele>45.9</ele>
        <time>2023-05-17T22:09:08Z</time>
      </trkpt>
      <trkpt lat="49.35889" lon="-0.87936">
        <ele>45.7</ele>
        <time>2023-05-17T22:09:11Z</time>
      </trkpt>
      <trkpt lat="49.35893" lon="-0.8797">
        <ele>45.3</ele>
        <time>2023-05-17T22:09:14Z</time>
      </trkpt>
      <trkpt lat="49.35899" lon="-0.88003">
        <ele>44.4</ele>
        <time>2023-05-17T22:09:17Z</time>
      </trkpt>
      <trkpt lat="49.35904" lon="-0.88038">
        <ele>43.4</ele>
        <time>2023-05-17T22:09:20Z</time>
      </trkpt>
      <trkpt lat="49.3591" lon="-0.8807">
        <ele>42.5</ele>
        <time>2023-05-17T22:09:23Z</time>
      </trkpt>
      <trkpt lat="49.35918" lon="-0.88108">
        <ele>41.7</ele>
        <time>2023-05-17T22:09:26Z</time>
      </trkpt>
      <trkpt lat="49.35926" lon="-0.88139">
        <ele>41.5</ele>
        <time>2023-05-17T22:09:29Z</time>
      </trkpt>
      <trkpt lat="49.35944" lon="-0.88151">
        <ele>40.3</ele>
        <time>2023-05-17T22:09:32Z</time>
      </trkpt>
      <trkpt lat="49.35966" lon="-0.88141">
        <ele>38.4</ele>
        <time>2023-05-17T22:09:35Z</time>
      </trkpt>
      <trkpt lat="49.35989" lon="-0.88125">
        <ele>37</ele>
        <time>2023-05-17T22:09:38Z</time>
      </trkpt>
      <trkpt lat="49.36005" lon="-0.88111">
        <ele>36.2</ele>
        <time>2023-05-17T22:09:40Z</time>
      </trkpt>
      <trkpt lat="49.36024" lon="-0.88087">
        <ele>35.2</ele>
        <time>2023-05-17T22:09:43Z</time>
      </trkpt>
      <trkpt lat="49.36045" lon="-0.88064">
        <ele>34.2</ele>
        <time>2023-05-17T22:09:46Z</time>
      </trkpt>
      <trkpt lat="49.36066" lon="-0.88041">
        <ele>33.4</ele>
        <time>2023-05-17T22:09:49Z</time>
      </trkpt>
      <trkpt lat="49.36088" lon="-0.8802">
        <ele>32.8</ele>
        <time>2023-05-17T22:09:52Z</time>
      </trkpt>
      <trkpt lat="49.36109" lon="-0.88001">
        <ele>32.4</ele>
        <time>2023-05-17T22:09:55Z</time>
      </trkpt>
      <trkpt lat="49.3613" lon="-0.87988">
        <ele>32.2</ele>
        <time>2023-05-17T22:09:58Z</time>
      </trkpt>
      <trkpt lat="49.36154" lon="-0.8799">
        <ele>32</ele>
        <time>2023-05-17T22:10:01Z</time>
      </trkpt>
      <trkpt lat="49.36177" lon="-0.88003">
        <ele>31.7</ele>
        <time>2023-05-17T22:10:04Z</time>
      </trkpt>
      <trkpt lat="49.362" lon="-0.88009">
        <ele>31.2</ele>
        <time>2023-05-17T22:10:07Z</time>
      </trkpt>
      <trkpt lat="49.36224" lon="-0.88009">
        <ele>30.6</ele>
        <time>2023-05-17T22:10:10Z</time>
      </trkpt>
      <trkpt lat="49.36248" lon="-0.88005">
        <ele>30</ele>
        <time>2023-05-17T22:10:13Z</time>
      </trkpt>
      <trkpt lat="49.36272" lon="-0.88001">
        <ele>29.3</ele>
        <time>2023-05-17T22:10:16Z</time>
      </trkpt>
      <trkpt lat="49.36296" lon="-0.87996">
        <ele>28.7</ele>
        <time>2023-05-17T22:10:19Z</time>
      </trkpt>
      <trkpt lat="49.3632" lon="-0.87994">
        <ele>28.2</ele>
        <time>2023-05-17T22:10:22Z</time>
      </trkpt>
      <trkpt lat="49.36344" lon="-0.87998">
        <ele>27.9</ele>
        <time>2023-05-17T22:10:25Z</time>
      </trkpt>
      <trkpt lat="49.36369" lon="-0.88005">
        <ele>27.6</ele>
        <time>2023-05-17T22:10:28Z</time>
      </trkpt>
      <trkpt lat="49.36391" lon="-0.88016">
        <ele>26.9</ele>
        <time>2023-05-17T22:10:31Z</time>
      </trkpt>
      <trkpt lat="49.36412" lon="-0.88033">
        <ele>26.2</ele>
        <time>2023-05-17T22:10:34Z</time>
      </trkpt>
      <trkpt lat="49.36432" lon="-0.88059">
        <ele>24.9</ele>
        <time>2023-05-17T22:10:37Z</time>
      </trkpt>
      <trkpt lat="49.36446" lon="-0.88077">
        <ele>24.1</ele>
        <time>2023-05-17T22:10:39Z</time>
      </trkpt>
      <trkpt lat="49.3646" lon="-0.88095">
        <ele>23.3</ele>
        <time>2023-05-17T22:10:41Z</time>
      </trkpt>
      <trkpt lat="49.36474" lon="-0.88114">
        <ele>22.5</ele>
        <time>2023-05-17T22:10:43Z</time>
      </trkpt>
      <trkpt lat="49.36487" lon="-0.88133">
        <ele>21.7</ele>
        <time>2023-05-17T22:10:45Z</time>
      </trkpt>
      <trkpt lat="49.36502" lon="-0.88149">
        <ele>20.9</ele>
        <time>2023-05-17T22:10:47Z</time>
      </trkpt>
      <trkpt lat="49.36517" lon="-0.88164">
        <ele>20.1</ele>
        <time>2023-05-17T22:10:49Z</time>
      </trkpt>
      <trkpt lat="49.36535" lon="-0.88176">
        <ele>19.3</ele>
        <time>2023-05-17T22:10:51Z</time>
      </trkpt>
      <trkpt lat="49.36561" lon="-0.88185">
        <ele>18.3</ele>
        <time>2023-05-17T22:10:54Z</time>
      </trkpt>
      <trkpt lat="49.36586" lon="-0.88191">
        <ele>17.4</ele>
        <time>2023-05-17T22:10:57Z</time>
      </trkpt>
      <trkpt lat="49.36604" lon="-0.88191">
        <ele>16.8</ele>
        <time>2023-05-17T22:10:59Z</time>
      </trkpt>
      <trkpt lat="49.36631" lon="-0.88187">
        <ele>15.7</ele>
        <time>2023-05-17T22:11:02Z</time>
      </trkpt>
      <trkpt lat="49.36655" lon="-0.88172">
        <ele>14.5</ele>
        <time>2023-05-17T22:11:05Z</time>
      </trkpt>
      <trkpt lat="49.36679" lon="-0.88159">
        <ele>13.4</ele>
        <time>2023-05-17T22:11:08Z</time>
      </trkpt>
      <trkpt lat="49.36698" lon="-0.88153">
        <ele>12.6</ele>
        <time>2023-05-17T22:11:10Z</time>
      </trkpt>
      <trkpt lat="49.36718" lon="-0.88146">
        <ele>12.3</ele>
        <time>2023-05-17T22:11:12Z</time>
      </trkpt>
      <trkpt lat="49.36737" lon="-0.8814">
        <ele>11.9</ele>
        <time>2023-05-17T22:11:14Z</time>
      </trkpt>
      <trkpt lat="49.36755" lon="-0.88134">
        <ele>11.4</ele>
        <time>2023-05-17T22:11:16Z</time>
      </trkpt>
      <trkpt lat="49.36773" lon="-0.88128">
        <ele>10.8</ele>
        <time>2023-05-17T22:11:18Z</time>
      </trkpt>
      <trkpt lat="49.36792" lon="-0.88122">
        <ele>10.4</ele>
        <time>2023-05-17T22:11:20Z</time>
      </trkpt>
      <trkpt lat="49.3681" lon="-0.88117">
        <ele>10</ele>
        <time>2023-05-17T22:11:22Z</time>
      </trkpt>
      <trkpt lat="49.36837" lon="-0.88111">
        <ele>9.4</ele>
        <time>2023-05-17T22:11:25Z</time>
      </trkpt>
      <trkpt lat="49.36854" lon="-0.88103">
        <ele>9</ele>
        <time>2023-05-17T22:11:27Z</time>
      </trkpt>
      <trkpt lat="49.36878" lon="-0.88088">
        <ele>8.4</ele>
        <time>2023-05-17T22:11:30Z</time>
      </trkpt>
      <trkpt lat="49.36901" lon="-0.88073">
        <ele>7.9</ele>
        <time>2023-05-17T22:11:33Z</time>
      </trkpt>
      <trkpt lat="49.36923" lon="-0.88058">
        <ele>7.5</ele>
        <time>2023-05-17T22:11:36Z</time>
      </trkpt>
      <trkpt lat="49.36946" lon="-0.88045">
        <ele>7.2</ele>
        <time>2023-05-17T22:11:39Z</time>
      </trkpt>
      <trkpt lat="49.36965" lon="-0.88027">
        <ele>6.7</ele>
        <time>2023-05-17T22:11:42Z</time>
      </trkpt>
      <trkpt lat="49.36982" lon="-0.88013">
        <ele>6.2</ele>
        <time>2023-05-17T22:11:45Z</time>
      </trkpt>
      <trkpt lat="49.37001" lon="-0.88025">
        <ele>6</ele>
        <time>2023-05-17T22:11:48Z</time>
      </trkpt>
      <trkpt lat="49.37021" lon="-0.88022">
        <ele>5.8</ele>
        <time>2023-05-17T22:11:51Z</time>
      </trkpt>
      <trkpt lat="49.3704" lon="-0.88019">
        <ele>5.6</ele>
        <time>2023-05-17T22:11:54Z</time>
      </trkpt>
      <trkpt lat="49.37059" lon="-0.88018">
        <ele>5.4</ele>
        <time>2023-05-17T22:11:57Z</time>
      </trkpt>
      <trkpt lat="49.37078" lon="-0.88022">
        <ele>5.4</ele>
        <time>2023-05-17T22:12:00Z</time>
      </trkpt>
      <trkpt lat="49.37096" lon="-0.88036">
        <ele>5.3</ele>
        <time>2023-05-17T22:12:03Z</time>
      </trkpt>
      <trkpt lat="49.37108" lon="-0.8806">
        <ele>5.2</ele>
        <time>2023-05-17T22:12:06Z</time>
      </trkpt>
      <trkpt lat="49.37118" lon="-0.88087">
        <ele>5.2</ele>
        <time>2023-05-17T22:12:09Z</time>
      </trkpt>
      <trkpt lat="49.37128" lon="-0.88114">
        <ele>5.1</ele>
        <time>2023-05-17T22:12:12Z</time>
      </trkpt>
      <trkpt lat="49.37137" lon="-0.8814">
        <ele>5.1</ele>
        <time>2023-05-17T22:12:15Z</time>
      </trkpt>
      <trkpt lat="49.37146" lon="-0.88166">
        <ele>5</ele>
        <time>2023-05-17T22:12:18Z</time>
      </trkpt>
      <trkpt lat="49.37155" lon="-0.88191">
        <ele>5</ele>
        <time>2023-05-17T22:12:21Z</time>
      </trkpt>
      <trkpt lat="49.37165" lon="-0.88218">
        <ele>5</ele>
        <time>2023-05-17T22:12:24Z</time>
      </trkpt>
      <trkpt lat="49.37174" lon="-0.88244">
        <ele>5</ele>
        <time>2023-05-17T22:12:27Z</time>
      </trkpt>
      <trkpt lat="49.37183" lon="-0.88269">
        <ele>5</ele>
        <time>2023-05-17T22:12:30Z</time>
      </trkpt>
      <trkpt lat="49.37192" lon="-0.88296">
        <ele>5</ele>
        <time>2023-05-17T22:12:33Z</time>
      </trkpt>
      <trkpt lat="49.37202" lon="-0.88322">
        <ele>4.9</ele>
        <time>2023-05-17T22:12:36Z</time>
      </trkpt>
      <trkpt lat="49.37211" lon="-0.88348">
        <ele>4.9</ele>
        <time>2023-05-17T22:12:39Z</time>
      </trkpt>
      <trkpt lat="49.3722" lon="-0.88374">
        <ele>4.9</ele>
        <time>2023-05-17T22:12:42Z</time>
      </trkpt>
      <trkpt lat="49.37229" lon="-0.88399">
        <ele>4.9</ele>
        <time>2023-05-17T22:12:45Z</time>
      </trkpt>
      <trkpt lat="49.37238" lon="-0.88425">
        <ele>4.8</ele>
        <time>2023-05-17T22:12:48Z</time>
      </trkpt>
      <trkpt lat="49.37247" lon="-0.88451">
        <ele>4.8</ele>
        <time>2023-05-17T22:12:51Z</time>
      </trkpt>
      <trkpt lat="49.37256" lon="-0.88477">
        <ele>4.8</ele>
        <time>2023-05-17T22:12:54Z</time>
      </trkpt>
      <trkpt lat="49.37265" lon="-0.88504">
        <ele>4.8</ele>
        <time>2023-05-17T22:12:57Z</time>
      </trkpt>
      <trkpt lat="49.37274" lon="-0.8853">
        <ele>4.8</ele>
        <time>2023-05-17T22:13:00Z</time>
      </trkpt>
      <trkpt lat="49.37284" lon="-0.88557">
        <ele>4.8</ele>
        <time>2023-05-17T22:13:03Z</time>
      </trkpt>
      <trkpt lat="49.37292" lon="-0.88582">
        <ele>4.8</ele>
        <time>2023-05-17T22:13:06Z</time>
      </trkpt>
      <trkpt lat="49.37302" lon="-0.88609">
        <ele>4.8</ele>
        <time>2023-05-17T22:13:09Z</time>
      </trkpt>
      <trkpt lat="49.37311" lon="-0.88635">
        <ele>4.8</ele>
        <time>2023-05-17T22:13:12Z</time>
      </trkpt>
      <trkpt lat="49.37321" lon="-0.8866">
        <ele>4.8</ele>
        <time>2023-05-17T22:13:15Z</time>
      </trkpt>
      <trkpt lat="49.37329" lon="-0.88687">
        <ele>4.8</ele>
        <time>2023-05-17T22:13:18Z</time>
      </trkpt>
      <trkpt lat="49.37339" lon="-0.88713">
        <ele>4.7</ele>
        <time>2023-05-17T22:13:21Z</time>
      </trkpt>
      <trkpt lat="49.37348" lon="-0.8874">
        <ele>4.7</ele>
        <time>2023-05-17T22:13:24Z</time>
      </trkpt>
      <trkpt lat="49.37357" lon="-0.88767">
        <ele>4.7</ele>
        <time>2023-05-17T22:13:27Z</time>
      </trkpt>
      <trkpt lat="49.37366" lon="-0.88793">
        <ele>4.7</ele>
        <time>2023-05-17T22:13:30Z</time>
      </trkpt>
      <trkpt lat="49.37376" lon="-0.88821">
        <ele>4.7</ele>
        <time>2023-05-17T22:13:33Z</time>
      </trkpt>
      <trkpt lat="49.37386" lon="-0.88847">
        <ele>4.7</ele>
        <time>2023-05-17T22:13:36Z</time>
      </trkpt>
      <trkpt lat="49.37395" lon="-0.88873">
        <ele>4.7</ele>
        <time>2023-05-17T22:13:39Z</time>
      </trkpt>
      <trkpt lat="49.37404" lon="-0.88898">
        <ele>4.7</ele>
        <time>2023-05-17T22:13:42Z</time>
      </trkpt>
      <trkpt lat="49.37413" lon="-0.88925">
        <ele>4.7</ele>
        <time>2023-05-17T22:13:45Z</time>
      </trkpt>
      <trkpt lat="49.37422" lon="-0.88951">
        <ele>4.7</ele>
        <time>2023-05-17T22:13:48Z</time>
      </trkpt>
      <trkpt lat="49.37431" lon="-0.88978">
        <ele>4.8</ele>
        <time>2023-05-17T22:13:51Z</time>
      </trkpt>
      <trkpt lat="49.37441" lon="-0.89003">
        <ele>4.7</ele>
        <time>2023-05-17T22:13:54Z</time>
      </trkpt>
      <trkpt lat="49.3745" lon="-0.89028">
        <ele>4.7</ele>
        <time>2023-05-17T22:13:57Z</time>
      </trkpt>
      <trkpt lat="49.37458" lon="-0.89055">
        <ele>4.7</ele>
        <time>2023-05-17T22:14:00Z</time>
      </trkpt>
      <trkpt lat="49.37468" lon="-0.89081">
        <ele>4.7</ele>
        <time>2023-05-17T22:14:03Z</time>
      </trkpt>
      <trkpt lat="49.37476" lon="-0.89108">
        <ele>4.7</ele>
        <time>2023-05-17T22:14:06Z</time>
      </trkpt>
      <trkpt lat="49.37486" lon="-0.89133">
        <ele>4.7</ele>
        <time>2023-05-17T22:14:09Z</time>
      </trkpt>
      <trkpt lat="49.37496" lon="-0.89159">
        <ele>4.7</ele>
        <time>2023-05-17T22:14:12Z</time>
      </trkpt>
      <trkpt lat="49.37505" lon="-0.89186">
        <ele>4.7</ele>
        <time>2023-05-17T22:14:15Z</time>
      </trkpt>
      <trkpt lat="49.37514" lon="-0.89212">
        <ele>4.6</ele>
        <time>2023-05-17T22:14:18Z</time>
      </trkpt>
      <trkpt lat="49.37523" lon="-0.89239">
        <ele>4.6</ele>
        <time>2023-05-17T22:14:21Z</time>
      </trkpt>
      <trkpt lat="49.37532" lon="-0.89266">
        <ele>4.6</ele>
        <time>2023-05-17T22:14:24Z</time>
      </trkpt>
      <trkpt lat="49.37541" lon="-0.89292">
        <ele>4.6</ele>
        <time>2023-05-17T22:14:27Z</time>
      </trkpt>
      <trkpt lat="49.3755" lon="-0.89319">
        <ele>4.6</ele>
        <time>2023-05-17T22:14:30Z</time>
      </trkpt>
      <trkpt lat="49.37559" lon="-0.89346">
        <ele>4.6</ele>
        <time>2023-05-17T22:14:33Z</time>
      </trkpt>
      <trkpt lat="49.37567" lon="-0.89372">
        <ele>4.5</ele>
        <time>2023-05-17T22:14:36Z</time>
      </trkpt>
      <trkpt lat="49.37577" lon="-0.89398">
        <ele>4.5</ele>
        <time>2023-05-17T22:14:39Z</time>
      </trkpt>
      <trkpt lat="49.37586" lon="-0.89424">
        <ele>4.6</ele>
        <time>2023-05-17T22:14:42Z</time>
      </trkpt>
      <trkpt lat="49.37594" lon="-0.89449">
        <ele>4.6</ele>
        <time>2023-05-17T22:14:45Z</time>
      </trkpt>
      <trkpt lat="49.37604" lon="-0.89475">
        <ele>4.6</ele>
        <time>2023-05-17T22:14:48Z</time>
      </trkpt>
      <trkpt lat="49.37613" lon="-0.89499">
        <ele>4.7</ele>
        <time>2023-05-17T22:14:51Z</time>
      </trkpt>
      <trkpt lat="49.37622" lon="-0.89524">
        <ele>4.7</ele>
        <time>2023-05-17T22:14:54Z</time>
      </trkpt>
      <trkpt lat="49.37631" lon="-0.89549">
        <ele>4.7</ele>
        <time>2023-05-17T22:14:57Z</time>
      </trkpt>
      <trkpt lat="49.37643" lon="-0.89581">
        <ele>4.6</ele>
        <time>2023-05-17T22:15:01Z</time>
      </trkpt>
      <trkpt lat="49.37653" lon="-0.89606">
        <ele>4.6</ele>
        <time>2023-05-17T22:15:04Z</time>
      </trkpt>
      <trkpt lat="49.37663" lon="-0.8963">
        <ele>4.6</ele>
        <time>2023-05-17T22:15:07Z</time>
      </trkpt>
      <trkpt lat="49.37672" lon="-0.89654">
        <ele>4.5</ele>
        <time>2023-05-17T22:15:10Z</time>
      </trkpt>
      <trkpt lat="49.37683" lon="-0.89677">
        <ele>4.6</ele>
        <time>2023-05-17T22:15:13Z</time>
      </trkpt>
      <trkpt lat="49.37694" lon="-0.89701">
        <ele>4.5</ele>
        <time>2023-05-17T22:15:16Z</time>
      </trkpt>
      <trkpt lat="49.37704" lon="-0.89724">
        <ele>4.5</ele>
        <time>2023-05-17T22:15:19Z</time>
      </trkpt>
      <trkpt lat="49.37714" lon="-0.89748">
        <ele>4.4</ele>
        <time>2023-05-17T22:15:22Z</time>
      </trkpt>
      <trkpt lat="49.37724" lon="-0.89771">
        <ele>4.4</ele>
        <time>2023-05-17T22:15:25Z</time>
      </trkpt>
      <trkpt lat="49.37735" lon="-0.89794">
        <ele>4.4</ele>
        <time>2023-05-17T22:15:28Z</time>
      </trkpt>
      <trkpt lat="49.37745" lon="-0.89817">
        <ele>4.4</ele>
        <time>2023-05-17T22:15:31Z</time>
      </trkpt>
      <trkpt lat="49.37759" lon="-0.89847">
        <ele>4.4</ele>
        <time>2023-05-17T22:15:35Z</time>
      </trkpt>
      <trkpt lat="49.37769" lon="-0.8987">
        <ele>4.4</ele>
        <time>2023-05-17T22:15:38Z</time>
      </trkpt>
      <trkpt lat="49.37781" lon="-0.89901">
        <ele>4.3</ele>
        <time>2023-05-17T22:15:42Z</time>
      </trkpt>
      <trkpt lat="49.37794" lon="-0.89932">
        <ele>4.3</ele>
        <time>2023-05-17T22:15:46Z</time>
      </trkpt>
      <trkpt lat="49.37808" lon="-0.89962">
        <ele>4.3</ele>
        <time>2023-05-17T22:15:50Z</time>
      </trkpt>
      <trkpt lat="49.3782" lon="-0.89993">
        <ele>4.3</ele>
        <time>2023-05-17T22:15:54Z</time>
      </trkpt>
      <trkpt lat="49.3783" lon="-0.90016">
        <ele>4.3</ele>
        <time>2023-05-17T22:15:57Z</time>
      </trkpt>
      <trkpt lat="49.37844" lon="-0.90046">
        <ele>4.3</ele>
        <time>2023-05-17T22:16:01Z</time>
      </trkpt>
      <trkpt lat="49.37858" lon="-0.90076">
        <ele>4.4</ele>
        <time>2023-05-17T22:16:05Z</time>
      </trkpt>
      <trkpt lat="49.37867" lon="-0.901">
        <ele>4.5</ele>
        <time>2023-05-17T22:16:08Z</time>
      </trkpt>
      <trkpt lat="49.37877" lon="-0.90131">
        <ele>4.5</ele>
        <time>2023-05-17T22:16:12Z</time>
      </trkpt>
      <trkpt lat="49.37886" lon="-0.90163">
        <ele>4.7</ele>
        <time>2023-05-17T22:16:16Z</time>
      </trkpt>
      <trkpt lat="49.37894" lon="-0.90194">
        <ele>5.1</ele>
        <time>2023-05-17T22:16:20Z</time>
      </trkpt>
      <trkpt lat="49.37902" lon="-0.90225">
        <ele>6.2</ele>
        <time>2023-05-17T22:16:24Z</time>
      </trkpt>
      <trkpt lat="49.37906" lon="-0.90255">
        <ele>7.8</ele>
        <time>2023-05-17T22:16:29Z</time>
      </trkpt>
      <trkpt lat="49.37908" lon="-0.90284">
        <ele>9.7</ele>
        <time>2023-05-17T22:16:35Z</time>
      </trkpt>
      <trkpt lat="49.37905" lon="-0.90316">
        <ele>11.8</ele>
        <time>2023-05-17T22:16:42Z</time>
      </trkpt>
      <trkpt lat="49.37896" lon="-0.90342">
        <ele>13</ele>
        <time>2023-05-17T22:16:50Z</time>
      </trkpt>
      <trkpt lat="49.37878" lon="-0.90355">
        <ele>14.7</ele>
        <time>2023-05-17T22:16:57Z</time>
      </trkpt>
      <trkpt lat="49.37861" lon="-0.90366">
        <ele>16.4</ele>
        <time>2023-05-17T22:17:04Z</time>
      </trkpt>
      <trkpt lat="49.37842" lon="-0.90376">
        <ele>18.2</ele>
        <time>2023-05-17T22:17:12Z</time>
      </trkpt>
      <trkpt lat="49.37823" lon="-0.90387">
        <ele>19.7</ele>
        <time>2023-05-17T22:17:20Z</time>
      </trkpt>
      <trkpt lat="49.37805" lon="-0.90398">
        <ele>20.9</ele>
        <time>2023-05-17T22:17:27Z</time>
      </trkpt>
      <trkpt lat="49.37787" lon="-0.90407">
        <ele>22</ele>
        <time>2023-05-17T22:17:33Z</time>
      </trkpt>
      <trkpt lat="49.37768" lon="-0.90415">
        <ele>23</ele>
        <time>2023-05-17T22:17:39Z</time>
      </trkpt>
      <trkpt lat="49.37751" lon="-0.90427">
        <ele>23.9</ele>
        <time>2023-05-17T22:17:46Z</time>
      </trkpt>
      <trkpt lat="49.37742" lon="-0.90453">
        <ele>24.4</ele>
        <time>2023-05-17T22:17:53Z</time>
      </trkpt>
      <trkpt lat="49.37722" lon="-0.9046">
        <ele>25.2</ele>
        <time>2023-05-17T22:17:59Z</time>
      </trkpt>
      <trkpt lat="49.37703" lon="-0.90466">
        <ele>25.9</ele>
        <time>2023-05-17T22:18:04Z</time>
      </trkpt>
      <trkpt lat="49.37684" lon="-0.9047">
        <ele>26.6</ele>
        <time>2023-05-17T22:18:09Z</time>
      </trkpt>
      <trkpt lat="49.37666" lon="-0.90474">
        <ele>27.3</ele>
        <time>2023-05-17T22:18:14Z</time>
      </trkpt>
      <trkpt lat="49.37648" lon="-0.90477">
        <ele>28.1</ele>
        <time>2023-05-17T22:18:19Z</time>
      </trkpt>
      <trkpt lat="49.37629" lon="-0.90484">
        <ele>28.8</ele>
        <time>2023-05-17T22:18:24Z</time>
      </trkpt>
      <trkpt lat="49.37611" lon="-0.90491">
        <ele>29.6</ele>
        <time>2023-05-17T22:18:29Z</time>
      </trkpt>
      <trkpt lat="49.3759" lon="-0.90499">
        <ele>30.5</ele>
        <time>2023-05-17T22:18:35Z</time>
      </trkpt>
      <trkpt lat="49.37573" lon="-0.9051">
        <ele>31.3</ele>
        <time>2023-05-17T22:18:40Z</time>
      </trkpt>
      <trkpt lat="49.37555" lon="-0.90523">
        <ele>32.1</ele>
        <time>2023-05-17T22:18:45Z</time>
      </trkpt>
      <trkpt lat="49.37536" lon="-0.90538">
        <ele>33.1</ele>
        <time>2023-05-17T22:18:51Z</time>
      </trkpt>
      <trkpt lat="49.37519" lon="-0.90553">
        <ele>33.9</ele>
        <time>2023-05-17T22:18:57Z</time>
      </trkpt>
      <trkpt lat="49.37504" lon="-0.90568">
        <ele>34.8</ele>
        <time>2023-05-17T22:19:02Z</time>
      </trkpt>
      <trkpt lat="49.37488" lon="-0.90588">
        <ele>35.8</ele>
        <time>2023-05-17T22:19:08Z</time>
      </trkpt>
      <trkpt lat="49.37473" lon="-0.90609">
        <ele>36.8</ele>
        <time>2023-05-17T22:19:14Z</time>
      </trkpt>
      <trkpt lat="49.37462" lon="-0.90637">
        <ele>37.8</ele>
        <time>2023-05-17T22:19:20Z</time>
      </trkpt>
      <trkpt lat="49.37465" lon="-0.90668">
        <ele>38.1</ele>
        <time>2023-05-17T22:19:25Z</time>
      </trkpt>
      <trkpt lat="49.37471" lon="-0.90697">
        <ele>38.6</ele>
        <time>2023-05-17T22:19:29Z</time>
      </trkpt>
      <trkpt lat="49.37476" lon="-0.90723">
        <ele>39.1</ele>
        <time>2023-05-17T22:19:33Z</time>
      </trkpt>
      <trkpt lat="49.37483" lon="-0.90754">
        <ele>39.9</ele>
        <time>2023-05-17T22:19:38Z</time>
      </trkpt>
      <trkpt lat="49.37491" lon="-0.90783">
        <ele>40.6</ele>
        <time>2023-05-17T22:19:43Z</time>
      </trkpt>
      <trkpt lat="49.37498" lon="-0.90814">
        <ele>41.2</ele>
        <time>2023-05-17T22:19:48Z</time>
      </trkpt>
      <trkpt lat="49.37505" lon="-0.90844">
        <ele>41.9</ele>
        <time>2023-05-17T22:19:53Z</time>
      </trkpt>
      <trkpt lat="49.37509" lon="-0.90874">
        <ele>42.4</ele>
        <time>2023-05-17T22:19:58Z</time>
      </trkpt>
      <trkpt lat="49.37514" lon="-0.90906">
        <ele>42.8</ele>
        <time>2023-05-17T22:20:03Z</time>
      </trkpt>
      <trkpt lat="49.37521" lon="-0.90935">
        <ele>43</ele>
        <time>2023-05-17T22:20:07Z</time>
      </trkpt>
      <trkpt lat="49.37528" lon="-0.90964">
        <ele>43.1</ele>
        <time>2023-05-17T22:20:11Z</time>
      </trkpt>
      <trkpt lat="49.37534" lon="-0.90992">
        <ele>43.4</ele>
        <time>2023-05-17T22:20:15Z</time>
      </trkpt>
      <trkpt lat="49.37542" lon="-0.9102">
        <ele>43.6</ele>
        <time>2023-05-17T22:20:19Z</time>
      </trkpt>
      <trkpt lat="49.3755" lon="-0.91047">
        <ele>43.8</ele>
        <time>2023-05-17T22:20:23Z</time>
      </trkpt>
      <trkpt lat="49.37559" lon="-0.91074">
        <ele>43.9</ele>
        <time>2023-05-17T22:20:27Z</time>
      </trkpt>
      <trkpt lat="49.37571" lon="-0.91098">
        <ele>44.1</ele>
        <time>2023-05-17T22:20:31Z</time>
      </trkpt>
      <trkpt lat="49.37582" lon="-0.91125">
        <ele>44.3</ele>
        <time>2023-05-17T22:20:35Z</time>
      </trkpt>
      <trkpt lat="49.37592" lon="-0.91156">
        <ele>44.4</ele>
        <time>2023-05-17T22:20:39Z</time>
      </trkpt>
      <trkpt lat="49.37602" lon="-0.91185">
        <ele>44.5</ele>
        <time>2023-05-17T22:20:43Z</time>
      </trkpt>
      <trkpt lat="49.37612" lon="-0.91218">
        <ele>44.5</ele>
        <time>2023-05-17T22:20:47Z</time>
      </trkpt>
      <trkpt lat="49.37619" lon="-0.91243">
        <ele>44.5</ele>
        <time>2023-05-17T22:20:50Z</time>
      </trkpt>
      <trkpt lat="49.37626" lon="-0.91269">
        <ele>44.5</ele>
        <time>2023-05-17T22:20:53Z</time>
      </trkpt>
      <trkpt lat="49.37634" lon="-0.91294">
        <ele>44.4</ele>
        <time>2023-05-17T22:20:56Z</time>
      </trkpt>
      <trkpt lat="49.37644" lon="-0.91328">
        <ele>44.4</ele>
        <time>2023-05-17T22:21:00Z</time>
      </trkpt>
      <trkpt lat="49.37655" lon="-0.91351">
        <ele>44.4</ele>
        <time>2023-05-17T22:21:03Z</time>
      </trkpt>
      <trkpt lat="49.37666" lon="-0.91374">
        <ele>44.4</ele>
        <time>2023-05-17T22:21:06Z</time>
      </trkpt>
      <trkpt lat="49.37677" lon="-0.91397">
        <ele>44.4</ele>
        <time>2023-05-17T22:21:09Z</time>
      </trkpt>
      <trkpt lat="49.37688" lon="-0.9142">
        <ele>44.4</ele>
        <time>2023-05-17T22:21:12Z</time>
      </trkpt>
      <trkpt lat="49.37699" lon="-0.91442">
        <ele>44.5</ele>
        <time>2023-05-17T22:21:15Z</time>
      </trkpt>
      <trkpt lat="49.37713" lon="-0.91473">
        <ele>44.5</ele>
        <time>2023-05-17T22:21:19Z</time>
      </trkpt>
      <trkpt lat="49.37727" lon="-0.91502">
        <ele>44.6</ele>
        <time>2023-05-17T22:21:23Z</time>
      </trkpt>
      <trkpt lat="49.37737" lon="-0.91525">
        <ele>44.6</ele>
        <time>2023-05-17T22:21:26Z</time>
      </trkpt>
      <trkpt lat="49.3775" lon="-0.91547">
        <ele>44.7</ele>
        <time>2023-05-17T22:21:29Z</time>
      </trkpt>
      <trkpt lat="49.37764" lon="-0.91567">
        <ele>44.9</ele>
        <time>2023-05-17T22:21:32Z</time>
      </trkpt>
      <trkpt lat="49.37782" lon="-0.91588">
        <ele>45.2</ele>
        <time>2023-05-17T22:21:36Z</time>
      </trkpt>
      <trkpt lat="49.37801" lon="-0.91609">
        <ele>45.3</ele>
        <time>2023-05-17T22:21:40Z</time>
      </trkpt>
      <trkpt lat="49.3782" lon="-0.9163">
        <ele>45.4</ele>
        <time>2023-05-17T22:21:44Z</time>
      </trkpt>
      <trkpt lat="49.37836" lon="-0.91645">
        <ele>45.4</ele>
        <time>2023-05-17T22:21:47Z</time>
      </trkpt>
      <trkpt lat="49.37851" lon="-0.91661">
        <ele>45.3</ele>
        <time>2023-05-17T22:21:50Z</time>
      </trkpt>
      <trkpt lat="49.37867" lon="-0.91678">
        <ele>45.3</ele>
        <time>2023-05-17T22:21:53Z</time>
      </trkpt>
      <trkpt lat="49.37883" lon="-0.91695">
        <ele>45.2</ele>
        <time>2023-05-17T22:21:56Z</time>
      </trkpt>
      <trkpt lat="49.37898" lon="-0.91713">
        <ele>45.1</ele>
        <time>2023-05-17T22:21:59Z</time>
      </trkpt>
      <trkpt lat="49.37914" lon="-0.91731">
        <ele>45.1</ele>
        <time>2023-05-17T22:22:02Z</time>
      </trkpt>
      <trkpt lat="49.3793" lon="-0.9175">
        <ele>45.1</ele>
        <time>2023-05-17T22:22:05Z</time>
      </trkpt>
      <trkpt lat="49.37945" lon="-0.91771">
        <ele>45.2</ele>
        <time>2023-05-17T22:22:08Z</time>
      </trkpt>
      <trkpt lat="49.37959" lon="-0.91792">
        <ele>45.2</ele>
        <time>2023-05-17T22:22:11Z</time>
      </trkpt>
      <trkpt lat="49.37973" lon="-0.91813">
        <ele>45.3</ele>
        <time>2023-05-17T22:22:14Z</time>
      </trkpt>
      <trkpt lat="49.3799" lon="-0.91842">
        <ele>45.4</ele>
        <time>2023-05-17T22:22:18Z</time>
      </trkpt>
      <trkpt lat="49.38" lon="-0.91864">
        <ele>45.6</ele>
        <time>2023-05-17T22:22:21Z</time>
      </trkpt>
      <trkpt lat="49.38014" lon="-0.91884">
        <ele>45.6</ele>
        <time>2023-05-17T22:22:24Z</time>
      </trkpt>
      <trkpt lat="49.38031" lon="-0.9191">
        <ele>45.6</ele>
        <time>2023-05-17T22:22:28Z</time>
      </trkpt>
      <trkpt lat="49.38046" lon="-0.91929">
        <ele>45.7</ele>
        <time>2023-05-17T22:22:31Z</time>
      </trkpt>
      <trkpt lat="49.38059" lon="-0.91948">
        <ele>45.8</ele>
        <time>2023-05-17T22:22:34Z</time>
      </trkpt>
      <trkpt lat="49.38074" lon="-0.91969">
        <ele>45.9</ele>
        <time>2023-05-17T22:22:37Z</time>
      </trkpt>
      <trkpt lat="49.38086" lon="-0.91989">
        <ele>45.9</ele>
        <time>2023-05-17T22:22:40Z</time>
      </trkpt>
      <trkpt lat="49.38098" lon="-0.9201">
        <ele>45.9</ele>
        <time>2023-05-17T22:22:43Z</time>
      </trkpt>
      <trkpt lat="49.3811" lon="-0.92032">
        <ele>45.9</ele>
        <time>2023-05-17T22:22:46Z</time>
      </trkpt>
      <trkpt lat="49.38123" lon="-0.92052">
        <ele>45.9</ele>
        <time>2023-05-17T22:22:49Z</time>
      </trkpt>
      <trkpt lat="49.38134" lon="-0.92075">
        <ele>45.9</ele>
        <time>2023-05-17T22:22:52Z</time>
      </trkpt>
      <trkpt lat="49.38149" lon="-0.92103">
        <ele>45.8</ele>
        <time>2023-05-17T22:22:56Z</time>
      </trkpt>
      <trkpt lat="49.38164" lon="-0.9213">
        <ele>45.8</ele>
        <time>2023-05-17T22:23:00Z</time>
      </trkpt>
      <trkpt lat="49.3818" lon="-0.92158">
        <ele>45.7</ele>
        <time>2023-05-17T22:23:04Z</time>
      </trkpt>
      <trkpt lat="49.38195" lon="-0.92186">
        <ele>45.6</ele>
        <time>2023-05-17T22:23:08Z</time>
      </trkpt>
      <trkpt lat="49.38211" lon="-0.92212">
        <ele>45.5</ele>
        <time>2023-05-17T22:23:12Z</time>
      </trkpt>
      <trkpt lat="49.38227" lon="-0.92239">
        <ele>45.3</ele>
        <time>2023-05-17T22:23:16Z</time>
      </trkpt>
      <trkpt lat="49.38238" lon="-0.92264">
        <ele>45.1</ele>
        <time>2023-05-17T22:23:19Z</time>
      </trkpt>
      <trkpt lat="49.38251" lon="-0.92296">
        <ele>45</ele>
        <time>2023-05-17T22:23:23Z</time>
      </trkpt>
      <trkpt lat="49.38264" lon="-0.92318">
        <ele>44.8</ele>
        <time>2023-05-17T22:23:26Z</time>
      </trkpt>
      <trkpt lat="49.38277" lon="-0.92342">
        <ele>44.6</ele>
        <time>2023-05-17T22:23:29Z</time>
      </trkpt>
      <trkpt lat="49.38291" lon="-0.92365">
        <ele>44.3</ele>
        <time>2023-05-17T22:23:32Z</time>
      </trkpt>
      <trkpt lat="49.38304" lon="-0.92389">
        <ele>44.1</ele>
        <time>2023-05-17T22:23:35Z</time>
      </trkpt>
      <trkpt lat="49.38318" lon="-0.92412">
        <ele>44</ele>
        <time>2023-05-17T22:23:38Z</time>
      </trkpt>
      <trkpt lat="49.38331" lon="-0.92435">
        <ele>43.9</ele>
        <time>2023-05-17T22:23:41Z</time>
      </trkpt>
      <trkpt lat="49.38342" lon="-0.92459">
        <ele>43.8</ele>
        <time>2023-05-17T22:23:44Z</time>
      </trkpt>
      <trkpt lat="49.38353" lon="-0.92486">
        <ele>43.7</ele>
        <time>2023-05-17T22:23:47Z</time>
      </trkpt>
      <trkpt lat="49.38363" lon="-0.92514">
        <ele>43.6</ele>
        <time>2023-05-17T22:23:50Z</time>
      </trkpt>
      <trkpt lat="49.3837" lon="-0.92544">
        <ele>43.4</ele>
        <time>2023-05-17T22:23:53Z</time>
      </trkpt>
      <trkpt lat="49.38375" lon="-0.92574">
        <ele>43.2</ele>
        <time>2023-05-17T22:23:56Z</time>
      </trkpt>
      <trkpt lat="49.38381" lon="-0.92605">
        <ele>43</ele>
        <time>2023-05-17T22:23:59Z</time>
      </trkpt>
      <trkpt lat="49.38387" lon="-0.92636">
        <ele>42.8</ele>
        <time>2023-05-17T22:24:02Z</time>
      </trkpt>
      <trkpt lat="49.38392" lon="-0.92667">
        <ele>42.7</ele>
        <time>2023-05-17T22:24:05Z</time>
      </trkpt>
      <trkpt lat="49.38399" lon="-0.92697">
        <ele>42.5</ele>
        <time>2023-05-17T22:24:08Z</time>
      </trkpt>
      <trkpt lat="49.38408" lon="-0.92727">
        <ele>42.4</ele>
        <time>2023-05-17T22:24:11Z</time>
      </trkpt>
      <trkpt lat="49.38417" lon="-0.92757">
        <ele>42.2</ele>
        <time>2023-05-17T22:24:14Z</time>
      </trkpt>
      <trkpt lat="49.3843" lon="-0.92783">
        <ele>42.1</ele>
        <time>2023-05-17T22:24:17Z</time>
      </trkpt>
      <trkpt lat="49.38444" lon="-0.92808">
        <ele>41.9</ele>
        <time>2023-05-17T22:24:20Z</time>
      </trkpt>
      <trkpt lat="49.38459" lon="-0.92833">
        <ele>41.8</ele>
        <time>2023-05-17T22:24:23Z</time>
      </trkpt>
      <trkpt lat="49.38475" lon="-0.92856">
        <ele>41.6</ele>
        <time>2023-05-17T22:24:26Z</time>
      </trkpt>
      <trkpt lat="49.38492" lon="-0.92879">
        <ele>41.5</ele>
        <time>2023-05-17T22:24:29Z</time>
      </trkpt>
      <trkpt lat="49.38509" lon="-0.92903">
        <ele>41.3</ele>
        <time>2023-05-17T22:24:32Z</time>
      </trkpt>
      <trkpt lat="49.38526" lon="-0.92927">
        <ele>41.2</ele>
        <time>2023-05-17T22:24:35Z</time>
      </trkpt>
      <trkpt lat="49.38543" lon="-0.92951">
        <ele>40.9</ele>
        <time>2023-05-17T22:24:38Z</time>
      </trkpt>
      <trkpt lat="49.38559" lon="-0.92975">
        <ele>40.7</ele>
        <time>2023-05-17T22:24:41Z</time>
      </trkpt>
      <trkpt lat="49.38575" lon="-0.93">
        <ele>40.5</ele>
        <time>2023-05-17T22:24:44Z</time>
      </trkpt>
      <trkpt lat="49.38594" lon="-0.93026">
        <ele>40.2</ele>
        <time>2023-05-17T22:24:47Z</time>
      </trkpt>
      <trkpt lat="49.38613" lon="-0.93051">
        <ele>40</ele>
        <time>2023-05-17T22:24:50Z</time>
      </trkpt>
      <trkpt lat="49.3863" lon="-0.93078">
        <ele>39.8</ele>
        <time>2023-05-17T22:24:53Z</time>
      </trkpt>
      <trkpt lat="49.38646" lon="-0.93102">
        <ele>39.6</ele>
        <time>2023-05-17T22:24:56Z</time>
      </trkpt>
      <trkpt lat="49.38664" lon="-0.93127">
        <ele>39.3</ele>
        <time>2023-05-17T22:24:59Z</time>
      </trkpt>
      <trkpt lat="49.38681" lon="-0.93152">
        <ele>39.1</ele>
        <time>2023-05-17T22:25:02Z</time>
      </trkpt>
      <trkpt lat="49.38696" lon="-0.93178">
        <ele>39</ele>
        <time>2023-05-17T22:25:05Z</time>
      </trkpt>
      <trkpt lat="49.3871" lon="-0.93203">
        <ele>38.8</ele>
        <time>2023-05-17T22:25:08Z</time>
      </trkpt>
      <trkpt lat="49.38721" lon="-0.93231">
        <ele>38.6</ele>
        <time>2023-05-17T22:25:11Z</time>
      </trkpt>
      <trkpt lat="49.38729" lon="-0.93262">
        <ele>38.4</ele>
        <time>2023-05-17T22:25:14Z</time>
      </trkpt>
      <trkpt lat="49.38736" lon="-0.93295">
        <ele>38.1</ele>
        <time>2023-05-17T22:25:17Z</time>
      </trkpt>
      <trkpt lat="49.38743" lon="-0.93327">
        <ele>37.7</ele>
        <time>2023-05-17T22:25:20Z</time>
      </trkpt>
      <trkpt lat="49.3875" lon="-0.93359">
        <ele>37.4</ele>
        <time>2023-05-17T22:25:23Z</time>
      </trkpt>
      <trkpt lat="49.38755" lon="-0.93393">
        <ele>37</ele>
        <time>2023-05-17T22:25:26Z</time>
      </trkpt>
      <trkpt lat="49.38761" lon="-0.93426">
        <ele>36.6</ele>
        <time>2023-05-17T22:25:29Z</time>
      </trkpt>
      <trkpt lat="49.38767" lon="-0.9346">
        <ele>36.2</ele>
        <time>2023-05-17T22:25:32Z</time>
      </trkpt>
      <trkpt lat="49.38772" lon="-0.93495">
        <ele>35.8</ele>
        <time>2023-05-17T22:25:35Z</time>
      </trkpt>
      <trkpt lat="49.38779" lon="-0.93528">
        <ele>35.5</ele>
        <time>2023-05-17T22:25:38Z</time>
      </trkpt>
      <trkpt lat="49.38784" lon="-0.93562">
        <ele>35.2</ele>
        <time>2023-05-17T22:25:41Z</time>
      </trkpt>
      <trkpt lat="49.3879" lon="-0.93595">
        <ele>35.1</ele>
        <time>2023-05-17T22:25:44Z</time>
      </trkpt>
      <trkpt lat="49.38796" lon="-0.93629">
        <ele>35.2</ele>
        <time>2023-05-17T22:25:47Z</time>
      </trkpt>
      <trkpt lat="49.38802" lon="-0.93663">
        <ele>35.1</ele>
        <time>2023-05-17T22:25:50Z</time>
      </trkpt>
      <trkpt lat="49.38807" lon="-0.93695">
        <ele>35.1</ele>
        <time>2023-05-17T22:25:53Z</time>
      </trkpt>
      <trkpt lat="49.38813" lon="-0.93727">
        <ele>35.3</ele>
        <time>2023-05-17T22:25:56Z</time>
      </trkpt>
      <trkpt lat="49.38816" lon="-0.93758">
        <ele>35.3</ele>
        <time>2023-05-17T22:25:59Z</time>
      </trkpt>
      <trkpt lat="49.38818" lon="-0.9379">
        <ele>35.4</ele>
        <time>2023-05-17T22:26:02Z</time>
      </trkpt>
      <trkpt lat="49.38821" lon="-0.93822">
        <ele>35.5</ele>
        <time>2023-05-17T22:26:05Z</time>
      </trkpt>
      <trkpt lat="49.38825" lon="-0.93852">
        <ele>35.6</ele>
        <time>2023-05-17T22:26:08Z</time>
      </trkpt>
      <trkpt lat="49.38828" lon="-0.93882">
        <ele>35.6</ele>
        <time>2023-05-17T22:26:11Z</time>
      </trkpt>
      <trkpt lat="49.38829" lon="-0.93913">
        <ele>35.6</ele>
        <time>2023-05-17T22:26:14Z</time>
      </trkpt>
      <trkpt lat="49.38834" lon="-0.93946">
        <ele>35.6</ele>
        <time>2023-05-17T22:26:17Z</time>
      </trkpt>
      <trkpt lat="49.38841" lon="-0.93976">
        <ele>35.7</ele>
        <time>2023-05-17T22:26:20Z</time>
      </trkpt>
      <trkpt lat="49.38848" lon="-0.94006">
        <ele>35.7</ele>
        <time>2023-05-17T22:26:23Z</time>
      </trkpt>
      <trkpt lat="49.38854" lon="-0.94036">
        <ele>35.7</ele>
        <time>2023-05-17T22:26:26Z</time>
      </trkpt>
      <trkpt lat="49.38857" lon="-0.94067">
        <ele>35.7</ele>
        <time>2023-05-17T22:26:29Z</time>
      </trkpt>
      <trkpt lat="49.38858" lon="-0.94098">
        <ele>35.8</ele>
        <time>2023-05-17T22:26:32Z</time>
      </trkpt>
      <trkpt lat="49.38853" lon="-0.94126">
        <ele>35.9</ele>
        <time>2023-05-17T22:26:35Z</time>
      </trkpt>
      <trkpt lat="49.38848" lon="-0.94156">
        <ele>36</ele>
        <time>2023-05-17T22:26:38Z</time>
      </trkpt>
      <trkpt lat="49.38842" lon="-0.94188">
        <ele>36</ele>
        <time>2023-05-17T22:26:41Z</time>
      </trkpt>
      <trkpt lat="49.38834" lon="-0.9422">
        <ele>36</ele>
        <time>2023-05-17T22:26:44Z</time>
      </trkpt>
      <trkpt lat="49.38829" lon="-0.9425">
        <ele>36.1</ele>
        <time>2023-05-17T22:26:47Z</time>
      </trkpt>
      <trkpt lat="49.38825" lon="-0.94281">
        <ele>36</ele>
        <time>2023-05-17T22:26:50Z</time>
      </trkpt>
      <trkpt lat="49.3882" lon="-0.94311">
        <ele>36</ele>
        <time>2023-05-17T22:26:53Z</time>
      </trkpt>
      <trkpt lat="49.38817" lon="-0.94341">
        <ele>35.9</ele>
        <time>2023-05-17T22:26:56Z</time>
      </trkpt>
      <trkpt lat="49.38813" lon="-0.94374">
        <ele>35.9</ele>
        <time>2023-05-17T22:26:59Z</time>
      </trkpt>
      <trkpt lat="49.38811" lon="-0.94406">
        <ele>35.8</ele>
        <time>2023-05-17T22:27:02Z</time>
      </trkpt>
      <trkpt lat="49.38808" lon="-0.94439">
        <ele>35.8</ele>
        <time>2023-05-17T22:27:05Z</time>
      </trkpt>
      <trkpt lat="49.38806" lon="-0.9447">
        <ele>35.7</ele>
        <time>2023-05-17T22:27:08Z</time>
      </trkpt>
      <trkpt lat="49.38803" lon="-0.94502">
        <ele>35.6</ele>
        <time>2023-05-17T22:27:11Z</time>
      </trkpt>
      <trkpt lat="49.38801" lon="-0.94535">
        <ele>35.6</ele>
        <time>2023-05-17T22:27:14Z</time>
      </trkpt>
      <trkpt lat="49.388" lon="-0.94567">
        <ele>35.5</ele>
        <time>2023-05-17T22:27:17Z</time>
      </trkpt>
      <trkpt lat="49.38797" lon="-0.94598">
        <ele>35.5</ele>
        <time>2023-05-17T22:27:20Z</time>
      </trkpt>
      <trkpt lat="49.38796" lon="-0.94631">
        <ele>35.3</ele>
        <time>2023-05-17T22:27:23Z</time>
      </trkpt>
      <trkpt lat="49.38793" lon="-0.94664">
        <ele>35.3</ele>
        <time>2023-05-17T22:27:26Z</time>
      </trkpt>
      <trkpt lat="49.38792" lon="-0.94697">
        <ele>35.3</ele>
        <time>2023-05-17T22:27:29Z</time>
      </trkpt>
      <trkpt lat="49.38791" lon="-0.94729">
        <ele>35.3</ele>
        <time>2023-05-17T22:27:32Z</time>
      </trkpt>
      <trkpt lat="49.38789" lon="-0.94761">
        <ele>35.3</ele>
        <time>2023-05-17T22:27:35Z</time>
      </trkpt>
      <trkpt lat="49.38788" lon="-0.94793">
        <ele>35.3</ele>
        <time>2023-05-17T22:27:38Z</time>
      </trkpt>
      <trkpt lat="49.38786" lon="-0.94823">
        <ele>35.4</ele>
        <time>2023-05-17T22:27:41Z</time>
      </trkpt>
      <trkpt lat="49.38784" lon="-0.94853">
        <ele>35.5</ele>
        <time>2023-05-17T22:27:44Z</time>
      </trkpt>
      <trkpt lat="49.38785" lon="-0.94884">
        <ele>35.5</ele>
        <time>2023-05-17T22:27:47Z</time>
      </trkpt>
      <trkpt lat="49.38789" lon="-0.94913">
        <ele>35.7</ele>
        <time>2023-05-17T22:27:50Z</time>
      </trkpt>
      <trkpt lat="49.38793" lon="-0.94943">
        <ele>36</ele>
        <time>2023-05-17T22:27:53Z</time>
      </trkpt>
      <trkpt lat="49.38795" lon="-0.94972">
        <ele>36.3</ele>
        <time>2023-05-17T22:27:56Z</time>
      </trkpt>
      <trkpt lat="49.38794" lon="-0.95001">
        <ele>36.5</ele>
        <time>2023-05-17T22:27:59Z</time>
      </trkpt>
      <trkpt lat="49.38796" lon="-0.9503">
        <ele>36.7</ele>
        <time>2023-05-17T22:28:02Z</time>
      </trkpt>
      <trkpt lat="49.38796" lon="-0.95057">
        <ele>36.9</ele>
        <time>2023-05-17T22:28:05Z</time>
      </trkpt>
      <trkpt lat="49.38796" lon="-0.95085">
        <ele>37</ele>
        <time>2023-05-17T22:28:08Z</time>
      </trkpt>
      <trkpt lat="49.38796" lon="-0.95113">
        <ele>37.1</ele>
        <time>2023-05-17T22:28:11Z</time>
      </trkpt>
      <trkpt lat="49.38797" lon="-0.95141">
        <ele>37.2</ele>
        <time>2023-05-17T22:28:14Z</time>
      </trkpt>
      <trkpt lat="49.38798" lon="-0.9517">
        <ele>37.3</ele>
        <time>2023-05-17T22:28:17Z</time>
      </trkpt>
      <trkpt lat="49.38799" lon="-0.95198">
        <ele>37.3</ele>
        <time>2023-05-17T22:28:20Z</time>
      </trkpt>
      <trkpt lat="49.388" lon="-0.95227">
        <ele>37.4</ele>
        <time>2023-05-17T22:28:23Z</time>
      </trkpt>
      <trkpt lat="49.38801" lon="-0.95256">
        <ele>37.4</ele>
        <time>2023-05-17T22:28:26Z</time>
      </trkpt>
      <trkpt lat="49.388" lon="-0.95286">
        <ele>37.5</ele>
        <time>2023-05-17T22:28:29Z</time>
      </trkpt>
      <trkpt lat="49.38801" lon="-0.95316">
        <ele>37.6</ele>
        <time>2023-05-17T22:28:32Z</time>
      </trkpt>
      <trkpt lat="49.388" lon="-0.95345">
        <ele>37.6</ele>
        <time>2023-05-17T22:28:35Z</time>
      </trkpt>
      <trkpt lat="49.38799" lon="-0.95373">
        <ele>37.6</ele>
        <time>2023-05-17T22:28:38Z</time>
      </trkpt>
      <trkpt lat="49.388" lon="-0.95404">
        <ele>37.7</ele>
        <time>2023-05-17T22:28:41Z</time>
      </trkpt>
      <trkpt lat="49.388" lon="-0.95435">
        <ele>37.7</ele>
        <time>2023-05-17T22:28:44Z</time>
      </trkpt>
      <trkpt lat="49.388" lon="-0.95466">
        <ele>37.7</ele>
        <time>2023-05-17T22:28:47Z</time>
      </trkpt>
      <trkpt lat="49.38799" lon="-0.95498">
        <ele>37.8</ele>
        <time>2023-05-17T22:28:50Z</time>
      </trkpt>
      <trkpt lat="49.38799" lon="-0.95528">
        <ele>37.8</ele>
        <time>2023-05-17T22:28:53Z</time>
      </trkpt>
      <trkpt lat="49.38797" lon="-0.95558">
        <ele>37.8</ele>
        <time>2023-05-17T22:28:56Z</time>
      </trkpt>
      <trkpt lat="49.38795" lon="-0.95587">
        <ele>37.8</ele>
        <time>2023-05-17T22:28:59Z</time>
      </trkpt>
      <trkpt lat="49.38792" lon="-0.95617">
        <ele>37.8</ele>
        <time>2023-05-17T22:29:02Z</time>
      </trkpt>
      <trkpt lat="49.38792" lon="-0.95646">
        <ele>37.8</ele>
        <time>2023-05-17T22:29:05Z</time>
      </trkpt>
      <trkpt lat="49.3879" lon="-0.95675">
        <ele>37.9</ele>
        <time>2023-05-17T22:29:08Z</time>
      </trkpt>
      <trkpt lat="49.38788" lon="-0.95704">
        <ele>37.8</ele>
        <time>2023-05-17T22:29:11Z</time>
      </trkpt>
      <trkpt lat="49.38787" lon="-0.95735">
        <ele>37.8</ele>
        <time>2023-05-17T22:29:14Z</time>
      </trkpt>
      <trkpt lat="49.38787" lon="-0.95767">
        <ele>37.7</ele>
        <time>2023-05-17T22:29:17Z</time>
      </trkpt>
      <trkpt lat="49.38787" lon="-0.95798">
        <ele>37.6</ele>
        <time>2023-05-17T22:29:20Z</time>
      </trkpt>
      <trkpt lat="49.38787" lon="-0.95829">
        <ele>37.6</ele>
        <time>2023-05-17T22:29:23Z</time>
      </trkpt>
      <trkpt lat="49.38787" lon="-0.9586">
        <ele>37.7</ele>
        <time>2023-05-17T22:29:26Z</time>
      </trkpt>
      <trkpt lat="49.38786" lon="-0.95891">
        <ele>37.6</ele>
        <time>2023-05-17T22:29:29Z</time>
      </trkpt>
      <trkpt lat="49.38786" lon="-0.95922">
        <ele>37.6</ele>
        <time>2023-05-17T22:29:32Z</time>
      </trkpt>
      <trkpt lat="49.38787" lon="-0.95953">
        <ele>37.6</ele>
        <time>2023-05-17T22:29:35Z</time>
      </trkpt>
      <trkpt lat="49.38787" lon="-0.95983">
        <ele>37.6</ele>
        <time>2023-05-17T22:29:38Z</time>
      </trkpt>
      <trkpt lat="49.38787" lon="-0.96013">
        <ele>37.6</ele>
        <time>2023-05-17T22:29:41Z</time>
      </trkpt>
      <trkpt lat="49.38786" lon="-0.96043">
        <ele>37.6</ele>
        <time>2023-05-17T22:29:44Z</time>
      </trkpt>
      <trkpt lat="49.38785" lon="-0.96073">
        <ele>37.6</ele>
        <time>2023-05-17T22:29:47Z</time>
      </trkpt>
      <trkpt lat="49.38787" lon="-0.96102">
        <ele>37.7</ele>
        <time>2023-05-17T22:29:50Z</time>
      </trkpt>
      <trkpt lat="49.38786" lon="-0.96132">
        <ele>37.7</ele>
        <time>2023-05-17T22:29:53Z</time>
      </trkpt>
      <trkpt lat="49.38786" lon="-0.96163">
        <ele>37.7</ele>
        <time>2023-05-17T22:29:56Z</time>
      </trkpt>
      <trkpt lat="49.38787" lon="-0.96193">
        <ele>37.7</ele>
        <time>2023-05-17T22:29:59Z</time>
      </trkpt>
      <trkpt lat="49.38788" lon="-0.96223">
        <ele>37.7</ele>
        <time>2023-05-17T22:30:02Z</time>
      </trkpt>
      <trkpt lat="49.38787" lon="-0.96253">
        <ele>37.7</ele>
        <time>2023-05-17T22:30:05Z</time>
      </trkpt>
      <trkpt lat="49.38789" lon="-0.96282">
        <ele>37.7</ele>
        <time>2023-05-17T22:30:08Z</time>
      </trkpt>
      <trkpt lat="49.38791" lon="-0.96312">
        <ele>37.8</ele>
        <time>2023-05-17T22:30:11Z</time>
      </trkpt>
      <trkpt lat="49.38795" lon="-0.96341">
        <ele>37.9</ele>
        <time>2023-05-17T22:30:14Z</time>
      </trkpt>
      <trkpt lat="49.38799" lon="-0.96369">
        <ele>37.9</ele>
        <time>2023-05-17T22:30:17Z</time>
      </trkpt>
      <trkpt lat="49.388" lon="-0.96398">
        <ele>37.9</ele>
        <time>2023-05-17T22:30:20Z</time>
      </trkpt>
      <trkpt lat="49.38801" lon="-0.96427">
        <ele>38</ele>
        <time>2023-05-17T22:30:23Z</time>
      </trkpt>
      <trkpt lat="49.38804" lon="-0.96457">
        <ele>37.9</ele>
        <time>2023-05-17T22:30:26Z</time>
      </trkpt>
      <trkpt lat="49.38804" lon="-0.96488">
        <ele>37.9</ele>
        <time>2023-05-17T22:30:29Z</time>
      </trkpt>
      <trkpt lat="49.38803" lon="-0.96518">
        <ele>37.9</ele>
        <time>2023-05-17T22:30:32Z</time>
      </trkpt>
      <trkpt lat="49.38802" lon="-0.96548">
        <ele>37.8</ele>
        <time>2023-05-17T22:30:35Z</time>
      </trkpt>
      <trkpt lat="49.388" lon="-0.96578">
        <ele>37.8</ele>
        <time>2023-05-17T22:30:38Z</time>
      </trkpt>
      <trkpt lat="49.38798" lon="-0.96608">
        <ele>37.8</ele>
        <time>2023-05-17T22:30:41Z</time>
      </trkpt>
      <trkpt lat="49.38796" lon="-0.96639">
        <ele>37.8</ele>
        <time>2023-05-17T22:30:44Z</time>
      </trkpt>
      <trkpt lat="49.38794" lon="-0.9667">
        <ele>37.8</ele>
        <time>2023-05-17T22:30:47Z</time>
      </trkpt>
      <trkpt lat="49.38793" lon="-0.96701">
        <ele>37.8</ele>
        <time>2023-05-17T22:30:50Z</time>
      </trkpt>
      <trkpt lat="49.38791" lon="-0.96731">
        <ele>37.7</ele>
        <time>2023-05-17T22:30:53Z</time>
      </trkpt>
      <trkpt lat="49.3879" lon="-0.96761">
        <ele>37.7</ele>
        <time>2023-05-17T22:30:56Z</time>
      </trkpt>
      <trkpt lat="49.38789" lon="-0.96791">
        <ele>37.7</ele>
        <time>2023-05-17T22:30:59Z</time>
      </trkpt>
      <trkpt lat="49.38787" lon="-0.96821">
        <ele>37.7</ele>
        <time>2023-05-17T22:31:02Z</time>
      </trkpt>
      <trkpt lat="49.38785" lon="-0.96851">
        <ele>37.6</ele>
        <time>2023-05-17T22:31:05Z</time>
      </trkpt>
      <trkpt lat="49.38783" lon="-0.96881">
        <ele>37.5</ele>
        <time>2023-05-17T22:31:08Z</time>
      </trkpt>
      <trkpt lat="49.3878" lon="-0.96912">
        <ele>37.5</ele>
        <time>2023-05-17T22:31:11Z</time>
      </trkpt>
      <trkpt lat="49.38776" lon="-0.96945">
        <ele>37.4</ele>
        <time>2023-05-17T22:31:14Z</time>
      </trkpt>
      <trkpt lat="49.38774" lon="-0.96976">
        <ele>37.3</ele>
        <time>2023-05-17T22:31:17Z</time>
      </trkpt>
      <trkpt lat="49.38772" lon="-0.97007">
        <ele>37.2</ele>
        <time>2023-05-17T22:31:20Z</time>
      </trkpt>
      <trkpt lat="49.38772" lon="-0.97038">
        <ele>37</ele>
        <time>2023-05-17T22:31:23Z</time>
      </trkpt>
      <trkpt lat="49.38772" lon="-0.97069">
        <ele>36.9</ele>
        <time>2023-05-17T22:31:26Z</time>
      </trkpt>
      <trkpt lat="49.38772" lon="-0.971">
        <ele>36.8</ele>
        <time>2023-05-17T22:31:29Z</time>
      </trkpt>
      <trkpt lat="49.38773" lon="-0.97131">
        <ele>36.7</ele>
        <time>2023-05-17T22:31:32Z</time>
      </trkpt>
      <trkpt lat="49.38771" lon="-0.97163">
        <ele>36.6</ele>
        <time>2023-05-17T22:31:35Z</time>
      </trkpt>
      <trkpt lat="49.38768" lon="-0.97194">
        <ele>36.5</ele>
        <time>2023-05-17T22:31:38Z</time>
      </trkpt>
      <trkpt lat="49.38761" lon="-0.97224">
        <ele>36.5</ele>
        <time>2023-05-17T22:31:41Z</time>
      </trkpt>
      <trkpt lat="49.38755" lon="-0.97254">
        <ele>36.4</ele>
        <time>2023-05-17T22:31:44Z</time>
      </trkpt>
      <trkpt lat="49.38749" lon="-0.97283">
        <ele>36.4</ele>
        <time>2023-05-17T22:31:47Z</time>
      </trkpt>
      <trkpt lat="49.38743" lon="-0.97313">
        <ele>36.3</ele>
        <time>2023-05-17T22:31:50Z</time>
      </trkpt>
      <trkpt lat="49.38739" lon="-0.97344">
        <ele>36.3</ele>
        <time>2023-05-17T22:31:53Z</time>
      </trkpt>
      <trkpt lat="49.38738" lon="-0.97374">
        <ele>36.3</ele>
        <time>2023-05-17T22:31:56Z</time>
      </trkpt>
      <trkpt lat="49.38738" lon="-0.97405">
        <ele>36.1</ele>
        <time>2023-05-17T22:31:59Z</time>
      </trkpt>
      <trkpt lat="49.38737" lon="-0.97436">
        <ele>36.1</ele>
        <time>2023-05-17T22:32:02Z</time>
      </trkpt>
      <trkpt lat="49.38735" lon="-0.97466">
        <ele>36.1</ele>
        <time>2023-05-17T22:32:05Z</time>
      </trkpt>
      <trkpt lat="49.38735" lon="-0.97496">
        <ele>36.3</ele>
        <time>2023-05-17T22:32:08Z</time>
      </trkpt>
      <trkpt lat="49.38734" lon="-0.97528">
        <ele>36.3</ele>
        <time>2023-05-17T22:32:11Z</time>
      </trkpt>
      <trkpt lat="49.38734" lon="-0.97558">
        <ele>36.3</ele>
        <time>2023-05-17T22:32:14Z</time>
      </trkpt>
      <trkpt lat="49.38733" lon="-0.9759">
        <ele>36.3</ele>
        <time>2023-05-17T22:32:17Z</time>
      </trkpt>
      <trkpt lat="49.38731" lon="-0.97621">
        <ele>36.3</ele>
        <time>2023-05-17T22:32:20Z</time>
      </trkpt>
      <trkpt lat="49.38731" lon="-0.9765">
        <ele>36.3</ele>
        <time>2023-05-17T22:32:23Z</time>
      </trkpt>
      <trkpt lat="49.38732" lon="-0.97678">
        <ele>36.4</ele>
        <time>2023-05-17T22:32:26Z</time>
      </trkpt>
      <trkpt lat="49.38732" lon="-0.97708">
        <ele>36.4</ele>
        <time>2023-05-17T22:32:29Z</time>
      </trkpt>
      <trkpt lat="49.38732" lon="-0.97738">
        <ele>36.4</ele>
        <time>2023-05-17T22:32:32Z</time>
      </trkpt>
      <trkpt lat="49.38735" lon="-0.97766">
        <ele>36.4</ele>
        <time>2023-05-17T22:32:35Z</time>
      </trkpt>
      <trkpt lat="49.38738" lon="-0.97797">
        <ele>36.4</ele>
        <time>2023-05-17T22:32:38Z</time>
      </trkpt>
      <trkpt lat="49.38744" lon="-0.97827">
        <ele>36.5</ele>
        <time>2023-05-17T22:32:41Z</time>
      </trkpt>
      <trkpt lat="49.38747" lon="-0.97856">
        <ele>36.5</ele>
        <time>2023-05-17T22:32:44Z</time>
      </trkpt>
      <trkpt lat="49.38751" lon="-0.97886">
        <ele>36.5</ele>
        <time>2023-05-17T22:32:47Z</time>
      </trkpt>
      <trkpt lat="49.38752" lon="-0.97916">
        <ele>36.3</ele>
        <time>2023-05-17T22:32:50Z</time>
      </trkpt>
      <trkpt lat="49.38754" lon="-0.97946">
        <ele>36.2</ele>
        <time>2023-05-17T22:32:53Z</time>
      </trkpt>
      <trkpt lat="49.38755" lon="-0.97977">
        <ele>36.2</ele>
        <time>2023-05-17T22:32:56Z</time>
      </trkpt>
      <trkpt lat="49.38756" lon="-0.98007">
        <ele>36.2</ele>
        <time>2023-05-17T22:32:59Z</time>
      </trkpt>
      <trkpt lat="49.38758" lon="-0.98039">
        <ele>36.3</ele>
        <time>2023-05-17T22:33:02Z</time>
      </trkpt>
      <trkpt lat="49.38762" lon="-0.98069">
        <ele>36.3</ele>
        <time>2023-05-17T22:33:05Z</time>
      </trkpt>
      <trkpt lat="49.38766" lon="-0.98101">
        <ele>36.3</ele>
        <time>2023-05-17T22:33:08Z</time>
      </trkpt>
      <trkpt lat="49.3877" lon="-0.98131">
        <ele>36.3</ele>
        <time>2023-05-17T22:33:11Z</time>
      </trkpt>
      <trkpt lat="49.38775" lon="-0.98161">
        <ele>36.3</ele>
        <time>2023-05-17T22:33:14Z</time>
      </trkpt>
      <trkpt lat="49.38779" lon="-0.9819">
        <ele>36.4</ele>
        <time>2023-05-17T22:33:17Z</time>
      </trkpt>
      <trkpt lat="49.3878" lon="-0.98222">
        <ele>36.4</ele>
        <time>2023-05-17T22:33:20Z</time>
      </trkpt>
      <trkpt lat="49.3878" lon="-0.98255">
        <ele>36.4</ele>
        <time>2023-05-17T22:33:23Z</time>
      </trkpt>
      <trkpt lat="49.38778" lon="-0.98286">
        <ele>36.4</ele>
        <time>2023-05-17T22:33:26Z</time>
      </trkpt>
      <trkpt lat="49.38779" lon="-0.98316">
        <ele>36.4</ele>
        <time>2023-05-17T22:33:29Z</time>
      </trkpt>
      <trkpt lat="49.38781" lon="-0.98348">
        <ele>36.4</ele>
        <time>2023-05-17T22:33:32Z</time>
      </trkpt>
      <trkpt lat="49.38786" lon="-0.98378">
        <ele>36.4</ele>
        <time>2023-05-17T22:33:35Z</time>
      </trkpt>
      <trkpt lat="49.38793" lon="-0.98409">
        <ele>36.4</ele>
        <time>2023-05-17T22:33:38Z</time>
      </trkpt>
      <trkpt lat="49.38798" lon="-0.98439">
        <ele>36.4</ele>
        <time>2023-05-17T22:33:41Z</time>
      </trkpt>
      <trkpt lat="49.38805" lon="-0.98468">
        <ele>36.4</ele>
        <time>2023-05-17T22:33:44Z</time>
      </trkpt>
      <trkpt lat="49.38811" lon="-0.98496">
        <ele>36.3</ele>
        <time>2023-05-17T22:33:47Z</time>
      </trkpt>
      <trkpt lat="49.38819" lon="-0.98524">
        <ele>36.3</ele>
        <time>2023-05-17T22:33:50Z</time>
      </trkpt>
      <trkpt lat="49.38826" lon="-0.98555">
        <ele>36.2</ele>
        <time>2023-05-17T22:33:53Z</time>
      </trkpt>
      <trkpt lat="49.38831" lon="-0.98587">
        <ele>36</ele>
        <time>2023-05-17T22:33:56Z</time>
      </trkpt>
      <trkpt lat="49.38838" lon="-0.98617">
        <ele>35.8</ele>
        <time>2023-05-17T22:33:59Z</time>
      </trkpt>
      <trkpt lat="49.38844" lon="-0.98649">
        <ele>35.7</ele>
        <time>2023-05-17T22:34:02Z</time>
      </trkpt>
      <trkpt lat="49.3885" lon="-0.9868">
        <ele>35.6</ele>
        <time>2023-05-17T22:34:05Z</time>
      </trkpt>
      <trkpt lat="49.38856" lon="-0.98711">
        <ele>35.5</ele>
        <time>2023-05-17T22:34:08Z</time>
      </trkpt>
      <trkpt lat="49.38862" lon="-0.98743">
        <ele>35.3</ele>
        <time>2023-05-17T22:34:11Z</time>
      </trkpt>
      <trkpt lat="49.38868" lon="-0.98776">
        <ele>35.1</ele>
        <time>2023-05-17T22:34:14Z</time>
      </trkpt>
      <trkpt lat="49.38875" lon="-0.98809">
        <ele>34.9</ele>
        <time>2023-05-17T22:34:17Z</time>
      </trkpt>
      <trkpt lat="49.3888" lon="-0.9884">
        <ele>34.6</ele>
        <time>2023-05-17T22:34:20Z</time>
      </trkpt>
      <trkpt lat="49.38884" lon="-0.98874">
        <ele>34.4</ele>
        <time>2023-05-17T22:34:23Z</time>
      </trkpt>
      <trkpt lat="49.38886" lon="-0.98908">
        <ele>34.2</ele>
        <time>2023-05-17T22:34:26Z</time>
      </trkpt>
      <trkpt lat="49.38887" lon="-0.98941">
        <ele>33.9</ele>
        <time>2023-05-17T22:34:29Z</time>
      </trkpt>
      <trkpt lat="49.38889" lon="-0.98973">
        <ele>33.8</ele>
        <time>2023-05-17T22:34:32Z</time>
      </trkpt>
      <trkpt lat="49.38892" lon="-0.99007">
        <ele>33.7</ele>
        <time>2023-05-17T22:34:35Z</time>
      </trkpt>
      <trkpt lat="49.38895" lon="-0.99039">
        <ele>33.6</ele>
        <time>2023-05-17T22:34:38Z</time>
      </trkpt>
      <trkpt lat="49.38898" lon="-0.99069">
        <ele>33.5</ele>
        <time>2023-05-17T22:34:41Z</time>
      </trkpt>
      <trkpt lat="49.38907" lon="-0.99094">
        <ele>33.5</ele>
        <time>2023-05-17T22:34:44Z</time>
      </trkpt>
      <trkpt lat="49.38918" lon="-0.99118">
        <ele>33.4</ele>
        <time>2023-05-17T22:34:47Z</time>
      </trkpt>
      <trkpt lat="49.38915" lon="-0.99147">
        <ele>33.5</ele>
        <time>2023-05-17T22:34:50Z</time>
      </trkpt>
      <trkpt lat="49.38913" lon="-0.99177">
        <ele>33.4</ele>
        <time>2023-05-17T22:34:53Z</time>
      </trkpt>
      <trkpt lat="49.38916" lon="-0.99208">
        <ele>33.2</ele>
        <time>2023-05-17T22:34:56Z</time>
      </trkpt>
      <trkpt lat="49.38919" lon="-0.99241">
        <ele>33</ele>
        <time>2023-05-17T22:34:59Z</time>
      </trkpt>
      <trkpt lat="49.38922" lon="-0.99273">
        <ele>32.8</ele>
        <time>2023-05-17T22:35:02Z</time>
      </trkpt>
      <trkpt lat="49.38926" lon="-0.99307">
        <ele>32.6</ele>
        <time>2023-05-17T22:35:05Z</time>
      </trkpt>
      <trkpt lat="49.38931" lon="-0.99341">
        <ele>32.3</ele>
        <time>2023-05-17T22:35:08Z</time>
      </trkpt>
      <trkpt lat="49.38935" lon="-0.99371">
        <ele>32</ele>
        <time>2023-05-17T22:35:11Z</time>
      </trkpt>
      <trkpt lat="49.38943" lon="-0.99402">
        <ele>31.6</ele>
        <time>2023-05-17T22:35:14Z</time>
      </trkpt>
      <trkpt lat="49.38952" lon="-0.99433">
        <ele>31.2</ele>
        <time>2023-05-17T22:35:17Z</time>
      </trkpt>
      <trkpt lat="49.38961" lon="-0.99465">
        <ele>30.8</ele>
        <time>2023-05-17T22:35:20Z</time>
      </trkpt>
      <trkpt lat="49.38971" lon="-0.99497">
        <ele>30.5</ele>
        <time>2023-05-17T22:35:23Z</time>
      </trkpt>
      <trkpt lat="49.38982" lon="-0.99528">
        <ele>30.1</ele>
        <time>2023-05-17T22:35:26Z</time>
      </trkpt>
      <trkpt lat="49.38992" lon="-0.9956">
        <ele>29.6</ele>
        <time>2023-05-17T22:35:29Z</time>
      </trkpt>
      <trkpt lat="49.39001" lon="-0.99593">
        <ele>29.1</ele>
        <time>2023-05-17T22:35:32Z</time>
      </trkpt>
      <trkpt lat="49.39006" lon="-0.99629">
        <ele>28.5</ele>
        <time>2023-05-17T22:35:35Z</time>
      </trkpt>
      <trkpt lat="49.39008" lon="-0.99666">
        <ele>27.9</ele>
        <time>2023-05-17T22:35:38Z</time>
      </trkpt>
      <trkpt lat="49.3901" lon="-0.99702">
        <ele>27.3</ele>
        <time>2023-05-17T22:35:41Z</time>
      </trkpt>
      <trkpt lat="49.39013" lon="-0.99739">
        <ele>26.7</ele>
        <time>2023-05-17T22:35:44Z</time>
      </trkpt>
      <trkpt lat="49.3902" lon="-0.99777">
        <ele>25.9</ele>
        <time>2023-05-17T22:35:47Z</time>
      </trkpt>
      <trkpt lat="49.3903" lon="-0.99814">
        <ele>25</ele>
        <time>2023-05-17T22:35:50Z</time>
      </trkpt>
      <trkpt lat="49.3904" lon="-0.9985">
        <ele>24</ele>
        <time>2023-05-17T22:35:53Z</time>
      </trkpt>
      <trkpt lat="49.39052" lon="-0.99888">
        <ele>23</ele>
        <time>2023-05-17T22:35:56Z</time>
      </trkpt>
      <trkpt lat="49.39064" lon="-0.99924">
        <ele>22</ele>
        <time>2023-05-17T22:35:59Z</time>
      </trkpt>
      <trkpt lat="49.39072" lon="-0.9995">
        <ele>21.5</ele>
        <time>2023-05-17T22:36:01Z</time>
      </trkpt>
      <trkpt lat="49.3908" lon="-0.99976">
        <ele>20.9</ele>
        <time>2023-05-17T22:36:03Z</time>
      </trkpt>
      <trkpt lat="49.39089" lon="-1">
        <ele>20.3</ele>
        <time>2023-05-17T22:36:05Z</time>
      </trkpt>
      <trkpt lat="49.39098" lon="-1.00025">
        <ele>19.9</ele>
        <time>2023-05-17T22:36:07Z</time>
      </trkpt>
      <trkpt lat="49.39109" lon="-1.00049">
        <ele>19.3</ele>
        <time>2023-05-17T22:36:09Z</time>
      </trkpt>
      <trkpt lat="49.39119" lon="-1.00074">
        <ele>18.8</ele>
        <time>2023-05-17T22:36:11Z</time>
      </trkpt>
      <trkpt lat="49.39126" lon="-1.001">
        <ele>18.6</ele>
        <time>2023-05-17T22:36:13Z</time>
      </trkpt>
      <trkpt lat="49.39133" lon="-1.00138">
        <ele>18.4</ele>
        <time>2023-05-17T22:36:16Z</time>
      </trkpt>
      <trkpt lat="49.3914" lon="-1.00174">
        <ele>18.3</ele>
        <time>2023-05-17T22:36:19Z</time>
      </trkpt>
      <trkpt lat="49.39146" lon="-1.00209">
        <ele>18.3</ele>
        <time>2023-05-17T22:36:22Z</time>
      </trkpt>
      <trkpt lat="49.39151" lon="-1.00244">
        <ele>18.4</ele>
        <time>2023-05-17T22:36:25Z</time>
      </trkpt>
      <trkpt lat="49.39156" lon="-1.00277">
        <ele>18.6</ele>
        <time>2023-05-17T22:36:28Z</time>
      </trkpt>
      <trkpt lat="49.39161" lon="-1.00309">
        <ele>18.8</ele>
        <time>2023-05-17T22:36:31Z</time>
      </trkpt>
      <trkpt lat="49.39168" lon="-1.0034">
        <ele>19.1</ele>
        <time>2023-05-17T22:36:34Z</time>
      </trkpt>
      <trkpt lat="49.39177" lon="-1.00369">
        <ele>19.3</ele>
        <time>2023-05-17T22:36:37Z</time>
      </trkpt>
      <trkpt lat="49.39185" lon="-1.00396">
        <ele>19.5</ele>
        <time>2023-05-17T22:36:40Z</time>
      </trkpt>
      <trkpt lat="49.39194" lon="-1.00422">
        <ele>19.7</ele>
        <time>2023-05-17T22:36:43Z</time>
      </trkpt>
      <trkpt lat="49.39202" lon="-1.00449">
        <ele>20</ele>
        <time>2023-05-17T22:36:46Z</time>
      </trkpt>
      <trkpt lat="49.3921" lon="-1.00474">
        <ele>20.3</ele>
        <time>2023-05-17T22:36:49Z</time>
      </trkpt>
      <trkpt lat="49.3922" lon="-1.00507">
        <ele>20.7</ele>
        <time>2023-05-17T22:36:53Z</time>
      </trkpt>
      <trkpt lat="49.3923" lon="-1.0054">
        <ele>21</ele>
        <time>2023-05-17T22:36:57Z</time>
      </trkpt>
      <trkpt lat="49.39238" lon="-1.00565">
        <ele>21.3</ele>
        <time>2023-05-17T22:37:00Z</time>
      </trkpt>
      <trkpt lat="49.39245" lon="-1.00592">
        <ele>21.6</ele>
        <time>2023-05-17T22:37:03Z</time>
      </trkpt>
      <trkpt lat="49.39255" lon="-1.00625">
        <ele>21.9</ele>
        <time>2023-05-17T22:37:07Z</time>
      </trkpt>
      <trkpt lat="49.39263" lon="-1.00659">
        <ele>22.2</ele>
        <time>2023-05-17T22:37:11Z</time>
      </trkpt>
      <trkpt lat="49.39268" lon="-1.00686">
        <ele>22.3</ele>
        <time>2023-05-17T22:37:14Z</time>
      </trkpt>
      <trkpt lat="49.39271" lon="-1.00713">
        <ele>22.2</ele>
        <time>2023-05-17T22:37:17Z</time>
      </trkpt>
      <trkpt lat="49.39272" lon="-1.00743">
        <ele>22</ele>
        <time>2023-05-17T22:37:20Z</time>
      </trkpt>
      <trkpt lat="49.39269" lon="-1.00773">
        <ele>21.7</ele>
        <time>2023-05-17T22:37:23Z</time>
      </trkpt>
      <trkpt lat="49.39263" lon="-1.00802">
        <ele>21.3</ele>
        <time>2023-05-17T22:37:26Z</time>
      </trkpt>
      <trkpt lat="49.39256" lon="-1.00834">
        <ele>20.9</ele>
        <time>2023-05-17T22:37:29Z</time>
      </trkpt>
      <trkpt lat="49.39248" lon="-1.00867">
        <ele>20.5</ele>
        <time>2023-05-17T22:37:32Z</time>
      </trkpt>
      <trkpt lat="49.39239" lon="-1.009">
        <ele>20</ele>
        <time>2023-05-17T22:37:35Z</time>
      </trkpt>
      <trkpt lat="49.3923" lon="-1.00932">
        <ele>19.4</ele>
        <time>2023-05-17T22:37:38Z</time>
      </trkpt>
      <trkpt lat="49.39222" lon="-1.00965">
        <ele>18.9</ele>
        <time>2023-05-17T22:37:41Z</time>
      </trkpt>
      <trkpt lat="49.39213" lon="-1.00998">
        <ele>18.4</ele>
        <time>2023-05-17T22:37:44Z</time>
      </trkpt>
      <trkpt lat="49.39204" lon="-1.01031">
        <ele>17.9</ele>
        <time>2023-05-17T22:37:47Z</time>
      </trkpt>
      <trkpt lat="49.39196" lon="-1.01064">
        <ele>17.3</ele>
        <time>2023-05-17T22:37:50Z</time>
      </trkpt>
      <trkpt lat="49.39187" lon="-1.01099">
        <ele>16.8</ele>
        <time>2023-05-17T22:37:53Z</time>
      </trkpt>
      <trkpt lat="49.39178" lon="-1.01132">
        <ele>16.3</ele>
        <time>2023-05-17T22:37:56Z</time>
      </trkpt>
      <trkpt lat="49.39168" lon="-1.01167">
        <ele>15.8</ele>
        <time>2023-05-17T22:37:59Z</time>
      </trkpt>
      <trkpt lat="49.39159" lon="-1.01202">
        <ele>15.2</ele>
        <time>2023-05-17T22:38:02Z</time>
      </trkpt>
      <trkpt lat="49.39149" lon="-1.01238">
        <ele>14.7</ele>
        <time>2023-05-17T22:38:05Z</time>
      </trkpt>
      <trkpt lat="49.39139" lon="-1.01273">
        <ele>14.4</ele>
        <time>2023-05-17T22:38:08Z</time>
      </trkpt>
      <trkpt lat="49.3913" lon="-1.01309">
        <ele>14</ele>
        <time>2023-05-17T22:38:11Z</time>
      </trkpt>
      <trkpt lat="49.39121" lon="-1.01344">
        <ele>13.7</ele>
        <time>2023-05-17T22:38:14Z</time>
      </trkpt>
      <trkpt lat="49.39112" lon="-1.01378">
        <ele>13.4</ele>
        <time>2023-05-17T22:38:17Z</time>
      </trkpt>
      <trkpt lat="49.39102" lon="-1.01411">
        <ele>13.1</ele>
        <time>2023-05-17T22:38:20Z</time>
      </trkpt>
      <trkpt lat="49.39093" lon="-1.01445">
        <ele>12.7</ele>
        <time>2023-05-17T22:38:23Z</time>
      </trkpt>
      <trkpt lat="49.39083" lon="-1.01479">
        <ele>12.3</ele>
        <time>2023-05-17T22:38:26Z</time>
      </trkpt>
      <trkpt lat="49.39074" lon="-1.01513">
        <ele>12</ele>
        <time>2023-05-17T22:38:29Z</time>
      </trkpt>
      <trkpt lat="49.39066" lon="-1.01547">
        <ele>11.6</ele>
        <time>2023-05-17T22:38:32Z</time>
      </trkpt>
      <trkpt lat="49.39055" lon="-1.01582">
        <ele>11.1</ele>
        <time>2023-05-17T22:38:35Z</time>
      </trkpt>
      <trkpt lat="49.39046" lon="-1.01617">
        <ele>10.6</ele>
        <time>2023-05-17T22:38:38Z</time>
      </trkpt>
      <trkpt lat="49.39036" lon="-1.01652">
        <ele>10.2</ele>
        <time>2023-05-17T22:38:41Z</time>
      </trkpt>
      <trkpt lat="49.39026" lon="-1.01685">
        <ele>9.7</ele>
        <time>2023-05-17T22:38:44Z</time>
      </trkpt>
      <trkpt lat="49.39016" lon="-1.01719">
        <ele>8.9</ele>
        <time>2023-05-17T22:38:47Z</time>
      </trkpt>
      <trkpt lat="49.39008" lon="-1.01753">
        <ele>8.1</ele>
        <time>2023-05-17T22:38:50Z</time>
      </trkpt>
      <trkpt lat="49.38997" lon="-1.0179">
        <ele>7.1</ele>
        <time>2023-05-17T22:38:53Z</time>
      </trkpt>
      <trkpt lat="49.38987" lon="-1.01826">
        <ele>6.2</ele>
        <time>2023-05-17T22:38:56Z</time>
      </trkpt>
      <trkpt lat="49.38977" lon="-1.01863">
        <ele>5.3</ele>
        <time>2023-05-17T22:38:59Z</time>
      </trkpt>
      <trkpt lat="49.38968" lon="-1.01901">
        <ele>4.7</ele>
        <time>2023-05-17T22:39:02Z</time>
      </trkpt>
      <trkpt lat="49.3896" lon="-1.0194">
        <ele>3.8</ele>
        <time>2023-05-17T22:39:05Z</time>
      </trkpt>
      <trkpt lat="49.38952" lon="-1.01979">
        <ele>3.1</ele>
        <time>2023-05-17T22:39:08Z</time>
      </trkpt>
      <trkpt lat="49.38948" lon="-1.02006">
        <ele>2.7</ele>
        <time>2023-05-17T22:39:10Z</time>
      </trkpt>
      <trkpt lat="49.38943" lon="-1.02033">
        <ele>2.6</ele>
        <time>2023-05-17T22:39:12Z</time>
      </trkpt>
      <trkpt lat="49.38939" lon="-1.02061">
        <ele>2.6</ele>
        <time>2023-05-17T22:39:14Z</time>
      </trkpt>
      <trkpt lat="49.38933" lon="-1.02098">
        <ele>2.9</ele>
        <time>2023-05-17T22:39:17Z</time>
      </trkpt>
      <trkpt lat="49.38929" lon="-1.02132">
        <ele>3.4</ele>
        <time>2023-05-17T22:39:20Z</time>
      </trkpt>
      <trkpt lat="49.38926" lon="-1.02162">
        <ele>4</ele>
        <time>2023-05-17T22:39:23Z</time>
      </trkpt>
      <trkpt lat="49.38923" lon="-1.02189">
        <ele>4.6</ele>
        <time>2023-05-17T22:39:26Z</time>
      </trkpt>
      <trkpt lat="49.3892" lon="-1.02222">
        <ele>5.5</ele>
        <time>2023-05-17T22:39:30Z</time>
      </trkpt>
      <trkpt lat="49.38917" lon="-1.02255">
        <ele>6.2</ele>
        <time>2023-05-17T22:39:34Z</time>
      </trkpt>
      <trkpt lat="49.38914" lon="-1.02287">
        <ele>7</ele>
        <time>2023-05-17T22:39:38Z</time>
      </trkpt>
      <trkpt lat="49.38911" lon="-1.02318">
        <ele>7.7</ele>
        <time>2023-05-17T22:39:42Z</time>
      </trkpt>
      <trkpt lat="49.38909" lon="-1.02348">
        <ele>8.4</ele>
        <time>2023-05-17T22:39:46Z</time>
      </trkpt>
      <trkpt lat="49.38907" lon="-1.02376">
        <ele>9</ele>
        <time>2023-05-17T22:39:50Z</time>
      </trkpt>
      <trkpt lat="49.38904" lon="-1.02403">
        <ele>9.6</ele>
        <time>2023-05-17T22:39:54Z</time>
      </trkpt>
      <trkpt lat="49.389" lon="-1.02436">
        <ele>10.2</ele>
        <time>2023-05-17T22:39:59Z</time>
      </trkpt>
      <trkpt lat="49.38896" lon="-1.02467">
        <ele>10.8</ele>
        <time>2023-05-17T22:40:04Z</time>
      </trkpt>
      <trkpt lat="49.38893" lon="-1.02497">
        <ele>11.5</ele>
        <time>2023-05-17T22:40:09Z</time>
      </trkpt>
      <trkpt lat="49.38888" lon="-1.02527">
        <ele>12.1</ele>
        <time>2023-05-17T22:40:14Z</time>
      </trkpt>
      <trkpt lat="49.38883" lon="-1.02556">
        <ele>12.8</ele>
        <time>2023-05-17T22:40:19Z</time>
      </trkpt>
      <trkpt lat="49.38879" lon="-1.02584">
        <ele>13.3</ele>
        <time>2023-05-17T22:40:24Z</time>
      </trkpt>
      <trkpt lat="49.38874" lon="-1.02613">
        <ele>13.8</ele>
        <time>2023-05-17T22:40:29Z</time>
      </trkpt>
      <trkpt lat="49.38869" lon="-1.02643">
        <ele>14.3</ele>
        <time>2023-05-17T22:40:34Z</time>
      </trkpt>
      <trkpt lat="49.38863" lon="-1.02675">
        <ele>14.7</ele>
        <time>2023-05-17T22:40:39Z</time>
      </trkpt>
      <trkpt lat="49.38858" lon="-1.02701">
        <ele>15</ele>
        <time>2023-05-17T22:40:43Z</time>
      </trkpt>
      <trkpt lat="49.38853" lon="-1.02729">
        <ele>15.2</ele>
        <time>2023-05-17T22:40:47Z</time>
      </trkpt>
      <trkpt lat="49.38848" lon="-1.02756">
        <ele>15.5</ele>
        <time>2023-05-17T22:40:51Z</time>
      </trkpt>
      <trkpt lat="49.38843" lon="-1.02784">
        <ele>15.7</ele>
        <time>2023-05-17T22:40:55Z</time>
      </trkpt>
      <trkpt lat="49.38839" lon="-1.02815">
        <ele>15.9</ele>
        <time>2023-05-17T22:40:59Z</time>
      </trkpt>
      <trkpt lat="49.38834" lon="-1.02846">
        <ele>16.1</ele>
        <time>2023-05-17T22:41:03Z</time>
      </trkpt>
      <trkpt lat="49.38827" lon="-1.02878">
        <ele>16.3</ele>
        <time>2023-05-17T22:41:07Z</time>
      </trkpt>
      <trkpt lat="49.38822" lon="-1.02909">
        <ele>16.5</ele>
        <time>2023-05-17T22:41:11Z</time>
      </trkpt>
      <trkpt lat="49.38818" lon="-1.02939">
        <ele>16.7</ele>
        <time>2023-05-17T22:41:15Z</time>
      </trkpt>
      <trkpt lat="49.38813" lon="-1.0297">
        <ele>16.9</ele>
        <time>2023-05-17T22:41:19Z</time>
      </trkpt>
      <trkpt lat="49.38808" lon="-1.03001">
        <ele>17.2</ele>
        <time>2023-05-17T22:41:23Z</time>
      </trkpt>
      <trkpt lat="49.38802" lon="-1.03031">
        <ele>17.5</ele>
        <time>2023-05-17T22:41:27Z</time>
      </trkpt>
      <trkpt lat="49.38794" lon="-1.03061">
        <ele>17.8</ele>
        <time>2023-05-17T22:41:31Z</time>
      </trkpt>
      <trkpt lat="49.38786" lon="-1.03089">
        <ele>18.1</ele>
        <time>2023-05-17T22:41:35Z</time>
      </trkpt>
      <trkpt lat="49.38777" lon="-1.03114">
        <ele>18.4</ele>
        <time>2023-05-17T22:41:39Z</time>
      </trkpt>
      <trkpt lat="49.38767" lon="-1.03141">
        <ele>18.6</ele>
        <time>2023-05-17T22:41:43Z</time>
      </trkpt>
      <trkpt lat="49.38757" lon="-1.03169">
        <ele>18.8</ele>
        <time>2023-05-17T22:41:47Z</time>
      </trkpt>
      <trkpt lat="49.38748" lon="-1.03198">
        <ele>19.1</ele>
        <time>2023-05-17T22:41:51Z</time>
      </trkpt>
      <trkpt lat="49.38739" lon="-1.03226">
        <ele>19.3</ele>
        <time>2023-05-17T22:41:55Z</time>
      </trkpt>
      <trkpt lat="49.38732" lon="-1.03256">
        <ele>19.5</ele>
        <time>2023-05-17T22:41:59Z</time>
      </trkpt>
      <trkpt lat="49.38726" lon="-1.03285">
        <ele>19.6</ele>
        <time>2023-05-17T22:42:03Z</time>
      </trkpt>
      <trkpt lat="49.38721" lon="-1.03314">
        <ele>19.8</ele>
        <time>2023-05-17T22:42:07Z</time>
      </trkpt>
      <trkpt lat="49.38717" lon="-1.03344">
        <ele>19.9</ele>
        <time>2023-05-17T22:42:11Z</time>
      </trkpt>
      <trkpt lat="49.38712" lon="-1.03374">
        <ele>19.9</ele>
        <time>2023-05-17T22:42:15Z</time>
      </trkpt>
      <trkpt lat="49.38709" lon="-1.03408">
        <ele>19.9</ele>
        <time>2023-05-17T22:42:19Z</time>
      </trkpt>
      <trkpt lat="49.38706" lon="-1.03439">
        <ele>19.8</ele>
        <time>2023-05-17T22:42:23Z</time>
      </trkpt>
      <trkpt lat="49.38703" lon="-1.03475">
        <ele>19.8</ele>
        <time>2023-05-17T22:42:27Z</time>
      </trkpt>
      <trkpt lat="49.38699" lon="-1.03509">
        <ele>19.7</ele>
        <time>2023-05-17T22:42:31Z</time>
      </trkpt>
      <trkpt lat="49.38695" lon="-1.03544">
        <ele>19.6</ele>
        <time>2023-05-17T22:42:35Z</time>
      </trkpt>
      <trkpt lat="49.38694" lon="-1.03571">
        <ele>19.6</ele>
        <time>2023-05-17T22:42:38Z</time>
      </trkpt>
      <trkpt lat="49.3869" lon="-1.03607">
        <ele>19.5</ele>
        <time>2023-05-17T22:42:42Z</time>
      </trkpt>
      <trkpt lat="49.38685" lon="-1.03643">
        <ele>19.3</ele>
        <time>2023-05-17T22:42:46Z</time>
      </trkpt>
      <trkpt lat="49.38682" lon="-1.03671">
        <ele>19.2</ele>
        <time>2023-05-17T22:42:49Z</time>
      </trkpt>
      <trkpt lat="49.38679" lon="-1.037">
        <ele>19</ele>
        <time>2023-05-17T22:42:52Z</time>
      </trkpt>
      <trkpt lat="49.38676" lon="-1.03728">
        <ele>18.7</ele>
        <time>2023-05-17T22:42:55Z</time>
      </trkpt>
      <trkpt lat="49.38675" lon="-1.03759">
        <ele>18.3</ele>
        <time>2023-05-17T22:42:58Z</time>
      </trkpt>
      <trkpt lat="49.38674" lon="-1.03794">
        <ele>17.7</ele>
        <time>2023-05-17T22:43:01Z</time>
      </trkpt>
      <trkpt lat="49.38675" lon="-1.03826">
        <ele>17</ele>
        <time>2023-05-17T22:43:04Z</time>
      </trkpt>
      <trkpt lat="49.3868" lon="-1.03861">
        <ele>16</ele>
        <time>2023-05-17T22:43:07Z</time>
      </trkpt>
      <trkpt lat="49.38688" lon="-1.03896">
        <ele>15</ele>
        <time>2023-05-17T22:43:10Z</time>
      </trkpt>
      <trkpt lat="49.38696" lon="-1.03932">
        <ele>14</ele>
        <time>2023-05-17T22:43:13Z</time>
      </trkpt>
      <trkpt lat="49.38701" lon="-1.0397">
        <ele>13.4</ele>
        <time>2023-05-17T22:43:16Z</time>
      </trkpt>
      <trkpt lat="49.38707" lon="-1.04007">
        <ele>13.1</ele>
        <time>2023-05-17T22:43:19Z</time>
      </trkpt>
      <trkpt lat="49.38709" lon="-1.04044">
        <ele>13.1</ele>
        <time>2023-05-17T22:43:22Z</time>
      </trkpt>
      <trkpt lat="49.38709" lon="-1.04081">
        <ele>13.3</ele>
        <time>2023-05-17T22:43:25Z</time>
      </trkpt>
      <trkpt lat="49.38706" lon="-1.04113">
        <ele>13.5</ele>
        <time>2023-05-17T22:43:28Z</time>
      </trkpt>
      <trkpt lat="49.38703" lon="-1.04145">
        <ele>13.7</ele>
        <time>2023-05-17T22:43:31Z</time>
      </trkpt>
      <trkpt lat="49.387" lon="-1.04175">
        <ele>13.9</ele>
        <time>2023-05-17T22:43:34Z</time>
      </trkpt>
      <trkpt lat="49.38696" lon="-1.04205">
        <ele>14.1</ele>
        <time>2023-05-17T22:43:37Z</time>
      </trkpt>
      <trkpt lat="49.38693" lon="-1.04234">
        <ele>14.2</ele>
        <time>2023-05-17T22:43:40Z</time>
      </trkpt>
      <trkpt lat="49.3869" lon="-1.04263">
        <ele>14.3</ele>
        <time>2023-05-17T22:43:43Z</time>
      </trkpt>
      <trkpt lat="49.38687" lon="-1.04291">
        <ele>14.4</ele>
        <time>2023-05-17T22:43:46Z</time>
      </trkpt>
      <trkpt lat="49.38684" lon="-1.04319">
        <ele>14.4</ele>
        <time>2023-05-17T22:43:49Z</time>
      </trkpt>
      <trkpt lat="49.38681" lon="-1.04347">
        <ele>14.3</ele>
        <time>2023-05-17T22:43:52Z</time>
      </trkpt>
      <trkpt lat="49.38678" lon="-1.04376">
        <ele>14.2</ele>
        <time>2023-05-17T22:43:55Z</time>
      </trkpt>
      <trkpt lat="49.38675" lon="-1.04405">
        <ele>14</ele>
        <time>2023-05-17T22:43:58Z</time>
      </trkpt>
      <trkpt lat="49.38672" lon="-1.04437">
        <ele>13.7</ele>
        <time>2023-05-17T22:44:01Z</time>
      </trkpt>
      <trkpt lat="49.38669" lon="-1.04468">
        <ele>13.3</ele>
        <time>2023-05-17T22:44:04Z</time>
      </trkpt>
      <trkpt lat="49.38665" lon="-1.04501">
        <ele>12.9</ele>
        <time>2023-05-17T22:44:07Z</time>
      </trkpt>
      <trkpt lat="49.38662" lon="-1.04535">
        <ele>12.5</ele>
        <time>2023-05-17T22:44:10Z</time>
      </trkpt>
      <trkpt lat="49.38658" lon="-1.04568">
        <ele>12</ele>
        <time>2023-05-17T22:44:13Z</time>
      </trkpt>
      <trkpt lat="49.38655" lon="-1.04603">
        <ele>11.5</ele>
        <time>2023-05-17T22:44:16Z</time>
      </trkpt>
      <trkpt lat="49.38651" lon="-1.04639">
        <ele>11.1</ele>
        <time>2023-05-17T22:44:19Z</time>
      </trkpt>
      <trkpt lat="49.38647" lon="-1.04674">
        <ele>10.6</ele>
        <time>2023-05-17T22:44:22Z</time>
      </trkpt>
      <trkpt lat="49.38643" lon="-1.0471">
        <ele>10.2</ele>
        <time>2023-05-17T22:44:25Z</time>
      </trkpt>
      <trkpt lat="49.3864" lon="-1.04746">
        <ele>9.9</ele>
        <time>2023-05-17T22:44:28Z</time>
      </trkpt>
      <trkpt lat="49.38636" lon="-1.04783">
        <ele>9.8</ele>
        <time>2023-05-17T22:44:31Z</time>
      </trkpt>
      <trkpt lat="49.38633" lon="-1.04818">
        <ele>9.6</ele>
        <time>2023-05-17T22:44:34Z</time>
      </trkpt>
      <trkpt lat="49.38629" lon="-1.04853">
        <ele>9.5</ele>
        <time>2023-05-17T22:44:37Z</time>
      </trkpt>
      <trkpt lat="49.38624" lon="-1.04888">
        <ele>9.6</ele>
        <time>2023-05-17T22:44:40Z</time>
      </trkpt>
      <trkpt lat="49.38619" lon="-1.04921">
        <ele>9.8</ele>
        <time>2023-05-17T22:44:43Z</time>
      </trkpt>
      <trkpt lat="49.38613" lon="-1.04952">
        <ele>9.9</ele>
        <time>2023-05-17T22:44:46Z</time>
      </trkpt>
      <trkpt lat="49.38609" lon="-1.04983">
        <ele>10</ele>
        <time>2023-05-17T22:44:49Z</time>
      </trkpt>
      <trkpt lat="49.38609" lon="-1.05012">
        <ele>10</ele>
        <time>2023-05-17T22:44:52Z</time>
      </trkpt>
      <trkpt lat="49.38602" lon="-1.05039">
        <ele>10.1</ele>
        <time>2023-05-17T22:44:55Z</time>
      </trkpt>
      <trkpt lat="49.38588" lon="-1.05056">
        <ele>10.4</ele>
        <time>2023-05-17T22:44:58Z</time>
      </trkpt>
      <trkpt lat="49.38575" lon="-1.05075">
        <ele>10.8</ele>
        <time>2023-05-17T22:45:01Z</time>
      </trkpt>
      <trkpt lat="49.3856" lon="-1.05101">
        <ele>11.5</ele>
        <time>2023-05-17T22:45:05Z</time>
      </trkpt>
      <trkpt lat="49.38546" lon="-1.05125">
        <ele>12.1</ele>
        <time>2023-05-17T22:45:09Z</time>
      </trkpt>
      <trkpt lat="49.38531" lon="-1.05146">
        <ele>12.8</ele>
        <time>2023-05-17T22:45:13Z</time>
      </trkpt>
      <trkpt lat="49.38516" lon="-1.05165">
        <ele>13.6</ele>
        <time>2023-05-17T22:45:17Z</time>
      </trkpt>
      <trkpt lat="49.38503" lon="-1.05184">
        <ele>14.2</ele>
        <time>2023-05-17T22:45:21Z</time>
      </trkpt>
      <trkpt lat="49.38488" lon="-1.05201">
        <ele>14.8</ele>
        <time>2023-05-17T22:45:25Z</time>
      </trkpt>
      <trkpt lat="49.38471" lon="-1.05222">
        <ele>15.6</ele>
        <time>2023-05-17T22:45:30Z</time>
      </trkpt>
      <trkpt lat="49.38454" lon="-1.05242">
        <ele>16.3</ele>
        <time>2023-05-17T22:45:35Z</time>
      </trkpt>
      <trkpt lat="49.38439" lon="-1.05262">
        <ele>17</ele>
        <time>2023-05-17T22:45:39Z</time>
      </trkpt>
      <trkpt lat="49.38424" lon="-1.0528">
        <ele>17.6</ele>
        <time>2023-05-17T22:45:43Z</time>
      </trkpt>
      <trkpt lat="49.3841" lon="-1.05299">
        <ele>18.2</ele>
        <time>2023-05-17T22:45:47Z</time>
      </trkpt>
      <trkpt lat="49.38393" lon="-1.05318">
        <ele>18.6</ele>
        <time>2023-05-17T22:45:51Z</time>
      </trkpt>
      <trkpt lat="49.38375" lon="-1.0534">
        <ele>18.9</ele>
        <time>2023-05-17T22:45:55Z</time>
      </trkpt>
      <trkpt lat="49.38358" lon="-1.05364">
        <ele>19.1</ele>
        <time>2023-05-17T22:45:59Z</time>
      </trkpt>
      <trkpt lat="49.38341" lon="-1.05385">
        <ele>19.2</ele>
        <time>2023-05-17T22:46:03Z</time>
      </trkpt>
      <trkpt lat="49.38323" lon="-1.05408">
        <ele>19.3</ele>
        <time>2023-05-17T22:46:07Z</time>
      </trkpt>
      <trkpt lat="49.38305" lon="-1.05431">
        <ele>19.4</ele>
        <time>2023-05-17T22:46:11Z</time>
      </trkpt>
      <trkpt lat="49.38287" lon="-1.05454">
        <ele>19.5</ele>
        <time>2023-05-17T22:46:15Z</time>
      </trkpt>
      <trkpt lat="49.3827" lon="-1.05476">
        <ele>19.7</ele>
        <time>2023-05-17T22:46:19Z</time>
      </trkpt>
      <trkpt lat="49.38253" lon="-1.05498">
        <ele>19.9</ele>
        <time>2023-05-17T22:46:23Z</time>
      </trkpt>
      <trkpt lat="49.38236" lon="-1.05521">
        <ele>20</ele>
        <time>2023-05-17T22:46:27Z</time>
      </trkpt>
      <trkpt lat="49.38219" lon="-1.05542">
        <ele>20.1</ele>
        <time>2023-05-17T22:46:31Z</time>
      </trkpt>
      <trkpt lat="49.38202" lon="-1.05562">
        <ele>20.3</ele>
        <time>2023-05-17T22:46:35Z</time>
      </trkpt>
      <trkpt lat="49.38184" lon="-1.05584">
        <ele>20.5</ele>
        <time>2023-05-17T22:46:39Z</time>
      </trkpt>
      <trkpt lat="49.38166" lon="-1.05605">
        <ele>20.7</ele>
        <time>2023-05-17T22:46:43Z</time>
      </trkpt>
      <trkpt lat="49.38147" lon="-1.05621">
        <ele>20.8</ele>
        <time>2023-05-17T22:46:47Z</time>
      </trkpt>
      <trkpt lat="49.38125" lon="-1.05632">
        <ele>20.9</ele>
        <time>2023-05-17T22:46:51Z</time>
      </trkpt>
      <trkpt lat="49.38104" lon="-1.05645">
        <ele>21</ele>
        <time>2023-05-17T22:46:55Z</time>
      </trkpt>
      <trkpt lat="49.38082" lon="-1.05657">
        <ele>21</ele>
        <time>2023-05-17T22:46:59Z</time>
      </trkpt>
      <trkpt lat="49.38065" lon="-1.05665">
        <ele>20.9</ele>
        <time>2023-05-17T22:47:02Z</time>
      </trkpt>
      <trkpt lat="49.38044" lon="-1.05671">
        <ele>20.7</ele>
        <time>2023-05-17T22:47:05Z</time>
      </trkpt>
      <trkpt lat="49.38023" lon="-1.05676">
        <ele>20.6</ele>
        <time>2023-05-17T22:47:08Z</time>
      </trkpt>
      <trkpt lat="49.38" lon="-1.05677">
        <ele>20.6</ele>
        <time>2023-05-17T22:47:11Z</time>
      </trkpt>
      <trkpt lat="49.3798" lon="-1.05675">
        <ele>20.7</ele>
        <time>2023-05-17T22:47:14Z</time>
      </trkpt>
      <trkpt lat="49.37962" lon="-1.05673">
        <ele>21</ele>
        <time>2023-05-17T22:47:17Z</time>
      </trkpt>
      <trkpt lat="49.37939" lon="-1.05669">
        <ele>21.4</ele>
        <time>2023-05-17T22:47:21Z</time>
      </trkpt>
      <trkpt lat="49.37918" lon="-1.05667">
        <ele>21.8</ele>
        <time>2023-05-17T22:47:25Z</time>
      </trkpt>
      <trkpt lat="49.37897" lon="-1.05663">
        <ele>22.3</ele>
        <time>2023-05-17T22:47:29Z</time>
      </trkpt>
      <trkpt lat="49.37877" lon="-1.05661">
        <ele>22.7</ele>
        <time>2023-05-17T22:47:33Z</time>
      </trkpt>
      <trkpt lat="49.37859" lon="-1.05659">
        <ele>23.2</ele>
        <time>2023-05-17T22:47:37Z</time>
      </trkpt>
      <trkpt lat="49.3784" lon="-1.05655">
        <ele>23.7</ele>
        <time>2023-05-17T22:47:41Z</time>
      </trkpt>
      <trkpt lat="49.37822" lon="-1.05654">
        <ele>24.1</ele>
        <time>2023-05-17T22:47:45Z</time>
      </trkpt>
      <trkpt lat="49.37803" lon="-1.05653">
        <ele>24.6</ele>
        <time>2023-05-17T22:47:49Z</time>
      </trkpt>
      <trkpt lat="49.37783" lon="-1.05651">
        <ele>24.9</ele>
        <time>2023-05-17T22:47:53Z</time>
      </trkpt>
      <trkpt lat="49.37763" lon="-1.05654">
        <ele>25.1</ele>
        <time>2023-05-17T22:47:57Z</time>
      </trkpt>
      <trkpt lat="49.37744" lon="-1.05657">
        <ele>25.2</ele>
        <time>2023-05-17T22:48:01Z</time>
      </trkpt>
      <trkpt lat="49.37724" lon="-1.05664">
        <ele>25</ele>
        <time>2023-05-17T22:48:05Z</time>
      </trkpt>
      <trkpt lat="49.37701" lon="-1.05675">
        <ele>24.9</ele>
        <time>2023-05-17T22:48:09Z</time>
      </trkpt>
      <trkpt lat="49.37684" lon="-1.05685">
        <ele>24.8</ele>
        <time>2023-05-17T22:48:12Z</time>
      </trkpt>
      <trkpt lat="49.37665" lon="-1.05695">
        <ele>24.7</ele>
        <time>2023-05-17T22:48:15Z</time>
      </trkpt>
      <trkpt lat="49.37647" lon="-1.05707">
        <ele>24.4</ele>
        <time>2023-05-17T22:48:18Z</time>
      </trkpt>
      <trkpt lat="49.37627" lon="-1.05719">
        <ele>24.2</ele>
        <time>2023-05-17T22:48:21Z</time>
      </trkpt>
      <trkpt lat="49.37607" lon="-1.05731">
        <ele>23.8</ele>
        <time>2023-05-17T22:48:24Z</time>
      </trkpt>
      <trkpt lat="49.37586" lon="-1.05744">
        <ele>23.3</ele>
        <time>2023-05-17T22:48:27Z</time>
      </trkpt>
      <trkpt lat="49.37566" lon="-1.05758">
        <ele>22.8</ele>
        <time>2023-05-17T22:48:30Z</time>
      </trkpt>
      <trkpt lat="49.37545" lon="-1.05771">
        <ele>22.2</ele>
        <time>2023-05-17T22:48:33Z</time>
      </trkpt>
      <trkpt lat="49.37524" lon="-1.05783">
        <ele>21.6</ele>
        <time>2023-05-17T22:48:36Z</time>
      </trkpt>
      <trkpt lat="49.37503" lon="-1.05797">
        <ele>21.2</ele>
        <time>2023-05-17T22:48:39Z</time>
      </trkpt>
      <trkpt lat="49.37481" lon="-1.0581">
        <ele>20.8</ele>
        <time>2023-05-17T22:48:42Z</time>
      </trkpt>
      <trkpt lat="49.37459" lon="-1.05823">
        <ele>20.2</ele>
        <time>2023-05-17T22:48:45Z</time>
      </trkpt>
      <trkpt lat="49.37436" lon="-1.05836">
        <ele>19.6</ele>
        <time>2023-05-17T22:48:48Z</time>
      </trkpt>
      <trkpt lat="49.37414" lon="-1.05851">
        <ele>19.1</ele>
        <time>2023-05-17T22:48:51Z</time>
      </trkpt>
      <trkpt lat="49.37391" lon="-1.05864">
        <ele>18.9</ele>
        <time>2023-05-17T22:48:54Z</time>
      </trkpt>
      <trkpt lat="49.37369" lon="-1.05877">
        <ele>19</ele>
        <time>2023-05-17T22:48:57Z</time>
      </trkpt>
      <trkpt lat="49.37347" lon="-1.05888">
        <ele>19.3</ele>
        <time>2023-05-17T22:49:00Z</time>
      </trkpt>
      <trkpt lat="49.37327" lon="-1.059">
        <ele>19.7</ele>
        <time>2023-05-17T22:49:03Z</time>
      </trkpt>
      <trkpt lat="49.37309" lon="-1.05912">
        <ele>20.1</ele>
        <time>2023-05-17T22:49:06Z</time>
      </trkpt>
      <trkpt lat="49.37291" lon="-1.05921">
        <ele>20.5</ele>
        <time>2023-05-17T22:49:09Z</time>
      </trkpt>
      <trkpt lat="49.37273" lon="-1.05932">
        <ele>20.9</ele>
        <time>2023-05-17T22:49:12Z</time>
      </trkpt>
      <trkpt lat="49.3725" lon="-1.05945">
        <ele>21.7</ele>
        <time>2023-05-17T22:49:16Z</time>
      </trkpt>
      <trkpt lat="49.37229" lon="-1.05958">
        <ele>22.2</ele>
        <time>2023-05-17T22:49:20Z</time>
      </trkpt>
      <trkpt lat="49.37212" lon="-1.05968">
        <ele>22.4</ele>
        <time>2023-05-17T22:49:23Z</time>
      </trkpt>
      <trkpt lat="49.3719" lon="-1.05982">
        <ele>22.6</ele>
        <time>2023-05-17T22:49:27Z</time>
      </trkpt>
      <trkpt lat="49.37173" lon="-1.05992">
        <ele>22.8</ele>
        <time>2023-05-17T22:49:30Z</time>
      </trkpt>
      <trkpt lat="49.37152" lon="-1.06006">
        <ele>22.8</ele>
        <time>2023-05-17T22:49:34Z</time>
      </trkpt>
      <trkpt lat="49.37134" lon="-1.06018">
        <ele>22.5</ele>
        <time>2023-05-17T22:49:37Z</time>
      </trkpt>
      <trkpt lat="49.37116" lon="-1.06029">
        <ele>22.1</ele>
        <time>2023-05-17T22:49:40Z</time>
      </trkpt>
      <trkpt lat="49.37097" lon="-1.06041">
        <ele>21.4</ele>
        <time>2023-05-17T22:49:43Z</time>
      </trkpt>
      <trkpt lat="49.37075" lon="-1.06053">
        <ele>20.6</ele>
        <time>2023-05-17T22:49:46Z</time>
      </trkpt>
      <trkpt lat="49.37053" lon="-1.06066">
        <ele>19.7</ele>
        <time>2023-05-17T22:49:49Z</time>
      </trkpt>
      <trkpt lat="49.3703" lon="-1.06079">
        <ele>18.9</ele>
        <time>2023-05-17T22:49:52Z</time>
      </trkpt>
      <trkpt lat="49.37007" lon="-1.06095">
        <ele>18</ele>
        <time>2023-05-17T22:49:55Z</time>
      </trkpt>
      <trkpt lat="49.36983" lon="-1.06112">
        <ele>17.2</ele>
        <time>2023-05-17T22:49:58Z</time>
      </trkpt>
      <trkpt lat="49.36958" lon="-1.06128">
        <ele>16.6</ele>
        <time>2023-05-17T22:50:01Z</time>
      </trkpt>
      <trkpt lat="49.36934" lon="-1.06143">
        <ele>16.1</ele>
        <time>2023-05-17T22:50:04Z</time>
      </trkpt>
      <trkpt lat="49.36909" lon="-1.06154">
        <ele>15.9</ele>
        <time>2023-05-17T22:50:07Z</time>
      </trkpt>
      <trkpt lat="49.36884" lon="-1.06157">
        <ele>15.8</ele>
        <time>2023-05-17T22:50:10Z</time>
      </trkpt>
      <trkpt lat="49.3686" lon="-1.06154">
        <ele>15.8</ele>
        <time>2023-05-17T22:50:13Z</time>
      </trkpt>
      <trkpt lat="49.36838" lon="-1.06148">
        <ele>15.8</ele>
        <time>2023-05-17T22:50:16Z</time>
      </trkpt>
      <trkpt lat="49.36815" lon="-1.06143">
        <ele>15.8</ele>
        <time>2023-05-17T22:50:19Z</time>
      </trkpt>
      <trkpt lat="49.36793" lon="-1.06143">
        <ele>15.9</ele>
        <time>2023-05-17T22:50:22Z</time>
      </trkpt>
      <trkpt lat="49.36772" lon="-1.06149">
        <ele>16</ele>
        <time>2023-05-17T22:50:25Z</time>
      </trkpt>
      <trkpt lat="49.36753" lon="-1.06161">
        <ele>16.2</ele>
        <time>2023-05-17T22:50:28Z</time>
      </trkpt>
      <trkpt lat="49.36736" lon="-1.06178">
        <ele>16.3</ele>
        <time>2023-05-17T22:50:31Z</time>
      </trkpt>
      <trkpt lat="49.36721" lon="-1.06197">
        <ele>16.5</ele>
        <time>2023-05-17T22:50:34Z</time>
      </trkpt>
      <trkpt lat="49.36708" lon="-1.06218">
        <ele>16.7</ele>
        <time>2023-05-17T22:50:37Z</time>
      </trkpt>
      <trkpt lat="49.36695" lon="-1.06245">
        <ele>17.3</ele>
        <time>2023-05-17T22:50:41Z</time>
      </trkpt>
      <trkpt lat="49.36681" lon="-1.06268">
        <ele>17.9</ele>
        <time>2023-05-17T22:50:45Z</time>
      </trkpt>
      <trkpt lat="49.36667" lon="-1.06291">
        <ele>18.7</ele>
        <time>2023-05-17T22:50:49Z</time>
      </trkpt>
      <trkpt lat="49.36653" lon="-1.06313">
        <ele>19.5</ele>
        <time>2023-05-17T22:50:53Z</time>
      </trkpt>
      <trkpt lat="49.36636" lon="-1.06332">
        <ele>20.2</ele>
        <time>2023-05-17T22:50:57Z</time>
      </trkpt>
      <trkpt lat="49.3662" lon="-1.06352">
        <ele>20.7</ele>
        <time>2023-05-17T22:51:01Z</time>
      </trkpt>
      <trkpt lat="49.36604" lon="-1.06371">
        <ele>21.3</ele>
        <time>2023-05-17T22:51:05Z</time>
      </trkpt>
      <trkpt lat="49.36588" lon="-1.0639">
        <ele>21.9</ele>
        <time>2023-05-17T22:51:09Z</time>
      </trkpt>
      <trkpt lat="49.36574" lon="-1.0641">
        <ele>22.5</ele>
        <time>2023-05-17T22:51:13Z</time>
      </trkpt>
      <trkpt lat="49.3656" lon="-1.0643">
        <ele>23.1</ele>
        <time>2023-05-17T22:51:17Z</time>
      </trkpt>
      <trkpt lat="49.36544" lon="-1.06451">
        <ele>23.7</ele>
        <time>2023-05-17T22:51:21Z</time>
      </trkpt>
      <trkpt lat="49.3653" lon="-1.0647">
        <ele>24.3</ele>
        <time>2023-05-17T22:51:25Z</time>
      </trkpt>
      <trkpt lat="49.36515" lon="-1.0649">
        <ele>24.8</ele>
        <time>2023-05-17T22:51:29Z</time>
      </trkpt>
      <trkpt lat="49.36501" lon="-1.06512">
        <ele>25.3</ele>
        <time>2023-05-17T22:51:33Z</time>
      </trkpt>
      <trkpt lat="49.36487" lon="-1.06531">
        <ele>25.7</ele>
        <time>2023-05-17T22:51:37Z</time>
      </trkpt>
      <trkpt lat="49.36471" lon="-1.06552">
        <ele>26</ele>
        <time>2023-05-17T22:51:41Z</time>
      </trkpt>
      <trkpt lat="49.36453" lon="-1.06574">
        <ele>26.1</ele>
        <time>2023-05-17T22:51:45Z</time>
      </trkpt>
      <trkpt lat="49.36435" lon="-1.06597">
        <ele>26.2</ele>
        <time>2023-05-17T22:51:49Z</time>
      </trkpt>
      <trkpt lat="49.3642" lon="-1.06615">
        <ele>26.3</ele>
        <time>2023-05-17T22:51:52Z</time>
      </trkpt>
      <trkpt lat="49.36403" lon="-1.06639">
        <ele>26.4</ele>
        <time>2023-05-17T22:51:56Z</time>
      </trkpt>
      <trkpt lat="49.36386" lon="-1.06664">
        <ele>26.4</ele>
        <time>2023-05-17T22:52:00Z</time>
      </trkpt>
      <trkpt lat="49.36368" lon="-1.06689">
        <ele>26.5</ele>
        <time>2023-05-17T22:52:04Z</time>
      </trkpt>
      <trkpt lat="49.3635" lon="-1.06712">
        <ele>26.7</ele>
        <time>2023-05-17T22:52:08Z</time>
      </trkpt>
      <trkpt lat="49.36335" lon="-1.06729">
        <ele>26.7</ele>
        <time>2023-05-17T22:52:11Z</time>
      </trkpt>
      <trkpt lat="49.3632" lon="-1.06747">
        <ele>26.7</ele>
        <time>2023-05-17T22:52:14Z</time>
      </trkpt>
      <trkpt lat="49.36304" lon="-1.06763">
        <ele>26.7</ele>
        <time>2023-05-17T22:52:17Z</time>
      </trkpt>
      <trkpt lat="49.36289" lon="-1.06779">
        <ele>26.7</ele>
        <time>2023-05-17T22:52:20Z</time>
      </trkpt>
      <trkpt lat="49.36273" lon="-1.06794">
        <ele>26.6</ele>
        <time>2023-05-17T22:52:23Z</time>
      </trkpt>
      <trkpt lat="49.36258" lon="-1.06808">
        <ele>26.6</ele>
        <time>2023-05-17T22:52:26Z</time>
      </trkpt>
      <trkpt lat="49.36242" lon="-1.06823">
        <ele>26.7</ele>
        <time>2023-05-17T22:52:29Z</time>
      </trkpt>
      <trkpt lat="49.36225" lon="-1.06836">
        <ele>26.7</ele>
        <time>2023-05-17T22:52:32Z</time>
      </trkpt>
      <trkpt lat="49.36208" lon="-1.0685">
        <ele>26.6</ele>
        <time>2023-05-17T22:52:35Z</time>
      </trkpt>
      <trkpt lat="49.3619" lon="-1.06865">
        <ele>26.5</ele>
        <time>2023-05-17T22:52:38Z</time>
      </trkpt>
      <trkpt lat="49.36171" lon="-1.0688">
        <ele>26.5</ele>
        <time>2023-05-17T22:52:41Z</time>
      </trkpt>
      <trkpt lat="49.36153" lon="-1.06897">
        <ele>26.4</ele>
        <time>2023-05-17T22:52:44Z</time>
      </trkpt>
      <trkpt lat="49.36134" lon="-1.06914">
        <ele>26.3</ele>
        <time>2023-05-17T22:52:47Z</time>
      </trkpt>
      <trkpt lat="49.36116" lon="-1.06932">
        <ele>26.2</ele>
        <time>2023-05-17T22:52:50Z</time>
      </trkpt>
      <trkpt lat="49.36098" lon="-1.06951">
        <ele>26.1</ele>
        <time>2023-05-17T22:52:53Z</time>
      </trkpt>
      <trkpt lat="49.36081" lon="-1.06972">
        <ele>26</ele>
        <time>2023-05-17T22:52:56Z</time>
      </trkpt>
      <trkpt lat="49.36064" lon="-1.06993">
        <ele>25.9</ele>
        <time>2023-05-17T22:52:59Z</time>
      </trkpt>
      <trkpt lat="49.36047" lon="-1.07015">
        <ele>25.8</ele>
        <time>2023-05-17T22:53:02Z</time>
      </trkpt>
      <trkpt lat="49.3603" lon="-1.07038">
        <ele>25.7</ele>
        <time>2023-05-17T22:53:05Z</time>
      </trkpt>
      <trkpt lat="49.36014" lon="-1.0706">
        <ele>25.5</ele>
        <time>2023-05-17T22:53:08Z</time>
      </trkpt>
      <trkpt lat="49.35997" lon="-1.07083">
        <ele>25.4</ele>
        <time>2023-05-17T22:53:11Z</time>
      </trkpt>
      <trkpt lat="49.3598" lon="-1.07105">
        <ele>25.3</ele>
        <time>2023-05-17T22:53:14Z</time>
      </trkpt>
      <trkpt lat="49.35963" lon="-1.07126">
        <ele>25.2</ele>
        <time>2023-05-17T22:53:17Z</time>
      </trkpt>
      <trkpt lat="49.35948" lon="-1.07146">
        <ele>25.1</ele>
        <time>2023-05-17T22:53:20Z</time>
      </trkpt>
      <trkpt lat="49.35933" lon="-1.07166">
        <ele>24.9</ele>
        <time>2023-05-17T22:53:23Z</time>
      </trkpt>
      <trkpt lat="49.35918" lon="-1.07184">
        <ele>24.8</ele>
        <time>2023-05-17T22:53:26Z</time>
      </trkpt>
      <trkpt lat="49.35902" lon="-1.07201">
        <ele>24.8</ele>
        <time>2023-05-17T22:53:29Z</time>
      </trkpt>
      <trkpt lat="49.35886" lon="-1.07219">
        <ele>24.6</ele>
        <time>2023-05-17T22:53:32Z</time>
      </trkpt>
      <trkpt lat="49.35869" lon="-1.07236">
        <ele>24.5</ele>
        <time>2023-05-17T22:53:35Z</time>
      </trkpt>
      <trkpt lat="49.35852" lon="-1.07251">
        <ele>24.4</ele>
        <time>2023-05-17T22:53:38Z</time>
      </trkpt>
      <trkpt lat="49.35834" lon="-1.07266">
        <ele>24.3</ele>
        <time>2023-05-17T22:53:41Z</time>
      </trkpt>
      <trkpt lat="49.35817" lon="-1.07281">
        <ele>24.2</ele>
        <time>2023-05-17T22:53:44Z</time>
      </trkpt>
      <trkpt lat="49.358" lon="-1.07296">
        <ele>24.2</ele>
        <time>2023-05-17T22:53:47Z</time>
      </trkpt>
      <trkpt lat="49.35782" lon="-1.0731">
        <ele>24.2</ele>
        <time>2023-05-17T22:53:50Z</time>
      </trkpt>
      <trkpt lat="49.35764" lon="-1.07322">
        <ele>24.2</ele>
        <time>2023-05-17T22:53:53Z</time>
      </trkpt>
      <trkpt lat="49.35747" lon="-1.07334">
        <ele>24.3</ele>
        <time>2023-05-17T22:53:56Z</time>
      </trkpt>
      <trkpt lat="49.35729" lon="-1.07345">
        <ele>24.4</ele>
        <time>2023-05-17T22:53:59Z</time>
      </trkpt>
      <trkpt lat="49.35712" lon="-1.07356">
        <ele>24.4</ele>
        <time>2023-05-17T22:54:02Z</time>
      </trkpt>
      <trkpt lat="49.35694" lon="-1.07366">
        <ele>24.4</ele>
        <time>2023-05-17T22:54:05Z</time>
      </trkpt>
      <trkpt lat="49.35675" lon="-1.07377">
        <ele>24.5</ele>
        <time>2023-05-17T22:54:08Z</time>
      </trkpt>
      <trkpt lat="49.35657" lon="-1.07386">
        <ele>24.5</ele>
        <time>2023-05-17T22:54:11Z</time>
      </trkpt>
      <trkpt lat="49.35638" lon="-1.07395">
        <ele>24.5</ele>
        <time>2023-05-17T22:54:14Z</time>
      </trkpt>
      <trkpt lat="49.3562" lon="-1.07403">
        <ele>24.5</ele>
        <time>2023-05-17T22:54:17Z</time>
      </trkpt>
      <trkpt lat="49.35601" lon="-1.07412">
        <ele>24.6</ele>
        <time>2023-05-17T22:54:20Z</time>
      </trkpt>
      <trkpt lat="49.35582" lon="-1.0742">
        <ele>24.6</ele>
        <time>2023-05-17T22:54:23Z</time>
      </trkpt>
      <trkpt lat="49.35564" lon="-1.0743">
        <ele>24.6</ele>
        <time>2023-05-17T22:54:26Z</time>
      </trkpt>
      <trkpt lat="49.35546" lon="-1.07439">
        <ele>24.7</ele>
        <time>2023-05-17T22:54:29Z</time>
      </trkpt>
      <trkpt lat="49.35528" lon="-1.07447">
        <ele>24.7</ele>
        <time>2023-05-17T22:54:32Z</time>
      </trkpt>
      <trkpt lat="49.35511" lon="-1.07456">
        <ele>24.7</ele>
        <time>2023-05-17T22:54:35Z</time>
      </trkpt>
      <trkpt lat="49.35493" lon="-1.07465">
        <ele>24.6</ele>
        <time>2023-05-17T22:54:38Z</time>
      </trkpt>
      <trkpt lat="49.35475" lon="-1.07474">
        <ele>24.4</ele>
        <time>2023-05-17T22:54:41Z</time>
      </trkpt>
      <trkpt lat="49.35456" lon="-1.07484">
        <ele>24.1</ele>
        <time>2023-05-17T22:54:44Z</time>
      </trkpt>
      <trkpt lat="49.35435" lon="-1.07491">
        <ele>23.6</ele>
        <time>2023-05-17T22:54:47Z</time>
      </trkpt>
      <trkpt lat="49.35414" lon="-1.075">
        <ele>23.1</ele>
        <time>2023-05-17T22:54:50Z</time>
      </trkpt>
      <trkpt lat="49.35392" lon="-1.07507">
        <ele>22.5</ele>
        <time>2023-05-17T22:54:53Z</time>
      </trkpt>
      <trkpt lat="49.35369" lon="-1.07514">
        <ele>22</ele>
        <time>2023-05-17T22:54:56Z</time>
      </trkpt>
      <trkpt lat="49.35346" lon="-1.07521">
        <ele>21.5</ele>
        <time>2023-05-17T22:54:59Z</time>
      </trkpt>
      <trkpt lat="49.35324" lon="-1.07526">
        <ele>21.3</ele>
        <time>2023-05-17T22:55:02Z</time>
      </trkpt>
      <trkpt lat="49.353" lon="-1.07528">
        <ele>21.3</ele>
        <time>2023-05-17T22:55:05Z</time>
      </trkpt>
      <trkpt lat="49.35277" lon="-1.07532">
        <ele>21.5</ele>
        <time>2023-05-17T22:55:08Z</time>
      </trkpt>
      <trkpt lat="49.35257" lon="-1.07534">
        <ele>21.8</ele>
        <time>2023-05-17T22:55:11Z</time>
      </trkpt>
      <trkpt lat="49.35238" lon="-1.07536">
        <ele>22.2</ele>
        <time>2023-05-17T22:55:14Z</time>
      </trkpt>
      <trkpt lat="49.35219" lon="-1.07535">
        <ele>22.5</ele>
        <time>2023-05-17T22:55:17Z</time>
      </trkpt>
      <trkpt lat="49.35199" lon="-1.07537">
        <ele>22.9</ele>
        <time>2023-05-17T22:55:20Z</time>
      </trkpt>
      <trkpt lat="49.35176" lon="-1.07541">
        <ele>23.2</ele>
        <time>2023-05-17T22:55:24Z</time>
      </trkpt>
      <trkpt lat="49.35152" lon="-1.07547">
        <ele>23.5</ele>
        <time>2023-05-17T22:55:28Z</time>
      </trkpt>
      <trkpt lat="49.35133" lon="-1.07551">
        <ele>23.7</ele>
        <time>2023-05-17T22:55:31Z</time>
      </trkpt>
      <trkpt lat="49.35115" lon="-1.07556">
        <ele>23.9</ele>
        <time>2023-05-17T22:55:34Z</time>
      </trkpt>
      <trkpt lat="49.35097" lon="-1.07562">
        <ele>24</ele>
        <time>2023-05-17T22:55:37Z</time>
      </trkpt>
      <trkpt lat="49.35078" lon="-1.07567">
        <ele>24.2</ele>
        <time>2023-05-17T22:55:40Z</time>
      </trkpt>
      <trkpt lat="49.3506" lon="-1.07573">
        <ele>24.4</ele>
        <time>2023-05-17T22:55:43Z</time>
      </trkpt>
      <trkpt lat="49.35042" lon="-1.0758">
        <ele>24.6</ele>
        <time>2023-05-17T22:55:46Z</time>
      </trkpt>
      <trkpt lat="49.3502" lon="-1.07588">
        <ele>25</ele>
        <time>2023-05-17T22:55:50Z</time>
      </trkpt>
      <trkpt lat="49.34998" lon="-1.07596">
        <ele>25.3</ele>
        <time>2023-05-17T22:55:54Z</time>
      </trkpt>
      <trkpt lat="49.34976" lon="-1.07604">
        <ele>25.6</ele>
        <time>2023-05-17T22:55:58Z</time>
      </trkpt>
      <trkpt lat="49.34954" lon="-1.07612">
        <ele>25.9</ele>
        <time>2023-05-17T22:56:02Z</time>
      </trkpt>
      <trkpt lat="49.34931" lon="-1.0762">
        <ele>26.2</ele>
        <time>2023-05-17T22:56:06Z</time>
      </trkpt>
      <trkpt lat="49.34909" lon="-1.07628">
        <ele>26.5</ele>
        <time>2023-05-17T22:56:10Z</time>
      </trkpt>
      <trkpt lat="49.34887" lon="-1.07634">
        <ele>26.8</ele>
        <time>2023-05-17T22:56:14Z</time>
      </trkpt>
      <trkpt lat="49.34865" lon="-1.07641">
        <ele>27</ele>
        <time>2023-05-17T22:56:18Z</time>
      </trkpt>
      <trkpt lat="49.34841" lon="-1.07646">
        <ele>27.3</ele>
        <time>2023-05-17T22:56:22Z</time>
      </trkpt>
      <trkpt lat="49.34821" lon="-1.0765">
        <ele>27.4</ele>
        <time>2023-05-17T22:56:25Z</time>
      </trkpt>
      <trkpt lat="49.348" lon="-1.07652">
        <ele>27.6</ele>
        <time>2023-05-17T22:56:28Z</time>
      </trkpt>
      <trkpt lat="49.34779" lon="-1.07654">
        <ele>27.7</ele>
        <time>2023-05-17T22:56:31Z</time>
      </trkpt>
      <trkpt lat="49.34758" lon="-1.07654">
        <ele>27.9</ele>
        <time>2023-05-17T22:56:34Z</time>
      </trkpt>
      <trkpt lat="49.34733" lon="-1.07653">
        <ele>28</ele>
        <time>2023-05-17T22:56:37Z</time>
      </trkpt>
      <trkpt lat="49.34709" lon="-1.07651">
        <ele>28.1</ele>
        <time>2023-05-17T22:56:40Z</time>
      </trkpt>
      <trkpt lat="49.34683" lon="-1.07647">
        <ele>28.3</ele>
        <time>2023-05-17T22:56:43Z</time>
      </trkpt>
      <trkpt lat="49.34658" lon="-1.07644">
        <ele>28.4</ele>
        <time>2023-05-17T22:56:46Z</time>
      </trkpt>
      <trkpt lat="49.34633" lon="-1.07637">
        <ele>28.7</ele>
        <time>2023-05-17T22:56:49Z</time>
      </trkpt>
      <trkpt lat="49.3461" lon="-1.07632">
        <ele>28.9</ele>
        <time>2023-05-17T22:56:52Z</time>
      </trkpt>
      <trkpt lat="49.34587" lon="-1.07626">
        <ele>29.2</ele>
        <time>2023-05-17T22:56:55Z</time>
      </trkpt>
      <trkpt lat="49.34564" lon="-1.07621">
        <ele>29.5</ele>
        <time>2023-05-17T22:56:58Z</time>
      </trkpt>
      <trkpt lat="49.34542" lon="-1.07617">
        <ele>29.7</ele>
        <time>2023-05-17T22:57:01Z</time>
      </trkpt>
      <trkpt lat="49.34519" lon="-1.07613">
        <ele>30</ele>
        <time>2023-05-17T22:57:04Z</time>
      </trkpt>
      <trkpt lat="49.34496" lon="-1.07613">
        <ele>30.2</ele>
        <time>2023-05-17T22:57:07Z</time>
      </trkpt>
      <trkpt lat="49.34475" lon="-1.07613">
        <ele>30.4</ele>
        <time>2023-05-17T22:57:10Z</time>
      </trkpt>
      <trkpt lat="49.34453" lon="-1.07615">
        <ele>30.6</ele>
        <time>2023-05-17T22:57:13Z</time>
      </trkpt>
      <trkpt lat="49.34431" lon="-1.07619">
        <ele>30.7</ele>
        <time>2023-05-17T22:57:16Z</time>
      </trkpt>
      <trkpt lat="49.34409" lon="-1.07623">
        <ele>30.8</ele>
        <time>2023-05-17T22:57:19Z</time>
      </trkpt>
      <trkpt lat="49.34385" lon="-1.07626">
        <ele>30.9</ele>
        <time>2023-05-17T22:57:22Z</time>
      </trkpt>
      <trkpt lat="49.34362" lon="-1.0763">
        <ele>30.9</ele>
        <time>2023-05-17T22:57:25Z</time>
      </trkpt>
      <trkpt lat="49.3434" lon="-1.07633">
        <ele>30.9</ele>
        <time>2023-05-17T22:57:28Z</time>
      </trkpt>
      <trkpt lat="49.34317" lon="-1.07634">
        <ele>30.9</ele>
        <time>2023-05-17T22:57:31Z</time>
      </trkpt>
      <trkpt lat="49.34293" lon="-1.07636">
        <ele>30.8</ele>
        <time>2023-05-17T22:57:34Z</time>
      </trkpt>
      <trkpt lat="49.34269" lon="-1.07637">
        <ele>30.7</ele>
        <time>2023-05-17T22:57:37Z</time>
      </trkpt>
      <trkpt lat="49.34243" lon="-1.07639">
        <ele>30.4</ele>
        <time>2023-05-17T22:57:40Z</time>
      </trkpt>
      <trkpt lat="49.34218" lon="-1.0764">
        <ele>30.1</ele>
        <time>2023-05-17T22:57:43Z</time>
      </trkpt>
      <trkpt lat="49.34192" lon="-1.0764">
        <ele>29.7</ele>
        <time>2023-05-17T22:57:46Z</time>
      </trkpt>
      <trkpt lat="49.34166" lon="-1.07641">
        <ele>29.3</ele>
        <time>2023-05-17T22:57:49Z</time>
      </trkpt>
      <trkpt lat="49.3414" lon="-1.07642">
        <ele>28.9</ele>
        <time>2023-05-17T22:57:52Z</time>
      </trkpt>
      <trkpt lat="49.34114" lon="-1.07642">
        <ele>28.3</ele>
        <time>2023-05-17T22:57:55Z</time>
      </trkpt>
      <trkpt lat="49.34089" lon="-1.07642">
        <ele>27.8</ele>
        <time>2023-05-17T22:57:58Z</time>
      </trkpt>
      <trkpt lat="49.34064" lon="-1.0764">
        <ele>27.5</ele>
        <time>2023-05-17T22:58:01Z</time>
      </trkpt>
      <trkpt lat="49.34038" lon="-1.07635">
        <ele>27.4</ele>
        <time>2023-05-17T22:58:04Z</time>
      </trkpt>
      <trkpt lat="49.34014" lon="-1.0763">
        <ele>27.2</ele>
        <time>2023-05-17T22:58:07Z</time>
      </trkpt>
      <trkpt lat="49.33988" lon="-1.07624">
        <ele>27.2</ele>
        <time>2023-05-17T22:58:10Z</time>
      </trkpt>
      <trkpt lat="49.33963" lon="-1.07618">
        <ele>27.3</ele>
        <time>2023-05-17T22:58:13Z</time>
      </trkpt>
      <trkpt lat="49.33939" lon="-1.07612">
        <ele>27.4</ele>
        <time>2023-05-17T22:58:16Z</time>
      </trkpt>
      <trkpt lat="49.33915" lon="-1.07607">
        <ele>27.5</ele>
        <time>2023-05-17T22:58:19Z</time>
      </trkpt>
      <trkpt lat="49.3389" lon="-1.07605">
        <ele>27.7</ele>
        <time>2023-05-17T22:58:22Z</time>
      </trkpt>
      <trkpt lat="49.33866" lon="-1.076">
        <ele>27.8</ele>
        <time>2023-05-17T22:58:25Z</time>
      </trkpt>
      <trkpt lat="49.33841" lon="-1.07597">
        <ele>27.9</ele>
        <time>2023-05-17T22:58:28Z</time>
      </trkpt>
      <trkpt lat="49.33815" lon="-1.07596">
        <ele>27.9</ele>
        <time>2023-05-17T22:58:31Z</time>
      </trkpt>
      <trkpt lat="49.33791" lon="-1.07598">
        <ele>27.9</ele>
        <time>2023-05-17T22:58:34Z</time>
      </trkpt>
      <trkpt lat="49.33768" lon="-1.076">
        <ele>27.9</ele>
        <time>2023-05-17T22:58:37Z</time>
      </trkpt>
      <trkpt lat="49.33743" lon="-1.07604">
        <ele>27.9</ele>
        <time>2023-05-17T22:58:40Z</time>
      </trkpt>
      <trkpt lat="49.33718" lon="-1.07607">
        <ele>27.9</ele>
        <time>2023-05-17T22:58:43Z</time>
      </trkpt>
      <trkpt lat="49.33691" lon="-1.0761">
        <ele>28</ele>
        <time>2023-05-17T22:58:46Z</time>
      </trkpt>
      <trkpt lat="49.33667" lon="-1.07612">
        <ele>28</ele>
        <time>2023-05-17T22:58:49Z</time>
      </trkpt>
      <trkpt lat="49.33642" lon="-1.07615">
        <ele>28</ele>
        <time>2023-05-17T22:58:52Z</time>
      </trkpt>
      <trkpt lat="49.33617" lon="-1.07617">
        <ele>27.9</ele>
        <time>2023-05-17T22:58:55Z</time>
      </trkpt>
      <trkpt lat="49.33593" lon="-1.07621">
        <ele>27.7</ele>
        <time>2023-05-17T22:58:58Z</time>
      </trkpt>
      <trkpt lat="49.33567" lon="-1.07627">
        <ele>27.6</ele>
        <time>2023-05-17T22:59:01Z</time>
      </trkpt>
      <trkpt lat="49.33542" lon="-1.07634">
        <ele>27.5</ele>
        <time>2023-05-17T22:59:04Z</time>
      </trkpt>
      <trkpt lat="49.33517" lon="-1.07644">
        <ele>27.2</ele>
        <time>2023-05-17T22:59:07Z</time>
      </trkpt>
      <trkpt lat="49.33493" lon="-1.07657">
        <ele>27</ele>
        <time>2023-05-17T22:59:10Z</time>
      </trkpt>
      <trkpt lat="49.3347" lon="-1.07669">
        <ele>26.7</ele>
        <time>2023-05-17T22:59:13Z</time>
      </trkpt>
      <trkpt lat="49.33447" lon="-1.07684">
        <ele>26.5</ele>
        <time>2023-05-17T22:59:16Z</time>
      </trkpt>
      <trkpt lat="49.33422" lon="-1.07695">
        <ele>25.9</ele>
        <time>2023-05-17T22:59:19Z</time>
      </trkpt>
      <trkpt lat="49.33397" lon="-1.07702">
        <ele>25.2</ele>
        <time>2023-05-17T22:59:22Z</time>
      </trkpt>
      <trkpt lat="49.33374" lon="-1.07705">
        <ele>24.4</ele>
        <time>2023-05-17T22:59:25Z</time>
      </trkpt>
      <trkpt lat="49.33352" lon="-1.07703">
        <ele>23.5</ele>
        <time>2023-05-17T22:59:28Z</time>
      </trkpt>
      <trkpt lat="49.33331" lon="-1.07704">
        <ele>22.4</ele>
        <time>2023-05-17T22:59:32Z</time>
      </trkpt>
      <trkpt lat="49.33313" lon="-1.07686">
        <ele>21.4</ele>
        <time>2023-05-17T22:59:39Z</time>
      </trkpt>
      <trkpt lat="49.33293" lon="-1.07672">
        <ele>20.3</ele>
        <time>2023-05-17T22:59:43Z</time>
      </trkpt>
      <trkpt lat="49.33276" lon="-1.07653">
        <ele>19.2</ele>
        <time>2023-05-17T22:59:46Z</time>
      </trkpt>
      <trkpt lat="49.33258" lon="-1.07629">
        <ele>18</ele>
        <time>2023-05-17T22:59:49Z</time>
      </trkpt>
      <trkpt lat="49.33242" lon="-1.07601">
        <ele>16.8</ele>
        <time>2023-05-17T22:59:52Z</time>
      </trkpt>
      <trkpt lat="49.33229" lon="-1.07566">
        <ele>15.4</ele>
        <time>2023-05-17T22:59:55Z</time>
      </trkpt>
      <trkpt lat="49.33219" lon="-1.07528">
        <ele>14.3</ele>
        <time>2023-05-17T22:59:58Z</time>
      </trkpt>
      <trkpt lat="49.33212" lon="-1.07502">
        <ele>13.7</ele>
        <time>2023-05-17T23:00:00Z</time>
      </trkpt>
      <trkpt lat="49.33206" lon="-1.07476">
        <ele>13.3</ele>
        <time>2023-05-17T23:00:02Z</time>
      </trkpt>
      <trkpt lat="49.33195" lon="-1.07441">
        <ele>13.1</ele>
        <time>2023-05-17T23:00:05Z</time>
      </trkpt>
      <trkpt lat="49.33183" lon="-1.07414">
        <ele>13.4</ele>
        <time>2023-05-17T23:00:08Z</time>
      </trkpt>
      <trkpt lat="49.33164" lon="-1.07406">
        <ele>13.4</ele>
        <time>2023-05-17T23:00:11Z</time>
      </trkpt>
      <trkpt lat="49.33145" lon="-1.07422">
        <ele>13.2</ele>
        <time>2023-05-17T23:00:14Z</time>
      </trkpt>
      <trkpt lat="49.3313" lon="-1.07448">
        <ele>13</ele>
        <time>2023-05-17T23:00:17Z</time>
      </trkpt>
      <trkpt lat="49.3312" lon="-1.0748">
        <ele>12.9</ele>
        <time>2023-05-17T23:00:20Z</time>
      </trkpt>
      <trkpt lat="49.3311" lon="-1.07512">
        <ele>12.8</ele>
        <time>2023-05-17T23:00:23Z</time>
      </trkpt>
      <trkpt lat="49.33097" lon="-1.07541">
        <ele>13</ele>
        <time>2023-05-17T23:00:26Z</time>
      </trkpt>
      <trkpt lat="49.33084" lon="-1.07567">
        <ele>13.2</ele>
        <time>2023-05-17T23:00:29Z</time>
      </trkpt>
      <trkpt lat="49.33071" lon="-1.07591">
        <ele>13.5</ele>
        <time>2023-05-17T23:00:32Z</time>
      </trkpt>
      <trkpt lat="49.33059" lon="-1.07616">
        <ele>13.7</ele>
        <time>2023-05-17T23:00:35Z</time>
      </trkpt>
      <trkpt lat="49.33047" lon="-1.07639">
        <ele>13.9</ele>
        <time>2023-05-17T23:00:38Z</time>
      </trkpt>
      <trkpt lat="49.33035" lon="-1.07664">
        <ele>14</ele>
        <time>2023-05-17T23:00:41Z</time>
      </trkpt>
      <trkpt lat="49.33022" lon="-1.07689">
        <ele>14.2</ele>
        <time>2023-05-17T23:00:44Z</time>
      </trkpt>
      <trkpt lat="49.3301" lon="-1.07712">
        <ele>14.3</ele>
        <time>2023-05-17T23:00:47Z</time>
      </trkpt>
      <trkpt lat="49.32999" lon="-1.07737">
        <ele>14.5</ele>
        <time>2023-05-17T23:00:50Z</time>
      </trkpt>
      <trkpt lat="49.32987" lon="-1.0776">
        <ele>14.6</ele>
        <time>2023-05-17T23:00:53Z</time>
      </trkpt>
      <trkpt lat="49.32975" lon="-1.07784">
        <ele>14.7</ele>
        <time>2023-05-17T23:00:56Z</time>
      </trkpt>
      <trkpt lat="49.32962" lon="-1.07806">
        <ele>14.8</ele>
        <time>2023-05-17T23:00:59Z</time>
      </trkpt>
      <trkpt lat="49.32948" lon="-1.0783">
        <ele>14.9</ele>
        <time>2023-05-17T23:01:02Z</time>
      </trkpt>
      <trkpt lat="49.32938" lon="-1.07854">
        <ele>15.1</ele>
        <time>2023-05-17T23:01:05Z</time>
      </trkpt>
      <trkpt lat="49.32926" lon="-1.07876">
        <ele>15.4</ele>
        <time>2023-05-17T23:01:08Z</time>
      </trkpt>
      <trkpt lat="49.32913" lon="-1.07907">
        <ele>15.6</ele>
        <time>2023-05-17T23:01:12Z</time>
      </trkpt>
      <trkpt lat="49.32902" lon="-1.07931">
        <ele>15.6</ele>
        <time>2023-05-17T23:01:15Z</time>
      </trkpt>
      <trkpt lat="49.3289" lon="-1.07954">
        <ele>15.5</ele>
        <time>2023-05-17T23:01:18Z</time>
      </trkpt>
      <trkpt lat="49.32877" lon="-1.07979">
        <ele>15.2</ele>
        <time>2023-05-17T23:01:21Z</time>
      </trkpt>
      <trkpt lat="49.32863" lon="-1.08004">
        <ele>14.9</ele>
        <time>2023-05-17T23:01:24Z</time>
      </trkpt>
      <trkpt lat="49.32849" lon="-1.08031">
        <ele>14.4</ele>
        <time>2023-05-17T23:01:27Z</time>
      </trkpt>
      <trkpt lat="49.32836" lon="-1.08057">
        <ele>14</ele>
        <time>2023-05-17T23:01:30Z</time>
      </trkpt>
      <trkpt lat="49.32822" lon="-1.08083">
        <ele>13.4</ele>
        <time>2023-05-17T23:01:33Z</time>
      </trkpt>
      <trkpt lat="49.32808" lon="-1.08112">
        <ele>12.9</ele>
        <time>2023-05-17T23:01:36Z</time>
      </trkpt>
      <trkpt lat="49.32794" lon="-1.08141">
        <ele>12.2</ele>
        <time>2023-05-17T23:01:39Z</time>
      </trkpt>
      <trkpt lat="49.3278" lon="-1.08168">
        <ele>11.4</ele>
        <time>2023-05-17T23:01:42Z</time>
      </trkpt>
      <trkpt lat="49.32764" lon="-1.08196">
        <ele>10.3</ele>
        <time>2023-05-17T23:01:45Z</time>
      </trkpt>
      <trkpt lat="49.32749" lon="-1.08228">
        <ele>9</ele>
        <time>2023-05-17T23:01:48Z</time>
      </trkpt>
      <trkpt lat="49.32737" lon="-1.0825">
        <ele>8</ele>
        <time>2023-05-17T23:01:50Z</time>
      </trkpt>
      <trkpt lat="49.3272" lon="-1.08283">
        <ele>6.5</ele>
        <time>2023-05-17T23:01:53Z</time>
      </trkpt>
      <trkpt lat="49.32709" lon="-1.08306">
        <ele>5.5</ele>
        <time>2023-05-17T23:01:55Z</time>
      </trkpt>
      <trkpt lat="49.32697" lon="-1.0833">
        <ele>4.7</ele>
        <time>2023-05-17T23:01:57Z</time>
      </trkpt>
      <trkpt lat="49.32684" lon="-1.08354">
        <ele>4.3</ele>
        <time>2023-05-17T23:01:59Z</time>
      </trkpt>
      <trkpt lat="49.32671" lon="-1.08379">
        <ele>3.9</ele>
        <time>2023-05-17T23:02:01Z</time>
      </trkpt>
      <trkpt lat="49.32659" lon="-1.08403">
        <ele>3.7</ele>
        <time>2023-05-17T23:02:03Z</time>
      </trkpt>
      <trkpt lat="49.32648" lon="-1.08426">
        <ele>3.5</ele>
        <time>2023-05-17T23:02:05Z</time>
      </trkpt>
      <trkpt lat="49.32637" lon="-1.08449">
        <ele>3.4</ele>
        <time>2023-05-17T23:02:07Z</time>
      </trkpt>
      <trkpt lat="49.3262" lon="-1.08481">
        <ele>3.3</ele>
        <time>2023-05-17T23:02:10Z</time>
      </trkpt>
      <trkpt lat="49.32604" lon="-1.08513">
        <ele>3.2</ele>
        <time>2023-05-17T23:02:13Z</time>
      </trkpt>
      <trkpt lat="49.32589" lon="-1.08544">
        <ele>3.1</ele>
        <time>2023-05-17T23:02:16Z</time>
      </trkpt>
      <trkpt lat="49.32573" lon="-1.08574">
        <ele>3.1</ele>
        <time>2023-05-17T23:02:19Z</time>
      </trkpt>
      <trkpt lat="49.32559" lon="-1.08604">
        <ele>3.1</ele>
        <time>2023-05-17T23:02:22Z</time>
      </trkpt>
      <trkpt lat="49.32543" lon="-1.08632">
        <ele>3.1</ele>
        <time>2023-05-17T23:02:25Z</time>
      </trkpt>
      <trkpt lat="49.32529" lon="-1.08661">
        <ele>3.1</ele>
        <time>2023-05-17T23:02:28Z</time>
      </trkpt>
      <trkpt lat="49.32515" lon="-1.08688">
        <ele>3</ele>
        <time>2023-05-17T23:02:31Z</time>
      </trkpt>
      <trkpt lat="49.32502" lon="-1.08713">
        <ele>3</ele>
        <time>2023-05-17T23:02:34Z</time>
      </trkpt>
      <trkpt lat="49.32489" lon="-1.08738">
        <ele>3</ele>
        <time>2023-05-17T23:02:37Z</time>
      </trkpt>
      <trkpt lat="49.32474" lon="-1.08762">
        <ele>2.9</ele>
        <time>2023-05-17T23:02:40Z</time>
      </trkpt>
      <trkpt lat="49.32458" lon="-1.08788">
        <ele>3</ele>
        <time>2023-05-17T23:02:43Z</time>
      </trkpt>
      <trkpt lat="49.32443" lon="-1.08812">
        <ele>3</ele>
        <time>2023-05-17T23:02:46Z</time>
      </trkpt>
      <trkpt lat="49.32428" lon="-1.08835">
        <ele>3</ele>
        <time>2023-05-17T23:02:49Z</time>
      </trkpt>
      <trkpt lat="49.32413" lon="-1.08857">
        <ele>3</ele>
        <time>2023-05-17T23:02:52Z</time>
      </trkpt>
      <trkpt lat="49.32397" lon="-1.0888">
        <ele>3</ele>
        <time>2023-05-17T23:02:55Z</time>
      </trkpt>
      <trkpt lat="49.32383" lon="-1.08902">
        <ele>3</ele>
        <time>2023-05-17T23:02:58Z</time>
      </trkpt>
      <trkpt lat="49.32368" lon="-1.08923">
        <ele>3</ele>
        <time>2023-05-17T23:03:01Z</time>
      </trkpt>
      <trkpt lat="49.32352" lon="-1.08943">
        <ele>3</ele>
        <time>2023-05-17T23:03:04Z</time>
      </trkpt>
      <trkpt lat="49.32337" lon="-1.08965">
        <ele>2.9</ele>
        <time>2023-05-17T23:03:07Z</time>
      </trkpt>
      <trkpt lat="49.32323" lon="-1.08988">
        <ele>2.8</ele>
        <time>2023-05-17T23:03:10Z</time>
      </trkpt>
      <trkpt lat="49.32311" lon="-1.09016">
        <ele>2.8</ele>
        <time>2023-05-17T23:03:13Z</time>
      </trkpt>
      <trkpt lat="49.323" lon="-1.09043">
        <ele>2.8</ele>
        <time>2023-05-17T23:03:16Z</time>
      </trkpt>
      <trkpt lat="49.32289" lon="-1.09071">
        <ele>2.8</ele>
        <time>2023-05-17T23:03:19Z</time>
      </trkpt>
      <trkpt lat="49.3228" lon="-1.09097">
        <ele>2.8</ele>
        <time>2023-05-17T23:03:22Z</time>
      </trkpt>
      <trkpt lat="49.32269" lon="-1.09124">
        <ele>2.7</ele>
        <time>2023-05-17T23:03:25Z</time>
      </trkpt>
      <trkpt lat="49.32259" lon="-1.09152">
        <ele>2.6</ele>
        <time>2023-05-17T23:03:28Z</time>
      </trkpt>
      <trkpt lat="49.32246" lon="-1.0918">
        <ele>2.6</ele>
        <time>2023-05-17T23:03:31Z</time>
      </trkpt>
      <trkpt lat="49.32235" lon="-1.09207">
        <ele>2.6</ele>
        <time>2023-05-17T23:03:34Z</time>
      </trkpt>
      <trkpt lat="49.32228" lon="-1.09236">
        <ele>2.6</ele>
        <time>2023-05-17T23:03:37Z</time>
      </trkpt>
      <trkpt lat="49.32219" lon="-1.09264">
        <ele>2.6</ele>
        <time>2023-05-17T23:03:40Z</time>
      </trkpt>
      <trkpt lat="49.32207" lon="-1.09291">
        <ele>2.6</ele>
        <time>2023-05-17T23:03:43Z</time>
      </trkpt>
      <trkpt lat="49.32197" lon="-1.09316">
        <ele>2.6</ele>
        <time>2023-05-17T23:03:46Z</time>
      </trkpt>
      <trkpt lat="49.32184" lon="-1.09342">
        <ele>2.7</ele>
        <time>2023-05-17T23:03:49Z</time>
      </trkpt>
      <trkpt lat="49.3217" lon="-1.09364">
        <ele>2.7</ele>
        <time>2023-05-17T23:03:52Z</time>
      </trkpt>
      <trkpt lat="49.32158" lon="-1.09387">
        <ele>2.8</ele>
        <time>2023-05-17T23:03:55Z</time>
      </trkpt>
      <trkpt lat="49.32144" lon="-1.09416">
        <ele>2.8</ele>
        <time>2023-05-17T23:03:59Z</time>
      </trkpt>
      <trkpt lat="49.32134" lon="-1.0944">
        <ele>2.7</ele>
        <time>2023-05-17T23:04:02Z</time>
      </trkpt>
      <trkpt lat="49.32122" lon="-1.09464">
        <ele>2.7</ele>
        <time>2023-05-17T23:04:05Z</time>
      </trkpt>
      <trkpt lat="49.32111" lon="-1.09487">
        <ele>2.7</ele>
        <time>2023-05-17T23:04:08Z</time>
      </trkpt>
      <trkpt lat="49.32097" lon="-1.09512">
        <ele>2.6</ele>
        <time>2023-05-17T23:04:11Z</time>
      </trkpt>
      <trkpt lat="49.32084" lon="-1.09538">
        <ele>2.5</ele>
        <time>2023-05-17T23:04:14Z</time>
      </trkpt>
      <trkpt lat="49.32075" lon="-1.09563">
        <ele>2.6</ele>
        <time>2023-05-17T23:04:17Z</time>
      </trkpt>
      <trkpt lat="49.32073" lon="-1.09593">
        <ele>2.7</ele>
        <time>2023-05-17T23:04:20Z</time>
      </trkpt>
      <trkpt lat="49.32076" lon="-1.09623">
        <ele>2.8</ele>
        <time>2023-05-17T23:04:23Z</time>
      </trkpt>
      <trkpt lat="49.32077" lon="-1.09652">
        <ele>2.7</ele>
        <time>2023-05-17T23:04:26Z</time>
      </trkpt>
      <trkpt lat="49.32073" lon="-1.09682">
        <ele>2.7</ele>
        <time>2023-05-17T23:04:29Z</time>
      </trkpt>
      <trkpt lat="49.32068" lon="-1.09712">
        <ele>2.7</ele>
        <time>2023-05-17T23:04:32Z</time>
      </trkpt>
      <trkpt lat="49.32065" lon="-1.09744">
        <ele>2.8</ele>
        <time>2023-05-17T23:04:35Z</time>
      </trkpt>
      <trkpt lat="49.32061" lon="-1.09772">
        <ele>2.8</ele>
        <time>2023-05-17T23:04:38Z</time>
      </trkpt>
      <trkpt lat="49.32057" lon="-1.098">
        <ele>2.7</ele>
        <time>2023-05-17T23:04:41Z</time>
      </trkpt>
      <trkpt lat="49.32051" lon="-1.09828">
        <ele>2.6</ele>
        <time>2023-05-17T23:04:44Z</time>
      </trkpt>
      <trkpt lat="49.32043" lon="-1.09863">
        <ele>2.7</ele>
        <time>2023-05-17T23:04:48Z</time>
      </trkpt>
      <trkpt lat="49.3203" lon="-1.09885">
        <ele>2.8</ele>
        <time>2023-05-17T23:04:51Z</time>
      </trkpt>
      <trkpt lat="49.32014" lon="-1.09905">
        <ele>3</ele>
        <time>2023-05-17T23:04:54Z</time>
      </trkpt>
      <trkpt lat="49.31999" lon="-1.09923">
        <ele>3.2</ele>
        <time>2023-05-17T23:04:57Z</time>
      </trkpt>
      <trkpt lat="49.31982" lon="-1.09942">
        <ele>3.5</ele>
        <time>2023-05-17T23:05:00Z</time>
      </trkpt>
      <trkpt lat="49.31969" lon="-1.09964">
        <ele>3.6</ele>
        <time>2023-05-17T23:05:03Z</time>
      </trkpt>
      <trkpt lat="49.31955" lon="-1.09983">
        <ele>3.6</ele>
        <time>2023-05-17T23:05:06Z</time>
      </trkpt>
      <trkpt lat="49.3194" lon="-1.10003">
        <ele>3.5</ele>
        <time>2023-05-17T23:05:09Z</time>
      </trkpt>
      <trkpt lat="49.31926" lon="-1.10024">
        <ele>3.5</ele>
        <time>2023-05-17T23:05:12Z</time>
      </trkpt>
      <trkpt lat="49.3191" lon="-1.10041">
        <ele>3.5</ele>
        <time>2023-05-17T23:05:15Z</time>
      </trkpt>
      <trkpt lat="49.31895" lon="-1.10061">
        <ele>3.6</ele>
        <time>2023-05-17T23:05:18Z</time>
      </trkpt>
      <trkpt lat="49.31877" lon="-1.10084">
        <ele>3.7</ele>
        <time>2023-05-17T23:05:22Z</time>
      </trkpt>
      <trkpt lat="49.31861" lon="-1.10102">
        <ele>3.8</ele>
        <time>2023-05-17T23:05:25Z</time>
      </trkpt>
      <trkpt lat="49.31845" lon="-1.10116">
        <ele>3.9</ele>
        <time>2023-05-17T23:05:28Z</time>
      </trkpt>
      <trkpt lat="49.31828" lon="-1.10131">
        <ele>4.1</ele>
        <time>2023-05-17T23:05:31Z</time>
      </trkpt>
      <trkpt lat="49.31809" lon="-1.10151">
        <ele>4.2</ele>
        <time>2023-05-17T23:05:35Z</time>
      </trkpt>
      <trkpt lat="49.31789" lon="-1.10168">
        <ele>4.3</ele>
        <time>2023-05-17T23:05:39Z</time>
      </trkpt>
      <trkpt lat="49.31769" lon="-1.10184">
        <ele>4.4</ele>
        <time>2023-05-17T23:05:43Z</time>
      </trkpt>
      <trkpt lat="49.31753" lon="-1.10201">
        <ele>4.4</ele>
        <time>2023-05-17T23:05:46Z</time>
      </trkpt>
      <trkpt lat="49.31732" lon="-1.10216">
        <ele>4.4</ele>
        <time>2023-05-17T23:05:50Z</time>
      </trkpt>
      <trkpt lat="49.31714" lon="-1.10237">
        <ele>4.4</ele>
        <time>2023-05-17T23:05:54Z</time>
      </trkpt>
      <trkpt lat="49.31703" lon="-1.1026">
        <ele>4.4</ele>
        <time>2023-05-17T23:05:57Z</time>
      </trkpt>
      <trkpt lat="49.31688" lon="-1.10289">
        <ele>4.4</ele>
        <time>2023-05-17T23:06:01Z</time>
      </trkpt>
      <trkpt lat="49.31675" lon="-1.10318">
        <ele>4.4</ele>
        <time>2023-05-17T23:06:05Z</time>
      </trkpt>
      <trkpt lat="49.31662" lon="-1.10347">
        <ele>4.5</ele>
        <time>2023-05-17T23:06:09Z</time>
      </trkpt>
      <trkpt lat="49.31647" lon="-1.10374">
        <ele>4.5</ele>
        <time>2023-05-17T23:06:13Z</time>
      </trkpt>
      <trkpt lat="49.31632" lon="-1.10401">
        <ele>4.7</ele>
        <time>2023-05-17T23:06:17Z</time>
      </trkpt>
      <trkpt lat="49.31616" lon="-1.10427">
        <ele>4.7</ele>
        <time>2023-05-17T23:06:21Z</time>
      </trkpt>
      <trkpt lat="49.31604" lon="-1.10458">
        <ele>4.8</ele>
        <time>2023-05-17T23:06:25Z</time>
      </trkpt>
      <trkpt lat="49.31589" lon="-1.10487">
        <ele>4.9</ele>
        <time>2023-05-17T23:06:29Z</time>
      </trkpt>
      <trkpt lat="49.31578" lon="-1.1051">
        <ele>4.9</ele>
        <time>2023-05-17T23:06:32Z</time>
      </trkpt>
      <trkpt lat="49.31567" lon="-1.10532">
        <ele>5</ele>
        <time>2023-05-17T23:06:35Z</time>
      </trkpt>
      <trkpt lat="49.31557" lon="-1.10555">
        <ele>4.9</ele>
        <time>2023-05-17T23:06:38Z</time>
      </trkpt>
      <trkpt lat="49.31545" lon="-1.10578">
        <ele>4.9</ele>
        <time>2023-05-17T23:06:41Z</time>
      </trkpt>
      <trkpt lat="49.31532" lon="-1.106">
        <ele>5</ele>
        <time>2023-05-17T23:06:44Z</time>
      </trkpt>
      <trkpt lat="49.31521" lon="-1.10623">
        <ele>5</ele>
        <time>2023-05-17T23:06:47Z</time>
      </trkpt>
      <trkpt lat="49.3151" lon="-1.10649">
        <ele>5</ele>
        <time>2023-05-17T23:06:50Z</time>
      </trkpt>
      <trkpt lat="49.31498" lon="-1.10672">
        <ele>5.1</ele>
        <time>2023-05-17T23:06:53Z</time>
      </trkpt>
      <trkpt lat="49.31484" lon="-1.10701">
        <ele>5.2</ele>
        <time>2023-05-17T23:06:57Z</time>
      </trkpt>
      <trkpt lat="49.31472" lon="-1.10723">
        <ele>5.3</ele>
        <time>2023-05-17T23:07:00Z</time>
      </trkpt>
      <trkpt lat="49.3146" lon="-1.10746">
        <ele>5.3</ele>
        <time>2023-05-17T23:07:03Z</time>
      </trkpt>
      <trkpt lat="49.31448" lon="-1.1077">
        <ele>5.4</ele>
        <time>2023-05-17T23:07:06Z</time>
      </trkpt>
      <trkpt lat="49.31436" lon="-1.10794">
        <ele>5.5</ele>
        <time>2023-05-17T23:07:09Z</time>
      </trkpt>
      <trkpt lat="49.31424" lon="-1.10817">
        <ele>5.6</ele>
        <time>2023-05-17T23:07:12Z</time>
      </trkpt>
      <trkpt lat="49.31411" lon="-1.10841">
        <ele>5.7</ele>
        <time>2023-05-17T23:07:15Z</time>
      </trkpt>
      <trkpt lat="49.31399" lon="-1.10865">
        <ele>5.9</ele>
        <time>2023-05-17T23:07:18Z</time>
      </trkpt>
      <trkpt lat="49.31388" lon="-1.10887">
        <ele>6</ele>
        <time>2023-05-17T23:07:21Z</time>
      </trkpt>
      <trkpt lat="49.31377" lon="-1.1091">
        <ele>6.1</ele>
        <time>2023-05-17T23:07:24Z</time>
      </trkpt>
      <trkpt lat="49.31366" lon="-1.10932">
        <ele>6.2</ele>
        <time>2023-05-17T23:07:27Z</time>
      </trkpt>
      <trkpt lat="49.31355" lon="-1.10955">
        <ele>6.4</ele>
        <time>2023-05-17T23:07:30Z</time>
      </trkpt>
      <trkpt lat="49.31344" lon="-1.10977">
        <ele>6.5</ele>
        <time>2023-05-17T23:07:33Z</time>
      </trkpt>
      <trkpt lat="49.31334" lon="-1.11001">
        <ele>6.6</ele>
        <time>2023-05-17T23:07:36Z</time>
      </trkpt>
      <trkpt lat="49.31321" lon="-1.11023">
        <ele>6.8</ele>
        <time>2023-05-17T23:07:39Z</time>
      </trkpt>
      <trkpt lat="49.31306" lon="-1.1105">
        <ele>6.9</ele>
        <time>2023-05-17T23:07:43Z</time>
      </trkpt>
      <trkpt lat="49.31292" lon="-1.11078">
        <ele>7.2</ele>
        <time>2023-05-17T23:07:47Z</time>
      </trkpt>
      <trkpt lat="49.31281" lon="-1.11101">
        <ele>7.4</ele>
        <time>2023-05-17T23:07:50Z</time>
      </trkpt>
      <trkpt lat="49.31267" lon="-1.11128">
        <ele>7.6</ele>
        <time>2023-05-17T23:07:54Z</time>
      </trkpt>
      <trkpt lat="49.31254" lon="-1.11157">
        <ele>7.8</ele>
        <time>2023-05-17T23:07:58Z</time>
      </trkpt>
      <trkpt lat="49.31239" lon="-1.11184">
        <ele>8</ele>
        <time>2023-05-17T23:08:02Z</time>
      </trkpt>
      <trkpt lat="49.31226" lon="-1.11213">
        <ele>8.1</ele>
        <time>2023-05-17T23:08:06Z</time>
      </trkpt>
      <trkpt lat="49.31212" lon="-1.11242">
        <ele>8.3</ele>
        <time>2023-05-17T23:08:10Z</time>
      </trkpt>
      <trkpt lat="49.312" lon="-1.11264">
        <ele>8.5</ele>
        <time>2023-05-17T23:08:13Z</time>
      </trkpt>
      <trkpt lat="49.31186" lon="-1.11293">
        <ele>8.6</ele>
        <time>2023-05-17T23:08:17Z</time>
      </trkpt>
      <trkpt lat="49.31174" lon="-1.11315">
        <ele>8.6</ele>
        <time>2023-05-17T23:08:20Z</time>
      </trkpt>
      <trkpt lat="49.31163" lon="-1.11339">
        <ele>8.6</ele>
        <time>2023-05-17T23:08:23Z</time>
      </trkpt>
      <trkpt lat="49.31153" lon="-1.11365">
        <ele>8.6</ele>
        <time>2023-05-17T23:08:26Z</time>
      </trkpt>
      <trkpt lat="49.31145" lon="-1.11392">
        <ele>8.7</ele>
        <time>2023-05-17T23:08:29Z</time>
      </trkpt>
      <trkpt lat="49.31138" lon="-1.11418">
        <ele>8.7</ele>
        <time>2023-05-17T23:08:32Z</time>
      </trkpt>
      <trkpt lat="49.31129" lon="-1.11452">
        <ele>8.9</ele>
        <time>2023-05-17T23:08:36Z</time>
      </trkpt>
      <trkpt lat="49.31123" lon="-1.11479">
        <ele>9</ele>
        <time>2023-05-17T23:08:39Z</time>
      </trkpt>
      <trkpt lat="49.31114" lon="-1.11514">
        <ele>9.3</ele>
        <time>2023-05-17T23:08:43Z</time>
      </trkpt>
      <trkpt lat="49.31107" lon="-1.1154">
        <ele>9.6</ele>
        <time>2023-05-17T23:08:46Z</time>
      </trkpt>
      <trkpt lat="49.31098" lon="-1.11574">
        <ele>9.9</ele>
        <time>2023-05-17T23:08:50Z</time>
      </trkpt>
      <trkpt lat="49.31092" lon="-1.116">
        <ele>10.1</ele>
        <time>2023-05-17T23:08:53Z</time>
      </trkpt>
      <trkpt lat="49.31084" lon="-1.11626">
        <ele>10.4</ele>
        <time>2023-05-17T23:08:56Z</time>
      </trkpt>
      <trkpt lat="49.31077" lon="-1.11652">
        <ele>10.6</ele>
        <time>2023-05-17T23:08:59Z</time>
      </trkpt>
      <trkpt lat="49.3107" lon="-1.11678">
        <ele>10.9</ele>
        <time>2023-05-17T23:09:02Z</time>
      </trkpt>
      <trkpt lat="49.31062" lon="-1.11711">
        <ele>11.4</ele>
        <time>2023-05-17T23:09:06Z</time>
      </trkpt>
      <trkpt lat="49.31054" lon="-1.11744">
        <ele>11.8</ele>
        <time>2023-05-17T23:09:10Z</time>
      </trkpt>
      <trkpt lat="49.31046" lon="-1.11775">
        <ele>12.2</ele>
        <time>2023-05-17T23:09:14Z</time>
      </trkpt>
      <trkpt lat="49.31037" lon="-1.11807">
        <ele>12.6</ele>
        <time>2023-05-17T23:09:18Z</time>
      </trkpt>
      <trkpt lat="49.31028" lon="-1.11838">
        <ele>13</ele>
        <time>2023-05-17T23:09:22Z</time>
      </trkpt>
      <trkpt lat="49.31021" lon="-1.1187">
        <ele>13.4</ele>
        <time>2023-05-17T23:09:26Z</time>
      </trkpt>
      <trkpt lat="49.31013" lon="-1.11902">
        <ele>13.8</ele>
        <time>2023-05-17T23:09:30Z</time>
      </trkpt>
      <trkpt lat="49.31004" lon="-1.11934">
        <ele>14.1</ele>
        <time>2023-05-17T23:09:34Z</time>
      </trkpt>
      <trkpt lat="49.30995" lon="-1.11966">
        <ele>14.5</ele>
        <time>2023-05-17T23:09:38Z</time>
      </trkpt>
      <trkpt lat="49.30988" lon="-1.11998">
        <ele>15</ele>
        <time>2023-05-17T23:09:42Z</time>
      </trkpt>
      <trkpt lat="49.30981" lon="-1.12028">
        <ele>15.4</ele>
        <time>2023-05-17T23:09:46Z</time>
      </trkpt>
      <trkpt lat="49.30975" lon="-1.12059">
        <ele>15.8</ele>
        <time>2023-05-17T23:09:50Z</time>
      </trkpt>
      <trkpt lat="49.30967" lon="-1.12089">
        <ele>16.1</ele>
        <time>2023-05-17T23:09:54Z</time>
      </trkpt>
      <trkpt lat="49.30958" lon="-1.1212">
        <ele>16.4</ele>
        <time>2023-05-17T23:09:58Z</time>
      </trkpt>
      <trkpt lat="49.3095" lon="-1.12153">
        <ele>16.7</ele>
        <time>2023-05-17T23:10:02Z</time>
      </trkpt>
      <trkpt lat="49.30943" lon="-1.12178">
        <ele>16.8</ele>
        <time>2023-05-17T23:10:05Z</time>
      </trkpt>
      <trkpt lat="49.30936" lon="-1.12205">
        <ele>16.9</ele>
        <time>2023-05-17T23:10:08Z</time>
      </trkpt>
      <trkpt lat="49.30929" lon="-1.12231">
        <ele>17</ele>
        <time>2023-05-17T23:10:11Z</time>
      </trkpt>
      <trkpt lat="49.30921" lon="-1.1226">
        <ele>17</ele>
        <time>2023-05-17T23:10:14Z</time>
      </trkpt>
      <trkpt lat="49.30914" lon="-1.12289">
        <ele>16.9</ele>
        <time>2023-05-17T23:10:17Z</time>
      </trkpt>
      <trkpt lat="49.30907" lon="-1.12317">
        <ele>17</ele>
        <time>2023-05-17T23:10:20Z</time>
      </trkpt>
      <trkpt lat="49.309" lon="-1.12345">
        <ele>17</ele>
        <time>2023-05-17T23:10:23Z</time>
      </trkpt>
      <trkpt lat="49.30891" lon="-1.12374">
        <ele>17</ele>
        <time>2023-05-17T23:10:26Z</time>
      </trkpt>
      <trkpt lat="49.30884" lon="-1.12401">
        <ele>17</ele>
        <time>2023-05-17T23:10:29Z</time>
      </trkpt>
      <trkpt lat="49.30877" lon="-1.12429">
        <ele>16.9</ele>
        <time>2023-05-17T23:10:32Z</time>
      </trkpt>
      <trkpt lat="49.30868" lon="-1.12458">
        <ele>16.8</ele>
        <time>2023-05-17T23:10:35Z</time>
      </trkpt>
      <trkpt lat="49.30861" lon="-1.12487">
        <ele>16.6</ele>
        <time>2023-05-17T23:10:38Z</time>
      </trkpt>
      <trkpt lat="49.30858" lon="-1.12519">
        <ele>16.3</ele>
        <time>2023-05-17T23:10:41Z</time>
      </trkpt>
      <trkpt lat="49.30858" lon="-1.12551">
        <ele>16</ele>
        <time>2023-05-17T23:10:44Z</time>
      </trkpt>
      <trkpt lat="49.30859" lon="-1.12586">
        <ele>15.5</ele>
        <time>2023-05-17T23:10:47Z</time>
      </trkpt>
      <trkpt lat="49.3086" lon="-1.12623">
        <ele>14.8</ele>
        <time>2023-05-17T23:10:50Z</time>
      </trkpt>
      <trkpt lat="49.3086" lon="-1.12661">
        <ele>13.8</ele>
        <time>2023-05-17T23:10:53Z</time>
      </trkpt>
      <trkpt lat="49.30862" lon="-1.12699">
        <ele>12.5</ele>
        <time>2023-05-17T23:10:56Z</time>
      </trkpt>
      <trkpt lat="49.30862" lon="-1.12727">
        <ele>11.6</ele>
        <time>2023-05-17T23:10:58Z</time>
      </trkpt>
      <trkpt lat="49.30863" lon="-1.12756">
        <ele>10.6</ele>
        <time>2023-05-17T23:11:00Z</time>
      </trkpt>
      <trkpt lat="49.30865" lon="-1.12787">
        <ele>9.6</ele>
        <time>2023-05-17T23:11:02Z</time>
      </trkpt>
      <trkpt lat="49.30866" lon="-1.12818">
        <ele>8.6</ele>
        <time>2023-05-17T23:11:04Z</time>
      </trkpt>
      <trkpt lat="49.30866" lon="-1.1285">
        <ele>7.5</ele>
        <time>2023-05-17T23:11:06Z</time>
      </trkpt>
      <trkpt lat="49.30865" lon="-1.12882">
        <ele>6.3</ele>
        <time>2023-05-17T23:11:08Z</time>
      </trkpt>
      <trkpt lat="49.30864" lon="-1.12915">
        <ele>5.3</ele>
        <time>2023-05-17T23:11:10Z</time>
      </trkpt>
      <trkpt lat="49.30863" lon="-1.12949">
        <ele>4.4</ele>
        <time>2023-05-17T23:11:12Z</time>
      </trkpt>
      <trkpt lat="49.30861" lon="-1.12983">
        <ele>4</ele>
        <time>2023-05-17T23:11:14Z</time>
      </trkpt>
      <trkpt lat="49.30859" lon="-1.13016">
        <ele>3.8</ele>
        <time>2023-05-17T23:11:16Z</time>
      </trkpt>
      <trkpt lat="49.30856" lon="-1.13047">
        <ele>3.8</ele>
        <time>2023-05-17T23:11:18Z</time>
      </trkpt>
      <trkpt lat="49.30853" lon="-1.13076">
        <ele>3.8</ele>
        <time>2023-05-17T23:11:20Z</time>
      </trkpt>
      <trkpt lat="49.30851" lon="-1.13104">
        <ele>3.8</ele>
        <time>2023-05-17T23:11:22Z</time>
      </trkpt>
      <trkpt lat="49.30847" lon="-1.13143">
        <ele>4</ele>
        <time>2023-05-17T23:11:25Z</time>
      </trkpt>
      <trkpt lat="49.30843" lon="-1.1318">
        <ele>4.1</ele>
        <time>2023-05-17T23:11:28Z</time>
      </trkpt>
      <trkpt lat="49.30837" lon="-1.13217">
        <ele>4.2</ele>
        <time>2023-05-17T23:11:31Z</time>
      </trkpt>
      <trkpt lat="49.30833" lon="-1.13254">
        <ele>4.3</ele>
        <time>2023-05-17T23:11:34Z</time>
      </trkpt>
      <trkpt lat="49.30828" lon="-1.1329">
        <ele>4.4</ele>
        <time>2023-05-17T23:11:37Z</time>
      </trkpt>
      <trkpt lat="49.30824" lon="-1.13326">
        <ele>4.6</ele>
        <time>2023-05-17T23:11:40Z</time>
      </trkpt>
      <trkpt lat="49.30818" lon="-1.13362">
        <ele>4.7</ele>
        <time>2023-05-17T23:11:43Z</time>
      </trkpt>
      <trkpt lat="49.30815" lon="-1.13397">
        <ele>4.7</ele>
        <time>2023-05-17T23:11:46Z</time>
      </trkpt>
      <trkpt lat="49.30813" lon="-1.13433">
        <ele>4.6</ele>
        <time>2023-05-17T23:11:49Z</time>
      </trkpt>
      <trkpt lat="49.30813" lon="-1.13466">
        <ele>4.6</ele>
        <time>2023-05-17T23:11:52Z</time>
      </trkpt>
      <trkpt lat="49.30816" lon="-1.135">
        <ele>4.3</ele>
        <time>2023-05-17T23:11:55Z</time>
      </trkpt>
      <trkpt lat="49.3082" lon="-1.13536">
        <ele>4.2</ele>
        <time>2023-05-17T23:11:58Z</time>
      </trkpt>
      <trkpt lat="49.30822" lon="-1.13571">
        <ele>3.9</ele>
        <time>2023-05-17T23:12:01Z</time>
      </trkpt>
      <trkpt lat="49.30825" lon="-1.13606">
        <ele>3.8</ele>
        <time>2023-05-17T23:12:04Z</time>
      </trkpt>
      <trkpt lat="49.3083" lon="-1.13639">
        <ele>3.7</ele>
        <time>2023-05-17T23:12:07Z</time>
      </trkpt>
      <trkpt lat="49.30834" lon="-1.13673">
        <ele>3.6</ele>
        <time>2023-05-17T23:12:10Z</time>
      </trkpt>
      <trkpt lat="49.30837" lon="-1.13707">
        <ele>3.6</ele>
        <time>2023-05-17T23:12:13Z</time>
      </trkpt>
      <trkpt lat="49.30839" lon="-1.1374">
        <ele>3.6</ele>
        <time>2023-05-17T23:12:16Z</time>
      </trkpt>
      <trkpt lat="49.30842" lon="-1.13772">
        <ele>3.6</ele>
        <time>2023-05-17T23:12:19Z</time>
      </trkpt>
      <trkpt lat="49.30846" lon="-1.13803">
        <ele>3.7</ele>
        <time>2023-05-17T23:12:22Z</time>
      </trkpt>
      <trkpt lat="49.30849" lon="-1.13833">
        <ele>3.8</ele>
        <time>2023-05-17T23:12:25Z</time>
      </trkpt>
      <trkpt lat="49.30852" lon="-1.13863">
        <ele>3.9</ele>
        <time>2023-05-17T23:12:28Z</time>
      </trkpt>
      <trkpt lat="49.30854" lon="-1.13894">
        <ele>4</ele>
        <time>2023-05-17T23:12:31Z</time>
      </trkpt>
      <trkpt lat="49.30857" lon="-1.13923">
        <ele>4.2</ele>
        <time>2023-05-17T23:12:34Z</time>
      </trkpt>
      <trkpt lat="49.3086" lon="-1.13953">
        <ele>4.4</ele>
        <time>2023-05-17T23:12:37Z</time>
      </trkpt>
      <trkpt lat="49.30861" lon="-1.13982">
        <ele>4.5</ele>
        <time>2023-05-17T23:12:40Z</time>
      </trkpt>
      <trkpt lat="49.30865" lon="-1.14012">
        <ele>4.6</ele>
        <time>2023-05-17T23:12:43Z</time>
      </trkpt>
      <trkpt lat="49.30868" lon="-1.14042">
        <ele>4.7</ele>
        <time>2023-05-17T23:12:46Z</time>
      </trkpt>
      <trkpt lat="49.30871" lon="-1.14074">
        <ele>4.6</ele>
        <time>2023-05-17T23:12:49Z</time>
      </trkpt>
      <trkpt lat="49.30875" lon="-1.14106">
        <ele>4.5</ele>
        <time>2023-05-17T23:12:52Z</time>
      </trkpt>
      <trkpt lat="49.30879" lon="-1.14138">
        <ele>4.2</ele>
        <time>2023-05-17T23:12:55Z</time>
      </trkpt>
      <trkpt lat="49.30883" lon="-1.14172">
        <ele>3.8</ele>
        <time>2023-05-17T23:12:58Z</time>
      </trkpt>
      <trkpt lat="49.30886" lon="-1.14206">
        <ele>3.4</ele>
        <time>2023-05-17T23:13:01Z</time>
      </trkpt>
      <trkpt lat="49.30889" lon="-1.14242">
        <ele>3.2</ele>
        <time>2023-05-17T23:13:04Z</time>
      </trkpt>
      <trkpt lat="49.30894" lon="-1.14276">
        <ele>3.2</ele>
        <time>2023-05-17T23:13:07Z</time>
      </trkpt>
      <trkpt lat="49.30897" lon="-1.14311">
        <ele>3.5</ele>
        <time>2023-05-17T23:13:10Z</time>
      </trkpt>
      <trkpt lat="49.30899" lon="-1.14341">
        <ele>4</ele>
        <time>2023-05-17T23:13:13Z</time>
      </trkpt>
      <trkpt lat="49.30902" lon="-1.14372">
        <ele>4.6</ele>
        <time>2023-05-17T23:13:16Z</time>
      </trkpt>
      <trkpt lat="49.30906" lon="-1.14401">
        <ele>5.4</ele>
        <time>2023-05-17T23:13:19Z</time>
      </trkpt>
      <trkpt lat="49.30909" lon="-1.14437">
        <ele>6.3</ele>
        <time>2023-05-17T23:13:23Z</time>
      </trkpt>
      <trkpt lat="49.30911" lon="-1.14473">
        <ele>6.9</ele>
        <time>2023-05-17T23:13:27Z</time>
      </trkpt>
      <trkpt lat="49.30914" lon="-1.14507">
        <ele>7.6</ele>
        <time>2023-05-17T23:13:31Z</time>
      </trkpt>
      <trkpt lat="49.30917" lon="-1.14535">
        <ele>8.1</ele>
        <time>2023-05-17T23:13:34Z</time>
      </trkpt>
      <trkpt lat="49.30919" lon="-1.1457">
        <ele>8.7</ele>
        <time>2023-05-17T23:13:38Z</time>
      </trkpt>
      <trkpt lat="49.30928" lon="-1.14595">
        <ele>9.3</ele>
        <time>2023-05-17T23:13:42Z</time>
      </trkpt>
      <trkpt lat="49.30949" lon="-1.14598">
        <ele>10</ele>
        <time>2023-05-17T23:13:47Z</time>
      </trkpt>
      <trkpt lat="49.3097" lon="-1.14611">
        <ele>10.2</ele>
        <time>2023-05-17T23:13:52Z</time>
      </trkpt>
      <trkpt lat="49.3099" lon="-1.14622">
        <ele>10.1</ele>
        <time>2023-05-17T23:13:56Z</time>
      </trkpt>
      <trkpt lat="49.31011" lon="-1.14637">
        <ele>9.7</ele>
        <time>2023-05-17T23:14:00Z</time>
      </trkpt>
      <trkpt lat="49.31031" lon="-1.14652">
        <ele>9.1</ele>
        <time>2023-05-17T23:14:04Z</time>
      </trkpt>
      <trkpt lat="49.31052" lon="-1.14669">
        <ele>8.2</ele>
        <time>2023-05-17T23:14:08Z</time>
      </trkpt>
      <trkpt lat="49.31071" lon="-1.1468">
        <ele>7.2</ele>
        <time>2023-05-17T23:14:11Z</time>
      </trkpt>
      <trkpt lat="49.31092" lon="-1.14693">
        <ele>6.1</ele>
        <time>2023-05-17T23:14:14Z</time>
      </trkpt>
      <trkpt lat="49.31114" lon="-1.14707">
        <ele>5</ele>
        <time>2023-05-17T23:14:17Z</time>
      </trkpt>
      <trkpt lat="49.31137" lon="-1.14724">
        <ele>4</ele>
        <time>2023-05-17T23:14:20Z</time>
      </trkpt>
      <trkpt lat="49.31159" lon="-1.1474">
        <ele>3.4</ele>
        <time>2023-05-17T23:14:23Z</time>
      </trkpt>
      <trkpt lat="49.31183" lon="-1.14754">
        <ele>2.8</ele>
        <time>2023-05-17T23:14:26Z</time>
      </trkpt>
      <trkpt lat="49.31206" lon="-1.14766">
        <ele>2.5</ele>
        <time>2023-05-17T23:14:29Z</time>
      </trkpt>
      <trkpt lat="49.31228" lon="-1.14778">
        <ele>2.4</ele>
        <time>2023-05-17T23:14:32Z</time>
      </trkpt>
      <trkpt lat="49.3125" lon="-1.14789">
        <ele>2.5</ele>
        <time>2023-05-17T23:14:35Z</time>
      </trkpt>
      <trkpt lat="49.3127" lon="-1.14799">
        <ele>2.6</ele>
        <time>2023-05-17T23:14:38Z</time>
      </trkpt>
      <trkpt lat="49.31291" lon="-1.14806">
        <ele>2.6</ele>
        <time>2023-05-17T23:14:41Z</time>
      </trkpt>
      <trkpt lat="49.31312" lon="-1.14813">
        <ele>2.7</ele>
        <time>2023-05-17T23:14:44Z</time>
      </trkpt>
      <trkpt lat="49.3133" lon="-1.1482">
        <ele>3.2</ele>
        <time>2023-05-17T23:14:47Z</time>
      </trkpt>
      <trkpt lat="49.3135" lon="-1.14838">
        <ele>4.1</ele>
        <time>2023-05-17T23:14:51Z</time>
      </trkpt>
      <trkpt lat="49.31364" lon="-1.14862">
        <ele>5.2</ele>
        <time>2023-05-17T23:14:55Z</time>
      </trkpt>
      <trkpt lat="49.31378" lon="-1.14886">
        <ele>6.2</ele>
        <time>2023-05-17T23:14:59Z</time>
      </trkpt>
      <trkpt lat="49.31392" lon="-1.1491">
        <ele>6.8</ele>
        <time>2023-05-17T23:15:03Z</time>
      </trkpt>
      <trkpt lat="49.31407" lon="-1.14933">
        <ele>7.1</ele>
        <time>2023-05-17T23:15:07Z</time>
      </trkpt>
      <trkpt lat="49.3142" lon="-1.14957">
        <ele>7.5</ele>
        <time>2023-05-17T23:15:11Z</time>
      </trkpt>
      <trkpt lat="49.31434" lon="-1.1498">
        <ele>7.9</ele>
        <time>2023-05-17T23:15:15Z</time>
      </trkpt>
      <trkpt lat="49.31448" lon="-1.15004">
        <ele>8.4</ele>
        <time>2023-05-17T23:15:19Z</time>
      </trkpt>
      <trkpt lat="49.31461" lon="-1.15027">
        <ele>8.8</ele>
        <time>2023-05-17T23:15:23Z</time>
      </trkpt>
      <trkpt lat="49.31474" lon="-1.1505">
        <ele>9.2</ele>
        <time>2023-05-17T23:15:27Z</time>
      </trkpt>
      <trkpt lat="49.31488" lon="-1.15073">
        <ele>9.6</ele>
        <time>2023-05-17T23:15:31Z</time>
      </trkpt>
      <trkpt lat="49.31502" lon="-1.15095">
        <ele>10</ele>
        <time>2023-05-17T23:15:35Z</time>
      </trkpt>
      <trkpt lat="49.31514" lon="-1.15117">
        <ele>10.5</ele>
        <time>2023-05-17T23:15:39Z</time>
      </trkpt>
      <trkpt lat="49.31528" lon="-1.15142">
        <ele>11</ele>
        <time>2023-05-17T23:15:44Z</time>
      </trkpt>
      <trkpt lat="49.31542" lon="-1.15162">
        <ele>11.5</ele>
        <time>2023-05-17T23:15:48Z</time>
      </trkpt>
      <trkpt lat="49.31557" lon="-1.15186">
        <ele>11.9</ele>
        <time>2023-05-17T23:15:53Z</time>
      </trkpt>
      <trkpt lat="49.31572" lon="-1.15212">
        <ele>12.2</ele>
        <time>2023-05-17T23:15:58Z</time>
      </trkpt>
      <trkpt lat="49.31586" lon="-1.15235">
        <ele>12.1</ele>
        <time>2023-05-17T23:16:02Z</time>
      </trkpt>
      <trkpt lat="49.316" lon="-1.15257">
        <ele>11.7</ele>
        <time>2023-05-17T23:16:06Z</time>
      </trkpt>
      <trkpt lat="49.31616" lon="-1.15282">
        <ele>11</ele>
        <time>2023-05-17T23:16:10Z</time>
      </trkpt>
      <trkpt lat="49.31628" lon="-1.15306">
        <ele>10.6</ele>
        <time>2023-05-17T23:16:13Z</time>
      </trkpt>
      <trkpt lat="49.31642" lon="-1.15328">
        <ele>10.3</ele>
        <time>2023-05-17T23:16:16Z</time>
      </trkpt>
      <trkpt lat="49.31656" lon="-1.15349">
        <ele>10.2</ele>
        <time>2023-05-17T23:16:19Z</time>
      </trkpt>
      <trkpt lat="49.3167" lon="-1.15372">
        <ele>10.4</ele>
        <time>2023-05-17T23:16:22Z</time>
      </trkpt>
      <trkpt lat="49.31682" lon="-1.15393">
        <ele>10.7</ele>
        <time>2023-05-17T23:16:25Z</time>
      </trkpt>
      <trkpt lat="49.31698" lon="-1.15417">
        <ele>11.2</ele>
        <time>2023-05-17T23:16:29Z</time>
      </trkpt>
      <trkpt lat="49.31713" lon="-1.15441">
        <ele>11.6</ele>
        <time>2023-05-17T23:16:33Z</time>
      </trkpt>
      <trkpt lat="49.31732" lon="-1.15463">
        <ele>11.6</ele>
        <time>2023-05-17T23:16:37Z</time>
      </trkpt>
      <trkpt lat="49.31749" lon="-1.15478">
        <ele>11.4</ele>
        <time>2023-05-17T23:16:40Z</time>
      </trkpt>
      <trkpt lat="49.31766" lon="-1.15493">
        <ele>10.9</ele>
        <time>2023-05-17T23:16:43Z</time>
      </trkpt>
      <trkpt lat="49.31784" lon="-1.15508">
        <ele>10.2</ele>
        <time>2023-05-17T23:16:46Z</time>
      </trkpt>
      <trkpt lat="49.31804" lon="-1.15523">
        <ele>9.3</ele>
        <time>2023-05-17T23:16:49Z</time>
      </trkpt>
      <trkpt lat="49.31824" lon="-1.15542">
        <ele>8.2</ele>
        <time>2023-05-17T23:16:52Z</time>
      </trkpt>
      <trkpt lat="49.31845" lon="-1.15561">
        <ele>7</ele>
        <time>2023-05-17T23:16:55Z</time>
      </trkpt>
      <trkpt lat="49.31866" lon="-1.15579">
        <ele>5.9</ele>
        <time>2023-05-17T23:16:58Z</time>
      </trkpt>
      <trkpt lat="49.31889" lon="-1.15595">
        <ele>4.8</ele>
        <time>2023-05-17T23:17:01Z</time>
      </trkpt>
      <trkpt lat="49.31907" lon="-1.15617">
        <ele>4.1</ele>
        <time>2023-05-17T23:17:04Z</time>
      </trkpt>
      <trkpt lat="49.31917" lon="-1.15648">
        <ele>3.8</ele>
        <time>2023-05-17T23:17:07Z</time>
      </trkpt>
      <trkpt lat="49.31923" lon="-1.15681">
        <ele>3.6</ele>
        <time>2023-05-17T23:17:10Z</time>
      </trkpt>
      <trkpt lat="49.31928" lon="-1.15715">
        <ele>3.6</ele>
        <time>2023-05-17T23:17:13Z</time>
      </trkpt>
      <trkpt lat="49.31929" lon="-1.15748">
        <ele>3.8</ele>
        <time>2023-05-17T23:17:16Z</time>
      </trkpt>
      <trkpt lat="49.31928" lon="-1.15781">
        <ele>3.9</ele>
        <time>2023-05-17T23:17:19Z</time>
      </trkpt>
      <trkpt lat="49.31925" lon="-1.15813">
        <ele>4</ele>
        <time>2023-05-17T23:17:22Z</time>
      </trkpt>
      <trkpt lat="49.31922" lon="-1.15844">
        <ele>4</ele>
        <time>2023-05-17T23:17:25Z</time>
      </trkpt>
      <trkpt lat="49.31918" lon="-1.15877">
        <ele>4</ele>
        <time>2023-05-17T23:17:28Z</time>
      </trkpt>
      <trkpt lat="49.31914" lon="-1.15907">
        <ele>3.9</ele>
        <time>2023-05-17T23:17:31Z</time>
      </trkpt>
      <trkpt lat="49.3191" lon="-1.1594">
        <ele>3.8</ele>
        <time>2023-05-17T23:17:34Z</time>
      </trkpt>
      <trkpt lat="49.31904" lon="-1.15972">
        <ele>3.9</ele>
        <time>2023-05-17T23:17:37Z</time>
      </trkpt>
      <trkpt lat="49.31899" lon="-1.16001">
        <ele>3.9</ele>
        <time>2023-05-17T23:17:40Z</time>
      </trkpt>
      <trkpt lat="49.31891" lon="-1.16031">
        <ele>3.9</ele>
        <time>2023-05-17T23:17:43Z</time>
      </trkpt>
      <trkpt lat="49.31886" lon="-1.1606">
        <ele>3.8</ele>
        <time>2023-05-17T23:17:46Z</time>
      </trkpt>
      <trkpt lat="49.31882" lon="-1.16088">
        <ele>3.8</ele>
        <time>2023-05-17T23:17:49Z</time>
      </trkpt>
      <trkpt lat="49.31876" lon="-1.16118">
        <ele>3.8</ele>
        <time>2023-05-17T23:17:52Z</time>
      </trkpt>
      <trkpt lat="49.3187" lon="-1.16149">
        <ele>3.7</ele>
        <time>2023-05-17T23:17:55Z</time>
      </trkpt>
      <trkpt lat="49.31864" lon="-1.16179">
        <ele>3.6</ele>
        <time>2023-05-17T23:17:58Z</time>
      </trkpt>
      <trkpt lat="49.31856" lon="-1.1621">
        <ele>3.6</ele>
        <time>2023-05-17T23:18:01Z</time>
      </trkpt>
      <trkpt lat="49.31849" lon="-1.16238">
        <ele>3.6</ele>
        <time>2023-05-17T23:18:04Z</time>
      </trkpt>
      <trkpt lat="49.31841" lon="-1.16267">
        <ele>3.4</ele>
        <time>2023-05-17T23:18:07Z</time>
      </trkpt>
      <trkpt lat="49.31831" lon="-1.16294">
        <ele>3.2</ele>
        <time>2023-05-17T23:18:10Z</time>
      </trkpt>
      <trkpt lat="49.31819" lon="-1.16322">
        <ele>3.2</ele>
        <time>2023-05-17T23:18:13Z</time>
      </trkpt>
      <trkpt lat="49.31808" lon="-1.16348">
        <ele>3.3</ele>
        <time>2023-05-17T23:18:16Z</time>
      </trkpt>
      <trkpt lat="49.31797" lon="-1.16374">
        <ele>3.4</ele>
        <time>2023-05-17T23:18:19Z</time>
      </trkpt>
      <trkpt lat="49.31785" lon="-1.16399">
        <ele>3.7</ele>
        <time>2023-05-17T23:18:22Z</time>
      </trkpt>
      <trkpt lat="49.31774" lon="-1.16422">
        <ele>4</ele>
        <time>2023-05-17T23:18:25Z</time>
      </trkpt>
      <trkpt lat="49.31763" lon="-1.16444">
        <ele>4.3</ele>
        <time>2023-05-17T23:18:28Z</time>
      </trkpt>
      <trkpt lat="49.31752" lon="-1.16467">
        <ele>4.3</ele>
        <time>2023-05-17T23:18:31Z</time>
      </trkpt>
      <trkpt lat="49.3174" lon="-1.16491">
        <ele>4.2</ele>
        <time>2023-05-17T23:18:34Z</time>
      </trkpt>
      <trkpt lat="49.3173" lon="-1.16516">
        <ele>4.2</ele>
        <time>2023-05-17T23:18:37Z</time>
      </trkpt>
      <trkpt lat="49.3172" lon="-1.16541">
        <ele>4.2</ele>
        <time>2023-05-17T23:18:40Z</time>
      </trkpt>
      <trkpt lat="49.31708" lon="-1.16564">
        <ele>4.2</ele>
        <time>2023-05-17T23:18:43Z</time>
      </trkpt>
      <trkpt lat="49.31695" lon="-1.16585">
        <ele>4.2</ele>
        <time>2023-05-17T23:18:46Z</time>
      </trkpt>
      <trkpt lat="49.31681" lon="-1.16604">
        <ele>4.2</ele>
        <time>2023-05-17T23:18:49Z</time>
      </trkpt>
      <trkpt lat="49.31667" lon="-1.16622">
        <ele>4.2</ele>
        <time>2023-05-17T23:18:52Z</time>
      </trkpt>
      <trkpt lat="49.31653" lon="-1.1664">
        <ele>4.3</ele>
        <time>2023-05-17T23:18:55Z</time>
      </trkpt>
      <trkpt lat="49.31639" lon="-1.1666">
        <ele>4.4</ele>
        <time>2023-05-17T23:18:58Z</time>
      </trkpt>
      <trkpt lat="49.31626" lon="-1.1668">
        <ele>4.7</ele>
        <time>2023-05-17T23:19:01Z</time>
      </trkpt>
      <trkpt lat="49.31611" lon="-1.16707">
        <ele>5</ele>
        <time>2023-05-17T23:19:05Z</time>
      </trkpt>
      <trkpt lat="49.31599" lon="-1.16736">
        <ele>5.6</ele>
        <time>2023-05-17T23:19:09Z</time>
      </trkpt>
      <trkpt lat="49.31588" lon="-1.16766">
        <ele>6.6</ele>
        <time>2023-05-17T23:19:13Z</time>
      </trkpt>
      <trkpt lat="49.31577" lon="-1.16794">
        <ele>7.6</ele>
        <time>2023-05-17T23:19:17Z</time>
      </trkpt>
      <trkpt lat="49.31567" lon="-1.16823">
        <ele>8.5</ele>
        <time>2023-05-17T23:19:22Z</time>
      </trkpt>
      <trkpt lat="49.31557" lon="-1.16848">
        <ele>9</ele>
        <time>2023-05-17T23:19:26Z</time>
      </trkpt>
      <trkpt lat="49.31546" lon="-1.16878">
        <ele>9.5</ele>
        <time>2023-05-17T23:19:31Z</time>
      </trkpt>
      <trkpt lat="49.31539" lon="-1.16906">
        <ele>10</ele>
        <time>2023-05-17T23:19:35Z</time>
      </trkpt>
      <trkpt lat="49.31535" lon="-1.16938">
        <ele>10.8</ele>
        <time>2023-05-17T23:19:40Z</time>
      </trkpt>
      <trkpt lat="49.31527" lon="-1.16967">
        <ele>11.9</ele>
        <time>2023-05-17T23:19:45Z</time>
      </trkpt>
      <trkpt lat="49.31519" lon="-1.16994">
        <ele>13.2</ele>
        <time>2023-05-17T23:19:51Z</time>
      </trkpt>
      <trkpt lat="49.3151" lon="-1.17021">
        <ele>14.8</ele>
        <time>2023-05-17T23:19:58Z</time>
      </trkpt>
      <trkpt lat="49.31501" lon="-1.17045">
        <ele>16.3</ele>
        <time>2023-05-17T23:20:04Z</time>
      </trkpt>
      <trkpt lat="49.31486" lon="-1.17066">
        <ele>17.5</ele>
        <time>2023-05-17T23:20:10Z</time>
      </trkpt>
      <trkpt lat="49.31472" lon="-1.17084">
        <ele>18.2</ele>
        <time>2023-05-17T23:20:15Z</time>
      </trkpt>
      <trkpt lat="49.31457" lon="-1.17103">
        <ele>18.9</ele>
        <time>2023-05-17T23:20:20Z</time>
      </trkpt>
      <trkpt lat="49.31442" lon="-1.17122">
        <ele>19.5</ele>
        <time>2023-05-17T23:20:25Z</time>
      </trkpt>
      <trkpt lat="49.3143" lon="-1.17142">
        <ele>20.1</ele>
        <time>2023-05-17T23:20:30Z</time>
      </trkpt>
      <trkpt lat="49.31417" lon="-1.17166">
        <ele>20.4</ele>
        <time>2023-05-17T23:20:35Z</time>
      </trkpt>
      <trkpt lat="49.31405" lon="-1.17187">
        <ele>20.8</ele>
        <time>2023-05-17T23:20:39Z</time>
      </trkpt>
      <trkpt lat="49.31393" lon="-1.17214">
        <ele>21.1</ele>
        <time>2023-05-17T23:20:44Z</time>
      </trkpt>
      <trkpt lat="49.31382" lon="-1.17241">
        <ele>21.5</ele>
        <time>2023-05-17T23:20:49Z</time>
      </trkpt>
      <trkpt lat="49.3137" lon="-1.17269">
        <ele>21.8</ele>
        <time>2023-05-17T23:20:54Z</time>
      </trkpt>
      <trkpt lat="49.31359" lon="-1.17298">
        <ele>22.1</ele>
        <time>2023-05-17T23:20:59Z</time>
      </trkpt>
      <trkpt lat="49.31349" lon="-1.17322">
        <ele>22.3</ele>
        <time>2023-05-17T23:21:03Z</time>
      </trkpt>
      <trkpt lat="49.3134" lon="-1.17347">
        <ele>22.6</ele>
        <time>2023-05-17T23:21:07Z</time>
      </trkpt>
      <trkpt lat="49.3133" lon="-1.1737">
        <ele>22.9</ele>
        <time>2023-05-17T23:21:11Z</time>
      </trkpt>
      <trkpt lat="49.31319" lon="-1.17399">
        <ele>23.2</ele>
        <time>2023-05-17T23:21:16Z</time>
      </trkpt>
      <trkpt lat="49.31308" lon="-1.17426">
        <ele>23.6</ele>
        <time>2023-05-17T23:21:21Z</time>
      </trkpt>
      <trkpt lat="49.31297" lon="-1.17456">
        <ele>23.9</ele>
        <time>2023-05-17T23:21:26Z</time>
      </trkpt>
      <trkpt lat="49.31287" lon="-1.17482">
        <ele>24</ele>
        <time>2023-05-17T23:21:30Z</time>
      </trkpt>
      <trkpt lat="49.3128" lon="-1.17508">
        <ele>24.2</ele>
        <time>2023-05-17T23:21:34Z</time>
      </trkpt>
      <trkpt lat="49.31272" lon="-1.17537">
        <ele>24.3</ele>
        <time>2023-05-17T23:21:38Z</time>
      </trkpt>
      <trkpt lat="49.31264" lon="-1.17567">
        <ele>24.4</ele>
        <time>2023-05-17T23:21:42Z</time>
      </trkpt>
      <trkpt lat="49.31256" lon="-1.176">
        <ele>24.5</ele>
        <time>2023-05-17T23:21:46Z</time>
      </trkpt>
      <trkpt lat="49.31248" lon="-1.17634">
        <ele>24.6</ele>
        <time>2023-05-17T23:21:50Z</time>
      </trkpt>
      <trkpt lat="49.31241" lon="-1.17667">
        <ele>24.8</ele>
        <time>2023-05-17T23:21:54Z</time>
      </trkpt>
      <trkpt lat="49.31234" lon="-1.17699">
        <ele>24.9</ele>
        <time>2023-05-17T23:21:58Z</time>
      </trkpt>
      <trkpt lat="49.31227" lon="-1.17732">
        <ele>25.1</ele>
        <time>2023-05-17T23:22:02Z</time>
      </trkpt>
      <trkpt lat="49.31223" lon="-1.17766">
        <ele>25.1</ele>
        <time>2023-05-17T23:22:06Z</time>
      </trkpt>
      <trkpt lat="49.31219" lon="-1.17793">
        <ele>25.1</ele>
        <time>2023-05-17T23:22:09Z</time>
      </trkpt>
      <trkpt lat="49.31216" lon="-1.17827">
        <ele>25.1</ele>
        <time>2023-05-17T23:22:13Z</time>
      </trkpt>
      <trkpt lat="49.31212" lon="-1.17861">
        <ele>25</ele>
        <time>2023-05-17T23:22:17Z</time>
      </trkpt>
      <trkpt lat="49.31209" lon="-1.17893">
        <ele>24.9</ele>
        <time>2023-05-17T23:22:21Z</time>
      </trkpt>
      <trkpt lat="49.31207" lon="-1.17927">
        <ele>24.9</ele>
        <time>2023-05-17T23:22:25Z</time>
      </trkpt>
      <trkpt lat="49.31205" lon="-1.1796">
        <ele>24.9</ele>
        <time>2023-05-17T23:22:29Z</time>
      </trkpt>
      <trkpt lat="49.31201" lon="-1.17995">
        <ele>24.8</ele>
        <time>2023-05-17T23:22:33Z</time>
      </trkpt>
      <trkpt lat="49.31198" lon="-1.18023">
        <ele>24.8</ele>
        <time>2023-05-17T23:22:37Z</time>
      </trkpt>
      <trkpt lat="49.31195" lon="-1.18051">
        <ele>24.7</ele>
        <time>2023-05-17T23:22:41Z</time>
      </trkpt>
      <trkpt lat="49.31192" lon="-1.18083">
        <ele>24.4</ele>
        <time>2023-05-17T23:22:45Z</time>
      </trkpt>
      <trkpt lat="49.31188" lon="-1.18117">
        <ele>24.2</ele>
        <time>2023-05-17T23:22:49Z</time>
      </trkpt>
      <trkpt lat="49.31185" lon="-1.18145">
        <ele>24.1</ele>
        <time>2023-05-17T23:22:52Z</time>
      </trkpt>
      <trkpt lat="49.31182" lon="-1.18172">
        <ele>23.9</ele>
        <time>2023-05-17T23:22:55Z</time>
      </trkpt>
      <trkpt lat="49.31179" lon="-1.182">
        <ele>23.6</ele>
        <time>2023-05-17T23:22:58Z</time>
      </trkpt>
      <trkpt lat="49.31176" lon="-1.18227">
        <ele>23.2</ele>
        <time>2023-05-17T23:23:01Z</time>
      </trkpt>
      <trkpt lat="49.31172" lon="-1.18254">
        <ele>22.6</ele>
        <time>2023-05-17T23:23:04Z</time>
      </trkpt>
      <trkpt lat="49.3117" lon="-1.18284">
        <ele>21.5</ele>
        <time>2023-05-17T23:23:07Z</time>
      </trkpt>
      <trkpt lat="49.31168" lon="-1.18317">
        <ele>20.1</ele>
        <time>2023-05-17T23:23:10Z</time>
      </trkpt>
      <trkpt lat="49.31163" lon="-1.18352">
        <ele>18.5</ele>
        <time>2023-05-17T23:23:13Z</time>
      </trkpt>
      <trkpt lat="49.3116" lon="-1.18389">
        <ele>16.6</ele>
        <time>2023-05-17T23:23:16Z</time>
      </trkpt>
      <trkpt lat="49.31154" lon="-1.18429">
        <ele>14.2</ele>
        <time>2023-05-17T23:23:19Z</time>
      </trkpt>
      <trkpt lat="49.31155" lon="-1.1847">
        <ele>12.2</ele>
        <time>2023-05-17T23:23:22Z</time>
      </trkpt>
      <trkpt lat="49.31159" lon="-1.18497">
        <ele>12</ele>
        <time>2023-05-17T23:23:24Z</time>
      </trkpt>
      <trkpt lat="49.31158" lon="-1.18536">
        <ele>12.7</ele>
        <time>2023-05-17T23:23:27Z</time>
      </trkpt>
      <trkpt lat="49.31154" lon="-1.18568">
        <ele>13.9</ele>
        <time>2023-05-17T23:23:30Z</time>
      </trkpt>
      <trkpt lat="49.31149" lon="-1.18601">
        <ele>15.4</ele>
        <time>2023-05-17T23:23:34Z</time>
      </trkpt>
      <trkpt lat="49.31146" lon="-1.18629">
        <ele>16.7</ele>
        <time>2023-05-17T23:23:38Z</time>
      </trkpt>
      <trkpt lat="49.31141" lon="-1.18657">
        <ele>17.6</ele>
        <time>2023-05-17T23:23:42Z</time>
      </trkpt>
      <trkpt lat="49.3114" lon="-1.18685">
        <ele>18.2</ele>
        <time>2023-05-17T23:23:46Z</time>
      </trkpt>
      <trkpt lat="49.31137" lon="-1.18714">
        <ele>18.4</ele>
        <time>2023-05-17T23:23:50Z</time>
      </trkpt>
      <trkpt lat="49.31145" lon="-1.18748">
        <ele>17.8</ele>
        <time>2023-05-17T23:23:55Z</time>
      </trkpt>
      <trkpt lat="49.31154" lon="-1.18772">
        <ele>17.1</ele>
        <time>2023-05-17T23:23:58Z</time>
      </trkpt>
      <trkpt lat="49.31161" lon="-1.18801">
        <ele>16.5</ele>
        <time>2023-05-17T23:24:01Z</time>
      </trkpt>
      <trkpt lat="49.31167" lon="-1.18831">
        <ele>16.2</ele>
        <time>2023-05-17T23:24:04Z</time>
      </trkpt>
      <trkpt lat="49.31169" lon="-1.18861">
        <ele>16</ele>
        <time>2023-05-17T23:24:07Z</time>
      </trkpt>
      <trkpt lat="49.31169" lon="-1.18893">
        <ele>16</ele>
        <time>2023-05-17T23:24:10Z</time>
      </trkpt>
      <trkpt lat="49.31169" lon="-1.18925">
        <ele>16.1</ele>
        <time>2023-05-17T23:24:13Z</time>
      </trkpt>
      <trkpt lat="49.31169" lon="-1.18956">
        <ele>16.2</ele>
        <time>2023-05-17T23:24:16Z</time>
      </trkpt>
      <trkpt lat="49.31169" lon="-1.18988">
        <ele>16.6</ele>
        <time>2023-05-17T23:24:19Z</time>
      </trkpt>
      <trkpt lat="49.31175" lon="-1.19016">
        <ele>17.1</ele>
        <time>2023-05-17T23:24:22Z</time>
      </trkpt>
      <trkpt lat="49.31189" lon="-1.19043">
        <ele>17.4</ele>
        <time>2023-05-17T23:24:26Z</time>
      </trkpt>
      <trkpt lat="49.31205" lon="-1.19069">
        <ele>17.5</ele>
        <time>2023-05-17T23:24:30Z</time>
      </trkpt>
      <trkpt lat="49.31217" lon="-1.19091">
        <ele>17.2</ele>
        <time>2023-05-17T23:24:33Z</time>
      </trkpt>
      <trkpt lat="49.3123" lon="-1.19115">
        <ele>16.6</ele>
        <time>2023-05-17T23:24:36Z</time>
      </trkpt>
      <trkpt lat="49.31244" lon="-1.19141">
        <ele>16</ele>
        <time>2023-05-17T23:24:39Z</time>
      </trkpt>
      <trkpt lat="49.31257" lon="-1.19168">
        <ele>15.5</ele>
        <time>2023-05-17T23:24:42Z</time>
      </trkpt>
      <trkpt lat="49.31271" lon="-1.19197">
        <ele>15.1</ele>
        <time>2023-05-17T23:24:45Z</time>
      </trkpt>
      <trkpt lat="49.31282" lon="-1.19228">
        <ele>14.7</ele>
        <time>2023-05-17T23:24:48Z</time>
      </trkpt>
      <trkpt lat="49.31292" lon="-1.19259">
        <ele>14.3</ele>
        <time>2023-05-17T23:24:51Z</time>
      </trkpt>
      <trkpt lat="49.31302" lon="-1.19289">
        <ele>13.9</ele>
        <time>2023-05-17T23:24:54Z</time>
      </trkpt>
      <trkpt lat="49.31313" lon="-1.19319">
        <ele>13.3</ele>
        <time>2023-05-17T23:24:57Z</time>
      </trkpt>
      <trkpt lat="49.31324" lon="-1.1935">
        <ele>12.6</ele>
        <time>2023-05-17T23:25:00Z</time>
      </trkpt>
      <trkpt lat="49.31336" lon="-1.19384">
        <ele>11.9</ele>
        <time>2023-05-17T23:25:03Z</time>
      </trkpt>
      <trkpt lat="49.31343" lon="-1.19421">
        <ele>11.2</ele>
        <time>2023-05-17T23:25:06Z</time>
      </trkpt>
      <trkpt lat="49.31342" lon="-1.1946">
        <ele>10.8</ele>
        <time>2023-05-17T23:25:09Z</time>
      </trkpt>
      <trkpt lat="49.31337" lon="-1.19497">
        <ele>10.7</ele>
        <time>2023-05-17T23:25:12Z</time>
      </trkpt>
      <trkpt lat="49.31332" lon="-1.19532">
        <ele>10.8</ele>
        <time>2023-05-17T23:25:15Z</time>
      </trkpt>
      <trkpt lat="49.31328" lon="-1.19565">
        <ele>11</ele>
        <time>2023-05-17T23:25:18Z</time>
      </trkpt>
      <trkpt lat="49.31323" lon="-1.19598">
        <ele>11.2</ele>
        <time>2023-05-17T23:25:21Z</time>
      </trkpt>
      <trkpt lat="49.31318" lon="-1.1963">
        <ele>11.4</ele>
        <time>2023-05-17T23:25:24Z</time>
      </trkpt>
      <trkpt lat="49.31316" lon="-1.19659">
        <ele>11.8</ele>
        <time>2023-05-17T23:25:27Z</time>
      </trkpt>
      <trkpt lat="49.3131" lon="-1.19694">
        <ele>12.4</ele>
        <time>2023-05-17T23:25:31Z</time>
      </trkpt>
      <trkpt lat="49.31303" lon="-1.19726">
        <ele>13</ele>
        <time>2023-05-17T23:25:35Z</time>
      </trkpt>
      <trkpt lat="49.31296" lon="-1.19756">
        <ele>13.6</ele>
        <time>2023-05-17T23:25:39Z</time>
      </trkpt>
      <trkpt lat="49.3129" lon="-1.19786">
        <ele>14</ele>
        <time>2023-05-17T23:25:43Z</time>
      </trkpt>
      <trkpt lat="49.31296" lon="-1.19813">
        <ele>13.8</ele>
        <time>2023-05-17T23:25:47Z</time>
      </trkpt>
      <trkpt lat="49.31316" lon="-1.19829">
        <ele>13.2</ele>
        <time>2023-05-17T23:25:51Z</time>
      </trkpt>
      <trkpt lat="49.31334" lon="-1.1984">
        <ele>12.6</ele>
        <time>2023-05-17T23:25:54Z</time>
      </trkpt>
      <trkpt lat="49.3135" lon="-1.19857">
        <ele>12.2</ele>
        <time>2023-05-17T23:25:57Z</time>
      </trkpt>
      <trkpt lat="49.31356" lon="-1.19887">
        <ele>11.8</ele>
        <time>2023-05-17T23:26:00Z</time>
      </trkpt>
      <trkpt lat="49.31353" lon="-1.1992">
        <ele>11.4</ele>
        <time>2023-05-17T23:26:03Z</time>
      </trkpt>
      <trkpt lat="49.31347" lon="-1.19951">
        <ele>10.9</ele>
        <time>2023-05-17T23:26:06Z</time>
      </trkpt>
      <trkpt lat="49.31344" lon="-1.19983">
        <ele>10.4</ele>
        <time>2023-05-17T23:26:09Z</time>
      </trkpt>
      <trkpt lat="49.31344" lon="-1.20018">
        <ele>10.2</ele>
        <time>2023-05-17T23:26:12Z</time>
      </trkpt>
      <trkpt lat="49.31346" lon="-1.20054">
        <ele>10.1</ele>
        <time>2023-05-17T23:26:15Z</time>
      </trkpt>
      <trkpt lat="49.31349" lon="-1.20085">
        <ele>10.1</ele>
        <time>2023-05-17T23:26:18Z</time>
      </trkpt>
      <trkpt lat="49.31349" lon="-1.20114">
        <ele>10</ele>
        <time>2023-05-17T23:26:21Z</time>
      </trkpt>
      <trkpt lat="49.3135" lon="-1.20146">
        <ele>9.6</ele>
        <time>2023-05-17T23:26:24Z</time>
      </trkpt>
      <trkpt lat="49.31349" lon="-1.20181">
        <ele>9.1</ele>
        <time>2023-05-17T23:26:27Z</time>
      </trkpt>
      <trkpt lat="49.3135" lon="-1.20218">
        <ele>8.6</ele>
        <time>2023-05-17T23:26:30Z</time>
      </trkpt>
      <trkpt lat="49.3135" lon="-1.20255">
        <ele>8.4</ele>
        <time>2023-05-17T23:26:33Z</time>
      </trkpt>
      <trkpt lat="49.31348" lon="-1.20289">
        <ele>8.6</ele>
        <time>2023-05-17T23:26:36Z</time>
      </trkpt>
      <trkpt lat="49.31345" lon="-1.2032">
        <ele>9.1</ele>
        <time>2023-05-17T23:26:39Z</time>
      </trkpt>
      <trkpt lat="49.31341" lon="-1.20354">
        <ele>9.6</ele>
        <time>2023-05-17T23:26:43Z</time>
      </trkpt>
      <trkpt lat="49.31334" lon="-1.20389">
        <ele>9.9</ele>
        <time>2023-05-17T23:26:47Z</time>
      </trkpt>
      <trkpt lat="49.31332" lon="-1.20418">
        <ele>9.8</ele>
        <time>2023-05-17T23:26:50Z</time>
      </trkpt>
      <trkpt lat="49.31335" lon="-1.20452">
        <ele>9.6</ele>
        <time>2023-05-17T23:26:53Z</time>
      </trkpt>
      <trkpt lat="49.31338" lon="-1.20486">
        <ele>9.1</ele>
        <time>2023-05-17T23:26:56Z</time>
      </trkpt>
      <trkpt lat="49.31339" lon="-1.2052">
        <ele>8.6</ele>
        <time>2023-05-17T23:26:59Z</time>
      </trkpt>
      <trkpt lat="49.31342" lon="-1.20553">
        <ele>8.2</ele>
        <time>2023-05-17T23:27:02Z</time>
      </trkpt>
      <trkpt lat="49.31345" lon="-1.20586">
        <ele>8</ele>
        <time>2023-05-17T23:27:05Z</time>
      </trkpt>
      <trkpt lat="49.31345" lon="-1.20618">
        <ele>8</ele>
        <time>2023-05-17T23:27:08Z</time>
      </trkpt>
      <trkpt lat="49.31344" lon="-1.20655">
        <ele>8.2</ele>
        <time>2023-05-17T23:27:12Z</time>
      </trkpt>
      <trkpt lat="49.31341" lon="-1.20683">
        <ele>8.4</ele>
        <time>2023-05-17T23:27:15Z</time>
      </trkpt>
      <trkpt lat="49.31337" lon="-1.2071">
        <ele>8.7</ele>
        <time>2023-05-17T23:27:18Z</time>
      </trkpt>
      <trkpt lat="49.31333" lon="-1.20738">
        <ele>9.1</ele>
        <time>2023-05-17T23:27:21Z</time>
      </trkpt>
      <trkpt lat="49.31331" lon="-1.20766">
        <ele>9.4</ele>
        <time>2023-05-17T23:27:24Z</time>
      </trkpt>
      <trkpt lat="49.31331" lon="-1.20794">
        <ele>9.9</ele>
        <time>2023-05-17T23:27:27Z</time>
      </trkpt>
      <trkpt lat="49.31329" lon="-1.2083">
        <ele>10.1</ele>
        <time>2023-05-17T23:27:31Z</time>
      </trkpt>
      <trkpt lat="49.31334" lon="-1.20867">
        <ele>9.8</ele>
        <time>2023-05-17T23:27:35Z</time>
      </trkpt>
      <trkpt lat="49.31336" lon="-1.20898">
        <ele>9.5</ele>
        <time>2023-05-17T23:27:38Z</time>
      </trkpt>
      <trkpt lat="49.3134" lon="-1.20931">
        <ele>9.3</ele>
        <time>2023-05-17T23:27:41Z</time>
      </trkpt>
      <trkpt lat="49.3134" lon="-1.20964">
        <ele>9.2</ele>
        <time>2023-05-17T23:27:44Z</time>
      </trkpt>
      <trkpt lat="49.31341" lon="-1.20995">
        <ele>9.3</ele>
        <time>2023-05-17T23:27:47Z</time>
      </trkpt>
      <trkpt lat="49.31339" lon="-1.21026">
        <ele>9.4</ele>
        <time>2023-05-17T23:27:50Z</time>
      </trkpt>
      <trkpt lat="49.31332" lon="-1.21053">
        <ele>9.7</ele>
        <time>2023-05-17T23:27:53Z</time>
      </trkpt>
      <trkpt lat="49.31322" lon="-1.21082">
        <ele>10.1</ele>
        <time>2023-05-17T23:27:57Z</time>
      </trkpt>
      <trkpt lat="49.31308" lon="-1.2111">
        <ele>10.7</ele>
        <time>2023-05-17T23:28:01Z</time>
      </trkpt>
      <trkpt lat="49.31295" lon="-1.2114">
        <ele>11.2</ele>
        <time>2023-05-17T23:28:05Z</time>
      </trkpt>
      <trkpt lat="49.31281" lon="-1.21169">
        <ele>11.5</ele>
        <time>2023-05-17T23:28:09Z</time>
      </trkpt>
      <trkpt lat="49.3127" lon="-1.21192">
        <ele>11.6</ele>
        <time>2023-05-17T23:28:12Z</time>
      </trkpt>
      <trkpt lat="49.31257" lon="-1.21221">
        <ele>11.8</ele>
        <time>2023-05-17T23:28:16Z</time>
      </trkpt>
      <trkpt lat="49.31244" lon="-1.21253">
        <ele>11.9</ele>
        <time>2023-05-17T23:28:20Z</time>
      </trkpt>
      <trkpt lat="49.31234" lon="-1.21277">
        <ele>11.9</ele>
        <time>2023-05-17T23:28:23Z</time>
      </trkpt>
      <trkpt lat="49.31223" lon="-1.21302">
        <ele>11.7</ele>
        <time>2023-05-17T23:28:26Z</time>
      </trkpt>
      <trkpt lat="49.31211" lon="-1.21328">
        <ele>11.5</ele>
        <time>2023-05-17T23:28:29Z</time>
      </trkpt>
      <trkpt lat="49.31201" lon="-1.21351">
        <ele>11.4</ele>
        <time>2023-05-17T23:28:32Z</time>
      </trkpt>
      <trkpt lat="49.3119" lon="-1.21374">
        <ele>11.1</ele>
        <time>2023-05-17T23:28:35Z</time>
      </trkpt>
      <trkpt lat="49.31179" lon="-1.21398">
        <ele>10.8</ele>
        <time>2023-05-17T23:28:38Z</time>
      </trkpt>
      <trkpt lat="49.31168" lon="-1.21424">
        <ele>10.5</ele>
        <time>2023-05-17T23:28:41Z</time>
      </trkpt>
      <trkpt lat="49.31156" lon="-1.21451">
        <ele>10.1</ele>
        <time>2023-05-17T23:28:44Z</time>
      </trkpt>
      <trkpt lat="49.31146" lon="-1.21477">
        <ele>9.7</ele>
        <time>2023-05-17T23:28:47Z</time>
      </trkpt>
      <trkpt lat="49.31134" lon="-1.21505">
        <ele>9.3</ele>
        <time>2023-05-17T23:28:50Z</time>
      </trkpt>
      <trkpt lat="49.31122" lon="-1.21529">
        <ele>9.2</ele>
        <time>2023-05-17T23:28:53Z</time>
      </trkpt>
      <trkpt lat="49.31112" lon="-1.21552">
        <ele>9.2</ele>
        <time>2023-05-17T23:28:56Z</time>
      </trkpt>
      <trkpt lat="49.311" lon="-1.21577">
        <ele>9.1</ele>
        <time>2023-05-17T23:28:59Z</time>
      </trkpt>
      <trkpt lat="49.31088" lon="-1.21602">
        <ele>9.2</ele>
        <time>2023-05-17T23:29:02Z</time>
      </trkpt>
      <trkpt lat="49.31073" lon="-1.21626">
        <ele>9.3</ele>
        <time>2023-05-17T23:29:05Z</time>
      </trkpt>
      <trkpt lat="49.3106" lon="-1.21652">
        <ele>9.5</ele>
        <time>2023-05-17T23:29:08Z</time>
      </trkpt>
      <trkpt lat="49.31044" lon="-1.21675">
        <ele>9.7</ele>
        <time>2023-05-17T23:29:11Z</time>
      </trkpt>
      <trkpt lat="49.31028" lon="-1.21693">
        <ele>10</ele>
        <time>2023-05-17T23:29:14Z</time>
      </trkpt>
      <trkpt lat="49.31012" lon="-1.2171">
        <ele>10.4</ele>
        <time>2023-05-17T23:29:17Z</time>
      </trkpt>
      <trkpt lat="49.30993" lon="-1.21729">
        <ele>10.8</ele>
        <time>2023-05-17T23:29:21Z</time>
      </trkpt>
      <trkpt lat="49.30973" lon="-1.21746">
        <ele>11.4</ele>
        <time>2023-05-17T23:29:25Z</time>
      </trkpt>
      <trkpt lat="49.30955" lon="-1.21764">
        <ele>12.1</ele>
        <time>2023-05-17T23:29:29Z</time>
      </trkpt>
      <trkpt lat="49.30939" lon="-1.21781">
        <ele>12.8</ele>
        <time>2023-05-17T23:29:33Z</time>
      </trkpt>
      <trkpt lat="49.30924" lon="-1.218">
        <ele>13.3</ele>
        <time>2023-05-17T23:29:37Z</time>
      </trkpt>
      <trkpt lat="49.30909" lon="-1.21819">
        <ele>13.9</ele>
        <time>2023-05-17T23:29:41Z</time>
      </trkpt>
      <trkpt lat="49.30896" lon="-1.21837">
        <ele>14.5</ele>
        <time>2023-05-17T23:29:45Z</time>
      </trkpt>
      <trkpt lat="49.30882" lon="-1.21857">
        <ele>15.1</ele>
        <time>2023-05-17T23:29:49Z</time>
      </trkpt>
      <trkpt lat="49.30867" lon="-1.21878">
        <ele>15.7</ele>
        <time>2023-05-17T23:29:53Z</time>
      </trkpt>
      <trkpt lat="49.30853" lon="-1.21901">
        <ele>15.9</ele>
        <time>2023-05-17T23:29:57Z</time>
      </trkpt>
      <trkpt lat="49.30838" lon="-1.21924">
        <ele>16</ele>
        <time>2023-05-17T23:30:01Z</time>
      </trkpt>
      <trkpt lat="49.30821" lon="-1.21949">
        <ele>15.6</ele>
        <time>2023-05-17T23:30:05Z</time>
      </trkpt>
      <trkpt lat="49.30806" lon="-1.21972">
        <ele>14.9</ele>
        <time>2023-05-17T23:30:08Z</time>
      </trkpt>
      <trkpt lat="49.3079" lon="-1.21995">
        <ele>14.1</ele>
        <time>2023-05-17T23:30:11Z</time>
      </trkpt>
      <trkpt lat="49.30774" lon="-1.22019">
        <ele>13.2</ele>
        <time>2023-05-17T23:30:14Z</time>
      </trkpt>
      <trkpt lat="49.30757" lon="-1.22045">
        <ele>12.3</ele>
        <time>2023-05-17T23:30:17Z</time>
      </trkpt>
      <trkpt lat="49.30739" lon="-1.22071">
        <ele>11.3</ele>
        <time>2023-05-17T23:30:20Z</time>
      </trkpt>
      <trkpt lat="49.30724" lon="-1.2209">
        <ele>10.5</ele>
        <time>2023-05-17T23:30:22Z</time>
      </trkpt>
      <trkpt lat="49.30709" lon="-1.22117">
        <ele>9.6</ele>
        <time>2023-05-17T23:30:25Z</time>
      </trkpt>
      <trkpt lat="49.3069" lon="-1.22144">
        <ele>8.7</ele>
        <time>2023-05-17T23:30:28Z</time>
      </trkpt>
      <trkpt lat="49.3067" lon="-1.22171">
        <ele>7.6</ele>
        <time>2023-05-17T23:30:31Z</time>
      </trkpt>
      <trkpt lat="49.30649" lon="-1.22194">
        <ele>6.7</ele>
        <time>2023-05-17T23:30:34Z</time>
      </trkpt>
      <trkpt lat="49.30635" lon="-1.22213">
        <ele>6.3</ele>
        <time>2023-05-17T23:30:36Z</time>
      </trkpt>
      <trkpt lat="49.3062" lon="-1.22244">
        <ele>6.1</ele>
        <time>2023-05-17T23:30:39Z</time>
      </trkpt>
      <trkpt lat="49.30607" lon="-1.22277">
        <ele>6.1</ele>
        <time>2023-05-17T23:30:42Z</time>
      </trkpt>
      <trkpt lat="49.30596" lon="-1.22306">
        <ele>6.4</ele>
        <time>2023-05-17T23:30:45Z</time>
      </trkpt>
      <trkpt lat="49.30588" lon="-1.22337">
        <ele>6.9</ele>
        <time>2023-05-17T23:30:48Z</time>
      </trkpt>
      <trkpt lat="49.30583" lon="-1.22366">
        <ele>7.7</ele>
        <time>2023-05-17T23:30:51Z</time>
      </trkpt>
      <trkpt lat="49.30576" lon="-1.22399">
        <ele>8.7</ele>
        <time>2023-05-17T23:30:55Z</time>
      </trkpt>
      <trkpt lat="49.30569" lon="-1.2243">
        <ele>9.4</ele>
        <time>2023-05-17T23:30:59Z</time>
      </trkpt>
      <trkpt lat="49.30564" lon="-1.22459">
        <ele>9.8</ele>
        <time>2023-05-17T23:31:03Z</time>
      </trkpt>
      <trkpt lat="49.30557" lon="-1.22494">
        <ele>9.9</ele>
        <time>2023-05-17T23:31:07Z</time>
      </trkpt>
      <trkpt lat="49.30552" lon="-1.22521">
        <ele>10.1</ele>
        <time>2023-05-17T23:31:10Z</time>
      </trkpt>
      <trkpt lat="49.30547" lon="-1.22549">
        <ele>10.3</ele>
        <time>2023-05-17T23:31:13Z</time>
      </trkpt>
      <trkpt lat="49.30541" lon="-1.22576">
        <ele>10.4</ele>
        <time>2023-05-17T23:31:16Z</time>
      </trkpt>
      <trkpt lat="49.30533" lon="-1.2261">
        <ele>10.5</ele>
        <time>2023-05-17T23:31:20Z</time>
      </trkpt>
      <trkpt lat="49.30523" lon="-1.22637">
        <ele>10.5</ele>
        <time>2023-05-17T23:31:23Z</time>
      </trkpt>
      <trkpt lat="49.30512" lon="-1.2266">
        <ele>10.4</ele>
        <time>2023-05-17T23:31:26Z</time>
      </trkpt>
      <trkpt lat="49.30501" lon="-1.22683">
        <ele>10.2</ele>
        <time>2023-05-17T23:31:29Z</time>
      </trkpt>
      <trkpt lat="49.30487" lon="-1.22704">
        <ele>10.1</ele>
        <time>2023-05-17T23:31:32Z</time>
      </trkpt>
      <trkpt lat="49.30472" lon="-1.22725">
        <ele>10.1</ele>
        <time>2023-05-17T23:31:35Z</time>
      </trkpt>
      <trkpt lat="49.30458" lon="-1.22745">
        <ele>10.2</ele>
        <time>2023-05-17T23:31:38Z</time>
      </trkpt>
      <trkpt lat="49.30443" lon="-1.22764">
        <ele>10.2</ele>
        <time>2023-05-17T23:31:41Z</time>
      </trkpt>
      <trkpt lat="49.30429" lon="-1.22784">
        <ele>10.1</ele>
        <time>2023-05-17T23:31:44Z</time>
      </trkpt>
      <trkpt lat="49.30415" lon="-1.22805">
        <ele>9.8</ele>
        <time>2023-05-17T23:31:47Z</time>
      </trkpt>
      <trkpt lat="49.304" lon="-1.22826">
        <ele>9.3</ele>
        <time>2023-05-17T23:31:50Z</time>
      </trkpt>
      <trkpt lat="49.30385" lon="-1.22849">
        <ele>8.8</ele>
        <time>2023-05-17T23:31:53Z</time>
      </trkpt>
      <trkpt lat="49.3037" lon="-1.22871">
        <ele>8.3</ele>
        <time>2023-05-17T23:31:56Z</time>
      </trkpt>
      <trkpt lat="49.30353" lon="-1.22894">
        <ele>7.9</ele>
        <time>2023-05-17T23:31:59Z</time>
      </trkpt>
      <trkpt lat="49.30338" lon="-1.22916">
        <ele>7.4</ele>
        <time>2023-05-17T23:32:02Z</time>
      </trkpt>
      <trkpt lat="49.30323" lon="-1.22934">
        <ele>7</ele>
        <time>2023-05-17T23:32:05Z</time>
      </trkpt>
      <trkpt lat="49.30304" lon="-1.22956">
        <ele>6.5</ele>
        <time>2023-05-17T23:32:09Z</time>
      </trkpt>
      <trkpt lat="49.30301" lon="-1.22992">
        <ele>5.5</ele>
        <time>2023-05-17T23:32:13Z</time>
      </trkpt>
      <trkpt lat="49.30302" lon="-1.23025">
        <ele>4.8</ele>
        <time>2023-05-17T23:32:16Z</time>
      </trkpt>
      <trkpt lat="49.30301" lon="-1.23061">
        <ele>4.4</ele>
        <time>2023-05-17T23:32:19Z</time>
      </trkpt>
      <trkpt lat="49.30297" lon="-1.23094">
        <ele>4.3</ele>
        <time>2023-05-17T23:32:22Z</time>
      </trkpt>
      <trkpt lat="49.30297" lon="-1.23128">
        <ele>3.8</ele>
        <time>2023-05-17T23:32:25Z</time>
      </trkpt>
      <trkpt lat="49.30291" lon="-1.23158">
        <ele>3.5</ele>
        <time>2023-05-17T23:32:28Z</time>
      </trkpt>
      <trkpt lat="49.30281" lon="-1.23189">
        <ele>3.1</ele>
        <time>2023-05-17T23:32:31Z</time>
      </trkpt>
      <trkpt lat="49.30276" lon="-1.23224">
        <ele>2.8</ele>
        <time>2023-05-17T23:32:34Z</time>
      </trkpt>
      <trkpt lat="49.30271" lon="-1.23257">
        <ele>2.7</ele>
        <time>2023-05-17T23:32:37Z</time>
      </trkpt>
      <trkpt lat="49.30263" lon="-1.23289">
        <ele>2.9</ele>
        <time>2023-05-17T23:32:40Z</time>
      </trkpt>
      <trkpt lat="49.30256" lon="-1.2332">
        <ele>3.3</ele>
        <time>2023-05-17T23:32:43Z</time>
      </trkpt>
      <trkpt lat="49.30251" lon="-1.2335">
        <ele>3.4</ele>
        <time>2023-05-17T23:32:46Z</time>
      </trkpt>
      <trkpt lat="49.30247" lon="-1.23378">
        <ele>3.6</ele>
        <time>2023-05-17T23:32:49Z</time>
      </trkpt>
      <trkpt lat="49.30243" lon="-1.23406">
        <ele>3.7</ele>
        <time>2023-05-17T23:32:52Z</time>
      </trkpt>
      <trkpt lat="49.30237" lon="-1.23441">
        <ele>3.7</ele>
        <time>2023-05-17T23:32:56Z</time>
      </trkpt>
      <trkpt lat="49.30233" lon="-1.23469">
        <ele>3.6</ele>
        <time>2023-05-17T23:32:59Z</time>
      </trkpt>
      <trkpt lat="49.30229" lon="-1.23498">
        <ele>3.4</ele>
        <time>2023-05-17T23:33:02Z</time>
      </trkpt>
      <trkpt lat="49.30225" lon="-1.2353">
        <ele>3.2</ele>
        <time>2023-05-17T23:33:05Z</time>
      </trkpt>
      <trkpt lat="49.30221" lon="-1.23562">
        <ele>3</ele>
        <time>2023-05-17T23:33:08Z</time>
      </trkpt>
      <trkpt lat="49.30219" lon="-1.23596">
        <ele>2.6</ele>
        <time>2023-05-17T23:33:11Z</time>
      </trkpt>
      <trkpt lat="49.30216" lon="-1.23631">
        <ele>2.4</ele>
        <time>2023-05-17T23:33:14Z</time>
      </trkpt>
      <trkpt lat="49.30214" lon="-1.23665">
        <ele>2.2</ele>
        <time>2023-05-17T23:33:17Z</time>
      </trkpt>
      <trkpt lat="49.30213" lon="-1.23698">
        <ele>2.1</ele>
        <time>2023-05-17T23:33:20Z</time>
      </trkpt>
      <trkpt lat="49.30213" lon="-1.2373">
        <ele>2.1</ele>
        <time>2023-05-17T23:33:23Z</time>
      </trkpt>
      <trkpt lat="49.30213" lon="-1.23762">
        <ele>2.1</ele>
        <time>2023-05-17T23:33:26Z</time>
      </trkpt>
      <trkpt lat="49.30213" lon="-1.23794">
        <ele>2.2</ele>
        <time>2023-05-17T23:33:29Z</time>
      </trkpt>
      <trkpt lat="49.30214" lon="-1.23825">
        <ele>2.3</ele>
        <time>2023-05-17T23:33:32Z</time>
      </trkpt>
      <trkpt lat="49.30215" lon="-1.23856">
        <ele>2.4</ele>
        <time>2023-05-17T23:33:35Z</time>
      </trkpt>
      <trkpt lat="49.30217" lon="-1.23887">
        <ele>2.5</ele>
        <time>2023-05-17T23:33:38Z</time>
      </trkpt>
      <trkpt lat="49.30218" lon="-1.23918">
        <ele>2.6</ele>
        <time>2023-05-17T23:33:41Z</time>
      </trkpt>
      <trkpt lat="49.30219" lon="-1.23949">
        <ele>2.7</ele>
        <time>2023-05-17T23:33:44Z</time>
      </trkpt>
      <trkpt lat="49.30221" lon="-1.23981">
        <ele>2.8</ele>
        <time>2023-05-17T23:33:47Z</time>
      </trkpt>
      <trkpt lat="49.30224" lon="-1.24014">
        <ele>2.9</ele>
        <time>2023-05-17T23:33:50Z</time>
      </trkpt>
      <trkpt lat="49.30226" lon="-1.24045">
        <ele>3</ele>
        <time>2023-05-17T23:33:53Z</time>
      </trkpt>
      <trkpt lat="49.30227" lon="-1.24076">
        <ele>3.2</ele>
        <time>2023-05-17T23:33:56Z</time>
      </trkpt>
      <trkpt lat="49.30231" lon="-1.24106">
        <ele>3.4</ele>
        <time>2023-05-17T23:33:59Z</time>
      </trkpt>
      <trkpt lat="49.30234" lon="-1.24137">
        <ele>3.6</ele>
        <time>2023-05-17T23:34:02Z</time>
      </trkpt>
      <trkpt lat="49.30236" lon="-1.24168">
        <ele>3.7</ele>
        <time>2023-05-17T23:34:05Z</time>
      </trkpt>
      <trkpt lat="49.30238" lon="-1.24198">
        <ele>3.9</ele>
        <time>2023-05-17T23:34:08Z</time>
      </trkpt>
      <trkpt lat="49.30241" lon="-1.24225">
        <ele>3.9</ele>
        <time>2023-05-17T23:34:11Z</time>
      </trkpt>
      <trkpt lat="49.30244" lon="-1.24261">
        <ele>4</ele>
        <time>2023-05-17T23:34:15Z</time>
      </trkpt>
      <trkpt lat="49.30249" lon="-1.24294">
        <ele>4.2</ele>
        <time>2023-05-17T23:34:19Z</time>
      </trkpt>
      <trkpt lat="49.30251" lon="-1.24327">
        <ele>4.6</ele>
        <time>2023-05-17T23:34:23Z</time>
      </trkpt>
      <trkpt lat="49.30255" lon="-1.24359">
        <ele>4.8</ele>
        <time>2023-05-17T23:34:27Z</time>
      </trkpt>
      <trkpt lat="49.30259" lon="-1.24393">
        <ele>4.9</ele>
        <time>2023-05-17T23:34:31Z</time>
      </trkpt>
      <trkpt lat="49.30261" lon="-1.24427">
        <ele>5.2</ele>
        <time>2023-05-17T23:34:35Z</time>
      </trkpt>
      <trkpt lat="49.30263" lon="-1.24459">
        <ele>5.6</ele>
        <time>2023-05-17T23:34:39Z</time>
      </trkpt>
      <trkpt lat="49.30269" lon="-1.24488">
        <ele>5.8</ele>
        <time>2023-05-17T23:34:43Z</time>
      </trkpt>
      <trkpt lat="49.30272" lon="-1.2452">
        <ele>5.8</ele>
        <time>2023-05-17T23:34:47Z</time>
      </trkpt>
      <trkpt lat="49.30275" lon="-1.24552">
        <ele>6.1</ele>
        <time>2023-05-17T23:34:52Z</time>
      </trkpt>
      <trkpt lat="49.30277" lon="-1.24586">
        <ele>6.3</ele>
        <time>2023-05-17T23:34:57Z</time>
      </trkpt>
      <trkpt lat="49.30281" lon="-1.24617">
        <ele>6.4</ele>
        <time>2023-05-17T23:35:01Z</time>
      </trkpt>
      <trkpt lat="49.30286" lon="-1.24649">
        <ele>6.4</ele>
        <time>2023-05-17T23:35:05Z</time>
      </trkpt>
      <trkpt lat="49.30291" lon="-1.24679">
        <ele>6.4</ele>
        <time>2023-05-17T23:35:09Z</time>
      </trkpt>
      <trkpt lat="49.30299" lon="-1.24706">
        <ele>6.4</ele>
        <time>2023-05-17T23:35:13Z</time>
      </trkpt>
      <trkpt lat="49.30308" lon="-1.24734">
        <ele>6.5</ele>
        <time>2023-05-17T23:35:17Z</time>
      </trkpt>
      <trkpt lat="49.30319" lon="-1.24762">
        <ele>6.5</ele>
        <time>2023-05-17T23:35:21Z</time>
      </trkpt>
      <trkpt lat="49.30331" lon="-1.24789">
        <ele>6.5</ele>
        <time>2023-05-17T23:35:25Z</time>
      </trkpt>
      <trkpt lat="49.30344" lon="-1.24817">
        <ele>6.6</ele>
        <time>2023-05-17T23:35:29Z</time>
      </trkpt>
      <trkpt lat="49.30356" lon="-1.24842">
        <ele>6.7</ele>
        <time>2023-05-17T23:35:33Z</time>
      </trkpt>
      <trkpt lat="49.30368" lon="-1.24867">
        <ele>6.8</ele>
        <time>2023-05-17T23:35:37Z</time>
      </trkpt>
      <trkpt lat="49.30382" lon="-1.24893">
        <ele>7</ele>
        <time>2023-05-17T23:35:41Z</time>
      </trkpt>
      <trkpt lat="49.30393" lon="-1.24919">
        <ele>7.2</ele>
        <time>2023-05-17T23:35:45Z</time>
      </trkpt>
      <trkpt lat="49.30404" lon="-1.24943">
        <ele>7.4</ele>
        <time>2023-05-17T23:35:49Z</time>
      </trkpt>
      <trkpt lat="49.30418" lon="-1.24967">
        <ele>7.4</ele>
        <time>2023-05-17T23:35:54Z</time>
      </trkpt>
      <trkpt lat="49.30428" lon="-1.2499">
        <ele>7.5</ele>
        <time>2023-05-17T23:35:59Z</time>
      </trkpt>
      <trkpt lat="49.30445" lon="-1.25013">
        <ele>7.5</ele>
        <time>2023-05-17T23:36:04Z</time>
      </trkpt>
      <trkpt lat="49.30461" lon="-1.25037">
        <ele>7.2</ele>
        <time>2023-05-17T23:36:08Z</time>
      </trkpt>
      <trkpt lat="49.30479" lon="-1.25061">
        <ele>6.9</ele>
        <time>2023-05-17T23:36:12Z</time>
      </trkpt>
      <trkpt lat="49.30499" lon="-1.25082">
        <ele>6.6</ele>
        <time>2023-05-17T23:36:16Z</time>
      </trkpt>
      <trkpt lat="49.30518" lon="-1.25101">
        <ele>6.2</ele>
        <time>2023-05-17T23:36:20Z</time>
      </trkpt>
      <trkpt lat="49.30539" lon="-1.2512">
        <ele>5.7</ele>
        <time>2023-05-17T23:36:24Z</time>
      </trkpt>
      <trkpt lat="49.30555" lon="-1.25134">
        <ele>5.5</ele>
        <time>2023-05-17T23:36:27Z</time>
      </trkpt>
      <trkpt lat="49.30576" lon="-1.25152">
        <ele>5.2</ele>
        <time>2023-05-17T23:36:31Z</time>
      </trkpt>
      <trkpt lat="49.30591" lon="-1.25166">
        <ele>5</ele>
        <time>2023-05-17T23:36:34Z</time>
      </trkpt>
      <trkpt lat="49.30608" lon="-1.2518">
        <ele>4.8</ele>
        <time>2023-05-17T23:36:37Z</time>
      </trkpt>
      <trkpt lat="49.30624" lon="-1.25195">
        <ele>4.6</ele>
        <time>2023-05-17T23:36:40Z</time>
      </trkpt>
      <trkpt lat="49.30641" lon="-1.25211">
        <ele>4.4</ele>
        <time>2023-05-17T23:36:43Z</time>
      </trkpt>
      <trkpt lat="49.30658" lon="-1.25227">
        <ele>4.1</ele>
        <time>2023-05-17T23:36:46Z</time>
      </trkpt>
      <trkpt lat="49.30674" lon="-1.25242">
        <ele>4</ele>
        <time>2023-05-17T23:36:49Z</time>
      </trkpt>
      <trkpt lat="49.3069" lon="-1.25255">
        <ele>3.9</ele>
        <time>2023-05-17T23:36:52Z</time>
      </trkpt>
      <trkpt lat="49.30707" lon="-1.2527">
        <ele>3.8</ele>
        <time>2023-05-17T23:36:55Z</time>
      </trkpt>
      <trkpt lat="49.30724" lon="-1.25284">
        <ele>3.7</ele>
        <time>2023-05-17T23:36:58Z</time>
      </trkpt>
      <trkpt lat="49.3074" lon="-1.253">
        <ele>3.7</ele>
        <time>2023-05-17T23:37:01Z</time>
      </trkpt>
      <trkpt lat="49.30761" lon="-1.25319">
        <ele>3.7</ele>
        <time>2023-05-17T23:37:05Z</time>
      </trkpt>
      <trkpt lat="49.3078" lon="-1.25337">
        <ele>3.6</ele>
        <time>2023-05-17T23:37:09Z</time>
      </trkpt>
      <trkpt lat="49.30799" lon="-1.25355">
        <ele>3.5</ele>
        <time>2023-05-17T23:37:13Z</time>
      </trkpt>
      <trkpt lat="49.30817" lon="-1.25372">
        <ele>3.5</ele>
        <time>2023-05-17T23:37:17Z</time>
      </trkpt>
      <trkpt lat="49.30836" lon="-1.25389">
        <ele>3.5</ele>
        <time>2023-05-17T23:37:21Z</time>
      </trkpt>
      <trkpt lat="49.30856" lon="-1.25406">
        <ele>3.5</ele>
        <time>2023-05-17T23:37:25Z</time>
      </trkpt>
      <trkpt lat="49.30876" lon="-1.25423">
        <ele>3.4</ele>
        <time>2023-05-17T23:37:29Z</time>
      </trkpt>
      <trkpt lat="49.30895" lon="-1.25441">
        <ele>3.4</ele>
        <time>2023-05-17T23:37:33Z</time>
      </trkpt>
      <trkpt lat="49.30915" lon="-1.25459">
        <ele>3.4</ele>
        <time>2023-05-17T23:37:37Z</time>
      </trkpt>
      <trkpt lat="49.30935" lon="-1.25476">
        <ele>3.4</ele>
        <time>2023-05-17T23:37:41Z</time>
      </trkpt>
      <trkpt lat="49.30955" lon="-1.25494">
        <ele>3.3</ele>
        <time>2023-05-17T23:37:45Z</time>
      </trkpt>
      <trkpt lat="49.30971" lon="-1.25508">
        <ele>3.3</ele>
        <time>2023-05-17T23:37:48Z</time>
      </trkpt>
      <trkpt lat="49.30988" lon="-1.25523">
        <ele>3.2</ele>
        <time>2023-05-17T23:37:51Z</time>
      </trkpt>
      <trkpt lat="49.31003" lon="-1.25537">
        <ele>3.1</ele>
        <time>2023-05-17T23:37:54Z</time>
      </trkpt>
      <trkpt lat="49.3102" lon="-1.25552">
        <ele>3.1</ele>
        <time>2023-05-17T23:37:57Z</time>
      </trkpt>
      <trkpt lat="49.31036" lon="-1.25566">
        <ele>3.1</ele>
        <time>2023-05-17T23:38:00Z</time>
      </trkpt>
      <trkpt lat="49.31052" lon="-1.2558">
        <ele>3.1</ele>
        <time>2023-05-17T23:38:03Z</time>
      </trkpt>
      <trkpt lat="49.31069" lon="-1.25595">
        <ele>3</ele>
        <time>2023-05-17T23:38:06Z</time>
      </trkpt>
      <trkpt lat="49.31085" lon="-1.2561">
        <ele>3</ele>
        <time>2023-05-17T23:38:09Z</time>
      </trkpt>
      <trkpt lat="49.31102" lon="-1.25625">
        <ele>3</ele>
        <time>2023-05-17T23:38:12Z</time>
      </trkpt>
      <trkpt lat="49.31118" lon="-1.2564">
        <ele>2.9</ele>
        <time>2023-05-17T23:38:15Z</time>
      </trkpt>
      <trkpt lat="49.31134" lon="-1.25655">
        <ele>2.9</ele>
        <time>2023-05-17T23:38:18Z</time>
      </trkpt>
      <trkpt lat="49.31151" lon="-1.2567">
        <ele>2.9</ele>
        <time>2023-05-17T23:38:21Z</time>
      </trkpt>
      <trkpt lat="49.31168" lon="-1.25685">
        <ele>2.9</ele>
        <time>2023-05-17T23:38:24Z</time>
      </trkpt>
      <trkpt lat="49.31184" lon="-1.25699">
        <ele>2.9</ele>
        <time>2023-05-17T23:38:27Z</time>
      </trkpt>
      <trkpt lat="49.312" lon="-1.25714">
        <ele>2.9</ele>
        <time>2023-05-17T23:38:30Z</time>
      </trkpt>
      <trkpt lat="49.31218" lon="-1.25725">
        <ele>2.9</ele>
        <time>2023-05-17T23:38:33Z</time>
      </trkpt>
      <trkpt lat="49.31236" lon="-1.25736">
        <ele>3</ele>
        <time>2023-05-17T23:38:36Z</time>
      </trkpt>
      <trkpt lat="49.3125" lon="-1.25755">
        <ele>3</ele>
        <time>2023-05-17T23:38:39Z</time>
      </trkpt>
      <trkpt lat="49.31266" lon="-1.25773">
        <ele>2.9</ele>
        <time>2023-05-17T23:38:42Z</time>
      </trkpt>
      <trkpt lat="49.31283" lon="-1.25789">
        <ele>2.8</ele>
        <time>2023-05-17T23:38:45Z</time>
      </trkpt>
      <trkpt lat="49.31302" lon="-1.25806">
        <ele>2.8</ele>
        <time>2023-05-17T23:38:48Z</time>
      </trkpt>
      <trkpt lat="49.31321" lon="-1.25823">
        <ele>2.8</ele>
        <time>2023-05-17T23:38:51Z</time>
      </trkpt>
      <trkpt lat="49.31338" lon="-1.25839">
        <ele>2.8</ele>
        <time>2023-05-17T23:38:54Z</time>
      </trkpt>
      <trkpt lat="49.31354" lon="-1.25856">
        <ele>2.9</ele>
        <time>2023-05-17T23:38:57Z</time>
      </trkpt>
      <trkpt lat="49.3137" lon="-1.2587">
        <ele>2.8</ele>
        <time>2023-05-17T23:39:00Z</time>
      </trkpt>
      <trkpt lat="49.31391" lon="-1.25878">
        <ele>2.9</ele>
        <time>2023-05-17T23:39:04Z</time>
      </trkpt>
      <trkpt lat="49.31411" lon="-1.2587">
        <ele>3.1</ele>
        <time>2023-05-17T23:39:08Z</time>
      </trkpt>
      <trkpt lat="49.31431" lon="-1.25874">
        <ele>3.3</ele>
        <time>2023-05-17T23:39:12Z</time>
      </trkpt>
      <trkpt lat="49.31445" lon="-1.25898">
        <ele>3.5</ele>
        <time>2023-05-17T23:39:16Z</time>
      </trkpt>
      <trkpt lat="49.31451" lon="-1.25924">
        <ele>3.5</ele>
        <time>2023-05-17T23:39:19Z</time>
      </trkpt>
      <trkpt lat="49.31465" lon="-1.25946">
        <ele>3.4</ele>
        <time>2023-05-17T23:39:22Z</time>
      </trkpt>
      <trkpt lat="49.31483" lon="-1.25964">
        <ele>3.3</ele>
        <time>2023-05-17T23:39:25Z</time>
      </trkpt>
      <trkpt lat="49.315" lon="-1.25981">
        <ele>3.2</ele>
        <time>2023-05-17T23:39:28Z</time>
      </trkpt>
      <trkpt lat="49.31517" lon="-1.25999">
        <ele>3.2</ele>
        <time>2023-05-17T23:39:31Z</time>
      </trkpt>
      <trkpt lat="49.31535" lon="-1.26017">
        <ele>3.2</ele>
        <time>2023-05-17T23:39:34Z</time>
      </trkpt>
      <trkpt lat="49.31553" lon="-1.26032">
        <ele>3.1</ele>
        <time>2023-05-17T23:39:37Z</time>
      </trkpt>
      <trkpt lat="49.3157" lon="-1.26046">
        <ele>3.1</ele>
        <time>2023-05-17T23:39:40Z</time>
      </trkpt>
      <trkpt lat="49.31588" lon="-1.26062">
        <ele>3</ele>
        <time>2023-05-17T23:39:43Z</time>
      </trkpt>
      <trkpt lat="49.31604" lon="-1.26077">
        <ele>2.9</ele>
        <time>2023-05-17T23:39:46Z</time>
      </trkpt>
      <trkpt lat="49.31622" lon="-1.26093">
        <ele>2.9</ele>
        <time>2023-05-17T23:39:49Z</time>
      </trkpt>
      <trkpt lat="49.31639" lon="-1.26108">
        <ele>3</ele>
        <time>2023-05-17T23:39:52Z</time>
      </trkpt>
      <trkpt lat="49.31656" lon="-1.26123">
        <ele>3</ele>
        <time>2023-05-17T23:39:55Z</time>
      </trkpt>
      <trkpt lat="49.31673" lon="-1.26139">
        <ele>3</ele>
        <time>2023-05-17T23:39:58Z</time>
      </trkpt>
      <trkpt lat="49.3169" lon="-1.26154">
        <ele>3</ele>
        <time>2023-05-17T23:40:01Z</time>
      </trkpt>
      <trkpt lat="49.31707" lon="-1.26169">
        <ele>3</ele>
        <time>2023-05-17T23:40:04Z</time>
      </trkpt>
      <trkpt lat="49.31724" lon="-1.26184">
        <ele>3</ele>
        <time>2023-05-17T23:40:07Z</time>
      </trkpt>
      <trkpt lat="49.31741" lon="-1.262">
        <ele>3.1</ele>
        <time>2023-05-17T23:40:10Z</time>
      </trkpt>
      <trkpt lat="49.31758" lon="-1.26215">
        <ele>3.2</ele>
        <time>2023-05-17T23:40:13Z</time>
      </trkpt>
      <trkpt lat="49.31774" lon="-1.26229">
        <ele>3.4</ele>
        <time>2023-05-17T23:40:16Z</time>
      </trkpt>
      <trkpt lat="49.31791" lon="-1.26243">
        <ele>3.5</ele>
        <time>2023-05-17T23:40:19Z</time>
      </trkpt>
      <trkpt lat="49.31807" lon="-1.2626">
        <ele>3.6</ele>
        <time>2023-05-17T23:40:22Z</time>
      </trkpt>
      <trkpt lat="49.31828" lon="-1.26278">
        <ele>3.6</ele>
        <time>2023-05-17T23:40:26Z</time>
      </trkpt>
      <trkpt lat="49.31843" lon="-1.26292">
        <ele>3.7</ele>
        <time>2023-05-17T23:40:29Z</time>
      </trkpt>
      <trkpt lat="49.3186" lon="-1.26305">
        <ele>3.8</ele>
        <time>2023-05-17T23:40:32Z</time>
      </trkpt>
      <trkpt lat="49.31876" lon="-1.26318">
        <ele>3.8</ele>
        <time>2023-05-17T23:40:35Z</time>
      </trkpt>
      <trkpt lat="49.31894" lon="-1.26331">
        <ele>3.9</ele>
        <time>2023-05-17T23:40:38Z</time>
      </trkpt>
      <trkpt lat="49.31911" lon="-1.26343">
        <ele>3.9</ele>
        <time>2023-05-17T23:40:41Z</time>
      </trkpt>
      <trkpt lat="49.31928" lon="-1.26355">
        <ele>3.9</ele>
        <time>2023-05-17T23:40:44Z</time>
      </trkpt>
      <trkpt lat="49.31945" lon="-1.26366">
        <ele>3.9</ele>
        <time>2023-05-17T23:40:47Z</time>
      </trkpt>
      <trkpt lat="49.31962" lon="-1.26376">
        <ele>3.8</ele>
        <time>2023-05-17T23:40:50Z</time>
      </trkpt>
      <trkpt lat="49.31981" lon="-1.2639">
        <ele>3.7</ele>
        <time>2023-05-17T23:40:53Z</time>
      </trkpt>
      <trkpt lat="49.32" lon="-1.26403">
        <ele>3.6</ele>
        <time>2023-05-17T23:40:56Z</time>
      </trkpt>
      <trkpt lat="49.32017" lon="-1.26416">
        <ele>3.5</ele>
        <time>2023-05-17T23:40:59Z</time>
      </trkpt>
      <trkpt lat="49.32034" lon="-1.2643">
        <ele>3.6</ele>
        <time>2023-05-17T23:41:02Z</time>
      </trkpt>
      <trkpt lat="49.3205" lon="-1.26444">
        <ele>3.7</ele>
        <time>2023-05-17T23:41:05Z</time>
      </trkpt>
      <trkpt lat="49.32067" lon="-1.26458">
        <ele>3.6</ele>
        <time>2023-05-17T23:41:08Z</time>
      </trkpt>
      <trkpt lat="49.32083" lon="-1.26471">
        <ele>3.6</ele>
        <time>2023-05-17T23:41:11Z</time>
      </trkpt>
      <trkpt lat="49.321" lon="-1.26485">
        <ele>3.5</ele>
        <time>2023-05-17T23:41:14Z</time>
      </trkpt>
      <trkpt lat="49.32119" lon="-1.26499">
        <ele>3.3</ele>
        <time>2023-05-17T23:41:17Z</time>
      </trkpt>
      <trkpt lat="49.32138" lon="-1.26512">
        <ele>3.2</ele>
        <time>2023-05-17T23:41:20Z</time>
      </trkpt>
      <trkpt lat="49.32157" lon="-1.26527">
        <ele>3.1</ele>
        <time>2023-05-17T23:41:23Z</time>
      </trkpt>
      <trkpt lat="49.32176" lon="-1.26542">
        <ele>3.1</ele>
        <time>2023-05-17T23:41:26Z</time>
      </trkpt>
      <trkpt lat="49.32195" lon="-1.26557">
        <ele>3</ele>
        <time>2023-05-17T23:41:29Z</time>
      </trkpt>
      <trkpt lat="49.32213" lon="-1.26572">
        <ele>2.9</ele>
        <time>2023-05-17T23:41:32Z</time>
      </trkpt>
      <trkpt lat="49.32232" lon="-1.26586">
        <ele>2.8</ele>
        <time>2023-05-17T23:41:35Z</time>
      </trkpt>
      <trkpt lat="49.3225" lon="-1.26599">
        <ele>2.7</ele>
        <time>2023-05-17T23:41:38Z</time>
      </trkpt>
      <trkpt lat="49.32269" lon="-1.26609">
        <ele>2.6</ele>
        <time>2023-05-17T23:41:41Z</time>
      </trkpt>
      <trkpt lat="49.32288" lon="-1.26619">
        <ele>2.5</ele>
        <time>2023-05-17T23:41:44Z</time>
      </trkpt>
      <trkpt lat="49.32307" lon="-1.26627">
        <ele>2.4</ele>
        <time>2023-05-17T23:41:47Z</time>
      </trkpt>
      <trkpt lat="49.32327" lon="-1.26635">
        <ele>2.3</ele>
        <time>2023-05-17T23:41:50Z</time>
      </trkpt>
      <trkpt lat="49.32346" lon="-1.26643">
        <ele>2.2</ele>
        <time>2023-05-17T23:41:53Z</time>
      </trkpt>
      <trkpt lat="49.32365" lon="-1.26653">
        <ele>2.1</ele>
        <time>2023-05-17T23:41:56Z</time>
      </trkpt>
      <trkpt lat="49.32386" lon="-1.26664">
        <ele>2</ele>
        <time>2023-05-17T23:41:59Z</time>
      </trkpt>
      <trkpt lat="49.32406" lon="-1.26675">
        <ele>2</ele>
        <time>2023-05-17T23:42:02Z</time>
      </trkpt>
      <trkpt lat="49.32426" lon="-1.26684">
        <ele>2</ele>
        <time>2023-05-17T23:42:05Z</time>
      </trkpt>
      <trkpt lat="49.32446" lon="-1.26692">
        <ele>1.9</ele>
        <time>2023-05-17T23:42:08Z</time>
      </trkpt>
      <trkpt lat="49.32466" lon="-1.267">
        <ele>1.7</ele>
        <time>2023-05-17T23:42:11Z</time>
      </trkpt>
      <trkpt lat="49.32485" lon="-1.2671">
        <ele>1.6</ele>
        <time>2023-05-17T23:42:14Z</time>
      </trkpt>
      <trkpt lat="49.32504" lon="-1.26721">
        <ele>1.5</ele>
        <time>2023-05-17T23:42:17Z</time>
      </trkpt>
      <trkpt lat="49.32524" lon="-1.2673">
        <ele>1.5</ele>
        <time>2023-05-17T23:42:20Z</time>
      </trkpt>
      <trkpt lat="49.32544" lon="-1.26738">
        <ele>1.6</ele>
        <time>2023-05-17T23:42:23Z</time>
      </trkpt>
      <trkpt lat="49.32563" lon="-1.26745">
        <ele>1.6</ele>
        <time>2023-05-17T23:42:26Z</time>
      </trkpt>
      <trkpt lat="49.32581" lon="-1.26754">
        <ele>1.7</ele>
        <time>2023-05-17T23:42:29Z</time>
      </trkpt>
      <trkpt lat="49.32599" lon="-1.26763">
        <ele>1.9</ele>
        <time>2023-05-17T23:42:32Z</time>
      </trkpt>
      <trkpt lat="49.32617" lon="-1.26771">
        <ele>2.1</ele>
        <time>2023-05-17T23:42:35Z</time>
      </trkpt>
      <trkpt lat="49.32639" lon="-1.26782">
        <ele>2.5</ele>
        <time>2023-05-17T23:42:39Z</time>
      </trkpt>
      <trkpt lat="49.32661" lon="-1.26793">
        <ele>3.4</ele>
        <time>2023-05-17T23:42:43Z</time>
      </trkpt>
      <trkpt lat="49.32681" lon="-1.26802">
        <ele>4.2</ele>
        <time>2023-05-17T23:42:47Z</time>
      </trkpt>
      <trkpt lat="49.32699" lon="-1.2681">
        <ele>5.2</ele>
        <time>2023-05-17T23:42:51Z</time>
      </trkpt>
      <trkpt lat="49.32718" lon="-1.26818">
        <ele>6.2</ele>
        <time>2023-05-17T23:42:55Z</time>
      </trkpt>
      <trkpt lat="49.32739" lon="-1.26826">
        <ele>7.5</ele>
        <time>2023-05-17T23:43:00Z</time>
      </trkpt>
      <trkpt lat="49.3276" lon="-1.26833">
        <ele>8.8</ele>
        <time>2023-05-17T23:43:05Z</time>
      </trkpt>
      <trkpt lat="49.32781" lon="-1.26838">
        <ele>10</ele>
        <time>2023-05-17T23:43:10Z</time>
      </trkpt>
      <trkpt lat="49.32802" lon="-1.26839">
        <ele>11.1</ele>
        <time>2023-05-17T23:43:15Z</time>
      </trkpt>
      <trkpt lat="49.32821" lon="-1.26838">
        <ele>11.7</ele>
        <time>2023-05-17T23:43:20Z</time>
      </trkpt>
      <trkpt lat="49.3284" lon="-1.26834">
        <ele>11.9</ele>
        <time>2023-05-17T23:43:25Z</time>
      </trkpt>
      <trkpt lat="49.32859" lon="-1.26824">
        <ele>12.8</ele>
        <time>2023-05-17T23:43:30Z</time>
      </trkpt>
      <trkpt lat="49.32879" lon="-1.26812">
        <ele>13.7</ele>
        <time>2023-05-17T23:43:35Z</time>
      </trkpt>
      <trkpt lat="49.32897" lon="-1.26798">
        <ele>14.5</ele>
        <time>2023-05-17T23:43:40Z</time>
      </trkpt>
      <trkpt lat="49.32916" lon="-1.26783">
        <ele>15.4</ele>
        <time>2023-05-17T23:43:46Z</time>
      </trkpt>
      <trkpt lat="49.32933" lon="-1.26764">
        <ele>16.2</ele>
        <time>2023-05-17T23:43:52Z</time>
      </trkpt>
      <trkpt lat="49.32948" lon="-1.26746">
        <ele>16.9</ele>
        <time>2023-05-17T23:43:57Z</time>
      </trkpt>
      <trkpt lat="49.32966" lon="-1.26727">
        <ele>17.6</ele>
        <time>2023-05-17T23:44:02Z</time>
      </trkpt>
      <trkpt lat="49.32983" lon="-1.2671">
        <ele>18.3</ele>
        <time>2023-05-17T23:44:07Z</time>
      </trkpt>
      <trkpt lat="49.33001" lon="-1.26699">
        <ele>18.9</ele>
        <time>2023-05-17T23:44:12Z</time>
      </trkpt>
      <trkpt lat="49.3302" lon="-1.26691">
        <ele>19.7</ele>
        <time>2023-05-17T23:44:17Z</time>
      </trkpt>
      <trkpt lat="49.3304" lon="-1.26683">
        <ele>20.7</ele>
        <time>2023-05-17T23:44:23Z</time>
      </trkpt>
      <trkpt lat="49.33058" lon="-1.26674">
        <ele>21.4</ele>
        <time>2023-05-17T23:44:28Z</time>
      </trkpt>
      <trkpt lat="49.33077" lon="-1.26662">
        <ele>22.3</ele>
        <time>2023-05-17T23:44:34Z</time>
      </trkpt>
      <trkpt lat="49.33094" lon="-1.2665">
        <ele>23.1</ele>
        <time>2023-05-17T23:44:39Z</time>
      </trkpt>
      <trkpt lat="49.33111" lon="-1.26637">
        <ele>23.7</ele>
        <time>2023-05-17T23:44:44Z</time>
      </trkpt>
      <trkpt lat="49.33129" lon="-1.26623">
        <ele>24.1</ele>
        <time>2023-05-17T23:44:48Z</time>
      </trkpt>
      <trkpt lat="49.33145" lon="-1.2661">
        <ele>24.5</ele>
        <time>2023-05-17T23:44:52Z</time>
      </trkpt>
      <trkpt lat="49.33163" lon="-1.26598">
        <ele>24.9</ele>
        <time>2023-05-17T23:44:56Z</time>
      </trkpt>
      <trkpt lat="49.33179" lon="-1.26586">
        <ele>25.2</ele>
        <time>2023-05-17T23:45:00Z</time>
      </trkpt>
      <trkpt lat="49.33196" lon="-1.26574">
        <ele>25.4</ele>
        <time>2023-05-17T23:45:04Z</time>
      </trkpt>
      <trkpt lat="49.33213" lon="-1.26561">
        <ele>25.6</ele>
        <time>2023-05-17T23:45:08Z</time>
      </trkpt>
      <trkpt lat="49.33232" lon="-1.26547">
        <ele>25.7</ele>
        <time>2023-05-17T23:45:12Z</time>
      </trkpt>
      <trkpt lat="49.33251" lon="-1.26534">
        <ele>25.9</ele>
        <time>2023-05-17T23:45:16Z</time>
      </trkpt>
      <trkpt lat="49.3327" lon="-1.2652">
        <ele>26.1</ele>
        <time>2023-05-17T23:45:20Z</time>
      </trkpt>
      <trkpt lat="49.33287" lon="-1.26509">
        <ele>26.2</ele>
        <time>2023-05-17T23:45:24Z</time>
      </trkpt>
      <trkpt lat="49.33303" lon="-1.26496">
        <ele>26.3</ele>
        <time>2023-05-17T23:45:27Z</time>
      </trkpt>
      <trkpt lat="49.33323" lon="-1.2648">
        <ele>26.5</ele>
        <time>2023-05-17T23:45:31Z</time>
      </trkpt>
      <trkpt lat="49.33344" lon="-1.26466">
        <ele>26.6</ele>
        <time>2023-05-17T23:45:35Z</time>
      </trkpt>
      <trkpt lat="49.33364" lon="-1.2645">
        <ele>26.7</ele>
        <time>2023-05-17T23:45:39Z</time>
      </trkpt>
      <trkpt lat="49.33384" lon="-1.26436">
        <ele>26.8</ele>
        <time>2023-05-17T23:45:43Z</time>
      </trkpt>
      <trkpt lat="49.33404" lon="-1.26422">
        <ele>27</ele>
        <time>2023-05-17T23:45:47Z</time>
      </trkpt>
      <trkpt lat="49.33423" lon="-1.26408">
        <ele>27.2</ele>
        <time>2023-05-17T23:45:51Z</time>
      </trkpt>
      <trkpt lat="49.33441" lon="-1.26394">
        <ele>27.5</ele>
        <time>2023-05-17T23:45:55Z</time>
      </trkpt>
      <trkpt lat="49.33461" lon="-1.26379">
        <ele>27.7</ele>
        <time>2023-05-17T23:45:59Z</time>
      </trkpt>
      <trkpt lat="49.3348" lon="-1.26366">
        <ele>27.9</ele>
        <time>2023-05-17T23:46:03Z</time>
      </trkpt>
      <trkpt lat="49.33499" lon="-1.26351">
        <ele>28.1</ele>
        <time>2023-05-17T23:46:07Z</time>
      </trkpt>
      <trkpt lat="49.33518" lon="-1.26336">
        <ele>28.3</ele>
        <time>2023-05-17T23:46:11Z</time>
      </trkpt>
      <trkpt lat="49.3354" lon="-1.26322">
        <ele>28.4</ele>
        <time>2023-05-17T23:46:15Z</time>
      </trkpt>
      <trkpt lat="49.33561" lon="-1.26308">
        <ele>28.4</ele>
        <time>2023-05-17T23:46:19Z</time>
      </trkpt>
      <trkpt lat="49.33578" lon="-1.263">
        <ele>28.3</ele>
        <time>2023-05-17T23:46:22Z</time>
      </trkpt>
      <trkpt lat="49.33601" lon="-1.26293">
        <ele>28.2</ele>
        <time>2023-05-17T23:46:26Z</time>
      </trkpt>
      <trkpt lat="49.3362" lon="-1.26292">
        <ele>28.1</ele>
        <time>2023-05-17T23:46:29Z</time>
      </trkpt>
      <trkpt lat="49.3364" lon="-1.26292">
        <ele>28</ele>
        <time>2023-05-17T23:46:32Z</time>
      </trkpt>
      <trkpt lat="49.33659" lon="-1.26296">
        <ele>27.8</ele>
        <time>2023-05-17T23:46:35Z</time>
      </trkpt>
      <trkpt lat="49.33678" lon="-1.26304">
        <ele>27.6</ele>
        <time>2023-05-17T23:46:38Z</time>
      </trkpt>
      <trkpt lat="49.33697" lon="-1.26314">
        <ele>27.4</ele>
        <time>2023-05-17T23:46:41Z</time>
      </trkpt>
      <trkpt lat="49.33716" lon="-1.26329">
        <ele>27.2</ele>
        <time>2023-05-17T23:46:44Z</time>
      </trkpt>
      <trkpt lat="49.33735" lon="-1.26347">
        <ele>27</ele>
        <time>2023-05-17T23:46:47Z</time>
      </trkpt>
      <trkpt lat="49.33752" lon="-1.26365">
        <ele>26.9</ele>
        <time>2023-05-17T23:46:50Z</time>
      </trkpt>
      <trkpt lat="49.3377" lon="-1.26384">
        <ele>26.8</ele>
        <time>2023-05-17T23:46:53Z</time>
      </trkpt>
      <trkpt lat="49.33786" lon="-1.26402">
        <ele>26.8</ele>
        <time>2023-05-17T23:46:56Z</time>
      </trkpt>
      <trkpt lat="49.33802" lon="-1.26418">
        <ele>26.8</ele>
        <time>2023-05-17T23:46:59Z</time>
      </trkpt>
      <trkpt lat="49.33822" lon="-1.26437">
        <ele>26.9</ele>
        <time>2023-05-17T23:47:03Z</time>
      </trkpt>
      <trkpt lat="49.33843" lon="-1.26452">
        <ele>27.1</ele>
        <time>2023-05-17T23:47:07Z</time>
      </trkpt>
      <trkpt lat="49.33865" lon="-1.26465">
        <ele>27.3</ele>
        <time>2023-05-17T23:47:11Z</time>
      </trkpt>
      <trkpt lat="49.33883" lon="-1.26472">
        <ele>27.4</ele>
        <time>2023-05-17T23:47:14Z</time>
      </trkpt>
      <trkpt lat="49.33901" lon="-1.26476">
        <ele>27.5</ele>
        <time>2023-05-17T23:47:17Z</time>
      </trkpt>
      <trkpt lat="49.3392" lon="-1.26478">
        <ele>27.6</ele>
        <time>2023-05-17T23:47:20Z</time>
      </trkpt>
      <trkpt lat="49.33939" lon="-1.26477">
        <ele>27.6</ele>
        <time>2023-05-17T23:47:23Z</time>
      </trkpt>
      <trkpt lat="49.33963" lon="-1.26472">
        <ele>27.7</ele>
        <time>2023-05-17T23:47:27Z</time>
      </trkpt>
      <trkpt lat="49.33982" lon="-1.26467">
        <ele>27.8</ele>
        <time>2023-05-17T23:47:30Z</time>
      </trkpt>
      <trkpt lat="49.34004" lon="-1.26461">
        <ele>27.9</ele>
        <time>2023-05-17T23:47:34Z</time>
      </trkpt>
      <trkpt lat="49.34021" lon="-1.26454">
        <ele>27.9</ele>
        <time>2023-05-17T23:47:37Z</time>
      </trkpt>
      <trkpt lat="49.3404" lon="-1.26448">
        <ele>27.8</ele>
        <time>2023-05-17T23:47:40Z</time>
      </trkpt>
      <trkpt lat="49.34059" lon="-1.26443">
        <ele>27.7</ele>
        <time>2023-05-17T23:47:43Z</time>
      </trkpt>
      <trkpt lat="49.34081" lon="-1.2644">
        <ele>27.7</ele>
        <time>2023-05-17T23:47:46Z</time>
      </trkpt>
      <trkpt lat="49.34101" lon="-1.2644">
        <ele>27.7</ele>
        <time>2023-05-17T23:47:49Z</time>
      </trkpt>
      <trkpt lat="49.3412" lon="-1.2644">
        <ele>27.9</ele>
        <time>2023-05-17T23:47:52Z</time>
      </trkpt>
      <trkpt lat="49.34142" lon="-1.26441">
        <ele>28</ele>
        <time>2023-05-17T23:47:56Z</time>
      </trkpt>
      <trkpt lat="49.34166" lon="-1.26445">
        <ele>28.3</ele>
        <time>2023-05-17T23:48:00Z</time>
      </trkpt>
      <trkpt lat="49.34185" lon="-1.26449">
        <ele>28.4</ele>
        <time>2023-05-17T23:48:03Z</time>
      </trkpt>
      <trkpt lat="49.34203" lon="-1.26453">
        <ele>28.5</ele>
        <time>2023-05-17T23:48:06Z</time>
      </trkpt>
      <trkpt lat="49.34221" lon="-1.26458">
        <ele>28.5</ele>
        <time>2023-05-17T23:48:09Z</time>
      </trkpt>
      <trkpt lat="49.3424" lon="-1.26462">
        <ele>28.6</ele>
        <time>2023-05-17T23:48:12Z</time>
      </trkpt>
      <trkpt lat="49.34264" lon="-1.26461">
        <ele>28.7</ele>
        <time>2023-05-17T23:48:16Z</time>
      </trkpt>
      <trkpt lat="49.34283" lon="-1.26457">
        <ele>28.7</ele>
        <time>2023-05-17T23:48:19Z</time>
      </trkpt>
      <trkpt lat="49.34303" lon="-1.26453">
        <ele>28.7</ele>
        <time>2023-05-17T23:48:22Z</time>
      </trkpt>
      <trkpt lat="49.34321" lon="-1.26448">
        <ele>28.8</ele>
        <time>2023-05-17T23:48:25Z</time>
      </trkpt>
      <trkpt lat="49.3434" lon="-1.26443">
        <ele>28.9</ele>
        <time>2023-05-17T23:48:28Z</time>
      </trkpt>
      <trkpt lat="49.34361" lon="-1.26439">
        <ele>29</ele>
        <time>2023-05-17T23:48:31Z</time>
      </trkpt>
      <trkpt lat="49.34384" lon="-1.26433">
        <ele>29.3</ele>
        <time>2023-05-17T23:48:35Z</time>
      </trkpt>
      <trkpt lat="49.34403" lon="-1.26427">
        <ele>29.4</ele>
        <time>2023-05-17T23:48:38Z</time>
      </trkpt>
      <trkpt lat="49.34421" lon="-1.26423">
        <ele>29.5</ele>
        <time>2023-05-17T23:48:41Z</time>
      </trkpt>
      <trkpt lat="49.34439" lon="-1.26414">
        <ele>29.6</ele>
        <time>2023-05-17T23:48:44Z</time>
      </trkpt>
      <trkpt lat="49.34457" lon="-1.26408">
        <ele>29.7</ele>
        <time>2023-05-17T23:48:47Z</time>
      </trkpt>
      <trkpt lat="49.34474" lon="-1.26398">
        <ele>29.7</ele>
        <time>2023-05-17T23:48:50Z</time>
      </trkpt>
      <trkpt lat="49.34492" lon="-1.2639">
        <ele>29.7</ele>
        <time>2023-05-17T23:48:53Z</time>
      </trkpt>
      <trkpt lat="49.34511" lon="-1.2638">
        <ele>29.7</ele>
        <time>2023-05-17T23:48:56Z</time>
      </trkpt>
      <trkpt lat="49.34529" lon="-1.26369">
        <ele>29.6</ele>
        <time>2023-05-17T23:48:59Z</time>
      </trkpt>
      <trkpt lat="49.34548" lon="-1.26358">
        <ele>29.7</ele>
        <time>2023-05-17T23:49:02Z</time>
      </trkpt>
      <trkpt lat="49.34567" lon="-1.26348">
        <ele>29.7</ele>
        <time>2023-05-17T23:49:05Z</time>
      </trkpt>
      <trkpt lat="49.34585" lon="-1.26337">
        <ele>29.7</ele>
        <time>2023-05-17T23:49:08Z</time>
      </trkpt>
      <trkpt lat="49.34604" lon="-1.26327">
        <ele>29.6</ele>
        <time>2023-05-17T23:49:11Z</time>
      </trkpt>
      <trkpt lat="49.34623" lon="-1.26317">
        <ele>29.5</ele>
        <time>2023-05-17T23:49:14Z</time>
      </trkpt>
      <trkpt lat="49.34642" lon="-1.26306">
        <ele>29.5</ele>
        <time>2023-05-17T23:49:17Z</time>
      </trkpt>
      <trkpt lat="49.34662" lon="-1.26296">
        <ele>29.4</ele>
        <time>2023-05-17T23:49:20Z</time>
      </trkpt>
      <trkpt lat="49.34682" lon="-1.26286">
        <ele>29.3</ele>
        <time>2023-05-17T23:49:23Z</time>
      </trkpt>
      <trkpt lat="49.34701" lon="-1.26274">
        <ele>29.2</ele>
        <time>2023-05-17T23:49:26Z</time>
      </trkpt>
      <trkpt lat="49.3472" lon="-1.26263">
        <ele>29.1</ele>
        <time>2023-05-17T23:49:29Z</time>
      </trkpt>
      <trkpt lat="49.34739" lon="-1.26252">
        <ele>29</ele>
        <time>2023-05-17T23:49:32Z</time>
      </trkpt>
      <trkpt lat="49.34759" lon="-1.26242">
        <ele>28.9</ele>
        <time>2023-05-17T23:49:35Z</time>
      </trkpt>
      <trkpt lat="49.34778" lon="-1.26231">
        <ele>28.8</ele>
        <time>2023-05-17T23:49:38Z</time>
      </trkpt>
      <trkpt lat="49.34797" lon="-1.26219">
        <ele>28.6</ele>
        <time>2023-05-17T23:49:41Z</time>
      </trkpt>
      <trkpt lat="49.34817" lon="-1.26207">
        <ele>28.3</ele>
        <time>2023-05-17T23:49:44Z</time>
      </trkpt>
      <trkpt lat="49.34839" lon="-1.26196">
        <ele>27.9</ele>
        <time>2023-05-17T23:49:47Z</time>
      </trkpt>
      <trkpt lat="49.3486" lon="-1.26182">
        <ele>27.4</ele>
        <time>2023-05-17T23:49:50Z</time>
      </trkpt>
      <trkpt lat="49.34882" lon="-1.2617">
        <ele>26.8</ele>
        <time>2023-05-17T23:49:53Z</time>
      </trkpt>
      <trkpt lat="49.34905" lon="-1.26157">
        <ele>26.2</ele>
        <time>2023-05-17T23:49:56Z</time>
      </trkpt>
      <trkpt lat="49.34928" lon="-1.26142">
        <ele>25.5</ele>
        <time>2023-05-17T23:49:59Z</time>
      </trkpt>
      <trkpt lat="49.34952" lon="-1.26128">
        <ele>24.5</ele>
        <time>2023-05-17T23:50:02Z</time>
      </trkpt>
      <trkpt lat="49.34976" lon="-1.26111">
        <ele>23.6</ele>
        <time>2023-05-17T23:50:05Z</time>
      </trkpt>
      <trkpt lat="49.34992" lon="-1.26098">
        <ele>23</ele>
        <time>2023-05-17T23:50:07Z</time>
      </trkpt>
      <trkpt lat="49.35013" lon="-1.26075">
        <ele>22</ele>
        <time>2023-05-17T23:50:10Z</time>
      </trkpt>
      <trkpt lat="49.35035" lon="-1.26052">
        <ele>21.1</ele>
        <time>2023-05-17T23:50:13Z</time>
      </trkpt>
      <trkpt lat="49.35051" lon="-1.26037">
        <ele>20.6</ele>
        <time>2023-05-17T23:50:15Z</time>
      </trkpt>
      <trkpt lat="49.35073" lon="-1.26013">
        <ele>19.8</ele>
        <time>2023-05-17T23:50:18Z</time>
      </trkpt>
      <trkpt lat="49.35094" lon="-1.25989">
        <ele>19.2</ele>
        <time>2023-05-17T23:50:21Z</time>
      </trkpt>
      <trkpt lat="49.35115" lon="-1.25962">
        <ele>18.6</ele>
        <time>2023-05-17T23:50:24Z</time>
      </trkpt>
      <trkpt lat="49.35134" lon="-1.25936">
        <ele>17.9</ele>
        <time>2023-05-17T23:50:27Z</time>
      </trkpt>
      <trkpt lat="49.35153" lon="-1.25909">
        <ele>17.1</ele>
        <time>2023-05-17T23:50:30Z</time>
      </trkpt>
      <trkpt lat="49.35171" lon="-1.2588">
        <ele>16.3</ele>
        <time>2023-05-17T23:50:33Z</time>
      </trkpt>
      <trkpt lat="49.35188" lon="-1.2585">
        <ele>15.3</ele>
        <time>2023-05-17T23:50:36Z</time>
      </trkpt>
      <trkpt lat="49.35206" lon="-1.25819">
        <ele>14.1</ele>
        <time>2023-05-17T23:50:39Z</time>
      </trkpt>
      <trkpt lat="49.35218" lon="-1.25798">
        <ele>13.3</ele>
        <time>2023-05-17T23:50:41Z</time>
      </trkpt>
      <trkpt lat="49.35231" lon="-1.25776">
        <ele>12.4</ele>
        <time>2023-05-17T23:50:43Z</time>
      </trkpt>
      <trkpt lat="49.35245" lon="-1.25753">
        <ele>11.6</ele>
        <time>2023-05-17T23:50:45Z</time>
      </trkpt>
      <trkpt lat="49.35257" lon="-1.25731">
        <ele>10.8</ele>
        <time>2023-05-17T23:50:47Z</time>
      </trkpt>
      <trkpt lat="49.35271" lon="-1.2571">
        <ele>9.8</ele>
        <time>2023-05-17T23:50:49Z</time>
      </trkpt>
      <trkpt lat="49.35286" lon="-1.2569">
        <ele>8.7</ele>
        <time>2023-05-17T23:50:51Z</time>
      </trkpt>
      <trkpt lat="49.35303" lon="-1.25675">
        <ele>7.6</ele>
        <time>2023-05-17T23:50:53Z</time>
      </trkpt>
      <trkpt lat="49.35321" lon="-1.2566">
        <ele>6.5</ele>
        <time>2023-05-17T23:50:55Z</time>
      </trkpt>
      <trkpt lat="49.3534" lon="-1.25646">
        <ele>5.4</ele>
        <time>2023-05-17T23:50:57Z</time>
      </trkpt>
      <trkpt lat="49.3536" lon="-1.25633">
        <ele>4.5</ele>
        <time>2023-05-17T23:50:59Z</time>
      </trkpt>
      <trkpt lat="49.35379" lon="-1.25617">
        <ele>4.2</ele>
        <time>2023-05-17T23:51:01Z</time>
      </trkpt>
      <trkpt lat="49.35395" lon="-1.25599">
        <ele>4.2</ele>
        <time>2023-05-17T23:51:03Z</time>
      </trkpt>
      <trkpt lat="49.35409" lon="-1.25581">
        <ele>4.3</ele>
        <time>2023-05-17T23:51:05Z</time>
      </trkpt>
      <trkpt lat="49.35423" lon="-1.25562">
        <ele>4.4</ele>
        <time>2023-05-17T23:51:07Z</time>
      </trkpt>
      <trkpt lat="49.35442" lon="-1.25535">
        <ele>4.8</ele>
        <time>2023-05-17T23:51:10Z</time>
      </trkpt>
      <trkpt lat="49.35459" lon="-1.2551">
        <ele>5.1</ele>
        <time>2023-05-17T23:51:13Z</time>
      </trkpt>
      <trkpt lat="49.35476" lon="-1.25486">
        <ele>5.4</ele>
        <time>2023-05-17T23:51:16Z</time>
      </trkpt>
      <trkpt lat="49.35491" lon="-1.25464">
        <ele>5.8</ele>
        <time>2023-05-17T23:51:19Z</time>
      </trkpt>
      <trkpt lat="49.35504" lon="-1.25439">
        <ele>6.1</ele>
        <time>2023-05-17T23:51:22Z</time>
      </trkpt>
      <trkpt lat="49.3552" lon="-1.25416">
        <ele>6.4</ele>
        <time>2023-05-17T23:51:25Z</time>
      </trkpt>
      <trkpt lat="49.35535" lon="-1.25391">
        <ele>6.8</ele>
        <time>2023-05-17T23:51:28Z</time>
      </trkpt>
      <trkpt lat="49.35549" lon="-1.25366">
        <ele>6.9</ele>
        <time>2023-05-17T23:51:31Z</time>
      </trkpt>
      <trkpt lat="49.35562" lon="-1.25341">
        <ele>6.9</ele>
        <time>2023-05-17T23:51:34Z</time>
      </trkpt>
      <trkpt lat="49.35576" lon="-1.25314">
        <ele>7</ele>
        <time>2023-05-17T23:51:37Z</time>
      </trkpt>
      <trkpt lat="49.3559" lon="-1.25289">
        <ele>7.1</ele>
        <time>2023-05-17T23:51:40Z</time>
      </trkpt>
      <trkpt lat="49.35604" lon="-1.25263">
        <ele>7.2</ele>
        <time>2023-05-17T23:51:43Z</time>
      </trkpt>
      <trkpt lat="49.35618" lon="-1.25238">
        <ele>7.1</ele>
        <time>2023-05-17T23:51:46Z</time>
      </trkpt>
      <trkpt lat="49.35631" lon="-1.25213">
        <ele>7.2</ele>
        <time>2023-05-17T23:51:49Z</time>
      </trkpt>
      <trkpt lat="49.35643" lon="-1.25188">
        <ele>7.3</ele>
        <time>2023-05-17T23:51:52Z</time>
      </trkpt>
      <trkpt lat="49.35655" lon="-1.25165">
        <ele>7.4</ele>
        <time>2023-05-17T23:51:55Z</time>
      </trkpt>
      <trkpt lat="49.35666" lon="-1.2514">
        <ele>7.4</ele>
        <time>2023-05-17T23:51:58Z</time>
      </trkpt>
      <trkpt lat="49.35678" lon="-1.25114">
        <ele>7.4</ele>
        <time>2023-05-17T23:52:01Z</time>
      </trkpt>
      <trkpt lat="49.3569" lon="-1.2509">
        <ele>7.2</ele>
        <time>2023-05-17T23:52:04Z</time>
      </trkpt>
      <trkpt lat="49.35704" lon="-1.25064">
        <ele>7.1</ele>
        <time>2023-05-17T23:52:07Z</time>
      </trkpt>
      <trkpt lat="49.35717" lon="-1.25039">
        <ele>7.1</ele>
        <time>2023-05-17T23:52:10Z</time>
      </trkpt>
      <trkpt lat="49.35731" lon="-1.25015">
        <ele>7.1</ele>
        <time>2023-05-17T23:52:13Z</time>
      </trkpt>
      <trkpt lat="49.35744" lon="-1.24993">
        <ele>7.2</ele>
        <time>2023-05-17T23:52:16Z</time>
      </trkpt>
      <trkpt lat="49.35757" lon="-1.2497">
        <ele>7.5</ele>
        <time>2023-05-17T23:52:19Z</time>
      </trkpt>
      <trkpt lat="49.3577" lon="-1.24949">
        <ele>7.8</ele>
        <time>2023-05-17T23:52:22Z</time>
      </trkpt>
      <trkpt lat="49.35786" lon="-1.24931">
        <ele>8.1</ele>
        <time>2023-05-17T23:52:25Z</time>
      </trkpt>
      <trkpt lat="49.35802" lon="-1.24915">
        <ele>8.4</ele>
        <time>2023-05-17T23:52:28Z</time>
      </trkpt>
      <trkpt lat="49.3582" lon="-1.249">
        <ele>8.7</ele>
        <time>2023-05-17T23:52:31Z</time>
      </trkpt>
      <trkpt lat="49.35837" lon="-1.24886">
        <ele>9.1</ele>
        <time>2023-05-17T23:52:34Z</time>
      </trkpt>
      <trkpt lat="49.35853" lon="-1.24872">
        <ele>9.4</ele>
        <time>2023-05-17T23:52:37Z</time>
      </trkpt>
      <trkpt lat="49.35869" lon="-1.24858">
        <ele>9.7</ele>
        <time>2023-05-17T23:52:40Z</time>
      </trkpt>
      <trkpt lat="49.35885" lon="-1.24844">
        <ele>10</ele>
        <time>2023-05-17T23:52:43Z</time>
      </trkpt>
      <trkpt lat="49.35902" lon="-1.2483">
        <ele>10.3</ele>
        <time>2023-05-17T23:52:46Z</time>
      </trkpt>
      <trkpt lat="49.35917" lon="-1.24813">
        <ele>10.6</ele>
        <time>2023-05-17T23:52:49Z</time>
      </trkpt>
      <trkpt lat="49.35932" lon="-1.24797">
        <ele>10.9</ele>
        <time>2023-05-17T23:52:52Z</time>
      </trkpt>
      <trkpt lat="49.35947" lon="-1.24782">
        <ele>11.1</ele>
        <time>2023-05-17T23:52:55Z</time>
      </trkpt>
      <trkpt lat="49.35963" lon="-1.24767">
        <ele>11.4</ele>
        <time>2023-05-17T23:52:58Z</time>
      </trkpt>
      <trkpt lat="49.35978" lon="-1.24752">
        <ele>11.6</ele>
        <time>2023-05-17T23:53:01Z</time>
      </trkpt>
      <trkpt lat="49.35993" lon="-1.24735">
        <ele>11.9</ele>
        <time>2023-05-17T23:53:04Z</time>
      </trkpt>
      <trkpt lat="49.36009" lon="-1.24721">
        <ele>12.2</ele>
        <time>2023-05-17T23:53:07Z</time>
      </trkpt>
      <trkpt lat="49.36028" lon="-1.24702">
        <ele>12.5</ele>
        <time>2023-05-17T23:53:11Z</time>
      </trkpt>
      <trkpt lat="49.36048" lon="-1.24684">
        <ele>12.9</ele>
        <time>2023-05-17T23:53:15Z</time>
      </trkpt>
      <trkpt lat="49.36067" lon="-1.24664">
        <ele>13.3</ele>
        <time>2023-05-17T23:53:19Z</time>
      </trkpt>
      <trkpt lat="49.36082" lon="-1.24636">
        <ele>13.7</ele>
        <time>2023-05-17T23:53:23Z</time>
      </trkpt>
      <trkpt lat="49.36095" lon="-1.24608">
        <ele>14</ele>
        <time>2023-05-17T23:53:27Z</time>
      </trkpt>
      <trkpt lat="49.3611" lon="-1.2458">
        <ele>14.4</ele>
        <time>2023-05-17T23:53:31Z</time>
      </trkpt>
      <trkpt lat="49.36123" lon="-1.24552">
        <ele>14.7</ele>
        <time>2023-05-17T23:53:35Z</time>
      </trkpt>
      <trkpt lat="49.36137" lon="-1.24525">
        <ele>15.1</ele>
        <time>2023-05-17T23:53:39Z</time>
      </trkpt>
      <trkpt lat="49.3615" lon="-1.24496">
        <ele>15.5</ele>
        <time>2023-05-17T23:53:43Z</time>
      </trkpt>
      <trkpt lat="49.36164" lon="-1.24468">
        <ele>16</ele>
        <time>2023-05-17T23:53:47Z</time>
      </trkpt>
      <trkpt lat="49.36178" lon="-1.24443">
        <ele>16.5</ele>
        <time>2023-05-17T23:53:51Z</time>
      </trkpt>
      <trkpt lat="49.36193" lon="-1.2442">
        <ele>17</ele>
        <time>2023-05-17T23:53:55Z</time>
      </trkpt>
      <trkpt lat="49.36209" lon="-1.24397">
        <ele>17.4</ele>
        <time>2023-05-17T23:53:59Z</time>
      </trkpt>
      <trkpt lat="49.36226" lon="-1.24374">
        <ele>17.7</ele>
        <time>2023-05-17T23:54:03Z</time>
      </trkpt>
      <trkpt lat="49.36242" lon="-1.24352">
        <ele>17.9</ele>
        <time>2023-05-17T23:54:07Z</time>
      </trkpt>
      <trkpt lat="49.36259" lon="-1.2433">
        <ele>18.1</ele>
        <time>2023-05-17T23:54:11Z</time>
      </trkpt>
      <trkpt lat="49.36274" lon="-1.24304">
        <ele>18.2</ele>
        <time>2023-05-17T23:54:15Z</time>
      </trkpt>
      <trkpt lat="49.36289" lon="-1.24279">
        <ele>18.2</ele>
        <time>2023-05-17T23:54:19Z</time>
      </trkpt>
      <trkpt lat="49.36304" lon="-1.24251">
        <ele>18.2</ele>
        <time>2023-05-17T23:54:23Z</time>
      </trkpt>
      <trkpt lat="49.36319" lon="-1.24225">
        <ele>18.2</ele>
        <time>2023-05-17T23:54:27Z</time>
      </trkpt>
      <trkpt lat="49.36331" lon="-1.24203">
        <ele>18.3</ele>
        <time>2023-05-17T23:54:30Z</time>
      </trkpt>
      <trkpt lat="49.36343" lon="-1.24183">
        <ele>18.5</ele>
        <time>2023-05-17T23:54:33Z</time>
      </trkpt>
      <trkpt lat="49.36355" lon="-1.24162">
        <ele>18.6</ele>
        <time>2023-05-17T23:54:36Z</time>
      </trkpt>
      <trkpt lat="49.3637" lon="-1.24135">
        <ele>18.6</ele>
        <time>2023-05-17T23:54:40Z</time>
      </trkpt>
      <trkpt lat="49.36382" lon="-1.24114">
        <ele>18.6</ele>
        <time>2023-05-17T23:54:43Z</time>
      </trkpt>
      <trkpt lat="49.36399" lon="-1.24087">
        <ele>18.7</ele>
        <time>2023-05-17T23:54:47Z</time>
      </trkpt>
      <trkpt lat="49.3641" lon="-1.24065">
        <ele>18.8</ele>
        <time>2023-05-17T23:54:50Z</time>
      </trkpt>
      <trkpt lat="49.36422" lon="-1.24044">
        <ele>19</ele>
        <time>2023-05-17T23:54:53Z</time>
      </trkpt>
      <trkpt lat="49.36438" lon="-1.24018">
        <ele>19.1</ele>
        <time>2023-05-17T23:54:57Z</time>
      </trkpt>
      <trkpt lat="49.36453" lon="-1.23992">
        <ele>19.2</ele>
        <time>2023-05-17T23:55:01Z</time>
      </trkpt>
      <trkpt lat="49.36465" lon="-1.2397">
        <ele>19.2</ele>
        <time>2023-05-17T23:55:04Z</time>
      </trkpt>
      <trkpt lat="49.36476" lon="-1.23949">
        <ele>19.2</ele>
        <time>2023-05-17T23:55:07Z</time>
      </trkpt>
      <trkpt lat="49.36488" lon="-1.23928">
        <ele>19.3</ele>
        <time>2023-05-17T23:55:10Z</time>
      </trkpt>
      <trkpt lat="49.36504" lon="-1.239">
        <ele>19.4</ele>
        <time>2023-05-17T23:55:14Z</time>
      </trkpt>
      <trkpt lat="49.36516" lon="-1.23878">
        <ele>19.4</ele>
        <time>2023-05-17T23:55:17Z</time>
      </trkpt>
      <trkpt lat="49.36527" lon="-1.23855">
        <ele>19.5</ele>
        <time>2023-05-17T23:55:20Z</time>
      </trkpt>
      <trkpt lat="49.36539" lon="-1.23833">
        <ele>19.5</ele>
        <time>2023-05-17T23:55:23Z</time>
      </trkpt>
      <trkpt lat="49.3655" lon="-1.23809">
        <ele>19.5</ele>
        <time>2023-05-17T23:55:26Z</time>
      </trkpt>
      <trkpt lat="49.36562" lon="-1.23786">
        <ele>19.4</ele>
        <time>2023-05-17T23:55:29Z</time>
      </trkpt>
      <trkpt lat="49.36573" lon="-1.23761">
        <ele>19.4</ele>
        <time>2023-05-17T23:55:32Z</time>
      </trkpt>
      <trkpt lat="49.36583" lon="-1.23736">
        <ele>19.3</ele>
        <time>2023-05-17T23:55:35Z</time>
      </trkpt>
      <trkpt lat="49.36593" lon="-1.23711">
        <ele>19.3</ele>
        <time>2023-05-17T23:55:38Z</time>
      </trkpt>
      <trkpt lat="49.36604" lon="-1.23686">
        <ele>19.4</ele>
        <time>2023-05-17T23:55:41Z</time>
      </trkpt>
      <trkpt lat="49.36615" lon="-1.23661">
        <ele>19.4</ele>
        <time>2023-05-17T23:55:44Z</time>
      </trkpt>
      <trkpt lat="49.36626" lon="-1.23637">
        <ele>19.6</ele>
        <time>2023-05-17T23:55:47Z</time>
      </trkpt>
      <trkpt lat="49.36637" lon="-1.23613">
        <ele>19.6</ele>
        <time>2023-05-17T23:55:50Z</time>
      </trkpt>
      <trkpt lat="49.36647" lon="-1.23588">
        <ele>19.6</ele>
        <time>2023-05-17T23:55:53Z</time>
      </trkpt>
      <trkpt lat="49.36658" lon="-1.23564">
        <ele>19.6</ele>
        <time>2023-05-17T23:55:56Z</time>
      </trkpt>
      <trkpt lat="49.36669" lon="-1.2354">
        <ele>19.7</ele>
        <time>2023-05-17T23:55:59Z</time>
      </trkpt>
      <trkpt lat="49.3668" lon="-1.23515">
        <ele>19.7</ele>
        <time>2023-05-17T23:56:02Z</time>
      </trkpt>
      <trkpt lat="49.36691" lon="-1.23491">
        <ele>19.8</ele>
        <time>2023-05-17T23:56:05Z</time>
      </trkpt>
      <trkpt lat="49.36702" lon="-1.23467">
        <ele>19.8</ele>
        <time>2023-05-17T23:56:08Z</time>
      </trkpt>
      <trkpt lat="49.36711" lon="-1.23442">
        <ele>19.8</ele>
        <time>2023-05-17T23:56:11Z</time>
      </trkpt>
      <trkpt lat="49.36722" lon="-1.23418">
        <ele>19.9</ele>
        <time>2023-05-17T23:56:14Z</time>
      </trkpt>
      <trkpt lat="49.36733" lon="-1.23394">
        <ele>19.9</ele>
        <time>2023-05-17T23:56:17Z</time>
      </trkpt>
      <trkpt lat="49.36744" lon="-1.23371">
        <ele>19.8</ele>
        <time>2023-05-17T23:56:20Z</time>
      </trkpt>
      <trkpt lat="49.36758" lon="-1.23348">
        <ele>19.8</ele>
        <time>2023-05-17T23:56:23Z</time>
      </trkpt>
      <trkpt lat="49.36773" lon="-1.23327">
        <ele>19.6</ele>
        <time>2023-05-17T23:56:26Z</time>
      </trkpt>
      <trkpt lat="49.3679" lon="-1.23306">
        <ele>19.4</ele>
        <time>2023-05-17T23:56:29Z</time>
      </trkpt>
      <trkpt lat="49.36805" lon="-1.23288">
        <ele>19.2</ele>
        <time>2023-05-17T23:56:32Z</time>
      </trkpt>
      <trkpt lat="49.36823" lon="-1.23272">
        <ele>19.1</ele>
        <time>2023-05-17T23:56:35Z</time>
      </trkpt>
      <trkpt lat="49.36842" lon="-1.23258">
        <ele>19</ele>
        <time>2023-05-17T23:56:38Z</time>
      </trkpt>
      <trkpt lat="49.36861" lon="-1.23246">
        <ele>18.9</ele>
        <time>2023-05-17T23:56:41Z</time>
      </trkpt>
      <trkpt lat="49.36882" lon="-1.23232">
        <ele>18.6</ele>
        <time>2023-05-17T23:56:44Z</time>
      </trkpt>
      <trkpt lat="49.36902" lon="-1.23221">
        <ele>18.4</ele>
        <time>2023-05-17T23:56:47Z</time>
      </trkpt>
      <trkpt lat="49.36923" lon="-1.23209">
        <ele>18.2</ele>
        <time>2023-05-17T23:56:50Z</time>
      </trkpt>
      <trkpt lat="49.36944" lon="-1.23197">
        <ele>18</ele>
        <time>2023-05-17T23:56:53Z</time>
      </trkpt>
      <trkpt lat="49.36965" lon="-1.23186">
        <ele>17.8</ele>
        <time>2023-05-17T23:56:56Z</time>
      </trkpt>
      <trkpt lat="49.36985" lon="-1.23175">
        <ele>17.6</ele>
        <time>2023-05-17T23:56:59Z</time>
      </trkpt>
      <trkpt lat="49.37007" lon="-1.23162">
        <ele>17.4</ele>
        <time>2023-05-17T23:57:02Z</time>
      </trkpt>
      <trkpt lat="49.37027" lon="-1.2315">
        <ele>17.3</ele>
        <time>2023-05-17T23:57:05Z</time>
      </trkpt>
      <trkpt lat="49.37048" lon="-1.23138">
        <ele>17.1</ele>
        <time>2023-05-17T23:57:08Z</time>
      </trkpt>
      <trkpt lat="49.37069" lon="-1.23126">
        <ele>16.8</ele>
        <time>2023-05-17T23:57:11Z</time>
      </trkpt>
      <trkpt lat="49.3709" lon="-1.23115">
        <ele>16.7</ele>
        <time>2023-05-17T23:57:14Z</time>
      </trkpt>
      <trkpt lat="49.3711" lon="-1.23104">
        <ele>16.5</ele>
        <time>2023-05-17T23:57:17Z</time>
      </trkpt>
      <trkpt lat="49.3713" lon="-1.23093">
        <ele>16.4</ele>
        <time>2023-05-17T23:57:20Z</time>
      </trkpt>
      <trkpt lat="49.37152" lon="-1.23082">
        <ele>16.2</ele>
        <time>2023-05-17T23:57:23Z</time>
      </trkpt>
      <trkpt lat="49.37173" lon="-1.23071">
        <ele>15.9</ele>
        <time>2023-05-17T23:57:26Z</time>
      </trkpt>
      <trkpt lat="49.37193" lon="-1.23058">
        <ele>15.8</ele>
        <time>2023-05-17T23:57:29Z</time>
      </trkpt>
      <trkpt lat="49.37215" lon="-1.23047">
        <ele>15.7</ele>
        <time>2023-05-17T23:57:32Z</time>
      </trkpt>
      <trkpt lat="49.37236" lon="-1.23035">
        <ele>15.6</ele>
        <time>2023-05-17T23:57:35Z</time>
      </trkpt>
      <trkpt lat="49.37257" lon="-1.23023">
        <ele>15.4</ele>
        <time>2023-05-17T23:57:38Z</time>
      </trkpt>
      <trkpt lat="49.37278" lon="-1.23013">
        <ele>15.1</ele>
        <time>2023-05-17T23:57:41Z</time>
      </trkpt>
      <trkpt lat="49.373" lon="-1.23003">
        <ele>14.8</ele>
        <time>2023-05-17T23:57:44Z</time>
      </trkpt>
      <trkpt lat="49.37321" lon="-1.2299">
        <ele>14.6</ele>
        <time>2023-05-17T23:57:47Z</time>
      </trkpt>
      <trkpt lat="49.37342" lon="-1.22978">
        <ele>14.3</ele>
        <time>2023-05-17T23:57:50Z</time>
      </trkpt>
      <trkpt lat="49.37361" lon="-1.22966">
        <ele>14</ele>
        <time>2023-05-17T23:57:53Z</time>
      </trkpt>
      <trkpt lat="49.37383" lon="-1.22954">
        <ele>13.6</ele>
        <time>2023-05-17T23:57:56Z</time>
      </trkpt>
      <trkpt lat="49.37406" lon="-1.2294">
        <ele>13.5</ele>
        <time>2023-05-17T23:57:59Z</time>
      </trkpt>
      <trkpt lat="49.37428" lon="-1.22927">
        <ele>13.5</ele>
        <time>2023-05-17T23:58:02Z</time>
      </trkpt>
      <trkpt lat="49.3745" lon="-1.22916">
        <ele>13.4</ele>
        <time>2023-05-17T23:58:05Z</time>
      </trkpt>
      <trkpt lat="49.37471" lon="-1.22905">
        <ele>13.4</ele>
        <time>2023-05-17T23:58:08Z</time>
      </trkpt>
      <trkpt lat="49.37488" lon="-1.22886">
        <ele>13.5</ele>
        <time>2023-05-17T23:58:11Z</time>
      </trkpt>
      <trkpt lat="49.37503" lon="-1.22864">
        <ele>13.8</ele>
        <time>2023-05-17T23:58:14Z</time>
      </trkpt>
      <trkpt lat="49.37516" lon="-1.2284">
        <ele>14.2</ele>
        <time>2023-05-17T23:58:17Z</time>
      </trkpt>
      <trkpt lat="49.37529" lon="-1.22818">
        <ele>14.7</ele>
        <time>2023-05-17T23:58:20Z</time>
      </trkpt>
      <trkpt lat="49.37541" lon="-1.22797">
        <ele>15.3</ele>
        <time>2023-05-17T23:58:23Z</time>
      </trkpt>
      <trkpt lat="49.37556" lon="-1.22771">
        <ele>16</ele>
        <time>2023-05-17T23:58:27Z</time>
      </trkpt>
      <trkpt lat="49.37569" lon="-1.22747">
        <ele>16.7</ele>
        <time>2023-05-17T23:58:31Z</time>
      </trkpt>
      <trkpt lat="49.37585" lon="-1.22728">
        <ele>17.5</ele>
        <time>2023-05-17T23:58:35Z</time>
      </trkpt>
      <trkpt lat="49.37605" lon="-1.22714">
        <ele>18.3</ele>
        <time>2023-05-17T23:58:40Z</time>
      </trkpt>
      <trkpt lat="49.37623" lon="-1.2271">
        <ele>19.1</ele>
        <time>2023-05-17T23:58:44Z</time>
      </trkpt>
      <trkpt lat="49.37645" lon="-1.22705">
        <ele>20.1</ele>
        <time>2023-05-17T23:58:49Z</time>
      </trkpt>
      <trkpt lat="49.37663" lon="-1.22704">
        <ele>20.8</ele>
        <time>2023-05-17T23:58:53Z</time>
      </trkpt>
      <trkpt lat="49.37684" lon="-1.22701">
        <ele>21.3</ele>
        <time>2023-05-17T23:58:58Z</time>
      </trkpt>
      <trkpt lat="49.37703" lon="-1.22693">
        <ele>22</ele>
        <time>2023-05-17T23:59:03Z</time>
      </trkpt>
      <trkpt lat="49.37721" lon="-1.22682">
        <ele>22.8</ele>
        <time>2023-05-17T23:59:08Z</time>
      </trkpt>
      <trkpt lat="49.37739" lon="-1.22669">
        <ele>23.6</ele>
        <time>2023-05-17T23:59:13Z</time>
      </trkpt>
      <trkpt lat="49.37758" lon="-1.22657">
        <ele>24.6</ele>
        <time>2023-05-17T23:59:18Z</time>
      </trkpt>
      <trkpt lat="49.37776" lon="-1.22646">
        <ele>25.5</ele>
        <time>2023-05-17T23:59:23Z</time>
      </trkpt>
      <trkpt lat="49.37793" lon="-1.22636">
        <ele>26.4</ele>
        <time>2023-05-17T23:59:28Z</time>
      </trkpt>
      <trkpt lat="49.37811" lon="-1.22623">
        <ele>27.3</ele>
        <time>2023-05-17T23:59:33Z</time>
      </trkpt>
      <trkpt lat="49.37829" lon="-1.22606">
        <ele>28.1</ele>
        <time>2023-05-17T23:59:38Z</time>
      </trkpt>
      <trkpt lat="49.37851" lon="-1.22604">
        <ele>28.7</ele>
        <time>2023-05-17T23:59:43Z</time>
      </trkpt>
      <trkpt lat="49.37874" lon="-1.22601">
        <ele>29.2</ele>
        <time>2023-05-17T23:59:48Z</time>
      </trkpt>
      <trkpt lat="49.37889" lon="-1.22586">
        <ele>29.6</ele>
        <time>2023-05-17T23:59:52Z</time>
      </trkpt>
      <trkpt lat="49.37895" lon="-1.22556">
        <ele>29.7</ele>
        <time>2023-05-17T23:59:57Z</time>
      </trkpt>
      <trkpt lat="49.37894" lon="-1.22522">
        <ele>30</ele>
        <time>2023-05-18T00:00:02Z</time>
      </trkpt>
      <trkpt lat="49.37907" lon="-1.225">
        <ele>30</ele>
        <time>2023-05-18T00:00:07Z</time>
      </trkpt>
      <trkpt lat="49.37928" lon="-1.22498">
        <ele>30</ele>
        <time>2023-05-18T00:00:11Z</time>
      </trkpt>
      <trkpt lat="49.37947" lon="-1.22493">
        <ele>30.2</ele>
        <time>2023-05-18T00:00:15Z</time>
      </trkpt>
      <trkpt lat="49.37966" lon="-1.22487">
        <ele>30.6</ele>
        <time>2023-05-18T00:00:19Z</time>
      </trkpt>
      <trkpt lat="49.37984" lon="-1.2248">
        <ele>31</ele>
        <time>2023-05-18T00:00:23Z</time>
      </trkpt>
      <trkpt lat="49.38005" lon="-1.22474">
        <ele>31.6</ele>
        <time>2023-05-18T00:00:27Z</time>
      </trkpt>
      <trkpt lat="49.38023" lon="-1.22466">
        <ele>32</ele>
        <time>2023-05-18T00:00:31Z</time>
      </trkpt>
      <trkpt lat="49.38042" lon="-1.22456">
        <ele>32.2</ele>
        <time>2023-05-18T00:00:35Z</time>
      </trkpt>
      <trkpt lat="49.38059" lon="-1.22446">
        <ele>32.6</ele>
        <time>2023-05-18T00:00:39Z</time>
      </trkpt>
      <trkpt lat="49.38077" lon="-1.22437">
        <ele>32.9</ele>
        <time>2023-05-18T00:00:43Z</time>
      </trkpt>
      <trkpt lat="49.38096" lon="-1.22425">
        <ele>33.2</ele>
        <time>2023-05-18T00:00:47Z</time>
      </trkpt>
      <trkpt lat="49.38114" lon="-1.22415">
        <ele>33.5</ele>
        <time>2023-05-18T00:00:51Z</time>
      </trkpt>
      <trkpt lat="49.38132" lon="-1.22403">
        <ele>33.8</ele>
        <time>2023-05-18T00:00:55Z</time>
      </trkpt>
      <trkpt lat="49.3815" lon="-1.22392">
        <ele>34.1</ele>
        <time>2023-05-18T00:00:59Z</time>
      </trkpt>
      <trkpt lat="49.38167" lon="-1.22377">
        <ele>34.4</ele>
        <time>2023-05-18T00:01:03Z</time>
      </trkpt>
      <trkpt lat="49.38185" lon="-1.22363">
        <ele>34.6</ele>
        <time>2023-05-18T00:01:07Z</time>
      </trkpt>
      <trkpt lat="49.38203" lon="-1.22348">
        <ele>34.7</ele>
        <time>2023-05-18T00:01:11Z</time>
      </trkpt>
      <trkpt lat="49.38222" lon="-1.22329">
        <ele>34.7</ele>
        <time>2023-05-18T00:01:15Z</time>
      </trkpt>
      <trkpt lat="49.38242" lon="-1.22312">
        <ele>34.7</ele>
        <time>2023-05-18T00:01:19Z</time>
      </trkpt>
      <trkpt lat="49.38262" lon="-1.22293">
        <ele>34.7</ele>
        <time>2023-05-18T00:01:23Z</time>
      </trkpt>
      <trkpt lat="49.38281" lon="-1.22274">
        <ele>34.7</ele>
        <time>2023-05-18T00:01:27Z</time>
      </trkpt>
      <trkpt lat="49.38301" lon="-1.22255">
        <ele>34.6</ele>
        <time>2023-05-18T00:01:31Z</time>
      </trkpt>
      <trkpt lat="49.3832" lon="-1.22237">
        <ele>34.5</ele>
        <time>2023-05-18T00:01:35Z</time>
      </trkpt>
      <trkpt lat="49.38339" lon="-1.22219">
        <ele>34.4</ele>
        <time>2023-05-18T00:01:39Z</time>
      </trkpt>
      <trkpt lat="49.38354" lon="-1.22206">
        <ele>34.3</ele>
        <time>2023-05-18T00:01:42Z</time>
      </trkpt>
      <trkpt lat="49.38371" lon="-1.2219">
        <ele>34.2</ele>
        <time>2023-05-18T00:01:45Z</time>
      </trkpt>
      <trkpt lat="49.38387" lon="-1.22173">
        <ele>34.1</ele>
        <time>2023-05-18T00:01:48Z</time>
      </trkpt>
      <trkpt lat="49.38403" lon="-1.22157">
        <ele>34.1</ele>
        <time>2023-05-18T00:01:51Z</time>
      </trkpt>
      <trkpt lat="49.3842" lon="-1.22142">
        <ele>34</ele>
        <time>2023-05-18T00:01:54Z</time>
      </trkpt>
      <trkpt lat="49.38435" lon="-1.22128">
        <ele>33.9</ele>
        <time>2023-05-18T00:01:57Z</time>
      </trkpt>
      <trkpt lat="49.38452" lon="-1.22112">
        <ele>33.8</ele>
        <time>2023-05-18T00:02:00Z</time>
      </trkpt>
      <trkpt lat="49.38468" lon="-1.22096">
        <ele>33.6</ele>
        <time>2023-05-18T00:02:03Z</time>
      </trkpt>
      <trkpt lat="49.38485" lon="-1.2208">
        <ele>33.4</ele>
        <time>2023-05-18T00:02:06Z</time>
      </trkpt>
      <trkpt lat="49.38501" lon="-1.22063">
        <ele>33.2</ele>
        <time>2023-05-18T00:02:09Z</time>
      </trkpt>
      <trkpt lat="49.38519" lon="-1.22047">
        <ele>32.9</ele>
        <time>2023-05-18T00:02:12Z</time>
      </trkpt>
      <trkpt lat="49.38536" lon="-1.22029">
        <ele>32.7</ele>
        <time>2023-05-18T00:02:15Z</time>
      </trkpt>
      <trkpt lat="49.38554" lon="-1.22013">
        <ele>32.5</ele>
        <time>2023-05-18T00:02:18Z</time>
      </trkpt>
      <trkpt lat="49.38571" lon="-1.21997">
        <ele>32.3</ele>
        <time>2023-05-18T00:02:21Z</time>
      </trkpt>
      <trkpt lat="49.38587" lon="-1.21982">
        <ele>32.3</ele>
        <time>2023-05-18T00:02:24Z</time>
      </trkpt>
      <trkpt lat="49.38604" lon="-1.21965">
        <ele>32.2</ele>
        <time>2023-05-18T00:02:27Z</time>
      </trkpt>
      <trkpt lat="49.38621" lon="-1.21948">
        <ele>32.2</ele>
        <time>2023-05-18T00:02:30Z</time>
      </trkpt>
      <trkpt lat="49.38637" lon="-1.21932">
        <ele>32.2</ele>
        <time>2023-05-18T00:02:33Z</time>
      </trkpt>
      <trkpt lat="49.38654" lon="-1.21916">
        <ele>32.2</ele>
        <time>2023-05-18T00:02:36Z</time>
      </trkpt>
      <trkpt lat="49.38671" lon="-1.219">
        <ele>32.4</ele>
        <time>2023-05-18T00:02:39Z</time>
      </trkpt>
      <trkpt lat="49.38686" lon="-1.21885">
        <ele>32.4</ele>
        <time>2023-05-18T00:02:42Z</time>
      </trkpt>
      <trkpt lat="49.38703" lon="-1.2187">
        <ele>32.5</ele>
        <time>2023-05-18T00:02:45Z</time>
      </trkpt>
      <trkpt lat="49.38719" lon="-1.21855">
        <ele>32.7</ele>
        <time>2023-05-18T00:02:48Z</time>
      </trkpt>
      <trkpt lat="49.38735" lon="-1.21841">
        <ele>32.7</ele>
        <time>2023-05-18T00:02:51Z</time>
      </trkpt>
      <trkpt lat="49.38751" lon="-1.21826">
        <ele>32.9</ele>
        <time>2023-05-18T00:02:54Z</time>
      </trkpt>
      <trkpt lat="49.38767" lon="-1.2181">
        <ele>33.1</ele>
        <time>2023-05-18T00:02:57Z</time>
      </trkpt>
      <trkpt lat="49.38783" lon="-1.21794">
        <ele>33.2</ele>
        <time>2023-05-18T00:03:00Z</time>
      </trkpt>
      <trkpt lat="49.38799" lon="-1.2178">
        <ele>33.4</ele>
        <time>2023-05-18T00:03:03Z</time>
      </trkpt>
      <trkpt lat="49.38816" lon="-1.21765">
        <ele>33.5</ele>
        <time>2023-05-18T00:03:06Z</time>
      </trkpt>
      <trkpt lat="49.38834" lon="-1.21748">
        <ele>33.7</ele>
        <time>2023-05-18T00:03:09Z</time>
      </trkpt>
      <trkpt lat="49.38853" lon="-1.21732">
        <ele>33.9</ele>
        <time>2023-05-18T00:03:12Z</time>
      </trkpt>
      <trkpt lat="49.38873" lon="-1.21714">
        <ele>34.2</ele>
        <time>2023-05-18T00:03:15Z</time>
      </trkpt>
      <trkpt lat="49.38891" lon="-1.21696">
        <ele>34.6</ele>
        <time>2023-05-18T00:03:18Z</time>
      </trkpt>
      <trkpt lat="49.38909" lon="-1.2168">
        <ele>35</ele>
        <time>2023-05-18T00:03:21Z</time>
      </trkpt>
      <trkpt lat="49.38926" lon="-1.21666">
        <ele>35.5</ele>
        <time>2023-05-18T00:03:24Z</time>
      </trkpt>
      <trkpt lat="49.38943" lon="-1.21649">
        <ele>35.9</ele>
        <time>2023-05-18T00:03:27Z</time>
      </trkpt>
      <trkpt lat="49.38959" lon="-1.21634">
        <ele>36.4</ele>
        <time>2023-05-18T00:03:30Z</time>
      </trkpt>
      <trkpt lat="49.38975" lon="-1.21619">
        <ele>36.7</ele>
        <time>2023-05-18T00:03:33Z</time>
      </trkpt>
      <trkpt lat="49.38991" lon="-1.21604">
        <ele>37</ele>
        <time>2023-05-18T00:03:36Z</time>
      </trkpt>
      <trkpt lat="49.39008" lon="-1.21587">
        <ele>37.2</ele>
        <time>2023-05-18T00:03:39Z</time>
      </trkpt>
      <trkpt lat="49.39025" lon="-1.21569">
        <ele>37.2</ele>
        <time>2023-05-18T00:03:42Z</time>
      </trkpt>
      <trkpt lat="49.39042" lon="-1.2155">
        <ele>37.1</ele>
        <time>2023-05-18T00:03:45Z</time>
      </trkpt>
      <trkpt lat="49.39058" lon="-1.21529">
        <ele>36.9</ele>
        <time>2023-05-18T00:03:48Z</time>
      </trkpt>
      <trkpt lat="49.39073" lon="-1.21506">
        <ele>36.7</ele>
        <time>2023-05-18T00:03:51Z</time>
      </trkpt>
      <trkpt lat="49.39088" lon="-1.21482">
        <ele>36.4</ele>
        <time>2023-05-18T00:03:54Z</time>
      </trkpt>
      <trkpt lat="49.39099" lon="-1.21456">
        <ele>36.1</ele>
        <time>2023-05-18T00:03:57Z</time>
      </trkpt>
      <trkpt lat="49.39109" lon="-1.21429">
        <ele>35.8</ele>
        <time>2023-05-18T00:04:00Z</time>
      </trkpt>
      <trkpt lat="49.39118" lon="-1.21402">
        <ele>35.6</ele>
        <time>2023-05-18T00:04:03Z</time>
      </trkpt>
      <trkpt lat="49.39127" lon="-1.21372">
        <ele>35.4</ele>
        <time>2023-05-18T00:04:06Z</time>
      </trkpt>
      <trkpt lat="49.39135" lon="-1.21343">
        <ele>35.2</ele>
        <time>2023-05-18T00:04:09Z</time>
      </trkpt>
      <trkpt lat="49.39143" lon="-1.21315">
        <ele>35</ele>
        <time>2023-05-18T00:04:12Z</time>
      </trkpt>
      <trkpt lat="49.39151" lon="-1.21287">
        <ele>34.8</ele>
        <time>2023-05-18T00:04:15Z</time>
      </trkpt>
      <trkpt lat="49.3916" lon="-1.21258">
        <ele>34.6</ele>
        <time>2023-05-18T00:04:18Z</time>
      </trkpt>
      <trkpt lat="49.39171" lon="-1.21227">
        <ele>34.5</ele>
        <time>2023-05-18T00:04:21Z</time>
      </trkpt>
      <trkpt lat="49.39181" lon="-1.21197">
        <ele>34.3</ele>
        <time>2023-05-18T00:04:24Z</time>
      </trkpt>
      <trkpt lat="49.39192" lon="-1.21168">
        <ele>34.1</ele>
        <time>2023-05-18T00:04:27Z</time>
      </trkpt>
      <trkpt lat="49.39203" lon="-1.21138">
        <ele>33.7</ele>
        <time>2023-05-18T00:04:30Z</time>
      </trkpt>
      <trkpt lat="49.39215" lon="-1.21107">
        <ele>33.2</ele>
        <time>2023-05-18T00:04:33Z</time>
      </trkpt>
      <trkpt lat="49.39227" lon="-1.21075">
        <ele>32.6</ele>
        <time>2023-05-18T00:04:36Z</time>
      </trkpt>
      <trkpt lat="49.3924" lon="-1.21043">
        <ele>31.8</ele>
        <time>2023-05-18T00:04:39Z</time>
      </trkpt>
      <trkpt lat="49.39255" lon="-1.21011">
        <ele>30.7</ele>
        <time>2023-05-18T00:04:42Z</time>
      </trkpt>
      <trkpt lat="49.39266" lon="-1.20988">
        <ele>29.9</ele>
        <time>2023-05-18T00:04:44Z</time>
      </trkpt>
      <trkpt lat="49.39276" lon="-1.20965">
        <ele>29.2</ele>
        <time>2023-05-18T00:04:46Z</time>
      </trkpt>
      <trkpt lat="49.39288" lon="-1.20941">
        <ele>28.5</ele>
        <time>2023-05-18T00:04:48Z</time>
      </trkpt>
      <trkpt lat="49.39299" lon="-1.20917">
        <ele>27.7</ele>
        <time>2023-05-18T00:04:50Z</time>
      </trkpt>
      <trkpt lat="49.39311" lon="-1.20893">
        <ele>27</ele>
        <time>2023-05-18T00:04:52Z</time>
      </trkpt>
      <trkpt lat="49.39323" lon="-1.20868">
        <ele>26.1</ele>
        <time>2023-05-18T00:04:54Z</time>
      </trkpt>
      <trkpt lat="49.39334" lon="-1.20842">
        <ele>25.3</ele>
        <time>2023-05-18T00:04:56Z</time>
      </trkpt>
      <trkpt lat="49.39346" lon="-1.20816">
        <ele>24.4</ele>
        <time>2023-05-18T00:04:58Z</time>
      </trkpt>
      <trkpt lat="49.39357" lon="-1.20789">
        <ele>23.6</ele>
        <time>2023-05-18T00:05:00Z</time>
      </trkpt>
      <trkpt lat="49.39369" lon="-1.20764">
        <ele>22.7</ele>
        <time>2023-05-18T00:05:02Z</time>
      </trkpt>
      <trkpt lat="49.39382" lon="-1.20738">
        <ele>21.9</ele>
        <time>2023-05-18T00:05:04Z</time>
      </trkpt>
      <trkpt lat="49.39394" lon="-1.20712">
        <ele>20.8</ele>
        <time>2023-05-18T00:05:06Z</time>
      </trkpt>
      <trkpt lat="49.39407" lon="-1.20686">
        <ele>19.8</ele>
        <time>2023-05-18T00:05:08Z</time>
      </trkpt>
      <trkpt lat="49.39419" lon="-1.2066">
        <ele>18.6</ele>
        <time>2023-05-18T00:05:10Z</time>
      </trkpt>
      <trkpt lat="49.39431" lon="-1.20633">
        <ele>17.4</ele>
        <time>2023-05-18T00:05:12Z</time>
      </trkpt>
      <trkpt lat="49.39444" lon="-1.20605">
        <ele>15.9</ele>
        <time>2023-05-18T00:05:14Z</time>
      </trkpt>
      <trkpt lat="49.39456" lon="-1.20577">
        <ele>14.4</ele>
        <time>2023-05-18T00:05:16Z</time>
      </trkpt>
      <trkpt lat="49.3947" lon="-1.20548">
        <ele>12.7</ele>
        <time>2023-05-18T00:05:18Z</time>
      </trkpt>
      <trkpt lat="49.39483" lon="-1.20516">
        <ele>10.9</ele>
        <time>2023-05-18T00:05:20Z</time>
      </trkpt>
      <trkpt lat="49.39497" lon="-1.20485">
        <ele>9.3</ele>
        <time>2023-05-18T00:05:22Z</time>
      </trkpt>
      <trkpt lat="49.39511" lon="-1.20452">
        <ele>7.9</ele>
        <time>2023-05-18T00:05:24Z</time>
      </trkpt>
      <trkpt lat="49.39524" lon="-1.20418">
        <ele>6.9</ele>
        <time>2023-05-18T00:05:26Z</time>
      </trkpt>
      <trkpt lat="49.39538" lon="-1.20385">
        <ele>6</ele>
        <time>2023-05-18T00:05:28Z</time>
      </trkpt>
      <trkpt lat="49.39551" lon="-1.20352">
        <ele>5.1</ele>
        <time>2023-05-18T00:05:30Z</time>
      </trkpt>
      <trkpt lat="49.39564" lon="-1.2032">
        <ele>4.4</ele>
        <time>2023-05-18T00:05:32Z</time>
      </trkpt>
      <trkpt lat="49.39577" lon="-1.2029">
        <ele>4</ele>
        <time>2023-05-18T00:05:34Z</time>
      </trkpt>
      <trkpt lat="49.39589" lon="-1.2026">
        <ele>3.7</ele>
        <time>2023-05-18T00:05:36Z</time>
      </trkpt>
      <trkpt lat="49.39602" lon="-1.20232">
        <ele>3.5</ele>
        <time>2023-05-18T00:05:38Z</time>
      </trkpt>
      <trkpt lat="49.39613" lon="-1.20203">
        <ele>3.4</ele>
        <time>2023-05-18T00:05:40Z</time>
      </trkpt>
      <trkpt lat="49.39625" lon="-1.20175">
        <ele>3.2</ele>
        <time>2023-05-18T00:05:42Z</time>
      </trkpt>
      <trkpt lat="49.39636" lon="-1.20149">
        <ele>3.1</ele>
        <time>2023-05-18T00:05:44Z</time>
      </trkpt>
      <trkpt lat="49.39647" lon="-1.20124">
        <ele>2.9</ele>
        <time>2023-05-18T00:05:46Z</time>
      </trkpt>
      <trkpt lat="49.3966" lon="-1.20102">
        <ele>2.8</ele>
        <time>2023-05-18T00:05:48Z</time>
      </trkpt>
      <trkpt lat="49.39673" lon="-1.20081">
        <ele>2.6</ele>
        <time>2023-05-18T00:05:50Z</time>
      </trkpt>
      <trkpt lat="49.39686" lon="-1.20061">
        <ele>2.6</ele>
        <time>2023-05-18T00:05:52Z</time>
      </trkpt>
      <trkpt lat="49.39701" lon="-1.20044">
        <ele>2.5</ele>
        <time>2023-05-18T00:05:54Z</time>
      </trkpt>
      <trkpt lat="49.39717" lon="-1.20028">
        <ele>2.4</ele>
        <time>2023-05-18T00:05:56Z</time>
      </trkpt>
      <trkpt lat="49.3974" lon="-1.2001">
        <ele>2.3</ele>
        <time>2023-05-18T00:05:59Z</time>
      </trkpt>
      <trkpt lat="49.39757" lon="-1.20002">
        <ele>2.2</ele>
        <time>2023-05-18T00:06:01Z</time>
      </trkpt>
      <trkpt lat="49.39776" lon="-1.19995">
        <ele>2.2</ele>
        <time>2023-05-18T00:06:03Z</time>
      </trkpt>
      <trkpt lat="49.39802" lon="-1.19988">
        <ele>2.2</ele>
        <time>2023-05-18T00:06:06Z</time>
      </trkpt>
      <trkpt lat="49.39829" lon="-1.19987">
        <ele>2.2</ele>
        <time>2023-05-18T00:06:09Z</time>
      </trkpt>
      <trkpt lat="49.39855" lon="-1.1999">
        <ele>2</ele>
        <time>2023-05-18T00:06:12Z</time>
      </trkpt>
      <trkpt lat="49.39873" lon="-1.19991">
        <ele>2</ele>
        <time>2023-05-18T00:06:14Z</time>
      </trkpt>
      <trkpt lat="49.39899" lon="-1.19995">
        <ele>2</ele>
        <time>2023-05-18T00:06:17Z</time>
      </trkpt>
      <trkpt lat="49.39923" lon="-1.19998">
        <ele>2</ele>
        <time>2023-05-18T00:06:20Z</time>
      </trkpt>
      <trkpt lat="49.39948" lon="-1.19997">
        <ele>2.1</ele>
        <time>2023-05-18T00:06:23Z</time>
      </trkpt>
      <trkpt lat="49.39972" lon="-1.19994">
        <ele>2.1</ele>
        <time>2023-05-18T00:06:26Z</time>
      </trkpt>
      <trkpt lat="49.39997" lon="-1.19986">
        <ele>2</ele>
        <time>2023-05-18T00:06:29Z</time>
      </trkpt>
      <trkpt lat="49.40021" lon="-1.19974">
        <ele>2</ele>
        <time>2023-05-18T00:06:32Z</time>
      </trkpt>
      <trkpt lat="49.40043" lon="-1.19956">
        <ele>2</ele>
        <time>2023-05-18T00:06:35Z</time>
      </trkpt>
      <trkpt lat="49.40065" lon="-1.19935">
        <ele>1.9</ele>
        <time>2023-05-18T00:06:38Z</time>
      </trkpt>
      <trkpt lat="49.40085" lon="-1.19912">
        <ele>1.8</ele>
        <time>2023-05-18T00:06:41Z</time>
      </trkpt>
      <trkpt lat="49.40104" lon="-1.19888">
        <ele>1.8</ele>
        <time>2023-05-18T00:06:44Z</time>
      </trkpt>
      <trkpt lat="49.40124" lon="-1.19865">
        <ele>1.9</ele>
        <time>2023-05-18T00:06:47Z</time>
      </trkpt>
      <trkpt lat="49.40143" lon="-1.19841">
        <ele>1.9</ele>
        <time>2023-05-18T00:06:50Z</time>
      </trkpt>
      <trkpt lat="49.40162" lon="-1.19818">
        <ele>2</ele>
        <time>2023-05-18T00:06:53Z</time>
      </trkpt>
      <trkpt lat="49.40181" lon="-1.19794">
        <ele>2</ele>
        <time>2023-05-18T00:06:56Z</time>
      </trkpt>
      <trkpt lat="49.402" lon="-1.1977">
        <ele>1.9</ele>
        <time>2023-05-18T00:06:59Z</time>
      </trkpt>
      <trkpt lat="49.40219" lon="-1.19746">
        <ele>1.8</ele>
        <time>2023-05-18T00:07:02Z</time>
      </trkpt>
      <trkpt lat="49.40238" lon="-1.19724">
        <ele>1.8</ele>
        <time>2023-05-18T00:07:05Z</time>
      </trkpt>
      <trkpt lat="49.40255" lon="-1.19702">
        <ele>1.8</ele>
        <time>2023-05-18T00:07:08Z</time>
      </trkpt>
      <trkpt lat="49.40272" lon="-1.19681">
        <ele>1.8</ele>
        <time>2023-05-18T00:07:11Z</time>
      </trkpt>
      <trkpt lat="49.4029" lon="-1.19659">
        <ele>1.8</ele>
        <time>2023-05-18T00:07:14Z</time>
      </trkpt>
      <trkpt lat="49.40307" lon="-1.19637">
        <ele>1.9</ele>
        <time>2023-05-18T00:07:17Z</time>
      </trkpt>
      <trkpt lat="49.40324" lon="-1.19616">
        <ele>2</ele>
        <time>2023-05-18T00:07:20Z</time>
      </trkpt>
      <trkpt lat="49.40342" lon="-1.19593">
        <ele>2</ele>
        <time>2023-05-18T00:07:23Z</time>
      </trkpt>
      <trkpt lat="49.40361" lon="-1.19571">
        <ele>2</ele>
        <time>2023-05-18T00:07:26Z</time>
      </trkpt>
      <trkpt lat="49.40378" lon="-1.19549">
        <ele>1.8</ele>
        <time>2023-05-18T00:07:29Z</time>
      </trkpt>
      <trkpt lat="49.40397" lon="-1.19527">
        <ele>1.6</ele>
        <time>2023-05-18T00:07:32Z</time>
      </trkpt>
      <trkpt lat="49.40415" lon="-1.19504">
        <ele>1.6</ele>
        <time>2023-05-18T00:07:35Z</time>
      </trkpt>
      <trkpt lat="49.40433" lon="-1.19482">
        <ele>1.6</ele>
        <time>2023-05-18T00:07:38Z</time>
      </trkpt>
      <trkpt lat="49.40452" lon="-1.19459">
        <ele>1.6</ele>
        <time>2023-05-18T00:07:41Z</time>
      </trkpt>
      <trkpt lat="49.4047" lon="-1.19436">
        <ele>1.6</ele>
        <time>2023-05-18T00:07:44Z</time>
      </trkpt>
      <trkpt lat="49.40488" lon="-1.19413">
        <ele>1.6</ele>
        <time>2023-05-18T00:07:47Z</time>
      </trkpt>
      <trkpt lat="49.40507" lon="-1.1939">
        <ele>1.6</ele>
        <time>2023-05-18T00:07:50Z</time>
      </trkpt>
      <trkpt lat="49.40525" lon="-1.19368">
        <ele>1.6</ele>
        <time>2023-05-18T00:07:53Z</time>
      </trkpt>
      <trkpt lat="49.40543" lon="-1.19347">
        <ele>1.6</ele>
        <time>2023-05-18T00:07:56Z</time>
      </trkpt>
      <trkpt lat="49.40562" lon="-1.19325">
        <ele>1.5</ele>
        <time>2023-05-18T00:07:59Z</time>
      </trkpt>
      <trkpt lat="49.40581" lon="-1.19303">
        <ele>1.4</ele>
        <time>2023-05-18T00:08:02Z</time>
      </trkpt>
      <trkpt lat="49.40599" lon="-1.1928">
        <ele>1.4</ele>
        <time>2023-05-18T00:08:05Z</time>
      </trkpt>
      <trkpt lat="49.40618" lon="-1.19258">
        <ele>1.3</ele>
        <time>2023-05-18T00:08:08Z</time>
      </trkpt>
      <trkpt lat="49.40636" lon="-1.19235">
        <ele>1.3</ele>
        <time>2023-05-18T00:08:11Z</time>
      </trkpt>
      <trkpt lat="49.40654" lon="-1.19213">
        <ele>1.4</ele>
        <time>2023-05-18T00:08:14Z</time>
      </trkpt>
      <trkpt lat="49.40672" lon="-1.19189">
        <ele>1.4</ele>
        <time>2023-05-18T00:08:17Z</time>
      </trkpt>
      <trkpt lat="49.40691" lon="-1.19167">
        <ele>1.4</ele>
        <time>2023-05-18T00:08:20Z</time>
      </trkpt>
      <trkpt lat="49.40709" lon="-1.19145">
        <ele>1.4</ele>
        <time>2023-05-18T00:08:23Z</time>
      </trkpt>
      <trkpt lat="49.40727" lon="-1.19121">
        <ele>1.4</ele>
        <time>2023-05-18T00:08:26Z</time>
      </trkpt>
      <trkpt lat="49.40745" lon="-1.19098">
        <ele>1.4</ele>
        <time>2023-05-18T00:08:29Z</time>
      </trkpt>
      <trkpt lat="49.40763" lon="-1.19074">
        <ele>1.5</ele>
        <time>2023-05-18T00:08:32Z</time>
      </trkpt>
      <trkpt lat="49.4078" lon="-1.1905">
        <ele>1.6</ele>
        <time>2023-05-18T00:08:35Z</time>
      </trkpt>
      <trkpt lat="49.40798" lon="-1.19028">
        <ele>1.7</ele>
        <time>2023-05-18T00:08:38Z</time>
      </trkpt>
      <trkpt lat="49.40815" lon="-1.19006">
        <ele>1.7</ele>
        <time>2023-05-18T00:08:41Z</time>
      </trkpt>
      <trkpt lat="49.40833" lon="-1.18985">
        <ele>1.7</ele>
        <time>2023-05-18T00:08:44Z</time>
      </trkpt>
      <trkpt lat="49.40851" lon="-1.18964">
        <ele>1.7</ele>
        <time>2023-05-18T00:08:47Z</time>
      </trkpt>
      <trkpt lat="49.40868" lon="-1.18942">
        <ele>1.7</ele>
        <time>2023-05-18T00:08:50Z</time>
      </trkpt>
      <trkpt lat="49.40886" lon="-1.18922">
        <ele>1.7</ele>
        <time>2023-05-18T00:08:53Z</time>
      </trkpt>
      <trkpt lat="49.40904" lon="-1.18901">
        <ele>1.6</ele>
        <time>2023-05-18T00:08:56Z</time>
      </trkpt>
      <trkpt lat="49.40923" lon="-1.18879">
        <ele>1.6</ele>
        <time>2023-05-18T00:08:59Z</time>
      </trkpt>
      <trkpt lat="49.40941" lon="-1.18857">
        <ele>1.5</ele>
        <time>2023-05-18T00:09:02Z</time>
      </trkpt>
      <trkpt lat="49.40959" lon="-1.18835">
        <ele>1.5</ele>
        <time>2023-05-18T00:09:05Z</time>
      </trkpt>
      <trkpt lat="49.40978" lon="-1.18813">
        <ele>1.4</ele>
        <time>2023-05-18T00:09:08Z</time>
      </trkpt>
      <trkpt lat="49.40997" lon="-1.18791">
        <ele>1.3</ele>
        <time>2023-05-18T00:09:11Z</time>
      </trkpt>
      <trkpt lat="49.41016" lon="-1.18769">
        <ele>1.3</ele>
        <time>2023-05-18T00:09:14Z</time>
      </trkpt>
      <trkpt lat="49.41035" lon="-1.18747">
        <ele>1.3</ele>
        <time>2023-05-18T00:09:17Z</time>
      </trkpt>
      <trkpt lat="49.41053" lon="-1.18726">
        <ele>1.3</ele>
        <time>2023-05-18T00:09:20Z</time>
      </trkpt>
      <trkpt lat="49.41071" lon="-1.18705">
        <ele>1.3</ele>
        <time>2023-05-18T00:09:23Z</time>
      </trkpt>
      <trkpt lat="49.4109" lon="-1.18685">
        <ele>1.4</ele>
        <time>2023-05-18T00:09:26Z</time>
      </trkpt>
      <trkpt lat="49.41108" lon="-1.18665">
        <ele>1.5</ele>
        <time>2023-05-18T00:09:29Z</time>
      </trkpt>
      <trkpt lat="49.41127" lon="-1.18645">
        <ele>1.7</ele>
        <time>2023-05-18T00:09:32Z</time>
      </trkpt>
      <trkpt lat="49.41145" lon="-1.18627">
        <ele>1.9</ele>
        <time>2023-05-18T00:09:35Z</time>
      </trkpt>
      <trkpt lat="49.41161" lon="-1.18607">
        <ele>2.2</ele>
        <time>2023-05-18T00:09:38Z</time>
      </trkpt>
      <trkpt lat="49.41178" lon="-1.18585">
        <ele>2.5</ele>
        <time>2023-05-18T00:09:41Z</time>
      </trkpt>
      <trkpt lat="49.41192" lon="-1.18561">
        <ele>2.8</ele>
        <time>2023-05-18T00:09:44Z</time>
      </trkpt>
      <trkpt lat="49.41205" lon="-1.18535">
        <ele>3.1</ele>
        <time>2023-05-18T00:09:47Z</time>
      </trkpt>
      <trkpt lat="49.41217" lon="-1.18508">
        <ele>3.2</ele>
        <time>2023-05-18T00:09:50Z</time>
      </trkpt>
      <trkpt lat="49.41227" lon="-1.18479">
        <ele>3.3</ele>
        <time>2023-05-18T00:09:53Z</time>
      </trkpt>
      <trkpt lat="49.41236" lon="-1.18449">
        <ele>3.5</ele>
        <time>2023-05-18T00:09:56Z</time>
      </trkpt>
      <trkpt lat="49.41245" lon="-1.1842">
        <ele>3.5</ele>
        <time>2023-05-18T00:09:59Z</time>
      </trkpt>
      <trkpt lat="49.41254" lon="-1.1839">
        <ele>3.5</ele>
        <time>2023-05-18T00:10:02Z</time>
      </trkpt>
      <trkpt lat="49.41264" lon="-1.18359">
        <ele>3.5</ele>
        <time>2023-05-18T00:10:05Z</time>
      </trkpt>
      <trkpt lat="49.41274" lon="-1.18329">
        <ele>3.4</ele>
        <time>2023-05-18T00:10:08Z</time>
      </trkpt>
      <trkpt lat="49.41285" lon="-1.18298">
        <ele>3.3</ele>
        <time>2023-05-18T00:10:11Z</time>
      </trkpt>
      <trkpt lat="49.41296" lon="-1.18269">
        <ele>3.4</ele>
        <time>2023-05-18T00:10:14Z</time>
      </trkpt>
      <trkpt lat="49.41307" lon="-1.18239">
        <ele>3.4</ele>
        <time>2023-05-18T00:10:17Z</time>
      </trkpt>
      <trkpt lat="49.41318" lon="-1.18208">
        <ele>3.3</ele>
        <time>2023-05-18T00:10:20Z</time>
      </trkpt>
      <trkpt lat="49.41329" lon="-1.18178">
        <ele>3.2</ele>
        <time>2023-05-18T00:10:23Z</time>
      </trkpt>
      <trkpt lat="49.41341" lon="-1.18148">
        <ele>3.1</ele>
        <time>2023-05-18T00:10:26Z</time>
      </trkpt>
      <trkpt lat="49.41352" lon="-1.18116">
        <ele>3.1</ele>
        <time>2023-05-18T00:10:29Z</time>
      </trkpt>
      <trkpt lat="49.41364" lon="-1.18085">
        <ele>3.1</ele>
        <time>2023-05-18T00:10:32Z</time>
      </trkpt>
      <trkpt lat="49.41375" lon="-1.18055">
        <ele>3.1</ele>
        <time>2023-05-18T00:10:35Z</time>
      </trkpt>
      <trkpt lat="49.41386" lon="-1.18024">
        <ele>3</ele>
        <time>2023-05-18T00:10:38Z</time>
      </trkpt>
      <trkpt lat="49.41398" lon="-1.17992">
        <ele>2.9</ele>
        <time>2023-05-18T00:10:41Z</time>
      </trkpt>
      <trkpt lat="49.4141" lon="-1.1796">
        <ele>2.9</ele>
        <time>2023-05-18T00:10:44Z</time>
      </trkpt>
      <trkpt lat="49.41422" lon="-1.17928">
        <ele>3</ele>
        <time>2023-05-18T00:10:47Z</time>
      </trkpt>
      <trkpt lat="49.41433" lon="-1.17897">
        <ele>3</ele>
        <time>2023-05-18T00:10:50Z</time>
      </trkpt>
      <trkpt lat="49.41444" lon="-1.17866">
        <ele>3</ele>
        <time>2023-05-18T00:10:53Z</time>
      </trkpt>
      <trkpt lat="49.41456" lon="-1.17835">
        <ele>2.8</ele>
        <time>2023-05-18T00:10:56Z</time>
      </trkpt>
      <trkpt lat="49.41467" lon="-1.17804">
        <ele>2.7</ele>
        <time>2023-05-18T00:10:59Z</time>
      </trkpt>
      <trkpt lat="49.41478" lon="-1.17775">
        <ele>2.7</ele>
        <time>2023-05-18T00:11:02Z</time>
      </trkpt>
      <trkpt lat="49.41488" lon="-1.17747">
        <ele>2.7</ele>
        <time>2023-05-18T00:11:05Z</time>
      </trkpt>
      <trkpt lat="49.41497" lon="-1.17722">
        <ele>2.9</ele>
        <time>2023-05-18T00:11:08Z</time>
      </trkpt>
      <trkpt lat="49.41511" lon="-1.17698">
        <ele>3.2</ele>
        <time>2023-05-18T00:11:12Z</time>
      </trkpt>
      <trkpt lat="49.4153" lon="-1.17707">
        <ele>3.1</ele>
        <time>2023-05-18T00:11:16Z</time>
      </trkpt>
      <trkpt lat="49.41551" lon="-1.17724">
        <ele>3.1</ele>
        <time>2023-05-18T00:11:20Z</time>
      </trkpt>
      <trkpt lat="49.41571" lon="-1.1774">
        <ele>3</ele>
        <time>2023-05-18T00:11:24Z</time>
      </trkpt>
      <trkpt lat="49.41592" lon="-1.17757">
        <ele>3.2</ele>
        <time>2023-05-18T00:11:28Z</time>
      </trkpt>
      <trkpt lat="49.41613" lon="-1.17751">
        <ele>3.3</ele>
        <time>2023-05-18T00:11:32Z</time>
      </trkpt>
      <trkpt lat="49.41626" lon="-1.1773">
        <ele>3.3</ele>
        <time>2023-05-18T00:11:35Z</time>
      </trkpt>
      <trkpt lat="49.41635" lon="-1.17705">
        <ele>3.4</ele>
        <time>2023-05-18T00:11:38Z</time>
      </trkpt>
      <trkpt lat="49.41645" lon="-1.17682">
        <ele>3.5</ele>
        <time>2023-05-18T00:11:41Z</time>
      </trkpt>
      <trkpt lat="49.41667" lon="-1.17674">
        <ele>3.5</ele>
        <time>2023-05-18T00:11:45Z</time>
      </trkpt>
      <trkpt lat="49.41684" lon="-1.17686">
        <ele>3.4</ele>
        <time>2023-05-18T00:11:48Z</time>
      </trkpt>
      <trkpt lat="49.41699" lon="-1.17702">
        <ele>3.3</ele>
        <time>2023-05-18T00:11:51Z</time>
      </trkpt>
      <trkpt lat="49.41714" lon="-1.17717">
        <ele>3.2</ele>
        <time>2023-05-18T00:11:54Z</time>
      </trkpt>
      <trkpt lat="49.41731" lon="-1.17733">
        <ele>3.2</ele>
        <time>2023-05-18T00:11:57Z</time>
      </trkpt>
      <trkpt lat="49.41747" lon="-1.17748">
        <ele>3.2</ele>
        <time>2023-05-18T00:12:00Z</time>
      </trkpt>
      <trkpt lat="49.41763" lon="-1.17763">
        <ele>3.2</ele>
        <time>2023-05-18T00:12:03Z</time>
      </trkpt>
      <trkpt lat="49.4178" lon="-1.17779">
        <ele>3.2</ele>
        <time>2023-05-18T00:12:06Z</time>
      </trkpt>
      <trkpt lat="49.41797" lon="-1.17795">
        <ele>3.3</ele>
        <time>2023-05-18T00:12:09Z</time>
      </trkpt>
      <trkpt lat="49.41814" lon="-1.17811">
        <ele>3.4</ele>
        <time>2023-05-18T00:12:12Z</time>
      </trkpt>
      <trkpt lat="49.4183" lon="-1.17826">
        <ele>3.4</ele>
        <time>2023-05-18T00:12:15Z</time>
      </trkpt>
      <trkpt lat="49.41847" lon="-1.17841">
        <ele>3.4</ele>
        <time>2023-05-18T00:12:18Z</time>
      </trkpt>
      <trkpt lat="49.41864" lon="-1.17855">
        <ele>3.4</ele>
        <time>2023-05-18T00:12:21Z</time>
      </trkpt>
      <trkpt lat="49.41881" lon="-1.17871">
        <ele>3.5</ele>
        <time>2023-05-18T00:12:24Z</time>
      </trkpt>
      <trkpt lat="49.41897" lon="-1.17887">
        <ele>3.5</ele>
        <time>2023-05-18T00:12:27Z</time>
      </trkpt>
      <trkpt lat="49.41914" lon="-1.17903">
        <ele>3.5</ele>
        <time>2023-05-18T00:12:30Z</time>
      </trkpt>
      <trkpt lat="49.4193" lon="-1.1792">
        <ele>3.6</ele>
        <time>2023-05-18T00:12:33Z</time>
      </trkpt>
      <trkpt lat="49.41946" lon="-1.17935">
        <ele>3.6</ele>
        <time>2023-05-18T00:12:36Z</time>
      </trkpt>
      <trkpt lat="49.41963" lon="-1.17951">
        <ele>3.7</ele>
        <time>2023-05-18T00:12:39Z</time>
      </trkpt>
      <trkpt lat="49.41981" lon="-1.17966">
        <ele>3.6</ele>
        <time>2023-05-18T00:12:42Z</time>
      </trkpt>
      <trkpt lat="49.41999" lon="-1.17982">
        <ele>3.5</ele>
        <time>2023-05-18T00:12:45Z</time>
      </trkpt>
      <trkpt lat="49.42015" lon="-1.18002">
        <ele>3.6</ele>
        <time>2023-05-18T00:12:48Z</time>
      </trkpt>
      <trkpt lat="49.42032" lon="-1.18023">
        <ele>3.5</ele>
        <time>2023-05-18T00:12:51Z</time>
      </trkpt>
      <trkpt lat="49.4205" lon="-1.18045">
        <ele>3.4</ele>
        <time>2023-05-18T00:12:54Z</time>
      </trkpt>
      <trkpt lat="49.42066" lon="-1.18067">
        <ele>3.3</ele>
        <time>2023-05-18T00:12:57Z</time>
      </trkpt>
      <trkpt lat="49.42084" lon="-1.18089">
        <ele>3.2</ele>
        <time>2023-05-18T00:13:00Z</time>
      </trkpt>
      <trkpt lat="49.421" lon="-1.18112">
        <ele>3.2</ele>
        <time>2023-05-18T00:13:03Z</time>
      </trkpt>
      <trkpt lat="49.42116" lon="-1.18134">
        <ele>3.1</ele>
        <time>2023-05-18T00:13:06Z</time>
      </trkpt>
      <trkpt lat="49.42132" lon="-1.18155">
        <ele>3</ele>
        <time>2023-05-18T00:13:09Z</time>
      </trkpt>
      <trkpt lat="49.42149" lon="-1.18177">
        <ele>2.9</ele>
        <time>2023-05-18T00:13:12Z</time>
      </trkpt>
      <trkpt lat="49.42167" lon="-1.18198">
        <ele>2.8</ele>
        <time>2023-05-18T00:13:15Z</time>
      </trkpt>
      <trkpt lat="49.42185" lon="-1.18216">
        <ele>2.8</ele>
        <time>2023-05-18T00:13:18Z</time>
      </trkpt>
      <trkpt lat="49.42205" lon="-1.18233">
        <ele>2.9</ele>
        <time>2023-05-18T00:13:21Z</time>
      </trkpt>
      <trkpt lat="49.42224" lon="-1.1825">
        <ele>2.9</ele>
        <time>2023-05-18T00:13:24Z</time>
      </trkpt>
      <trkpt lat="49.42243" lon="-1.18265">
        <ele>3</ele>
        <time>2023-05-18T00:13:27Z</time>
      </trkpt>
      <trkpt lat="49.42262" lon="-1.18281">
        <ele>3.2</ele>
        <time>2023-05-18T00:13:30Z</time>
      </trkpt>
      <trkpt lat="49.42281" lon="-1.18297">
        <ele>3.5</ele>
        <time>2023-05-18T00:13:33Z</time>
      </trkpt>
      <trkpt lat="49.42298" lon="-1.18313">
        <ele>3.6</ele>
        <time>2023-05-18T00:13:36Z</time>
      </trkpt>
      <trkpt lat="49.42315" lon="-1.18332">
        <ele>3.6</ele>
        <time>2023-05-18T00:13:39Z</time>
      </trkpt>
      <trkpt lat="49.42332" lon="-1.1835">
        <ele>3.5</ele>
        <time>2023-05-18T00:13:42Z</time>
      </trkpt>
      <trkpt lat="49.4235" lon="-1.1837">
        <ele>3.3</ele>
        <time>2023-05-18T00:13:45Z</time>
      </trkpt>
      <trkpt lat="49.42368" lon="-1.18389">
        <ele>3.1</ele>
        <time>2023-05-18T00:13:48Z</time>
      </trkpt>
      <trkpt lat="49.42386" lon="-1.18408">
        <ele>3.1</ele>
        <time>2023-05-18T00:13:51Z</time>
      </trkpt>
      <trkpt lat="49.42404" lon="-1.18428">
        <ele>3</ele>
        <time>2023-05-18T00:13:54Z</time>
      </trkpt>
      <trkpt lat="49.42421" lon="-1.18448">
        <ele>3</ele>
        <time>2023-05-18T00:13:57Z</time>
      </trkpt>
      <trkpt lat="49.4244" lon="-1.18467">
        <ele>2.9</ele>
        <time>2023-05-18T00:14:00Z</time>
      </trkpt>
      <trkpt lat="49.42458" lon="-1.18486">
        <ele>2.9</ele>
        <time>2023-05-18T00:14:03Z</time>
      </trkpt>
      <trkpt lat="49.42475" lon="-1.18505">
        <ele>2.8</ele>
        <time>2023-05-18T00:14:06Z</time>
      </trkpt>
      <trkpt lat="49.42492" lon="-1.18525">
        <ele>2.8</ele>
        <time>2023-05-18T00:14:09Z</time>
      </trkpt>
      <trkpt lat="49.4251" lon="-1.18543">
        <ele>2.8</ele>
        <time>2023-05-18T00:14:12Z</time>
      </trkpt>
      <trkpt lat="49.42528" lon="-1.18562">
        <ele>2.9</ele>
        <time>2023-05-18T00:14:15Z</time>
      </trkpt>
      <trkpt lat="49.42546" lon="-1.18582">
        <ele>3</ele>
        <time>2023-05-18T00:14:18Z</time>
      </trkpt>
      <trkpt lat="49.42562" lon="-1.186">
        <ele>3</ele>
        <time>2023-05-18T00:14:21Z</time>
      </trkpt>
      <trkpt lat="49.42579" lon="-1.18619">
        <ele>3.1</ele>
        <time>2023-05-18T00:14:24Z</time>
      </trkpt>
      <trkpt lat="49.42596" lon="-1.18638">
        <ele>3.1</ele>
        <time>2023-05-18T00:14:27Z</time>
      </trkpt>
      <trkpt lat="49.42614" lon="-1.18657">
        <ele>3.1</ele>
        <time>2023-05-18T00:14:30Z</time>
      </trkpt>
      <trkpt lat="49.42631" lon="-1.18676">
        <ele>3.1</ele>
        <time>2023-05-18T00:14:33Z</time>
      </trkpt>
      <trkpt lat="49.42647" lon="-1.18694">
        <ele>3.2</ele>
        <time>2023-05-18T00:14:36Z</time>
      </trkpt>
      <trkpt lat="49.42665" lon="-1.18712">
        <ele>3.3</ele>
        <time>2023-05-18T00:14:39Z</time>
      </trkpt>
      <trkpt lat="49.42682" lon="-1.18731">
        <ele>3.4</ele>
        <time>2023-05-18T00:14:42Z</time>
      </trkpt>
      <trkpt lat="49.42699" lon="-1.18748">
        <ele>3.5</ele>
        <time>2023-05-18T00:14:45Z</time>
      </trkpt>
      <trkpt lat="49.42716" lon="-1.18764">
        <ele>3.6</ele>
        <time>2023-05-18T00:14:48Z</time>
      </trkpt>
      <trkpt lat="49.42733" lon="-1.18781">
        <ele>3.8</ele>
        <time>2023-05-18T00:14:51Z</time>
      </trkpt>
      <trkpt lat="49.4275" lon="-1.18797">
        <ele>3.9</ele>
        <time>2023-05-18T00:14:54Z</time>
      </trkpt>
      <trkpt lat="49.42767" lon="-1.18813">
        <ele>3.9</ele>
        <time>2023-05-18T00:14:57Z</time>
      </trkpt>
      <trkpt lat="49.42785" lon="-1.1883">
        <ele>3.8</ele>
        <time>2023-05-18T00:15:00Z</time>
      </trkpt>
      <trkpt lat="49.42801" lon="-1.18849">
        <ele>3.7</ele>
        <time>2023-05-18T00:15:03Z</time>
      </trkpt>
      <trkpt lat="49.42817" lon="-1.1887">
        <ele>3.6</ele>
        <time>2023-05-18T00:15:06Z</time>
      </trkpt>
      <trkpt lat="49.42831" lon="-1.18893">
        <ele>3.4</ele>
        <time>2023-05-18T00:15:09Z</time>
      </trkpt>
      <trkpt lat="49.42845" lon="-1.1892">
        <ele>3.2</ele>
        <time>2023-05-18T00:15:12Z</time>
      </trkpt>
      <trkpt lat="49.42856" lon="-1.18948">
        <ele>3</ele>
        <time>2023-05-18T00:15:15Z</time>
      </trkpt>
      <trkpt lat="49.42867" lon="-1.18979">
        <ele>2.8</ele>
        <time>2023-05-18T00:15:18Z</time>
      </trkpt>
      <trkpt lat="49.42875" lon="-1.19011">
        <ele>2.7</ele>
        <time>2023-05-18T00:15:21Z</time>
      </trkpt>
      <trkpt lat="49.42881" lon="-1.19045">
        <ele>2.6</ele>
        <time>2023-05-18T00:15:24Z</time>
      </trkpt>
      <trkpt lat="49.42888" lon="-1.19079">
        <ele>2.7</ele>
        <time>2023-05-18T00:15:27Z</time>
      </trkpt>
      <trkpt lat="49.42895" lon="-1.19113">
        <ele>2.7</ele>
        <time>2023-05-18T00:15:30Z</time>
      </trkpt>
      <trkpt lat="49.42902" lon="-1.19146">
        <ele>2.6</ele>
        <time>2023-05-18T00:15:33Z</time>
      </trkpt>
      <trkpt lat="49.42909" lon="-1.19179">
        <ele>2.7</ele>
        <time>2023-05-18T00:15:36Z</time>
      </trkpt>
      <trkpt lat="49.42916" lon="-1.19211">
        <ele>2.8</ele>
        <time>2023-05-18T00:15:39Z</time>
      </trkpt>
      <trkpt lat="49.42922" lon="-1.19244">
        <ele>2.8</ele>
        <time>2023-05-18T00:15:42Z</time>
      </trkpt>
      <trkpt lat="49.42928" lon="-1.19276">
        <ele>2.9</ele>
        <time>2023-05-18T00:15:45Z</time>
      </trkpt>
      <trkpt lat="49.42935" lon="-1.19309">
        <ele>2.9</ele>
        <time>2023-05-18T00:15:48Z</time>
      </trkpt>
      <trkpt lat="49.42941" lon="-1.19341">
        <ele>3</ele>
        <time>2023-05-18T00:15:51Z</time>
      </trkpt>
      <trkpt lat="49.42951" lon="-1.19371">
        <ele>3</ele>
        <time>2023-05-18T00:15:54Z</time>
      </trkpt>
      <trkpt lat="49.42963" lon="-1.194">
        <ele>3</ele>
        <time>2023-05-18T00:15:57Z</time>
      </trkpt>
      <trkpt lat="49.42976" lon="-1.19426">
        <ele>3</ele>
        <time>2023-05-18T00:16:00Z</time>
      </trkpt>
      <trkpt lat="49.42992" lon="-1.19448">
        <ele>2.9</ele>
        <time>2023-05-18T00:16:03Z</time>
      </trkpt>
      <trkpt lat="49.43009" lon="-1.19469">
        <ele>2.8</ele>
        <time>2023-05-18T00:16:06Z</time>
      </trkpt>
      <trkpt lat="49.43027" lon="-1.1949">
        <ele>2.8</ele>
        <time>2023-05-18T00:16:09Z</time>
      </trkpt>
      <trkpt lat="49.43045" lon="-1.19513">
        <ele>3</ele>
        <time>2023-05-18T00:16:12Z</time>
      </trkpt>
      <trkpt lat="49.43062" lon="-1.19534">
        <ele>3.2</ele>
        <time>2023-05-18T00:16:15Z</time>
      </trkpt>
      <trkpt lat="49.43079" lon="-1.19555">
        <ele>3.3</ele>
        <time>2023-05-18T00:16:18Z</time>
      </trkpt>
      <trkpt lat="49.43096" lon="-1.19576">
        <ele>3.3</ele>
        <time>2023-05-18T00:16:21Z</time>
      </trkpt>
      <trkpt lat="49.43113" lon="-1.19597">
        <ele>3.2</ele>
        <time>2023-05-18T00:16:24Z</time>
      </trkpt>
      <trkpt lat="49.43131" lon="-1.19619">
        <ele>3.1</ele>
        <time>2023-05-18T00:16:27Z</time>
      </trkpt>
      <trkpt lat="49.43148" lon="-1.19641">
        <ele>3</ele>
        <time>2023-05-18T00:16:30Z</time>
      </trkpt>
      <trkpt lat="49.43165" lon="-1.19662">
        <ele>2.9</ele>
        <time>2023-05-18T00:16:33Z</time>
      </trkpt>
      <trkpt lat="49.43183" lon="-1.19684">
        <ele>2.8</ele>
        <time>2023-05-18T00:16:36Z</time>
      </trkpt>
      <trkpt lat="49.43201" lon="-1.19706">
        <ele>2.6</ele>
        <time>2023-05-18T00:16:39Z</time>
      </trkpt>
      <trkpt lat="49.43219" lon="-1.19728">
        <ele>2.5</ele>
        <time>2023-05-18T00:16:42Z</time>
      </trkpt>
      <trkpt lat="49.4324" lon="-1.19747">
        <ele>2.4</ele>
        <time>2023-05-18T00:16:45Z</time>
      </trkpt>
      <trkpt lat="49.43261" lon="-1.19763">
        <ele>2.2</ele>
        <time>2023-05-18T00:16:48Z</time>
      </trkpt>
      <trkpt lat="49.43284" lon="-1.19774">
        <ele>2.2</ele>
        <time>2023-05-18T00:16:51Z</time>
      </trkpt>
      <trkpt lat="49.43306" lon="-1.19785">
        <ele>2.3</ele>
        <time>2023-05-18T00:16:54Z</time>
      </trkpt>
      <trkpt lat="49.43327" lon="-1.19797">
        <ele>2.4</ele>
        <time>2023-05-18T00:16:57Z</time>
      </trkpt>
      <trkpt lat="49.43346" lon="-1.1981">
        <ele>2.5</ele>
        <time>2023-05-18T00:17:00Z</time>
      </trkpt>
      <trkpt lat="49.43365" lon="-1.19827">
        <ele>2.5</ele>
        <time>2023-05-18T00:17:03Z</time>
      </trkpt>
      <trkpt lat="49.43382" lon="-1.19848">
        <ele>2.5</ele>
        <time>2023-05-18T00:17:06Z</time>
      </trkpt>
      <trkpt lat="49.43399" lon="-1.19868">
        <ele>2.5</ele>
        <time>2023-05-18T00:17:09Z</time>
      </trkpt>
      <trkpt lat="49.43416" lon="-1.19889">
        <ele>2.5</ele>
        <time>2023-05-18T00:17:12Z</time>
      </trkpt>
      <trkpt lat="49.43432" lon="-1.1991">
        <ele>2.4</ele>
        <time>2023-05-18T00:17:15Z</time>
      </trkpt>
      <trkpt lat="49.43447" lon="-1.19932">
        <ele>2.3</ele>
        <time>2023-05-18T00:17:18Z</time>
      </trkpt>
      <trkpt lat="49.43463" lon="-1.19957">
        <ele>2.2</ele>
        <time>2023-05-18T00:17:21Z</time>
      </trkpt>
      <trkpt lat="49.43477" lon="-1.19985">
        <ele>2.2</ele>
        <time>2023-05-18T00:17:24Z</time>
      </trkpt>
      <trkpt lat="49.43489" lon="-1.20012">
        <ele>2.1</ele>
        <time>2023-05-18T00:17:27Z</time>
      </trkpt>
      <trkpt lat="49.43499" lon="-1.20041">
        <ele>2.3</ele>
        <time>2023-05-18T00:17:30Z</time>
      </trkpt>
      <trkpt lat="49.4351" lon="-1.2007">
        <ele>2.4</ele>
        <time>2023-05-18T00:17:33Z</time>
      </trkpt>
      <trkpt lat="49.4352" lon="-1.20097">
        <ele>2.5</ele>
        <time>2023-05-18T00:17:36Z</time>
      </trkpt>
      <trkpt lat="49.43534" lon="-1.20122">
        <ele>2.5</ele>
        <time>2023-05-18T00:17:39Z</time>
      </trkpt>
      <trkpt lat="49.43549" lon="-1.20143">
        <ele>2.4</ele>
        <time>2023-05-18T00:17:42Z</time>
      </trkpt>
      <trkpt lat="49.43566" lon="-1.20162">
        <ele>2.5</ele>
        <time>2023-05-18T00:17:45Z</time>
      </trkpt>
      <trkpt lat="49.43584" lon="-1.20179">
        <ele>2.5</ele>
        <time>2023-05-18T00:17:48Z</time>
      </trkpt>
      <trkpt lat="49.43601" lon="-1.20196">
        <ele>2.6</ele>
        <time>2023-05-18T00:17:51Z</time>
      </trkpt>
      <trkpt lat="49.43617" lon="-1.20214">
        <ele>2.7</ele>
        <time>2023-05-18T00:17:54Z</time>
      </trkpt>
      <trkpt lat="49.43631" lon="-1.20233">
        <ele>2.7</ele>
        <time>2023-05-18T00:17:57Z</time>
      </trkpt>
      <trkpt lat="49.43643" lon="-1.20257">
        <ele>2.7</ele>
        <time>2023-05-18T00:18:00Z</time>
      </trkpt>
      <trkpt lat="49.43654" lon="-1.20285">
        <ele>2.7</ele>
        <time>2023-05-18T00:18:03Z</time>
      </trkpt>
      <trkpt lat="49.43663" lon="-1.20316">
        <ele>2.6</ele>
        <time>2023-05-18T00:18:06Z</time>
      </trkpt>
      <trkpt lat="49.4367" lon="-1.20348">
        <ele>2.5</ele>
        <time>2023-05-18T00:18:09Z</time>
      </trkpt>
      <trkpt lat="49.43677" lon="-1.2038">
        <ele>2.4</ele>
        <time>2023-05-18T00:18:12Z</time>
      </trkpt>
      <trkpt lat="49.43686" lon="-1.20412">
        <ele>2.2</ele>
        <time>2023-05-18T00:18:15Z</time>
      </trkpt>
      <trkpt lat="49.43695" lon="-1.20443">
        <ele>2</ele>
        <time>2023-05-18T00:18:18Z</time>
      </trkpt>
      <trkpt lat="49.43706" lon="-1.20471">
        <ele>1.8</ele>
        <time>2023-05-18T00:18:21Z</time>
      </trkpt>
      <trkpt lat="49.4372" lon="-1.20498">
        <ele>1.8</ele>
        <time>2023-05-18T00:18:24Z</time>
      </trkpt>
      <trkpt lat="49.43734" lon="-1.20523">
        <ele>1.8</ele>
        <time>2023-05-18T00:18:27Z</time>
      </trkpt>
      <trkpt lat="49.43748" lon="-1.20549">
        <ele>1.8</ele>
        <time>2023-05-18T00:18:30Z</time>
      </trkpt>
      <trkpt lat="49.43762" lon="-1.20575">
        <ele>1.8</ele>
        <time>2023-05-18T00:18:33Z</time>
      </trkpt>
      <trkpt lat="49.43776" lon="-1.20598">
        <ele>1.8</ele>
        <time>2023-05-18T00:18:36Z</time>
      </trkpt>
      <trkpt lat="49.43792" lon="-1.20621">
        <ele>1.9</ele>
        <time>2023-05-18T00:18:39Z</time>
      </trkpt>
      <trkpt lat="49.43809" lon="-1.20639">
        <ele>2</ele>
        <time>2023-05-18T00:18:42Z</time>
      </trkpt>
      <trkpt lat="49.43827" lon="-1.20654">
        <ele>2</ele>
        <time>2023-05-18T00:18:45Z</time>
      </trkpt>
      <trkpt lat="49.43847" lon="-1.20666">
        <ele>1.9</ele>
        <time>2023-05-18T00:18:48Z</time>
      </trkpt>
      <trkpt lat="49.43867" lon="-1.20676">
        <ele>1.8</ele>
        <time>2023-05-18T00:18:51Z</time>
      </trkpt>
      <trkpt lat="49.43888" lon="-1.20685">
        <ele>1.7</ele>
        <time>2023-05-18T00:18:54Z</time>
      </trkpt>
      <trkpt lat="49.43908" lon="-1.20694">
        <ele>1.8</ele>
        <time>2023-05-18T00:18:57Z</time>
      </trkpt>
      <trkpt lat="49.43928" lon="-1.20704">
        <ele>1.9</ele>
        <time>2023-05-18T00:19:00Z</time>
      </trkpt>
      <trkpt lat="49.43949" lon="-1.20713">
        <ele>2</ele>
        <time>2023-05-18T00:19:03Z</time>
      </trkpt>
      <trkpt lat="49.43969" lon="-1.20722">
        <ele>2</ele>
        <time>2023-05-18T00:19:06Z</time>
      </trkpt>
      <trkpt lat="49.43989" lon="-1.20731">
        <ele>2.2</ele>
        <time>2023-05-18T00:19:09Z</time>
      </trkpt>
      <trkpt lat="49.44009" lon="-1.20741">
        <ele>2.2</ele>
        <time>2023-05-18T00:19:12Z</time>
      </trkpt>
      <trkpt lat="49.44029" lon="-1.20749">
        <ele>2.3</ele>
        <time>2023-05-18T00:19:15Z</time>
      </trkpt>
      <trkpt lat="49.44049" lon="-1.2076">
        <ele>2.4</ele>
        <time>2023-05-18T00:19:18Z</time>
      </trkpt>
      <trkpt lat="49.44069" lon="-1.20768">
        <ele>2.6</ele>
        <time>2023-05-18T00:19:21Z</time>
      </trkpt>
      <trkpt lat="49.44088" lon="-1.20777">
        <ele>2.7</ele>
        <time>2023-05-18T00:19:24Z</time>
      </trkpt>
      <trkpt lat="49.44108" lon="-1.20789">
        <ele>2.7</ele>
        <time>2023-05-18T00:19:27Z</time>
      </trkpt>
      <trkpt lat="49.44127" lon="-1.20804">
        <ele>2.6</ele>
        <time>2023-05-18T00:19:30Z</time>
      </trkpt>
      <trkpt lat="49.44147" lon="-1.2082">
        <ele>2.5</ele>
        <time>2023-05-18T00:19:33Z</time>
      </trkpt>
      <trkpt lat="49.44167" lon="-1.20838">
        <ele>2.5</ele>
        <time>2023-05-18T00:19:36Z</time>
      </trkpt>
      <trkpt lat="49.44185" lon="-1.20856">
        <ele>2.5</ele>
        <time>2023-05-18T00:19:39Z</time>
      </trkpt>
      <trkpt lat="49.44204" lon="-1.20872">
        <ele>2.6</ele>
        <time>2023-05-18T00:19:42Z</time>
      </trkpt>
      <trkpt lat="49.44222" lon="-1.20886">
        <ele>2.7</ele>
        <time>2023-05-18T00:19:45Z</time>
      </trkpt>
      <trkpt lat="49.44241" lon="-1.20898">
        <ele>2.7</ele>
        <time>2023-05-18T00:19:48Z</time>
      </trkpt>
      <trkpt lat="49.44261" lon="-1.2091">
        <ele>2.6</ele>
        <time>2023-05-18T00:19:51Z</time>
      </trkpt>
      <trkpt lat="49.4428" lon="-1.20925">
        <ele>2.7</ele>
        <time>2023-05-18T00:19:54Z</time>
      </trkpt>
      <trkpt lat="49.44299" lon="-1.20939">
        <ele>2.7</ele>
        <time>2023-05-18T00:19:57Z</time>
      </trkpt>
      <trkpt lat="49.44318" lon="-1.20953">
        <ele>2.7</ele>
        <time>2023-05-18T00:20:00Z</time>
      </trkpt>
      <trkpt lat="49.44335" lon="-1.20969">
        <ele>2.7</ele>
        <time>2023-05-18T00:20:03Z</time>
      </trkpt>
      <trkpt lat="49.44353" lon="-1.20987">
        <ele>2.7</ele>
        <time>2023-05-18T00:20:06Z</time>
      </trkpt>
      <trkpt lat="49.44369" lon="-1.21007">
        <ele>2.7</ele>
        <time>2023-05-18T00:20:09Z</time>
      </trkpt>
      <trkpt lat="49.44381" lon="-1.21031">
        <ele>2.6</ele>
        <time>2023-05-18T00:20:12Z</time>
      </trkpt>
      <trkpt lat="49.44388" lon="-1.2106">
        <ele>2.6</ele>
        <time>2023-05-18T00:20:15Z</time>
      </trkpt>
      <trkpt lat="49.44391" lon="-1.21092">
        <ele>2.6</ele>
        <time>2023-05-18T00:20:18Z</time>
      </trkpt>
      <trkpt lat="49.4439" lon="-1.21123">
        <ele>2.6</ele>
        <time>2023-05-18T00:20:21Z</time>
      </trkpt>
      <trkpt lat="49.44386" lon="-1.2115">
        <ele>2.6</ele>
        <time>2023-05-18T00:20:24Z</time>
      </trkpt>
      <trkpt lat="49.44381" lon="-1.21179">
        <ele>2.7</ele>
        <time>2023-05-18T00:20:27Z</time>
      </trkpt>
      <trkpt lat="49.44381" lon="-1.2121">
        <ele>2.7</ele>
        <time>2023-05-18T00:20:30Z</time>
      </trkpt>
      <trkpt lat="49.44388" lon="-1.21237">
        <ele>2.6</ele>
        <time>2023-05-18T00:20:33Z</time>
      </trkpt>
      <trkpt lat="49.444" lon="-1.21262">
        <ele>2.6</ele>
        <time>2023-05-18T00:20:36Z</time>
      </trkpt>
      <trkpt lat="49.44417" lon="-1.21281">
        <ele>2.6</ele>
        <time>2023-05-18T00:20:39Z</time>
      </trkpt>
      <trkpt lat="49.44437" lon="-1.21291">
        <ele>2.5</ele>
        <time>2023-05-18T00:20:42Z</time>
      </trkpt>
      <trkpt lat="49.44458" lon="-1.21295">
        <ele>2.4</ele>
        <time>2023-05-18T00:20:45Z</time>
      </trkpt>
      <trkpt lat="49.44479" lon="-1.21297">
        <ele>2.4</ele>
        <time>2023-05-18T00:20:48Z</time>
      </trkpt>
      <trkpt lat="49.44499" lon="-1.21301">
        <ele>2.4</ele>
        <time>2023-05-18T00:20:51Z</time>
      </trkpt>
      <trkpt lat="49.44521" lon="-1.21306">
        <ele>2.4</ele>
        <time>2023-05-18T00:20:54Z</time>
      </trkpt>
      <trkpt lat="49.44541" lon="-1.21313">
        <ele>2.4</ele>
        <time>2023-05-18T00:20:57Z</time>
      </trkpt>
      <trkpt lat="49.44562" lon="-1.21322">
        <ele>2.4</ele>
        <time>2023-05-18T00:21:00Z</time>
      </trkpt>
      <trkpt lat="49.44583" lon="-1.21333">
        <ele>2.4</ele>
        <time>2023-05-18T00:21:03Z</time>
      </trkpt>
      <trkpt lat="49.44601" lon="-1.21345">
        <ele>2.4</ele>
        <time>2023-05-18T00:21:06Z</time>
      </trkpt>
      <trkpt lat="49.44621" lon="-1.21358">
        <ele>2.4</ele>
        <time>2023-05-18T00:21:09Z</time>
      </trkpt>
      <trkpt lat="49.44641" lon="-1.21373">
        <ele>2.3</ele>
        <time>2023-05-18T00:21:12Z</time>
      </trkpt>
      <trkpt lat="49.44661" lon="-1.21388">
        <ele>2.2</ele>
        <time>2023-05-18T00:21:15Z</time>
      </trkpt>
      <trkpt lat="49.4468" lon="-1.21407">
        <ele>2.2</ele>
        <time>2023-05-18T00:21:18Z</time>
      </trkpt>
      <trkpt lat="49.44698" lon="-1.21427">
        <ele>2.1</ele>
        <time>2023-05-18T00:21:21Z</time>
      </trkpt>
      <trkpt lat="49.44714" lon="-1.2145">
        <ele>2</ele>
        <time>2023-05-18T00:21:24Z</time>
      </trkpt>
      <trkpt lat="49.44731" lon="-1.21471">
        <ele>2</ele>
        <time>2023-05-18T00:21:27Z</time>
      </trkpt>
      <trkpt lat="49.44749" lon="-1.21493">
        <ele>2.1</ele>
        <time>2023-05-18T00:21:30Z</time>
      </trkpt>
      <trkpt lat="49.44767" lon="-1.2151">
        <ele>2.2</ele>
        <time>2023-05-18T00:21:33Z</time>
      </trkpt>
      <trkpt lat="49.44786" lon="-1.21525">
        <ele>2.3</ele>
        <time>2023-05-18T00:21:36Z</time>
      </trkpt>
      <trkpt lat="49.44805" lon="-1.21539">
        <ele>2.3</ele>
        <time>2023-05-18T00:21:39Z</time>
      </trkpt>
      <trkpt lat="49.44825" lon="-1.21553">
        <ele>2.4</ele>
        <time>2023-05-18T00:21:42Z</time>
      </trkpt>
      <trkpt lat="49.44845" lon="-1.21566">
        <ele>2.5</ele>
        <time>2023-05-18T00:21:45Z</time>
      </trkpt>
      <trkpt lat="49.44864" lon="-1.21578">
        <ele>2.6</ele>
        <time>2023-05-18T00:21:48Z</time>
      </trkpt>
      <trkpt lat="49.44882" lon="-1.2159">
        <ele>2.8</ele>
        <time>2023-05-18T00:21:51Z</time>
      </trkpt>
      <trkpt lat="49.449" lon="-1.21603">
        <ele>3.1</ele>
        <time>2023-05-18T00:21:54Z</time>
      </trkpt>
      <trkpt lat="49.44919" lon="-1.21615">
        <ele>3.3</ele>
        <time>2023-05-18T00:21:57Z</time>
      </trkpt>
      <trkpt lat="49.44936" lon="-1.21628">
        <ele>3.5</ele>
        <time>2023-05-18T00:22:00Z</time>
      </trkpt>
      <trkpt lat="49.44955" lon="-1.2164">
        <ele>3.4</ele>
        <time>2023-05-18T00:22:03Z</time>
      </trkpt>
      <trkpt lat="49.44973" lon="-1.21653">
        <ele>3.3</ele>
        <time>2023-05-18T00:22:06Z</time>
      </trkpt>
      <trkpt lat="49.44992" lon="-1.21666">
        <ele>3.2</ele>
        <time>2023-05-18T00:22:09Z</time>
      </trkpt>
      <trkpt lat="49.45012" lon="-1.2168">
        <ele>3.3</ele>
        <time>2023-05-18T00:22:12Z</time>
      </trkpt>
      <trkpt lat="49.4503" lon="-1.21693">
        <ele>3.4</ele>
        <time>2023-05-18T00:22:15Z</time>
      </trkpt>
      <trkpt lat="49.45048" lon="-1.21707">
        <ele>3.5</ele>
        <time>2023-05-18T00:22:18Z</time>
      </trkpt>
      <trkpt lat="49.45066" lon="-1.21721">
        <ele>3.4</ele>
        <time>2023-05-18T00:22:21Z</time>
      </trkpt>
      <trkpt lat="49.45085" lon="-1.21739">
        <ele>3.4</ele>
        <time>2023-05-18T00:22:24Z</time>
      </trkpt>
      <trkpt lat="49.45102" lon="-1.21756">
        <ele>3.4</ele>
        <time>2023-05-18T00:22:27Z</time>
      </trkpt>
      <trkpt lat="49.45119" lon="-1.21775">
        <ele>3.5</ele>
        <time>2023-05-18T00:22:30Z</time>
      </trkpt>
      <trkpt lat="49.45136" lon="-1.21794">
        <ele>3.5</ele>
        <time>2023-05-18T00:22:33Z</time>
      </trkpt>
      <trkpt lat="49.45153" lon="-1.21815">
        <ele>3.4</ele>
        <time>2023-05-18T00:22:36Z</time>
      </trkpt>
      <trkpt lat="49.4517" lon="-1.21835">
        <ele>3.4</ele>
        <time>2023-05-18T00:22:39Z</time>
      </trkpt>
      <trkpt lat="49.45188" lon="-1.21855">
        <ele>3.3</ele>
        <time>2023-05-18T00:22:42Z</time>
      </trkpt>
      <trkpt lat="49.45205" lon="-1.21874">
        <ele>3.3</ele>
        <time>2023-05-18T00:22:45Z</time>
      </trkpt>
      <trkpt lat="49.45223" lon="-1.21894">
        <ele>3.2</ele>
        <time>2023-05-18T00:22:48Z</time>
      </trkpt>
      <trkpt lat="49.45241" lon="-1.21914">
        <ele>3.2</ele>
        <time>2023-05-18T00:22:51Z</time>
      </trkpt>
      <trkpt lat="49.45259" lon="-1.21933">
        <ele>3.1</ele>
        <time>2023-05-18T00:22:54Z</time>
      </trkpt>
      <trkpt lat="49.45277" lon="-1.21952">
        <ele>3.1</ele>
        <time>2023-05-18T00:22:57Z</time>
      </trkpt>
      <trkpt lat="49.45295" lon="-1.21971">
        <ele>3.1</ele>
        <time>2023-05-18T00:23:00Z</time>
      </trkpt>
      <trkpt lat="49.45313" lon="-1.21991">
        <ele>3.2</ele>
        <time>2023-05-18T00:23:03Z</time>
      </trkpt>
      <trkpt lat="49.45331" lon="-1.22011">
        <ele>3.2</ele>
        <time>2023-05-18T00:23:06Z</time>
      </trkpt>
      <trkpt lat="49.45349" lon="-1.22031">
        <ele>3.3</ele>
        <time>2023-05-18T00:23:09Z</time>
      </trkpt>
      <trkpt lat="49.45368" lon="-1.22051">
        <ele>3.3</ele>
        <time>2023-05-18T00:23:12Z</time>
      </trkpt>
      <trkpt lat="49.45386" lon="-1.2207">
        <ele>3.4</ele>
        <time>2023-05-18T00:23:15Z</time>
      </trkpt>
      <trkpt lat="49.45403" lon="-1.2209">
        <ele>3.5</ele>
        <time>2023-05-18T00:23:18Z</time>
      </trkpt>
      <trkpt lat="49.4542" lon="-1.22109">
        <ele>3.6</ele>
        <time>2023-05-18T00:23:21Z</time>
      </trkpt>
      <trkpt lat="49.45435" lon="-1.22127">
        <ele>3.7</ele>
        <time>2023-05-18T00:23:24Z</time>
      </trkpt>
      <trkpt lat="49.45449" lon="-1.22145">
        <ele>3.8</ele>
        <time>2023-05-18T00:23:27Z</time>
      </trkpt>
      <trkpt lat="49.45463" lon="-1.22165">
        <ele>3.9</ele>
        <time>2023-05-18T00:23:30Z</time>
      </trkpt>
      <trkpt lat="49.45478" lon="-1.22184">
        <ele>3.9</ele>
        <time>2023-05-18T00:23:33Z</time>
      </trkpt>
      <trkpt lat="49.45493" lon="-1.22203">
        <ele>3.8</ele>
        <time>2023-05-18T00:23:36Z</time>
      </trkpt>
      <trkpt lat="49.45507" lon="-1.22221">
        <ele>3.8</ele>
        <time>2023-05-18T00:23:39Z</time>
      </trkpt>
      <trkpt lat="49.45522" lon="-1.22239">
        <ele>3.7</ele>
        <time>2023-05-18T00:23:42Z</time>
      </trkpt>
      <trkpt lat="49.45537" lon="-1.22257">
        <ele>3.6</ele>
        <time>2023-05-18T00:23:45Z</time>
      </trkpt>
      <trkpt lat="49.45552" lon="-1.22275">
        <ele>3.5</ele>
        <time>2023-05-18T00:23:48Z</time>
      </trkpt>
      <trkpt lat="49.45567" lon="-1.22293">
        <ele>3.4</ele>
        <time>2023-05-18T00:23:51Z</time>
      </trkpt>
      <trkpt lat="49.45582" lon="-1.2231">
        <ele>3.3</ele>
        <time>2023-05-18T00:23:54Z</time>
      </trkpt>
      <trkpt lat="49.45596" lon="-1.22328">
        <ele>3.3</ele>
        <time>2023-05-18T00:23:57Z</time>
      </trkpt>
      <trkpt lat="49.45611" lon="-1.22344">
        <ele>3.3</ele>
        <time>2023-05-18T00:24:00Z</time>
      </trkpt>
      <trkpt lat="49.45629" lon="-1.22367">
        <ele>3.3</ele>
        <time>2023-05-18T00:24:04Z</time>
      </trkpt>
      <trkpt lat="49.45647" lon="-1.2239">
        <ele>3.4</ele>
        <time>2023-05-18T00:24:08Z</time>
      </trkpt>
      <trkpt lat="49.45665" lon="-1.2241">
        <ele>3.5</ele>
        <time>2023-05-18T00:24:12Z</time>
      </trkpt>
      <trkpt lat="49.45683" lon="-1.22431">
        <ele>3.5</ele>
        <time>2023-05-18T00:24:16Z</time>
      </trkpt>
      <trkpt lat="49.45702" lon="-1.22452">
        <ele>3.5</ele>
        <time>2023-05-18T00:24:20Z</time>
      </trkpt>
      <trkpt lat="49.45717" lon="-1.22467">
        <ele>3.5</ele>
        <time>2023-05-18T00:24:23Z</time>
      </trkpt>
      <trkpt lat="49.45736" lon="-1.22488">
        <ele>3.5</ele>
        <time>2023-05-18T00:24:27Z</time>
      </trkpt>
      <trkpt lat="49.45756" lon="-1.22508">
        <ele>3.5</ele>
        <time>2023-05-18T00:24:31Z</time>
      </trkpt>
      <trkpt lat="49.45776" lon="-1.22528">
        <ele>3.5</ele>
        <time>2023-05-18T00:24:35Z</time>
      </trkpt>
      <trkpt lat="49.45795" lon="-1.22548">
        <ele>3.4</ele>
        <time>2023-05-18T00:24:39Z</time>
      </trkpt>
      <trkpt lat="49.45815" lon="-1.22568">
        <ele>3.4</ele>
        <time>2023-05-18T00:24:43Z</time>
      </trkpt>
      <trkpt lat="49.45834" lon="-1.22589">
        <ele>3.5</ele>
        <time>2023-05-18T00:24:47Z</time>
      </trkpt>
      <trkpt lat="49.45849" lon="-1.22604">
        <ele>3.6</ele>
        <time>2023-05-18T00:24:50Z</time>
      </trkpt>
      <trkpt lat="49.45868" lon="-1.22624">
        <ele>3.6</ele>
        <time>2023-05-18T00:24:54Z</time>
      </trkpt>
      <trkpt lat="49.45887" lon="-1.22643">
        <ele>3.5</ele>
        <time>2023-05-18T00:24:58Z</time>
      </trkpt>
      <trkpt lat="49.45906" lon="-1.22664">
        <ele>3.5</ele>
        <time>2023-05-18T00:25:02Z</time>
      </trkpt>
      <trkpt lat="49.45925" lon="-1.22685">
        <ele>3.5</ele>
        <time>2023-05-18T00:25:06Z</time>
      </trkpt>
      <trkpt lat="49.4594" lon="-1.227">
        <ele>3.5</ele>
        <time>2023-05-18T00:25:09Z</time>
      </trkpt>
      <trkpt lat="49.45959" lon="-1.22721">
        <ele>3.5</ele>
        <time>2023-05-18T00:25:13Z</time>
      </trkpt>
      <trkpt lat="49.45977" lon="-1.22741">
        <ele>3.5</ele>
        <time>2023-05-18T00:25:17Z</time>
      </trkpt>
      <trkpt lat="49.45997" lon="-1.22762">
        <ele>3.5</ele>
        <time>2023-05-18T00:25:21Z</time>
      </trkpt>
      <trkpt lat="49.46015" lon="-1.22784">
        <ele>3.5</ele>
        <time>2023-05-18T00:25:25Z</time>
      </trkpt>
      <trkpt lat="49.46034" lon="-1.22805">
        <ele>3.4</ele>
        <time>2023-05-18T00:25:29Z</time>
      </trkpt>
      <trkpt lat="49.46053" lon="-1.22825">
        <ele>3.4</ele>
        <time>2023-05-18T00:25:33Z</time>
      </trkpt>
      <trkpt lat="49.46071" lon="-1.22846">
        <ele>3.3</ele>
        <time>2023-05-18T00:25:37Z</time>
      </trkpt>
      <trkpt lat="49.46091" lon="-1.22866">
        <ele>3.3</ele>
        <time>2023-05-18T00:25:41Z</time>
      </trkpt>
      <trkpt lat="49.46109" lon="-1.22887">
        <ele>3.3</ele>
        <time>2023-05-18T00:25:45Z</time>
      </trkpt>
      <trkpt lat="49.46128" lon="-1.22905">
        <ele>3.3</ele>
        <time>2023-05-18T00:25:49Z</time>
      </trkpt>
      <trkpt lat="49.46146" lon="-1.22925">
        <ele>3.2</ele>
        <time>2023-05-18T00:25:53Z</time>
      </trkpt>
      <trkpt lat="49.46164" lon="-1.22946">
        <ele>3.2</ele>
        <time>2023-05-18T00:25:57Z</time>
      </trkpt>
      <trkpt lat="49.46182" lon="-1.22966">
        <ele>3.1</ele>
        <time>2023-05-18T00:26:01Z</time>
      </trkpt>
      <trkpt lat="49.46201" lon="-1.22987">
        <ele>3.1</ele>
        <time>2023-05-18T00:26:05Z</time>
      </trkpt>
      <trkpt lat="49.46219" lon="-1.23009">
        <ele>3.1</ele>
        <time>2023-05-18T00:26:09Z</time>
      </trkpt>
      <trkpt lat="49.46236" lon="-1.2303">
        <ele>3</ele>
        <time>2023-05-18T00:26:13Z</time>
      </trkpt>
      <trkpt lat="49.46251" lon="-1.23053">
        <ele>3.1</ele>
        <time>2023-05-18T00:26:17Z</time>
      </trkpt>
      <trkpt lat="49.46268" lon="-1.23075">
        <ele>3.2</ele>
        <time>2023-05-18T00:26:21Z</time>
      </trkpt>
      <trkpt lat="49.46285" lon="-1.23094">
        <ele>3.2</ele>
        <time>2023-05-18T00:26:25Z</time>
      </trkpt>
      <trkpt lat="49.46304" lon="-1.23113">
        <ele>3.3</ele>
        <time>2023-05-18T00:26:29Z</time>
      </trkpt>
      <trkpt lat="49.46322" lon="-1.23133">
        <ele>3.3</ele>
        <time>2023-05-18T00:26:33Z</time>
      </trkpt>
      <trkpt lat="49.4634" lon="-1.23153">
        <ele>3.5</ele>
        <time>2023-05-18T00:26:37Z</time>
      </trkpt>
      <trkpt lat="49.46358" lon="-1.23173">
        <ele>3.5</ele>
        <time>2023-05-18T00:26:41Z</time>
      </trkpt>
      <trkpt lat="49.46376" lon="-1.23193">
        <ele>3.5</ele>
        <time>2023-05-18T00:26:45Z</time>
      </trkpt>
      <trkpt lat="49.46395" lon="-1.23214">
        <ele>3.6</ele>
        <time>2023-05-18T00:26:49Z</time>
      </trkpt>
      <trkpt lat="49.46412" lon="-1.23234">
        <ele>3.7</ele>
        <time>2023-05-18T00:26:53Z</time>
      </trkpt>
      <trkpt lat="49.46429" lon="-1.23254">
        <ele>3.7</ele>
        <time>2023-05-18T00:26:57Z</time>
      </trkpt>
      <trkpt lat="49.46447" lon="-1.23274">
        <ele>3.7</ele>
        <time>2023-05-18T00:27:01Z</time>
      </trkpt>
      <trkpt lat="49.46465" lon="-1.23294">
        <ele>3.7</ele>
        <time>2023-05-18T00:27:05Z</time>
      </trkpt>
      <trkpt lat="49.46483" lon="-1.23314">
        <ele>3.7</ele>
        <time>2023-05-18T00:27:09Z</time>
      </trkpt>
      <trkpt lat="49.465" lon="-1.23334">
        <ele>3.5</ele>
        <time>2023-05-18T00:27:13Z</time>
      </trkpt>
      <trkpt lat="49.46519" lon="-1.23355">
        <ele>3.3</ele>
        <time>2023-05-18T00:27:17Z</time>
      </trkpt>
      <trkpt lat="49.46537" lon="-1.23378">
        <ele>3.4</ele>
        <time>2023-05-18T00:27:21Z</time>
      </trkpt>
      <trkpt lat="49.46555" lon="-1.23398">
        <ele>3.4</ele>
        <time>2023-05-18T00:27:25Z</time>
      </trkpt>
      <trkpt lat="49.46573" lon="-1.23418">
        <ele>3.4</ele>
        <time>2023-05-18T00:27:29Z</time>
      </trkpt>
      <trkpt lat="49.46591" lon="-1.23436">
        <ele>3.4</ele>
        <time>2023-05-18T00:27:33Z</time>
      </trkpt>
      <trkpt lat="49.46607" lon="-1.23454">
        <ele>3.4</ele>
        <time>2023-05-18T00:27:37Z</time>
      </trkpt>
      <trkpt lat="49.46625" lon="-1.23473">
        <ele>3.4</ele>
        <time>2023-05-18T00:27:41Z</time>
      </trkpt>
      <trkpt lat="49.46642" lon="-1.23492">
        <ele>3.4</ele>
        <time>2023-05-18T00:27:45Z</time>
      </trkpt>
      <trkpt lat="49.46661" lon="-1.23511">
        <ele>3.5</ele>
        <time>2023-05-18T00:27:49Z</time>
      </trkpt>
      <trkpt lat="49.46679" lon="-1.23531">
        <ele>3.5</ele>
        <time>2023-05-18T00:27:53Z</time>
      </trkpt>
      <trkpt lat="49.46698" lon="-1.23549">
        <ele>3.6</ele>
        <time>2023-05-18T00:27:57Z</time>
      </trkpt>
      <trkpt lat="49.46715" lon="-1.23568">
        <ele>3.6</ele>
        <time>2023-05-18T00:28:01Z</time>
      </trkpt>
      <trkpt lat="49.46732" lon="-1.23586">
        <ele>3.6</ele>
        <time>2023-05-18T00:28:05Z</time>
      </trkpt>
      <trkpt lat="49.46751" lon="-1.23606">
        <ele>3.6</ele>
        <time>2023-05-18T00:28:09Z</time>
      </trkpt>
      <trkpt lat="49.46769" lon="-1.23626">
        <ele>3.6</ele>
        <time>2023-05-18T00:28:13Z</time>
      </trkpt>
      <trkpt lat="49.46787" lon="-1.23646">
        <ele>3.6</ele>
        <time>2023-05-18T00:28:17Z</time>
      </trkpt>
      <trkpt lat="49.46805" lon="-1.23665">
        <ele>3.6</ele>
        <time>2023-05-18T00:28:21Z</time>
      </trkpt>
      <trkpt lat="49.46823" lon="-1.23685">
        <ele>3.6</ele>
        <time>2023-05-18T00:28:25Z</time>
      </trkpt>
      <trkpt lat="49.4684" lon="-1.23704">
        <ele>3.6</ele>
        <time>2023-05-18T00:28:29Z</time>
      </trkpt>
      <trkpt lat="49.46858" lon="-1.23722">
        <ele>3.6</ele>
        <time>2023-05-18T00:28:33Z</time>
      </trkpt>
      <trkpt lat="49.46877" lon="-1.2374">
        <ele>3.6</ele>
        <time>2023-05-18T00:28:37Z</time>
      </trkpt>
      <trkpt lat="49.46895" lon="-1.23759">
        <ele>3.7</ele>
        <time>2023-05-18T00:28:41Z</time>
      </trkpt>
      <trkpt lat="49.46911" lon="-1.23778">
        <ele>3.8</ele>
        <time>2023-05-18T00:28:45Z</time>
      </trkpt>
      <trkpt lat="49.46927" lon="-1.23795">
        <ele>3.9</ele>
        <time>2023-05-18T00:28:49Z</time>
      </trkpt>
      <trkpt lat="49.46943" lon="-1.23814">
        <ele>3.9</ele>
        <time>2023-05-18T00:28:53Z</time>
      </trkpt>
      <trkpt lat="49.46959" lon="-1.23832">
        <ele>3.8</ele>
        <time>2023-05-18T00:28:57Z</time>
      </trkpt>
      <trkpt lat="49.46976" lon="-1.2385">
        <ele>3.8</ele>
        <time>2023-05-18T00:29:01Z</time>
      </trkpt>
      <trkpt lat="49.46992" lon="-1.23868">
        <ele>3.8</ele>
        <time>2023-05-18T00:29:05Z</time>
      </trkpt>
      <trkpt lat="49.47009" lon="-1.23886">
        <ele>3.8</ele>
        <time>2023-05-18T00:29:09Z</time>
      </trkpt>
      <trkpt lat="49.47025" lon="-1.23904">
        <ele>3.8</ele>
        <time>2023-05-18T00:29:13Z</time>
      </trkpt>
      <trkpt lat="49.47041" lon="-1.23923">
        <ele>3.8</ele>
        <time>2023-05-18T00:29:17Z</time>
      </trkpt>
      <trkpt lat="49.47057" lon="-1.23942">
        <ele>3.8</ele>
        <time>2023-05-18T00:29:21Z</time>
      </trkpt>
      <trkpt lat="49.47074" lon="-1.23961">
        <ele>3.7</ele>
        <time>2023-05-18T00:29:25Z</time>
      </trkpt>
      <trkpt lat="49.47091" lon="-1.2398">
        <ele>3.7</ele>
        <time>2023-05-18T00:29:29Z</time>
      </trkpt>
      <trkpt lat="49.47108" lon="-1.23999">
        <ele>3.8</ele>
        <time>2023-05-18T00:29:33Z</time>
      </trkpt>
      <trkpt lat="49.47123" lon="-1.24018">
        <ele>3.8</ele>
        <time>2023-05-18T00:29:37Z</time>
      </trkpt>
      <trkpt lat="49.47139" lon="-1.24037">
        <ele>3.8</ele>
        <time>2023-05-18T00:29:41Z</time>
      </trkpt>
      <trkpt lat="49.47153" lon="-1.24057">
        <ele>3.8</ele>
        <time>2023-05-18T00:29:45Z</time>
      </trkpt>
      <trkpt lat="49.47168" lon="-1.24077">
        <ele>3.7</ele>
        <time>2023-05-18T00:29:49Z</time>
      </trkpt>
      <trkpt lat="49.47184" lon="-1.24099">
        <ele>3.6</ele>
        <time>2023-05-18T00:29:53Z</time>
      </trkpt>
      <trkpt lat="49.47199" lon="-1.2412">
        <ele>3.6</ele>
        <time>2023-05-18T00:29:57Z</time>
      </trkpt>
      <trkpt lat="49.47216" lon="-1.24139">
        <ele>3.7</ele>
        <time>2023-05-18T00:30:01Z</time>
      </trkpt>
      <trkpt lat="49.47231" lon="-1.2416">
        <ele>3.7</ele>
        <time>2023-05-18T00:30:05Z</time>
      </trkpt>
      <trkpt lat="49.47246" lon="-1.24182">
        <ele>3.7</ele>
        <time>2023-05-18T00:30:09Z</time>
      </trkpt>
      <trkpt lat="49.4726" lon="-1.24206">
        <ele>3.5</ele>
        <time>2023-05-18T00:30:13Z</time>
      </trkpt>
      <trkpt lat="49.47273" lon="-1.24231">
        <ele>3.4</ele>
        <time>2023-05-18T00:30:17Z</time>
      </trkpt>
      <trkpt lat="49.47287" lon="-1.24256">
        <ele>3.2</ele>
        <time>2023-05-18T00:30:21Z</time>
      </trkpt>
      <trkpt lat="49.47301" lon="-1.24281">
        <ele>3.1</ele>
        <time>2023-05-18T00:30:25Z</time>
      </trkpt>
      <trkpt lat="49.47315" lon="-1.24302">
        <ele>3</ele>
        <time>2023-05-18T00:30:29Z</time>
      </trkpt>
      <trkpt lat="49.47328" lon="-1.24328">
        <ele>3</ele>
        <time>2023-05-18T00:30:34Z</time>
      </trkpt>
      <trkpt lat="49.47342" lon="-1.24352">
        <ele>3.1</ele>
        <time>2023-05-18T00:30:39Z</time>
      </trkpt>
      <trkpt lat="49.47355" lon="-1.24374">
        <ele>3.1</ele>
        <time>2023-05-18T00:30:45Z</time>
      </trkpt>
      <trkpt lat="49.47373" lon="-1.24397">
        <ele>2.9</ele>
        <time>2023-05-18T00:31:39Z</time>
      </trkpt>
      <trkpt lat="49.47385" lon="-1.24421">
        <ele>2.7</ele>
        <time>2023-05-18T00:31:54Z</time>
      </trkpt>
      <trkpt lat="49.47398" lon="-1.24443">
        <ele>2.5</ele>
        <time>2023-05-18T00:31:59Z</time>
      </trkpt>
      <trkpt lat="49.47412" lon="-1.24466">
        <ele>2.5</ele>
        <time>2023-05-18T00:32:04Z</time>
      </trkpt>
      <trkpt lat="49.47428" lon="-1.2449">
        <ele>2.3</ele>
        <time>2023-05-18T00:32:09Z</time>
      </trkpt>
      <trkpt lat="49.47441" lon="-1.24512">
        <ele>2.2</ele>
        <time>2023-05-18T00:32:13Z</time>
      </trkpt>
      <trkpt lat="49.47456" lon="-1.24535">
        <ele>2.2</ele>
        <time>2023-05-18T00:32:17Z</time>
      </trkpt>
      <trkpt lat="49.47471" lon="-1.24557">
        <ele>2.4</ele>
        <time>2023-05-18T00:32:21Z</time>
      </trkpt>
      <trkpt lat="49.4749" lon="-1.24574">
        <ele>2.4</ele>
        <time>2023-05-18T00:32:25Z</time>
      </trkpt>
      <trkpt lat="49.47508" lon="-1.24589">
        <ele>2.4</ele>
        <time>2023-05-18T00:32:29Z</time>
      </trkpt>
      <trkpt lat="49.47529" lon="-1.24604">
        <ele>2.4</ele>
        <time>2023-05-18T00:32:33Z</time>
      </trkpt>
      <trkpt lat="49.47547" lon="-1.24622">
        <ele>2.3</ele>
        <time>2023-05-18T00:32:37Z</time>
      </trkpt>
      <trkpt lat="49.47566" lon="-1.24641">
        <ele>2.2</ele>
        <time>2023-05-18T00:32:41Z</time>
      </trkpt>
      <trkpt lat="49.47585" lon="-1.24665">
        <ele>2.2</ele>
        <time>2023-05-18T00:32:45Z</time>
      </trkpt>
      <trkpt lat="49.47602" lon="-1.24689">
        <ele>2.2</ele>
        <time>2023-05-18T00:32:49Z</time>
      </trkpt>
      <trkpt lat="49.47617" lon="-1.24712">
        <ele>2.3</ele>
        <time>2023-05-18T00:32:53Z</time>
      </trkpt>
      <trkpt lat="49.47633" lon="-1.24735">
        <ele>2.3</ele>
        <time>2023-05-18T00:32:57Z</time>
      </trkpt>
      <trkpt lat="49.47648" lon="-1.24758">
        <ele>2.3</ele>
        <time>2023-05-18T00:33:01Z</time>
      </trkpt>
      <trkpt lat="49.47664" lon="-1.24782">
        <ele>2.2</ele>
        <time>2023-05-18T00:33:05Z</time>
      </trkpt>
      <trkpt lat="49.47681" lon="-1.24807">
        <ele>2.3</ele>
        <time>2023-05-18T00:33:09Z</time>
      </trkpt>
      <trkpt lat="49.47698" lon="-1.24825">
        <ele>2.3</ele>
        <time>2023-05-18T00:33:13Z</time>
      </trkpt>
      <trkpt lat="49.47715" lon="-1.24842">
        <ele>2.4</ele>
        <time>2023-05-18T00:33:17Z</time>
      </trkpt>
      <trkpt lat="49.47731" lon="-1.2486">
        <ele>2.5</ele>
        <time>2023-05-18T00:33:21Z</time>
      </trkpt>
      <trkpt lat="49.47748" lon="-1.24878">
        <ele>2.8</ele>
        <time>2023-05-18T00:33:25Z</time>
      </trkpt>
      <trkpt lat="49.47765" lon="-1.24895">
        <ele>3</ele>
        <time>2023-05-18T00:33:29Z</time>
      </trkpt>
      <trkpt lat="49.47781" lon="-1.24913">
        <ele>3.2</ele>
        <time>2023-05-18T00:33:33Z</time>
      </trkpt>
      <trkpt lat="49.47797" lon="-1.24932">
        <ele>3.4</ele>
        <time>2023-05-18T00:33:37Z</time>
      </trkpt>
      <trkpt lat="49.47815" lon="-1.24949">
        <ele>3.6</ele>
        <time>2023-05-18T00:33:41Z</time>
      </trkpt>
      <trkpt lat="49.47831" lon="-1.24966">
        <ele>3.8</ele>
        <time>2023-05-18T00:33:45Z</time>
      </trkpt>
      <trkpt lat="49.47848" lon="-1.24983">
        <ele>4</ele>
        <time>2023-05-18T00:33:49Z</time>
      </trkpt>
      <trkpt lat="49.47865" lon="-1.25001">
        <ele>4.1</ele>
        <time>2023-05-18T00:33:53Z</time>
      </trkpt>
      <trkpt lat="49.47882" lon="-1.25017">
        <ele>4.2</ele>
        <time>2023-05-18T00:33:57Z</time>
      </trkpt>
      <trkpt lat="49.47898" lon="-1.25032">
        <ele>4.4</ele>
        <time>2023-05-18T00:34:01Z</time>
      </trkpt>
      <trkpt lat="49.47914" lon="-1.25049">
        <ele>4.7</ele>
        <time>2023-05-18T00:34:05Z</time>
      </trkpt>
      <trkpt lat="49.47932" lon="-1.25069">
        <ele>5</ele>
        <time>2023-05-18T00:34:10Z</time>
      </trkpt>
      <trkpt lat="49.47947" lon="-1.25086">
        <ele>5.3</ele>
        <time>2023-05-18T00:34:14Z</time>
      </trkpt>
      <trkpt lat="49.47964" lon="-1.25106">
        <ele>5.6</ele>
        <time>2023-05-18T00:34:19Z</time>
      </trkpt>
      <trkpt lat="49.47979" lon="-1.25123">
        <ele>5.7</ele>
        <time>2023-05-18T00:34:23Z</time>
      </trkpt>
      <trkpt lat="49.47995" lon="-1.25142">
        <ele>5.4</ele>
        <time>2023-05-18T00:34:27Z</time>
      </trkpt>
      <trkpt lat="49.4801" lon="-1.25161">
        <ele>5.2</ele>
        <time>2023-05-18T00:34:31Z</time>
      </trkpt>
      <trkpt lat="49.48027" lon="-1.25181">
        <ele>5.1</ele>
        <time>2023-05-18T00:34:36Z</time>
      </trkpt>
      <trkpt lat="49.48043" lon="-1.25199">
        <ele>4.9</ele>
        <time>2023-05-18T00:34:41Z</time>
      </trkpt>
      <trkpt lat="49.48058" lon="-1.25216">
        <ele>4.8</ele>
        <time>2023-05-18T00:34:45Z</time>
      </trkpt>
      <trkpt lat="49.48074" lon="-1.25233">
        <ele>4.7</ele>
        <time>2023-05-18T00:34:49Z</time>
      </trkpt>
      <trkpt lat="49.48089" lon="-1.25252">
        <ele>4.5</ele>
        <time>2023-05-18T00:34:53Z</time>
      </trkpt>
      <trkpt lat="49.48094" lon="-1.25284">
        <ele>4</ele>
        <time>2023-05-18T00:34:58Z</time>
      </trkpt>
      <trkpt lat="49.48085" lon="-1.25314">
        <ele>3.4</ele>
        <time>2023-05-18T00:35:02Z</time>
      </trkpt>
      <trkpt lat="49.48075" lon="-1.25342">
        <ele>2.9</ele>
        <time>2023-05-18T00:35:06Z</time>
      </trkpt>
      <trkpt lat="49.48066" lon="-1.25371">
        <ele>2.5</ele>
        <time>2023-05-18T00:35:10Z</time>
      </trkpt>
      <trkpt lat="49.48056" lon="-1.25399">
        <ele>2.4</ele>
        <time>2023-05-18T00:35:14Z</time>
      </trkpt>
      <trkpt lat="49.48047" lon="-1.25427">
        <ele>2.5</ele>
        <time>2023-05-18T00:35:18Z</time>
      </trkpt>
      <trkpt lat="49.48051" lon="-1.25455">
        <ele>2.5</ele>
        <time>2023-05-18T00:35:22Z</time>
      </trkpt>
      <trkpt lat="49.48044" lon="-1.25483">
        <ele>2.4</ele>
        <time>2023-05-18T00:35:26Z</time>
      </trkpt>
      <trkpt lat="49.48029" lon="-1.25503">
        <ele>2.1</ele>
        <time>2023-05-18T00:35:30Z</time>
      </trkpt>
      <trkpt lat="49.48014" lon="-1.25524">
        <ele>1.9</ele>
        <time>2023-05-18T00:35:34Z</time>
      </trkpt>
      <trkpt lat="49.47999" lon="-1.25545">
        <ele>1.7</ele>
        <time>2023-05-18T00:35:38Z</time>
      </trkpt>
      <trkpt lat="49.47986" lon="-1.25568">
        <ele>1.6</ele>
        <time>2023-05-18T00:35:42Z</time>
      </trkpt>
      <trkpt lat="49.47973" lon="-1.25592">
        <ele>1.6</ele>
        <time>2023-05-18T00:35:46Z</time>
      </trkpt>
      <trkpt lat="49.4796" lon="-1.25615">
        <ele>1.7</ele>
        <time>2023-05-18T00:35:50Z</time>
      </trkpt>
      <trkpt lat="49.47946" lon="-1.25636">
        <ele>1.9</ele>
        <time>2023-05-18T00:35:54Z</time>
      </trkpt>
      <trkpt lat="49.47941" lon="-1.25665">
        <ele>2.2</ele>
        <time>2023-05-18T00:35:59Z</time>
      </trkpt>
      <trkpt lat="49.47958" lon="-1.25689">
        <ele>2</ele>
        <time>2023-05-18T00:36:04Z</time>
      </trkpt>
      <trkpt lat="49.47973" lon="-1.25707">
        <ele>2.1</ele>
        <time>2023-05-18T00:36:08Z</time>
      </trkpt>
      <trkpt lat="49.47988" lon="-1.25726">
        <ele>2.1</ele>
        <time>2023-05-18T00:36:12Z</time>
      </trkpt>
      <trkpt lat="49.48003" lon="-1.25744">
        <ele>2.2</ele>
        <time>2023-05-18T00:36:16Z</time>
      </trkpt>
      <trkpt lat="49.48017" lon="-1.25763">
        <ele>2.3</ele>
        <time>2023-05-18T00:36:20Z</time>
      </trkpt>
      <trkpt lat="49.48033" lon="-1.25782">
        <ele>2.4</ele>
        <time>2023-05-18T00:36:24Z</time>
      </trkpt>
      <trkpt lat="49.48049" lon="-1.25802">
        <ele>2.5</ele>
        <time>2023-05-18T00:36:28Z</time>
      </trkpt>
      <trkpt lat="49.48063" lon="-1.25821">
        <ele>2.6</ele>
        <time>2023-05-18T00:36:32Z</time>
      </trkpt>
      <trkpt lat="49.4808" lon="-1.2584">
        <ele>2.7</ele>
        <time>2023-05-18T00:36:36Z</time>
      </trkpt>
      <trkpt lat="49.48096" lon="-1.25857">
        <ele>2.8</ele>
        <time>2023-05-18T00:36:40Z</time>
      </trkpt>
      <trkpt lat="49.48114" lon="-1.25872">
        <ele>2.9</ele>
        <time>2023-05-18T00:36:44Z</time>
      </trkpt>
      <trkpt lat="49.48132" lon="-1.25885">
        <ele>2.9</ele>
        <time>2023-05-18T00:36:48Z</time>
      </trkpt>
      <trkpt lat="49.48152" lon="-1.25895">
        <ele>2.9</ele>
        <time>2023-05-18T00:36:52Z</time>
      </trkpt>
      <trkpt lat="49.48172" lon="-1.25902">
        <ele>2.8</ele>
        <time>2023-05-18T00:36:56Z</time>
      </trkpt>
      <trkpt lat="49.48192" lon="-1.25906">
        <ele>2.8</ele>
        <time>2023-05-18T00:37:00Z</time>
      </trkpt>
      <trkpt lat="49.48212" lon="-1.25906">
        <ele>2.9</ele>
        <time>2023-05-18T00:37:04Z</time>
      </trkpt>
      <trkpt lat="49.48232" lon="-1.25904">
        <ele>2.9</ele>
        <time>2023-05-18T00:37:08Z</time>
      </trkpt>
      <trkpt lat="49.48251" lon="-1.25903">
        <ele>2.9</ele>
        <time>2023-05-18T00:37:12Z</time>
      </trkpt>
      <trkpt lat="49.48271" lon="-1.25902">
        <ele>2.8</ele>
        <time>2023-05-18T00:37:16Z</time>
      </trkpt>
      <trkpt lat="49.48291" lon="-1.25899">
        <ele>2.9</ele>
        <time>2023-05-18T00:37:20Z</time>
      </trkpt>
      <trkpt lat="49.4831" lon="-1.25898">
        <ele>3</ele>
        <time>2023-05-18T00:37:24Z</time>
      </trkpt>
      <trkpt lat="49.4833" lon="-1.25899">
        <ele>3.1</ele>
        <time>2023-05-18T00:37:28Z</time>
      </trkpt>
      <trkpt lat="49.4835" lon="-1.25903">
        <ele>3.1</ele>
        <time>2023-05-18T00:37:32Z</time>
      </trkpt>
      <trkpt lat="49.4837" lon="-1.25909">
        <ele>3</ele>
        <time>2023-05-18T00:37:36Z</time>
      </trkpt>
      <trkpt lat="49.4839" lon="-1.25918">
        <ele>3</ele>
        <time>2023-05-18T00:37:40Z</time>
      </trkpt>
      <trkpt lat="49.48411" lon="-1.25927">
        <ele>3</ele>
        <time>2023-05-18T00:37:44Z</time>
      </trkpt>
      <trkpt lat="49.48431" lon="-1.25935">
        <ele>2.9</ele>
        <time>2023-05-18T00:37:48Z</time>
      </trkpt>
      <trkpt lat="49.48453" lon="-1.25945">
        <ele>2.9</ele>
        <time>2023-05-18T00:37:52Z</time>
      </trkpt>
      <trkpt lat="49.48474" lon="-1.25954">
        <ele>2.8</ele>
        <time>2023-05-18T00:37:56Z</time>
      </trkpt>
      <trkpt lat="49.48495" lon="-1.25963">
        <ele>2.8</ele>
        <time>2023-05-18T00:38:00Z</time>
      </trkpt>
      <trkpt lat="49.48515" lon="-1.2597">
        <ele>2.8</ele>
        <time>2023-05-18T00:38:04Z</time>
      </trkpt>
      <trkpt lat="49.48536" lon="-1.25976">
        <ele>2.8</ele>
        <time>2023-05-18T00:38:08Z</time>
      </trkpt>
      <trkpt lat="49.48558" lon="-1.25978">
        <ele>2.8</ele>
        <time>2023-05-18T00:38:12Z</time>
      </trkpt>
      <trkpt lat="49.48579" lon="-1.25977">
        <ele>2.8</ele>
        <time>2023-05-18T00:38:16Z</time>
      </trkpt>
      <trkpt lat="49.486" lon="-1.25972">
        <ele>2.9</ele>
        <time>2023-05-18T00:38:20Z</time>
      </trkpt>
      <trkpt lat="49.4862" lon="-1.25966">
        <ele>3</ele>
        <time>2023-05-18T00:38:24Z</time>
      </trkpt>
      <trkpt lat="49.48641" lon="-1.25958">
        <ele>3</ele>
        <time>2023-05-18T00:38:28Z</time>
      </trkpt>
      <trkpt lat="49.48661" lon="-1.25954">
        <ele>3.1</ele>
        <time>2023-05-18T00:38:32Z</time>
      </trkpt>
      <trkpt lat="49.48684" lon="-1.25955">
        <ele>3</ele>
        <time>2023-05-18T00:38:36Z</time>
      </trkpt>
      <trkpt lat="49.48706" lon="-1.25965">
        <ele>3.1</ele>
        <time>2023-05-18T00:38:40Z</time>
      </trkpt>
      <trkpt lat="49.48726" lon="-1.2598">
        <ele>3.1</ele>
        <time>2023-05-18T00:38:44Z</time>
      </trkpt>
      <trkpt lat="49.48744" lon="-1.25996">
        <ele>3.1</ele>
        <time>2023-05-18T00:38:48Z</time>
      </trkpt>
      <trkpt lat="49.48763" lon="-1.26008">
        <ele>3</ele>
        <time>2023-05-18T00:38:52Z</time>
      </trkpt>
      <trkpt lat="49.48783" lon="-1.2602">
        <ele>3</ele>
        <time>2023-05-18T00:38:56Z</time>
      </trkpt>
      <trkpt lat="49.48804" lon="-1.26029">
        <ele>3</ele>
        <time>2023-05-18T00:39:00Z</time>
      </trkpt>
      <trkpt lat="49.48823" lon="-1.26036">
        <ele>3.1</ele>
        <time>2023-05-18T00:39:04Z</time>
      </trkpt>
      <trkpt lat="49.48843" lon="-1.26041">
        <ele>3.2</ele>
        <time>2023-05-18T00:39:08Z</time>
      </trkpt>
      <trkpt lat="49.48864" lon="-1.26048">
        <ele>3.3</ele>
        <time>2023-05-18T00:39:12Z</time>
      </trkpt>
      <trkpt lat="49.48883" lon="-1.26056">
        <ele>3.4</ele>
        <time>2023-05-18T00:39:16Z</time>
      </trkpt>
      <trkpt lat="49.48903" lon="-1.26063">
        <ele>3.5</ele>
        <time>2023-05-18T00:39:20Z</time>
      </trkpt>
      <trkpt lat="49.48922" lon="-1.26075">
        <ele>3.5</ele>
        <time>2023-05-18T00:39:24Z</time>
      </trkpt>
      <trkpt lat="49.4894" lon="-1.26088">
        <ele>3.6</ele>
        <time>2023-05-18T00:39:28Z</time>
      </trkpt>
      <trkpt lat="49.48958" lon="-1.26102">
        <ele>3.6</ele>
        <time>2023-05-18T00:39:32Z</time>
      </trkpt>
      <trkpt lat="49.48976" lon="-1.26118">
        <ele>3.6</ele>
        <time>2023-05-18T00:39:36Z</time>
      </trkpt>
      <trkpt lat="49.48995" lon="-1.26136">
        <ele>3.5</ele>
        <time>2023-05-18T00:39:40Z</time>
      </trkpt>
      <trkpt lat="49.49012" lon="-1.26153">
        <ele>3.5</ele>
        <time>2023-05-18T00:39:44Z</time>
      </trkpt>
      <trkpt lat="49.49031" lon="-1.2617">
        <ele>3.5</ele>
        <time>2023-05-18T00:39:48Z</time>
      </trkpt>
      <trkpt lat="49.49051" lon="-1.26187">
        <ele>3.5</ele>
        <time>2023-05-18T00:39:52Z</time>
      </trkpt>
      <trkpt lat="49.4907" lon="-1.26204">
        <ele>3.5</ele>
        <time>2023-05-18T00:39:56Z</time>
      </trkpt>
      <trkpt lat="49.49089" lon="-1.26221">
        <ele>3.4</ele>
        <time>2023-05-18T00:40:00Z</time>
      </trkpt>
      <trkpt lat="49.49107" lon="-1.26238">
        <ele>3.3</ele>
        <time>2023-05-18T00:40:04Z</time>
      </trkpt>
      <trkpt lat="49.49125" lon="-1.26255">
        <ele>3.3</ele>
        <time>2023-05-18T00:40:08Z</time>
      </trkpt>
      <trkpt lat="49.49144" lon="-1.26272">
        <ele>3.3</ele>
        <time>2023-05-18T00:40:12Z</time>
      </trkpt>
      <trkpt lat="49.49163" lon="-1.26289">
        <ele>3.3</ele>
        <time>2023-05-18T00:40:16Z</time>
      </trkpt>
      <trkpt lat="49.49182" lon="-1.26305">
        <ele>3.4</ele>
        <time>2023-05-18T00:40:20Z</time>
      </trkpt>
      <trkpt lat="49.49201" lon="-1.26321">
        <ele>3.4</ele>
        <time>2023-05-18T00:40:24Z</time>
      </trkpt>
      <trkpt lat="49.4922" lon="-1.26336">
        <ele>3.4</ele>
        <time>2023-05-18T00:40:28Z</time>
      </trkpt>
      <trkpt lat="49.49239" lon="-1.26353">
        <ele>3.4</ele>
        <time>2023-05-18T00:40:32Z</time>
      </trkpt>
      <trkpt lat="49.49259" lon="-1.26368">
        <ele>3.4</ele>
        <time>2023-05-18T00:40:36Z</time>
      </trkpt>
      <trkpt lat="49.49279" lon="-1.26385">
        <ele>3.4</ele>
        <time>2023-05-18T00:40:40Z</time>
      </trkpt>
      <trkpt lat="49.49298" lon="-1.26402">
        <ele>3.5</ele>
        <time>2023-05-18T00:40:44Z</time>
      </trkpt>
      <trkpt lat="49.49317" lon="-1.26418">
        <ele>3.5</ele>
        <time>2023-05-18T00:40:48Z</time>
      </trkpt>
      <trkpt lat="49.49336" lon="-1.26435">
        <ele>3.6</ele>
        <time>2023-05-18T00:40:52Z</time>
      </trkpt>
      <trkpt lat="49.49356" lon="-1.26451">
        <ele>3.7</ele>
        <time>2023-05-18T00:40:56Z</time>
      </trkpt>
      <trkpt lat="49.49375" lon="-1.26469">
        <ele>3.7</ele>
        <time>2023-05-18T00:41:00Z</time>
      </trkpt>
      <trkpt lat="49.49393" lon="-1.26486">
        <ele>3.6</ele>
        <time>2023-05-18T00:41:04Z</time>
      </trkpt>
      <trkpt lat="49.49412" lon="-1.26503">
        <ele>3.7</ele>
        <time>2023-05-18T00:41:08Z</time>
      </trkpt>
      <trkpt lat="49.49431" lon="-1.26516">
        <ele>3.8</ele>
        <time>2023-05-18T00:41:12Z</time>
      </trkpt>
      <trkpt lat="49.49451" lon="-1.26528">
        <ele>3.9</ele>
        <time>2023-05-18T00:41:16Z</time>
      </trkpt>
      <trkpt lat="49.4947" lon="-1.26539">
        <ele>4</ele>
        <time>2023-05-18T00:41:20Z</time>
      </trkpt>
      <trkpt lat="49.49488" lon="-1.26552">
        <ele>4.2</ele>
        <time>2023-05-18T00:41:24Z</time>
      </trkpt>
      <trkpt lat="49.49506" lon="-1.26567">
        <ele>4.3</ele>
        <time>2023-05-18T00:41:28Z</time>
      </trkpt>
      <trkpt lat="49.49524" lon="-1.26581">
        <ele>4.3</ele>
        <time>2023-05-18T00:41:32Z</time>
      </trkpt>
      <trkpt lat="49.49542" lon="-1.26596">
        <ele>4.1</ele>
        <time>2023-05-18T00:41:36Z</time>
      </trkpt>
      <trkpt lat="49.49561" lon="-1.26613">
        <ele>4</ele>
        <time>2023-05-18T00:41:40Z</time>
      </trkpt>
      <trkpt lat="49.4958" lon="-1.2663">
        <ele>4</ele>
        <time>2023-05-18T00:41:44Z</time>
      </trkpt>
      <trkpt lat="49.49599" lon="-1.26646">
        <ele>4</ele>
        <time>2023-05-18T00:41:48Z</time>
      </trkpt>
      <trkpt lat="49.49619" lon="-1.26661">
        <ele>4</ele>
        <time>2023-05-18T00:41:52Z</time>
      </trkpt>
      <trkpt lat="49.49639" lon="-1.26676">
        <ele>3.9</ele>
        <time>2023-05-18T00:41:56Z</time>
      </trkpt>
      <trkpt lat="49.49658" lon="-1.26691">
        <ele>4</ele>
        <time>2023-05-18T00:42:00Z</time>
      </trkpt>
      <trkpt lat="49.49678" lon="-1.26706">
        <ele>4</ele>
        <time>2023-05-18T00:42:04Z</time>
      </trkpt>
      <trkpt lat="49.49696" lon="-1.26721">
        <ele>4.1</ele>
        <time>2023-05-18T00:42:08Z</time>
      </trkpt>
      <trkpt lat="49.49715" lon="-1.26737">
        <ele>4.2</ele>
        <time>2023-05-18T00:42:12Z</time>
      </trkpt>
      <trkpt lat="49.49734" lon="-1.26751">
        <ele>4.4</ele>
        <time>2023-05-18T00:42:16Z</time>
      </trkpt>
      <trkpt lat="49.49752" lon="-1.26764">
        <ele>4.4</ele>
        <time>2023-05-18T00:42:20Z</time>
      </trkpt>
      <trkpt lat="49.4977" lon="-1.26779">
        <ele>4.5</ele>
        <time>2023-05-18T00:42:24Z</time>
      </trkpt>
      <trkpt lat="49.4979" lon="-1.26794">
        <ele>4.5</ele>
        <time>2023-05-18T00:42:28Z</time>
      </trkpt>
      <trkpt lat="49.49808" lon="-1.26809">
        <ele>4.5</ele>
        <time>2023-05-18T00:42:32Z</time>
      </trkpt>
      <trkpt lat="49.49827" lon="-1.26825">
        <ele>4.6</ele>
        <time>2023-05-18T00:42:36Z</time>
      </trkpt>
      <trkpt lat="49.49846" lon="-1.26843">
        <ele>4.5</ele>
        <time>2023-05-18T00:42:40Z</time>
      </trkpt>
      <trkpt lat="49.49866" lon="-1.26858">
        <ele>4.4</ele>
        <time>2023-05-18T00:42:44Z</time>
      </trkpt>
      <trkpt lat="49.49885" lon="-1.26876">
        <ele>4.4</ele>
        <time>2023-05-18T00:42:48Z</time>
      </trkpt>
      <trkpt lat="49.49905" lon="-1.26893">
        <ele>4.4</ele>
        <time>2023-05-18T00:42:52Z</time>
      </trkpt>
      <trkpt lat="49.49924" lon="-1.2691">
        <ele>4.4</ele>
        <time>2023-05-18T00:42:56Z</time>
      </trkpt>
      <trkpt lat="49.49943" lon="-1.26928">
        <ele>4.4</ele>
        <time>2023-05-18T00:43:00Z</time>
      </trkpt>
      <trkpt lat="49.49963" lon="-1.26944">
        <ele>4.4</ele>
        <time>2023-05-18T00:43:04Z</time>
      </trkpt>
      <trkpt lat="49.49981" lon="-1.26961">
        <ele>4.5</ele>
        <time>2023-05-18T00:43:08Z</time>
      </trkpt>
      <trkpt lat="49.5" lon="-1.26978">
        <ele>4.5</ele>
        <time>2023-05-18T00:43:12Z</time>
      </trkpt>
      <trkpt lat="49.50018" lon="-1.26996">
        <ele>4.5</ele>
        <time>2023-05-18T00:43:16Z</time>
      </trkpt>
      <trkpt lat="49.50036" lon="-1.27015">
        <ele>4.6</ele>
        <time>2023-05-18T00:43:20Z</time>
      </trkpt>
      <trkpt lat="49.50052" lon="-1.27034">
        <ele>4.8</ele>
        <time>2023-05-18T00:43:24Z</time>
      </trkpt>
      <trkpt lat="49.50069" lon="-1.27053">
        <ele>4.8</ele>
        <time>2023-05-18T00:43:28Z</time>
      </trkpt>
      <trkpt lat="49.50086" lon="-1.27074">
        <ele>4.7</ele>
        <time>2023-05-18T00:43:32Z</time>
      </trkpt>
      <trkpt lat="49.50103" lon="-1.27095">
        <ele>4.7</ele>
        <time>2023-05-18T00:43:36Z</time>
      </trkpt>
      <trkpt lat="49.50121" lon="-1.27115">
        <ele>4.7</ele>
        <time>2023-05-18T00:43:40Z</time>
      </trkpt>
      <trkpt lat="49.50137" lon="-1.27135">
        <ele>4.7</ele>
        <time>2023-05-18T00:43:44Z</time>
      </trkpt>
      <trkpt lat="49.50155" lon="-1.27155">
        <ele>4.7</ele>
        <time>2023-05-18T00:43:48Z</time>
      </trkpt>
      <trkpt lat="49.5017" lon="-1.27174">
        <ele>4.7</ele>
        <time>2023-05-18T00:43:52Z</time>
      </trkpt>
      <trkpt lat="49.50186" lon="-1.27191">
        <ele>4.7</ele>
        <time>2023-05-18T00:43:56Z</time>
      </trkpt>
      <trkpt lat="49.50202" lon="-1.27211">
        <ele>4.7</ele>
        <time>2023-05-18T00:44:01Z</time>
      </trkpt>
      <trkpt lat="49.5022" lon="-1.27219">
        <ele>4.6</ele>
        <time>2023-05-18T00:44:10Z</time>
      </trkpt>
      <trkpt lat="49.50231" lon="-1.27244">
        <ele>4.6</ele>
        <time>2023-05-18T00:45:41Z</time>
      </trkpt>
      <trkpt lat="49.50246" lon="-1.27262">
        <ele>4.7</ele>
        <time>2023-05-18T00:45:47Z</time>
      </trkpt>
      <trkpt lat="49.50261" lon="-1.2728">
        <ele>4.7</ele>
        <time>2023-05-18T00:45:52Z</time>
      </trkpt>
      <trkpt lat="49.50278" lon="-1.27301">
        <ele>4.8</ele>
        <time>2023-05-18T00:45:57Z</time>
      </trkpt>
      <trkpt lat="49.50293" lon="-1.27318">
        <ele>4.7</ele>
        <time>2023-05-18T00:46:01Z</time>
      </trkpt>
      <trkpt lat="49.50307" lon="-1.27336">
        <ele>4.7</ele>
        <time>2023-05-18T00:46:05Z</time>
      </trkpt>
      <trkpt lat="49.50322" lon="-1.27355">
        <ele>4.7</ele>
        <time>2023-05-18T00:46:09Z</time>
      </trkpt>
      <trkpt lat="49.50338" lon="-1.27373">
        <ele>4.6</ele>
        <time>2023-05-18T00:46:13Z</time>
      </trkpt>
      <trkpt lat="49.50354" lon="-1.27392">
        <ele>4.5</ele>
        <time>2023-05-18T00:46:17Z</time>
      </trkpt>
      <trkpt lat="49.50369" lon="-1.27411">
        <ele>4.5</ele>
        <time>2023-05-18T00:46:21Z</time>
      </trkpt>
      <trkpt lat="49.50385" lon="-1.2743">
        <ele>4.4</ele>
        <time>2023-05-18T00:46:25Z</time>
      </trkpt>
      <trkpt lat="49.50403" lon="-1.2745">
        <ele>4.5</ele>
        <time>2023-05-18T00:46:29Z</time>
      </trkpt>
      <trkpt lat="49.5042" lon="-1.27471">
        <ele>4.6</ele>
        <time>2023-05-18T00:46:33Z</time>
      </trkpt>
      <trkpt lat="49.50438" lon="-1.27491">
        <ele>4.8</ele>
        <time>2023-05-18T00:46:37Z</time>
      </trkpt>
      <trkpt lat="49.50455" lon="-1.2751">
        <ele>5</ele>
        <time>2023-05-18T00:46:41Z</time>
      </trkpt>
      <trkpt lat="49.50472" lon="-1.27529">
        <ele>5.1</ele>
        <time>2023-05-18T00:46:45Z</time>
      </trkpt>
      <trkpt lat="49.5049" lon="-1.27547">
        <ele>5.3</ele>
        <time>2023-05-18T00:46:49Z</time>
      </trkpt>
      <trkpt lat="49.50506" lon="-1.27566">
        <ele>5.5</ele>
        <time>2023-05-18T00:46:53Z</time>
      </trkpt>
      <trkpt lat="49.50524" lon="-1.27586">
        <ele>5.5</ele>
        <time>2023-05-18T00:46:57Z</time>
      </trkpt>
      <trkpt lat="49.50543" lon="-1.27605">
        <ele>5.4</ele>
        <time>2023-05-18T00:47:01Z</time>
      </trkpt>
      <trkpt lat="49.50562" lon="-1.27627">
        <ele>5.4</ele>
        <time>2023-05-18T00:47:05Z</time>
      </trkpt>
      <trkpt lat="49.50581" lon="-1.27648">
        <ele>5.3</ele>
        <time>2023-05-18T00:47:09Z</time>
      </trkpt>
      <trkpt lat="49.50597" lon="-1.27666">
        <ele>5.3</ele>
        <time>2023-05-18T00:47:12Z</time>
      </trkpt>
      <trkpt lat="49.50615" lon="-1.27684">
        <ele>5.2</ele>
        <time>2023-05-18T00:47:15Z</time>
      </trkpt>
      <trkpt lat="49.50633" lon="-1.27704">
        <ele>5.2</ele>
        <time>2023-05-18T00:47:18Z</time>
      </trkpt>
      <trkpt lat="49.5065" lon="-1.27721">
        <ele>5.2</ele>
        <time>2023-05-18T00:47:21Z</time>
      </trkpt>
      <trkpt lat="49.50666" lon="-1.27739">
        <ele>5.2</ele>
        <time>2023-05-18T00:47:24Z</time>
      </trkpt>
      <trkpt lat="49.50683" lon="-1.27757">
        <ele>5.1</ele>
        <time>2023-05-18T00:47:27Z</time>
      </trkpt>
      <trkpt lat="49.50698" lon="-1.27776">
        <ele>5</ele>
        <time>2023-05-18T00:47:30Z</time>
      </trkpt>
      <trkpt lat="49.50713" lon="-1.27796">
        <ele>4.8</ele>
        <time>2023-05-18T00:47:33Z</time>
      </trkpt>
      <trkpt lat="49.50728" lon="-1.27818">
        <ele>4.7</ele>
        <time>2023-05-18T00:47:36Z</time>
      </trkpt>
      <trkpt lat="49.50742" lon="-1.27842">
        <ele>4.6</ele>
        <time>2023-05-18T00:47:39Z</time>
      </trkpt>
      <trkpt lat="49.50754" lon="-1.27868">
        <ele>4.3</ele>
        <time>2023-05-18T00:47:42Z</time>
      </trkpt>
      <trkpt lat="49.50767" lon="-1.27892">
        <ele>4.1</ele>
        <time>2023-05-18T00:47:45Z</time>
      </trkpt>
      <trkpt lat="49.5078" lon="-1.27918">
        <ele>4</ele>
        <time>2023-05-18T00:47:48Z</time>
      </trkpt>
      <trkpt lat="49.50793" lon="-1.27946">
        <ele>3.8</ele>
        <time>2023-05-18T00:47:51Z</time>
      </trkpt>
      <trkpt lat="49.50805" lon="-1.27973">
        <ele>3.6</ele>
        <time>2023-05-18T00:47:54Z</time>
      </trkpt>
      <trkpt lat="49.50819" lon="-1.27999">
        <ele>3.4</ele>
        <time>2023-05-18T00:47:57Z</time>
      </trkpt>
      <trkpt lat="49.50836" lon="-1.28024">
        <ele>3.2</ele>
        <time>2023-05-18T00:48:00Z</time>
      </trkpt>
      <trkpt lat="49.50853" lon="-1.28045">
        <ele>3.1</ele>
        <time>2023-05-18T00:48:03Z</time>
      </trkpt>
      <trkpt lat="49.50872" lon="-1.28063">
        <ele>3</ele>
        <time>2023-05-18T00:48:06Z</time>
      </trkpt>
      <trkpt lat="49.5089" lon="-1.28077">
        <ele>3</ele>
        <time>2023-05-18T00:48:09Z</time>
      </trkpt>
      <trkpt lat="49.50909" lon="-1.28093">
        <ele>3</ele>
        <time>2023-05-18T00:48:12Z</time>
      </trkpt>
      <trkpt lat="49.50928" lon="-1.28109">
        <ele>3</ele>
        <time>2023-05-18T00:48:15Z</time>
      </trkpt>
      <trkpt lat="49.50946" lon="-1.28125">
        <ele>3.1</ele>
        <time>2023-05-18T00:48:18Z</time>
      </trkpt>
      <trkpt lat="49.50966" lon="-1.28142">
        <ele>3.2</ele>
        <time>2023-05-18T00:48:21Z</time>
      </trkpt>
      <trkpt lat="49.50984" lon="-1.28157">
        <ele>3.3</ele>
        <time>2023-05-18T00:48:24Z</time>
      </trkpt>
      <trkpt lat="49.51002" lon="-1.28172">
        <ele>3.3</ele>
        <time>2023-05-18T00:48:27Z</time>
      </trkpt>
      <trkpt lat="49.51019" lon="-1.28189">
        <ele>3.3</ele>
        <time>2023-05-18T00:48:30Z</time>
      </trkpt>
      <trkpt lat="49.51037" lon="-1.28205">
        <ele>3.3</ele>
        <time>2023-05-18T00:48:33Z</time>
      </trkpt>
      <trkpt lat="49.51056" lon="-1.28222">
        <ele>3.4</ele>
        <time>2023-05-18T00:48:36Z</time>
      </trkpt>
      <trkpt lat="49.51074" lon="-1.28239">
        <ele>3.5</ele>
        <time>2023-05-18T00:48:39Z</time>
      </trkpt>
      <trkpt lat="49.51091" lon="-1.28253">
        <ele>3.5</ele>
        <time>2023-05-18T00:48:42Z</time>
      </trkpt>
      <trkpt lat="49.51109" lon="-1.2827">
        <ele>3.5</ele>
        <time>2023-05-18T00:48:45Z</time>
      </trkpt>
      <trkpt lat="49.51127" lon="-1.28287">
        <ele>3.6</ele>
        <time>2023-05-18T00:48:48Z</time>
      </trkpt>
      <trkpt lat="49.51146" lon="-1.28302">
        <ele>3.6</ele>
        <time>2023-05-18T00:48:51Z</time>
      </trkpt>
      <trkpt lat="49.51163" lon="-1.28319">
        <ele>3.6</ele>
        <time>2023-05-18T00:48:54Z</time>
      </trkpt>
      <trkpt lat="49.5118" lon="-1.28336">
        <ele>3.6</ele>
        <time>2023-05-18T00:48:57Z</time>
      </trkpt>
      <trkpt lat="49.51196" lon="-1.28353">
        <ele>3.5</ele>
        <time>2023-05-18T00:49:00Z</time>
      </trkpt>
      <trkpt lat="49.51211" lon="-1.28373">
        <ele>3.5</ele>
        <time>2023-05-18T00:49:03Z</time>
      </trkpt>
      <trkpt lat="49.51226" lon="-1.28395">
        <ele>3.4</ele>
        <time>2023-05-18T00:49:06Z</time>
      </trkpt>
      <trkpt lat="49.51242" lon="-1.28417">
        <ele>3.3</ele>
        <time>2023-05-18T00:49:09Z</time>
      </trkpt>
      <trkpt lat="49.51258" lon="-1.28439">
        <ele>3.2</ele>
        <time>2023-05-18T00:49:12Z</time>
      </trkpt>
      <trkpt lat="49.51273" lon="-1.28462">
        <ele>3</ele>
        <time>2023-05-18T00:49:15Z</time>
      </trkpt>
      <trkpt lat="49.51289" lon="-1.28485">
        <ele>2.9</ele>
        <time>2023-05-18T00:49:18Z</time>
      </trkpt>
      <trkpt lat="49.51305" lon="-1.28508">
        <ele>2.9</ele>
        <time>2023-05-18T00:49:21Z</time>
      </trkpt>
      <trkpt lat="49.5132" lon="-1.2853">
        <ele>2.9</ele>
        <time>2023-05-18T00:49:24Z</time>
      </trkpt>
      <trkpt lat="49.51337" lon="-1.28551">
        <ele>2.8</ele>
        <time>2023-05-18T00:49:27Z</time>
      </trkpt>
      <trkpt lat="49.51354" lon="-1.28571">
        <ele>2.7</ele>
        <time>2023-05-18T00:49:30Z</time>
      </trkpt>
      <trkpt lat="49.51371" lon="-1.2859">
        <ele>2.8</ele>
        <time>2023-05-18T00:49:33Z</time>
      </trkpt>
      <trkpt lat="49.51385" lon="-1.28611">
        <ele>2.7</ele>
        <time>2023-05-18T00:49:36Z</time>
      </trkpt>
      <trkpt lat="49.51398" lon="-1.28632">
        <ele>2.7</ele>
        <time>2023-05-18T00:49:39Z</time>
      </trkpt>
      <trkpt lat="49.51411" lon="-1.28654">
        <ele>2.7</ele>
        <time>2023-05-18T00:49:42Z</time>
      </trkpt>
      <trkpt lat="49.51425" lon="-1.28676">
        <ele>2.7</ele>
        <time>2023-05-18T00:49:45Z</time>
      </trkpt>
      <trkpt lat="49.51437" lon="-1.28698">
        <ele>2.8</ele>
        <time>2023-05-18T00:49:48Z</time>
      </trkpt>
      <trkpt lat="49.51449" lon="-1.28719">
        <ele>2.8</ele>
        <time>2023-05-18T00:49:51Z</time>
      </trkpt>
      <trkpt lat="49.5146" lon="-1.28741">
        <ele>2.9</ele>
        <time>2023-05-18T00:49:54Z</time>
      </trkpt>
      <trkpt lat="49.51474" lon="-1.28768">
        <ele>3.2</ele>
        <time>2023-05-18T00:49:58Z</time>
      </trkpt>
      <trkpt lat="49.5149" lon="-1.28787">
        <ele>3.6</ele>
        <time>2023-05-18T00:50:04Z</time>
      </trkpt>
      <trkpt lat="49.51487" lon="-1.28819">
        <ele>3.3</ele>
        <time>2023-05-18T00:50:10Z</time>
      </trkpt>
      <trkpt lat="49.5148" lon="-1.28846">
        <ele>3</ele>
        <time>2023-05-18T00:50:14Z</time>
      </trkpt>
      <trkpt lat="49.51472" lon="-1.28877">
        <ele>2.9</ele>
        <time>2023-05-18T00:50:19Z</time>
      </trkpt>
      <trkpt lat="49.51465" lon="-1.28902">
        <ele>2.9</ele>
        <time>2023-05-18T00:50:24Z</time>
      </trkpt>
      <trkpt lat="49.51462" lon="-1.28931">
        <ele>3.1</ele>
        <time>2023-05-18T00:50:30Z</time>
      </trkpt>
      <trkpt lat="49.51462" lon="-1.28962">
        <ele>3.1</ele>
        <time>2023-05-18T00:50:38Z</time>
      </trkpt>
      <trkpt lat="49.51465" lon="-1.2899">
        <ele>2.9</ele>
        <time>2023-05-18T00:50:43Z</time>
      </trkpt>
      <trkpt lat="49.51469" lon="-1.29019">
        <ele>2.8</ele>
        <time>2023-05-18T00:50:47Z</time>
      </trkpt>
      <trkpt lat="49.51472" lon="-1.2905">
        <ele>2.7</ele>
        <time>2023-05-18T00:50:51Z</time>
      </trkpt>
      <trkpt lat="49.51477" lon="-1.29083">
        <ele>2.7</ele>
        <time>2023-05-18T00:50:55Z</time>
      </trkpt>
      <trkpt lat="49.5148" lon="-1.29116">
        <ele>2.7</ele>
        <time>2023-05-18T00:50:59Z</time>
      </trkpt>
      <trkpt lat="49.5149" lon="-1.29146">
        <ele>2.7</ele>
        <time>2023-05-18T00:51:03Z</time>
      </trkpt>
      <trkpt lat="49.51503" lon="-1.29177">
        <ele>2.6</ele>
        <time>2023-05-18T00:51:07Z</time>
      </trkpt>
      <trkpt lat="49.51515" lon="-1.29201">
        <ele>2.5</ele>
        <time>2023-05-18T00:51:10Z</time>
      </trkpt>
      <trkpt lat="49.51526" lon="-1.29224">
        <ele>2.4</ele>
        <time>2023-05-18T00:51:13Z</time>
      </trkpt>
      <trkpt lat="49.51537" lon="-1.29256">
        <ele>2.4</ele>
        <time>2023-05-18T00:51:17Z</time>
      </trkpt>
      <trkpt lat="49.51542" lon="-1.29293">
        <ele>2.4</ele>
        <time>2023-05-18T00:51:21Z</time>
      </trkpt>
      <trkpt lat="49.51544" lon="-1.2932">
        <ele>2.3</ele>
        <time>2023-05-18T00:51:24Z</time>
      </trkpt>
      <trkpt lat="49.51546" lon="-1.2935">
        <ele>2.3</ele>
        <time>2023-05-18T00:51:27Z</time>
      </trkpt>
      <trkpt lat="49.51548" lon="-1.29378">
        <ele>2.3</ele>
        <time>2023-05-18T00:51:30Z</time>
      </trkpt>
      <trkpt lat="49.51551" lon="-1.29407">
        <ele>2.2</ele>
        <time>2023-05-18T00:51:33Z</time>
      </trkpt>
      <trkpt lat="49.51555" lon="-1.29438">
        <ele>2.2</ele>
        <time>2023-05-18T00:51:36Z</time>
      </trkpt>
      <trkpt lat="49.51557" lon="-1.29469">
        <ele>2.2</ele>
        <time>2023-05-18T00:51:39Z</time>
      </trkpt>
      <trkpt lat="49.51559" lon="-1.29499">
        <ele>2.2</ele>
        <time>2023-05-18T00:51:42Z</time>
      </trkpt>
      <trkpt lat="49.51558" lon="-1.29527">
        <ele>2.1</ele>
        <time>2023-05-18T00:51:45Z</time>
      </trkpt>
      <trkpt lat="49.51555" lon="-1.29559">
        <ele>2</ele>
        <time>2023-05-18T00:51:48Z</time>
      </trkpt>
      <trkpt lat="49.51554" lon="-1.29594">
        <ele>2</ele>
        <time>2023-05-18T00:51:51Z</time>
      </trkpt>
      <trkpt lat="49.51557" lon="-1.29628">
        <ele>2</ele>
        <time>2023-05-18T00:51:54Z</time>
      </trkpt>
      <trkpt lat="49.51561" lon="-1.29662">
        <ele>2</ele>
        <time>2023-05-18T00:51:57Z</time>
      </trkpt>
      <trkpt lat="49.51565" lon="-1.29692">
        <ele>2</ele>
        <time>2023-05-18T00:52:00Z</time>
      </trkpt>
      <trkpt lat="49.51568" lon="-1.29724">
        <ele>2.1</ele>
        <time>2023-05-18T00:52:03Z</time>
      </trkpt>
      <trkpt lat="49.5157" lon="-1.29756">
        <ele>2.3</ele>
        <time>2023-05-18T00:52:06Z</time>
      </trkpt>
      <trkpt lat="49.5157" lon="-1.29784">
        <ele>2.5</ele>
        <time>2023-05-18T00:52:09Z</time>
      </trkpt>
      <trkpt lat="49.51568" lon="-1.29813">
        <ele>2.8</ele>
        <time>2023-05-18T00:52:12Z</time>
      </trkpt>
      <trkpt lat="49.51565" lon="-1.29843">
        <ele>3</ele>
        <time>2023-05-18T00:52:15Z</time>
      </trkpt>
      <trkpt lat="49.51563" lon="-1.29871">
        <ele>3.3</ele>
        <time>2023-05-18T00:52:18Z</time>
      </trkpt>
      <trkpt lat="49.51561" lon="-1.29901">
        <ele>3.5</ele>
        <time>2023-05-18T00:52:21Z</time>
      </trkpt>
      <trkpt lat="49.51559" lon="-1.2993">
        <ele>3.7</ele>
        <time>2023-05-18T00:52:24Z</time>
      </trkpt>
      <trkpt lat="49.51558" lon="-1.29958">
        <ele>3.9</ele>
        <time>2023-05-18T00:52:27Z</time>
      </trkpt>
      <trkpt lat="49.51554" lon="-1.29993">
        <ele>4.3</ele>
        <time>2023-05-18T00:52:31Z</time>
      </trkpt>
      <trkpt lat="49.51553" lon="-1.30021">
        <ele>4.7</ele>
        <time>2023-05-18T00:52:34Z</time>
      </trkpt>
      <trkpt lat="49.51553" lon="-1.30049">
        <ele>5.1</ele>
        <time>2023-05-18T00:52:37Z</time>
      </trkpt>
      <trkpt lat="49.51556" lon="-1.30084">
        <ele>5.7</ele>
        <time>2023-05-18T00:52:41Z</time>
      </trkpt>
      <trkpt lat="49.51564" lon="-1.30115">
        <ele>6.2</ele>
        <time>2023-05-18T00:52:45Z</time>
      </trkpt>
      <trkpt lat="49.51574" lon="-1.30146">
        <ele>6.4</ele>
        <time>2023-05-18T00:52:49Z</time>
      </trkpt>
      <trkpt lat="49.51585" lon="-1.30177">
        <ele>6.3</ele>
        <time>2023-05-18T00:52:53Z</time>
      </trkpt>
      <trkpt lat="49.51595" lon="-1.30201">
        <ele>6.1</ele>
        <time>2023-05-18T00:52:56Z</time>
      </trkpt>
      <trkpt lat="49.51605" lon="-1.30227">
        <ele>5.8</ele>
        <time>2023-05-18T00:52:59Z</time>
      </trkpt>
      <trkpt lat="49.51616" lon="-1.30251">
        <ele>5.3</ele>
        <time>2023-05-18T00:53:02Z</time>
      </trkpt>
      <trkpt lat="49.51628" lon="-1.30278">
        <ele>4.7</ele>
        <time>2023-05-18T00:53:05Z</time>
      </trkpt>
      <trkpt lat="49.51639" lon="-1.30305">
        <ele>4.2</ele>
        <time>2023-05-18T00:53:08Z</time>
      </trkpt>
      <trkpt lat="49.51651" lon="-1.30333">
        <ele>3.5</ele>
        <time>2023-05-18T00:53:11Z</time>
      </trkpt>
      <trkpt lat="49.51661" lon="-1.30363">
        <ele>3</ele>
        <time>2023-05-18T00:53:14Z</time>
      </trkpt>
      <trkpt lat="49.51674" lon="-1.30394">
        <ele>2.6</ele>
        <time>2023-05-18T00:53:17Z</time>
      </trkpt>
      <trkpt lat="49.51684" lon="-1.30422">
        <ele>2.5</ele>
        <time>2023-05-18T00:53:20Z</time>
      </trkpt>
      <trkpt lat="49.51696" lon="-1.3045">
        <ele>2.3</ele>
        <time>2023-05-18T00:53:23Z</time>
      </trkpt>
      <trkpt lat="49.51707" lon="-1.30478">
        <ele>2.2</ele>
        <time>2023-05-18T00:53:26Z</time>
      </trkpt>
      <trkpt lat="49.51718" lon="-1.30505">
        <ele>2.2</ele>
        <time>2023-05-18T00:53:29Z</time>
      </trkpt>
      <trkpt lat="49.5173" lon="-1.30532">
        <ele>2.1</ele>
        <time>2023-05-18T00:53:32Z</time>
      </trkpt>
      <trkpt lat="49.51741" lon="-1.30559">
        <ele>2.2</ele>
        <time>2023-05-18T00:53:35Z</time>
      </trkpt>
      <trkpt lat="49.51752" lon="-1.30585">
        <ele>2.4</ele>
        <time>2023-05-18T00:53:38Z</time>
      </trkpt>
      <trkpt lat="49.51763" lon="-1.30611">
        <ele>2.9</ele>
        <time>2023-05-18T00:53:41Z</time>
      </trkpt>
      <trkpt lat="49.51775" lon="-1.30642">
        <ele>3.5</ele>
        <time>2023-05-18T00:53:45Z</time>
      </trkpt>
      <trkpt lat="49.51787" lon="-1.30671">
        <ele>4</ele>
        <time>2023-05-18T00:53:49Z</time>
      </trkpt>
      <trkpt lat="49.51798" lon="-1.30699">
        <ele>4.5</ele>
        <time>2023-05-18T00:53:53Z</time>
      </trkpt>
      <trkpt lat="49.51809" lon="-1.30726">
        <ele>4.8</ele>
        <time>2023-05-18T00:53:57Z</time>
      </trkpt>
      <trkpt lat="49.5182" lon="-1.30757">
        <ele>5</ele>
        <time>2023-05-18T00:54:01Z</time>
      </trkpt>
      <trkpt lat="49.51836" lon="-1.30783">
        <ele>5.1</ele>
        <time>2023-05-18T00:54:05Z</time>
      </trkpt>
      <trkpt lat="49.51852" lon="-1.30807">
        <ele>5.2</ele>
        <time>2023-05-18T00:54:09Z</time>
      </trkpt>
      <trkpt lat="49.51872" lon="-1.30825">
        <ele>5.4</ele>
        <time>2023-05-18T00:54:13Z</time>
      </trkpt>
      <trkpt lat="49.51887" lon="-1.30839">
        <ele>5.5</ele>
        <time>2023-05-18T00:54:16Z</time>
      </trkpt>
      <trkpt lat="49.51907" lon="-1.30854">
        <ele>5.7</ele>
        <time>2023-05-18T00:54:20Z</time>
      </trkpt>
      <trkpt lat="49.51926" lon="-1.3087">
        <ele>6</ele>
        <time>2023-05-18T00:54:24Z</time>
      </trkpt>
      <trkpt lat="49.51944" lon="-1.30887">
        <ele>6.4</ele>
        <time>2023-05-18T00:54:28Z</time>
      </trkpt>
      <trkpt lat="49.51961" lon="-1.30904">
        <ele>7</ele>
        <time>2023-05-18T00:54:32Z</time>
      </trkpt>
      <trkpt lat="49.51975" lon="-1.3093">
        <ele>7.8</ele>
        <time>2023-05-18T00:54:37Z</time>
      </trkpt>
      <trkpt lat="49.51983" lon="-1.30961">
        <ele>8.7</ele>
        <time>2023-05-18T00:54:42Z</time>
      </trkpt>
      <trkpt lat="49.51986" lon="-1.30989">
        <ele>9.8</ele>
        <time>2023-05-18T00:54:47Z</time>
      </trkpt>
      <trkpt lat="49.51985" lon="-1.31021">
        <ele>11.1</ele>
        <time>2023-05-18T00:54:54Z</time>
      </trkpt>
      <trkpt lat="49.51984" lon="-1.31053">
        <ele>12.4</ele>
        <time>2023-05-18T00:55:01Z</time>
      </trkpt>
      <trkpt lat="49.51983" lon="-1.31081">
        <ele>13.6</ele>
        <time>2023-05-18T00:55:09Z</time>
      </trkpt>
      <trkpt lat="49.51981" lon="-1.31112">
        <ele>14.8</ele>
        <time>2023-05-18T00:55:17Z</time>
      </trkpt>
      <trkpt lat="49.5198" lon="-1.31143">
        <ele>15.8</ele>
        <time>2023-05-18T00:55:24Z</time>
      </trkpt>
      <trkpt lat="49.51973" lon="-1.31173">
        <ele>16.3</ele>
        <time>2023-05-18T00:55:30Z</time>
      </trkpt>
      <trkpt lat="49.51964" lon="-1.31202">
        <ele>16.6</ele>
        <time>2023-05-18T00:55:35Z</time>
      </trkpt>
      <trkpt lat="49.51953" lon="-1.31231">
        <ele>16.6</ele>
        <time>2023-05-18T00:55:40Z</time>
      </trkpt>
      <trkpt lat="49.51943" lon="-1.31255">
        <ele>16.5</ele>
        <time>2023-05-18T00:55:44Z</time>
      </trkpt>
      <trkpt lat="49.51933" lon="-1.31284">
        <ele>16.4</ele>
        <time>2023-05-18T00:55:48Z</time>
      </trkpt>
      <trkpt lat="49.51931" lon="-1.31317">
        <ele>16.2</ele>
        <time>2023-05-18T00:55:52Z</time>
      </trkpt>
      <trkpt lat="49.51932" lon="-1.31349">
        <ele>16.1</ele>
        <time>2023-05-18T00:55:56Z</time>
      </trkpt>
      <trkpt lat="49.51943" lon="-1.3138">
        <ele>16</ele>
        <time>2023-05-18T00:56:00Z</time>
      </trkpt>
      <trkpt lat="49.51959" lon="-1.31402">
        <ele>15.9</ele>
        <time>2023-05-18T00:56:04Z</time>
      </trkpt>
      <trkpt lat="49.51976" lon="-1.31426">
        <ele>15.8</ele>
        <time>2023-05-18T00:56:08Z</time>
      </trkpt>
      <trkpt lat="49.51992" lon="-1.31452">
        <ele>15.5</ele>
        <time>2023-05-18T00:56:12Z</time>
      </trkpt>
      <trkpt lat="49.52006" lon="-1.3148">
        <ele>15.4</ele>
        <time>2023-05-18T00:56:16Z</time>
      </trkpt>
      <trkpt lat="49.5202" lon="-1.31506">
        <ele>15.2</ele>
        <time>2023-05-18T00:56:20Z</time>
      </trkpt>
      <trkpt lat="49.52034" lon="-1.31532">
        <ele>15.2</ele>
        <time>2023-05-18T00:56:24Z</time>
      </trkpt>
      <trkpt lat="49.52047" lon="-1.31558">
        <ele>15.4</ele>
        <time>2023-05-18T00:56:28Z</time>
      </trkpt>
      <trkpt lat="49.52059" lon="-1.31584">
        <ele>15.5</ele>
        <time>2023-05-18T00:56:32Z</time>
      </trkpt>
      <trkpt lat="49.52073" lon="-1.31608">
        <ele>15.7</ele>
        <time>2023-05-18T00:56:36Z</time>
      </trkpt>
      <trkpt lat="49.52086" lon="-1.31633">
        <ele>16</ele>
        <time>2023-05-18T00:56:40Z</time>
      </trkpt>
      <trkpt lat="49.52099" lon="-1.31657">
        <ele>16.2</ele>
        <time>2023-05-18T00:56:44Z</time>
      </trkpt>
      <trkpt lat="49.52111" lon="-1.3168">
        <ele>16.5</ele>
        <time>2023-05-18T00:56:48Z</time>
      </trkpt>
      <trkpt lat="49.52122" lon="-1.31706">
        <ele>17</ele>
        <time>2023-05-18T00:56:52Z</time>
      </trkpt>
      <trkpt lat="49.52131" lon="-1.31731">
        <ele>17.8</ele>
        <time>2023-05-18T00:56:56Z</time>
      </trkpt>
      <trkpt lat="49.5214" lon="-1.31756">
        <ele>18.9</ele>
        <time>2023-05-18T00:57:01Z</time>
      </trkpt>
      <trkpt lat="49.52157" lon="-1.31769">
        <ele>19.8</ele>
        <time>2023-05-18T00:57:13Z</time>
      </trkpt>
      <trkpt lat="49.52176" lon="-1.31764">
        <ele>20</ele>
        <time>2023-05-18T00:57:18Z</time>
      </trkpt>
      <trkpt lat="49.52196" lon="-1.31755">
        <ele>20.4</ele>
        <time>2023-05-18T00:57:23Z</time>
      </trkpt>
      <trkpt lat="49.52217" lon="-1.31748">
        <ele>20.9</ele>
        <time>2023-05-18T00:57:28Z</time>
      </trkpt>
      <trkpt lat="49.52238" lon="-1.3174">
        <ele>21.5</ele>
        <time>2023-05-18T00:57:33Z</time>
      </trkpt>
      <trkpt lat="49.52258" lon="-1.31733">
        <ele>22</ele>
        <time>2023-05-18T00:57:38Z</time>
      </trkpt>
      <trkpt lat="49.52278" lon="-1.31726">
        <ele>22.5</ele>
        <time>2023-05-18T00:57:43Z</time>
      </trkpt>
      <trkpt lat="49.52298" lon="-1.31719">
        <ele>23</ele>
        <time>2023-05-18T00:57:48Z</time>
      </trkpt>
      <trkpt lat="49.52319" lon="-1.3171">
        <ele>23.6</ele>
        <time>2023-05-18T00:57:53Z</time>
      </trkpt>
      <trkpt lat="49.52339" lon="-1.31703">
        <ele>24</ele>
        <time>2023-05-18T00:57:58Z</time>
      </trkpt>
      <trkpt lat="49.5236" lon="-1.31696">
        <ele>24.4</ele>
        <time>2023-05-18T00:58:03Z</time>
      </trkpt>
      <trkpt lat="49.52381" lon="-1.31693">
        <ele>24.8</ele>
        <time>2023-05-18T00:58:08Z</time>
      </trkpt>
      <trkpt lat="49.52399" lon="-1.31691">
        <ele>25.1</ele>
        <time>2023-05-18T00:58:12Z</time>
      </trkpt>
      <trkpt lat="49.52421" lon="-1.31692">
        <ele>25.4</ele>
        <time>2023-05-18T00:58:17Z</time>
      </trkpt>
      <trkpt lat="49.52443" lon="-1.31695">
        <ele>25.7</ele>
        <time>2023-05-18T00:58:22Z</time>
      </trkpt>
      <trkpt lat="49.52461" lon="-1.317">
        <ele>25.9</ele>
        <time>2023-05-18T00:58:26Z</time>
      </trkpt>
      <trkpt lat="49.52482" lon="-1.31709">
        <ele>26.1</ele>
        <time>2023-05-18T00:58:31Z</time>
      </trkpt>
      <trkpt lat="49.525" lon="-1.31718">
        <ele>26.2</ele>
        <time>2023-05-18T00:58:35Z</time>
      </trkpt>
      <trkpt lat="49.52518" lon="-1.31729">
        <ele>26.2</ele>
        <time>2023-05-18T00:58:39Z</time>
      </trkpt>
      <trkpt lat="49.52535" lon="-1.31743">
        <ele>26.3</ele>
        <time>2023-05-18T00:58:43Z</time>
      </trkpt>
      <trkpt lat="49.52553" lon="-1.31756">
        <ele>26.3</ele>
        <time>2023-05-18T00:58:47Z</time>
      </trkpt>
      <trkpt lat="49.52572" lon="-1.3177">
        <ele>26.3</ele>
        <time>2023-05-18T00:58:51Z</time>
      </trkpt>
      <trkpt lat="49.52592" lon="-1.31785">
        <ele>26.3</ele>
        <time>2023-05-18T00:58:55Z</time>
      </trkpt>
      <trkpt lat="49.52612" lon="-1.318">
        <ele>26.2</ele>
        <time>2023-05-18T00:58:59Z</time>
      </trkpt>
      <trkpt lat="49.52632" lon="-1.31815">
        <ele>26.1</ele>
        <time>2023-05-18T00:59:03Z</time>
      </trkpt>
      <trkpt lat="49.52653" lon="-1.3183">
        <ele>25.9</ele>
        <time>2023-05-18T00:59:07Z</time>
      </trkpt>
      <trkpt lat="49.52674" lon="-1.31845">
        <ele>25.6</ele>
        <time>2023-05-18T00:59:11Z</time>
      </trkpt>
      <trkpt lat="49.52695" lon="-1.3186">
        <ele>25.3</ele>
        <time>2023-05-18T00:59:15Z</time>
      </trkpt>
      <trkpt lat="49.52714" lon="-1.31871">
        <ele>24.9</ele>
        <time>2023-05-18T00:59:18Z</time>
      </trkpt>
      <trkpt lat="49.52731" lon="-1.31883">
        <ele>24.5</ele>
        <time>2023-05-18T00:59:21Z</time>
      </trkpt>
      <trkpt lat="49.5275" lon="-1.31892">
        <ele>24.2</ele>
        <time>2023-05-18T00:59:24Z</time>
      </trkpt>
      <trkpt lat="49.52768" lon="-1.31903">
        <ele>23.7</ele>
        <time>2023-05-18T00:59:27Z</time>
      </trkpt>
      <trkpt lat="49.52788" lon="-1.31913">
        <ele>23.3</ele>
        <time>2023-05-18T00:59:30Z</time>
      </trkpt>
      <trkpt lat="49.52808" lon="-1.31924">
        <ele>22.8</ele>
        <time>2023-05-18T00:59:33Z</time>
      </trkpt>
      <trkpt lat="49.52828" lon="-1.31933">
        <ele>22.4</ele>
        <time>2023-05-18T00:59:36Z</time>
      </trkpt>
      <trkpt lat="49.52848" lon="-1.31943">
        <ele>21.9</ele>
        <time>2023-05-18T00:59:39Z</time>
      </trkpt>
      <trkpt lat="49.52868" lon="-1.31953">
        <ele>21.5</ele>
        <time>2023-05-18T00:59:42Z</time>
      </trkpt>
      <trkpt lat="49.52888" lon="-1.31963">
        <ele>21.1</ele>
        <time>2023-05-18T00:59:45Z</time>
      </trkpt>
      <trkpt lat="49.52908" lon="-1.31974">
        <ele>20.7</ele>
        <time>2023-05-18T00:59:48Z</time>
      </trkpt>
      <trkpt lat="49.52929" lon="-1.31984">
        <ele>20.5</ele>
        <time>2023-05-18T00:59:51Z</time>
      </trkpt>
      <trkpt lat="49.52948" lon="-1.31994">
        <ele>20.3</ele>
        <time>2023-05-18T00:59:54Z</time>
      </trkpt>
      <trkpt lat="49.52968" lon="-1.32004">
        <ele>20.2</ele>
        <time>2023-05-18T00:59:57Z</time>
      </trkpt>
      <trkpt lat="49.52986" lon="-1.32014">
        <ele>20.2</ele>
        <time>2023-05-18T01:00:00Z</time>
      </trkpt>
      <trkpt lat="49.53005" lon="-1.32022">
        <ele>20.2</ele>
        <time>2023-05-18T01:00:03Z</time>
      </trkpt>
      <trkpt lat="49.53023" lon="-1.32033">
        <ele>20.3</ele>
        <time>2023-05-18T01:00:06Z</time>
      </trkpt>
      <trkpt lat="49.53041" lon="-1.32042">
        <ele>20.2</ele>
        <time>2023-05-18T01:00:09Z</time>
      </trkpt>
      <trkpt lat="49.53059" lon="-1.32051">
        <ele>20.3</ele>
        <time>2023-05-18T01:00:12Z</time>
      </trkpt>
      <trkpt lat="49.53076" lon="-1.32059">
        <ele>20.3</ele>
        <time>2023-05-18T01:00:15Z</time>
      </trkpt>
      <trkpt lat="49.53093" lon="-1.32069">
        <ele>20.3</ele>
        <time>2023-05-18T01:00:18Z</time>
      </trkpt>
      <trkpt lat="49.53115" lon="-1.32082">
        <ele>20.4</ele>
        <time>2023-05-18T01:00:22Z</time>
      </trkpt>
      <trkpt lat="49.53135" lon="-1.32095">
        <ele>20.4</ele>
        <time>2023-05-18T01:00:26Z</time>
      </trkpt>
      <trkpt lat="49.53156" lon="-1.32109">
        <ele>20.2</ele>
        <time>2023-05-18T01:00:30Z</time>
      </trkpt>
      <trkpt lat="49.53177" lon="-1.32124">
        <ele>19.9</ele>
        <time>2023-05-18T01:00:34Z</time>
      </trkpt>
      <trkpt lat="49.53198" lon="-1.3214">
        <ele>19.3</ele>
        <time>2023-05-18T01:00:38Z</time>
      </trkpt>
      <trkpt lat="49.53216" lon="-1.32152">
        <ele>18.9</ele>
        <time>2023-05-18T01:00:41Z</time>
      </trkpt>
      <trkpt lat="49.53234" lon="-1.32162">
        <ele>18.5</ele>
        <time>2023-05-18T01:00:44Z</time>
      </trkpt>
      <trkpt lat="49.53254" lon="-1.32172">
        <ele>18</ele>
        <time>2023-05-18T01:00:47Z</time>
      </trkpt>
      <trkpt lat="49.53275" lon="-1.32182">
        <ele>17.6</ele>
        <time>2023-05-18T01:00:50Z</time>
      </trkpt>
      <trkpt lat="49.53296" lon="-1.32189">
        <ele>17.4</ele>
        <time>2023-05-18T01:00:53Z</time>
      </trkpt>
      <trkpt lat="49.53316" lon="-1.32195">
        <ele>17.3</ele>
        <time>2023-05-18T01:00:56Z</time>
      </trkpt>
      <trkpt lat="49.53337" lon="-1.32199">
        <ele>17.3</ele>
        <time>2023-05-18T01:00:59Z</time>
      </trkpt>
      <trkpt lat="49.53356" lon="-1.32202">
        <ele>17.4</ele>
        <time>2023-05-18T01:01:02Z</time>
      </trkpt>
      <trkpt lat="49.53379" lon="-1.32203">
        <ele>17.8</ele>
        <time>2023-05-18T01:01:06Z</time>
      </trkpt>
      <trkpt lat="49.53403" lon="-1.32203">
        <ele>18.3</ele>
        <time>2023-05-18T01:01:10Z</time>
      </trkpt>
      <trkpt lat="49.53423" lon="-1.32201">
        <ele>18.8</ele>
        <time>2023-05-18T01:01:14Z</time>
      </trkpt>
      <trkpt lat="49.53443" lon="-1.32197">
        <ele>19.2</ele>
        <time>2023-05-18T01:01:18Z</time>
      </trkpt>
      <trkpt lat="49.53462" lon="-1.32192">
        <ele>19.7</ele>
        <time>2023-05-18T01:01:22Z</time>
      </trkpt>
      <trkpt lat="49.5348" lon="-1.32188">
        <ele>20.1</ele>
        <time>2023-05-18T01:01:26Z</time>
      </trkpt>
      <trkpt lat="49.53497" lon="-1.32181">
        <ele>20.4</ele>
        <time>2023-05-18T01:01:30Z</time>
      </trkpt>
      <trkpt lat="49.53516" lon="-1.32174">
        <ele>20.5</ele>
        <time>2023-05-18T01:01:34Z</time>
      </trkpt>
      <trkpt lat="49.53535" lon="-1.32168">
        <ele>20.5</ele>
        <time>2023-05-18T01:01:38Z</time>
      </trkpt>
      <trkpt lat="49.53555" lon="-1.32161">
        <ele>20.3</ele>
        <time>2023-05-18T01:01:42Z</time>
      </trkpt>
      <trkpt lat="49.53577" lon="-1.32153">
        <ele>19.9</ele>
        <time>2023-05-18T01:01:46Z</time>
      </trkpt>
      <trkpt lat="49.536" lon="-1.32144">
        <ele>19.3</ele>
        <time>2023-05-18T01:01:50Z</time>
      </trkpt>
      <trkpt lat="49.53618" lon="-1.32138">
        <ele>18.9</ele>
        <time>2023-05-18T01:01:53Z</time>
      </trkpt>
      <trkpt lat="49.53636" lon="-1.32131">
        <ele>18.5</ele>
        <time>2023-05-18T01:01:56Z</time>
      </trkpt>
      <trkpt lat="49.53656" lon="-1.32124">
        <ele>17.9</ele>
        <time>2023-05-18T01:01:59Z</time>
      </trkpt>
      <trkpt lat="49.53676" lon="-1.32116">
        <ele>17.3</ele>
        <time>2023-05-18T01:02:02Z</time>
      </trkpt>
      <trkpt lat="49.53696" lon="-1.32109">
        <ele>16.8</ele>
        <time>2023-05-18T01:02:05Z</time>
      </trkpt>
      <trkpt lat="49.53716" lon="-1.32102">
        <ele>16.5</ele>
        <time>2023-05-18T01:02:08Z</time>
      </trkpt>
      <trkpt lat="49.53737" lon="-1.32095">
        <ele>16</ele>
        <time>2023-05-18T01:02:11Z</time>
      </trkpt>
      <trkpt lat="49.53757" lon="-1.32087">
        <ele>15.6</ele>
        <time>2023-05-18T01:02:14Z</time>
      </trkpt>
      <trkpt lat="49.53777" lon="-1.32081">
        <ele>15</ele>
        <time>2023-05-18T01:02:17Z</time>
      </trkpt>
      <trkpt lat="49.53797" lon="-1.32074">
        <ele>14.5</ele>
        <time>2023-05-18T01:02:20Z</time>
      </trkpt>
      <trkpt lat="49.53818" lon="-1.32072">
        <ele>13.9</ele>
        <time>2023-05-18T01:02:23Z</time>
      </trkpt>
      <trkpt lat="49.5384" lon="-1.32073">
        <ele>13.3</ele>
        <time>2023-05-18T01:02:26Z</time>
      </trkpt>
      <trkpt lat="49.53861" lon="-1.32077">
        <ele>12.8</ele>
        <time>2023-05-18T01:02:29Z</time>
      </trkpt>
      <trkpt lat="49.53881" lon="-1.32082">
        <ele>12.5</ele>
        <time>2023-05-18T01:02:32Z</time>
      </trkpt>
      <trkpt lat="49.53903" lon="-1.32088">
        <ele>12.5</ele>
        <time>2023-05-18T01:02:35Z</time>
      </trkpt>
      <trkpt lat="49.53923" lon="-1.32094">
        <ele>12.7</ele>
        <time>2023-05-18T01:02:38Z</time>
      </trkpt>
      <trkpt lat="49.53942" lon="-1.32098">
        <ele>13.3</ele>
        <time>2023-05-18T01:02:41Z</time>
      </trkpt>
      <trkpt lat="49.53962" lon="-1.32101">
        <ele>14.2</ele>
        <time>2023-05-18T01:02:45Z</time>
      </trkpt>
      <trkpt lat="49.53984" lon="-1.32103">
        <ele>15</ele>
        <time>2023-05-18T01:02:50Z</time>
      </trkpt>
      <trkpt lat="49.54005" lon="-1.32104">
        <ele>15.6</ele>
        <time>2023-05-18T01:02:55Z</time>
      </trkpt>
      <trkpt lat="49.54023" lon="-1.32107">
        <ele>15.9</ele>
        <time>2023-05-18T01:03:01Z</time>
      </trkpt>
      <trkpt lat="49.54041" lon="-1.3211">
        <ele>15.9</ele>
        <time>2023-05-18T01:03:10Z</time>
      </trkpt>
      <trkpt lat="49.54062" lon="-1.3211">
        <ele>15.8</ele>
        <time>2023-05-18T01:03:18Z</time>
      </trkpt>
      <trkpt lat="49.5408" lon="-1.32115">
        <ele>15.7</ele>
        <time>2023-05-18T01:03:22Z</time>
      </trkpt>
      <trkpt lat="49.54102" lon="-1.32117">
        <ele>15.6</ele>
        <time>2023-05-18T01:03:26Z</time>
      </trkpt>
      <trkpt lat="49.54125" lon="-1.32122">
        <ele>15.7</ele>
        <time>2023-05-18T01:03:30Z</time>
      </trkpt>
      <trkpt lat="49.54146" lon="-1.32124">
        <ele>15.8</ele>
        <time>2023-05-18T01:03:34Z</time>
      </trkpt>
      <trkpt lat="49.54169" lon="-1.32128">
        <ele>16.1</ele>
        <time>2023-05-18T01:03:38Z</time>
      </trkpt>
      <trkpt lat="49.54192" lon="-1.32131">
        <ele>16.4</ele>
        <time>2023-05-18T01:03:42Z</time>
      </trkpt>
      <trkpt lat="49.54214" lon="-1.32137">
        <ele>16.6</ele>
        <time>2023-05-18T01:03:46Z</time>
      </trkpt>
      <trkpt lat="49.54237" lon="-1.3214">
        <ele>16.7</ele>
        <time>2023-05-18T01:03:50Z</time>
      </trkpt>
      <trkpt lat="49.5426" lon="-1.32144">
        <ele>16.8</ele>
        <time>2023-05-18T01:03:54Z</time>
      </trkpt>
      <trkpt lat="49.54283" lon="-1.32148">
        <ele>16.8</ele>
        <time>2023-05-18T01:03:58Z</time>
      </trkpt>
      <trkpt lat="49.54301" lon="-1.32149">
        <ele>16.6</ele>
        <time>2023-05-18T01:04:01Z</time>
      </trkpt>
      <trkpt lat="49.54321" lon="-1.32148">
        <ele>16.4</ele>
        <time>2023-05-18T01:04:04Z</time>
      </trkpt>
      <trkpt lat="49.54341" lon="-1.32143">
        <ele>16.1</ele>
        <time>2023-05-18T01:04:07Z</time>
      </trkpt>
      <trkpt lat="49.54361" lon="-1.3214">
        <ele>15.8</ele>
        <time>2023-05-18T01:04:10Z</time>
      </trkpt>
      <trkpt lat="49.5438" lon="-1.32135">
        <ele>15.5</ele>
        <time>2023-05-18T01:04:13Z</time>
      </trkpt>
      <trkpt lat="49.54399" lon="-1.32131">
        <ele>15.2</ele>
        <time>2023-05-18T01:04:16Z</time>
      </trkpt>
      <trkpt lat="49.54418" lon="-1.32127">
        <ele>14.9</ele>
        <time>2023-05-18T01:04:19Z</time>
      </trkpt>
      <trkpt lat="49.54438" lon="-1.32122">
        <ele>14.8</ele>
        <time>2023-05-18T01:04:22Z</time>
      </trkpt>
      <trkpt lat="49.54459" lon="-1.32116">
        <ele>14.5</ele>
        <time>2023-05-18T01:04:25Z</time>
      </trkpt>
      <trkpt lat="49.54479" lon="-1.32113">
        <ele>14.2</ele>
        <time>2023-05-18T01:04:28Z</time>
      </trkpt>
      <trkpt lat="49.545" lon="-1.32107">
        <ele>14</ele>
        <time>2023-05-18T01:04:31Z</time>
      </trkpt>
      <trkpt lat="49.54522" lon="-1.32102">
        <ele>13.9</ele>
        <time>2023-05-18T01:04:34Z</time>
      </trkpt>
      <trkpt lat="49.54543" lon="-1.32096">
        <ele>13.8</ele>
        <time>2023-05-18T01:04:37Z</time>
      </trkpt>
      <trkpt lat="49.54563" lon="-1.32092">
        <ele>13.8</ele>
        <time>2023-05-18T01:04:40Z</time>
      </trkpt>
      <trkpt lat="49.54584" lon="-1.32091">
        <ele>13.7</ele>
        <time>2023-05-18T01:04:43Z</time>
      </trkpt>
      <trkpt lat="49.54605" lon="-1.32088">
        <ele>13.5</ele>
        <time>2023-05-18T01:04:46Z</time>
      </trkpt>
      <trkpt lat="49.54626" lon="-1.32085">
        <ele>13.4</ele>
        <time>2023-05-18T01:04:49Z</time>
      </trkpt>
      <trkpt lat="49.54647" lon="-1.32083">
        <ele>13.2</ele>
        <time>2023-05-18T01:04:52Z</time>
      </trkpt>
      <trkpt lat="49.54667" lon="-1.3208">
        <ele>13</ele>
        <time>2023-05-18T01:04:55Z</time>
      </trkpt>
      <trkpt lat="49.54688" lon="-1.32078">
        <ele>12.7</ele>
        <time>2023-05-18T01:04:58Z</time>
      </trkpt>
      <trkpt lat="49.54708" lon="-1.32075">
        <ele>12.4</ele>
        <time>2023-05-18T01:05:01Z</time>
      </trkpt>
      <trkpt lat="49.54731" lon="-1.3207">
        <ele>12.2</ele>
        <time>2023-05-18T01:05:04Z</time>
      </trkpt>
      <trkpt lat="49.54754" lon="-1.32064">
        <ele>12</ele>
        <time>2023-05-18T01:05:07Z</time>
      </trkpt>
      <trkpt lat="49.54775" lon="-1.32055">
        <ele>11.9</ele>
        <time>2023-05-18T01:05:10Z</time>
      </trkpt>
      <trkpt lat="49.54797" lon="-1.32045">
        <ele>11.8</ele>
        <time>2023-05-18T01:05:13Z</time>
      </trkpt>
      <trkpt lat="49.54816" lon="-1.32033">
        <ele>11.8</ele>
        <time>2023-05-18T01:05:16Z</time>
      </trkpt>
      <trkpt lat="49.54834" lon="-1.32022">
        <ele>12.1</ele>
        <time>2023-05-18T01:05:19Z</time>
      </trkpt>
      <trkpt lat="49.5485" lon="-1.32009">
        <ele>12.4</ele>
        <time>2023-05-18T01:05:22Z</time>
      </trkpt>
      <trkpt lat="49.54871" lon="-1.31994">
        <ele>12.9</ele>
        <time>2023-05-18T01:05:26Z</time>
      </trkpt>
      <trkpt lat="49.54891" lon="-1.31978">
        <ele>13.4</ele>
        <time>2023-05-18T01:05:30Z</time>
      </trkpt>
      <trkpt lat="49.5491" lon="-1.31963">
        <ele>13.8</ele>
        <time>2023-05-18T01:05:34Z</time>
      </trkpt>
      <trkpt lat="49.54928" lon="-1.31948">
        <ele>14.2</ele>
        <time>2023-05-18T01:05:38Z</time>
      </trkpt>
      <trkpt lat="49.54944" lon="-1.31933">
        <ele>14.5</ele>
        <time>2023-05-18T01:05:42Z</time>
      </trkpt>
      <trkpt lat="49.54961" lon="-1.31919">
        <ele>14.5</ele>
        <time>2023-05-18T01:05:46Z</time>
      </trkpt>
      <trkpt lat="49.54979" lon="-1.31904">
        <ele>14.3</ele>
        <time>2023-05-18T01:05:50Z</time>
      </trkpt>
      <trkpt lat="49.54998" lon="-1.31887">
        <ele>14.2</ele>
        <time>2023-05-18T01:05:54Z</time>
      </trkpt>
      <trkpt lat="49.55013" lon="-1.31871">
        <ele>14.1</ele>
        <time>2023-05-18T01:05:57Z</time>
      </trkpt>
      <trkpt lat="49.55029" lon="-1.31854">
        <ele>13.8</ele>
        <time>2023-05-18T01:06:00Z</time>
      </trkpt>
      <trkpt lat="49.55044" lon="-1.31838">
        <ele>13.5</ele>
        <time>2023-05-18T01:06:03Z</time>
      </trkpt>
      <trkpt lat="49.55059" lon="-1.31819">
        <ele>13.1</ele>
        <time>2023-05-18T01:06:06Z</time>
      </trkpt>
      <trkpt lat="49.55075" lon="-1.31798">
        <ele>12.7</ele>
        <time>2023-05-18T01:06:09Z</time>
      </trkpt>
      <trkpt lat="49.55091" lon="-1.31779">
        <ele>12.5</ele>
        <time>2023-05-18T01:06:12Z</time>
      </trkpt>
      <trkpt lat="49.55106" lon="-1.31762">
        <ele>12.5</ele>
        <time>2023-05-18T01:06:15Z</time>
      </trkpt>
      <trkpt lat="49.55123" lon="-1.31747">
        <ele>12.7</ele>
        <time>2023-05-18T01:06:18Z</time>
      </trkpt>
      <trkpt lat="49.5514" lon="-1.31734">
        <ele>13</ele>
        <time>2023-05-18T01:06:21Z</time>
      </trkpt>
      <trkpt lat="49.55161" lon="-1.31721">
        <ele>13.3</ele>
        <time>2023-05-18T01:06:25Z</time>
      </trkpt>
      <trkpt lat="49.55182" lon="-1.31711">
        <ele>13.7</ele>
        <time>2023-05-18T01:06:29Z</time>
      </trkpt>
      <trkpt lat="49.55204" lon="-1.31706">
        <ele>14.1</ele>
        <time>2023-05-18T01:06:33Z</time>
      </trkpt>
      <trkpt lat="49.55225" lon="-1.31701">
        <ele>14.4</ele>
        <time>2023-05-18T01:06:37Z</time>
      </trkpt>
      <trkpt lat="49.55245" lon="-1.31696">
        <ele>14.8</ele>
        <time>2023-05-18T01:06:41Z</time>
      </trkpt>
      <trkpt lat="49.55266" lon="-1.31693">
        <ele>15.1</ele>
        <time>2023-05-18T01:06:45Z</time>
      </trkpt>
      <trkpt lat="49.55287" lon="-1.31691">
        <ele>15.4</ele>
        <time>2023-05-18T01:06:49Z</time>
      </trkpt>
      <trkpt lat="49.55307" lon="-1.31689">
        <ele>15.7</ele>
        <time>2023-05-18T01:06:53Z</time>
      </trkpt>
      <trkpt lat="49.55327" lon="-1.31688">
        <ele>16</ele>
        <time>2023-05-18T01:06:57Z</time>
      </trkpt>
      <trkpt lat="49.55346" lon="-1.31684">
        <ele>16.3</ele>
        <time>2023-05-18T01:07:01Z</time>
      </trkpt>
      <trkpt lat="49.55365" lon="-1.31681">
        <ele>16.6</ele>
        <time>2023-05-18T01:07:05Z</time>
      </trkpt>
      <trkpt lat="49.55383" lon="-1.31676">
        <ele>16.8</ele>
        <time>2023-05-18T01:07:09Z</time>
      </trkpt>
      <trkpt lat="49.55402" lon="-1.31673">
        <ele>17</ele>
        <time>2023-05-18T01:07:13Z</time>
      </trkpt>
      <trkpt lat="49.55422" lon="-1.31668">
        <ele>17</ele>
        <time>2023-05-18T01:07:17Z</time>
      </trkpt>
      <trkpt lat="49.55443" lon="-1.31664">
        <ele>16.8</ele>
        <time>2023-05-18T01:07:21Z</time>
      </trkpt>
      <trkpt lat="49.55466" lon="-1.31657">
        <ele>16.6</ele>
        <time>2023-05-18T01:07:25Z</time>
      </trkpt>
      <trkpt lat="49.55484" lon="-1.31654">
        <ele>16.4</ele>
        <time>2023-05-18T01:07:28Z</time>
      </trkpt>
      <trkpt lat="49.55506" lon="-1.31649">
        <ele>16.1</ele>
        <time>2023-05-18T01:07:32Z</time>
      </trkpt>
      <trkpt lat="49.55525" lon="-1.31644">
        <ele>16</ele>
        <time>2023-05-18T01:07:35Z</time>
      </trkpt>
      <trkpt lat="49.55542" lon="-1.3164">
        <ele>15.8</ele>
        <time>2023-05-18T01:07:38Z</time>
      </trkpt>
      <trkpt lat="49.55562" lon="-1.31635">
        <ele>15.8</ele>
        <time>2023-05-18T01:07:41Z</time>
      </trkpt>
      <trkpt lat="49.5558" lon="-1.3163">
        <ele>15.6</ele>
        <time>2023-05-18T01:07:44Z</time>
      </trkpt>
      <trkpt lat="49.55599" lon="-1.31626">
        <ele>15.4</ele>
        <time>2023-05-18T01:07:47Z</time>
      </trkpt>
      <trkpt lat="49.55617" lon="-1.31621">
        <ele>15.3</ele>
        <time>2023-05-18T01:07:50Z</time>
      </trkpt>
      <trkpt lat="49.55636" lon="-1.31616">
        <ele>15.1</ele>
        <time>2023-05-18T01:07:53Z</time>
      </trkpt>
      <trkpt lat="49.55656" lon="-1.31614">
        <ele>15</ele>
        <time>2023-05-18T01:07:56Z</time>
      </trkpt>
      <trkpt lat="49.55675" lon="-1.31614">
        <ele>14.9</ele>
        <time>2023-05-18T01:07:59Z</time>
      </trkpt>
      <trkpt lat="49.55693" lon="-1.31615">
        <ele>15</ele>
        <time>2023-05-18T01:08:02Z</time>
      </trkpt>
      <trkpt lat="49.55712" lon="-1.31618">
        <ele>15.2</ele>
        <time>2023-05-18T01:08:05Z</time>
      </trkpt>
      <trkpt lat="49.55734" lon="-1.31627">
        <ele>15.8</ele>
        <time>2023-05-18T01:08:09Z</time>
      </trkpt>
      <trkpt lat="49.55755" lon="-1.31631">
        <ele>16.5</ele>
        <time>2023-05-18T01:08:13Z</time>
      </trkpt>
      <trkpt lat="49.55775" lon="-1.31635">
        <ele>17.4</ele>
        <time>2023-05-18T01:08:18Z</time>
      </trkpt>
      <trkpt lat="49.55794" lon="-1.31639">
        <ele>18.5</ele>
        <time>2023-05-18T01:08:23Z</time>
      </trkpt>
      <trkpt lat="49.55812" lon="-1.31643">
        <ele>19.6</ele>
        <time>2023-05-18T01:08:28Z</time>
      </trkpt>
      <trkpt lat="49.55832" lon="-1.3165">
        <ele>20.7</ele>
        <time>2023-05-18T01:08:35Z</time>
      </trkpt>
      <trkpt lat="49.55851" lon="-1.31653">
        <ele>21.9</ele>
        <time>2023-05-18T01:08:41Z</time>
      </trkpt>
      <trkpt lat="49.55869" lon="-1.31659">
        <ele>22.9</ele>
        <time>2023-05-18T01:08:47Z</time>
      </trkpt>
      <trkpt lat="49.55889" lon="-1.31664">
        <ele>23.7</ele>
        <time>2023-05-18T01:08:53Z</time>
      </trkpt>
      <trkpt lat="49.55907" lon="-1.31665">
        <ele>24.3</ele>
        <time>2023-05-18T01:08:58Z</time>
      </trkpt>
      <trkpt lat="49.55926" lon="-1.31665">
        <ele>24.7</ele>
        <time>2023-05-18T01:09:03Z</time>
      </trkpt>
      <trkpt lat="49.55947" lon="-1.31665">
        <ele>24.9</ele>
        <time>2023-05-18T01:09:08Z</time>
      </trkpt>
      <trkpt lat="49.55968" lon="-1.31665">
        <ele>24.8</ele>
        <time>2023-05-18T01:09:13Z</time>
      </trkpt>
      <trkpt lat="49.55988" lon="-1.31661">
        <ele>24.4</ele>
        <time>2023-05-18T01:09:17Z</time>
      </trkpt>
      <trkpt lat="49.56008" lon="-1.31658">
        <ele>24</ele>
        <time>2023-05-18T01:09:21Z</time>
      </trkpt>
      <trkpt lat="49.56029" lon="-1.31657">
        <ele>23.5</ele>
        <time>2023-05-18T01:09:25Z</time>
      </trkpt>
      <trkpt lat="49.5605" lon="-1.31653">
        <ele>23</ele>
        <time>2023-05-18T01:09:29Z</time>
      </trkpt>
      <trkpt lat="49.5607" lon="-1.3165">
        <ele>22.5</ele>
        <time>2023-05-18T01:09:32Z</time>
      </trkpt>
      <trkpt lat="49.5609" lon="-1.31649">
        <ele>21.9</ele>
        <time>2023-05-18T01:09:35Z</time>
      </trkpt>
      <trkpt lat="49.5611" lon="-1.31651">
        <ele>21.3</ele>
        <time>2023-05-18T01:09:38Z</time>
      </trkpt>
      <trkpt lat="49.56132" lon="-1.31654">
        <ele>20.9</ele>
        <time>2023-05-18T01:09:41Z</time>
      </trkpt>
      <trkpt lat="49.56154" lon="-1.31659">
        <ele>20.6</ele>
        <time>2023-05-18T01:09:44Z</time>
      </trkpt>
      <trkpt lat="49.56176" lon="-1.31663">
        <ele>20.6</ele>
        <time>2023-05-18T01:09:47Z</time>
      </trkpt>
      <trkpt lat="49.56196" lon="-1.31667">
        <ele>20.9</ele>
        <time>2023-05-18T01:09:50Z</time>
      </trkpt>
      <trkpt lat="49.56215" lon="-1.3167">
        <ele>21.2</ele>
        <time>2023-05-18T01:09:53Z</time>
      </trkpt>
      <trkpt lat="49.56233" lon="-1.31672">
        <ele>21.5</ele>
        <time>2023-05-18T01:09:56Z</time>
      </trkpt>
      <trkpt lat="49.56251" lon="-1.31673">
        <ele>21.8</ele>
        <time>2023-05-18T01:09:59Z</time>
      </trkpt>
      <trkpt lat="49.56275" lon="-1.31671">
        <ele>21.9</ele>
        <time>2023-05-18T01:10:03Z</time>
      </trkpt>
      <trkpt lat="49.56293" lon="-1.31669">
        <ele>22</ele>
        <time>2023-05-18T01:10:06Z</time>
      </trkpt>
      <trkpt lat="49.56311" lon="-1.31666">
        <ele>22.1</ele>
        <time>2023-05-18T01:10:09Z</time>
      </trkpt>
      <trkpt lat="49.5633" lon="-1.31665">
        <ele>22</ele>
        <time>2023-05-18T01:10:12Z</time>
      </trkpt>
      <trkpt lat="49.56348" lon="-1.31662">
        <ele>21.8</ele>
        <time>2023-05-18T01:10:15Z</time>
      </trkpt>
      <trkpt lat="49.56367" lon="-1.31658">
        <ele>21.5</ele>
        <time>2023-05-18T01:10:18Z</time>
      </trkpt>
      <trkpt lat="49.56385" lon="-1.31655">
        <ele>21.1</ele>
        <time>2023-05-18T01:10:21Z</time>
      </trkpt>
      <trkpt lat="49.56405" lon="-1.3165">
        <ele>20.7</ele>
        <time>2023-05-18T01:10:24Z</time>
      </trkpt>
      <trkpt lat="49.56425" lon="-1.31644">
        <ele>20.4</ele>
        <time>2023-05-18T01:10:27Z</time>
      </trkpt>
      <trkpt lat="49.56444" lon="-1.31639">
        <ele>20.2</ele>
        <time>2023-05-18T01:10:30Z</time>
      </trkpt>
      <trkpt lat="49.56465" lon="-1.31631">
        <ele>19.8</ele>
        <time>2023-05-18T01:10:33Z</time>
      </trkpt>
      <trkpt lat="49.56485" lon="-1.31621">
        <ele>19.4</ele>
        <time>2023-05-18T01:10:36Z</time>
      </trkpt>
      <trkpt lat="49.56504" lon="-1.3161">
        <ele>19.1</ele>
        <time>2023-05-18T01:10:39Z</time>
      </trkpt>
      <trkpt lat="49.56525" lon="-1.31598">
        <ele>18.8</ele>
        <time>2023-05-18T01:10:42Z</time>
      </trkpt>
      <trkpt lat="49.56545" lon="-1.31584">
        <ele>18.6</ele>
        <time>2023-05-18T01:10:45Z</time>
      </trkpt>
      <trkpt lat="49.56565" lon="-1.31571">
        <ele>18.3</ele>
        <time>2023-05-18T01:10:48Z</time>
      </trkpt>
      <trkpt lat="49.56583" lon="-1.31557">
        <ele>18.1</ele>
        <time>2023-05-18T01:10:51Z</time>
      </trkpt>
      <trkpt lat="49.56601" lon="-1.31541">
        <ele>17.9</ele>
        <time>2023-05-18T01:10:54Z</time>
      </trkpt>
      <trkpt lat="49.56619" lon="-1.31526">
        <ele>17.7</ele>
        <time>2023-05-18T01:10:57Z</time>
      </trkpt>
      <trkpt lat="49.56636" lon="-1.31512">
        <ele>17.5</ele>
        <time>2023-05-18T01:11:00Z</time>
      </trkpt>
      <trkpt lat="49.56655" lon="-1.31498">
        <ele>17.4</ele>
        <time>2023-05-18T01:11:03Z</time>
      </trkpt>
      <trkpt lat="49.56674" lon="-1.31487">
        <ele>17.4</ele>
        <time>2023-05-18T01:11:06Z</time>
      </trkpt>
      <trkpt lat="49.56692" lon="-1.31479">
        <ele>17.3</ele>
        <time>2023-05-18T01:11:09Z</time>
      </trkpt>
      <trkpt lat="49.56711" lon="-1.31472">
        <ele>17.3</ele>
        <time>2023-05-18T01:11:12Z</time>
      </trkpt>
      <trkpt lat="49.56731" lon="-1.31466">
        <ele>17.1</ele>
        <time>2023-05-18T01:11:15Z</time>
      </trkpt>
      <trkpt lat="49.5675" lon="-1.31461">
        <ele>17</ele>
        <time>2023-05-18T01:11:18Z</time>
      </trkpt>
      <trkpt lat="49.5677" lon="-1.31455">
        <ele>16.9</ele>
        <time>2023-05-18T01:11:21Z</time>
      </trkpt>
      <trkpt lat="49.56789" lon="-1.3145">
        <ele>16.8</ele>
        <time>2023-05-18T01:11:24Z</time>
      </trkpt>
      <trkpt lat="49.56809" lon="-1.31445">
        <ele>16.6</ele>
        <time>2023-05-18T01:11:27Z</time>
      </trkpt>
      <trkpt lat="49.56828" lon="-1.31439">
        <ele>16.4</ele>
        <time>2023-05-18T01:11:30Z</time>
      </trkpt>
      <trkpt lat="49.56847" lon="-1.31434">
        <ele>16.2</ele>
        <time>2023-05-18T01:11:33Z</time>
      </trkpt>
      <trkpt lat="49.56867" lon="-1.31431">
        <ele>16.1</ele>
        <time>2023-05-18T01:11:36Z</time>
      </trkpt>
      <trkpt lat="49.56887" lon="-1.3143">
        <ele>16</ele>
        <time>2023-05-18T01:11:39Z</time>
      </trkpt>
      <trkpt lat="49.56907" lon="-1.3143">
        <ele>16</ele>
        <time>2023-05-18T01:11:42Z</time>
      </trkpt>
      <trkpt lat="49.56927" lon="-1.31429">
        <ele>15.9</ele>
        <time>2023-05-18T01:11:45Z</time>
      </trkpt>
      <trkpt lat="49.56948" lon="-1.31429">
        <ele>15.7</ele>
        <time>2023-05-18T01:11:48Z</time>
      </trkpt>
      <trkpt lat="49.56968" lon="-1.31427">
        <ele>15.6</ele>
        <time>2023-05-18T01:11:51Z</time>
      </trkpt>
      <trkpt lat="49.56987" lon="-1.31424">
        <ele>15.5</ele>
        <time>2023-05-18T01:11:54Z</time>
      </trkpt>
      <trkpt lat="49.57006" lon="-1.3142">
        <ele>15.3</ele>
        <time>2023-05-18T01:11:57Z</time>
      </trkpt>
      <trkpt lat="49.57026" lon="-1.31415">
        <ele>15.2</ele>
        <time>2023-05-18T01:12:00Z</time>
      </trkpt>
      <trkpt lat="49.57045" lon="-1.31407">
        <ele>15.2</ele>
        <time>2023-05-18T01:12:03Z</time>
      </trkpt>
      <trkpt lat="49.57064" lon="-1.31398">
        <ele>15.2</ele>
        <time>2023-05-18T01:12:06Z</time>
      </trkpt>
      <trkpt lat="49.57082" lon="-1.31387">
        <ele>15.2</ele>
        <time>2023-05-18T01:12:09Z</time>
      </trkpt>
      <trkpt lat="49.57099" lon="-1.31375">
        <ele>15.2</ele>
        <time>2023-05-18T01:12:12Z</time>
      </trkpt>
      <trkpt lat="49.57116" lon="-1.31362">
        <ele>15.3</ele>
        <time>2023-05-18T01:12:15Z</time>
      </trkpt>
      <trkpt lat="49.57134" lon="-1.31351">
        <ele>15.5</ele>
        <time>2023-05-18T01:12:18Z</time>
      </trkpt>
      <trkpt lat="49.57154" lon="-1.31333">
        <ele>15.9</ele>
        <time>2023-05-18T01:12:22Z</time>
      </trkpt>
      <trkpt lat="49.57172" lon="-1.31318">
        <ele>16.3</ele>
        <time>2023-05-18T01:12:26Z</time>
      </trkpt>
      <trkpt lat="49.5719" lon="-1.31303">
        <ele>16.7</ele>
        <time>2023-05-18T01:12:30Z</time>
      </trkpt>
      <trkpt lat="49.57208" lon="-1.31291">
        <ele>17</ele>
        <time>2023-05-18T01:12:34Z</time>
      </trkpt>
      <trkpt lat="49.57225" lon="-1.31277">
        <ele>17.4</ele>
        <time>2023-05-18T01:12:38Z</time>
      </trkpt>
      <trkpt lat="49.57246" lon="-1.31266">
        <ele>17.6</ele>
        <time>2023-05-18T01:12:42Z</time>
      </trkpt>
      <trkpt lat="49.57266" lon="-1.31258">
        <ele>17.7</ele>
        <time>2023-05-18T01:12:46Z</time>
      </trkpt>
      <trkpt lat="49.57287" lon="-1.31252">
        <ele>17.7</ele>
        <time>2023-05-18T01:12:50Z</time>
      </trkpt>
      <trkpt lat="49.57309" lon="-1.31249">
        <ele>17.6</ele>
        <time>2023-05-18T01:12:54Z</time>
      </trkpt>
      <trkpt lat="49.57331" lon="-1.31245">
        <ele>17.4</ele>
        <time>2023-05-18T01:12:58Z</time>
      </trkpt>
      <trkpt lat="49.57349" lon="-1.31237">
        <ele>16.9</ele>
        <time>2023-05-18T01:13:01Z</time>
      </trkpt>
      <trkpt lat="49.57367" lon="-1.31227">
        <ele>16.2</ele>
        <time>2023-05-18T01:13:04Z</time>
      </trkpt>
      <trkpt lat="49.57385" lon="-1.31214">
        <ele>15.4</ele>
        <time>2023-05-18T01:13:07Z</time>
      </trkpt>
      <trkpt lat="49.57405" lon="-1.31202">
        <ele>14.6</ele>
        <time>2023-05-18T01:13:10Z</time>
      </trkpt>
      <trkpt lat="49.57428" lon="-1.31188">
        <ele>13.7</ele>
        <time>2023-05-18T01:13:13Z</time>
      </trkpt>
      <trkpt lat="49.5745" lon="-1.31179">
        <ele>13</ele>
        <time>2023-05-18T01:13:16Z</time>
      </trkpt>
      <trkpt lat="49.57471" lon="-1.31172">
        <ele>12.4</ele>
        <time>2023-05-18T01:13:19Z</time>
      </trkpt>
      <trkpt lat="49.57492" lon="-1.31163">
        <ele>11.6</ele>
        <time>2023-05-18T01:13:22Z</time>
      </trkpt>
      <trkpt lat="49.57517" lon="-1.31156">
        <ele>10.7</ele>
        <time>2023-05-18T01:13:25Z</time>
      </trkpt>
      <trkpt lat="49.57535" lon="-1.3115">
        <ele>10.2</ele>
        <time>2023-05-18T01:13:27Z</time>
      </trkpt>
      <trkpt lat="49.57561" lon="-1.31139">
        <ele>9.7</ele>
        <time>2023-05-18T01:13:30Z</time>
      </trkpt>
      <trkpt lat="49.57579" lon="-1.31133">
        <ele>9.4</ele>
        <time>2023-05-18T01:13:32Z</time>
      </trkpt>
      <trkpt lat="49.57602" lon="-1.31121">
        <ele>9.3</ele>
        <time>2023-05-18T01:13:35Z</time>
      </trkpt>
      <trkpt lat="49.57624" lon="-1.31109">
        <ele>9.4</ele>
        <time>2023-05-18T01:13:38Z</time>
      </trkpt>
      <trkpt lat="49.57645" lon="-1.31097">
        <ele>9.5</ele>
        <time>2023-05-18T01:13:41Z</time>
      </trkpt>
      <trkpt lat="49.57664" lon="-1.31082">
        <ele>9.7</ele>
        <time>2023-05-18T01:13:44Z</time>
      </trkpt>
      <trkpt lat="49.57679" lon="-1.31065">
        <ele>10</ele>
        <time>2023-05-18T01:13:47Z</time>
      </trkpt>
      <trkpt lat="49.57699" lon="-1.31048">
        <ele>10.4</ele>
        <time>2023-05-18T01:13:51Z</time>
      </trkpt>
      <trkpt lat="49.57717" lon="-1.31037">
        <ele>10.8</ele>
        <time>2023-05-18T01:13:55Z</time>
      </trkpt>
      <trkpt lat="49.57733" lon="-1.31025">
        <ele>11.1</ele>
        <time>2023-05-18T01:13:59Z</time>
      </trkpt>
      <trkpt lat="49.57748" lon="-1.31009">
        <ele>11.4</ele>
        <time>2023-05-18T01:14:03Z</time>
      </trkpt>
      <trkpt lat="49.5776" lon="-1.30988">
        <ele>11.7</ele>
        <time>2023-05-18T01:14:07Z</time>
      </trkpt>
      <trkpt lat="49.57773" lon="-1.30962">
        <ele>11.9</ele>
        <time>2023-05-18T01:14:12Z</time>
      </trkpt>
      <trkpt lat="49.57787" lon="-1.3094">
        <ele>12.3</ele>
        <time>2023-05-18T01:14:17Z</time>
      </trkpt>
      <trkpt lat="49.57803" lon="-1.30926">
        <ele>12.7</ele>
        <time>2023-05-18T01:14:21Z</time>
      </trkpt>
      <trkpt lat="49.57819" lon="-1.3091">
        <ele>12.9</ele>
        <time>2023-05-18T01:14:25Z</time>
      </trkpt>
      <trkpt lat="49.57837" lon="-1.30894">
        <ele>12.8</ele>
        <time>2023-05-18T01:14:29Z</time>
      </trkpt>
      <trkpt lat="49.57853" lon="-1.3088">
        <ele>12.6</ele>
        <time>2023-05-18T01:14:32Z</time>
      </trkpt>
      <trkpt lat="49.57872" lon="-1.30859">
        <ele>12.2</ele>
        <time>2023-05-18T01:14:36Z</time>
      </trkpt>
      <trkpt lat="49.57891" lon="-1.30838">
        <ele>11.8</ele>
        <time>2023-05-18T01:14:40Z</time>
      </trkpt>
      <trkpt lat="49.57911" lon="-1.30819">
        <ele>11.3</ele>
        <time>2023-05-18T01:14:44Z</time>
      </trkpt>
      <trkpt lat="49.57927" lon="-1.30795">
        <ele>11</ele>
        <time>2023-05-18T01:14:48Z</time>
      </trkpt>
      <trkpt lat="49.57942" lon="-1.30778">
        <ele>10.9</ele>
        <time>2023-05-18T01:14:52Z</time>
      </trkpt>
      <trkpt lat="49.57959" lon="-1.30762">
        <ele>10.9</ele>
        <time>2023-05-18T01:15:25Z</time>
      </trkpt>
      <trkpt lat="49.57976" lon="-1.30747">
        <ele>10.8</ele>
        <time>2023-05-18T01:15:30Z</time>
      </trkpt>
      <trkpt lat="49.57994" lon="-1.30731">
        <ele>10.7</ele>
        <time>2023-05-18T01:15:34Z</time>
      </trkpt>
      <trkpt lat="49.58014" lon="-1.30715">
        <ele>10.6</ele>
        <time>2023-05-18T01:15:38Z</time>
      </trkpt>
      <trkpt lat="49.58034" lon="-1.30701">
        <ele>10.5</ele>
        <time>2023-05-18T01:15:42Z</time>
      </trkpt>
      <trkpt lat="49.58055" lon="-1.30685">
        <ele>10.3</ele>
        <time>2023-05-18T01:15:46Z</time>
      </trkpt>
      <trkpt lat="49.58075" lon="-1.30669">
        <ele>10.2</ele>
        <time>2023-05-18T01:15:50Z</time>
      </trkpt>
      <trkpt lat="49.58096" lon="-1.30655">
        <ele>10.2</ele>
        <time>2023-05-18T01:15:54Z</time>
      </trkpt>
      <trkpt lat="49.58116" lon="-1.30638">
        <ele>10.1</ele>
        <time>2023-05-18T01:15:58Z</time>
      </trkpt>
      <trkpt lat="49.58136" lon="-1.30621">
        <ele>10</ele>
        <time>2023-05-18T01:16:02Z</time>
      </trkpt>
      <trkpt lat="49.58152" lon="-1.30607">
        <ele>9.9</ele>
        <time>2023-05-18T01:16:05Z</time>
      </trkpt>
      <trkpt lat="49.58172" lon="-1.3059">
        <ele>9.9</ele>
        <time>2023-05-18T01:16:09Z</time>
      </trkpt>
      <trkpt lat="49.58192" lon="-1.30576">
        <ele>9.8</ele>
        <time>2023-05-18T01:16:13Z</time>
      </trkpt>
      <trkpt lat="49.58213" lon="-1.3056">
        <ele>9.8</ele>
        <time>2023-05-18T01:16:17Z</time>
      </trkpt>
      <trkpt lat="49.58229" lon="-1.30548">
        <ele>9.8</ele>
        <time>2023-05-18T01:16:20Z</time>
      </trkpt>
      <trkpt lat="49.58247" lon="-1.30534">
        <ele>9.7</ele>
        <time>2023-05-18T01:16:23Z</time>
      </trkpt>
      <trkpt lat="49.58269" lon="-1.3052">
        <ele>9.6</ele>
        <time>2023-05-18T01:16:27Z</time>
      </trkpt>
      <trkpt lat="49.58291" lon="-1.30505">
        <ele>9.6</ele>
        <time>2023-05-18T01:16:31Z</time>
      </trkpt>
      <trkpt lat="49.58314" lon="-1.30495">
        <ele>9.6</ele>
        <time>2023-05-18T01:16:35Z</time>
      </trkpt>
      <trkpt lat="49.58337" lon="-1.30485">
        <ele>9.6</ele>
        <time>2023-05-18T01:16:39Z</time>
      </trkpt>
      <trkpt lat="49.58358" lon="-1.30471">
        <ele>9.5</ele>
        <time>2023-05-18T01:16:43Z</time>
      </trkpt>
      <trkpt lat="49.58381" lon="-1.3046">
        <ele>9.5</ele>
        <time>2023-05-18T01:16:47Z</time>
      </trkpt>
      <trkpt lat="49.58398" lon="-1.30452">
        <ele>9.5</ele>
        <time>2023-05-18T01:16:50Z</time>
      </trkpt>
      <trkpt lat="49.5842" lon="-1.30441">
        <ele>9.6</ele>
        <time>2023-05-18T01:16:54Z</time>
      </trkpt>
      <trkpt lat="49.58441" lon="-1.30428">
        <ele>9.5</ele>
        <time>2023-05-18T01:16:58Z</time>
      </trkpt>
      <trkpt lat="49.58462" lon="-1.30413">
        <ele>9.5</ele>
        <time>2023-05-18T01:17:02Z</time>
      </trkpt>
      <trkpt lat="49.58485" lon="-1.30403">
        <ele>9.5</ele>
        <time>2023-05-18T01:17:06Z</time>
      </trkpt>
      <trkpt lat="49.58507" lon="-1.30391">
        <ele>9.5</ele>
        <time>2023-05-18T01:17:10Z</time>
      </trkpt>
      <trkpt lat="49.58525" lon="-1.30378">
        <ele>9.5</ele>
        <time>2023-05-18T01:17:14Z</time>
      </trkpt>
      <trkpt lat="49.58548" lon="-1.30368">
        <ele>9.5</ele>
        <time>2023-05-18T01:17:18Z</time>
      </trkpt>
      <trkpt lat="49.58571" lon="-1.3036">
        <ele>9.4</ele>
        <time>2023-05-18T01:17:22Z</time>
      </trkpt>
      <trkpt lat="49.58594" lon="-1.30353">
        <ele>9.3</ele>
        <time>2023-05-18T01:17:26Z</time>
      </trkpt>
      <trkpt lat="49.58617" lon="-1.30347">
        <ele>9.3</ele>
        <time>2023-05-18T01:17:30Z</time>
      </trkpt>
      <trkpt lat="49.58635" lon="-1.3034">
        <ele>9.2</ele>
        <time>2023-05-18T01:17:33Z</time>
      </trkpt>
      <trkpt lat="49.58654" lon="-1.30331">
        <ele>9.2</ele>
        <time>2023-05-18T01:17:36Z</time>
      </trkpt>
      <trkpt lat="49.58673" lon="-1.30328">
        <ele>9.1</ele>
        <time>2023-05-18T01:17:39Z</time>
      </trkpt>
      <trkpt lat="49.58692" lon="-1.30325">
        <ele>9.1</ele>
        <time>2023-05-18T01:17:42Z</time>
      </trkpt>
      <trkpt lat="49.5871" lon="-1.30315">
        <ele>9</ele>
        <time>2023-05-18T01:17:45Z</time>
      </trkpt>
      <trkpt lat="49.58728" lon="-1.30303">
        <ele>9</ele>
        <time>2023-05-18T01:17:48Z</time>
      </trkpt>
      <trkpt lat="49.58745" lon="-1.30292">
        <ele>9</ele>
        <time>2023-05-18T01:17:51Z</time>
      </trkpt>
      <trkpt lat="49.58761" lon="-1.30277">
        <ele>9</ele>
        <time>2023-05-18T01:17:54Z</time>
      </trkpt>
      <trkpt lat="49.58779" lon="-1.30268">
        <ele>9</ele>
        <time>2023-05-18T01:17:57Z</time>
      </trkpt>
      <trkpt lat="49.58797" lon="-1.30256">
        <ele>9</ele>
        <time>2023-05-18T01:18:00Z</time>
      </trkpt>
      <trkpt lat="49.58815" lon="-1.30248">
        <ele>9.1</ele>
        <time>2023-05-18T01:18:03Z</time>
      </trkpt>
      <trkpt lat="49.58834" lon="-1.30244">
        <ele>9.1</ele>
        <time>2023-05-18T01:18:06Z</time>
      </trkpt>
      <trkpt lat="49.58852" lon="-1.30239">
        <ele>9.2</ele>
        <time>2023-05-18T01:18:09Z</time>
      </trkpt>
      <trkpt lat="49.5887" lon="-1.30237">
        <ele>9.2</ele>
        <time>2023-05-18T01:18:12Z</time>
      </trkpt>
      <trkpt lat="49.58888" lon="-1.30236">
        <ele>9.3</ele>
        <time>2023-05-18T01:18:15Z</time>
      </trkpt>
      <trkpt lat="49.58911" lon="-1.30236">
        <ele>9.4</ele>
        <time>2023-05-18T01:18:19Z</time>
      </trkpt>
      <trkpt lat="49.58934" lon="-1.30237">
        <ele>9.4</ele>
        <time>2023-05-18T01:18:23Z</time>
      </trkpt>
      <trkpt lat="49.58958" lon="-1.30234">
        <ele>9.5</ele>
        <time>2023-05-18T01:18:27Z</time>
      </trkpt>
      <trkpt lat="49.58977" lon="-1.30233">
        <ele>9.5</ele>
        <time>2023-05-18T01:18:30Z</time>
      </trkpt>
      <trkpt lat="49.58995" lon="-1.30229">
        <ele>9.6</ele>
        <time>2023-05-18T01:18:33Z</time>
      </trkpt>
      <trkpt lat="49.59018" lon="-1.30222">
        <ele>9.7</ele>
        <time>2023-05-18T01:18:37Z</time>
      </trkpt>
      <trkpt lat="49.59037" lon="-1.30217">
        <ele>9.7</ele>
        <time>2023-05-18T01:18:40Z</time>
      </trkpt>
      <trkpt lat="49.59059" lon="-1.30208">
        <ele>9.8</ele>
        <time>2023-05-18T01:18:44Z</time>
      </trkpt>
      <trkpt lat="49.59082" lon="-1.30203">
        <ele>9.9</ele>
        <time>2023-05-18T01:18:48Z</time>
      </trkpt>
      <trkpt lat="49.59104" lon="-1.30198">
        <ele>10</ele>
        <time>2023-05-18T01:18:52Z</time>
      </trkpt>
      <trkpt lat="49.59126" lon="-1.30192">
        <ele>10.2</ele>
        <time>2023-05-18T01:18:56Z</time>
      </trkpt>
      <trkpt lat="49.59148" lon="-1.30185">
        <ele>10.4</ele>
        <time>2023-05-18T01:19:00Z</time>
      </trkpt>
      <trkpt lat="49.59168" lon="-1.30179">
        <ele>10.4</ele>
        <time>2023-05-18T01:19:04Z</time>
      </trkpt>
      <trkpt lat="49.59188" lon="-1.30174">
        <ele>10.5</ele>
        <time>2023-05-18T01:19:08Z</time>
      </trkpt>
      <trkpt lat="49.59207" lon="-1.30169">
        <ele>10.7</ele>
        <time>2023-05-18T01:19:12Z</time>
      </trkpt>
      <trkpt lat="49.59226" lon="-1.3016">
        <ele>11</ele>
        <time>2023-05-18T01:19:17Z</time>
      </trkpt>
      <trkpt lat="49.59231" lon="-1.30128">
        <ele>10.8</ele>
        <time>2023-05-18T01:19:22Z</time>
      </trkpt>
      <trkpt lat="49.59232" lon="-1.30099">
        <ele>10.6</ele>
        <time>2023-05-18T01:19:26Z</time>
      </trkpt>
      <trkpt lat="49.59225" lon="-1.3007">
        <ele>10.2</ele>
        <time>2023-05-18T01:19:30Z</time>
      </trkpt>
      <trkpt lat="49.59221" lon="-1.30039">
        <ele>9.8</ele>
        <time>2023-05-18T01:19:34Z</time>
      </trkpt>
      <trkpt lat="49.59217" lon="-1.30007">
        <ele>9.5</ele>
        <time>2023-05-18T01:19:38Z</time>
      </trkpt>
      <trkpt lat="49.59212" lon="-1.29975">
        <ele>9.3</ele>
        <time>2023-05-18T01:19:42Z</time>
      </trkpt>
      <trkpt lat="49.59207" lon="-1.29941">
        <ele>9</ele>
        <time>2023-05-18T01:19:46Z</time>
      </trkpt>
      <trkpt lat="49.59201" lon="-1.2991">
        <ele>8.7</ele>
        <time>2023-05-18T01:19:50Z</time>
      </trkpt>
      <trkpt lat="49.59195" lon="-1.29878">
        <ele>8.4</ele>
        <time>2023-05-18T01:19:54Z</time>
      </trkpt>
      <trkpt lat="49.5919" lon="-1.29842">
        <ele>8.1</ele>
        <time>2023-05-18T01:19:58Z</time>
      </trkpt>
      <trkpt lat="49.59183" lon="-1.29809">
        <ele>7.7</ele>
        <time>2023-05-18T01:20:02Z</time>
      </trkpt>
      <trkpt lat="49.59177" lon="-1.29775">
        <ele>7.3</ele>
        <time>2023-05-18T01:20:06Z</time>
      </trkpt>
      <trkpt lat="49.59172" lon="-1.29743">
        <ele>7</ele>
        <time>2023-05-18T01:20:10Z</time>
      </trkpt>
      <trkpt lat="49.59166" lon="-1.29712">
        <ele>6.7</ele>
        <time>2023-05-18T01:20:14Z</time>
      </trkpt>
      <trkpt lat="49.5916" lon="-1.29677">
        <ele>6.4</ele>
        <time>2023-05-18T01:20:18Z</time>
      </trkpt>
      <trkpt lat="49.59155" lon="-1.29642">
        <ele>6.1</ele>
        <time>2023-05-18T01:20:22Z</time>
      </trkpt>
      <trkpt lat="49.5915" lon="-1.29614">
        <ele>5.9</ele>
        <time>2023-05-18T01:20:25Z</time>
      </trkpt>
      <trkpt lat="49.59143" lon="-1.29587">
        <ele>5.8</ele>
        <time>2023-05-18T01:20:28Z</time>
      </trkpt>
      <trkpt lat="49.59127" lon="-1.29563">
        <ele>5.7</ele>
        <time>2023-05-18T01:20:32Z</time>
      </trkpt>
      <trkpt lat="49.59129" lon="-1.29531">
        <ele>5.5</ele>
        <time>2023-05-18T01:20:36Z</time>
      </trkpt>
      <trkpt lat="49.5913" lon="-1.29495">
        <ele>5.1</ele>
        <time>2023-05-18T01:20:40Z</time>
      </trkpt>
      <trkpt lat="49.59124" lon="-1.29468">
        <ele>4.8</ele>
        <time>2023-05-18T01:20:43Z</time>
      </trkpt>
      <trkpt lat="49.5912" lon="-1.29441">
        <ele>4.6</ele>
        <time>2023-05-18T01:20:46Z</time>
      </trkpt>
      <trkpt lat="49.59115" lon="-1.29413">
        <ele>4.4</ele>
        <time>2023-05-18T01:20:49Z</time>
      </trkpt>
      <trkpt lat="49.59111" lon="-1.29384">
        <ele>4.2</ele>
        <time>2023-05-18T01:20:52Z</time>
      </trkpt>
      <trkpt lat="49.59106" lon="-1.29356">
        <ele>4.1</ele>
        <time>2023-05-18T01:20:55Z</time>
      </trkpt>
      <trkpt lat="49.59101" lon="-1.29328">
        <ele>4</ele>
        <time>2023-05-18T01:20:58Z</time>
      </trkpt>
      <trkpt lat="49.59095" lon="-1.29298">
        <ele>3.9</ele>
        <time>2023-05-18T01:21:01Z</time>
      </trkpt>
      <trkpt lat="49.5909" lon="-1.29268">
        <ele>3.8</ele>
        <time>2023-05-18T01:21:04Z</time>
      </trkpt>
      <trkpt lat="49.59085" lon="-1.29238">
        <ele>3.7</ele>
        <time>2023-05-18T01:21:07Z</time>
      </trkpt>
      <trkpt lat="49.5908" lon="-1.29208">
        <ele>3.8</ele>
        <time>2023-05-18T01:21:10Z</time>
      </trkpt>
      <trkpt lat="49.59074" lon="-1.2918">
        <ele>3.8</ele>
        <time>2023-05-18T01:21:13Z</time>
      </trkpt>
      <trkpt lat="49.5907" lon="-1.2915">
        <ele>3.7</ele>
        <time>2023-05-18T01:21:16Z</time>
      </trkpt>
      <trkpt lat="49.59065" lon="-1.2912">
        <ele>3.7</ele>
        <time>2023-05-18T01:21:19Z</time>
      </trkpt>
      <trkpt lat="49.5906" lon="-1.29092">
        <ele>3.6</ele>
        <time>2023-05-18T01:21:22Z</time>
      </trkpt>
      <trkpt lat="49.59055" lon="-1.29063">
        <ele>3.5</ele>
        <time>2023-05-18T01:21:25Z</time>
      </trkpt>
      <trkpt lat="49.59049" lon="-1.29034">
        <ele>3.5</ele>
        <time>2023-05-18T01:21:28Z</time>
      </trkpt>
      <trkpt lat="49.59044" lon="-1.29005">
        <ele>3.4</ele>
        <time>2023-05-18T01:21:31Z</time>
      </trkpt>
      <trkpt lat="49.5904" lon="-1.28975">
        <ele>3.4</ele>
        <time>2023-05-18T01:21:34Z</time>
      </trkpt>
      <trkpt lat="49.59035" lon="-1.28947">
        <ele>3.4</ele>
        <time>2023-05-18T01:21:37Z</time>
      </trkpt>
      <trkpt lat="49.59031" lon="-1.28918">
        <ele>3.3</ele>
        <time>2023-05-18T01:21:40Z</time>
      </trkpt>
      <trkpt lat="49.59025" lon="-1.28891">
        <ele>3.3</ele>
        <time>2023-05-18T01:21:43Z</time>
      </trkpt>
      <trkpt lat="49.59021" lon="-1.28864">
        <ele>3.3</ele>
        <time>2023-05-18T01:21:46Z</time>
      </trkpt>
      <trkpt lat="49.59017" lon="-1.28835">
        <ele>3.4</ele>
        <time>2023-05-18T01:21:49Z</time>
      </trkpt>
      <trkpt lat="49.59012" lon="-1.28799">
        <ele>3.3</ele>
        <time>2023-05-18T01:21:53Z</time>
      </trkpt>
      <trkpt lat="49.59006" lon="-1.28764">
        <ele>3.3</ele>
        <time>2023-05-18T01:21:57Z</time>
      </trkpt>
      <trkpt lat="49.59001" lon="-1.28736">
        <ele>3.4</ele>
        <time>2023-05-18T01:22:00Z</time>
      </trkpt>
      <trkpt lat="49.58994" lon="-1.28701">
        <ele>3.4</ele>
        <time>2023-05-18T01:22:04Z</time>
      </trkpt>
      <trkpt lat="49.58988" lon="-1.28667">
        <ele>3.4</ele>
        <time>2023-05-18T01:22:08Z</time>
      </trkpt>
      <trkpt lat="49.58982" lon="-1.28641">
        <ele>3.3</ele>
        <time>2023-05-18T01:22:11Z</time>
      </trkpt>
      <trkpt lat="49.58977" lon="-1.28605">
        <ele>3.3</ele>
        <time>2023-05-18T01:22:15Z</time>
      </trkpt>
      <trkpt lat="49.58972" lon="-1.2857">
        <ele>3.4</ele>
        <time>2023-05-18T01:22:19Z</time>
      </trkpt>
      <trkpt lat="49.58965" lon="-1.28535">
        <ele>3.3</ele>
        <time>2023-05-18T01:22:23Z</time>
      </trkpt>
      <trkpt lat="49.58957" lon="-1.285">
        <ele>3.3</ele>
        <time>2023-05-18T01:22:27Z</time>
      </trkpt>
      <trkpt lat="49.58952" lon="-1.28466">
        <ele>3.4</ele>
        <time>2023-05-18T01:22:31Z</time>
      </trkpt>
      <trkpt lat="49.58947" lon="-1.28431">
        <ele>3.4</ele>
        <time>2023-05-18T01:22:35Z</time>
      </trkpt>
      <trkpt lat="49.58943" lon="-1.28403">
        <ele>3.5</ele>
        <time>2023-05-18T01:22:38Z</time>
      </trkpt>
      <trkpt lat="49.58937" lon="-1.28368">
        <ele>3.5</ele>
        <time>2023-05-18T01:22:42Z</time>
      </trkpt>
      <trkpt lat="49.5893" lon="-1.28333">
        <ele>3.4</ele>
        <time>2023-05-18T01:22:46Z</time>
      </trkpt>
      <trkpt lat="49.58925" lon="-1.28298">
        <ele>3.3</ele>
        <time>2023-05-18T01:22:50Z</time>
      </trkpt>
      <trkpt lat="49.58919" lon="-1.2827">
        <ele>3.2</ele>
        <time>2023-05-18T01:22:53Z</time>
      </trkpt>
      <trkpt lat="49.58916" lon="-1.28243">
        <ele>3.2</ele>
        <time>2023-05-18T01:22:56Z</time>
      </trkpt>
      <trkpt lat="49.58908" lon="-1.28208">
        <ele>3.2</ele>
        <time>2023-05-18T01:23:00Z</time>
      </trkpt>
      <trkpt lat="49.58905" lon="-1.2818">
        <ele>3.1</ele>
        <time>2023-05-18T01:23:03Z</time>
      </trkpt>
      <trkpt lat="49.58904" lon="-1.28153">
        <ele>3.1</ele>
        <time>2023-05-18T01:23:06Z</time>
      </trkpt>
      <trkpt lat="49.58903" lon="-1.28116">
        <ele>3.2</ele>
        <time>2023-05-18T01:23:10Z</time>
      </trkpt>
      <trkpt lat="49.58897" lon="-1.28089">
        <ele>3.2</ele>
        <time>2023-05-18T01:23:13Z</time>
      </trkpt>
      <trkpt lat="49.58891" lon="-1.28054">
        <ele>3.2</ele>
        <time>2023-05-18T01:23:17Z</time>
      </trkpt>
      <trkpt lat="49.58885" lon="-1.28027">
        <ele>3.1</ele>
        <time>2023-05-18T01:23:20Z</time>
      </trkpt>
      <trkpt lat="49.58875" lon="-1.27995">
        <ele>3.1</ele>
        <time>2023-05-18T01:23:24Z</time>
      </trkpt>
      <trkpt lat="49.58867" lon="-1.27962">
        <ele>3.1</ele>
        <time>2023-05-18T01:23:28Z</time>
      </trkpt>
      <trkpt lat="49.58862" lon="-1.27928">
        <ele>3.2</ele>
        <time>2023-05-18T01:23:32Z</time>
      </trkpt>
      <trkpt lat="49.58857" lon="-1.27902">
        <ele>3.2</ele>
        <time>2023-05-18T01:23:35Z</time>
      </trkpt>
      <trkpt lat="49.5885" lon="-1.27867">
        <ele>3.1</ele>
        <time>2023-05-18T01:23:39Z</time>
      </trkpt>
      <trkpt lat="49.58846" lon="-1.27839">
        <ele>3.1</ele>
        <time>2023-05-18T01:23:42Z</time>
      </trkpt>
      <trkpt lat="49.58842" lon="-1.27802">
        <ele>3.1</ele>
        <time>2023-05-18T01:23:46Z</time>
      </trkpt>
      <trkpt lat="49.58835" lon="-1.27767">
        <ele>3.1</ele>
        <time>2023-05-18T01:23:50Z</time>
      </trkpt>
      <trkpt lat="49.58828" lon="-1.27733">
        <ele>3.2</ele>
        <time>2023-05-18T01:23:54Z</time>
      </trkpt>
      <trkpt lat="49.58822" lon="-1.27707">
        <ele>3.1</ele>
        <time>2023-05-18T01:23:57Z</time>
      </trkpt>
      <trkpt lat="49.58817" lon="-1.2768">
        <ele>3</ele>
        <time>2023-05-18T01:24:00Z</time>
      </trkpt>
      <trkpt lat="49.58813" lon="-1.27653">
        <ele>2.9</ele>
        <time>2023-05-18T01:24:03Z</time>
      </trkpt>
      <trkpt lat="49.58807" lon="-1.27619">
        <ele>2.9</ele>
        <time>2023-05-18T01:24:07Z</time>
      </trkpt>
      <trkpt lat="49.58802" lon="-1.27584">
        <ele>2.9</ele>
        <time>2023-05-18T01:24:11Z</time>
      </trkpt>
      <trkpt lat="49.58796" lon="-1.27551">
        <ele>2.9</ele>
        <time>2023-05-18T01:24:15Z</time>
      </trkpt>
      <trkpt lat="49.58792" lon="-1.27524">
        <ele>2.9</ele>
        <time>2023-05-18T01:24:18Z</time>
      </trkpt>
      <trkpt lat="49.58786" lon="-1.27491">
        <ele>2.9</ele>
        <time>2023-05-18T01:24:22Z</time>
      </trkpt>
      <trkpt lat="49.58781" lon="-1.27458">
        <ele>3</ele>
        <time>2023-05-18T01:24:26Z</time>
      </trkpt>
      <trkpt lat="49.58776" lon="-1.27427">
        <ele>3.1</ele>
        <time>2023-05-18T01:24:30Z</time>
      </trkpt>
      <trkpt lat="49.5877" lon="-1.274">
        <ele>3.2</ele>
        <time>2023-05-18T01:24:34Z</time>
      </trkpt>
      <trkpt lat="49.58765" lon="-1.27368">
        <ele>3.2</ele>
        <time>2023-05-18T01:24:39Z</time>
      </trkpt>
      <trkpt lat="49.58762" lon="-1.27338">
        <ele>3.2</ele>
        <time>2023-05-18T01:24:43Z</time>
      </trkpt>
      <trkpt lat="49.58757" lon="-1.27305">
        <ele>3.2</ele>
        <time>2023-05-18T01:24:47Z</time>
      </trkpt>
      <trkpt lat="49.58751" lon="-1.2727">
        <ele>3.2</ele>
        <time>2023-05-18T01:24:51Z</time>
      </trkpt>
      <trkpt lat="49.58746" lon="-1.27236">
        <ele>3.1</ele>
        <time>2023-05-18T01:24:55Z</time>
      </trkpt>
      <trkpt lat="49.58741" lon="-1.27203">
        <ele>3.1</ele>
        <time>2023-05-18T01:24:59Z</time>
      </trkpt>
      <trkpt lat="49.58735" lon="-1.27168">
        <ele>3</ele>
        <time>2023-05-18T01:25:03Z</time>
      </trkpt>
      <trkpt lat="49.58729" lon="-1.27132">
        <ele>2.9</ele>
        <time>2023-05-18T01:25:07Z</time>
      </trkpt>
      <trkpt lat="49.58725" lon="-1.27105">
        <ele>2.8</ele>
        <time>2023-05-18T01:25:10Z</time>
      </trkpt>
      <trkpt lat="49.5872" lon="-1.2707">
        <ele>2.7</ele>
        <time>2023-05-18T01:25:14Z</time>
      </trkpt>
      <trkpt lat="49.58717" lon="-1.27037">
        <ele>2.7</ele>
        <time>2023-05-18T01:25:18Z</time>
      </trkpt>
      <trkpt lat="49.58713" lon="-1.27006">
        <ele>2.6</ele>
        <time>2023-05-18T01:25:22Z</time>
      </trkpt>
      <trkpt lat="49.58708" lon="-1.26978">
        <ele>2.6</ele>
        <time>2023-05-18T01:25:26Z</time>
      </trkpt>
      <trkpt lat="49.58702" lon="-1.26948">
        <ele>2.6</ele>
        <time>2023-05-18T01:25:31Z</time>
      </trkpt>
      <trkpt lat="49.58698" lon="-1.26917">
        <ele>2.7</ele>
        <time>2023-05-18T01:25:37Z</time>
      </trkpt>
      <trkpt lat="49.58697" lon="-1.26888">
        <ele>2.6</ele>
        <time>2023-05-18T01:25:42Z</time>
      </trkpt>
      <trkpt lat="49.58692" lon="-1.26856">
        <ele>2.6</ele>
        <time>2023-05-18T01:25:47Z</time>
      </trkpt>
      <trkpt lat="49.58684" lon="-1.26825">
        <ele>2.7</ele>
        <time>2023-05-18T01:25:51Z</time>
      </trkpt>
      <trkpt lat="49.5868" lon="-1.26795">
        <ele>2.7</ele>
        <time>2023-05-18T01:25:55Z</time>
      </trkpt>
      <trkpt lat="49.58677" lon="-1.26767">
        <ele>2.8</ele>
        <time>2023-05-18T01:25:59Z</time>
      </trkpt>
      <trkpt lat="49.58672" lon="-1.26736">
        <ele>2.9</ele>
        <time>2023-05-18T01:26:04Z</time>
      </trkpt>
      <trkpt lat="49.5867" lon="-1.26705">
        <ele>3</ele>
        <time>2023-05-18T01:26:11Z</time>
      </trkpt>
      <trkpt lat="49.5866" lon="-1.26671">
        <ele>3</ele>
        <time>2023-05-18T01:27:34Z</time>
      </trkpt>
      <trkpt lat="49.58658" lon="-1.26642">
        <ele>3</ele>
        <time>2023-05-18T01:27:52Z</time>
      </trkpt>
      <trkpt lat="49.58654" lon="-1.26612">
        <ele>3</ele>
        <time>2023-05-18T01:27:58Z</time>
      </trkpt>
      <trkpt lat="49.58649" lon="-1.26582">
        <ele>3.1</ele>
        <time>2023-05-18T01:28:03Z</time>
      </trkpt>
      <trkpt lat="49.58646" lon="-1.26552">
        <ele>3.1</ele>
        <time>2023-05-18T01:28:09Z</time>
      </trkpt>
      <trkpt lat="49.58637" lon="-1.26524">
        <ele>3.1</ele>
        <time>2023-05-18T01:28:15Z</time>
      </trkpt>
      <trkpt lat="49.58626" lon="-1.26499">
        <ele>3.1</ele>
        <time>2023-05-18T01:28:20Z</time>
      </trkpt>
      <trkpt lat="49.58615" lon="-1.26475">
        <ele>3.1</ele>
        <time>2023-05-18T01:28:24Z</time>
      </trkpt>
      <trkpt lat="49.58609" lon="-1.26448">
        <ele>3</ele>
        <time>2023-05-18T01:28:28Z</time>
      </trkpt>
      <trkpt lat="49.58629" lon="-1.26438">
        <ele>3</ele>
        <time>2023-05-18T01:28:35Z</time>
      </trkpt>
      <trkpt lat="49.58649" lon="-1.26449">
        <ele>3</ele>
        <time>2023-05-18T01:28:40Z</time>
      </trkpt>
      <trkpt lat="49.58666" lon="-1.26463">
        <ele>2.9</ele>
        <time>2023-05-18T01:28:44Z</time>
      </trkpt>
      <trkpt lat="49.58683" lon="-1.26475">
        <ele>3</ele>
        <time>2023-05-18T01:28:48Z</time>
      </trkpt>
      <trkpt lat="49.587" lon="-1.26489">
        <ele>3</ele>
        <time>2023-05-18T01:28:52Z</time>
      </trkpt>
      <trkpt lat="49.58719" lon="-1.26505">
        <ele>3</ele>
        <time>2023-05-18T01:28:57Z</time>
      </trkpt>
      <trkpt lat="49.58737" lon="-1.26515">
        <ele>3</ele>
        <time>2023-05-18T01:29:02Z</time>
      </trkpt>
      <trkpt lat="49.58755" lon="-1.26527">
        <ele>3</ele>
        <time>2023-05-18T01:29:49Z</time>
      </trkpt>
      <trkpt lat="49.58773" lon="-1.26541">
        <ele>2.9</ele>
        <time>2023-05-18T01:29:55Z</time>
      </trkpt>
      <trkpt lat="49.58792" lon="-1.26555">
        <ele>2.9</ele>
        <time>2023-05-18T01:30:01Z</time>
      </trkpt>
      <trkpt lat="49.5881" lon="-1.26568">
        <ele>2.8</ele>
        <time>2023-05-18T01:30:06Z</time>
      </trkpt>
      <trkpt lat="49.58828" lon="-1.26584">
        <ele>2.7</ele>
        <time>2023-05-18T01:30:11Z</time>
      </trkpt>
      <trkpt lat="49.58843" lon="-1.26602">
        <ele>2.7</ele>
        <time>2023-05-18T01:30:16Z</time>
      </trkpt>
      <trkpt lat="49.58863" lon="-1.26616">
        <ele>2.6</ele>
        <time>2023-05-18T01:30:21Z</time>
      </trkpt>
      <trkpt lat="49.58882" lon="-1.26614">
        <ele>2.6</ele>
        <time>2023-05-18T01:30:25Z</time>
      </trkpt>
      <trkpt lat="49.58902" lon="-1.26614">
        <ele>2.6</ele>
        <time>2023-05-18T01:30:29Z</time>
      </trkpt>
      <trkpt lat="49.58922" lon="-1.26618">
        <ele>2.6</ele>
        <time>2023-05-18T01:30:33Z</time>
      </trkpt>
      <trkpt lat="49.5894" lon="-1.26622">
        <ele>2.6</ele>
        <time>2023-05-18T01:30:37Z</time>
      </trkpt>
      <trkpt lat="49.58958" lon="-1.26616">
        <ele>2.6</ele>
        <time>2023-05-18T01:30:41Z</time>
      </trkpt>
      <trkpt lat="49.58977" lon="-1.26621">
        <ele>2.6</ele>
        <time>2023-05-18T01:30:45Z</time>
      </trkpt>
      <trkpt lat="49.58994" lon="-1.26637">
        <ele>2.5</ele>
        <time>2023-05-18T01:30:49Z</time>
      </trkpt>
      <trkpt lat="49.59012" lon="-1.26646">
        <ele>2.5</ele>
        <time>2023-05-18T01:30:53Z</time>
      </trkpt>
      <trkpt lat="49.59031" lon="-1.26648">
        <ele>2.5</ele>
        <time>2023-05-18T01:30:57Z</time>
      </trkpt>
      <trkpt lat="49.5905" lon="-1.26651">
        <ele>2.4</ele>
        <time>2023-05-18T01:31:01Z</time>
      </trkpt>
      <trkpt lat="49.5907" lon="-1.26655">
        <ele>2.4</ele>
        <time>2023-05-18T01:31:05Z</time>
      </trkpt>
      <trkpt lat="49.59092" lon="-1.26658">
        <ele>2.3</ele>
        <time>2023-05-18T01:31:09Z</time>
      </trkpt>
      <trkpt lat="49.59113" lon="-1.26661">
        <ele>2.2</ele>
        <time>2023-05-18T01:31:13Z</time>
      </trkpt>
      <trkpt lat="49.59135" lon="-1.26664">
        <ele>2.1</ele>
        <time>2023-05-18T01:31:17Z</time>
      </trkpt>
      <trkpt lat="49.59154" lon="-1.26667">
        <ele>2</ele>
        <time>2023-05-18T01:31:21Z</time>
      </trkpt>
      <trkpt lat="49.59176" lon="-1.26669">
        <ele>2</ele>
        <time>2023-05-18T01:31:26Z</time>
      </trkpt>
      <trkpt lat="49.59194" lon="-1.26671">
        <ele>2</ele>
        <time>2023-05-18T01:31:30Z</time>
      </trkpt>
      <trkpt lat="49.59214" lon="-1.26674">
        <ele>1.9</ele>
        <time>2023-05-18T01:31:34Z</time>
      </trkpt>
      <trkpt lat="49.59236" lon="-1.26678">
        <ele>1.8</ele>
        <time>2023-05-18T01:31:38Z</time>
      </trkpt>
      <trkpt lat="49.59259" lon="-1.26678">
        <ele>1.7</ele>
        <time>2023-05-18T01:31:42Z</time>
      </trkpt>
      <trkpt lat="49.59282" lon="-1.26675">
        <ele>1.5</ele>
        <time>2023-05-18T01:31:46Z</time>
      </trkpt>
      <trkpt lat="49.59301" lon="-1.26667">
        <ele>1.4</ele>
        <time>2023-05-18T01:31:49Z</time>
      </trkpt>
      <trkpt lat="49.59318" lon="-1.26656">
        <ele>1.4</ele>
        <time>2023-05-18T01:31:52Z</time>
      </trkpt>
      <trkpt lat="49.59335" lon="-1.26646">
        <ele>1.4</ele>
        <time>2023-05-18T01:31:55Z</time>
      </trkpt>
      <trkpt lat="49.59352" lon="-1.26634">
        <ele>1.4</ele>
        <time>2023-05-18T01:31:58Z</time>
      </trkpt>
      <trkpt lat="49.59369" lon="-1.26623">
        <ele>1.4</ele>
        <time>2023-05-18T01:32:01Z</time>
      </trkpt>
      <trkpt lat="49.59387" lon="-1.26613">
        <ele>1.4</ele>
        <time>2023-05-18T01:32:04Z</time>
      </trkpt>
      <trkpt lat="49.59405" lon="-1.26603">
        <ele>1.4</ele>
        <time>2023-05-18T01:32:07Z</time>
      </trkpt>
      <trkpt lat="49.59422" lon="-1.26591">
        <ele>1.4</ele>
        <time>2023-05-18T01:32:10Z</time>
      </trkpt>
      <trkpt lat="49.59439" lon="-1.26582">
        <ele>1.4</ele>
        <time>2023-05-18T01:32:13Z</time>
      </trkpt>
      <trkpt lat="49.59456" lon="-1.26572">
        <ele>1.4</ele>
        <time>2023-05-18T01:32:16Z</time>
      </trkpt>
      <trkpt lat="49.59473" lon="-1.26562">
        <ele>1.4</ele>
        <time>2023-05-18T01:32:19Z</time>
      </trkpt>
      <trkpt lat="49.5949" lon="-1.26551">
        <ele>1.4</ele>
        <time>2023-05-18T01:32:22Z</time>
      </trkpt>
      <trkpt lat="49.59507" lon="-1.26539">
        <ele>1.5</ele>
        <time>2023-05-18T01:32:25Z</time>
      </trkpt>
      <trkpt lat="49.59529" lon="-1.26526">
        <ele>1.4</ele>
        <time>2023-05-18T01:32:29Z</time>
      </trkpt>
      <trkpt lat="49.59551" lon="-1.26514">
        <ele>1.4</ele>
        <time>2023-05-18T01:32:33Z</time>
      </trkpt>
      <trkpt lat="49.59568" lon="-1.26504">
        <ele>1.5</ele>
        <time>2023-05-18T01:32:36Z</time>
      </trkpt>
      <trkpt lat="49.59585" lon="-1.26493">
        <ele>1.6</ele>
        <time>2023-05-18T01:32:39Z</time>
      </trkpt>
      <trkpt lat="49.59607" lon="-1.26479">
        <ele>1.6</ele>
        <time>2023-05-18T01:32:43Z</time>
      </trkpt>
      <trkpt lat="49.59624" lon="-1.26469">
        <ele>1.6</ele>
        <time>2023-05-18T01:32:46Z</time>
      </trkpt>
      <trkpt lat="49.59641" lon="-1.26458">
        <ele>1.5</ele>
        <time>2023-05-18T01:32:49Z</time>
      </trkpt>
      <trkpt lat="49.59659" lon="-1.26448">
        <ele>1.5</ele>
        <time>2023-05-18T01:32:52Z</time>
      </trkpt>
      <trkpt lat="49.59676" lon="-1.26438">
        <ele>1.5</ele>
        <time>2023-05-18T01:32:55Z</time>
      </trkpt>
      <trkpt lat="49.59693" lon="-1.26427">
        <ele>1.5</ele>
        <time>2023-05-18T01:32:58Z</time>
      </trkpt>
      <trkpt lat="49.5971" lon="-1.26415">
        <ele>1.5</ele>
        <time>2023-05-18T01:33:01Z</time>
      </trkpt>
      <trkpt lat="49.59728" lon="-1.26405">
        <ele>1.5</ele>
        <time>2023-05-18T01:33:04Z</time>
      </trkpt>
      <trkpt lat="49.59745" lon="-1.26394">
        <ele>1.6</ele>
        <time>2023-05-18T01:33:07Z</time>
      </trkpt>
      <trkpt lat="49.59762" lon="-1.26383">
        <ele>1.6</ele>
        <time>2023-05-18T01:33:10Z</time>
      </trkpt>
      <trkpt lat="49.59779" lon="-1.26372">
        <ele>1.6</ele>
        <time>2023-05-18T01:33:13Z</time>
      </trkpt>
      <trkpt lat="49.59801" lon="-1.2636">
        <ele>1.6</ele>
        <time>2023-05-18T01:33:17Z</time>
      </trkpt>
      <trkpt lat="49.59824" lon="-1.26345">
        <ele>1.6</ele>
        <time>2023-05-18T01:33:21Z</time>
      </trkpt>
      <trkpt lat="49.59846" lon="-1.26332">
        <ele>1.6</ele>
        <time>2023-05-18T01:33:25Z</time>
      </trkpt>
      <trkpt lat="49.59868" lon="-1.26317">
        <ele>1.6</ele>
        <time>2023-05-18T01:33:29Z</time>
      </trkpt>
      <trkpt lat="49.59885" lon="-1.26307">
        <ele>1.7</ele>
        <time>2023-05-18T01:33:32Z</time>
      </trkpt>
      <trkpt lat="49.59902" lon="-1.26297">
        <ele>1.8</ele>
        <time>2023-05-18T01:33:35Z</time>
      </trkpt>
      <trkpt lat="49.59919" lon="-1.26286">
        <ele>1.8</ele>
        <time>2023-05-18T01:33:38Z</time>
      </trkpt>
      <trkpt lat="49.59941" lon="-1.2627">
        <ele>1.8</ele>
        <time>2023-05-18T01:33:42Z</time>
      </trkpt>
      <trkpt lat="49.59958" lon="-1.26257">
        <ele>1.8</ele>
        <time>2023-05-18T01:33:45Z</time>
      </trkpt>
      <trkpt lat="49.59974" lon="-1.26242">
        <ele>1.8</ele>
        <time>2023-05-18T01:33:48Z</time>
      </trkpt>
      <trkpt lat="49.59994" lon="-1.26224">
        <ele>1.8</ele>
        <time>2023-05-18T01:33:52Z</time>
      </trkpt>
      <trkpt lat="49.60014" lon="-1.26204">
        <ele>1.8</ele>
        <time>2023-05-18T01:33:56Z</time>
      </trkpt>
      <trkpt lat="49.60035" lon="-1.26187">
        <ele>1.8</ele>
        <time>2023-05-18T01:34:00Z</time>
      </trkpt>
      <trkpt lat="49.60055" lon="-1.26168">
        <ele>1.8</ele>
        <time>2023-05-18T01:34:04Z</time>
      </trkpt>
      <trkpt lat="49.60071" lon="-1.26155">
        <ele>1.8</ele>
        <time>2023-05-18T01:34:07Z</time>
      </trkpt>
      <trkpt lat="49.60087" lon="-1.26141">
        <ele>1.8</ele>
        <time>2023-05-18T01:34:10Z</time>
      </trkpt>
      <trkpt lat="49.60109" lon="-1.26126">
        <ele>1.8</ele>
        <time>2023-05-18T01:34:14Z</time>
      </trkpt>
      <trkpt lat="49.6013" lon="-1.26111">
        <ele>1.7</ele>
        <time>2023-05-18T01:34:18Z</time>
      </trkpt>
      <trkpt lat="49.60152" lon="-1.26098">
        <ele>1.7</ele>
        <time>2023-05-18T01:34:22Z</time>
      </trkpt>
      <trkpt lat="49.60173" lon="-1.26085">
        <ele>1.7</ele>
        <time>2023-05-18T01:34:26Z</time>
      </trkpt>
      <trkpt lat="49.6019" lon="-1.26074">
        <ele>1.7</ele>
        <time>2023-05-18T01:34:29Z</time>
      </trkpt>
      <trkpt lat="49.60211" lon="-1.26061">
        <ele>1.8</ele>
        <time>2023-05-18T01:34:33Z</time>
      </trkpt>
      <trkpt lat="49.60232" lon="-1.26047">
        <ele>1.9</ele>
        <time>2023-05-18T01:34:37Z</time>
      </trkpt>
      <trkpt lat="49.60253" lon="-1.26031">
        <ele>2</ele>
        <time>2023-05-18T01:34:41Z</time>
      </trkpt>
      <trkpt lat="49.60276" lon="-1.26017">
        <ele>2.1</ele>
        <time>2023-05-18T01:34:45Z</time>
      </trkpt>
      <trkpt lat="49.60297" lon="-1.26003">
        <ele>2</ele>
        <time>2023-05-18T01:34:49Z</time>
      </trkpt>
      <trkpt lat="49.60314" lon="-1.25991">
        <ele>1.9</ele>
        <time>2023-05-18T01:34:52Z</time>
      </trkpt>
      <trkpt lat="49.60332" lon="-1.2598">
        <ele>1.8</ele>
        <time>2023-05-18T01:34:55Z</time>
      </trkpt>
      <trkpt lat="49.60353" lon="-1.25963">
        <ele>1.8</ele>
        <time>2023-05-18T01:34:59Z</time>
      </trkpt>
      <trkpt lat="49.6037" lon="-1.25952">
        <ele>1.8</ele>
        <time>2023-05-18T01:35:02Z</time>
      </trkpt>
      <trkpt lat="49.60392" lon="-1.2594">
        <ele>1.8</ele>
        <time>2023-05-18T01:35:06Z</time>
      </trkpt>
      <trkpt lat="49.60409" lon="-1.25929">
        <ele>1.7</ele>
        <time>2023-05-18T01:35:09Z</time>
      </trkpt>
      <trkpt lat="49.60426" lon="-1.25919">
        <ele>1.6</ele>
        <time>2023-05-18T01:35:12Z</time>
      </trkpt>
      <trkpt lat="49.60449" lon="-1.25908">
        <ele>1.6</ele>
        <time>2023-05-18T01:35:16Z</time>
      </trkpt>
      <trkpt lat="49.60466" lon="-1.25897">
        <ele>1.5</ele>
        <time>2023-05-18T01:35:19Z</time>
      </trkpt>
      <trkpt lat="49.60484" lon="-1.2589">
        <ele>1.5</ele>
        <time>2023-05-18T01:35:22Z</time>
      </trkpt>
      <trkpt lat="49.60503" lon="-1.25882">
        <ele>1.5</ele>
        <time>2023-05-18T01:35:25Z</time>
      </trkpt>
      <trkpt lat="49.60521" lon="-1.25876">
        <ele>1.5</ele>
        <time>2023-05-18T01:35:28Z</time>
      </trkpt>
      <trkpt lat="49.60544" lon="-1.25867">
        <ele>1.5</ele>
        <time>2023-05-18T01:35:32Z</time>
      </trkpt>
      <trkpt lat="49.60562" lon="-1.25861">
        <ele>1.4</ele>
        <time>2023-05-18T01:35:35Z</time>
      </trkpt>
      <trkpt lat="49.6058" lon="-1.25854">
        <ele>1.4</ele>
        <time>2023-05-18T01:35:38Z</time>
      </trkpt>
      <trkpt lat="49.60598" lon="-1.25847">
        <ele>1.5</ele>
        <time>2023-05-18T01:35:41Z</time>
      </trkpt>
      <trkpt lat="49.6062" lon="-1.25837">
        <ele>1.5</ele>
        <time>2023-05-18T01:35:45Z</time>
      </trkpt>
      <trkpt lat="49.60641" lon="-1.25829">
        <ele>1.7</ele>
        <time>2023-05-18T01:35:49Z</time>
      </trkpt>
      <trkpt lat="49.60659" lon="-1.25823">
        <ele>1.8</ele>
        <time>2023-05-18T01:35:52Z</time>
      </trkpt>
      <trkpt lat="49.60677" lon="-1.25817">
        <ele>1.9</ele>
        <time>2023-05-18T01:35:55Z</time>
      </trkpt>
      <trkpt lat="49.607" lon="-1.25808">
        <ele>2.1</ele>
        <time>2023-05-18T01:35:59Z</time>
      </trkpt>
      <trkpt lat="49.60723" lon="-1.258">
        <ele>2.2</ele>
        <time>2023-05-18T01:36:03Z</time>
      </trkpt>
      <trkpt lat="49.60744" lon="-1.25791">
        <ele>2.3</ele>
        <time>2023-05-18T01:36:07Z</time>
      </trkpt>
      <trkpt lat="49.60766" lon="-1.25783">
        <ele>2.4</ele>
        <time>2023-05-18T01:36:11Z</time>
      </trkpt>
      <trkpt lat="49.60787" lon="-1.25771">
        <ele>2.6</ele>
        <time>2023-05-18T01:36:15Z</time>
      </trkpt>
      <trkpt lat="49.60809" lon="-1.25763">
        <ele>2.6</ele>
        <time>2023-05-18T01:36:19Z</time>
      </trkpt>
      <trkpt lat="49.60831" lon="-1.25755">
        <ele>2.6</ele>
        <time>2023-05-18T01:36:23Z</time>
      </trkpt>
      <trkpt lat="49.60849" lon="-1.25748">
        <ele>2.6</ele>
        <time>2023-05-18T01:36:26Z</time>
      </trkpt>
      <trkpt lat="49.60871" lon="-1.2574">
        <ele>2.6</ele>
        <time>2023-05-18T01:36:30Z</time>
      </trkpt>
      <trkpt lat="49.60894" lon="-1.25732">
        <ele>2.6</ele>
        <time>2023-05-18T01:36:34Z</time>
      </trkpt>
      <trkpt lat="49.60916" lon="-1.25721">
        <ele>2.6</ele>
        <time>2023-05-18T01:36:38Z</time>
      </trkpt>
      <trkpt lat="49.60934" lon="-1.25714">
        <ele>2.5</ele>
        <time>2023-05-18T01:36:41Z</time>
      </trkpt>
      <trkpt lat="49.60952" lon="-1.25707">
        <ele>2.5</ele>
        <time>2023-05-18T01:36:44Z</time>
      </trkpt>
      <trkpt lat="49.60975" lon="-1.25697">
        <ele>2.4</ele>
        <time>2023-05-18T01:36:48Z</time>
      </trkpt>
      <trkpt lat="49.60992" lon="-1.25689">
        <ele>2.3</ele>
        <time>2023-05-18T01:36:51Z</time>
      </trkpt>
      <trkpt lat="49.61011" lon="-1.25683">
        <ele>2.2</ele>
        <time>2023-05-18T01:36:54Z</time>
      </trkpt>
      <trkpt lat="49.61029" lon="-1.25675">
        <ele>2.1</ele>
        <time>2023-05-18T01:36:57Z</time>
      </trkpt>
      <trkpt lat="49.61047" lon="-1.25668">
        <ele>2.1</ele>
        <time>2023-05-18T01:37:00Z</time>
      </trkpt>
      <trkpt lat="49.61065" lon="-1.25662">
        <ele>2</ele>
        <time>2023-05-18T01:37:03Z</time>
      </trkpt>
      <trkpt lat="49.61084" lon="-1.25655">
        <ele>2</ele>
        <time>2023-05-18T01:37:06Z</time>
      </trkpt>
      <trkpt lat="49.61102" lon="-1.25648">
        <ele>2</ele>
        <time>2023-05-18T01:37:09Z</time>
      </trkpt>
      <trkpt lat="49.6112" lon="-1.25642">
        <ele>2.1</ele>
        <time>2023-05-18T01:37:12Z</time>
      </trkpt>
      <trkpt lat="49.61143" lon="-1.25634">
        <ele>2.4</ele>
        <time>2023-05-18T01:37:16Z</time>
      </trkpt>
      <trkpt lat="49.61165" lon="-1.25626">
        <ele>2.7</ele>
        <time>2023-05-18T01:37:20Z</time>
      </trkpt>
      <trkpt lat="49.61186" lon="-1.25618">
        <ele>2.8</ele>
        <time>2023-05-18T01:37:24Z</time>
      </trkpt>
      <trkpt lat="49.61205" lon="-1.25613">
        <ele>3</ele>
        <time>2023-05-18T01:37:28Z</time>
      </trkpt>
      <trkpt lat="49.61226" lon="-1.25607">
        <ele>3.1</ele>
        <time>2023-05-18T01:37:33Z</time>
      </trkpt>
      <trkpt lat="49.61247" lon="-1.25597">
        <ele>3</ele>
        <time>2023-05-18T01:39:07Z</time>
      </trkpt>
      <trkpt lat="49.61267" lon="-1.25594">
        <ele>2.9</ele>
        <time>2023-05-18T01:39:13Z</time>
      </trkpt>
      <trkpt lat="49.61287" lon="-1.25588">
        <ele>2.8</ele>
        <time>2023-05-18T01:39:18Z</time>
      </trkpt>
      <trkpt lat="49.61309" lon="-1.25588">
        <ele>2.6</ele>
        <time>2023-05-18T01:39:23Z</time>
      </trkpt>
      <trkpt lat="49.61321" lon="-1.25614">
        <ele>2.4</ele>
        <time>2023-05-18T01:39:27Z</time>
      </trkpt>
      <trkpt lat="49.61328" lon="-1.25647">
        <ele>2.3</ele>
        <time>2023-05-18T01:39:31Z</time>
      </trkpt>
      <trkpt lat="49.61337" lon="-1.25681">
        <ele>2.3</ele>
        <time>2023-05-18T01:39:35Z</time>
      </trkpt>
      <trkpt lat="49.61347" lon="-1.25714">
        <ele>2.3</ele>
        <time>2023-05-18T01:39:39Z</time>
      </trkpt>
      <trkpt lat="49.61357" lon="-1.25742">
        <ele>2.2</ele>
        <time>2023-05-18T01:39:43Z</time>
      </trkpt>
      <trkpt lat="49.61367" lon="-1.25766">
        <ele>2.2</ele>
        <time>2023-05-18T01:39:46Z</time>
      </trkpt>
      <trkpt lat="49.61378" lon="-1.25788">
        <ele>2.1</ele>
        <time>2023-05-18T01:39:49Z</time>
      </trkpt>
      <trkpt lat="49.6139" lon="-1.25809">
        <ele>2</ele>
        <time>2023-05-18T01:39:52Z</time>
      </trkpt>
      <trkpt lat="49.61403" lon="-1.25829">
        <ele>2</ele>
        <time>2023-05-18T01:39:55Z</time>
      </trkpt>
      <trkpt lat="49.61422" lon="-1.25847">
        <ele>2.1</ele>
        <time>2023-05-18T01:39:59Z</time>
      </trkpt>
      <trkpt lat="49.61438" lon="-1.25861">
        <ele>2.1</ele>
        <time>2023-05-18T01:40:02Z</time>
      </trkpt>
      <trkpt lat="49.61459" lon="-1.25877">
        <ele>2.1</ele>
        <time>2023-05-18T01:40:06Z</time>
      </trkpt>
      <trkpt lat="49.61477" lon="-1.25897">
        <ele>2.1</ele>
        <time>2023-05-18T01:40:10Z</time>
      </trkpt>
      <trkpt lat="49.61491" lon="-1.25917">
        <ele>2.1</ele>
        <time>2023-05-18T01:40:13Z</time>
      </trkpt>
      <trkpt lat="49.61502" lon="-1.25948">
        <ele>2.2</ele>
        <time>2023-05-18T01:40:17Z</time>
      </trkpt>
      <trkpt lat="49.61513" lon="-1.2598">
        <ele>2.2</ele>
        <time>2023-05-18T01:40:21Z</time>
      </trkpt>
      <trkpt lat="49.61522" lon="-1.26014">
        <ele>2.3</ele>
        <time>2023-05-18T01:40:25Z</time>
      </trkpt>
      <trkpt lat="49.6153" lon="-1.26039">
        <ele>2.5</ele>
        <time>2023-05-18T01:40:28Z</time>
      </trkpt>
      <trkpt lat="49.61546" lon="-1.26064">
        <ele>2.7</ele>
        <time>2023-05-18T01:40:32Z</time>
      </trkpt>
      <trkpt lat="49.61568" lon="-1.26064">
        <ele>3.1</ele>
        <time>2023-05-18T01:40:36Z</time>
      </trkpt>
      <trkpt lat="49.61587" lon="-1.26055">
        <ele>3.4</ele>
        <time>2023-05-18T01:40:40Z</time>
      </trkpt>
      <trkpt lat="49.61607" lon="-1.26044">
        <ele>3.7</ele>
        <time>2023-05-18T01:40:44Z</time>
      </trkpt>
      <trkpt lat="49.61625" lon="-1.26034">
        <ele>3.9</ele>
        <time>2023-05-18T01:40:48Z</time>
      </trkpt>
      <trkpt lat="49.61644" lon="-1.26025">
        <ele>4.2</ele>
        <time>2023-05-18T01:40:52Z</time>
      </trkpt>
      <trkpt lat="49.61662" lon="-1.26014">
        <ele>4.4</ele>
        <time>2023-05-18T01:40:56Z</time>
      </trkpt>
      <trkpt lat="49.61682" lon="-1.26005">
        <ele>4.6</ele>
        <time>2023-05-18T01:41:00Z</time>
      </trkpt>
      <trkpt lat="49.61701" lon="-1.25995">
        <ele>4.8</ele>
        <time>2023-05-18T01:41:04Z</time>
      </trkpt>
      <trkpt lat="49.6172" lon="-1.25981">
        <ele>5</ele>
        <time>2023-05-18T01:41:08Z</time>
      </trkpt>
      <trkpt lat="49.61739" lon="-1.25972">
        <ele>5.1</ele>
        <time>2023-05-18T01:41:12Z</time>
      </trkpt>
      <trkpt lat="49.61758" lon="-1.25962">
        <ele>5.3</ele>
        <time>2023-05-18T01:41:16Z</time>
      </trkpt>
      <trkpt lat="49.61779" lon="-1.25951">
        <ele>5.4</ele>
        <time>2023-05-18T01:41:20Z</time>
      </trkpt>
      <trkpt lat="49.618" lon="-1.25941">
        <ele>5.6</ele>
        <time>2023-05-18T01:41:24Z</time>
      </trkpt>
      <trkpt lat="49.6182" lon="-1.25936">
        <ele>5.8</ele>
        <time>2023-05-18T01:41:28Z</time>
      </trkpt>
      <trkpt lat="49.6184" lon="-1.25937">
        <ele>6</ele>
        <time>2023-05-18T01:41:32Z</time>
      </trkpt>
      <trkpt lat="49.61861" lon="-1.25937">
        <ele>6.2</ele>
        <time>2023-05-18T01:41:36Z</time>
      </trkpt>
      <trkpt lat="49.61879" lon="-1.25947">
        <ele>6.3</ele>
        <time>2023-05-18T01:41:40Z</time>
      </trkpt>
      <trkpt lat="49.61895" lon="-1.25964">
        <ele>6.4</ele>
        <time>2023-05-18T01:41:44Z</time>
      </trkpt>
      <trkpt lat="49.61914" lon="-1.25963">
        <ele>6.5</ele>
        <time>2023-05-18T01:41:48Z</time>
      </trkpt>
      <trkpt lat="49.61932" lon="-1.25959">
        <ele>6.5</ele>
        <time>2023-05-18T01:41:52Z</time>
      </trkpt>
      <trkpt lat="49.6195" lon="-1.25949">
        <ele>6.4</ele>
        <time>2023-05-18T01:41:56Z</time>
      </trkpt>
      <trkpt lat="49.61968" lon="-1.25941">
        <ele>6.2</ele>
        <time>2023-05-18T01:42:00Z</time>
      </trkpt>
      <trkpt lat="49.6199" lon="-1.25936">
        <ele>6</ele>
        <time>2023-05-18T01:42:04Z</time>
      </trkpt>
      <trkpt lat="49.62009" lon="-1.25935">
        <ele>6</ele>
        <time>2023-05-18T01:42:07Z</time>
      </trkpt>
      <trkpt lat="49.62024" lon="-1.25953">
        <ele>5.9</ele>
        <time>2023-05-18T01:42:10Z</time>
      </trkpt>
      <trkpt lat="49.6204" lon="-1.25977">
        <ele>5.9</ele>
        <time>2023-05-18T01:42:14Z</time>
      </trkpt>
      <trkpt lat="49.62062" lon="-1.25977">
        <ele>6</ele>
        <time>2023-05-18T01:42:18Z</time>
      </trkpt>
      <trkpt lat="49.62082" lon="-1.25963">
        <ele>6.1</ele>
        <time>2023-05-18T01:42:22Z</time>
      </trkpt>
      <trkpt lat="49.62103" lon="-1.25953">
        <ele>6.3</ele>
        <time>2023-05-18T01:42:26Z</time>
      </trkpt>
      <trkpt lat="49.62124" lon="-1.2594">
        <ele>6.5</ele>
        <time>2023-05-18T01:42:30Z</time>
      </trkpt>
      <trkpt lat="49.62145" lon="-1.2593">
        <ele>6.6</ele>
        <time>2023-05-18T01:42:34Z</time>
      </trkpt>
      <trkpt lat="49.62167" lon="-1.25928">
        <ele>6.7</ele>
        <time>2023-05-18T01:42:38Z</time>
      </trkpt>
      <trkpt lat="49.62188" lon="-1.25938">
        <ele>6.9</ele>
        <time>2023-05-18T01:42:42Z</time>
      </trkpt>
      <trkpt lat="49.62209" lon="-1.25954">
        <ele>6.8</ele>
        <time>2023-05-18T01:42:46Z</time>
      </trkpt>
      <trkpt lat="49.62227" lon="-1.25966">
        <ele>6.7</ele>
        <time>2023-05-18T01:42:49Z</time>
      </trkpt>
      <trkpt lat="49.62245" lon="-1.25981">
        <ele>6.6</ele>
        <time>2023-05-18T01:42:52Z</time>
      </trkpt>
      <trkpt lat="49.62263" lon="-1.25993">
        <ele>6.5</ele>
        <time>2023-05-18T01:42:55Z</time>
      </trkpt>
      <trkpt lat="49.62281" lon="-1.26006">
        <ele>6.4</ele>
        <time>2023-05-18T01:42:58Z</time>
      </trkpt>
      <trkpt lat="49.62299" lon="-1.26019">
        <ele>6.3</ele>
        <time>2023-05-18T01:43:01Z</time>
      </trkpt>
      <trkpt lat="49.62316" lon="-1.26029">
        <ele>6.3</ele>
        <time>2023-05-18T01:43:04Z</time>
      </trkpt>
      <trkpt lat="49.62334" lon="-1.2604">
        <ele>6.3</ele>
        <time>2023-05-18T01:43:07Z</time>
      </trkpt>
      <trkpt lat="49.62351" lon="-1.26051">
        <ele>6.3</ele>
        <time>2023-05-18T01:43:10Z</time>
      </trkpt>
      <trkpt lat="49.62369" lon="-1.26061">
        <ele>6.2</ele>
        <time>2023-05-18T01:43:13Z</time>
      </trkpt>
      <trkpt lat="49.62388" lon="-1.26073">
        <ele>6.1</ele>
        <time>2023-05-18T01:43:16Z</time>
      </trkpt>
      <trkpt lat="49.62406" lon="-1.26089">
        <ele>6.1</ele>
        <time>2023-05-18T01:43:19Z</time>
      </trkpt>
      <trkpt lat="49.62423" lon="-1.26105">
        <ele>6.1</ele>
        <time>2023-05-18T01:43:22Z</time>
      </trkpt>
      <trkpt lat="49.62441" lon="-1.26118">
        <ele>6.1</ele>
        <time>2023-05-18T01:43:25Z</time>
      </trkpt>
      <trkpt lat="49.6246" lon="-1.26117">
        <ele>6</ele>
        <time>2023-05-18T01:43:28Z</time>
      </trkpt>
      <trkpt lat="49.62478" lon="-1.26108">
        <ele>6</ele>
        <time>2023-05-18T01:43:31Z</time>
      </trkpt>
      <trkpt lat="49.62496" lon="-1.26097">
        <ele>6</ele>
        <time>2023-05-18T01:43:34Z</time>
      </trkpt>
      <trkpt lat="49.62514" lon="-1.26083">
        <ele>6.1</ele>
        <time>2023-05-18T01:43:37Z</time>
      </trkpt>
      <trkpt lat="49.62533" lon="-1.26069">
        <ele>6.1</ele>
        <time>2023-05-18T01:43:40Z</time>
      </trkpt>
      <trkpt lat="49.62551" lon="-1.26056">
        <ele>6.2</ele>
        <time>2023-05-18T01:43:43Z</time>
      </trkpt>
      <trkpt lat="49.6257" lon="-1.26045">
        <ele>6.4</ele>
        <time>2023-05-18T01:43:46Z</time>
      </trkpt>
      <trkpt lat="49.62588" lon="-1.26038">
        <ele>6.6</ele>
        <time>2023-05-18T01:43:49Z</time>
      </trkpt>
      <trkpt lat="49.62608" lon="-1.26035">
        <ele>6.9</ele>
        <time>2023-05-18T01:43:52Z</time>
      </trkpt>
      <trkpt lat="49.62631" lon="-1.26033">
        <ele>7.1</ele>
        <time>2023-05-18T01:43:56Z</time>
      </trkpt>
      <trkpt lat="49.62655" lon="-1.26034">
        <ele>7.4</ele>
        <time>2023-05-18T01:44:00Z</time>
      </trkpt>
      <trkpt lat="49.62674" lon="-1.26034">
        <ele>7.6</ele>
        <time>2023-05-18T01:44:03Z</time>
      </trkpt>
      <trkpt lat="49.62692" lon="-1.26034">
        <ele>7.8</ele>
        <time>2023-05-18T01:44:06Z</time>
      </trkpt>
      <trkpt lat="49.6271" lon="-1.26033">
        <ele>8</ele>
        <time>2023-05-18T01:44:09Z</time>
      </trkpt>
      <trkpt lat="49.62729" lon="-1.26032">
        <ele>8.2</ele>
        <time>2023-05-18T01:44:12Z</time>
      </trkpt>
      <trkpt lat="49.62751" lon="-1.2603">
        <ele>8.4</ele>
        <time>2023-05-18T01:44:16Z</time>
      </trkpt>
      <trkpt lat="49.62774" lon="-1.26025">
        <ele>8.6</ele>
        <time>2023-05-18T01:44:20Z</time>
      </trkpt>
      <trkpt lat="49.62795" lon="-1.26022">
        <ele>8.8</ele>
        <time>2023-05-18T01:44:24Z</time>
      </trkpt>
      <trkpt lat="49.62818" lon="-1.26019">
        <ele>8.9</ele>
        <time>2023-05-18T01:44:28Z</time>
      </trkpt>
      <trkpt lat="49.62839" lon="-1.26012">
        <ele>9.1</ele>
        <time>2023-05-18T01:44:32Z</time>
      </trkpt>
      <trkpt lat="49.6286" lon="-1.26001">
        <ele>9.3</ele>
        <time>2023-05-18T01:44:36Z</time>
      </trkpt>
      <trkpt lat="49.62882" lon="-1.25987">
        <ele>9.4</ele>
        <time>2023-05-18T01:44:40Z</time>
      </trkpt>
      <trkpt lat="49.62902" lon="-1.25972">
        <ele>9.4</ele>
        <time>2023-05-18T01:44:44Z</time>
      </trkpt>
      <trkpt lat="49.62925" lon="-1.25963">
        <ele>9.6</ele>
        <time>2023-05-18T01:44:48Z</time>
      </trkpt>
      <trkpt lat="49.62948" lon="-1.25958">
        <ele>9.6</ele>
        <time>2023-05-18T01:44:52Z</time>
      </trkpt>
      <trkpt lat="49.62966" lon="-1.25953">
        <ele>9.6</ele>
        <time>2023-05-18T01:44:55Z</time>
      </trkpt>
      <trkpt lat="49.62989" lon="-1.25947">
        <ele>9.7</ele>
        <time>2023-05-18T01:44:59Z</time>
      </trkpt>
      <trkpt lat="49.63012" lon="-1.25939">
        <ele>9.7</ele>
        <time>2023-05-18T01:45:03Z</time>
      </trkpt>
      <trkpt lat="49.63029" lon="-1.25933">
        <ele>9.6</ele>
        <time>2023-05-18T01:45:06Z</time>
      </trkpt>
      <trkpt lat="49.63052" lon="-1.25922">
        <ele>9.7</ele>
        <time>2023-05-18T01:45:10Z</time>
      </trkpt>
      <trkpt lat="49.6307" lon="-1.25912">
        <ele>9.7</ele>
        <time>2023-05-18T01:45:13Z</time>
      </trkpt>
      <trkpt lat="49.63088" lon="-1.25902">
        <ele>9.7</ele>
        <time>2023-05-18T01:45:16Z</time>
      </trkpt>
      <trkpt lat="49.6311" lon="-1.25892">
        <ele>9.8</ele>
        <time>2023-05-18T01:45:20Z</time>
      </trkpt>
      <trkpt lat="49.63127" lon="-1.25883">
        <ele>9.9</ele>
        <time>2023-05-18T01:45:23Z</time>
      </trkpt>
      <trkpt lat="49.6315" lon="-1.25872">
        <ele>9.8</ele>
        <time>2023-05-18T01:45:27Z</time>
      </trkpt>
      <trkpt lat="49.63167" lon="-1.25865">
        <ele>9.8</ele>
        <time>2023-05-18T01:45:30Z</time>
      </trkpt>
      <trkpt lat="49.63185" lon="-1.25857">
        <ele>9.8</ele>
        <time>2023-05-18T01:45:33Z</time>
      </trkpt>
      <trkpt lat="49.63202" lon="-1.25846">
        <ele>9.8</ele>
        <time>2023-05-18T01:45:36Z</time>
      </trkpt>
      <trkpt lat="49.63224" lon="-1.25834">
        <ele>9.8</ele>
        <time>2023-05-18T01:45:40Z</time>
      </trkpt>
      <trkpt lat="49.63246" lon="-1.25823">
        <ele>9.9</ele>
        <time>2023-05-18T01:45:44Z</time>
      </trkpt>
      <trkpt lat="49.63265" lon="-1.25819">
        <ele>9.9</ele>
        <time>2023-05-18T01:45:47Z</time>
      </trkpt>
      <trkpt lat="49.63283" lon="-1.25813">
        <ele>9.9</ele>
        <time>2023-05-18T01:45:50Z</time>
      </trkpt>
      <trkpt lat="49.63301" lon="-1.25807">
        <ele>9.9</ele>
        <time>2023-05-18T01:45:53Z</time>
      </trkpt>
      <trkpt lat="49.63324" lon="-1.25801">
        <ele>9.9</ele>
        <time>2023-05-18T01:45:57Z</time>
      </trkpt>
      <trkpt lat="49.63342" lon="-1.25796">
        <ele>9.8</ele>
        <time>2023-05-18T01:46:00Z</time>
      </trkpt>
      <trkpt lat="49.63361" lon="-1.25793">
        <ele>9.6</ele>
        <time>2023-05-18T01:46:03Z</time>
      </trkpt>
      <trkpt lat="49.6338" lon="-1.25791">
        <ele>9.4</ele>
        <time>2023-05-18T01:46:06Z</time>
      </trkpt>
      <trkpt lat="49.63399" lon="-1.25791">
        <ele>9.2</ele>
        <time>2023-05-18T01:46:09Z</time>
      </trkpt>
      <trkpt lat="49.63418" lon="-1.25791">
        <ele>8.9</ele>
        <time>2023-05-18T01:46:12Z</time>
      </trkpt>
      <trkpt lat="49.63437" lon="-1.25789">
        <ele>8.5</ele>
        <time>2023-05-18T01:46:15Z</time>
      </trkpt>
      <trkpt lat="49.63457" lon="-1.25787">
        <ele>8.1</ele>
        <time>2023-05-18T01:46:18Z</time>
      </trkpt>
      <trkpt lat="49.63478" lon="-1.25785">
        <ele>7.6</ele>
        <time>2023-05-18T01:46:21Z</time>
      </trkpt>
      <trkpt lat="49.63499" lon="-1.25781">
        <ele>7.2</ele>
        <time>2023-05-18T01:46:24Z</time>
      </trkpt>
      <trkpt lat="49.63519" lon="-1.25775">
        <ele>7</ele>
        <time>2023-05-18T01:46:27Z</time>
      </trkpt>
      <trkpt lat="49.63541" lon="-1.25773">
        <ele>6.7</ele>
        <time>2023-05-18T01:46:30Z</time>
      </trkpt>
      <trkpt lat="49.63564" lon="-1.25771">
        <ele>6.5</ele>
        <time>2023-05-18T01:46:33Z</time>
      </trkpt>
      <trkpt lat="49.63585" lon="-1.2576">
        <ele>6.4</ele>
        <time>2023-05-18T01:46:36Z</time>
      </trkpt>
      <trkpt lat="49.63602" lon="-1.25745">
        <ele>6.5</ele>
        <time>2023-05-18T01:46:39Z</time>
      </trkpt>
      <trkpt lat="49.63618" lon="-1.25728">
        <ele>6.4</ele>
        <time>2023-05-18T01:46:42Z</time>
      </trkpt>
      <trkpt lat="49.63634" lon="-1.25711">
        <ele>6.2</ele>
        <time>2023-05-18T01:46:45Z</time>
      </trkpt>
      <trkpt lat="49.6365" lon="-1.25692">
        <ele>6.1</ele>
        <time>2023-05-18T01:46:48Z</time>
      </trkpt>
      <trkpt lat="49.63667" lon="-1.25676">
        <ele>6</ele>
        <time>2023-05-18T01:46:51Z</time>
      </trkpt>
      <trkpt lat="49.63685" lon="-1.25658">
        <ele>5.9</ele>
        <time>2023-05-18T01:46:54Z</time>
      </trkpt>
      <trkpt lat="49.63702" lon="-1.25639">
        <ele>5.7</ele>
        <time>2023-05-18T01:46:57Z</time>
      </trkpt>
      <trkpt lat="49.63717" lon="-1.2562">
        <ele>5.6</ele>
        <time>2023-05-18T01:47:00Z</time>
      </trkpt>
      <trkpt lat="49.63734" lon="-1.25601">
        <ele>5.5</ele>
        <time>2023-05-18T01:47:03Z</time>
      </trkpt>
      <trkpt lat="49.63751" lon="-1.25583">
        <ele>5.4</ele>
        <time>2023-05-18T01:47:06Z</time>
      </trkpt>
      <trkpt lat="49.63768" lon="-1.25565">
        <ele>5.3</ele>
        <time>2023-05-18T01:47:09Z</time>
      </trkpt>
      <trkpt lat="49.63784" lon="-1.25548">
        <ele>5.2</ele>
        <time>2023-05-18T01:47:12Z</time>
      </trkpt>
      <trkpt lat="49.63801" lon="-1.2553">
        <ele>5.2</ele>
        <time>2023-05-18T01:47:15Z</time>
      </trkpt>
      <trkpt lat="49.63817" lon="-1.25511">
        <ele>5.1</ele>
        <time>2023-05-18T01:47:18Z</time>
      </trkpt>
      <trkpt lat="49.63832" lon="-1.25491">
        <ele>5.1</ele>
        <time>2023-05-18T01:47:21Z</time>
      </trkpt>
      <trkpt lat="49.63847" lon="-1.25472">
        <ele>5.1</ele>
        <time>2023-05-18T01:47:24Z</time>
      </trkpt>
      <trkpt lat="49.63862" lon="-1.25452">
        <ele>5.1</ele>
        <time>2023-05-18T01:47:27Z</time>
      </trkpt>
      <trkpt lat="49.63878" lon="-1.25434">
        <ele>5.1</ele>
        <time>2023-05-18T01:47:30Z</time>
      </trkpt>
      <trkpt lat="49.63893" lon="-1.25416">
        <ele>5.1</ele>
        <time>2023-05-18T01:47:33Z</time>
      </trkpt>
      <trkpt lat="49.63909" lon="-1.25397">
        <ele>5</ele>
        <time>2023-05-18T01:47:36Z</time>
      </trkpt>
      <trkpt lat="49.63926" lon="-1.25379">
        <ele>4.9</ele>
        <time>2023-05-18T01:47:39Z</time>
      </trkpt>
      <trkpt lat="49.63943" lon="-1.25362">
        <ele>4.9</ele>
        <time>2023-05-18T01:47:42Z</time>
      </trkpt>
      <trkpt lat="49.6396" lon="-1.25347">
        <ele>4.8</ele>
        <time>2023-05-18T01:47:45Z</time>
      </trkpt>
      <trkpt lat="49.63978" lon="-1.25336">
        <ele>4.9</ele>
        <time>2023-05-18T01:47:48Z</time>
      </trkpt>
      <trkpt lat="49.63995" lon="-1.25321">
        <ele>4.8</ele>
        <time>2023-05-18T01:47:51Z</time>
      </trkpt>
      <trkpt lat="49.64011" lon="-1.25302">
        <ele>4.8</ele>
        <time>2023-05-18T01:47:54Z</time>
      </trkpt>
      <trkpt lat="49.64026" lon="-1.25282">
        <ele>4.8</ele>
        <time>2023-05-18T01:47:57Z</time>
      </trkpt>
      <trkpt lat="49.64041" lon="-1.25261">
        <ele>4.8</ele>
        <time>2023-05-18T01:48:00Z</time>
      </trkpt>
      <trkpt lat="49.64054" lon="-1.2524">
        <ele>4.9</ele>
        <time>2023-05-18T01:48:03Z</time>
      </trkpt>
      <trkpt lat="49.64067" lon="-1.25217">
        <ele>4.9</ele>
        <time>2023-05-18T01:48:06Z</time>
      </trkpt>
      <trkpt lat="49.6408" lon="-1.25196">
        <ele>4.9</ele>
        <time>2023-05-18T01:48:09Z</time>
      </trkpt>
      <trkpt lat="49.64094" lon="-1.25174">
        <ele>4.8</ele>
        <time>2023-05-18T01:48:12Z</time>
      </trkpt>
      <trkpt lat="49.64109" lon="-1.25154">
        <ele>4.8</ele>
        <time>2023-05-18T01:48:15Z</time>
      </trkpt>
      <trkpt lat="49.64123" lon="-1.25133">
        <ele>4.8</ele>
        <time>2023-05-18T01:48:18Z</time>
      </trkpt>
      <trkpt lat="49.64138" lon="-1.25115">
        <ele>4.7</ele>
        <time>2023-05-18T01:48:21Z</time>
      </trkpt>
      <trkpt lat="49.64153" lon="-1.25096">
        <ele>4.8</ele>
        <time>2023-05-18T01:48:24Z</time>
      </trkpt>
      <trkpt lat="49.64173" lon="-1.25077">
        <ele>4.9</ele>
        <time>2023-05-18T01:48:28Z</time>
      </trkpt>
      <trkpt lat="49.64195" lon="-1.25061">
        <ele>4.9</ele>
        <time>2023-05-18T01:48:32Z</time>
      </trkpt>
      <trkpt lat="49.64213" lon="-1.25048">
        <ele>4.7</ele>
        <time>2023-05-18T01:48:35Z</time>
      </trkpt>
      <trkpt lat="49.6423" lon="-1.25034">
        <ele>4.5</ele>
        <time>2023-05-18T01:48:38Z</time>
      </trkpt>
      <trkpt lat="49.64249" lon="-1.2502">
        <ele>4.4</ele>
        <time>2023-05-18T01:48:41Z</time>
      </trkpt>
      <trkpt lat="49.64266" lon="-1.25006">
        <ele>4.3</ele>
        <time>2023-05-18T01:48:44Z</time>
      </trkpt>
      <trkpt lat="49.64282" lon="-1.24987">
        <ele>4.1</ele>
        <time>2023-05-18T01:48:47Z</time>
      </trkpt>
      <trkpt lat="49.64299" lon="-1.2497">
        <ele>4</ele>
        <time>2023-05-18T01:48:50Z</time>
      </trkpt>
      <trkpt lat="49.64316" lon="-1.24951">
        <ele>3.9</ele>
        <time>2023-05-18T01:48:53Z</time>
      </trkpt>
      <trkpt lat="49.64331" lon="-1.24933">
        <ele>3.8</ele>
        <time>2023-05-18T01:48:56Z</time>
      </trkpt>
      <trkpt lat="49.64346" lon="-1.24914">
        <ele>3.7</ele>
        <time>2023-05-18T01:48:59Z</time>
      </trkpt>
      <trkpt lat="49.64362" lon="-1.24898">
        <ele>3.6</ele>
        <time>2023-05-18T01:49:02Z</time>
      </trkpt>
      <trkpt lat="49.64382" lon="-1.24876">
        <ele>3.5</ele>
        <time>2023-05-18T01:49:06Z</time>
      </trkpt>
      <trkpt lat="49.64397" lon="-1.24859">
        <ele>3.6</ele>
        <time>2023-05-18T01:49:09Z</time>
      </trkpt>
      <trkpt lat="49.64413" lon="-1.24844">
        <ele>3.6</ele>
        <time>2023-05-18T01:49:12Z</time>
      </trkpt>
      <trkpt lat="49.64428" lon="-1.24829">
        <ele>3.7</ele>
        <time>2023-05-18T01:49:15Z</time>
      </trkpt>
      <trkpt lat="49.6445" lon="-1.24817">
        <ele>3.9</ele>
        <time>2023-05-18T01:49:19Z</time>
      </trkpt>
      <trkpt lat="49.64468" lon="-1.24812">
        <ele>4.2</ele>
        <time>2023-05-18T01:49:22Z</time>
      </trkpt>
      <trkpt lat="49.6449" lon="-1.24806">
        <ele>4.7</ele>
        <time>2023-05-18T01:49:26Z</time>
      </trkpt>
      <trkpt lat="49.6451" lon="-1.248">
        <ele>5.3</ele>
        <time>2023-05-18T01:49:30Z</time>
      </trkpt>
      <trkpt lat="49.64528" lon="-1.24786">
        <ele>5.9</ele>
        <time>2023-05-18T01:49:34Z</time>
      </trkpt>
      <trkpt lat="49.64544" lon="-1.24765">
        <ele>6.2</ele>
        <time>2023-05-18T01:49:38Z</time>
      </trkpt>
      <trkpt lat="49.64556" lon="-1.24735">
        <ele>6.1</ele>
        <time>2023-05-18T01:49:42Z</time>
      </trkpt>
      <trkpt lat="49.64565" lon="-1.24709">
        <ele>5.9</ele>
        <time>2023-05-18T01:49:45Z</time>
      </trkpt>
      <trkpt lat="49.64576" lon="-1.24684">
        <ele>5.7</ele>
        <time>2023-05-18T01:49:48Z</time>
      </trkpt>
      <trkpt lat="49.64587" lon="-1.24658">
        <ele>5.4</ele>
        <time>2023-05-18T01:49:51Z</time>
      </trkpt>
      <trkpt lat="49.64598" lon="-1.24632">
        <ele>5.1</ele>
        <time>2023-05-18T01:49:54Z</time>
      </trkpt>
      <trkpt lat="49.64609" lon="-1.24608">
        <ele>4.9</ele>
        <time>2023-05-18T01:49:57Z</time>
      </trkpt>
      <trkpt lat="49.64619" lon="-1.24583">
        <ele>4.7</ele>
        <time>2023-05-18T01:50:00Z</time>
      </trkpt>
      <trkpt lat="49.6463" lon="-1.24558">
        <ele>4.5</ele>
        <time>2023-05-18T01:50:03Z</time>
      </trkpt>
      <trkpt lat="49.64641" lon="-1.24533">
        <ele>4.4</ele>
        <time>2023-05-18T01:50:06Z</time>
      </trkpt>
      <trkpt lat="49.64654" lon="-1.24509">
        <ele>4.2</ele>
        <time>2023-05-18T01:50:09Z</time>
      </trkpt>
      <trkpt lat="49.64669" lon="-1.24489">
        <ele>4</ele>
        <time>2023-05-18T01:50:12Z</time>
      </trkpt>
      <trkpt lat="49.64684" lon="-1.24469">
        <ele>3.8</ele>
        <time>2023-05-18T01:50:15Z</time>
      </trkpt>
      <trkpt lat="49.647" lon="-1.24449">
        <ele>3.5</ele>
        <time>2023-05-18T01:50:18Z</time>
      </trkpt>
      <trkpt lat="49.64715" lon="-1.2443">
        <ele>3.3</ele>
        <time>2023-05-18T01:50:21Z</time>
      </trkpt>
      <trkpt lat="49.6473" lon="-1.2441">
        <ele>3</ele>
        <time>2023-05-18T01:50:24Z</time>
      </trkpt>
      <trkpt lat="49.64748" lon="-1.24389">
        <ele>2.7</ele>
        <time>2023-05-18T01:50:27Z</time>
      </trkpt>
      <trkpt lat="49.64765" lon="-1.2437">
        <ele>2.6</ele>
        <time>2023-05-18T01:50:30Z</time>
      </trkpt>
      <trkpt lat="49.64783" lon="-1.24362">
        <ele>2.5</ele>
        <time>2023-05-18T01:50:33Z</time>
      </trkpt>
      <trkpt lat="49.64803" lon="-1.24373">
        <ele>2.5</ele>
        <time>2023-05-18T01:50:36Z</time>
      </trkpt>
      <trkpt lat="49.64822" lon="-1.24385">
        <ele>2.6</ele>
        <time>2023-05-18T01:50:39Z</time>
      </trkpt>
      <trkpt lat="49.64841" lon="-1.24388">
        <ele>2.8</ele>
        <time>2023-05-18T01:50:42Z</time>
      </trkpt>
      <trkpt lat="49.64863" lon="-1.24385">
        <ele>3.2</ele>
        <time>2023-05-18T01:50:46Z</time>
      </trkpt>
      <trkpt lat="49.64883" lon="-1.24381">
        <ele>4</ele>
        <time>2023-05-18T01:50:50Z</time>
      </trkpt>
      <trkpt lat="49.64902" lon="-1.24392">
        <ele>5</ele>
        <time>2023-05-18T01:50:55Z</time>
      </trkpt>
      <trkpt lat="49.64916" lon="-1.24415">
        <ele>6.1</ele>
        <time>2023-05-18T01:51:01Z</time>
      </trkpt>
      <trkpt lat="49.64931" lon="-1.24438">
        <ele>7.2</ele>
        <time>2023-05-18T01:51:07Z</time>
      </trkpt>
      <trkpt lat="49.64949" lon="-1.2445">
        <ele>7.4</ele>
        <time>2023-05-18T01:51:12Z</time>
      </trkpt>
      <trkpt lat="49.64968" lon="-1.24464">
        <ele>7</ele>
        <time>2023-05-18T01:51:16Z</time>
      </trkpt>
      <trkpt lat="49.64985" lon="-1.24474">
        <ele>6.6</ele>
        <time>2023-05-18T01:51:19Z</time>
      </trkpt>
      <trkpt lat="49.65003" lon="-1.24486">
        <ele>6</ele>
        <time>2023-05-18T01:51:22Z</time>
      </trkpt>
      <trkpt lat="49.65022" lon="-1.245">
        <ele>5.5</ele>
        <time>2023-05-18T01:51:25Z</time>
      </trkpt>
      <trkpt lat="49.65042" lon="-1.24514">
        <ele>5.2</ele>
        <time>2023-05-18T01:51:28Z</time>
      </trkpt>
      <trkpt lat="49.65061" lon="-1.24526">
        <ele>5</ele>
        <time>2023-05-18T01:51:31Z</time>
      </trkpt>
      <trkpt lat="49.6508" lon="-1.24539">
        <ele>5</ele>
        <time>2023-05-18T01:51:34Z</time>
      </trkpt>
      <trkpt lat="49.65097" lon="-1.24555">
        <ele>5</ele>
        <time>2023-05-18T01:51:37Z</time>
      </trkpt>
      <trkpt lat="49.65114" lon="-1.24571">
        <ele>5</ele>
        <time>2023-05-18T01:51:40Z</time>
      </trkpt>
      <trkpt lat="49.6513" lon="-1.24587">
        <ele>5.2</ele>
        <time>2023-05-18T01:51:43Z</time>
      </trkpt>
      <trkpt lat="49.65146" lon="-1.24602">
        <ele>5.3</ele>
        <time>2023-05-18T01:51:46Z</time>
      </trkpt>
      <trkpt lat="49.65163" lon="-1.24623">
        <ele>5.4</ele>
        <time>2023-05-18T01:51:50Z</time>
      </trkpt>
      <trkpt lat="49.65182" lon="-1.24639">
        <ele>5.3</ele>
        <time>2023-05-18T01:51:54Z</time>
      </trkpt>
      <trkpt lat="49.65202" lon="-1.24654">
        <ele>5.1</ele>
        <time>2023-05-18T01:51:58Z</time>
      </trkpt>
      <trkpt lat="49.6522" lon="-1.24666">
        <ele>5.1</ele>
        <time>2023-05-18T01:52:02Z</time>
      </trkpt>
      <trkpt lat="49.65238" lon="-1.24678">
        <ele>5.2</ele>
        <time>2023-05-18T01:52:07Z</time>
      </trkpt>
      <trkpt lat="49.65257" lon="-1.24691">
        <ele>5.3</ele>
        <time>2023-05-18T01:52:59Z</time>
      </trkpt>
      <trkpt lat="49.65276" lon="-1.24705">
        <ele>5.7</ele>
        <time>2023-05-18T01:53:04Z</time>
      </trkpt>
      <trkpt lat="49.65296" lon="-1.24719">
        <ele>6.2</ele>
        <time>2023-05-18T01:53:09Z</time>
      </trkpt>
      <trkpt lat="49.65313" lon="-1.24731">
        <ele>6.6</ele>
        <time>2023-05-18T01:53:14Z</time>
      </trkpt>
      <trkpt lat="49.65331" lon="-1.24744">
        <ele>6.8</ele>
        <time>2023-05-18T01:53:19Z</time>
      </trkpt>
      <trkpt lat="49.65351" lon="-1.24756">
        <ele>7</ele>
        <time>2023-05-18T01:53:23Z</time>
      </trkpt>
      <trkpt lat="49.65371" lon="-1.24767">
        <ele>7.1</ele>
        <time>2023-05-18T01:53:27Z</time>
      </trkpt>
      <trkpt lat="49.65391" lon="-1.24779">
        <ele>6.9</ele>
        <time>2023-05-18T01:53:31Z</time>
      </trkpt>
      <trkpt lat="49.65412" lon="-1.24792">
        <ele>6.3</ele>
        <time>2023-05-18T01:53:35Z</time>
      </trkpt>
      <trkpt lat="49.65431" lon="-1.24802">
        <ele>5.9</ele>
        <time>2023-05-18T01:53:38Z</time>
      </trkpt>
      <trkpt lat="49.65451" lon="-1.2481">
        <ele>5.6</ele>
        <time>2023-05-18T01:53:41Z</time>
      </trkpt>
      <trkpt lat="49.65471" lon="-1.24818">
        <ele>5.4</ele>
        <time>2023-05-18T01:53:44Z</time>
      </trkpt>
      <trkpt lat="49.6549" lon="-1.24825">
        <ele>5.4</ele>
        <time>2023-05-18T01:53:47Z</time>
      </trkpt>
      <trkpt lat="49.65508" lon="-1.24834">
        <ele>5.5</ele>
        <time>2023-05-18T01:53:50Z</time>
      </trkpt>
      <trkpt lat="49.65527" lon="-1.24843">
        <ele>5.6</ele>
        <time>2023-05-18T01:53:53Z</time>
      </trkpt>
      <trkpt lat="49.65545" lon="-1.24853">
        <ele>5.9</ele>
        <time>2023-05-18T01:53:56Z</time>
      </trkpt>
      <trkpt lat="49.65562" lon="-1.24863">
        <ele>6.1</ele>
        <time>2023-05-18T01:53:59Z</time>
      </trkpt>
      <trkpt lat="49.65584" lon="-1.24874">
        <ele>6.4</ele>
        <time>2023-05-18T01:54:03Z</time>
      </trkpt>
      <trkpt lat="49.65605" lon="-1.24882">
        <ele>6.5</ele>
        <time>2023-05-18T01:54:07Z</time>
      </trkpt>
      <trkpt lat="49.65628" lon="-1.24891">
        <ele>6.6</ele>
        <time>2023-05-18T01:54:11Z</time>
      </trkpt>
      <trkpt lat="49.6565" lon="-1.24897">
        <ele>6.8</ele>
        <time>2023-05-18T01:54:15Z</time>
      </trkpt>
      <trkpt lat="49.65672" lon="-1.24902">
        <ele>6.8</ele>
        <time>2023-05-18T01:54:19Z</time>
      </trkpt>
      <trkpt lat="49.65689" lon="-1.24909">
        <ele>6.6</ele>
        <time>2023-05-18T01:54:22Z</time>
      </trkpt>
      <trkpt lat="49.65708" lon="-1.24918">
        <ele>6.3</ele>
        <time>2023-05-18T01:54:25Z</time>
      </trkpt>
      <trkpt lat="49.65725" lon="-1.24931">
        <ele>5.9</ele>
        <time>2023-05-18T01:54:28Z</time>
      </trkpt>
      <trkpt lat="49.65743" lon="-1.24947">
        <ele>5.6</ele>
        <time>2023-05-18T01:54:31Z</time>
      </trkpt>
      <trkpt lat="49.65761" lon="-1.24966">
        <ele>5.1</ele>
        <time>2023-05-18T01:54:34Z</time>
      </trkpt>
      <trkpt lat="49.65778" lon="-1.24988">
        <ele>4.8</ele>
        <time>2023-05-18T01:54:37Z</time>
      </trkpt>
      <trkpt lat="49.65792" lon="-1.25011">
        <ele>4.7</ele>
        <time>2023-05-18T01:54:40Z</time>
      </trkpt>
      <trkpt lat="49.65805" lon="-1.25036">
        <ele>4.7</ele>
        <time>2023-05-18T01:54:43Z</time>
      </trkpt>
      <trkpt lat="49.65816" lon="-1.2506">
        <ele>4.8</ele>
        <time>2023-05-18T01:54:46Z</time>
      </trkpt>
      <trkpt lat="49.65825" lon="-1.25086">
        <ele>5</ele>
        <time>2023-05-18T01:54:49Z</time>
      </trkpt>
      <trkpt lat="49.65834" lon="-1.2512">
        <ele>5.3</ele>
        <time>2023-05-18T01:54:53Z</time>
      </trkpt>
      <trkpt lat="49.65843" lon="-1.25153">
        <ele>5.6</ele>
        <time>2023-05-18T01:54:57Z</time>
      </trkpt>
      <trkpt lat="49.6585" lon="-1.25185">
        <ele>5.9</ele>
        <time>2023-05-18T01:55:01Z</time>
      </trkpt>
      <trkpt lat="49.65859" lon="-1.25217">
        <ele>6.2</ele>
        <time>2023-05-18T01:55:05Z</time>
      </trkpt>
      <trkpt lat="49.65867" lon="-1.25247">
        <ele>6.3</ele>
        <time>2023-05-18T01:55:09Z</time>
      </trkpt>
      <trkpt lat="49.65875" lon="-1.2528">
        <ele>6.4</ele>
        <time>2023-05-18T01:55:13Z</time>
      </trkpt>
      <trkpt lat="49.65883" lon="-1.25314">
        <ele>6.4</ele>
        <time>2023-05-18T01:55:17Z</time>
      </trkpt>
      <trkpt lat="49.65894" lon="-1.25345">
        <ele>6.3</ele>
        <time>2023-05-18T01:55:21Z</time>
      </trkpt>
      <trkpt lat="49.65904" lon="-1.25369">
        <ele>6.2</ele>
        <time>2023-05-18T01:55:24Z</time>
      </trkpt>
      <trkpt lat="49.65914" lon="-1.25392">
        <ele>6.1</ele>
        <time>2023-05-18T01:55:27Z</time>
      </trkpt>
      <trkpt lat="49.65926" lon="-1.25413">
        <ele>5.9</ele>
        <time>2023-05-18T01:55:30Z</time>
      </trkpt>
      <trkpt lat="49.6594" lon="-1.25433">
        <ele>5.8</ele>
        <time>2023-05-18T01:55:33Z</time>
      </trkpt>
      <trkpt lat="49.65958" lon="-1.25453">
        <ele>5.5</ele>
        <time>2023-05-18T01:55:37Z</time>
      </trkpt>
      <trkpt lat="49.65973" lon="-1.2547">
        <ele>5.4</ele>
        <time>2023-05-18T01:55:40Z</time>
      </trkpt>
      <trkpt lat="49.65989" lon="-1.25484">
        <ele>5.3</ele>
        <time>2023-05-18T01:55:43Z</time>
      </trkpt>
      <trkpt lat="49.66006" lon="-1.25497">
        <ele>5.2</ele>
        <time>2023-05-18T01:55:46Z</time>
      </trkpt>
      <trkpt lat="49.66023" lon="-1.2551">
        <ele>5.1</ele>
        <time>2023-05-18T01:55:49Z</time>
      </trkpt>
      <trkpt lat="49.6604" lon="-1.25523">
        <ele>5</ele>
        <time>2023-05-18T01:55:52Z</time>
      </trkpt>
      <trkpt lat="49.66058" lon="-1.25535">
        <ele>5</ele>
        <time>2023-05-18T01:55:55Z</time>
      </trkpt>
      <trkpt lat="49.66074" lon="-1.25546">
        <ele>4.9</ele>
        <time>2023-05-18T01:55:58Z</time>
      </trkpt>
      <trkpt lat="49.66092" lon="-1.25557">
        <ele>4.7</ele>
        <time>2023-05-18T01:56:01Z</time>
      </trkpt>
      <trkpt lat="49.6611" lon="-1.25566">
        <ele>4.5</ele>
        <time>2023-05-18T01:56:04Z</time>
      </trkpt>
      <trkpt lat="49.66129" lon="-1.25576">
        <ele>4.3</ele>
        <time>2023-05-18T01:56:07Z</time>
      </trkpt>
      <trkpt lat="49.66148" lon="-1.25584">
        <ele>4.2</ele>
        <time>2023-05-18T01:56:10Z</time>
      </trkpt>
      <trkpt lat="49.66167" lon="-1.2559">
        <ele>4.3</ele>
        <time>2023-05-18T01:56:13Z</time>
      </trkpt>
      <trkpt lat="49.66185" lon="-1.256">
        <ele>4.5</ele>
        <time>2023-05-18T01:56:16Z</time>
      </trkpt>
      <trkpt lat="49.66207" lon="-1.2561">
        <ele>5</ele>
        <time>2023-05-18T01:56:20Z</time>
      </trkpt>
      <trkpt lat="49.66227" lon="-1.25619">
        <ele>5.5</ele>
        <time>2023-05-18T01:56:24Z</time>
      </trkpt>
      <trkpt lat="49.66247" lon="-1.2563">
        <ele>6.1</ele>
        <time>2023-05-18T01:56:28Z</time>
      </trkpt>
      <trkpt lat="49.66265" lon="-1.25641">
        <ele>6.4</ele>
        <time>2023-05-18T01:56:32Z</time>
      </trkpt>
      <trkpt lat="49.66283" lon="-1.25653">
        <ele>6.6</ele>
        <time>2023-05-18T01:56:36Z</time>
      </trkpt>
      <trkpt lat="49.66303" lon="-1.25665">
        <ele>6.8</ele>
        <time>2023-05-18T01:56:40Z</time>
      </trkpt>
      <trkpt lat="49.66323" lon="-1.25676">
        <ele>6.8</ele>
        <time>2023-05-18T01:56:44Z</time>
      </trkpt>
      <trkpt lat="49.66343" lon="-1.25689">
        <ele>6.8</ele>
        <time>2023-05-18T01:56:48Z</time>
      </trkpt>
      <trkpt lat="49.66362" lon="-1.25704">
        <ele>6.8</ele>
        <time>2023-05-18T01:56:52Z</time>
      </trkpt>
      <trkpt lat="49.66381" lon="-1.25719">
        <ele>6.7</ele>
        <time>2023-05-18T01:56:56Z</time>
      </trkpt>
      <trkpt lat="49.66401" lon="-1.25737">
        <ele>6.6</ele>
        <time>2023-05-18T01:57:00Z</time>
      </trkpt>
      <trkpt lat="49.66421" lon="-1.25753">
        <ele>6.5</ele>
        <time>2023-05-18T01:57:04Z</time>
      </trkpt>
      <trkpt lat="49.66442" lon="-1.25767">
        <ele>6.2</ele>
        <time>2023-05-18T01:57:08Z</time>
      </trkpt>
      <trkpt lat="49.66464" lon="-1.25782">
        <ele>6</ele>
        <time>2023-05-18T01:57:12Z</time>
      </trkpt>
      <trkpt lat="49.6648" lon="-1.25792">
        <ele>5.7</ele>
        <time>2023-05-18T01:57:15Z</time>
      </trkpt>
      <trkpt lat="49.66497" lon="-1.25804">
        <ele>5.5</ele>
        <time>2023-05-18T01:57:18Z</time>
      </trkpt>
      <trkpt lat="49.66514" lon="-1.25815">
        <ele>5.4</ele>
        <time>2023-05-18T01:57:21Z</time>
      </trkpt>
      <trkpt lat="49.66531" lon="-1.25825">
        <ele>5.3</ele>
        <time>2023-05-18T01:57:24Z</time>
      </trkpt>
      <trkpt lat="49.66553" lon="-1.25837">
        <ele>5.2</ele>
        <time>2023-05-18T01:57:28Z</time>
      </trkpt>
      <trkpt lat="49.66575" lon="-1.25846">
        <ele>5</ele>
        <time>2023-05-18T01:57:32Z</time>
      </trkpt>
      <trkpt lat="49.66597" lon="-1.25861">
        <ele>4.8</ele>
        <time>2023-05-18T01:57:36Z</time>
      </trkpt>
      <trkpt lat="49.66617" lon="-1.25879">
        <ele>4.6</ele>
        <time>2023-05-18T01:57:40Z</time>
      </trkpt>
      <trkpt lat="49.66632" lon="-1.25894">
        <ele>4.5</ele>
        <time>2023-05-18T01:57:43Z</time>
      </trkpt>
      <trkpt lat="49.66651" lon="-1.25916">
        <ele>4.4</ele>
        <time>2023-05-18T01:57:47Z</time>
      </trkpt>
      <trkpt lat="49.6667" lon="-1.25937">
        <ele>4.3</ele>
        <time>2023-05-18T01:57:51Z</time>
      </trkpt>
      <trkpt lat="49.66683" lon="-1.25956">
        <ele>4.2</ele>
        <time>2023-05-18T01:57:54Z</time>
      </trkpt>
      <trkpt lat="49.667" lon="-1.25983">
        <ele>3.9</ele>
        <time>2023-05-18T01:57:58Z</time>
      </trkpt>
      <trkpt lat="49.66712" lon="-1.26006">
        <ele>3.8</ele>
        <time>2023-05-18T01:58:01Z</time>
      </trkpt>
      <trkpt lat="49.6672" lon="-1.26031">
        <ele>3.6</ele>
        <time>2023-05-18T01:58:04Z</time>
      </trkpt>
      <trkpt lat="49.66741" lon="-1.26044">
        <ele>3.4</ele>
        <time>2023-05-18T01:58:08Z</time>
      </trkpt>
      <trkpt lat="49.66764" lon="-1.26047">
        <ele>3.3</ele>
        <time>2023-05-18T01:58:12Z</time>
      </trkpt>
      <trkpt lat="49.6678" lon="-1.26063">
        <ele>3.2</ele>
        <time>2023-05-18T01:58:15Z</time>
      </trkpt>
      <trkpt lat="49.66786" lon="-1.26098">
        <ele>3</ele>
        <time>2023-05-18T01:58:19Z</time>
      </trkpt>
      <trkpt lat="49.66786" lon="-1.26127">
        <ele>2.8</ele>
        <time>2023-05-18T01:58:22Z</time>
      </trkpt>
      <trkpt lat="49.66787" lon="-1.26158">
        <ele>2.6</ele>
        <time>2023-05-18T01:58:25Z</time>
      </trkpt>
      <trkpt lat="49.66787" lon="-1.26187">
        <ele>2.5</ele>
        <time>2023-05-18T01:58:28Z</time>
      </trkpt>
      <trkpt lat="49.66788" lon="-1.26217">
        <ele>2.3</ele>
        <time>2023-05-18T01:58:31Z</time>
      </trkpt>
      <trkpt lat="49.66793" lon="-1.26248">
        <ele>2.2</ele>
        <time>2023-05-18T01:58:34Z</time>
      </trkpt>
      <trkpt lat="49.668" lon="-1.26285">
        <ele>2</ele>
        <time>2023-05-18T01:58:38Z</time>
      </trkpt>
      <trkpt lat="49.66806" lon="-1.26313">
        <ele>1.9</ele>
        <time>2023-05-18T01:58:41Z</time>
      </trkpt>
      <trkpt lat="49.66813" lon="-1.26342">
        <ele>1.9</ele>
        <time>2023-05-18T01:58:44Z</time>
      </trkpt>
      <trkpt lat="49.66822" lon="-1.26368">
        <ele>2</ele>
        <time>2023-05-18T01:58:47Z</time>
      </trkpt>
      <trkpt lat="49.6684" lon="-1.26378">
        <ele>2.2</ele>
        <time>2023-05-18T01:58:51Z</time>
      </trkpt>
      <trkpt lat="49.6686" lon="-1.26372">
        <ele>2.3</ele>
        <time>2023-05-18T01:58:55Z</time>
      </trkpt>
      <trkpt lat="49.66879" lon="-1.26359">
        <ele>2.4</ele>
        <time>2023-05-18T01:58:59Z</time>
      </trkpt>
      <trkpt lat="49.66899" lon="-1.26345">
        <ele>2.5</ele>
        <time>2023-05-18T01:59:03Z</time>
      </trkpt>
      <trkpt lat="49.66919" lon="-1.26337">
        <ele>2.5</ele>
        <time>2023-05-18T01:59:07Z</time>
      </trkpt>
      <trkpt lat="49.66942" lon="-1.26339">
        <ele>2.5</ele>
        <time>2023-05-18T01:59:11Z</time>
      </trkpt>
      <trkpt lat="49.66963" lon="-1.2634">
        <ele>2.6</ele>
        <time>2023-05-18T01:59:15Z</time>
      </trkpt>
      <trkpt lat="49.66985" lon="-1.26342">
        <ele>2.5</ele>
        <time>2023-05-18T01:59:19Z</time>
      </trkpt>
      <trkpt lat="49.67006" lon="-1.26342">
        <ele>2.5</ele>
        <time>2023-05-18T01:59:23Z</time>
      </trkpt>
      <trkpt lat="49.67026" lon="-1.26345">
        <ele>2.5</ele>
        <time>2023-05-18T01:59:27Z</time>
      </trkpt>
      <trkpt lat="49.67044" lon="-1.26348">
        <ele>2.6</ele>
        <time>2023-05-18T01:59:31Z</time>
      </trkpt>
      <trkpt lat="49.67063" lon="-1.26346">
        <ele>2.6</ele>
        <time>2023-05-18T01:59:35Z</time>
      </trkpt>
      <trkpt lat="49.67082" lon="-1.26344">
        <ele>2.6</ele>
        <time>2023-05-18T01:59:40Z</time>
      </trkpt>
      <trkpt lat="49.67103" lon="-1.2634">
        <ele>2.5</ele>
        <time>2023-05-18T01:59:46Z</time>
      </trkpt>
      <trkpt lat="49.67086" lon="-1.26348">
        <ele>2.6</ele>
        <time>2023-05-18T02:00:40Z</time>
      </trkpt>
      <trkpt lat="49.67068" lon="-1.26354">
        <ele>2.6</ele>
        <time>2023-05-18T02:00:45Z</time>
      </trkpt>
      <trkpt lat="49.67053" lon="-1.26371">
        <ele>2.8</ele>
        <time>2023-05-18T02:00:50Z</time>
      </trkpt>
      <trkpt lat="49.6704" lon="-1.26398">
        <ele>3</ele>
        <time>2023-05-18T02:00:55Z</time>
      </trkpt>
      <trkpt lat="49.6703" lon="-1.26424">
        <ele>3.3</ele>
        <time>2023-05-18T02:01:00Z</time>
      </trkpt>
      <trkpt lat="49.67018" lon="-1.26449">
        <ele>3.5</ele>
        <time>2023-05-18T02:01:05Z</time>
      </trkpt>
      <trkpt lat="49.67005" lon="-1.26478">
        <ele>3.6</ele>
        <time>2023-05-18T02:01:10Z</time>
      </trkpt>
      <trkpt lat="49.66995" lon="-1.26502">
        <ele>3.8</ele>
        <time>2023-05-18T02:01:14Z</time>
      </trkpt>
      <trkpt lat="49.66985" lon="-1.26528">
        <ele>4</ele>
        <time>2023-05-18T02:01:18Z</time>
      </trkpt>
      <trkpt lat="49.66976" lon="-1.26557">
        <ele>4.3</ele>
        <time>2023-05-18T02:01:23Z</time>
      </trkpt>
      <trkpt lat="49.6699" lon="-1.26582">
        <ele>3.7</ele>
        <time>2023-05-18T02:01:28Z</time>
      </trkpt>
      <trkpt lat="49.67003" lon="-1.26608">
        <ele>3.3</ele>
        <time>2023-05-18T02:01:32Z</time>
      </trkpt>
      <trkpt lat="49.67016" lon="-1.26635">
        <ele>3.2</ele>
        <time>2023-05-18T02:01:36Z</time>
      </trkpt>
      <trkpt lat="49.6703" lon="-1.26659">
        <ele>3.4</ele>
        <time>2023-05-18T02:01:40Z</time>
      </trkpt>
      <trkpt lat="49.67044" lon="-1.26683">
        <ele>3.9</ele>
        <time>2023-05-18T02:01:44Z</time>
      </trkpt>
      <trkpt lat="49.6706" lon="-1.26703">
        <ele>4.1</ele>
        <time>2023-05-18T02:01:48Z</time>
      </trkpt>
      <trkpt lat="49.67072" lon="-1.26725">
        <ele>4.1</ele>
        <time>2023-05-18T02:01:52Z</time>
      </trkpt>
      <trkpt lat="49.67088" lon="-1.26747">
        <ele>4.2</ele>
        <time>2023-05-18T02:01:56Z</time>
      </trkpt>
      <trkpt lat="49.67105" lon="-1.26762">
        <ele>4.3</ele>
        <time>2023-05-18T02:02:00Z</time>
      </trkpt>
      <trkpt lat="49.67123" lon="-1.26779">
        <ele>4.4</ele>
        <time>2023-05-18T02:02:04Z</time>
      </trkpt>
      <trkpt lat="49.6714" lon="-1.26797">
        <ele>4.5</ele>
        <time>2023-05-18T02:02:08Z</time>
      </trkpt>
      <trkpt lat="49.67158" lon="-1.26815">
        <ele>4.5</ele>
        <time>2023-05-18T02:02:12Z</time>
      </trkpt>
      <trkpt lat="49.67178" lon="-1.26834">
        <ele>4.5</ele>
        <time>2023-05-18T02:02:16Z</time>
      </trkpt>
      <trkpt lat="49.67196" lon="-1.26852">
        <ele>4.4</ele>
        <time>2023-05-18T02:02:20Z</time>
      </trkpt>
      <trkpt lat="49.67214" lon="-1.26875">
        <ele>4.2</ele>
        <time>2023-05-18T02:02:24Z</time>
      </trkpt>
      <trkpt lat="49.67229" lon="-1.26903">
        <ele>4.1</ele>
        <time>2023-05-18T02:02:28Z</time>
      </trkpt>
      <trkpt lat="49.67244" lon="-1.2693">
        <ele>4.1</ele>
        <time>2023-05-18T02:02:32Z</time>
      </trkpt>
      <trkpt lat="49.67254" lon="-1.26954">
        <ele>4</ele>
        <time>2023-05-18T02:02:35Z</time>
      </trkpt>
      <trkpt lat="49.67268" lon="-1.26982">
        <ele>4.1</ele>
        <time>2023-05-18T02:02:39Z</time>
      </trkpt>
      <trkpt lat="49.67281" lon="-1.27009">
        <ele>4.6</ele>
        <time>2023-05-18T02:02:43Z</time>
      </trkpt>
      <trkpt lat="49.67295" lon="-1.27033">
        <ele>5.4</ele>
        <time>2023-05-18T02:02:47Z</time>
      </trkpt>
      <trkpt lat="49.67309" lon="-1.27052">
        <ele>6.4</ele>
        <time>2023-05-18T02:02:51Z</time>
      </trkpt>
      <trkpt lat="49.67327" lon="-1.27067">
        <ele>7.6</ele>
        <time>2023-05-18T02:02:56Z</time>
      </trkpt>
      <trkpt lat="49.67344" lon="-1.27076">
        <ele>8.4</ele>
        <time>2023-05-18T02:03:01Z</time>
      </trkpt>
      <trkpt lat="49.67367" lon="-1.27082">
        <ele>8.7</ele>
        <time>2023-05-18T02:03:06Z</time>
      </trkpt>
      <trkpt lat="49.67386" lon="-1.27086">
        <ele>8.7</ele>
        <time>2023-05-18T02:03:10Z</time>
      </trkpt>
      <trkpt lat="49.67407" lon="-1.2709">
        <ele>8.6</ele>
        <time>2023-05-18T02:03:14Z</time>
      </trkpt>
      <trkpt lat="49.67428" lon="-1.27096">
        <ele>8.7</ele>
        <time>2023-05-18T02:03:18Z</time>
      </trkpt>
      <trkpt lat="49.67448" lon="-1.27102">
        <ele>8.9</ele>
        <time>2023-05-18T02:03:22Z</time>
      </trkpt>
      <trkpt lat="49.67468" lon="-1.27112">
        <ele>9</ele>
        <time>2023-05-18T02:03:26Z</time>
      </trkpt>
      <trkpt lat="49.67487" lon="-1.27122">
        <ele>9</ele>
        <time>2023-05-18T02:03:30Z</time>
      </trkpt>
      <trkpt lat="49.67507" lon="-1.27135">
        <ele>8.6</ele>
        <time>2023-05-18T02:03:34Z</time>
      </trkpt>
      <trkpt lat="49.67528" lon="-1.27152">
        <ele>8</ele>
        <time>2023-05-18T02:03:38Z</time>
      </trkpt>
      <trkpt lat="49.67547" lon="-1.27166">
        <ele>7.5</ele>
        <time>2023-05-18T02:03:41Z</time>
      </trkpt>
      <trkpt lat="49.67567" lon="-1.27179">
        <ele>7</ele>
        <time>2023-05-18T02:03:44Z</time>
      </trkpt>
      <trkpt lat="49.67585" lon="-1.27192">
        <ele>6.5</ele>
        <time>2023-05-18T02:03:47Z</time>
      </trkpt>
      <trkpt lat="49.67605" lon="-1.27203">
        <ele>6</ele>
        <time>2023-05-18T02:03:50Z</time>
      </trkpt>
      <trkpt lat="49.67625" lon="-1.2721">
        <ele>5.6</ele>
        <time>2023-05-18T02:03:53Z</time>
      </trkpt>
      <trkpt lat="49.67645" lon="-1.27215">
        <ele>5.3</ele>
        <time>2023-05-18T02:03:56Z</time>
      </trkpt>
      <trkpt lat="49.67666" lon="-1.27217">
        <ele>5</ele>
        <time>2023-05-18T02:03:59Z</time>
      </trkpt>
      <trkpt lat="49.67687" lon="-1.27218">
        <ele>4.6</ele>
        <time>2023-05-18T02:04:02Z</time>
      </trkpt>
      <trkpt lat="49.67707" lon="-1.27219">
        <ele>4.3</ele>
        <time>2023-05-18T02:04:05Z</time>
      </trkpt>
      <trkpt lat="49.67728" lon="-1.27218">
        <ele>3.9</ele>
        <time>2023-05-18T02:04:08Z</time>
      </trkpt>
      <trkpt lat="49.67748" lon="-1.27218">
        <ele>3.7</ele>
        <time>2023-05-18T02:04:11Z</time>
      </trkpt>
      <trkpt lat="49.67768" lon="-1.27219">
        <ele>3.5</ele>
        <time>2023-05-18T02:04:14Z</time>
      </trkpt>
      <trkpt lat="49.67787" lon="-1.27222">
        <ele>3.5</ele>
        <time>2023-05-18T02:04:17Z</time>
      </trkpt>
      <trkpt lat="49.67807" lon="-1.27228">
        <ele>3.3</ele>
        <time>2023-05-18T02:04:20Z</time>
      </trkpt>
      <trkpt lat="49.67825" lon="-1.27236">
        <ele>3.2</ele>
        <time>2023-05-18T02:04:23Z</time>
      </trkpt>
      <trkpt lat="49.67842" lon="-1.27249">
        <ele>3</ele>
        <time>2023-05-18T02:04:26Z</time>
      </trkpt>
      <trkpt lat="49.67859" lon="-1.27262">
        <ele>2.9</ele>
        <time>2023-05-18T02:04:29Z</time>
      </trkpt>
      <trkpt lat="49.67876" lon="-1.27278">
        <ele>2.8</ele>
        <time>2023-05-18T02:04:32Z</time>
      </trkpt>
      <trkpt lat="49.67893" lon="-1.27292">
        <ele>2.6</ele>
        <time>2023-05-18T02:04:35Z</time>
      </trkpt>
      <trkpt lat="49.6791" lon="-1.27308">
        <ele>2.5</ele>
        <time>2023-05-18T02:04:38Z</time>
      </trkpt>
      <trkpt lat="49.67926" lon="-1.27323">
        <ele>2.2</ele>
        <time>2023-05-18T02:04:41Z</time>
      </trkpt>
      <trkpt lat="49.67944" lon="-1.27339">
        <ele>2.1</ele>
        <time>2023-05-18T02:04:44Z</time>
      </trkpt>
      <trkpt lat="49.67961" lon="-1.27355">
        <ele>2.1</ele>
        <time>2023-05-18T02:04:47Z</time>
      </trkpt>
      <trkpt lat="49.67976" lon="-1.27371">
        <ele>2.3</ele>
        <time>2023-05-18T02:04:50Z</time>
      </trkpt>
      <trkpt lat="49.67995" lon="-1.27392">
        <ele>2.6</ele>
        <time>2023-05-18T02:04:54Z</time>
      </trkpt>
      <trkpt lat="49.68012" lon="-1.27413">
        <ele>2.9</ele>
        <time>2023-05-18T02:04:58Z</time>
      </trkpt>
      <trkpt lat="49.68028" lon="-1.27434">
        <ele>3.1</ele>
        <time>2023-05-18T02:05:02Z</time>
      </trkpt>
      <trkpt lat="49.68044" lon="-1.27452">
        <ele>3.3</ele>
        <time>2023-05-18T02:05:06Z</time>
      </trkpt>
      <trkpt lat="49.6806" lon="-1.27475">
        <ele>3.5</ele>
        <time>2023-05-18T02:05:10Z</time>
      </trkpt>
      <trkpt lat="49.68075" lon="-1.27496">
        <ele>3.7</ele>
        <time>2023-05-18T02:05:14Z</time>
      </trkpt>
      <trkpt lat="49.68091" lon="-1.27517">
        <ele>3.9</ele>
        <time>2023-05-18T02:05:18Z</time>
      </trkpt>
      <trkpt lat="49.68105" lon="-1.27538">
        <ele>4.1</ele>
        <time>2023-05-18T02:05:22Z</time>
      </trkpt>
      <trkpt lat="49.6812" lon="-1.2756">
        <ele>4.3</ele>
        <time>2023-05-18T02:05:26Z</time>
      </trkpt>
      <trkpt lat="49.68136" lon="-1.27581">
        <ele>4.2</ele>
        <time>2023-05-18T02:05:30Z</time>
      </trkpt>
      <trkpt lat="49.68152" lon="-1.27601">
        <ele>4.1</ele>
        <time>2023-05-18T02:05:34Z</time>
      </trkpt>
      <trkpt lat="49.68168" lon="-1.27623">
        <ele>4</ele>
        <time>2023-05-18T02:05:38Z</time>
      </trkpt>
      <trkpt lat="49.68184" lon="-1.27645">
        <ele>3.8</ele>
        <time>2023-05-18T02:05:42Z</time>
      </trkpt>
      <trkpt lat="49.682" lon="-1.27669">
        <ele>3.6</ele>
        <time>2023-05-18T02:05:46Z</time>
      </trkpt>
      <trkpt lat="49.68216" lon="-1.27692">
        <ele>3.6</ele>
        <time>2023-05-18T02:05:50Z</time>
      </trkpt>
      <trkpt lat="49.68232" lon="-1.27715">
        <ele>3.6</ele>
        <time>2023-05-18T02:05:54Z</time>
      </trkpt>
      <trkpt lat="49.68248" lon="-1.27739">
        <ele>3.7</ele>
        <time>2023-05-18T02:05:58Z</time>
      </trkpt>
      <trkpt lat="49.68262" lon="-1.27763">
        <ele>3.8</ele>
        <time>2023-05-18T02:06:02Z</time>
      </trkpt>
      <trkpt lat="49.68277" lon="-1.27787">
        <ele>3.9</ele>
        <time>2023-05-18T02:06:06Z</time>
      </trkpt>
      <trkpt lat="49.68292" lon="-1.27812">
        <ele>4.1</ele>
        <time>2023-05-18T02:06:10Z</time>
      </trkpt>
      <trkpt lat="49.68305" lon="-1.27839">
        <ele>4.3</ele>
        <time>2023-05-18T02:06:14Z</time>
      </trkpt>
      <trkpt lat="49.68318" lon="-1.27863">
        <ele>4.6</ele>
        <time>2023-05-18T02:06:18Z</time>
      </trkpt>
      <trkpt lat="49.68331" lon="-1.27887">
        <ele>4.9</ele>
        <time>2023-05-18T02:06:22Z</time>
      </trkpt>
      <trkpt lat="49.68342" lon="-1.27911">
        <ele>5.3</ele>
        <time>2023-05-18T02:06:26Z</time>
      </trkpt>
      <trkpt lat="49.68356" lon="-1.27937">
        <ele>5.9</ele>
        <time>2023-05-18T02:06:31Z</time>
      </trkpt>
      <trkpt lat="49.68367" lon="-1.27959">
        <ele>6.3</ele>
        <time>2023-05-18T02:06:35Z</time>
      </trkpt>
      <trkpt lat="49.6838" lon="-1.27983">
        <ele>6.4</ele>
        <time>2023-05-18T02:06:39Z</time>
      </trkpt>
      <trkpt lat="49.68394" lon="-1.2801">
        <ele>6.4</ele>
        <time>2023-05-18T02:06:43Z</time>
      </trkpt>
      <trkpt lat="49.68405" lon="-1.28033">
        <ele>6.3</ele>
        <time>2023-05-18T02:06:46Z</time>
      </trkpt>
      <trkpt lat="49.68417" lon="-1.28055">
        <ele>5.9</ele>
        <time>2023-05-18T02:06:49Z</time>
      </trkpt>
      <trkpt lat="49.68428" lon="-1.28077">
        <ele>5.5</ele>
        <time>2023-05-18T02:06:52Z</time>
      </trkpt>
      <trkpt lat="49.68438" lon="-1.28102">
        <ele>5.3</ele>
        <time>2023-05-18T02:06:55Z</time>
      </trkpt>
      <trkpt lat="49.68448" lon="-1.28126">
        <ele>5.2</ele>
        <time>2023-05-18T02:06:58Z</time>
      </trkpt>
      <trkpt lat="49.6846" lon="-1.28158">
        <ele>5.4</ele>
        <time>2023-05-18T02:07:02Z</time>
      </trkpt>
      <trkpt lat="49.6847" lon="-1.28188">
        <ele>5.8</ele>
        <time>2023-05-18T02:07:06Z</time>
      </trkpt>
      <trkpt lat="49.6848" lon="-1.28216">
        <ele>6.3</ele>
        <time>2023-05-18T02:07:10Z</time>
      </trkpt>
      <trkpt lat="49.68489" lon="-1.28243">
        <ele>6.9</ele>
        <time>2023-05-18T02:07:14Z</time>
      </trkpt>
      <trkpt lat="49.685" lon="-1.2827">
        <ele>7.5</ele>
        <time>2023-05-18T02:07:19Z</time>
      </trkpt>
      <trkpt lat="49.68508" lon="-1.28298">
        <ele>8.3</ele>
        <time>2023-05-18T02:07:24Z</time>
      </trkpt>
      <trkpt lat="49.68518" lon="-1.28327">
        <ele>9</ele>
        <time>2023-05-18T02:07:29Z</time>
      </trkpt>
      <trkpt lat="49.68523" lon="-1.2836">
        <ele>9.5</ele>
        <time>2023-05-18T02:07:34Z</time>
      </trkpt>
      <trkpt lat="49.68527" lon="-1.28389">
        <ele>9.7</ele>
        <time>2023-05-18T02:07:38Z</time>
      </trkpt>
      <trkpt lat="49.68531" lon="-1.28422">
        <ele>10</ele>
        <time>2023-05-18T02:07:43Z</time>
      </trkpt>
      <trkpt lat="49.68532" lon="-1.2845">
        <ele>10.3</ele>
        <time>2023-05-18T02:07:47Z</time>
      </trkpt>
      <trkpt lat="49.68532" lon="-1.28479">
        <ele>10.5</ele>
        <time>2023-05-18T02:07:51Z</time>
      </trkpt>
      <trkpt lat="49.68533" lon="-1.2851">
        <ele>10.6</ele>
        <time>2023-05-18T02:07:55Z</time>
      </trkpt>
      <trkpt lat="49.68534" lon="-1.28544">
        <ele>10.8</ele>
        <time>2023-05-18T02:08:00Z</time>
      </trkpt>
      <trkpt lat="49.68534" lon="-1.28573">
        <ele>11</ele>
        <time>2023-05-18T02:08:04Z</time>
      </trkpt>
      <trkpt lat="49.68534" lon="-1.28601">
        <ele>11.3</ele>
        <time>2023-05-18T02:08:08Z</time>
      </trkpt>
      <trkpt lat="49.68534" lon="-1.28636">
        <ele>11.6</ele>
        <time>2023-05-18T02:08:13Z</time>
      </trkpt>
      <trkpt lat="49.68535" lon="-1.28665">
        <ele>11.9</ele>
        <time>2023-05-18T02:08:17Z</time>
      </trkpt>
      <trkpt lat="49.68533" lon="-1.28699">
        <ele>12.3</ele>
        <time>2023-05-18T02:08:22Z</time>
      </trkpt>
      <trkpt lat="49.68534" lon="-1.28728">
        <ele>12.5</ele>
        <time>2023-05-18T02:08:26Z</time>
      </trkpt>
      <trkpt lat="49.68535" lon="-1.28756">
        <ele>12.8</ele>
        <time>2023-05-18T02:08:30Z</time>
      </trkpt>
      <trkpt lat="49.68535" lon="-1.28784">
        <ele>13.1</ele>
        <time>2023-05-18T02:08:34Z</time>
      </trkpt>
      <trkpt lat="49.68535" lon="-1.28812">
        <ele>13.5</ele>
        <time>2023-05-18T02:08:38Z</time>
      </trkpt>
      <trkpt lat="49.68534" lon="-1.2884">
        <ele>13.8</ele>
        <time>2023-05-18T02:08:42Z</time>
      </trkpt>
      <trkpt lat="49.6853" lon="-1.28874">
        <ele>14.1</ele>
        <time>2023-05-18T02:08:47Z</time>
      </trkpt>
      <trkpt lat="49.68525" lon="-1.28907">
        <ele>14.4</ele>
        <time>2023-05-18T02:08:52Z</time>
      </trkpt>
      <trkpt lat="49.68519" lon="-1.28937">
        <ele>14.7</ele>
        <time>2023-05-18T02:08:56Z</time>
      </trkpt>
      <trkpt lat="49.68516" lon="-1.28965">
        <ele>15</ele>
        <time>2023-05-18T02:09:00Z</time>
      </trkpt>
      <trkpt lat="49.6851" lon="-1.28998">
        <ele>15.3</ele>
        <time>2023-05-18T02:09:05Z</time>
      </trkpt>
      <trkpt lat="49.68504" lon="-1.29028">
        <ele>15.4</ele>
        <time>2023-05-18T02:09:10Z</time>
      </trkpt>
      <trkpt lat="49.685" lon="-1.29058">
        <ele>15.6</ele>
        <time>2023-05-18T02:09:14Z</time>
      </trkpt>
      <trkpt lat="49.68494" lon="-1.29086">
        <ele>15.8</ele>
        <time>2023-05-18T02:09:18Z</time>
      </trkpt>
      <trkpt lat="49.68489" lon="-1.29114">
        <ele>16.1</ele>
        <time>2023-05-18T02:09:22Z</time>
      </trkpt>
      <trkpt lat="49.68482" lon="-1.29141">
        <ele>16.3</ele>
        <time>2023-05-18T02:09:26Z</time>
      </trkpt>
      <trkpt lat="49.68477" lon="-1.29169">
        <ele>16.4</ele>
        <time>2023-05-18T02:09:30Z</time>
      </trkpt>
      <trkpt lat="49.68474" lon="-1.29198">
        <ele>16.6</ele>
        <time>2023-05-18T02:09:34Z</time>
      </trkpt>
      <trkpt lat="49.68473" lon="-1.29227">
        <ele>16.7</ele>
        <time>2023-05-18T02:09:38Z</time>
      </trkpt>
      <trkpt lat="49.68473" lon="-1.29256">
        <ele>16.6</ele>
        <time>2023-05-18T02:09:42Z</time>
      </trkpt>
      <trkpt lat="49.68474" lon="-1.29287">
        <ele>16.4</ele>
        <time>2023-05-18T02:09:46Z</time>
      </trkpt>
      <trkpt lat="49.68475" lon="-1.29317">
        <ele>16.1</ele>
        <time>2023-05-18T02:09:50Z</time>
      </trkpt>
      <trkpt lat="49.68474" lon="-1.29353">
        <ele>15.4</ele>
        <time>2023-05-18T02:09:54Z</time>
      </trkpt>
      <trkpt lat="49.68468" lon="-1.29388">
        <ele>14.5</ele>
        <time>2023-05-18T02:09:58Z</time>
      </trkpt>
      <trkpt lat="49.68463" lon="-1.29415">
        <ele>13.7</ele>
        <time>2023-05-18T02:10:01Z</time>
      </trkpt>
      <trkpt lat="49.68456" lon="-1.29447">
        <ele>12.9</ele>
        <time>2023-05-18T02:10:04Z</time>
      </trkpt>
      <trkpt lat="49.68453" lon="-1.29484">
        <ele>11.8</ele>
        <time>2023-05-18T02:10:07Z</time>
      </trkpt>
      <trkpt lat="49.68453" lon="-1.29522">
        <ele>11.1</ele>
        <time>2023-05-18T02:10:10Z</time>
      </trkpt>
      <trkpt lat="49.68454" lon="-1.2956">
        <ele>10.6</ele>
        <time>2023-05-18T02:10:13Z</time>
      </trkpt>
      <trkpt lat="49.68456" lon="-1.29596">
        <ele>10.2</ele>
        <time>2023-05-18T02:10:16Z</time>
      </trkpt>
      <trkpt lat="49.68457" lon="-1.29631">
        <ele>9.9</ele>
        <time>2023-05-18T02:10:19Z</time>
      </trkpt>
      <trkpt lat="49.68456" lon="-1.29664">
        <ele>9.7</ele>
        <time>2023-05-18T02:10:22Z</time>
      </trkpt>
      <trkpt lat="49.68455" lon="-1.29698">
        <ele>9.4</ele>
        <time>2023-05-18T02:10:25Z</time>
      </trkpt>
      <trkpt lat="49.68453" lon="-1.29732">
        <ele>9.3</ele>
        <time>2023-05-18T02:10:28Z</time>
      </trkpt>
      <trkpt lat="49.68452" lon="-1.29765">
        <ele>9.3</ele>
        <time>2023-05-18T02:10:31Z</time>
      </trkpt>
      <trkpt lat="49.6845" lon="-1.29796">
        <ele>9.4</ele>
        <time>2023-05-18T02:10:34Z</time>
      </trkpt>
      <trkpt lat="49.68449" lon="-1.29828">
        <ele>9.6</ele>
        <time>2023-05-18T02:10:37Z</time>
      </trkpt>
      <trkpt lat="49.68448" lon="-1.29857">
        <ele>9.8</ele>
        <time>2023-05-18T02:10:40Z</time>
      </trkpt>
      <trkpt lat="49.68446" lon="-1.29887">
        <ele>10</ele>
        <time>2023-05-18T02:10:43Z</time>
      </trkpt>
      <trkpt lat="49.68445" lon="-1.29917">
        <ele>10.2</ele>
        <time>2023-05-18T02:10:46Z</time>
      </trkpt>
      <trkpt lat="49.68443" lon="-1.29945">
        <ele>10.3</ele>
        <time>2023-05-18T02:10:49Z</time>
      </trkpt>
      <trkpt lat="49.68443" lon="-1.29974">
        <ele>10.5</ele>
        <time>2023-05-18T02:10:52Z</time>
      </trkpt>
      <trkpt lat="49.68441" lon="-1.3001">
        <ele>10.6</ele>
        <time>2023-05-18T02:10:56Z</time>
      </trkpt>
      <trkpt lat="49.68439" lon="-1.30041">
        <ele>10.6</ele>
        <time>2023-05-18T02:10:59Z</time>
      </trkpt>
      <trkpt lat="49.68438" lon="-1.30069">
        <ele>10.5</ele>
        <time>2023-05-18T02:11:02Z</time>
      </trkpt>
      <trkpt lat="49.68438" lon="-1.30099">
        <ele>10.4</ele>
        <time>2023-05-18T02:11:05Z</time>
      </trkpt>
      <trkpt lat="49.68439" lon="-1.30127">
        <ele>10.2</ele>
        <time>2023-05-18T02:11:08Z</time>
      </trkpt>
      <trkpt lat="49.6844" lon="-1.30158">
        <ele>9.9</ele>
        <time>2023-05-18T02:11:11Z</time>
      </trkpt>
      <trkpt lat="49.68441" lon="-1.30189">
        <ele>9.7</ele>
        <time>2023-05-18T02:11:14Z</time>
      </trkpt>
      <trkpt lat="49.6844" lon="-1.3022">
        <ele>9.5</ele>
        <time>2023-05-18T02:11:17Z</time>
      </trkpt>
      <trkpt lat="49.68439" lon="-1.30251">
        <ele>9.2</ele>
        <time>2023-05-18T02:11:20Z</time>
      </trkpt>
      <trkpt lat="49.68439" lon="-1.30281">
        <ele>9.1</ele>
        <time>2023-05-18T02:11:23Z</time>
      </trkpt>
      <trkpt lat="49.68439" lon="-1.30313">
        <ele>8.9</ele>
        <time>2023-05-18T02:11:26Z</time>
      </trkpt>
      <trkpt lat="49.6844" lon="-1.30342">
        <ele>8.8</ele>
        <time>2023-05-18T02:11:29Z</time>
      </trkpt>
      <trkpt lat="49.68439" lon="-1.30378">
        <ele>9.2</ele>
        <time>2023-05-18T02:11:33Z</time>
      </trkpt>
      <trkpt lat="49.68439" lon="-1.30414">
        <ele>9.8</ele>
        <time>2023-05-18T02:11:37Z</time>
      </trkpt>
      <trkpt lat="49.68437" lon="-1.30444">
        <ele>10.8</ele>
        <time>2023-05-18T02:11:41Z</time>
      </trkpt>
      <trkpt lat="49.68432" lon="-1.30477">
        <ele>12.1</ele>
        <time>2023-05-18T02:11:46Z</time>
      </trkpt>
      <trkpt lat="49.68427" lon="-1.30508">
        <ele>13.7</ele>
        <time>2023-05-18T02:11:52Z</time>
      </trkpt>
      <trkpt lat="49.68422" lon="-1.30537">
        <ele>15.1</ele>
        <time>2023-05-18T02:11:59Z</time>
      </trkpt>
      <trkpt lat="49.68414" lon="-1.30563">
        <ele>16.4</ele>
        <time>2023-05-18T02:12:05Z</time>
      </trkpt>
      <trkpt lat="49.68406" lon="-1.30589">
        <ele>17.6</ele>
        <time>2023-05-18T02:12:12Z</time>
      </trkpt>
      <trkpt lat="49.68397" lon="-1.30618">
        <ele>18.7</ele>
        <time>2023-05-18T02:12:19Z</time>
      </trkpt>
      <trkpt lat="49.68388" lon="-1.30644">
        <ele>19.4</ele>
        <time>2023-05-18T02:12:25Z</time>
      </trkpt>
      <trkpt lat="49.68379" lon="-1.30674">
        <ele>20.1</ele>
        <time>2023-05-18T02:12:31Z</time>
      </trkpt>
      <trkpt lat="49.68373" lon="-1.30705">
        <ele>20.4</ele>
        <time>2023-05-18T02:12:37Z</time>
      </trkpt>
      <trkpt lat="49.6837" lon="-1.30737">
        <ele>20.5</ele>
        <time>2023-05-18T02:12:42Z</time>
      </trkpt>
      <trkpt lat="49.68366" lon="-1.30768">
        <ele>20.4</ele>
        <time>2023-05-18T02:12:47Z</time>
      </trkpt>
      <trkpt lat="49.68363" lon="-1.30803">
        <ele>20.1</ele>
        <time>2023-05-18T02:12:52Z</time>
      </trkpt>
      <trkpt lat="49.6836" lon="-1.30835">
        <ele>19.9</ele>
        <time>2023-05-18T02:12:56Z</time>
      </trkpt>
      <trkpt lat="49.68358" lon="-1.30867">
        <ele>19.7</ele>
        <time>2023-05-18T02:13:00Z</time>
      </trkpt>
      <trkpt lat="49.68356" lon="-1.30899">
        <ele>19.4</ele>
        <time>2023-05-18T02:13:04Z</time>
      </trkpt>
      <trkpt lat="49.68353" lon="-1.30932">
        <ele>18.9</ele>
        <time>2023-05-18T02:13:08Z</time>
      </trkpt>
      <trkpt lat="49.68349" lon="-1.30967">
        <ele>17.8</ele>
        <time>2023-05-18T02:13:12Z</time>
      </trkpt>
      <trkpt lat="49.68347" lon="-1.30997">
        <ele>16.6</ele>
        <time>2023-05-18T02:13:15Z</time>
      </trkpt>
      <trkpt lat="49.68347" lon="-1.31033">
        <ele>14.9</ele>
        <time>2023-05-18T02:13:18Z</time>
      </trkpt>
      <trkpt lat="49.6835" lon="-1.31072">
        <ele>13</ele>
        <time>2023-05-18T02:13:21Z</time>
      </trkpt>
      <trkpt lat="49.68358" lon="-1.31113">
        <ele>11.4</ele>
        <time>2023-05-18T02:13:24Z</time>
      </trkpt>
      <trkpt lat="49.68368" lon="-1.3114">
        <ele>9.6</ele>
        <time>2023-05-18T02:13:26Z</time>
      </trkpt>
      <trkpt lat="49.68379" lon="-1.31167">
        <ele>7.7</ele>
        <time>2023-05-18T02:13:28Z</time>
      </trkpt>
      <trkpt lat="49.68391" lon="-1.31196">
        <ele>5.9</ele>
        <time>2023-05-18T02:13:30Z</time>
      </trkpt>
      <trkpt lat="49.68403" lon="-1.31226">
        <ele>4.5</ele>
        <time>2023-05-18T02:13:32Z</time>
      </trkpt>
      <trkpt lat="49.68415" lon="-1.31256">
        <ele>4</ele>
        <time>2023-05-18T02:13:34Z</time>
      </trkpt>
      <trkpt lat="49.68427" lon="-1.31284">
        <ele>4.2</ele>
        <time>2023-05-18T02:13:36Z</time>
      </trkpt>
      <trkpt lat="49.68438" lon="-1.31309">
        <ele>4.8</ele>
        <time>2023-05-18T02:13:38Z</time>
      </trkpt>
      <trkpt lat="49.68449" lon="-1.31334">
        <ele>5.2</ele>
        <time>2023-05-18T02:13:40Z</time>
      </trkpt>
      <trkpt lat="49.68465" lon="-1.31367">
        <ele>5.6</ele>
        <time>2023-05-18T02:13:43Z</time>
      </trkpt>
      <trkpt lat="49.68481" lon="-1.31399">
        <ele>5.6</ele>
        <time>2023-05-18T02:13:46Z</time>
      </trkpt>
      <trkpt lat="49.68497" lon="-1.3143">
        <ele>5.7</ele>
        <time>2023-05-18T02:13:49Z</time>
      </trkpt>
      <trkpt lat="49.68511" lon="-1.31461">
        <ele>5.6</ele>
        <time>2023-05-18T02:13:52Z</time>
      </trkpt>
      <trkpt lat="49.68526" lon="-1.3149">
        <ele>5.5</ele>
        <time>2023-05-18T02:13:55Z</time>
      </trkpt>
      <trkpt lat="49.68541" lon="-1.31519">
        <ele>5.5</ele>
        <time>2023-05-18T02:13:58Z</time>
      </trkpt>
      <trkpt lat="49.68555" lon="-1.31546">
        <ele>5.4</ele>
        <time>2023-05-18T02:14:01Z</time>
      </trkpt>
      <trkpt lat="49.6857" lon="-1.31576">
        <ele>5.5</ele>
        <time>2023-05-18T02:14:04Z</time>
      </trkpt>
      <trkpt lat="49.68582" lon="-1.31605">
        <ele>5.3</ele>
        <time>2023-05-18T02:14:07Z</time>
      </trkpt>
      <trkpt lat="49.68591" lon="-1.31635">
        <ele>5.2</ele>
        <time>2023-05-18T02:14:10Z</time>
      </trkpt>
      <trkpt lat="49.68597" lon="-1.31665">
        <ele>5.1</ele>
        <time>2023-05-18T02:14:13Z</time>
      </trkpt>
      <trkpt lat="49.68598" lon="-1.31696">
        <ele>5.1</ele>
        <time>2023-05-18T02:14:16Z</time>
      </trkpt>
      <trkpt lat="49.68597" lon="-1.31726">
        <ele>5.4</ele>
        <time>2023-05-18T02:14:19Z</time>
      </trkpt>
      <trkpt lat="49.68596" lon="-1.31755">
        <ele>5.7</ele>
        <time>2023-05-18T02:14:22Z</time>
      </trkpt>
      <trkpt lat="49.68593" lon="-1.31784">
        <ele>6.1</ele>
        <time>2023-05-18T02:14:25Z</time>
      </trkpt>
      <trkpt lat="49.68589" lon="-1.31817">
        <ele>6.6</ele>
        <time>2023-05-18T02:14:29Z</time>
      </trkpt>
      <trkpt lat="49.68588" lon="-1.31851">
        <ele>7.2</ele>
        <time>2023-05-18T02:14:33Z</time>
      </trkpt>
      <trkpt lat="49.68588" lon="-1.3188">
        <ele>7.7</ele>
        <time>2023-05-18T02:14:37Z</time>
      </trkpt>
      <trkpt lat="49.6859" lon="-1.31909">
        <ele>8.2</ele>
        <time>2023-05-18T02:14:41Z</time>
      </trkpt>
      <trkpt lat="49.68593" lon="-1.31937">
        <ele>8.7</ele>
        <time>2023-05-18T02:14:45Z</time>
      </trkpt>
      <trkpt lat="49.68595" lon="-1.31965">
        <ele>9.1</ele>
        <time>2023-05-18T02:14:49Z</time>
      </trkpt>
      <trkpt lat="49.68599" lon="-1.31992">
        <ele>9.6</ele>
        <time>2023-05-18T02:14:53Z</time>
      </trkpt>
      <trkpt lat="49.68605" lon="-1.32021">
        <ele>10</ele>
        <time>2023-05-18T02:14:57Z</time>
      </trkpt>
      <trkpt lat="49.68611" lon="-1.3205">
        <ele>10.5</ele>
        <time>2023-05-18T02:15:01Z</time>
      </trkpt>
      <trkpt lat="49.68617" lon="-1.32078">
        <ele>10.8</ele>
        <time>2023-05-18T02:15:05Z</time>
      </trkpt>
      <trkpt lat="49.68624" lon="-1.3211">
        <ele>11.2</ele>
        <time>2023-05-18T02:15:10Z</time>
      </trkpt>
      <trkpt lat="49.6863" lon="-1.32137">
        <ele>11.6</ele>
        <time>2023-05-18T02:15:14Z</time>
      </trkpt>
      <trkpt lat="49.68637" lon="-1.32167">
        <ele>12</ele>
        <time>2023-05-18T02:15:18Z</time>
      </trkpt>
      <trkpt lat="49.68642" lon="-1.32195">
        <ele>12.4</ele>
        <time>2023-05-18T02:15:22Z</time>
      </trkpt>
      <trkpt lat="49.68648" lon="-1.32222">
        <ele>12.7</ele>
        <time>2023-05-18T02:15:26Z</time>
      </trkpt>
      <trkpt lat="49.68654" lon="-1.32249">
        <ele>12.9</ele>
        <time>2023-05-18T02:15:30Z</time>
      </trkpt>
      <trkpt lat="49.68661" lon="-1.32276">
        <ele>13.1</ele>
        <time>2023-05-18T02:15:34Z</time>
      </trkpt>
      <trkpt lat="49.68668" lon="-1.32304">
        <ele>13.2</ele>
        <time>2023-05-18T02:15:38Z</time>
      </trkpt>
      <trkpt lat="49.68678" lon="-1.32331">
        <ele>13.1</ele>
        <time>2023-05-18T02:15:42Z</time>
      </trkpt>
      <trkpt lat="49.68689" lon="-1.32358">
        <ele>13</ele>
        <time>2023-05-18T02:15:46Z</time>
      </trkpt>
      <trkpt lat="49.68703" lon="-1.32385">
        <ele>12.9</ele>
        <time>2023-05-18T02:15:50Z</time>
      </trkpt>
      <trkpt lat="49.68717" lon="-1.32412">
        <ele>12.8</ele>
        <time>2023-05-18T02:15:54Z</time>
      </trkpt>
      <trkpt lat="49.68732" lon="-1.32438">
        <ele>12.6</ele>
        <time>2023-05-18T02:15:58Z</time>
      </trkpt>
      <trkpt lat="49.68747" lon="-1.32466">
        <ele>12.4</ele>
        <time>2023-05-18T02:16:02Z</time>
      </trkpt>
      <trkpt lat="49.68758" lon="-1.32489">
        <ele>12.3</ele>
        <time>2023-05-18T02:16:05Z</time>
      </trkpt>
      <trkpt lat="49.68772" lon="-1.32517">
        <ele>12</ele>
        <time>2023-05-18T02:16:09Z</time>
      </trkpt>
      <trkpt lat="49.68784" lon="-1.32538">
        <ele>11.7</ele>
        <time>2023-05-18T02:16:12Z</time>
      </trkpt>
      <trkpt lat="49.68795" lon="-1.32561">
        <ele>11.2</ele>
        <time>2023-05-18T02:16:15Z</time>
      </trkpt>
      <trkpt lat="49.68806" lon="-1.32585">
        <ele>10.6</ele>
        <time>2023-05-18T02:16:18Z</time>
      </trkpt>
      <trkpt lat="49.68817" lon="-1.32615">
        <ele>9.8</ele>
        <time>2023-05-18T02:16:21Z</time>
      </trkpt>
      <trkpt lat="49.68825" lon="-1.32647">
        <ele>9.1</ele>
        <time>2023-05-18T02:16:24Z</time>
      </trkpt>
      <trkpt lat="49.68832" lon="-1.32681">
        <ele>8.4</ele>
        <time>2023-05-18T02:16:27Z</time>
      </trkpt>
      <trkpt lat="49.68837" lon="-1.32716">
        <ele>8</ele>
        <time>2023-05-18T02:16:30Z</time>
      </trkpt>
      <trkpt lat="49.68842" lon="-1.3275">
        <ele>7.9</ele>
        <time>2023-05-18T02:16:33Z</time>
      </trkpt>
      <trkpt lat="49.68846" lon="-1.32781">
        <ele>7.9</ele>
        <time>2023-05-18T02:16:36Z</time>
      </trkpt>
      <trkpt lat="49.68851" lon="-1.3281">
        <ele>8.1</ele>
        <time>2023-05-18T02:16:39Z</time>
      </trkpt>
      <trkpt lat="49.68856" lon="-1.32838">
        <ele>8.2</ele>
        <time>2023-05-18T02:16:42Z</time>
      </trkpt>
      <trkpt lat="49.68862" lon="-1.32872">
        <ele>8.6</ele>
        <time>2023-05-18T02:16:46Z</time>
      </trkpt>
      <trkpt lat="49.68869" lon="-1.32906">
        <ele>8.8</ele>
        <time>2023-05-18T02:16:50Z</time>
      </trkpt>
      <trkpt lat="49.68875" lon="-1.32941">
        <ele>9.1</ele>
        <time>2023-05-18T02:16:54Z</time>
      </trkpt>
      <trkpt lat="49.68881" lon="-1.32973">
        <ele>9.4</ele>
        <time>2023-05-18T02:16:58Z</time>
      </trkpt>
      <trkpt lat="49.68885" lon="-1.33006">
        <ele>9.7</ele>
        <time>2023-05-18T02:17:02Z</time>
      </trkpt>
      <trkpt lat="49.68889" lon="-1.3304">
        <ele>9.9</ele>
        <time>2023-05-18T02:17:06Z</time>
      </trkpt>
      <trkpt lat="49.68893" lon="-1.33075">
        <ele>10.1</ele>
        <time>2023-05-18T02:17:10Z</time>
      </trkpt>
      <trkpt lat="49.68898" lon="-1.33107">
        <ele>10.3</ele>
        <time>2023-05-18T02:17:14Z</time>
      </trkpt>
      <trkpt lat="49.68903" lon="-1.33139">
        <ele>10.6</ele>
        <time>2023-05-18T02:17:18Z</time>
      </trkpt>
      <trkpt lat="49.6891" lon="-1.33171">
        <ele>10.9</ele>
        <time>2023-05-18T02:17:22Z</time>
      </trkpt>
      <trkpt lat="49.68918" lon="-1.33203">
        <ele>11.2</ele>
        <time>2023-05-18T02:17:26Z</time>
      </trkpt>
      <trkpt lat="49.68927" lon="-1.33235">
        <ele>11.4</ele>
        <time>2023-05-18T02:17:30Z</time>
      </trkpt>
      <trkpt lat="49.68936" lon="-1.33265">
        <ele>11.6</ele>
        <time>2023-05-18T02:17:34Z</time>
      </trkpt>
      <trkpt lat="49.68945" lon="-1.33295">
        <ele>11.9</ele>
        <time>2023-05-18T02:17:38Z</time>
      </trkpt>
      <trkpt lat="49.68955" lon="-1.33323">
        <ele>12.2</ele>
        <time>2023-05-18T02:17:42Z</time>
      </trkpt>
      <trkpt lat="49.68963" lon="-1.33353">
        <ele>12.6</ele>
        <time>2023-05-18T02:17:46Z</time>
      </trkpt>
      <trkpt lat="49.68972" lon="-1.33382">
        <ele>13</ele>
        <time>2023-05-18T02:17:50Z</time>
      </trkpt>
      <trkpt lat="49.6898" lon="-1.33408">
        <ele>13.5</ele>
        <time>2023-05-18T02:17:54Z</time>
      </trkpt>
      <trkpt lat="49.68989" lon="-1.33432">
        <ele>14.1</ele>
        <time>2023-05-18T02:17:58Z</time>
      </trkpt>
      <trkpt lat="49.68999" lon="-1.33456">
        <ele>14.7</ele>
        <time>2023-05-18T02:18:02Z</time>
      </trkpt>
      <trkpt lat="49.69011" lon="-1.33483">
        <ele>15.2</ele>
        <time>2023-05-18T02:18:07Z</time>
      </trkpt>
      <trkpt lat="49.69022" lon="-1.33507">
        <ele>15.7</ele>
        <time>2023-05-18T02:18:12Z</time>
      </trkpt>
      <trkpt lat="49.69032" lon="-1.33535">
        <ele>16</ele>
        <time>2023-05-18T02:18:17Z</time>
      </trkpt>
      <trkpt lat="49.69041" lon="-1.33566">
        <ele>16.2</ele>
        <time>2023-05-18T02:18:22Z</time>
      </trkpt>
      <trkpt lat="49.69046" lon="-1.33595">
        <ele>16.6</ele>
        <time>2023-05-18T02:18:26Z</time>
      </trkpt>
      <trkpt lat="49.69051" lon="-1.33623">
        <ele>17</ele>
        <time>2023-05-18T02:18:30Z</time>
      </trkpt>
      <trkpt lat="49.69057" lon="-1.33651">
        <ele>17.2</ele>
        <time>2023-05-18T02:18:34Z</time>
      </trkpt>
      <trkpt lat="49.69065" lon="-1.33679">
        <ele>17.2</ele>
        <time>2023-05-18T02:18:38Z</time>
      </trkpt>
      <trkpt lat="49.69077" lon="-1.33709">
        <ele>16.7</ele>
        <time>2023-05-18T02:18:42Z</time>
      </trkpt>
      <trkpt lat="49.69089" lon="-1.33732">
        <ele>16.3</ele>
        <time>2023-05-18T02:18:45Z</time>
      </trkpt>
      <trkpt lat="49.691" lon="-1.33757">
        <ele>16.1</ele>
        <time>2023-05-18T02:18:48Z</time>
      </trkpt>
      <trkpt lat="49.69111" lon="-1.3378">
        <ele>16.2</ele>
        <time>2023-05-18T02:18:51Z</time>
      </trkpt>
      <trkpt lat="49.69122" lon="-1.33807">
        <ele>16.9</ele>
        <time>2023-05-18T02:18:55Z</time>
      </trkpt>
      <trkpt lat="49.6913" lon="-1.33833">
        <ele>17.7</ele>
        <time>2023-05-18T02:18:59Z</time>
      </trkpt>
      <trkpt lat="49.69136" lon="-1.3386">
        <ele>18.7</ele>
        <time>2023-05-18T02:19:04Z</time>
      </trkpt>
      <trkpt lat="49.69138" lon="-1.33892">
        <ele>19.6</ele>
        <time>2023-05-18T02:19:10Z</time>
      </trkpt>
      <trkpt lat="49.69138" lon="-1.33921">
        <ele>20.2</ele>
        <time>2023-05-18T02:19:15Z</time>
      </trkpt>
      <trkpt lat="49.69136" lon="-1.33954">
        <ele>20.7</ele>
        <time>2023-05-18T02:19:20Z</time>
      </trkpt>
      <trkpt lat="49.69136" lon="-1.33988">
        <ele>21</ele>
        <time>2023-05-18T02:19:25Z</time>
      </trkpt>
      <trkpt lat="49.69139" lon="-1.34023">
        <ele>21.3</ele>
        <time>2023-05-18T02:19:30Z</time>
      </trkpt>
      <trkpt lat="49.69142" lon="-1.34051">
        <ele>21.5</ele>
        <time>2023-05-18T02:19:34Z</time>
      </trkpt>
      <trkpt lat="49.6915" lon="-1.34078">
        <ele>21.7</ele>
        <time>2023-05-18T02:19:38Z</time>
      </trkpt>
      <trkpt lat="49.69158" lon="-1.34104">
        <ele>21.8</ele>
        <time>2023-05-18T02:19:42Z</time>
      </trkpt>
      <trkpt lat="49.69167" lon="-1.34137">
        <ele>22</ele>
        <time>2023-05-18T02:19:47Z</time>
      </trkpt>
      <trkpt lat="49.69173" lon="-1.34165">
        <ele>22.1</ele>
        <time>2023-05-18T02:19:51Z</time>
      </trkpt>
      <trkpt lat="49.69178" lon="-1.34195">
        <ele>22.3</ele>
        <time>2023-05-18T02:19:55Z</time>
      </trkpt>
      <trkpt lat="49.69181" lon="-1.34226">
        <ele>22.4</ele>
        <time>2023-05-18T02:19:59Z</time>
      </trkpt>
      <trkpt lat="49.69181" lon="-1.34258">
        <ele>22.6</ele>
        <time>2023-05-18T02:20:03Z</time>
      </trkpt>
      <trkpt lat="49.6918" lon="-1.34289">
        <ele>22.7</ele>
        <time>2023-05-18T02:20:07Z</time>
      </trkpt>
      <trkpt lat="49.69179" lon="-1.3432">
        <ele>22.7</ele>
        <time>2023-05-18T02:20:11Z</time>
      </trkpt>
      <trkpt lat="49.69177" lon="-1.3435">
        <ele>22.8</ele>
        <time>2023-05-18T02:20:15Z</time>
      </trkpt>
      <trkpt lat="49.69173" lon="-1.3438">
        <ele>22.9</ele>
        <time>2023-05-18T02:20:19Z</time>
      </trkpt>
      <trkpt lat="49.69167" lon="-1.3441">
        <ele>23</ele>
        <time>2023-05-18T02:20:23Z</time>
      </trkpt>
      <trkpt lat="49.69159" lon="-1.3444">
        <ele>23</ele>
        <time>2023-05-18T02:20:27Z</time>
      </trkpt>
      <trkpt lat="49.69151" lon="-1.3447">
        <ele>23.1</ele>
        <time>2023-05-18T02:20:31Z</time>
      </trkpt>
      <trkpt lat="49.69143" lon="-1.34499">
        <ele>23.1</ele>
        <time>2023-05-18T02:20:35Z</time>
      </trkpt>
      <trkpt lat="49.69137" lon="-1.34528">
        <ele>23</ele>
        <time>2023-05-18T02:20:39Z</time>
      </trkpt>
      <trkpt lat="49.69132" lon="-1.34559">
        <ele>23</ele>
        <time>2023-05-18T02:20:43Z</time>
      </trkpt>
      <trkpt lat="49.69129" lon="-1.34593">
        <ele>22.9</ele>
        <time>2023-05-18T02:20:47Z</time>
      </trkpt>
      <trkpt lat="49.69128" lon="-1.34625">
        <ele>22.7</ele>
        <time>2023-05-18T02:20:51Z</time>
      </trkpt>
      <trkpt lat="49.69129" lon="-1.34659">
        <ele>22.5</ele>
        <time>2023-05-18T02:20:55Z</time>
      </trkpt>
      <trkpt lat="49.69131" lon="-1.34694">
        <ele>22.2</ele>
        <time>2023-05-18T02:20:59Z</time>
      </trkpt>
      <trkpt lat="49.69133" lon="-1.34727">
        <ele>22.1</ele>
        <time>2023-05-18T02:21:03Z</time>
      </trkpt>
      <trkpt lat="49.69137" lon="-1.34761">
        <ele>22</ele>
        <time>2023-05-18T02:21:07Z</time>
      </trkpt>
      <trkpt lat="49.69139" lon="-1.34794">
        <ele>22</ele>
        <time>2023-05-18T02:21:11Z</time>
      </trkpt>
      <trkpt lat="49.69142" lon="-1.34829">
        <ele>21.9</ele>
        <time>2023-05-18T02:21:15Z</time>
      </trkpt>
      <trkpt lat="49.69145" lon="-1.34858">
        <ele>21.9</ele>
        <time>2023-05-18T02:21:18Z</time>
      </trkpt>
      <trkpt lat="49.69145" lon="-1.3489">
        <ele>22</ele>
        <time>2023-05-18T02:21:22Z</time>
      </trkpt>
      <trkpt lat="49.69145" lon="-1.34924">
        <ele>22.3</ele>
        <time>2023-05-18T02:21:26Z</time>
      </trkpt>
      <trkpt lat="49.69143" lon="-1.34956">
        <ele>22.6</ele>
        <time>2023-05-18T02:21:30Z</time>
      </trkpt>
      <trkpt lat="49.69141" lon="-1.34988">
        <ele>22.8</ele>
        <time>2023-05-18T02:21:34Z</time>
      </trkpt>
      <trkpt lat="49.69137" lon="-1.3502">
        <ele>23</ele>
        <time>2023-05-18T02:21:38Z</time>
      </trkpt>
      <trkpt lat="49.69134" lon="-1.35049">
        <ele>23.1</ele>
        <time>2023-05-18T02:21:42Z</time>
      </trkpt>
      <trkpt lat="49.69129" lon="-1.35083">
        <ele>23.2</ele>
        <time>2023-05-18T02:21:46Z</time>
      </trkpt>
      <trkpt lat="49.69124" lon="-1.35115">
        <ele>23.4</ele>
        <time>2023-05-18T02:21:50Z</time>
      </trkpt>
      <trkpt lat="49.6912" lon="-1.35144">
        <ele>23.6</ele>
        <time>2023-05-18T02:21:54Z</time>
      </trkpt>
      <trkpt lat="49.69117" lon="-1.35176">
        <ele>23.7</ele>
        <time>2023-05-18T02:21:58Z</time>
      </trkpt>
      <trkpt lat="49.69113" lon="-1.35207">
        <ele>23.9</ele>
        <time>2023-05-18T02:22:02Z</time>
      </trkpt>
      <trkpt lat="49.6911" lon="-1.35239">
        <ele>24.1</ele>
        <time>2023-05-18T02:22:06Z</time>
      </trkpt>
      <trkpt lat="49.69108" lon="-1.35267">
        <ele>24.2</ele>
        <time>2023-05-18T02:22:10Z</time>
      </trkpt>
      <trkpt lat="49.69108" lon="-1.35297">
        <ele>24.3</ele>
        <time>2023-05-18T02:22:14Z</time>
      </trkpt>
      <trkpt lat="49.69107" lon="-1.35328">
        <ele>24.5</ele>
        <time>2023-05-18T02:22:18Z</time>
      </trkpt>
      <trkpt lat="49.69107" lon="-1.35357">
        <ele>24.8</ele>
        <time>2023-05-18T02:22:22Z</time>
      </trkpt>
      <trkpt lat="49.69106" lon="-1.35387">
        <ele>24.9</ele>
        <time>2023-05-18T02:22:26Z</time>
      </trkpt>
      <trkpt lat="49.69105" lon="-1.35416">
        <ele>25.1</ele>
        <time>2023-05-18T02:22:30Z</time>
      </trkpt>
      <trkpt lat="49.69104" lon="-1.35447">
        <ele>25.4</ele>
        <time>2023-05-18T02:22:34Z</time>
      </trkpt>
      <trkpt lat="49.69104" lon="-1.35478">
        <ele>25.5</ele>
        <time>2023-05-18T02:22:38Z</time>
      </trkpt>
      <trkpt lat="49.69104" lon="-1.35509">
        <ele>25.8</ele>
        <time>2023-05-18T02:22:42Z</time>
      </trkpt>
      <trkpt lat="49.69104" lon="-1.35539">
        <ele>26</ele>
        <time>2023-05-18T02:22:46Z</time>
      </trkpt>
      <trkpt lat="49.69103" lon="-1.35569">
        <ele>26.2</ele>
        <time>2023-05-18T02:22:50Z</time>
      </trkpt>
      <trkpt lat="49.69103" lon="-1.35598">
        <ele>26.3</ele>
        <time>2023-05-18T02:22:54Z</time>
      </trkpt>
      <trkpt lat="49.69104" lon="-1.35628">
        <ele>26.4</ele>
        <time>2023-05-18T02:22:58Z</time>
      </trkpt>
      <trkpt lat="49.69103" lon="-1.35657">
        <ele>26.5</ele>
        <time>2023-05-18T02:23:02Z</time>
      </trkpt>
      <trkpt lat="49.69101" lon="-1.35688">
        <ele>26.5</ele>
        <time>2023-05-18T02:23:06Z</time>
      </trkpt>
      <trkpt lat="49.69097" lon="-1.35722">
        <ele>26.5</ele>
        <time>2023-05-18T02:23:10Z</time>
      </trkpt>
      <trkpt lat="49.6909" lon="-1.35755">
        <ele>26.4</ele>
        <time>2023-05-18T02:23:14Z</time>
      </trkpt>
      <trkpt lat="49.69083" lon="-1.35787">
        <ele>26.3</ele>
        <time>2023-05-18T02:23:18Z</time>
      </trkpt>
      <trkpt lat="49.69075" lon="-1.35819">
        <ele>26.2</ele>
        <time>2023-05-18T02:23:22Z</time>
      </trkpt>
      <trkpt lat="49.69072" lon="-1.35854">
        <ele>26.1</ele>
        <time>2023-05-18T02:23:26Z</time>
      </trkpt>
      <trkpt lat="49.69071" lon="-1.35889">
        <ele>26</ele>
        <time>2023-05-18T02:23:30Z</time>
      </trkpt>
      <trkpt lat="49.69073" lon="-1.35918">
        <ele>26.1</ele>
        <time>2023-05-18T02:23:33Z</time>
      </trkpt>
      <trkpt lat="49.69076" lon="-1.35949">
        <ele>26.3</ele>
        <time>2023-05-18T02:23:37Z</time>
      </trkpt>
      <trkpt lat="49.69082" lon="-1.35978">
        <ele>26.5</ele>
        <time>2023-05-18T02:23:41Z</time>
      </trkpt>
      <trkpt lat="49.69089" lon="-1.36008">
        <ele>26.6</ele>
        <time>2023-05-18T02:23:45Z</time>
      </trkpt>
      <trkpt lat="49.69097" lon="-1.36038">
        <ele>26.6</ele>
        <time>2023-05-18T02:23:49Z</time>
      </trkpt>
      <trkpt lat="49.69107" lon="-1.36069">
        <ele>26.5</ele>
        <time>2023-05-18T02:23:53Z</time>
      </trkpt>
      <trkpt lat="49.69117" lon="-1.361">
        <ele>26.2</ele>
        <time>2023-05-18T02:23:57Z</time>
      </trkpt>
      <trkpt lat="49.69126" lon="-1.36125">
        <ele>26</ele>
        <time>2023-05-18T02:24:00Z</time>
      </trkpt>
      <trkpt lat="49.69134" lon="-1.3615">
        <ele>25.8</ele>
        <time>2023-05-18T02:24:03Z</time>
      </trkpt>
      <trkpt lat="49.69146" lon="-1.36181">
        <ele>25.6</ele>
        <time>2023-05-18T02:24:07Z</time>
      </trkpt>
      <trkpt lat="49.69155" lon="-1.36205">
        <ele>25.4</ele>
        <time>2023-05-18T02:24:10Z</time>
      </trkpt>
      <trkpt lat="49.69164" lon="-1.3623">
        <ele>25.3</ele>
        <time>2023-05-18T02:24:13Z</time>
      </trkpt>
      <trkpt lat="49.69173" lon="-1.36254">
        <ele>25.2</ele>
        <time>2023-05-18T02:24:16Z</time>
      </trkpt>
      <trkpt lat="49.69184" lon="-1.36286">
        <ele>25</ele>
        <time>2023-05-18T02:24:20Z</time>
      </trkpt>
      <trkpt lat="49.69195" lon="-1.36317">
        <ele>25.1</ele>
        <time>2023-05-18T02:24:24Z</time>
      </trkpt>
      <trkpt lat="49.69205" lon="-1.36348">
        <ele>25.1</ele>
        <time>2023-05-18T02:24:28Z</time>
      </trkpt>
      <trkpt lat="49.69215" lon="-1.3638">
        <ele>24.9</ele>
        <time>2023-05-18T02:24:32Z</time>
      </trkpt>
      <trkpt lat="49.69226" lon="-1.36413">
        <ele>24.7</ele>
        <time>2023-05-18T02:24:36Z</time>
      </trkpt>
      <trkpt lat="49.69233" lon="-1.36439">
        <ele>24.5</ele>
        <time>2023-05-18T02:24:39Z</time>
      </trkpt>
      <trkpt lat="49.69239" lon="-1.36467">
        <ele>24.3</ele>
        <time>2023-05-18T02:24:42Z</time>
      </trkpt>
      <trkpt lat="49.69247" lon="-1.36501">
        <ele>23.9</ele>
        <time>2023-05-18T02:24:46Z</time>
      </trkpt>
      <trkpt lat="49.69253" lon="-1.36528">
        <ele>23.5</ele>
        <time>2023-05-18T02:24:49Z</time>
      </trkpt>
      <trkpt lat="49.69257" lon="-1.36556">
        <ele>22.9</ele>
        <time>2023-05-18T02:24:52Z</time>
      </trkpt>
      <trkpt lat="49.69262" lon="-1.36585">
        <ele>22.4</ele>
        <time>2023-05-18T02:24:55Z</time>
      </trkpt>
      <trkpt lat="49.69266" lon="-1.36614">
        <ele>21.8</ele>
        <time>2023-05-18T02:24:58Z</time>
      </trkpt>
      <trkpt lat="49.69272" lon="-1.36643">
        <ele>21.3</ele>
        <time>2023-05-18T02:25:01Z</time>
      </trkpt>
      <trkpt lat="49.69278" lon="-1.36672">
        <ele>20.9</ele>
        <time>2023-05-18T02:25:04Z</time>
      </trkpt>
      <trkpt lat="49.69281" lon="-1.36704">
        <ele>20.2</ele>
        <time>2023-05-18T02:25:07Z</time>
      </trkpt>
      <trkpt lat="49.69284" lon="-1.36733">
        <ele>19.3</ele>
        <time>2023-05-18T02:25:10Z</time>
      </trkpt>
      <trkpt lat="49.69289" lon="-1.36763">
        <ele>18.2</ele>
        <time>2023-05-18T02:25:13Z</time>
      </trkpt>
      <trkpt lat="49.69295" lon="-1.36797">
        <ele>16.7</ele>
        <time>2023-05-18T02:25:16Z</time>
      </trkpt>
      <trkpt lat="49.69303" lon="-1.36832">
        <ele>14.9</ele>
        <time>2023-05-18T02:25:19Z</time>
      </trkpt>
      <trkpt lat="49.69308" lon="-1.36859">
        <ele>13.5</ele>
        <time>2023-05-18T02:25:21Z</time>
      </trkpt>
      <trkpt lat="49.69316" lon="-1.36887">
        <ele>12.1</ele>
        <time>2023-05-18T02:25:23Z</time>
      </trkpt>
      <trkpt lat="49.69324" lon="-1.36914">
        <ele>10.7</ele>
        <time>2023-05-18T02:25:25Z</time>
      </trkpt>
      <trkpt lat="49.69333" lon="-1.36942">
        <ele>9.5</ele>
        <time>2023-05-18T02:25:27Z</time>
      </trkpt>
      <trkpt lat="49.6934" lon="-1.36968">
        <ele>8.5</ele>
        <time>2023-05-18T02:25:29Z</time>
      </trkpt>
      <trkpt lat="49.69348" lon="-1.36996">
        <ele>7.7</ele>
        <time>2023-05-18T02:25:31Z</time>
      </trkpt>
      <trkpt lat="49.69354" lon="-1.37026">
        <ele>7.2</ele>
        <time>2023-05-18T02:25:33Z</time>
      </trkpt>
      <trkpt lat="49.69358" lon="-1.37056">
        <ele>7</ele>
        <time>2023-05-18T02:25:35Z</time>
      </trkpt>
      <trkpt lat="49.69361" lon="-1.37084">
        <ele>7.3</ele>
        <time>2023-05-18T02:25:37Z</time>
      </trkpt>
      <trkpt lat="49.69362" lon="-1.37113">
        <ele>7.7</ele>
        <time>2023-05-18T02:25:39Z</time>
      </trkpt>
      <trkpt lat="49.69363" lon="-1.37152">
        <ele>8.4</ele>
        <time>2023-05-18T02:25:42Z</time>
      </trkpt>
      <trkpt lat="49.69363" lon="-1.37187">
        <ele>9.1</ele>
        <time>2023-05-18T02:25:45Z</time>
      </trkpt>
      <trkpt lat="49.69362" lon="-1.37218">
        <ele>9.6</ele>
        <time>2023-05-18T02:25:48Z</time>
      </trkpt>
      <trkpt lat="49.69361" lon="-1.37252">
        <ele>10.2</ele>
        <time>2023-05-18T02:25:52Z</time>
      </trkpt>
      <trkpt lat="49.69361" lon="-1.37283">
        <ele>10.7</ele>
        <time>2023-05-18T02:25:56Z</time>
      </trkpt>
      <trkpt lat="49.69359" lon="-1.37313">
        <ele>11.5</ele>
        <time>2023-05-18T02:26:00Z</time>
      </trkpt>
      <trkpt lat="49.69357" lon="-1.37342">
        <ele>12.3</ele>
        <time>2023-05-18T02:26:04Z</time>
      </trkpt>
      <trkpt lat="49.69356" lon="-1.37372">
        <ele>13</ele>
        <time>2023-05-18T02:26:08Z</time>
      </trkpt>
      <trkpt lat="49.69355" lon="-1.374">
        <ele>13.7</ele>
        <time>2023-05-18T02:26:12Z</time>
      </trkpt>
      <trkpt lat="49.69355" lon="-1.37431">
        <ele>14.4</ele>
        <time>2023-05-18T02:26:16Z</time>
      </trkpt>
      <trkpt lat="49.69355" lon="-1.37464">
        <ele>15.1</ele>
        <time>2023-05-18T02:26:21Z</time>
      </trkpt>
      <trkpt lat="49.69356" lon="-1.37496">
        <ele>15.9</ele>
        <time>2023-05-18T02:26:26Z</time>
      </trkpt>
      <trkpt lat="49.69357" lon="-1.37529">
        <ele>16.5</ele>
        <time>2023-05-18T02:26:31Z</time>
      </trkpt>
      <trkpt lat="49.69357" lon="-1.37563">
        <ele>17</ele>
        <time>2023-05-18T02:26:36Z</time>
      </trkpt>
      <trkpt lat="49.69355" lon="-1.37597">
        <ele>17.4</ele>
        <time>2023-05-18T02:26:41Z</time>
      </trkpt>
      <trkpt lat="49.69354" lon="-1.37628">
        <ele>17.5</ele>
        <time>2023-05-18T02:26:45Z</time>
      </trkpt>
      <trkpt lat="49.69352" lon="-1.37659">
        <ele>17.6</ele>
        <time>2023-05-18T02:26:49Z</time>
      </trkpt>
      <trkpt lat="49.69352" lon="-1.3769">
        <ele>17.5</ele>
        <time>2023-05-18T02:26:53Z</time>
      </trkpt>
      <trkpt lat="49.69355" lon="-1.3772">
        <ele>17.6</ele>
        <time>2023-05-18T02:26:57Z</time>
      </trkpt>
      <trkpt lat="49.6936" lon="-1.37749">
        <ele>17.6</ele>
        <time>2023-05-18T02:27:01Z</time>
      </trkpt>
      <trkpt lat="49.69368" lon="-1.3778">
        <ele>17.6</ele>
        <time>2023-05-18T02:27:05Z</time>
      </trkpt>
      <trkpt lat="49.69377" lon="-1.37809">
        <ele>17.8</ele>
        <time>2023-05-18T02:27:09Z</time>
      </trkpt>
      <trkpt lat="49.69386" lon="-1.37836">
        <ele>17.9</ele>
        <time>2023-05-18T02:27:13Z</time>
      </trkpt>
      <trkpt lat="49.69396" lon="-1.37865">
        <ele>18</ele>
        <time>2023-05-18T02:27:17Z</time>
      </trkpt>
      <trkpt lat="49.69406" lon="-1.37894">
        <ele>18.1</ele>
        <time>2023-05-18T02:27:21Z</time>
      </trkpt>
      <trkpt lat="49.69416" lon="-1.37922">
        <ele>18</ele>
        <time>2023-05-18T02:27:25Z</time>
      </trkpt>
      <trkpt lat="49.69427" lon="-1.37953">
        <ele>17.6</ele>
        <time>2023-05-18T02:27:29Z</time>
      </trkpt>
      <trkpt lat="49.69435" lon="-1.37978">
        <ele>17.2</ele>
        <time>2023-05-18T02:27:32Z</time>
      </trkpt>
      <trkpt lat="49.69447" lon="-1.3801">
        <ele>16.8</ele>
        <time>2023-05-18T02:27:36Z</time>
      </trkpt>
      <trkpt lat="49.69458" lon="-1.38034">
        <ele>16.4</ele>
        <time>2023-05-18T02:27:39Z</time>
      </trkpt>
      <trkpt lat="49.69471" lon="-1.38058">
        <ele>15.9</ele>
        <time>2023-05-18T02:27:42Z</time>
      </trkpt>
      <trkpt lat="49.69487" lon="-1.38081">
        <ele>15.4</ele>
        <time>2023-05-18T02:27:45Z</time>
      </trkpt>
      <trkpt lat="49.69503" lon="-1.38101">
        <ele>14.9</ele>
        <time>2023-05-18T02:27:48Z</time>
      </trkpt>
      <trkpt lat="49.69519" lon="-1.38119">
        <ele>14.6</ele>
        <time>2023-05-18T02:27:51Z</time>
      </trkpt>
      <trkpt lat="49.69539" lon="-1.38139">
        <ele>14.5</ele>
        <time>2023-05-18T02:27:55Z</time>
      </trkpt>
      <trkpt lat="49.69554" lon="-1.38154">
        <ele>14.6</ele>
        <time>2023-05-18T02:27:58Z</time>
      </trkpt>
      <trkpt lat="49.6957" lon="-1.38169">
        <ele>14.8</ele>
        <time>2023-05-18T02:28:01Z</time>
      </trkpt>
      <trkpt lat="49.6959" lon="-1.38188">
        <ele>15.1</ele>
        <time>2023-05-18T02:28:05Z</time>
      </trkpt>
      <trkpt lat="49.69609" lon="-1.38206">
        <ele>15.3</ele>
        <time>2023-05-18T02:28:09Z</time>
      </trkpt>
      <trkpt lat="49.69628" lon="-1.38225">
        <ele>15.3</ele>
        <time>2023-05-18T02:28:13Z</time>
      </trkpt>
      <trkpt lat="49.69645" lon="-1.38248">
        <ele>15.2</ele>
        <time>2023-05-18T02:28:17Z</time>
      </trkpt>
      <trkpt lat="49.69657" lon="-1.3827">
        <ele>15.1</ele>
        <time>2023-05-18T02:28:20Z</time>
      </trkpt>
      <trkpt lat="49.6967" lon="-1.38294">
        <ele>14.9</ele>
        <time>2023-05-18T02:28:23Z</time>
      </trkpt>
      <trkpt lat="49.6968" lon="-1.3832">
        <ele>14.7</ele>
        <time>2023-05-18T02:28:26Z</time>
      </trkpt>
      <trkpt lat="49.69688" lon="-1.38348">
        <ele>14.5</ele>
        <time>2023-05-18T02:28:29Z</time>
      </trkpt>
      <trkpt lat="49.69696" lon="-1.38377">
        <ele>14.3</ele>
        <time>2023-05-18T02:28:32Z</time>
      </trkpt>
      <trkpt lat="49.69703" lon="-1.38407">
        <ele>14.1</ele>
        <time>2023-05-18T02:28:35Z</time>
      </trkpt>
      <trkpt lat="49.69709" lon="-1.38437">
        <ele>13.8</ele>
        <time>2023-05-18T02:28:38Z</time>
      </trkpt>
      <trkpt lat="49.69715" lon="-1.38467">
        <ele>13.6</ele>
        <time>2023-05-18T02:28:41Z</time>
      </trkpt>
      <trkpt lat="49.69721" lon="-1.38497">
        <ele>13.3</ele>
        <time>2023-05-18T02:28:44Z</time>
      </trkpt>
      <trkpt lat="49.69725" lon="-1.38528">
        <ele>12.7</ele>
        <time>2023-05-18T02:28:47Z</time>
      </trkpt>
      <trkpt lat="49.6973" lon="-1.38559">
        <ele>12</ele>
        <time>2023-05-18T02:28:50Z</time>
      </trkpt>
      <trkpt lat="49.69732" lon="-1.38592">
        <ele>11.2</ele>
        <time>2023-05-18T02:28:53Z</time>
      </trkpt>
      <trkpt lat="49.69733" lon="-1.38627">
        <ele>10.2</ele>
        <time>2023-05-18T02:28:56Z</time>
      </trkpt>
      <trkpt lat="49.69733" lon="-1.38664">
        <ele>9</ele>
        <time>2023-05-18T02:28:59Z</time>
      </trkpt>
      <trkpt lat="49.6973" lon="-1.38703">
        <ele>7.7</ele>
        <time>2023-05-18T02:29:02Z</time>
      </trkpt>
      <trkpt lat="49.69726" lon="-1.38731">
        <ele>6.8</ele>
        <time>2023-05-18T02:29:04Z</time>
      </trkpt>
      <trkpt lat="49.69723" lon="-1.38759">
        <ele>5.9</ele>
        <time>2023-05-18T02:29:06Z</time>
      </trkpt>
      <trkpt lat="49.69717" lon="-1.38786">
        <ele>5.2</ele>
        <time>2023-05-18T02:29:08Z</time>
      </trkpt>
      <trkpt lat="49.6971" lon="-1.38812">
        <ele>4.6</ele>
        <time>2023-05-18T02:29:10Z</time>
      </trkpt>
      <trkpt lat="49.69698" lon="-1.38849">
        <ele>4.5</ele>
        <time>2023-05-18T02:29:13Z</time>
      </trkpt>
      <trkpt lat="49.69686" lon="-1.38879">
        <ele>4.9</ele>
        <time>2023-05-18T02:29:16Z</time>
      </trkpt>
      <trkpt lat="49.69674" lon="-1.38905">
        <ele>5.4</ele>
        <time>2023-05-18T02:29:19Z</time>
      </trkpt>
      <trkpt lat="49.69662" lon="-1.38932">
        <ele>6.5</ele>
        <time>2023-05-18T02:29:23Z</time>
      </trkpt>
      <trkpt lat="49.69651" lon="-1.38959">
        <ele>7.7</ele>
        <time>2023-05-18T02:29:28Z</time>
      </trkpt>
      <trkpt lat="49.6964" lon="-1.38982">
        <ele>8.6</ele>
        <time>2023-05-18T02:29:33Z</time>
      </trkpt>
      <trkpt lat="49.69629" lon="-1.39005">
        <ele>9.2</ele>
        <time>2023-05-18T02:29:38Z</time>
      </trkpt>
      <trkpt lat="49.69618" lon="-1.39029">
        <ele>9.6</ele>
        <time>2023-05-18T02:29:42Z</time>
      </trkpt>
      <trkpt lat="49.69607" lon="-1.39051">
        <ele>9.8</ele>
        <time>2023-05-18T02:29:46Z</time>
      </trkpt>
      <trkpt lat="49.69596" lon="-1.39074">
        <ele>9.9</ele>
        <time>2023-05-18T02:29:50Z</time>
      </trkpt>
      <trkpt lat="49.69584" lon="-1.39097">
        <ele>10.2</ele>
        <time>2023-05-18T02:29:54Z</time>
      </trkpt>
      <trkpt lat="49.69571" lon="-1.3912">
        <ele>10.4</ele>
        <time>2023-05-18T02:29:58Z</time>
      </trkpt>
      <trkpt lat="49.69558" lon="-1.39147">
        <ele>10.7</ele>
        <time>2023-05-18T02:30:03Z</time>
      </trkpt>
      <trkpt lat="49.69545" lon="-1.39171">
        <ele>11</ele>
        <time>2023-05-18T02:30:07Z</time>
      </trkpt>
      <trkpt lat="49.69533" lon="-1.39193">
        <ele>11.3</ele>
        <time>2023-05-18T02:30:11Z</time>
      </trkpt>
      <trkpt lat="49.69522" lon="-1.39215">
        <ele>11.6</ele>
        <time>2023-05-18T02:30:15Z</time>
      </trkpt>
      <trkpt lat="49.69508" lon="-1.39242">
        <ele>11.7</ele>
        <time>2023-05-18T02:30:20Z</time>
      </trkpt>
      <trkpt lat="49.69498" lon="-1.39266">
        <ele>11.5</ele>
        <time>2023-05-18T02:30:24Z</time>
      </trkpt>
      <trkpt lat="49.69487" lon="-1.39295">
        <ele>10.9</ele>
        <time>2023-05-18T02:30:28Z</time>
      </trkpt>
      <trkpt lat="49.69476" lon="-1.39326">
        <ele>9.8</ele>
        <time>2023-05-18T02:30:32Z</time>
      </trkpt>
      <trkpt lat="49.6947" lon="-1.39354">
        <ele>8.8</ele>
        <time>2023-05-18T02:30:35Z</time>
      </trkpt>
      <trkpt lat="49.69466" lon="-1.39386">
        <ele>7.9</ele>
        <time>2023-05-18T02:30:38Z</time>
      </trkpt>
      <trkpt lat="49.69462" lon="-1.39421">
        <ele>6.7</ele>
        <time>2023-05-18T02:30:41Z</time>
      </trkpt>
      <trkpt lat="49.69458" lon="-1.39461">
        <ele>5.4</ele>
        <time>2023-05-18T02:30:44Z</time>
      </trkpt>
      <trkpt lat="49.69455" lon="-1.39498">
        <ele>4.6</ele>
        <time>2023-05-18T02:30:47Z</time>
      </trkpt>
      <trkpt lat="49.69458" lon="-1.39536">
        <ele>4.1</ele>
        <time>2023-05-18T02:30:50Z</time>
      </trkpt>
      <trkpt lat="49.69465" lon="-1.39574">
        <ele>4</ele>
        <time>2023-05-18T02:30:53Z</time>
      </trkpt>
      <trkpt lat="49.69475" lon="-1.39605">
        <ele>4.1</ele>
        <time>2023-05-18T02:30:56Z</time>
      </trkpt>
      <trkpt lat="49.69484" lon="-1.39634">
        <ele>4.6</ele>
        <time>2023-05-18T02:30:59Z</time>
      </trkpt>
      <trkpt lat="49.69494" lon="-1.39665">
        <ele>5.4</ele>
        <time>2023-05-18T02:31:03Z</time>
      </trkpt>
      <trkpt lat="49.69504" lon="-1.39693">
        <ele>6.7</ele>
        <time>2023-05-18T02:31:08Z</time>
      </trkpt>
      <trkpt lat="49.69511" lon="-1.39722">
        <ele>8.1</ele>
        <time>2023-05-18T02:31:14Z</time>
      </trkpt>
      <trkpt lat="49.69515" lon="-1.39751">
        <ele>9.4</ele>
        <time>2023-05-18T02:31:20Z</time>
      </trkpt>
      <trkpt lat="49.69513" lon="-1.3978">
        <ele>10.6</ele>
        <time>2023-05-18T02:31:26Z</time>
      </trkpt>
      <trkpt lat="49.69509" lon="-1.39807">
        <ele>11.7</ele>
        <time>2023-05-18T02:31:32Z</time>
      </trkpt>
      <trkpt lat="49.69501" lon="-1.39834">
        <ele>12.9</ele>
        <time>2023-05-18T02:31:40Z</time>
      </trkpt>
      <trkpt lat="49.69492" lon="-1.39858">
        <ele>13.9</ele>
        <time>2023-05-18T02:31:47Z</time>
      </trkpt>
      <trkpt lat="49.69481" lon="-1.39885">
        <ele>14.8</ele>
        <time>2023-05-18T02:31:54Z</time>
      </trkpt>
      <trkpt lat="49.6947" lon="-1.39909">
        <ele>15.3</ele>
        <time>2023-05-18T02:32:01Z</time>
      </trkpt>
      <trkpt lat="49.69458" lon="-1.39935">
        <ele>15.6</ele>
        <time>2023-05-18T02:32:07Z</time>
      </trkpt>
      <trkpt lat="49.69447" lon="-1.39963">
        <ele>15.6</ele>
        <time>2023-05-18T02:32:13Z</time>
      </trkpt>
      <trkpt lat="49.69435" lon="-1.39989">
        <ele>15.2</ele>
        <time>2023-05-18T02:32:18Z</time>
      </trkpt>
      <trkpt lat="49.69424" lon="-1.40015">
        <ele>14.7</ele>
        <time>2023-05-18T02:32:22Z</time>
      </trkpt>
      <trkpt lat="49.69412" lon="-1.40043">
        <ele>14.1</ele>
        <time>2023-05-18T02:32:26Z</time>
      </trkpt>
      <trkpt lat="49.694" lon="-1.40071">
        <ele>13.8</ele>
        <time>2023-05-18T02:32:30Z</time>
      </trkpt>
      <trkpt lat="49.69389" lon="-1.40099">
        <ele>13.8</ele>
        <time>2023-05-18T02:32:34Z</time>
      </trkpt>
      <trkpt lat="49.69381" lon="-1.40125">
        <ele>13.8</ele>
        <time>2023-05-18T02:32:38Z</time>
      </trkpt>
      <trkpt lat="49.69376" lon="-1.40152">
        <ele>13.9</ele>
        <time>2023-05-18T02:32:42Z</time>
      </trkpt>
      <trkpt lat="49.69372" lon="-1.40184">
        <ele>14.1</ele>
        <time>2023-05-18T02:32:46Z</time>
      </trkpt>
      <trkpt lat="49.69371" lon="-1.40217">
        <ele>14.3</ele>
        <time>2023-05-18T02:32:50Z</time>
      </trkpt>
      <trkpt lat="49.69374" lon="-1.40246">
        <ele>14.6</ele>
        <time>2023-05-18T02:32:54Z</time>
      </trkpt>
      <trkpt lat="49.69379" lon="-1.40274">
        <ele>15</ele>
        <time>2023-05-18T02:32:58Z</time>
      </trkpt>
      <trkpt lat="49.69383" lon="-1.40303">
        <ele>15.4</ele>
        <time>2023-05-18T02:33:02Z</time>
      </trkpt>
      <trkpt lat="49.69388" lon="-1.4033">
        <ele>15.7</ele>
        <time>2023-05-18T02:33:06Z</time>
      </trkpt>
      <trkpt lat="49.69393" lon="-1.40357">
        <ele>16.1</ele>
        <time>2023-05-18T02:33:10Z</time>
      </trkpt>
      <trkpt lat="49.69399" lon="-1.40387">
        <ele>16.4</ele>
        <time>2023-05-18T02:33:14Z</time>
      </trkpt>
      <trkpt lat="49.69404" lon="-1.40417">
        <ele>16.5</ele>
        <time>2023-05-18T02:33:18Z</time>
      </trkpt>
      <trkpt lat="49.69408" lon="-1.40445">
        <ele>16.7</ele>
        <time>2023-05-18T02:33:22Z</time>
      </trkpt>
      <trkpt lat="49.6941" lon="-1.40475">
        <ele>17</ele>
        <time>2023-05-18T02:33:27Z</time>
      </trkpt>
      <trkpt lat="49.69411" lon="-1.40508">
        <ele>17.2</ele>
        <time>2023-05-18T02:33:32Z</time>
      </trkpt>
      <trkpt lat="49.69409" lon="-1.40541">
        <ele>17.7</ele>
        <time>2023-05-18T02:33:37Z</time>
      </trkpt>
      <trkpt lat="49.69411" lon="-1.40571">
        <ele>18.3</ele>
        <time>2023-05-18T02:33:42Z</time>
      </trkpt>
      <trkpt lat="49.69407" lon="-1.40602">
        <ele>19.2</ele>
        <time>2023-05-18T02:33:48Z</time>
      </trkpt>
      <trkpt lat="49.69404" lon="-1.4063">
        <ele>20</ele>
        <time>2023-05-18T02:33:54Z</time>
      </trkpt>
      <trkpt lat="49.69397" lon="-1.40658">
        <ele>20.8</ele>
        <time>2023-05-18T02:34:01Z</time>
      </trkpt>
      <trkpt lat="49.69389" lon="-1.40687">
        <ele>21.6</ele>
        <time>2023-05-18T02:34:08Z</time>
      </trkpt>
      <trkpt lat="49.6938" lon="-1.40716">
        <ele>22.3</ele>
        <time>2023-05-18T02:34:15Z</time>
      </trkpt>
      <trkpt lat="49.69371" lon="-1.40745">
        <ele>22.9</ele>
        <time>2023-05-18T02:34:21Z</time>
      </trkpt>
      <trkpt lat="49.6936" lon="-1.40773">
        <ele>23.5</ele>
        <time>2023-05-18T02:34:27Z</time>
      </trkpt>
      <trkpt lat="49.69353" lon="-1.408">
        <ele>23.8</ele>
        <time>2023-05-18T02:34:32Z</time>
      </trkpt>
      <trkpt lat="49.69346" lon="-1.40825">
        <ele>24.1</ele>
        <time>2023-05-18T02:34:37Z</time>
      </trkpt>
      <trkpt lat="49.6934" lon="-1.40853">
        <ele>24.3</ele>
        <time>2023-05-18T02:34:42Z</time>
      </trkpt>
      <trkpt lat="49.69333" lon="-1.40881">
        <ele>24.4</ele>
        <time>2023-05-18T02:34:47Z</time>
      </trkpt>
      <trkpt lat="49.69329" lon="-1.40912">
        <ele>24.6</ele>
        <time>2023-05-18T02:34:52Z</time>
      </trkpt>
      <trkpt lat="49.69325" lon="-1.40943">
        <ele>24.8</ele>
        <time>2023-05-18T02:34:57Z</time>
      </trkpt>
      <trkpt lat="49.69325" lon="-1.40973">
        <ele>24.9</ele>
        <time>2023-05-18T02:35:02Z</time>
      </trkpt>
      <trkpt lat="49.69327" lon="-1.41002">
        <ele>25.1</ele>
        <time>2023-05-18T02:35:07Z</time>
      </trkpt>
      <trkpt lat="49.6933" lon="-1.41033">
        <ele>25.1</ele>
        <time>2023-05-18T02:35:12Z</time>
      </trkpt>
      <trkpt lat="49.69335" lon="-1.41065">
        <ele>25.2</ele>
        <time>2023-05-18T02:35:17Z</time>
      </trkpt>
      <trkpt lat="49.69342" lon="-1.41093">
        <ele>25.2</ele>
        <time>2023-05-18T02:35:22Z</time>
      </trkpt>
      <trkpt lat="49.6935" lon="-1.41123">
        <ele>25.1</ele>
        <time>2023-05-18T02:35:27Z</time>
      </trkpt>
      <trkpt lat="49.69358" lon="-1.41156">
        <ele>24.7</ele>
        <time>2023-05-18T02:35:32Z</time>
      </trkpt>
      <trkpt lat="49.69365" lon="-1.41184">
        <ele>24.5</ele>
        <time>2023-05-18T02:35:36Z</time>
      </trkpt>
      <trkpt lat="49.6937" lon="-1.41213">
        <ele>24.1</ele>
        <time>2023-05-18T02:35:40Z</time>
      </trkpt>
      <trkpt lat="49.69376" lon="-1.41243">
        <ele>23.8</ele>
        <time>2023-05-18T02:35:44Z</time>
      </trkpt>
      <trkpt lat="49.69383" lon="-1.41274">
        <ele>23.1</ele>
        <time>2023-05-18T02:35:48Z</time>
      </trkpt>
      <trkpt lat="49.69386" lon="-1.41303">
        <ele>22.4</ele>
        <time>2023-05-18T02:35:51Z</time>
      </trkpt>
      <trkpt lat="49.69386" lon="-1.41336">
        <ele>21.7</ele>
        <time>2023-05-18T02:35:54Z</time>
      </trkpt>
      <trkpt lat="49.69384" lon="-1.4137">
        <ele>21.1</ele>
        <time>2023-05-18T02:35:57Z</time>
      </trkpt>
      <trkpt lat="49.69383" lon="-1.41406">
        <ele>20.5</ele>
        <time>2023-05-18T02:36:00Z</time>
      </trkpt>
      <trkpt lat="49.69382" lon="-1.41439">
        <ele>20.1</ele>
        <time>2023-05-18T02:36:03Z</time>
      </trkpt>
      <trkpt lat="49.6938" lon="-1.41469">
        <ele>19.7</ele>
        <time>2023-05-18T02:36:06Z</time>
      </trkpt>
      <trkpt lat="49.6938" lon="-1.41505">
        <ele>19.3</ele>
        <time>2023-05-18T02:36:10Z</time>
      </trkpt>
      <trkpt lat="49.69381" lon="-1.41542">
        <ele>18.9</ele>
        <time>2023-05-18T02:36:14Z</time>
      </trkpt>
      <trkpt lat="49.69381" lon="-1.41571">
        <ele>18.5</ele>
        <time>2023-05-18T02:36:17Z</time>
      </trkpt>
      <trkpt lat="49.69381" lon="-1.41602">
        <ele>17.9</ele>
        <time>2023-05-18T02:36:20Z</time>
      </trkpt>
      <trkpt lat="49.69381" lon="-1.41632">
        <ele>17.2</ele>
        <time>2023-05-18T02:36:23Z</time>
      </trkpt>
      <trkpt lat="49.69381" lon="-1.41665">
        <ele>16.4</ele>
        <time>2023-05-18T02:36:26Z</time>
      </trkpt>
      <trkpt lat="49.69381" lon="-1.41699">
        <ele>15.4</ele>
        <time>2023-05-18T02:36:29Z</time>
      </trkpt>
      <trkpt lat="49.69382" lon="-1.41733">
        <ele>14.4</ele>
        <time>2023-05-18T02:36:32Z</time>
      </trkpt>
      <trkpt lat="49.69382" lon="-1.41769">
        <ele>13.4</ele>
        <time>2023-05-18T02:36:35Z</time>
      </trkpt>
      <trkpt lat="49.69382" lon="-1.41805">
        <ele>12.6</ele>
        <time>2023-05-18T02:36:38Z</time>
      </trkpt>
      <trkpt lat="49.69383" lon="-1.41839">
        <ele>12</ele>
        <time>2023-05-18T02:36:41Z</time>
      </trkpt>
      <trkpt lat="49.69384" lon="-1.41872">
        <ele>11.6</ele>
        <time>2023-05-18T02:36:44Z</time>
      </trkpt>
      <trkpt lat="49.69383" lon="-1.41909">
        <ele>11.4</ele>
        <time>2023-05-18T02:36:47Z</time>
      </trkpt>
      <trkpt lat="49.69384" lon="-1.41943">
        <ele>11.3</ele>
        <time>2023-05-18T02:36:50Z</time>
      </trkpt>
      <trkpt lat="49.69382" lon="-1.41976">
        <ele>11.6</ele>
        <time>2023-05-18T02:36:53Z</time>
      </trkpt>
      <trkpt lat="49.6938" lon="-1.42007">
        <ele>12</ele>
        <time>2023-05-18T02:36:56Z</time>
      </trkpt>
      <trkpt lat="49.69379" lon="-1.42041">
        <ele>12.6</ele>
        <time>2023-05-18T02:37:00Z</time>
      </trkpt>
      <trkpt lat="49.69375" lon="-1.42072">
        <ele>13.2</ele>
        <time>2023-05-18T02:37:04Z</time>
      </trkpt>
      <trkpt lat="49.69371" lon="-1.42101">
        <ele>13.7</ele>
        <time>2023-05-18T02:37:08Z</time>
      </trkpt>
      <trkpt lat="49.69365" lon="-1.42128">
        <ele>14.2</ele>
        <time>2023-05-18T02:37:12Z</time>
      </trkpt>
      <trkpt lat="49.69359" lon="-1.42159">
        <ele>14.8</ele>
        <time>2023-05-18T02:37:17Z</time>
      </trkpt>
      <trkpt lat="49.69353" lon="-1.42191">
        <ele>15.2</ele>
        <time>2023-05-18T02:37:22Z</time>
      </trkpt>
      <trkpt lat="49.69348" lon="-1.42222">
        <ele>15.3</ele>
        <time>2023-05-18T02:37:27Z</time>
      </trkpt>
      <trkpt lat="49.69341" lon="-1.42253">
        <ele>15.2</ele>
        <time>2023-05-18T02:37:31Z</time>
      </trkpt>
      <trkpt lat="49.69334" lon="-1.42286">
        <ele>14.9</ele>
        <time>2023-05-18T02:37:35Z</time>
      </trkpt>
      <trkpt lat="49.69327" lon="-1.42318">
        <ele>14.6</ele>
        <time>2023-05-18T02:37:39Z</time>
      </trkpt>
      <trkpt lat="49.69322" lon="-1.42344">
        <ele>14.3</ele>
        <time>2023-05-18T02:37:42Z</time>
      </trkpt>
      <trkpt lat="49.69317" lon="-1.42379">
        <ele>14</ele>
        <time>2023-05-18T02:37:46Z</time>
      </trkpt>
      <trkpt lat="49.69312" lon="-1.42407">
        <ele>13.9</ele>
        <time>2023-05-18T02:37:49Z</time>
      </trkpt>
      <trkpt lat="49.6931" lon="-1.42443">
        <ele>13.6</ele>
        <time>2023-05-18T02:37:53Z</time>
      </trkpt>
      <trkpt lat="49.69307" lon="-1.42473">
        <ele>13.4</ele>
        <time>2023-05-18T02:37:56Z</time>
      </trkpt>
      <trkpt lat="49.69307" lon="-1.42501">
        <ele>13.1</ele>
        <time>2023-05-18T02:37:59Z</time>
      </trkpt>
      <trkpt lat="49.69307" lon="-1.4253">
        <ele>12.8</ele>
        <time>2023-05-18T02:38:02Z</time>
      </trkpt>
      <trkpt lat="49.69309" lon="-1.42561">
        <ele>12.5</ele>
        <time>2023-05-18T02:38:05Z</time>
      </trkpt>
      <trkpt lat="49.69313" lon="-1.4259">
        <ele>12.1</ele>
        <time>2023-05-18T02:38:08Z</time>
      </trkpt>
      <trkpt lat="49.69318" lon="-1.42619">
        <ele>11.8</ele>
        <time>2023-05-18T02:38:11Z</time>
      </trkpt>
      <trkpt lat="49.69323" lon="-1.42649">
        <ele>11.5</ele>
        <time>2023-05-18T02:38:14Z</time>
      </trkpt>
      <trkpt lat="49.69328" lon="-1.42677">
        <ele>11.3</ele>
        <time>2023-05-18T02:38:17Z</time>
      </trkpt>
      <trkpt lat="49.69334" lon="-1.42713">
        <ele>11.1</ele>
        <time>2023-05-18T02:38:21Z</time>
      </trkpt>
      <trkpt lat="49.6934" lon="-1.42748">
        <ele>11</ele>
        <time>2023-05-18T02:38:25Z</time>
      </trkpt>
      <trkpt lat="49.69343" lon="-1.42781">
        <ele>11.1</ele>
        <time>2023-05-18T02:38:29Z</time>
      </trkpt>
      <trkpt lat="49.69344" lon="-1.42811">
        <ele>11.4</ele>
        <time>2023-05-18T02:38:33Z</time>
      </trkpt>
      <trkpt lat="49.69345" lon="-1.42846">
        <ele>11.6</ele>
        <time>2023-05-18T02:38:38Z</time>
      </trkpt>
      <trkpt lat="49.69341" lon="-1.42875">
        <ele>11.8</ele>
        <time>2023-05-18T02:38:42Z</time>
      </trkpt>
      <trkpt lat="49.69338" lon="-1.42909">
        <ele>12</ele>
        <time>2023-05-18T02:38:47Z</time>
      </trkpt>
      <trkpt lat="49.69332" lon="-1.42937">
        <ele>12.2</ele>
        <time>2023-05-18T02:38:51Z</time>
      </trkpt>
      <trkpt lat="49.69325" lon="-1.42967">
        <ele>12.4</ele>
        <time>2023-05-18T02:38:56Z</time>
      </trkpt>
      <trkpt lat="49.69319" lon="-1.42997">
        <ele>12.7</ele>
        <time>2023-05-18T02:39:01Z</time>
      </trkpt>
      <trkpt lat="49.69312" lon="-1.43028">
        <ele>13</ele>
        <time>2023-05-18T02:39:06Z</time>
      </trkpt>
      <trkpt lat="49.69306" lon="-1.43057">
        <ele>13.4</ele>
        <time>2023-05-18T02:39:11Z</time>
      </trkpt>
      <trkpt lat="49.693" lon="-1.43087">
        <ele>13.7</ele>
        <time>2023-05-18T02:39:16Z</time>
      </trkpt>
      <trkpt lat="49.69293" lon="-1.43114">
        <ele>14.2</ele>
        <time>2023-05-18T02:39:20Z</time>
      </trkpt>
      <trkpt lat="49.69288" lon="-1.43142">
        <ele>14.7</ele>
        <time>2023-05-18T02:39:24Z</time>
      </trkpt>
      <trkpt lat="49.69281" lon="-1.43171">
        <ele>15.2</ele>
        <time>2023-05-18T02:39:29Z</time>
      </trkpt>
      <trkpt lat="49.69275" lon="-1.432">
        <ele>15.6</ele>
        <time>2023-05-18T02:39:34Z</time>
      </trkpt>
      <trkpt lat="49.69269" lon="-1.43228">
        <ele>16.2</ele>
        <time>2023-05-18T02:39:39Z</time>
      </trkpt>
      <trkpt lat="49.69263" lon="-1.43257">
        <ele>16.8</ele>
        <time>2023-05-18T02:39:44Z</time>
      </trkpt>
      <trkpt lat="49.69256" lon="-1.43285">
        <ele>17.5</ele>
        <time>2023-05-18T02:39:49Z</time>
      </trkpt>
      <trkpt lat="49.69251" lon="-1.43313">
        <ele>18</ele>
        <time>2023-05-18T02:39:54Z</time>
      </trkpt>
      <trkpt lat="49.69245" lon="-1.43339">
        <ele>18.5</ele>
        <time>2023-05-18T02:39:59Z</time>
      </trkpt>
      <trkpt lat="49.69239" lon="-1.43371">
        <ele>19</ele>
        <time>2023-05-18T02:40:05Z</time>
      </trkpt>
      <trkpt lat="49.69232" lon="-1.43399">
        <ele>19.4</ele>
        <time>2023-05-18T02:40:11Z</time>
      </trkpt>
      <trkpt lat="49.69226" lon="-1.4343">
        <ele>19.9</ele>
        <time>2023-05-18T02:40:17Z</time>
      </trkpt>
      <trkpt lat="49.69219" lon="-1.43459">
        <ele>20.3</ele>
        <time>2023-05-18T02:40:23Z</time>
      </trkpt>
      <trkpt lat="49.69214" lon="-1.43487">
        <ele>20.6</ele>
        <time>2023-05-18T02:40:28Z</time>
      </trkpt>
      <trkpt lat="49.69205" lon="-1.43516">
        <ele>20.8</ele>
        <time>2023-05-18T02:40:34Z</time>
      </trkpt>
      <trkpt lat="49.69199" lon="-1.43546">
        <ele>20.9</ele>
        <time>2023-05-18T02:40:39Z</time>
      </trkpt>
      <trkpt lat="49.69194" lon="-1.43573">
        <ele>20.7</ele>
        <time>2023-05-18T02:40:44Z</time>
      </trkpt>
      <trkpt lat="49.69187" lon="-1.43606">
        <ele>20.5</ele>
        <time>2023-05-18T02:40:49Z</time>
      </trkpt>
      <trkpt lat="49.6918" lon="-1.43635">
        <ele>20.2</ele>
        <time>2023-05-18T02:40:53Z</time>
      </trkpt>
      <trkpt lat="49.69173" lon="-1.43667">
        <ele>19.5</ele>
        <time>2023-05-18T02:40:57Z</time>
      </trkpt>
      <trkpt lat="49.69167" lon="-1.43694">
        <ele>18.8</ele>
        <time>2023-05-18T02:41:00Z</time>
      </trkpt>
      <trkpt lat="49.69162" lon="-1.43723">
        <ele>18.1</ele>
        <time>2023-05-18T02:41:03Z</time>
      </trkpt>
      <trkpt lat="49.69155" lon="-1.43753">
        <ele>17.5</ele>
        <time>2023-05-18T02:41:06Z</time>
      </trkpt>
      <trkpt lat="49.69149" lon="-1.43783">
        <ele>17.1</ele>
        <time>2023-05-18T02:41:09Z</time>
      </trkpt>
      <trkpt lat="49.69142" lon="-1.43814">
        <ele>16.8</ele>
        <time>2023-05-18T02:41:12Z</time>
      </trkpt>
      <trkpt lat="49.69135" lon="-1.43843">
        <ele>16.6</ele>
        <time>2023-05-18T02:41:15Z</time>
      </trkpt>
      <trkpt lat="49.69129" lon="-1.43873">
        <ele>16.6</ele>
        <time>2023-05-18T02:41:18Z</time>
      </trkpt>
      <trkpt lat="49.69124" lon="-1.43901">
        <ele>16.4</ele>
        <time>2023-05-18T02:41:21Z</time>
      </trkpt>
      <trkpt lat="49.69116" lon="-1.43934">
        <ele>16.5</ele>
        <time>2023-05-18T02:41:25Z</time>
      </trkpt>
      <trkpt lat="49.69109" lon="-1.43967">
        <ele>16.8</ele>
        <time>2023-05-18T02:41:29Z</time>
      </trkpt>
      <trkpt lat="49.69102" lon="-1.43998">
        <ele>17.2</ele>
        <time>2023-05-18T02:41:33Z</time>
      </trkpt>
      <trkpt lat="49.69095" lon="-1.44028">
        <ele>17.6</ele>
        <time>2023-05-18T02:41:37Z</time>
      </trkpt>
      <trkpt lat="49.69089" lon="-1.44054">
        <ele>18.2</ele>
        <time>2023-05-18T02:41:41Z</time>
      </trkpt>
      <trkpt lat="49.69082" lon="-1.44082">
        <ele>18.9</ele>
        <time>2023-05-18T02:41:46Z</time>
      </trkpt>
      <trkpt lat="49.69076" lon="-1.4411">
        <ele>19.5</ele>
        <time>2023-05-18T02:41:51Z</time>
      </trkpt>
      <trkpt lat="49.6907" lon="-1.44137">
        <ele>20.1</ele>
        <time>2023-05-18T02:41:57Z</time>
      </trkpt>
      <trkpt lat="49.69065" lon="-1.44166">
        <ele>20.6</ele>
        <time>2023-05-18T02:42:02Z</time>
      </trkpt>
      <trkpt lat="49.69056" lon="-1.44198">
        <ele>20.9</ele>
        <time>2023-05-18T02:42:08Z</time>
      </trkpt>
      <trkpt lat="49.69052" lon="-1.44225">
        <ele>21.2</ele>
        <time>2023-05-18T02:42:13Z</time>
      </trkpt>
      <trkpt lat="49.69042" lon="-1.44254">
        <ele>21.3</ele>
        <time>2023-05-18T02:42:19Z</time>
      </trkpt>
      <trkpt lat="49.69031" lon="-1.44281">
        <ele>21.3</ele>
        <time>2023-05-18T02:42:24Z</time>
      </trkpt>
      <trkpt lat="49.6902" lon="-1.44305">
        <ele>21.3</ele>
        <time>2023-05-18T02:42:28Z</time>
      </trkpt>
      <trkpt lat="49.69006" lon="-1.4433">
        <ele>21.3</ele>
        <time>2023-05-18T02:42:33Z</time>
      </trkpt>
      <trkpt lat="49.68989" lon="-1.44354">
        <ele>21.4</ele>
        <time>2023-05-18T02:42:38Z</time>
      </trkpt>
      <trkpt lat="49.68972" lon="-1.44376">
        <ele>21.4</ele>
        <time>2023-05-18T02:42:43Z</time>
      </trkpt>
      <trkpt lat="49.68953" lon="-1.44395">
        <ele>21.5</ele>
        <time>2023-05-18T02:42:48Z</time>
      </trkpt>
      <trkpt lat="49.68938" lon="-1.44409">
        <ele>21.6</ele>
        <time>2023-05-18T02:42:52Z</time>
      </trkpt>
      <trkpt lat="49.6892" lon="-1.44419">
        <ele>21.6</ele>
        <time>2023-05-18T02:42:56Z</time>
      </trkpt>
      <trkpt lat="49.68903" lon="-1.44427">
        <ele>21.6</ele>
        <time>2023-05-18T02:43:00Z</time>
      </trkpt>
      <trkpt lat="49.68881" lon="-1.44435">
        <ele>21.5</ele>
        <time>2023-05-18T02:43:05Z</time>
      </trkpt>
      <trkpt lat="49.68859" lon="-1.44439">
        <ele>21.3</ele>
        <time>2023-05-18T02:43:10Z</time>
      </trkpt>
      <trkpt lat="49.68841" lon="-1.44441">
        <ele>21.3</ele>
        <time>2023-05-18T02:43:14Z</time>
      </trkpt>
      <trkpt lat="49.68822" lon="-1.44439">
        <ele>21.3</ele>
        <time>2023-05-18T02:43:18Z</time>
      </trkpt>
      <trkpt lat="49.68801" lon="-1.44433">
        <ele>21.6</ele>
        <time>2023-05-18T02:43:23Z</time>
      </trkpt>
      <trkpt lat="49.68781" lon="-1.44425">
        <ele>22</ele>
        <time>2023-05-18T02:43:28Z</time>
      </trkpt>
      <trkpt lat="49.68763" lon="-1.44416">
        <ele>22.8</ele>
        <time>2023-05-18T02:43:33Z</time>
      </trkpt>
      <trkpt lat="49.68744" lon="-1.44406">
        <ele>23.6</ele>
        <time>2023-05-18T02:43:39Z</time>
      </trkpt>
      <trkpt lat="49.68727" lon="-1.44396">
        <ele>24.3</ele>
        <time>2023-05-18T02:43:45Z</time>
      </trkpt>
      <trkpt lat="49.68711" lon="-1.44385">
        <ele>25.2</ele>
        <time>2023-05-18T02:43:51Z</time>
      </trkpt>
      <trkpt lat="49.68693" lon="-1.44372">
        <ele>26.1</ele>
        <time>2023-05-18T02:43:57Z</time>
      </trkpt>
      <trkpt lat="49.68676" lon="-1.4436">
        <ele>27</ele>
        <time>2023-05-18T02:44:03Z</time>
      </trkpt>
      <trkpt lat="49.68655" lon="-1.44351">
        <ele>27.9</ele>
        <time>2023-05-18T02:44:10Z</time>
      </trkpt>
      <trkpt lat="49.68636" lon="-1.44342">
        <ele>28.7</ele>
        <time>2023-05-18T02:44:16Z</time>
      </trkpt>
      <trkpt lat="49.68616" lon="-1.44337">
        <ele>29.1</ele>
        <time>2023-05-18T02:44:22Z</time>
      </trkpt>
      <trkpt lat="49.68598" lon="-1.44337">
        <ele>29.2</ele>
        <time>2023-05-18T02:44:27Z</time>
      </trkpt>
      <trkpt lat="49.68577" lon="-1.44338">
        <ele>29</ele>
        <time>2023-05-18T02:44:32Z</time>
      </trkpt>
      <trkpt lat="49.68559" lon="-1.44343">
        <ele>28.8</ele>
        <time>2023-05-18T02:44:36Z</time>
      </trkpt>
      <trkpt lat="49.68538" lon="-1.44349">
        <ele>28.2</ele>
        <time>2023-05-18T02:44:40Z</time>
      </trkpt>
      <trkpt lat="49.68518" lon="-1.4436">
        <ele>27.5</ele>
        <time>2023-05-18T02:44:44Z</time>
      </trkpt>
      <trkpt lat="49.68498" lon="-1.44372">
        <ele>26.7</ele>
        <time>2023-05-18T02:44:48Z</time>
      </trkpt>
      <trkpt lat="49.68483" lon="-1.44387">
        <ele>25.5</ele>
        <time>2023-05-18T02:44:51Z</time>
      </trkpt>
      <trkpt lat="49.68467" lon="-1.44408">
        <ele>24.3</ele>
        <time>2023-05-18T02:44:54Z</time>
      </trkpt>
      <trkpt lat="49.68449" lon="-1.44428">
        <ele>22.7</ele>
        <time>2023-05-18T02:44:57Z</time>
      </trkpt>
      <trkpt lat="49.68427" lon="-1.44447">
        <ele>20.9</ele>
        <time>2023-05-18T02:45:00Z</time>
      </trkpt>
      <trkpt lat="49.68406" lon="-1.4447">
        <ele>19</ele>
        <time>2023-05-18T02:45:03Z</time>
      </trkpt>
      <trkpt lat="49.68391" lon="-1.44491">
        <ele>17.8</ele>
        <time>2023-05-18T02:45:05Z</time>
      </trkpt>
      <trkpt lat="49.68376" lon="-1.44511">
        <ele>16.1</ele>
        <time>2023-05-18T02:45:07Z</time>
      </trkpt>
      <trkpt lat="49.6836" lon="-1.44534">
        <ele>14.3</ele>
        <time>2023-05-18T02:45:09Z</time>
      </trkpt>
      <trkpt lat="49.68346" lon="-1.44558">
        <ele>12.4</ele>
        <time>2023-05-18T02:45:11Z</time>
      </trkpt>
      <trkpt lat="49.68331" lon="-1.44584">
        <ele>10.6</ele>
        <time>2023-05-18T02:45:13Z</time>
      </trkpt>
      <trkpt lat="49.68318" lon="-1.4461">
        <ele>9</ele>
        <time>2023-05-18T02:45:15Z</time>
      </trkpt>
      <trkpt lat="49.68302" lon="-1.44638">
        <ele>7.5</ele>
        <time>2023-05-18T02:45:17Z</time>
      </trkpt>
      <trkpt lat="49.6829" lon="-1.44668">
        <ele>6.7</ele>
        <time>2023-05-18T02:45:19Z</time>
      </trkpt>
      <trkpt lat="49.68282" lon="-1.44697">
        <ele>6.4</ele>
        <time>2023-05-18T02:45:21Z</time>
      </trkpt>
      <trkpt lat="49.68281" lon="-1.4473">
        <ele>6.2</ele>
        <time>2023-05-18T02:45:23Z</time>
      </trkpt>
      <trkpt lat="49.68286" lon="-1.4476">
        <ele>6.4</ele>
        <time>2023-05-18T02:45:25Z</time>
      </trkpt>
      <trkpt lat="49.68294" lon="-1.44786">
        <ele>6.8</ele>
        <time>2023-05-18T02:45:27Z</time>
      </trkpt>
      <trkpt lat="49.68307" lon="-1.44818">
        <ele>7.6</ele>
        <time>2023-05-18T02:45:30Z</time>
      </trkpt>
      <trkpt lat="49.68317" lon="-1.44843">
        <ele>8.5</ele>
        <time>2023-05-18T02:45:33Z</time>
      </trkpt>
      <trkpt lat="49.68328" lon="-1.44871">
        <ele>10</ele>
        <time>2023-05-18T02:45:37Z</time>
      </trkpt>
      <trkpt lat="49.68341" lon="-1.44894">
        <ele>11.7</ele>
        <time>2023-05-18T02:45:43Z</time>
      </trkpt>
      <trkpt lat="49.68356" lon="-1.44913">
        <ele>13.5</ele>
        <time>2023-05-18T02:45:52Z</time>
      </trkpt>
      <trkpt lat="49.68373" lon="-1.44927">
        <ele>15.1</ele>
        <time>2023-05-18T02:46:00Z</time>
      </trkpt>
      <trkpt lat="49.68392" lon="-1.44937">
        <ele>17.1</ele>
        <time>2023-05-18T02:46:08Z</time>
      </trkpt>
      <trkpt lat="49.68409" lon="-1.44952">
        <ele>18.9</ele>
        <time>2023-05-18T02:46:17Z</time>
      </trkpt>
      <trkpt lat="49.68425" lon="-1.44968">
        <ele>20.7</ele>
        <time>2023-05-18T02:46:25Z</time>
      </trkpt>
      <trkpt lat="49.68437" lon="-1.44992">
        <ele>22.8</ele>
        <time>2023-05-18T02:46:35Z</time>
      </trkpt>
      <trkpt lat="49.68445" lon="-1.45018">
        <ele>24.9</ele>
        <time>2023-05-18T02:46:45Z</time>
      </trkpt>
      <trkpt lat="49.68448" lon="-1.45047">
        <ele>27.1</ele>
        <time>2023-05-18T02:46:58Z</time>
      </trkpt>
      <trkpt lat="49.68449" lon="-1.45086">
        <ele>29.9</ele>
        <time>2023-05-18T03:20:06Z</time>
      </trkpt>
      <trkpt lat="49.68451" lon="-1.45115">
        <ele>32.2</ele>
        <time>2023-05-18T03:20:19Z</time>
      </trkpt>
      <trkpt lat="49.68453" lon="-1.45143">
        <ele>34.4</ele>
        <time>2023-05-18T03:20:33Z</time>
      </trkpt>
      <trkpt lat="49.68453" lon="-1.45171">
        <ele>36.6</ele>
        <time>2023-05-18T03:20:48Z</time>
      </trkpt>
      <trkpt lat="49.68453" lon="-1.45199">
        <ele>38.5</ele>
        <time>2023-05-18T03:21:02Z</time>
      </trkpt>
      <trkpt lat="49.68451" lon="-1.45229">
        <ele>40.2</ele>
        <time>2023-05-18T03:21:15Z</time>
      </trkpt>
      <trkpt lat="49.68445" lon="-1.45255">
        <ele>41.4</ele>
        <time>2023-05-18T03:21:27Z</time>
      </trkpt>
      <trkpt lat="49.68443" lon="-1.45286">
        <ele>42.3</ele>
        <time>2023-05-18T03:21:37Z</time>
      </trkpt>
      <trkpt lat="49.68439" lon="-1.45316">
        <ele>42.6</ele>
        <time>2023-05-18T03:21:46Z</time>
      </trkpt>
      <trkpt lat="49.68428" lon="-1.45344">
        <ele>42.7</ele>
        <time>2023-05-18T03:21:53Z</time>
      </trkpt>
      <trkpt lat="49.68418" lon="-1.45368">
        <ele>42.8</ele>
        <time>2023-05-18T03:21:59Z</time>
      </trkpt>
      <trkpt lat="49.68405" lon="-1.45391">
        <ele>43</ele>
        <time>2023-05-18T03:22:06Z</time>
      </trkpt>
      <trkpt lat="49.6839" lon="-1.4541">
        <ele>43.2</ele>
        <time>2023-05-18T03:22:12Z</time>
      </trkpt>
      <trkpt lat="49.68374" lon="-1.45424">
        <ele>43.4</ele>
        <time>2023-05-18T03:22:18Z</time>
      </trkpt>
      <trkpt lat="49.68355" lon="-1.45436">
        <ele>43.6</ele>
        <time>2023-05-18T03:22:24Z</time>
      </trkpt>
      <trkpt lat="49.68337" lon="-1.45445">
        <ele>43.8</ele>
        <time>2023-05-18T03:22:30Z</time>
      </trkpt>
      <trkpt lat="49.68316" lon="-1.4545">
        <ele>43.9</ele>
        <time>2023-05-18T03:22:36Z</time>
      </trkpt>
      <trkpt lat="49.68297" lon="-1.45455">
        <ele>44.1</ele>
        <time>2023-05-18T03:22:41Z</time>
      </trkpt>
      <trkpt lat="49.68278" lon="-1.45469">
        <ele>44.2</ele>
        <time>2023-05-18T03:22:47Z</time>
      </trkpt>
      <trkpt lat="49.6826" lon="-1.45482">
        <ele>44.4</ele>
        <time>2023-05-18T03:22:52Z</time>
      </trkpt>
      <trkpt lat="49.68244" lon="-1.45495">
        <ele>44.7</ele>
        <time>2023-05-18T03:22:57Z</time>
      </trkpt>
      <trkpt lat="49.68226" lon="-1.45508">
        <ele>45.1</ele>
        <time>2023-05-18T03:23:02Z</time>
      </trkpt>
      <trkpt lat="49.6821" lon="-1.45522">
        <ele>45.7</ele>
        <time>2023-05-18T03:23:07Z</time>
      </trkpt>
      <trkpt lat="49.68192" lon="-1.45538">
        <ele>46.4</ele>
        <time>2023-05-18T03:23:13Z</time>
      </trkpt>
      <trkpt lat="49.68175" lon="-1.45553">
        <ele>47.2</ele>
        <time>2023-05-18T03:23:19Z</time>
      </trkpt>
      <trkpt lat="49.6816" lon="-1.45575">
        <ele>47.9</ele>
        <time>2023-05-18T03:23:26Z</time>
      </trkpt>
      <trkpt lat="49.68148" lon="-1.45597">
        <ele>48.3</ele>
        <time>2023-05-18T03:23:32Z</time>
      </trkpt>
      <trkpt lat="49.68135" lon="-1.45622">
        <ele>48.8</ele>
        <time>2023-05-18T03:23:39Z</time>
      </trkpt>
      <trkpt lat="49.68125" lon="-1.45648">
        <ele>49.2</ele>
        <time>2023-05-18T03:23:45Z</time>
      </trkpt>
      <trkpt lat="49.68117" lon="-1.45677">
        <ele>49.4</ele>
        <time>2023-05-18T03:23:51Z</time>
      </trkpt>
      <trkpt lat="49.68111" lon="-1.45705">
        <ele>49.4</ele>
        <time>2023-05-18T03:23:56Z</time>
      </trkpt>
      <trkpt lat="49.68109" lon="-1.45733">
        <ele>49.4</ele>
        <time>2023-05-18T03:24:01Z</time>
      </trkpt>
      <trkpt lat="49.68106" lon="-1.45764">
        <ele>49.4</ele>
        <time>2023-05-18T03:24:06Z</time>
      </trkpt>
      <trkpt lat="49.68103" lon="-1.45797">
        <ele>49.4</ele>
        <time>2023-05-18T03:24:11Z</time>
      </trkpt>
      <trkpt lat="49.68102" lon="-1.45825">
        <ele>49.4</ele>
        <time>2023-05-18T03:24:15Z</time>
      </trkpt>
      <trkpt lat="49.68097" lon="-1.45858">
        <ele>49.2</ele>
        <time>2023-05-18T03:24:20Z</time>
      </trkpt>
      <trkpt lat="49.68096" lon="-1.45892">
        <ele>49.1</ele>
        <time>2023-05-18T03:24:25Z</time>
      </trkpt>
      <trkpt lat="49.68093" lon="-1.45922">
        <ele>49.1</ele>
        <time>2023-05-18T03:24:29Z</time>
      </trkpt>
      <trkpt lat="49.6809" lon="-1.45955">
        <ele>49.1</ele>
        <time>2023-05-18T03:24:34Z</time>
      </trkpt>
      <trkpt lat="49.6809" lon="-1.45988">
        <ele>49.3</ele>
        <time>2023-05-18T03:24:39Z</time>
      </trkpt>
      <trkpt lat="49.68086" lon="-1.46019">
        <ele>49.8</ele>
        <time>2023-05-18T03:24:44Z</time>
      </trkpt>
      <trkpt lat="49.68083" lon="-1.46049">
        <ele>50.2</ele>
        <time>2023-05-18T03:24:49Z</time>
      </trkpt>
      <trkpt lat="49.6808" lon="-1.46079">
        <ele>50.7</ele>
        <time>2023-05-18T03:24:54Z</time>
      </trkpt>
      <trkpt lat="49.68079" lon="-1.46112">
        <ele>51.3</ele>
        <time>2023-05-18T03:24:59Z</time>
      </trkpt>
      <trkpt lat="49.68077" lon="-1.46142">
        <ele>51.7</ele>
        <time>2023-05-18T03:25:04Z</time>
      </trkpt>
      <trkpt lat="49.68075" lon="-1.46171">
        <ele>51.9</ele>
        <time>2023-05-18T03:25:09Z</time>
      </trkpt>
      <trkpt lat="49.68073" lon="-1.46202">
        <ele>52.1</ele>
        <time>2023-05-18T03:25:14Z</time>
      </trkpt>
      <trkpt lat="49.68071" lon="-1.46233">
        <ele>52.1</ele>
        <time>2023-05-18T03:25:19Z</time>
      </trkpt>
      <trkpt lat="49.68068" lon="-1.46263">
        <ele>52.1</ele>
        <time>2023-05-18T03:25:24Z</time>
      </trkpt>
      <trkpt lat="49.68064" lon="-1.46292">
        <ele>51.9</ele>
        <time>2023-05-18T03:25:29Z</time>
      </trkpt>
      <trkpt lat="49.68061" lon="-1.4632">
        <ele>51.6</ele>
        <time>2023-05-18T03:25:33Z</time>
      </trkpt>
      <trkpt lat="49.68057" lon="-1.46352">
        <ele>51</ele>
        <time>2023-05-18T03:25:38Z</time>
      </trkpt>
      <trkpt lat="49.68055" lon="-1.4638">
        <ele>50.5</ele>
        <time>2023-05-18T03:25:42Z</time>
      </trkpt>
      <trkpt lat="49.68051" lon="-1.46409">
        <ele>50</ele>
        <time>2023-05-18T03:25:46Z</time>
      </trkpt>
      <trkpt lat="49.6805" lon="-1.4644">
        <ele>49.5</ele>
        <time>2023-05-18T03:25:50Z</time>
      </trkpt>
      <trkpt lat="49.68049" lon="-1.46473">
        <ele>49.1</ele>
        <time>2023-05-18T03:25:54Z</time>
      </trkpt>
      <trkpt lat="49.68046" lon="-1.46504">
        <ele>49</ele>
        <time>2023-05-18T03:25:58Z</time>
      </trkpt>
      <trkpt lat="49.68044" lon="-1.46538">
        <ele>49.1</ele>
        <time>2023-05-18T03:26:02Z</time>
      </trkpt>
      <trkpt lat="49.6804" lon="-1.46569">
        <ele>49.1</ele>
        <time>2023-05-18T03:26:06Z</time>
      </trkpt>
      <trkpt lat="49.68037" lon="-1.46598">
        <ele>49</ele>
        <time>2023-05-18T03:26:10Z</time>
      </trkpt>
      <trkpt lat="49.68032" lon="-1.46628">
        <ele>48.9</ele>
        <time>2023-05-18T03:26:14Z</time>
      </trkpt>
      <trkpt lat="49.68027" lon="-1.46657">
        <ele>48.8</ele>
        <time>2023-05-18T03:26:18Z</time>
      </trkpt>
      <trkpt lat="49.6802" lon="-1.46685">
        <ele>48.6</ele>
        <time>2023-05-18T03:26:22Z</time>
      </trkpt>
      <trkpt lat="49.68011" lon="-1.46714">
        <ele>48.4</ele>
        <time>2023-05-18T03:26:26Z</time>
      </trkpt>
      <trkpt lat="49.68002" lon="-1.46742">
        <ele>48</ele>
        <time>2023-05-18T03:26:30Z</time>
      </trkpt>
      <trkpt lat="49.67991" lon="-1.46769">
        <ele>47.6</ele>
        <time>2023-05-18T03:26:34Z</time>
      </trkpt>
      <trkpt lat="49.67979" lon="-1.46792">
        <ele>47.2</ele>
        <time>2023-05-18T03:26:37Z</time>
      </trkpt>
      <trkpt lat="49.67964" lon="-1.46819">
        <ele>46.5</ele>
        <time>2023-05-18T03:26:41Z</time>
      </trkpt>
      <trkpt lat="49.67951" lon="-1.46842">
        <ele>45.9</ele>
        <time>2023-05-18T03:26:44Z</time>
      </trkpt>
      <trkpt lat="49.67939" lon="-1.46864">
        <ele>45.4</ele>
        <time>2023-05-18T03:26:47Z</time>
      </trkpt>
      <trkpt lat="49.67928" lon="-1.46887">
        <ele>44.6</ele>
        <time>2023-05-18T03:26:50Z</time>
      </trkpt>
      <trkpt lat="49.67916" lon="-1.46915">
        <ele>43.8</ele>
        <time>2023-05-18T03:26:53Z</time>
      </trkpt>
      <trkpt lat="49.67906" lon="-1.46945">
        <ele>42.9</ele>
        <time>2023-05-18T03:26:56Z</time>
      </trkpt>
      <trkpt lat="49.67897" lon="-1.46976">
        <ele>42.2</ele>
        <time>2023-05-18T03:26:59Z</time>
      </trkpt>
      <trkpt lat="49.67888" lon="-1.47008">
        <ele>41.6</ele>
        <time>2023-05-18T03:27:02Z</time>
      </trkpt>
      <trkpt lat="49.67882" lon="-1.4704">
        <ele>41.2</ele>
        <time>2023-05-18T03:27:05Z</time>
      </trkpt>
      <trkpt lat="49.67876" lon="-1.47073">
        <ele>41</ele>
        <time>2023-05-18T03:27:08Z</time>
      </trkpt>
      <trkpt lat="49.67868" lon="-1.47105">
        <ele>40.8</ele>
        <time>2023-05-18T03:27:11Z</time>
      </trkpt>
      <trkpt lat="49.67861" lon="-1.47135">
        <ele>40.5</ele>
        <time>2023-05-18T03:27:14Z</time>
      </trkpt>
      <trkpt lat="49.67854" lon="-1.47165">
        <ele>40.3</ele>
        <time>2023-05-18T03:27:17Z</time>
      </trkpt>
      <trkpt lat="49.67846" lon="-1.47196">
        <ele>40</ele>
        <time>2023-05-18T03:27:20Z</time>
      </trkpt>
      <trkpt lat="49.67839" lon="-1.47225">
        <ele>39.8</ele>
        <time>2023-05-18T03:27:23Z</time>
      </trkpt>
      <trkpt lat="49.67833" lon="-1.47254">
        <ele>39.5</ele>
        <time>2023-05-18T03:27:26Z</time>
      </trkpt>
      <trkpt lat="49.67826" lon="-1.47283">
        <ele>39.3</ele>
        <time>2023-05-18T03:27:29Z</time>
      </trkpt>
      <trkpt lat="49.67819" lon="-1.47312">
        <ele>39.1</ele>
        <time>2023-05-18T03:27:32Z</time>
      </trkpt>
      <trkpt lat="49.67811" lon="-1.47341">
        <ele>39</ele>
        <time>2023-05-18T03:27:35Z</time>
      </trkpt>
      <trkpt lat="49.67805" lon="-1.4737">
        <ele>38.9</ele>
        <time>2023-05-18T03:27:38Z</time>
      </trkpt>
      <trkpt lat="49.67798" lon="-1.47399">
        <ele>38.7</ele>
        <time>2023-05-18T03:27:41Z</time>
      </trkpt>
      <trkpt lat="49.67791" lon="-1.47427">
        <ele>38.6</ele>
        <time>2023-05-18T03:27:44Z</time>
      </trkpt>
      <trkpt lat="49.67785" lon="-1.47454">
        <ele>38.3</ele>
        <time>2023-05-18T03:27:47Z</time>
      </trkpt>
      <trkpt lat="49.6778" lon="-1.47482">
        <ele>38.1</ele>
        <time>2023-05-18T03:27:50Z</time>
      </trkpt>
      <trkpt lat="49.67773" lon="-1.47508">
        <ele>38</ele>
        <time>2023-05-18T03:27:53Z</time>
      </trkpt>
      <trkpt lat="49.67767" lon="-1.47538">
        <ele>37.8</ele>
        <time>2023-05-18T03:27:56Z</time>
      </trkpt>
      <trkpt lat="49.67762" lon="-1.47569">
        <ele>37.6</ele>
        <time>2023-05-18T03:27:59Z</time>
      </trkpt>
      <trkpt lat="49.67758" lon="-1.47599">
        <ele>37.4</ele>
        <time>2023-05-18T03:28:02Z</time>
      </trkpt>
      <trkpt lat="49.67756" lon="-1.4763">
        <ele>37</ele>
        <time>2023-05-18T03:28:05Z</time>
      </trkpt>
      <trkpt lat="49.67755" lon="-1.47663">
        <ele>36.5</ele>
        <time>2023-05-18T03:28:08Z</time>
      </trkpt>
      <trkpt lat="49.67755" lon="-1.47695">
        <ele>35.9</ele>
        <time>2023-05-18T03:28:11Z</time>
      </trkpt>
      <trkpt lat="49.67758" lon="-1.47728">
        <ele>35.2</ele>
        <time>2023-05-18T03:28:14Z</time>
      </trkpt>
      <trkpt lat="49.67762" lon="-1.47762">
        <ele>34.6</ele>
        <time>2023-05-18T03:28:17Z</time>
      </trkpt>
      <trkpt lat="49.67765" lon="-1.47797">
        <ele>34.3</ele>
        <time>2023-05-18T03:28:20Z</time>
      </trkpt>
      <trkpt lat="49.67769" lon="-1.47832">
        <ele>34.1</ele>
        <time>2023-05-18T03:28:23Z</time>
      </trkpt>
      <trkpt lat="49.67772" lon="-1.47865">
        <ele>34.1</ele>
        <time>2023-05-18T03:28:26Z</time>
      </trkpt>
      <trkpt lat="49.67776" lon="-1.47898">
        <ele>34.2</ele>
        <time>2023-05-18T03:28:29Z</time>
      </trkpt>
      <trkpt lat="49.6778" lon="-1.47928">
        <ele>34.4</ele>
        <time>2023-05-18T03:28:32Z</time>
      </trkpt>
      <trkpt lat="49.67783" lon="-1.47964">
        <ele>34.7</ele>
        <time>2023-05-18T03:28:36Z</time>
      </trkpt>
      <trkpt lat="49.67786" lon="-1.47992">
        <ele>34.9</ele>
        <time>2023-05-18T03:28:39Z</time>
      </trkpt>
      <trkpt lat="49.67787" lon="-1.48028">
        <ele>35</ele>
        <time>2023-05-18T03:28:43Z</time>
      </trkpt>
      <trkpt lat="49.67786" lon="-1.48063">
        <ele>34.9</ele>
        <time>2023-05-18T03:28:47Z</time>
      </trkpt>
      <trkpt lat="49.67784" lon="-1.48099">
        <ele>34.8</ele>
        <time>2023-05-18T03:28:51Z</time>
      </trkpt>
      <trkpt lat="49.67779" lon="-1.48134">
        <ele>34.5</ele>
        <time>2023-05-18T03:28:55Z</time>
      </trkpt>
      <trkpt lat="49.67773" lon="-1.48164">
        <ele>34.2</ele>
        <time>2023-05-18T03:28:58Z</time>
      </trkpt>
      <trkpt lat="49.67766" lon="-1.48191">
        <ele>34</ele>
        <time>2023-05-18T03:29:01Z</time>
      </trkpt>
      <trkpt lat="49.67755" lon="-1.48217">
        <ele>33.8</ele>
        <time>2023-05-18T03:29:04Z</time>
      </trkpt>
      <trkpt lat="49.67744" lon="-1.4825">
        <ele>33.4</ele>
        <time>2023-05-18T03:29:08Z</time>
      </trkpt>
      <trkpt lat="49.67734" lon="-1.48272">
        <ele>32.9</ele>
        <time>2023-05-18T03:29:11Z</time>
      </trkpt>
      <trkpt lat="49.67721" lon="-1.48296">
        <ele>32.3</ele>
        <time>2023-05-18T03:29:14Z</time>
      </trkpt>
      <trkpt lat="49.67708" lon="-1.48319">
        <ele>31.8</ele>
        <time>2023-05-18T03:29:17Z</time>
      </trkpt>
      <trkpt lat="49.67693" lon="-1.48342">
        <ele>31.2</ele>
        <time>2023-05-18T03:29:20Z</time>
      </trkpt>
      <trkpt lat="49.67676" lon="-1.48361">
        <ele>30.5</ele>
        <time>2023-05-18T03:29:23Z</time>
      </trkpt>
      <trkpt lat="49.67657" lon="-1.4838">
        <ele>29.9</ele>
        <time>2023-05-18T03:29:26Z</time>
      </trkpt>
      <trkpt lat="49.67638" lon="-1.48396">
        <ele>29.4</ele>
        <time>2023-05-18T03:29:29Z</time>
      </trkpt>
      <trkpt lat="49.67619" lon="-1.4841">
        <ele>28.8</ele>
        <time>2023-05-18T03:29:32Z</time>
      </trkpt>
      <trkpt lat="49.67598" lon="-1.4842">
        <ele>28</ele>
        <time>2023-05-18T03:29:35Z</time>
      </trkpt>
      <trkpt lat="49.67577" lon="-1.48428">
        <ele>27.4</ele>
        <time>2023-05-18T03:29:38Z</time>
      </trkpt>
      <trkpt lat="49.67555" lon="-1.48433">
        <ele>26.8</ele>
        <time>2023-05-18T03:29:41Z</time>
      </trkpt>
      <trkpt lat="49.67534" lon="-1.48438">
        <ele>26.3</ele>
        <time>2023-05-18T03:29:44Z</time>
      </trkpt>
      <trkpt lat="49.67512" lon="-1.48443">
        <ele>25.8</ele>
        <time>2023-05-18T03:29:47Z</time>
      </trkpt>
      <trkpt lat="49.67491" lon="-1.48448">
        <ele>25.4</ele>
        <time>2023-05-18T03:29:50Z</time>
      </trkpt>
      <trkpt lat="49.6747" lon="-1.48456">
        <ele>25</ele>
        <time>2023-05-18T03:29:53Z</time>
      </trkpt>
      <trkpt lat="49.67449" lon="-1.48464">
        <ele>24.8</ele>
        <time>2023-05-18T03:29:56Z</time>
      </trkpt>
      <trkpt lat="49.67429" lon="-1.48476">
        <ele>24.7</ele>
        <time>2023-05-18T03:29:59Z</time>
      </trkpt>
      <trkpt lat="49.6741" lon="-1.48487">
        <ele>24.6</ele>
        <time>2023-05-18T03:30:02Z</time>
      </trkpt>
      <trkpt lat="49.67393" lon="-1.48497">
        <ele>24.6</ele>
        <time>2023-05-18T03:30:05Z</time>
      </trkpt>
      <trkpt lat="49.67371" lon="-1.48508">
        <ele>24.6</ele>
        <time>2023-05-18T03:30:09Z</time>
      </trkpt>
      <trkpt lat="49.67348" lon="-1.48514">
        <ele>24.5</ele>
        <time>2023-05-18T03:30:13Z</time>
      </trkpt>
      <trkpt lat="49.67325" lon="-1.48517">
        <ele>24.3</ele>
        <time>2023-05-18T03:30:17Z</time>
      </trkpt>
      <trkpt lat="49.67302" lon="-1.48518">
        <ele>24.2</ele>
        <time>2023-05-18T03:30:21Z</time>
      </trkpt>
      <trkpt lat="49.67279" lon="-1.48518">
        <ele>24.1</ele>
        <time>2023-05-18T03:30:25Z</time>
      </trkpt>
      <trkpt lat="49.67261" lon="-1.48517">
        <ele>24</ele>
        <time>2023-05-18T03:30:28Z</time>
      </trkpt>
      <trkpt lat="49.67242" lon="-1.48516">
        <ele>23.7</ele>
        <time>2023-05-18T03:30:31Z</time>
      </trkpt>
      <trkpt lat="49.67224" lon="-1.48516">
        <ele>23.4</ele>
        <time>2023-05-18T03:30:34Z</time>
      </trkpt>
      <trkpt lat="49.67204" lon="-1.48515">
        <ele>23</ele>
        <time>2023-05-18T03:30:37Z</time>
      </trkpt>
      <trkpt lat="49.67185" lon="-1.48514">
        <ele>22.7</ele>
        <time>2023-05-18T03:30:40Z</time>
      </trkpt>
      <trkpt lat="49.67166" lon="-1.48514">
        <ele>22.4</ele>
        <time>2023-05-18T03:30:43Z</time>
      </trkpt>
      <trkpt lat="49.67146" lon="-1.48513">
        <ele>22</ele>
        <time>2023-05-18T03:30:46Z</time>
      </trkpt>
      <trkpt lat="49.67126" lon="-1.48513">
        <ele>21.7</ele>
        <time>2023-05-18T03:30:49Z</time>
      </trkpt>
      <trkpt lat="49.67106" lon="-1.4851">
        <ele>21.4</ele>
        <time>2023-05-18T03:30:52Z</time>
      </trkpt>
      <trkpt lat="49.67087" lon="-1.48509">
        <ele>21.1</ele>
        <time>2023-05-18T03:30:55Z</time>
      </trkpt>
      <trkpt lat="49.67068" lon="-1.48508">
        <ele>20.7</ele>
        <time>2023-05-18T03:30:58Z</time>
      </trkpt>
      <trkpt lat="49.67048" lon="-1.48504">
        <ele>20.4</ele>
        <time>2023-05-18T03:31:01Z</time>
      </trkpt>
      <trkpt lat="49.67028" lon="-1.48498">
        <ele>19.9</ele>
        <time>2023-05-18T03:31:04Z</time>
      </trkpt>
      <trkpt lat="49.67007" lon="-1.48492">
        <ele>19.4</ele>
        <time>2023-05-18T03:31:07Z</time>
      </trkpt>
      <trkpt lat="49.66987" lon="-1.48484">
        <ele>19.1</ele>
        <time>2023-05-18T03:31:10Z</time>
      </trkpt>
      <trkpt lat="49.66966" lon="-1.48477">
        <ele>18.9</ele>
        <time>2023-05-18T03:31:13Z</time>
      </trkpt>
      <trkpt lat="49.66944" lon="-1.48475">
        <ele>18.6</ele>
        <time>2023-05-18T03:31:16Z</time>
      </trkpt>
      <trkpt lat="49.66924" lon="-1.48476">
        <ele>18.3</ele>
        <time>2023-05-18T03:31:19Z</time>
      </trkpt>
      <trkpt lat="49.66904" lon="-1.48481">
        <ele>18.1</ele>
        <time>2023-05-18T03:31:22Z</time>
      </trkpt>
      <trkpt lat="49.66885" lon="-1.4849">
        <ele>17.9</ele>
        <time>2023-05-18T03:31:25Z</time>
      </trkpt>
      <trkpt lat="49.66866" lon="-1.48502">
        <ele>17.8</ele>
        <time>2023-05-18T03:31:28Z</time>
      </trkpt>
      <trkpt lat="49.66848" lon="-1.48515">
        <ele>17.8</ele>
        <time>2023-05-18T03:31:31Z</time>
      </trkpt>
      <trkpt lat="49.66833" lon="-1.48532">
        <ele>17.9</ele>
        <time>2023-05-18T03:31:34Z</time>
      </trkpt>
      <trkpt lat="49.66818" lon="-1.4855">
        <ele>18.2</ele>
        <time>2023-05-18T03:31:37Z</time>
      </trkpt>
      <trkpt lat="49.66803" lon="-1.48572">
        <ele>18.7</ele>
        <time>2023-05-18T03:31:41Z</time>
      </trkpt>
      <trkpt lat="49.66788" lon="-1.48598">
        <ele>19.3</ele>
        <time>2023-05-18T03:31:46Z</time>
      </trkpt>
      <trkpt lat="49.66782" lon="-1.48625">
        <ele>19.5</ele>
        <time>2023-05-18T03:31:50Z</time>
      </trkpt>
      <trkpt lat="49.66774" lon="-1.48654">
        <ele>19.8</ele>
        <time>2023-05-18T03:31:54Z</time>
      </trkpt>
      <trkpt lat="49.66769" lon="-1.48684">
        <ele>20.1</ele>
        <time>2023-05-18T03:31:57Z</time>
      </trkpt>
      <trkpt lat="49.66763" lon="-1.48719">
        <ele>20.4</ele>
        <time>2023-05-18T03:32:01Z</time>
      </trkpt>
      <trkpt lat="49.66764" lon="-1.48752">
        <ele>20.6</ele>
        <time>2023-05-18T03:32:05Z</time>
      </trkpt>
      <trkpt lat="49.66767" lon="-1.48788">
        <ele>20.5</ele>
        <time>2023-05-18T03:32:09Z</time>
      </trkpt>
      <trkpt lat="49.66771" lon="-1.4882">
        <ele>20.3</ele>
        <time>2023-05-18T03:32:12Z</time>
      </trkpt>
      <trkpt lat="49.66778" lon="-1.48853">
        <ele>20.4</ele>
        <time>2023-05-18T03:32:15Z</time>
      </trkpt>
      <trkpt lat="49.66786" lon="-1.48881">
        <ele>20.2</ele>
        <time>2023-05-18T03:32:18Z</time>
      </trkpt>
      <trkpt lat="49.66796" lon="-1.48907">
        <ele>20</ele>
        <time>2023-05-18T03:32:21Z</time>
      </trkpt>
      <trkpt lat="49.66808" lon="-1.48932">
        <ele>19.9</ele>
        <time>2023-05-18T03:32:24Z</time>
      </trkpt>
      <trkpt lat="49.66821" lon="-1.48955">
        <ele>19.7</ele>
        <time>2023-05-18T03:32:27Z</time>
      </trkpt>
      <trkpt lat="49.66835" lon="-1.48977">
        <ele>19.7</ele>
        <time>2023-05-18T03:32:30Z</time>
      </trkpt>
      <trkpt lat="49.66848" lon="-1.48998">
        <ele>19.7</ele>
        <time>2023-05-18T03:32:33Z</time>
      </trkpt>
      <trkpt lat="49.66863" lon="-1.49023">
        <ele>19.8</ele>
        <time>2023-05-18T03:32:37Z</time>
      </trkpt>
      <trkpt lat="49.66875" lon="-1.49044">
        <ele>19.9</ele>
        <time>2023-05-18T03:32:40Z</time>
      </trkpt>
      <trkpt lat="49.66885" lon="-1.49067">
        <ele>20</ele>
        <time>2023-05-18T03:32:43Z</time>
      </trkpt>
      <trkpt lat="49.66893" lon="-1.49093">
        <ele>20.2</ele>
        <time>2023-05-18T03:32:46Z</time>
      </trkpt>
      <trkpt lat="49.66901" lon="-1.49123">
        <ele>20.5</ele>
        <time>2023-05-18T03:32:50Z</time>
      </trkpt>
      <trkpt lat="49.66905" lon="-1.49151">
        <ele>20.7</ele>
        <time>2023-05-18T03:32:54Z</time>
      </trkpt>
      <trkpt lat="49.66905" lon="-1.49184">
        <ele>21</ele>
        <time>2023-05-18T03:32:58Z</time>
      </trkpt>
      <trkpt lat="49.66903" lon="-1.49215">
        <ele>21.1</ele>
        <time>2023-05-18T03:33:02Z</time>
      </trkpt>
      <trkpt lat="49.66904" lon="-1.49248">
        <ele>21.1</ele>
        <time>2023-05-18T03:33:06Z</time>
      </trkpt>
      <trkpt lat="49.66899" lon="-1.49283">
        <ele>20.8</ele>
        <time>2023-05-18T03:33:10Z</time>
      </trkpt>
      <trkpt lat="49.66892" lon="-1.4931">
        <ele>20.4</ele>
        <time>2023-05-18T03:33:13Z</time>
      </trkpt>
      <trkpt lat="49.66885" lon="-1.49336">
        <ele>20.2</ele>
        <time>2023-05-18T03:33:16Z</time>
      </trkpt>
      <trkpt lat="49.66876" lon="-1.49361">
        <ele>20.1</ele>
        <time>2023-05-18T03:33:19Z</time>
      </trkpt>
      <trkpt lat="49.66863" lon="-1.4939">
        <ele>20</ele>
        <time>2023-05-18T03:33:23Z</time>
      </trkpt>
      <trkpt lat="49.66849" lon="-1.49418">
        <ele>20</ele>
        <time>2023-05-18T03:33:27Z</time>
      </trkpt>
      <trkpt lat="49.66837" lon="-1.49444">
        <ele>20</ele>
        <time>2023-05-18T03:33:31Z</time>
      </trkpt>
      <trkpt lat="49.66822" lon="-1.49468">
        <ele>20</ele>
        <time>2023-05-18T03:33:35Z</time>
      </trkpt>
      <trkpt lat="49.66806" lon="-1.4949">
        <ele>19.9</ele>
        <time>2023-05-18T03:33:39Z</time>
      </trkpt>
      <trkpt lat="49.66789" lon="-1.4951">
        <ele>19.9</ele>
        <time>2023-05-18T03:33:43Z</time>
      </trkpt>
      <trkpt lat="49.66771" lon="-1.49525">
        <ele>19.9</ele>
        <time>2023-05-18T03:33:47Z</time>
      </trkpt>
      <trkpt lat="49.6675" lon="-1.49535">
        <ele>19.9</ele>
        <time>2023-05-18T03:33:51Z</time>
      </trkpt>
      <trkpt lat="49.6673" lon="-1.49542">
        <ele>19.9</ele>
        <time>2023-05-18T03:33:55Z</time>
      </trkpt>
      <trkpt lat="49.66709" lon="-1.49549">
        <ele>20</ele>
        <time>2023-05-18T03:33:59Z</time>
      </trkpt>
      <trkpt lat="49.66688" lon="-1.49556">
        <ele>20.1</ele>
        <time>2023-05-18T03:34:03Z</time>
      </trkpt>
      <trkpt lat="49.66669" lon="-1.49567">
        <ele>20.2</ele>
        <time>2023-05-18T03:34:07Z</time>
      </trkpt>
      <trkpt lat="49.66649" lon="-1.49581">
        <ele>20.4</ele>
        <time>2023-05-18T03:34:11Z</time>
      </trkpt>
      <trkpt lat="49.66631" lon="-1.49595">
        <ele>20.6</ele>
        <time>2023-05-18T03:34:15Z</time>
      </trkpt>
      <trkpt lat="49.66614" lon="-1.49612">
        <ele>20.8</ele>
        <time>2023-05-18T03:34:19Z</time>
      </trkpt>
      <trkpt lat="49.66597" lon="-1.4963">
        <ele>21</ele>
        <time>2023-05-18T03:34:23Z</time>
      </trkpt>
      <trkpt lat="49.66582" lon="-1.49651">
        <ele>21.4</ele>
        <time>2023-05-18T03:34:27Z</time>
      </trkpt>
      <trkpt lat="49.66569" lon="-1.49672">
        <ele>21.6</ele>
        <time>2023-05-18T03:34:31Z</time>
      </trkpt>
      <trkpt lat="49.66556" lon="-1.49695">
        <ele>21.7</ele>
        <time>2023-05-18T03:34:35Z</time>
      </trkpt>
      <trkpt lat="49.66543" lon="-1.49721">
        <ele>21.6</ele>
        <time>2023-05-18T03:34:39Z</time>
      </trkpt>
      <trkpt lat="49.66532" lon="-1.49749">
        <ele>21.6</ele>
        <time>2023-05-18T03:34:43Z</time>
      </trkpt>
      <trkpt lat="49.66523" lon="-1.49778">
        <ele>21.5</ele>
        <time>2023-05-18T03:34:47Z</time>
      </trkpt>
      <trkpt lat="49.66513" lon="-1.4981">
        <ele>21.3</ele>
        <time>2023-05-18T03:34:51Z</time>
      </trkpt>
      <trkpt lat="49.66507" lon="-1.49838">
        <ele>21</ele>
        <time>2023-05-18T03:34:54Z</time>
      </trkpt>
      <trkpt lat="49.66501" lon="-1.49866">
        <ele>20.7</ele>
        <time>2023-05-18T03:34:57Z</time>
      </trkpt>
      <trkpt lat="49.66496" lon="-1.49893">
        <ele>20.4</ele>
        <time>2023-05-18T03:35:00Z</time>
      </trkpt>
      <trkpt lat="49.66492" lon="-1.49921">
        <ele>20</ele>
        <time>2023-05-18T03:35:03Z</time>
      </trkpt>
      <trkpt lat="49.66487" lon="-1.49949">
        <ele>19.6</ele>
        <time>2023-05-18T03:35:06Z</time>
      </trkpt>
      <trkpt lat="49.66481" lon="-1.49978">
        <ele>19.2</ele>
        <time>2023-05-18T03:35:09Z</time>
      </trkpt>
      <trkpt lat="49.66473" lon="-1.50007">
        <ele>18.8</ele>
        <time>2023-05-18T03:35:12Z</time>
      </trkpt>
      <trkpt lat="49.66463" lon="-1.50035">
        <ele>18.5</ele>
        <time>2023-05-18T03:35:15Z</time>
      </trkpt>
      <trkpt lat="49.66452" lon="-1.50062">
        <ele>18.1</ele>
        <time>2023-05-18T03:35:18Z</time>
      </trkpt>
      <trkpt lat="49.66439" lon="-1.50088">
        <ele>17.7</ele>
        <time>2023-05-18T03:35:21Z</time>
      </trkpt>
      <trkpt lat="49.66426" lon="-1.50115">
        <ele>17.4</ele>
        <time>2023-05-18T03:35:24Z</time>
      </trkpt>
      <trkpt lat="49.66414" lon="-1.5014">
        <ele>17.1</ele>
        <time>2023-05-18T03:35:27Z</time>
      </trkpt>
      <trkpt lat="49.66401" lon="-1.50166">
        <ele>16.8</ele>
        <time>2023-05-18T03:35:30Z</time>
      </trkpt>
      <trkpt lat="49.66389" lon="-1.50193">
        <ele>16.5</ele>
        <time>2023-05-18T03:35:33Z</time>
      </trkpt>
      <trkpt lat="49.66376" lon="-1.50218">
        <ele>16.3</ele>
        <time>2023-05-18T03:35:36Z</time>
      </trkpt>
      <trkpt lat="49.66363" lon="-1.50242">
        <ele>16</ele>
        <time>2023-05-18T03:35:39Z</time>
      </trkpt>
      <trkpt lat="49.66351" lon="-1.50267">
        <ele>15.8</ele>
        <time>2023-05-18T03:35:42Z</time>
      </trkpt>
      <trkpt lat="49.66338" lon="-1.50293">
        <ele>15.6</ele>
        <time>2023-05-18T03:35:45Z</time>
      </trkpt>
      <trkpt lat="49.66326" lon="-1.50319">
        <ele>15.4</ele>
        <time>2023-05-18T03:35:48Z</time>
      </trkpt>
      <trkpt lat="49.66313" lon="-1.50344">
        <ele>15.1</ele>
        <time>2023-05-18T03:35:51Z</time>
      </trkpt>
      <trkpt lat="49.66301" lon="-1.50368">
        <ele>14.9</ele>
        <time>2023-05-18T03:35:54Z</time>
      </trkpt>
      <trkpt lat="49.66288" lon="-1.50393">
        <ele>14.6</ele>
        <time>2023-05-18T03:35:57Z</time>
      </trkpt>
      <trkpt lat="49.66275" lon="-1.50417">
        <ele>14.4</ele>
        <time>2023-05-18T03:36:00Z</time>
      </trkpt>
      <trkpt lat="49.66264" lon="-1.50441">
        <ele>14.2</ele>
        <time>2023-05-18T03:36:03Z</time>
      </trkpt>
      <trkpt lat="49.66252" lon="-1.50466">
        <ele>13.9</ele>
        <time>2023-05-18T03:36:06Z</time>
      </trkpt>
      <trkpt lat="49.6624" lon="-1.5049">
        <ele>13.6</ele>
        <time>2023-05-18T03:36:09Z</time>
      </trkpt>
      <trkpt lat="49.66227" lon="-1.50516">
        <ele>13.3</ele>
        <time>2023-05-18T03:36:12Z</time>
      </trkpt>
      <trkpt lat="49.66215" lon="-1.50541">
        <ele>12.9</ele>
        <time>2023-05-18T03:36:15Z</time>
      </trkpt>
      <trkpt lat="49.66202" lon="-1.50567">
        <ele>12.7</ele>
        <time>2023-05-18T03:36:18Z</time>
      </trkpt>
      <trkpt lat="49.66189" lon="-1.50591">
        <ele>12.4</ele>
        <time>2023-05-18T03:36:21Z</time>
      </trkpt>
      <trkpt lat="49.66175" lon="-1.50616">
        <ele>12.1</ele>
        <time>2023-05-18T03:36:24Z</time>
      </trkpt>
      <trkpt lat="49.66163" lon="-1.50642">
        <ele>11.7</ele>
        <time>2023-05-18T03:36:27Z</time>
      </trkpt>
      <trkpt lat="49.66149" lon="-1.50668">
        <ele>11.4</ele>
        <time>2023-05-18T03:36:30Z</time>
      </trkpt>
      <trkpt lat="49.66136" lon="-1.50696">
        <ele>11</ele>
        <time>2023-05-18T03:36:33Z</time>
      </trkpt>
      <trkpt lat="49.66126" lon="-1.50725">
        <ele>10.7</ele>
        <time>2023-05-18T03:36:36Z</time>
      </trkpt>
      <trkpt lat="49.66117" lon="-1.50756">
        <ele>10.4</ele>
        <time>2023-05-18T03:36:39Z</time>
      </trkpt>
      <trkpt lat="49.66108" lon="-1.50785">
        <ele>10.1</ele>
        <time>2023-05-18T03:36:42Z</time>
      </trkpt>
      <trkpt lat="49.661" lon="-1.50814">
        <ele>9.8</ele>
        <time>2023-05-18T03:36:45Z</time>
      </trkpt>
      <trkpt lat="49.66092" lon="-1.50843">
        <ele>9.5</ele>
        <time>2023-05-18T03:36:48Z</time>
      </trkpt>
      <trkpt lat="49.66083" lon="-1.50873">
        <ele>9.2</ele>
        <time>2023-05-18T03:36:51Z</time>
      </trkpt>
      <trkpt lat="49.66075" lon="-1.509">
        <ele>9</ele>
        <time>2023-05-18T03:36:54Z</time>
      </trkpt>
      <trkpt lat="49.66065" lon="-1.50929">
        <ele>8.9</ele>
        <time>2023-05-18T03:36:57Z</time>
      </trkpt>
      <trkpt lat="49.66056" lon="-1.50958">
        <ele>8.7</ele>
        <time>2023-05-18T03:37:00Z</time>
      </trkpt>
      <trkpt lat="49.66047" lon="-1.50985">
        <ele>8.5</ele>
        <time>2023-05-18T03:37:03Z</time>
      </trkpt>
      <trkpt lat="49.66038" lon="-1.51013">
        <ele>8.3</ele>
        <time>2023-05-18T03:37:06Z</time>
      </trkpt>
      <trkpt lat="49.66029" lon="-1.5104">
        <ele>8.1</ele>
        <time>2023-05-18T03:37:09Z</time>
      </trkpt>
      <trkpt lat="49.6602" lon="-1.51067">
        <ele>8.1</ele>
        <time>2023-05-18T03:37:12Z</time>
      </trkpt>
      <trkpt lat="49.66011" lon="-1.51094">
        <ele>8.1</ele>
        <time>2023-05-18T03:37:15Z</time>
      </trkpt>
      <trkpt lat="49.66002" lon="-1.5112">
        <ele>8.1</ele>
        <time>2023-05-18T03:37:18Z</time>
      </trkpt>
      <trkpt lat="49.65994" lon="-1.51146">
        <ele>8.1</ele>
        <time>2023-05-18T03:37:21Z</time>
      </trkpt>
      <trkpt lat="49.65985" lon="-1.51171">
        <ele>8</ele>
        <time>2023-05-18T03:37:24Z</time>
      </trkpt>
      <trkpt lat="49.65976" lon="-1.51197">
        <ele>8.1</ele>
        <time>2023-05-18T03:37:27Z</time>
      </trkpt>
      <trkpt lat="49.65968" lon="-1.51223">
        <ele>8.1</ele>
        <time>2023-05-18T03:37:30Z</time>
      </trkpt>
      <trkpt lat="49.65959" lon="-1.51248">
        <ele>8.1</ele>
        <time>2023-05-18T03:37:33Z</time>
      </trkpt>
      <trkpt lat="49.65949" lon="-1.5128">
        <ele>8.2</ele>
        <time>2023-05-18T03:37:37Z</time>
      </trkpt>
      <trkpt lat="49.65939" lon="-1.5131">
        <ele>8.3</ele>
        <time>2023-05-18T03:37:41Z</time>
      </trkpt>
      <trkpt lat="49.65928" lon="-1.51341">
        <ele>8.5</ele>
        <time>2023-05-18T03:37:45Z</time>
      </trkpt>
      <trkpt lat="49.65919" lon="-1.51372">
        <ele>8.5</ele>
        <time>2023-05-18T03:37:49Z</time>
      </trkpt>
      <trkpt lat="49.65908" lon="-1.514">
        <ele>8.7</ele>
        <time>2023-05-18T03:37:53Z</time>
      </trkpt>
      <trkpt lat="49.65898" lon="-1.5143">
        <ele>8.7</ele>
        <time>2023-05-18T03:37:57Z</time>
      </trkpt>
      <trkpt lat="49.65888" lon="-1.5146">
        <ele>8.8</ele>
        <time>2023-05-18T03:38:01Z</time>
      </trkpt>
      <trkpt lat="49.65878" lon="-1.51489">
        <ele>8.9</ele>
        <time>2023-05-18T03:38:05Z</time>
      </trkpt>
      <trkpt lat="49.65867" lon="-1.51518">
        <ele>9</ele>
        <time>2023-05-18T03:38:09Z</time>
      </trkpt>
      <trkpt lat="49.65858" lon="-1.51547">
        <ele>9.1</ele>
        <time>2023-05-18T03:38:13Z</time>
      </trkpt>
      <trkpt lat="49.65849" lon="-1.51577">
        <ele>9.1</ele>
        <time>2023-05-18T03:38:17Z</time>
      </trkpt>
      <trkpt lat="49.65839" lon="-1.51606">
        <ele>9.1</ele>
        <time>2023-05-18T03:38:21Z</time>
      </trkpt>
      <trkpt lat="49.65829" lon="-1.51635">
        <ele>9.2</ele>
        <time>2023-05-18T03:38:25Z</time>
      </trkpt>
      <trkpt lat="49.65819" lon="-1.51662">
        <ele>9.3</ele>
        <time>2023-05-18T03:38:29Z</time>
      </trkpt>
      <trkpt lat="49.6581" lon="-1.5169">
        <ele>9.3</ele>
        <time>2023-05-18T03:38:33Z</time>
      </trkpt>
      <trkpt lat="49.65801" lon="-1.51717">
        <ele>9.4</ele>
        <time>2023-05-18T03:38:37Z</time>
      </trkpt>
      <trkpt lat="49.65792" lon="-1.51745">
        <ele>9.4</ele>
        <time>2023-05-18T03:38:41Z</time>
      </trkpt>
      <trkpt lat="49.65782" lon="-1.51773">
        <ele>9.4</ele>
        <time>2023-05-18T03:38:45Z</time>
      </trkpt>
      <trkpt lat="49.65772" lon="-1.51804">
        <ele>9.3</ele>
        <time>2023-05-18T03:38:49Z</time>
      </trkpt>
      <trkpt lat="49.65762" lon="-1.51833">
        <ele>9.3</ele>
        <time>2023-05-18T03:38:53Z</time>
      </trkpt>
      <trkpt lat="49.65753" lon="-1.51862">
        <ele>9.2</ele>
        <time>2023-05-18T03:38:57Z</time>
      </trkpt>
      <trkpt lat="49.65742" lon="-1.51892">
        <ele>9.2</ele>
        <time>2023-05-18T03:39:01Z</time>
      </trkpt>
      <trkpt lat="49.65733" lon="-1.51919">
        <ele>9.2</ele>
        <time>2023-05-18T03:39:05Z</time>
      </trkpt>
      <trkpt lat="49.65724" lon="-1.51944">
        <ele>9.1</ele>
        <time>2023-05-18T03:39:09Z</time>
      </trkpt>
      <trkpt lat="49.65715" lon="-1.51976">
        <ele>9</ele>
        <time>2023-05-18T03:39:14Z</time>
      </trkpt>
      <trkpt lat="49.65706" lon="-1.52005">
        <ele>8.9</ele>
        <time>2023-05-18T03:39:18Z</time>
      </trkpt>
      <trkpt lat="49.65695" lon="-1.52032">
        <ele>8.7</ele>
        <time>2023-05-18T03:39:22Z</time>
      </trkpt>
      <trkpt lat="49.65687" lon="-1.52062">
        <ele>8.6</ele>
        <time>2023-05-18T03:39:26Z</time>
      </trkpt>
      <trkpt lat="49.65679" lon="-1.52092">
        <ele>8.6</ele>
        <time>2023-05-18T03:39:30Z</time>
      </trkpt>
      <trkpt lat="49.65673" lon="-1.52121">
        <ele>8.6</ele>
        <time>2023-05-18T03:39:34Z</time>
      </trkpt>
      <trkpt lat="49.65665" lon="-1.52151">
        <ele>8.9</ele>
        <time>2023-05-18T03:39:38Z</time>
      </trkpt>
      <trkpt lat="49.65659" lon="-1.52179">
        <ele>9.2</ele>
        <time>2023-05-18T03:39:42Z</time>
      </trkpt>
      <trkpt lat="49.65651" lon="-1.52209">
        <ele>9.6</ele>
        <time>2023-05-18T03:39:47Z</time>
      </trkpt>
      <trkpt lat="49.65644" lon="-1.52238">
        <ele>10</ele>
        <time>2023-05-18T03:39:52Z</time>
      </trkpt>
      <trkpt lat="49.65636" lon="-1.52269">
        <ele>10.6</ele>
        <time>2023-05-18T03:39:57Z</time>
      </trkpt>
      <trkpt lat="49.6563" lon="-1.52296">
        <ele>11</ele>
        <time>2023-05-18T03:40:01Z</time>
      </trkpt>
      <trkpt lat="49.65623" lon="-1.52327">
        <ele>11.4</ele>
        <time>2023-05-18T03:40:07Z</time>
      </trkpt>
      <trkpt lat="49.65616" lon="-1.52354">
        <ele>11.8</ele>
        <time>2023-05-18T03:40:12Z</time>
      </trkpt>
      <trkpt lat="49.65609" lon="-1.52382">
        <ele>12.3</ele>
        <time>2023-05-18T03:40:17Z</time>
      </trkpt>
      <trkpt lat="49.65602" lon="-1.52414">
        <ele>12.9</ele>
        <time>2023-05-18T03:40:22Z</time>
      </trkpt>
      <trkpt lat="49.65594" lon="-1.52442">
        <ele>13.4</ele>
        <time>2023-05-18T03:40:27Z</time>
      </trkpt>
      <trkpt lat="49.65589" lon="-1.52471">
        <ele>13.9</ele>
        <time>2023-05-18T03:40:32Z</time>
      </trkpt>
      <trkpt lat="49.65583" lon="-1.52502">
        <ele>14.4</ele>
        <time>2023-05-18T03:40:37Z</time>
      </trkpt>
      <trkpt lat="49.65575" lon="-1.52529">
        <ele>14.8</ele>
        <time>2023-05-18T03:40:42Z</time>
      </trkpt>
      <trkpt lat="49.65568" lon="-1.52556">
        <ele>15.2</ele>
        <time>2023-05-18T03:40:47Z</time>
      </trkpt>
      <trkpt lat="49.65561" lon="-1.52583">
        <ele>15.6</ele>
        <time>2023-05-18T03:40:52Z</time>
      </trkpt>
      <trkpt lat="49.65553" lon="-1.52613">
        <ele>15.8</ele>
        <time>2023-05-18T03:40:57Z</time>
      </trkpt>
      <trkpt lat="49.65547" lon="-1.52641">
        <ele>15.9</ele>
        <time>2023-05-18T03:41:02Z</time>
      </trkpt>
      <trkpt lat="49.65539" lon="-1.52671">
        <ele>16</ele>
        <time>2023-05-18T03:41:07Z</time>
      </trkpt>
      <trkpt lat="49.6553" lon="-1.52702">
        <ele>15.9</ele>
        <time>2023-05-18T03:41:12Z</time>
      </trkpt>
      <trkpt lat="49.65524" lon="-1.52728">
        <ele>15.8</ele>
        <time>2023-05-18T03:41:16Z</time>
      </trkpt>
      <trkpt lat="49.65517" lon="-1.52758">
        <ele>15.4</ele>
        <time>2023-05-18T03:41:20Z</time>
      </trkpt>
      <trkpt lat="49.65511" lon="-1.52786">
        <ele>15.1</ele>
        <time>2023-05-18T03:41:24Z</time>
      </trkpt>
      <trkpt lat="49.65505" lon="-1.52813">
        <ele>14.7</ele>
        <time>2023-05-18T03:41:28Z</time>
      </trkpt>
      <trkpt lat="49.65497" lon="-1.52843">
        <ele>14.2</ele>
        <time>2023-05-18T03:41:32Z</time>
      </trkpt>
      <trkpt lat="49.65489" lon="-1.52874">
        <ele>14</ele>
        <time>2023-05-18T03:41:36Z</time>
      </trkpt>
      <trkpt lat="49.65481" lon="-1.52906">
        <ele>13.8</ele>
        <time>2023-05-18T03:41:40Z</time>
      </trkpt>
      <trkpt lat="49.65473" lon="-1.52937">
        <ele>13.6</ele>
        <time>2023-05-18T03:41:44Z</time>
      </trkpt>
      <trkpt lat="49.65465" lon="-1.5297">
        <ele>13.5</ele>
        <time>2023-05-18T03:41:48Z</time>
      </trkpt>
      <trkpt lat="49.65453" lon="-1.52998">
        <ele>13.5</ele>
        <time>2023-05-18T03:41:52Z</time>
      </trkpt>
      <trkpt lat="49.65438" lon="-1.53019">
        <ele>13.5</ele>
        <time>2023-05-18T03:41:56Z</time>
      </trkpt>
      <trkpt lat="49.65422" lon="-1.53039">
        <ele>13.7</ele>
        <time>2023-05-18T03:42:00Z</time>
      </trkpt>
      <trkpt lat="49.65407" lon="-1.53058">
        <ele>13.9</ele>
        <time>2023-05-18T03:42:04Z</time>
      </trkpt>
      <trkpt lat="49.6539" lon="-1.53079">
        <ele>14.2</ele>
        <time>2023-05-18T03:42:09Z</time>
      </trkpt>
      <trkpt lat="49.65377" lon="-1.53105">
        <ele>14.7</ele>
        <time>2023-05-18T03:42:14Z</time>
      </trkpt>
      <trkpt lat="49.65371" lon="-1.53132">
        <ele>15.2</ele>
        <time>2023-05-18T03:42:19Z</time>
      </trkpt>
      <trkpt lat="49.65365" lon="-1.53159">
        <ele>15.7</ele>
        <time>2023-05-18T03:42:24Z</time>
      </trkpt>
      <trkpt lat="49.65363" lon="-1.53187">
        <ele>16.5</ele>
        <time>2023-05-18T03:42:29Z</time>
      </trkpt>
      <trkpt lat="49.65364" lon="-1.53219">
        <ele>17.3</ele>
        <time>2023-05-18T03:42:35Z</time>
      </trkpt>
      <trkpt lat="49.65367" lon="-1.53249">
        <ele>18</ele>
        <time>2023-05-18T03:42:40Z</time>
      </trkpt>
      <trkpt lat="49.65368" lon="-1.53281">
        <ele>18.5</ele>
        <time>2023-05-18T03:42:45Z</time>
      </trkpt>
      <trkpt lat="49.65368" lon="-1.53312">
        <ele>18.9</ele>
        <time>2023-05-18T03:42:50Z</time>
      </trkpt>
      <trkpt lat="49.6537" lon="-1.53343">
        <ele>19.3</ele>
        <time>2023-05-18T03:42:55Z</time>
      </trkpt>
      <trkpt lat="49.65372" lon="-1.53373">
        <ele>19.7</ele>
        <time>2023-05-18T03:43:00Z</time>
      </trkpt>
      <trkpt lat="49.65373" lon="-1.53403">
        <ele>20.2</ele>
        <time>2023-05-18T03:43:05Z</time>
      </trkpt>
      <trkpt lat="49.65373" lon="-1.53435">
        <ele>20.9</ele>
        <time>2023-05-18T03:43:11Z</time>
      </trkpt>
      <trkpt lat="49.65375" lon="-1.53465">
        <ele>21.6</ele>
        <time>2023-05-18T03:43:18Z</time>
      </trkpt>
      <trkpt lat="49.65373" lon="-1.53497">
        <ele>22.4</ele>
        <time>2023-05-18T03:43:25Z</time>
      </trkpt>
      <trkpt lat="49.65372" lon="-1.53526">
        <ele>23.1</ele>
        <time>2023-05-18T03:43:31Z</time>
      </trkpt>
      <trkpt lat="49.65372" lon="-1.53556">
        <ele>23.6</ele>
        <time>2023-05-18T03:43:37Z</time>
      </trkpt>
      <trkpt lat="49.65371" lon="-1.53588">
        <ele>24</ele>
        <time>2023-05-18T03:43:43Z</time>
      </trkpt>
      <trkpt lat="49.65372" lon="-1.53621">
        <ele>24.2</ele>
        <time>2023-05-18T03:43:49Z</time>
      </trkpt>
      <trkpt lat="49.6537" lon="-1.53651">
        <ele>24.2</ele>
        <time>2023-05-18T03:43:54Z</time>
      </trkpt>
      <trkpt lat="49.65369" lon="-1.53681">
        <ele>24.1</ele>
        <time>2023-05-18T03:43:59Z</time>
      </trkpt>
      <trkpt lat="49.65369" lon="-1.53709">
        <ele>23.9</ele>
        <time>2023-05-18T03:44:03Z</time>
      </trkpt>
      <trkpt lat="49.65367" lon="-1.53738">
        <ele>23.7</ele>
        <time>2023-05-18T03:44:07Z</time>
      </trkpt>
      <trkpt lat="49.65365" lon="-1.53772">
        <ele>23.2</ele>
        <time>2023-05-18T03:44:12Z</time>
      </trkpt>
      <trkpt lat="49.65363" lon="-1.53808">
        <ele>22.5</ele>
        <time>2023-05-18T03:44:17Z</time>
      </trkpt>
      <trkpt lat="49.6536" lon="-1.53841">
        <ele>21.7</ele>
        <time>2023-05-18T03:44:21Z</time>
      </trkpt>
      <trkpt lat="49.65358" lon="-1.53879">
        <ele>20.6</ele>
        <time>2023-05-18T03:44:25Z</time>
      </trkpt>
      <trkpt lat="49.65356" lon="-1.53909">
        <ele>19.4</ele>
        <time>2023-05-18T03:44:28Z</time>
      </trkpt>
      <trkpt lat="49.65355" lon="-1.5394">
        <ele>17.9</ele>
        <time>2023-05-18T03:44:31Z</time>
      </trkpt>
      <trkpt lat="49.65353" lon="-1.53977">
        <ele>16.3</ele>
        <time>2023-05-18T03:44:34Z</time>
      </trkpt>
      <trkpt lat="49.65357" lon="-1.54015">
        <ele>14.4</ele>
        <time>2023-05-18T03:44:37Z</time>
      </trkpt>
      <trkpt lat="49.65359" lon="-1.54057">
        <ele>12.5</ele>
        <time>2023-05-18T03:44:40Z</time>
      </trkpt>
      <trkpt lat="49.65361" lon="-1.54087">
        <ele>11.2</ele>
        <time>2023-05-18T03:44:42Z</time>
      </trkpt>
      <trkpt lat="49.65365" lon="-1.54119">
        <ele>9.9</ele>
        <time>2023-05-18T03:44:44Z</time>
      </trkpt>
      <trkpt lat="49.65368" lon="-1.54151">
        <ele>8.8</ele>
        <time>2023-05-18T03:44:46Z</time>
      </trkpt>
      <trkpt lat="49.65369" lon="-1.54184">
        <ele>8.3</ele>
        <time>2023-05-18T03:44:48Z</time>
      </trkpt>
      <trkpt lat="49.65368" lon="-1.54214">
        <ele>7.5</ele>
        <time>2023-05-18T03:44:50Z</time>
      </trkpt>
      <trkpt lat="49.65365" lon="-1.54245">
        <ele>6.9</ele>
        <time>2023-05-18T03:44:52Z</time>
      </trkpt>
      <trkpt lat="49.65362" lon="-1.54275">
        <ele>6.4</ele>
        <time>2023-05-18T03:44:54Z</time>
      </trkpt>
      <trkpt lat="49.65359" lon="-1.54303">
        <ele>6.1</ele>
        <time>2023-05-18T03:44:56Z</time>
      </trkpt>
      <trkpt lat="49.65358" lon="-1.54334">
        <ele>5.8</ele>
        <time>2023-05-18T03:44:58Z</time>
      </trkpt>
      <trkpt lat="49.65355" lon="-1.54374">
        <ele>5.7</ele>
        <time>2023-05-18T03:45:01Z</time>
      </trkpt>
      <trkpt lat="49.65354" lon="-1.5441">
        <ele>5.9</ele>
        <time>2023-05-18T03:45:04Z</time>
      </trkpt>
      <trkpt lat="49.65352" lon="-1.54443">
        <ele>6.1</ele>
        <time>2023-05-18T03:45:07Z</time>
      </trkpt>
      <trkpt lat="49.6535" lon="-1.54477">
        <ele>6.1</ele>
        <time>2023-05-18T03:45:10Z</time>
      </trkpt>
      <trkpt lat="49.65348" lon="-1.54505">
        <ele>6.1</ele>
        <time>2023-05-18T03:45:13Z</time>
      </trkpt>
      <trkpt lat="49.65346" lon="-1.54542">
        <ele>6.1</ele>
        <time>2023-05-18T03:45:17Z</time>
      </trkpt>
      <trkpt lat="49.65344" lon="-1.5458">
        <ele>6</ele>
        <time>2023-05-18T03:45:21Z</time>
      </trkpt>
      <trkpt lat="49.65344" lon="-1.54616">
        <ele>5.9</ele>
        <time>2023-05-18T03:45:25Z</time>
      </trkpt>
      <trkpt lat="49.65338" lon="-1.54648">
        <ele>5.8</ele>
        <time>2023-05-18T03:45:29Z</time>
      </trkpt>
      <trkpt lat="49.65335" lon="-1.54677">
        <ele>5.8</ele>
        <time>2023-05-18T03:45:32Z</time>
      </trkpt>
      <trkpt lat="49.65331" lon="-1.54714">
        <ele>5.9</ele>
        <time>2023-05-18T03:45:36Z</time>
      </trkpt>
      <trkpt lat="49.65329" lon="-1.54747">
        <ele>6.1</ele>
        <time>2023-05-18T03:45:40Z</time>
      </trkpt>
      <trkpt lat="49.65327" lon="-1.54776">
        <ele>6.1</ele>
        <time>2023-05-18T03:45:44Z</time>
      </trkpt>
      <trkpt lat="49.65327" lon="-1.54806">
        <ele>6.2</ele>
        <time>2023-05-18T03:45:48Z</time>
      </trkpt>
      <trkpt lat="49.65325" lon="-1.54841">
        <ele>6.4</ele>
        <time>2023-05-18T03:45:53Z</time>
      </trkpt>
      <trkpt lat="49.65324" lon="-1.5487">
        <ele>6.6</ele>
        <time>2023-05-18T03:45:57Z</time>
      </trkpt>
      <trkpt lat="49.65322" lon="-1.54903">
        <ele>6.9</ele>
        <time>2023-05-18T03:46:02Z</time>
      </trkpt>
      <trkpt lat="49.65322" lon="-1.54936">
        <ele>7.1</ele>
        <time>2023-05-18T03:46:07Z</time>
      </trkpt>
      <trkpt lat="49.6532" lon="-1.54969">
        <ele>7.4</ele>
        <time>2023-05-18T03:46:12Z</time>
      </trkpt>
      <trkpt lat="49.65318" lon="-1.55">
        <ele>7.7</ele>
        <time>2023-05-18T03:46:17Z</time>
      </trkpt>
      <trkpt lat="49.65315" lon="-1.55033">
        <ele>8.1</ele>
        <time>2023-05-18T03:46:22Z</time>
      </trkpt>
      <trkpt lat="49.65311" lon="-1.55065">
        <ele>8.6</ele>
        <time>2023-05-18T03:46:27Z</time>
      </trkpt>
      <trkpt lat="49.6531" lon="-1.55096">
        <ele>9</ele>
        <time>2023-05-18T03:46:33Z</time>
      </trkpt>
      <trkpt lat="49.65307" lon="-1.55128">
        <ele>9.4</ele>
        <time>2023-05-18T03:46:39Z</time>
      </trkpt>
      <trkpt lat="49.65307" lon="-1.55159">
        <ele>9.8</ele>
        <time>2023-05-18T03:46:45Z</time>
      </trkpt>
      <trkpt lat="49.65304" lon="-1.55188">
        <ele>10.2</ele>
        <time>2023-05-18T03:46:52Z</time>
      </trkpt>
      <trkpt lat="49.653" lon="-1.55215">
        <ele>10.5</ele>
        <time>2023-05-18T03:47:00Z</time>
      </trkpt>
      <trkpt lat="49.65299" lon="-1.55247">
        <ele>10.7</ele>
        <time>2023-05-18T03:47:06Z</time>
      </trkpt>
      <trkpt lat="49.65299" lon="-1.55276">
        <ele>10.7</ele>
        <time>2023-05-18T03:47:11Z</time>
      </trkpt>
      <trkpt lat="49.65292" lon="-1.55305">
        <ele>11</ele>
        <time>2023-05-18T03:47:16Z</time>
      </trkpt>
      <trkpt lat="49.65282" lon="-1.55329">
        <ele>11.3</ele>
        <time>2023-05-18T03:47:20Z</time>
      </trkpt>
      <trkpt lat="49.65273" lon="-1.55356">
        <ele>11.6</ele>
        <time>2023-05-18T03:47:25Z</time>
      </trkpt>
      <trkpt lat="49.65262" lon="-1.55382">
        <ele>11.9</ele>
        <time>2023-05-18T03:47:30Z</time>
      </trkpt>
      <trkpt lat="49.6525" lon="-1.5541">
        <ele>12.1</ele>
        <time>2023-05-18T03:47:35Z</time>
      </trkpt>
      <trkpt lat="49.65237" lon="-1.55436">
        <ele>12.3</ele>
        <time>2023-05-18T03:47:40Z</time>
      </trkpt>
      <trkpt lat="49.65226" lon="-1.55462">
        <ele>12.5</ele>
        <time>2023-05-18T03:47:45Z</time>
      </trkpt>
      <trkpt lat="49.65214" lon="-1.55489">
        <ele>12.6</ele>
        <time>2023-05-18T03:47:50Z</time>
      </trkpt>
      <trkpt lat="49.65205" lon="-1.55515">
        <ele>12.7</ele>
        <time>2023-05-18T03:47:55Z</time>
      </trkpt>
      <trkpt lat="49.65198" lon="-1.55547">
        <ele>12.6</ele>
        <time>2023-05-18T03:48:00Z</time>
      </trkpt>
      <trkpt lat="49.65195" lon="-1.55581">
        <ele>12.4</ele>
        <time>2023-05-18T03:48:05Z</time>
      </trkpt>
      <trkpt lat="49.65194" lon="-1.5561">
        <ele>12.3</ele>
        <time>2023-05-18T03:48:09Z</time>
      </trkpt>
      <trkpt lat="49.65194" lon="-1.55637">
        <ele>12.2</ele>
        <time>2023-05-18T03:48:13Z</time>
      </trkpt>
      <trkpt lat="49.65193" lon="-1.55668">
        <ele>12.1</ele>
        <time>2023-05-18T03:48:17Z</time>
      </trkpt>
      <trkpt lat="49.65193" lon="-1.55701">
        <ele>11.9</ele>
        <time>2023-05-18T03:48:21Z</time>
      </trkpt>
      <trkpt lat="49.65193" lon="-1.55734">
        <ele>11.7</ele>
        <time>2023-05-18T03:48:25Z</time>
      </trkpt>
      <trkpt lat="49.65188" lon="-1.55769">
        <ele>11.6</ele>
        <time>2023-05-18T03:48:29Z</time>
      </trkpt>
      <trkpt lat="49.65184" lon="-1.55802">
        <ele>11.6</ele>
        <time>2023-05-18T03:48:33Z</time>
      </trkpt>
      <trkpt lat="49.65177" lon="-1.55836">
        <ele>11.6</ele>
        <time>2023-05-18T03:48:37Z</time>
      </trkpt>
      <trkpt lat="49.65171" lon="-1.55868">
        <ele>11.5</ele>
        <time>2023-05-18T03:48:41Z</time>
      </trkpt>
      <trkpt lat="49.65165" lon="-1.55899">
        <ele>11.5</ele>
        <time>2023-05-18T03:48:45Z</time>
      </trkpt>
      <trkpt lat="49.65158" lon="-1.55929">
        <ele>11.7</ele>
        <time>2023-05-18T03:48:49Z</time>
      </trkpt>
      <trkpt lat="49.65151" lon="-1.55957">
        <ele>12</ele>
        <time>2023-05-18T03:48:53Z</time>
      </trkpt>
      <trkpt lat="49.65145" lon="-1.55985">
        <ele>12.2</ele>
        <time>2023-05-18T03:48:57Z</time>
      </trkpt>
      <trkpt lat="49.6514" lon="-1.56013">
        <ele>12.5</ele>
        <time>2023-05-18T03:49:01Z</time>
      </trkpt>
      <trkpt lat="49.65134" lon="-1.56042">
        <ele>12.7</ele>
        <time>2023-05-18T03:49:05Z</time>
      </trkpt>
      <trkpt lat="49.65127" lon="-1.56069">
        <ele>13</ele>
        <time>2023-05-18T03:49:09Z</time>
      </trkpt>
      <trkpt lat="49.65119" lon="-1.56095">
        <ele>13.1</ele>
        <time>2023-05-18T04:04:03Z</time>
      </trkpt>
      <trkpt lat="49.65114" lon="-1.56122">
        <ele>13.3</ele>
        <time>2023-05-18T04:04:10Z</time>
      </trkpt>
      <trkpt lat="49.65107" lon="-1.5615">
        <ele>13.4</ele>
        <time>2023-05-18T04:04:16Z</time>
      </trkpt>
      <trkpt lat="49.65101" lon="-1.56179">
        <ele>13.5</ele>
        <time>2023-05-18T04:04:21Z</time>
      </trkpt>
      <trkpt lat="49.65094" lon="-1.5621">
        <ele>13.5</ele>
        <time>2023-05-18T04:04:26Z</time>
      </trkpt>
      <trkpt lat="49.65087" lon="-1.56242">
        <ele>13.8</ele>
        <time>2023-05-18T04:04:31Z</time>
      </trkpt>
      <trkpt lat="49.6508" lon="-1.56268">
        <ele>13.9</ele>
        <time>2023-05-18T04:04:35Z</time>
      </trkpt>
      <trkpt lat="49.65074" lon="-1.56295">
        <ele>14.1</ele>
        <time>2023-05-18T04:04:39Z</time>
      </trkpt>
      <trkpt lat="49.65067" lon="-1.56327">
        <ele>14.3</ele>
        <time>2023-05-18T04:04:44Z</time>
      </trkpt>
      <trkpt lat="49.65069" lon="-1.56355">
        <ele>14.2</ele>
        <time>2023-05-18T04:04:48Z</time>
      </trkpt>
      <trkpt lat="49.65074" lon="-1.56385">
        <ele>14</ele>
        <time>2023-05-18T04:04:52Z</time>
      </trkpt>
      <trkpt lat="49.6507" lon="-1.56418">
        <ele>13.8</ele>
        <time>2023-05-18T04:04:56Z</time>
      </trkpt>
      <trkpt lat="49.65051" lon="-1.5644">
        <ele>13.7</ele>
        <time>2023-05-18T04:05:00Z</time>
      </trkpt>
      <trkpt lat="49.65029" lon="-1.56449">
        <ele>13.7</ele>
        <time>2023-05-18T04:05:04Z</time>
      </trkpt>
      <trkpt lat="49.65014" lon="-1.5647">
        <ele>13.8</ele>
        <time>2023-05-18T04:05:08Z</time>
      </trkpt>
      <trkpt lat="49.65004" lon="-1.56494">
        <ele>13.9</ele>
        <time>2023-05-18T04:05:12Z</time>
      </trkpt>
      <trkpt lat="49.64993" lon="-1.56519">
        <ele>14.1</ele>
        <time>2023-05-18T04:05:16Z</time>
      </trkpt>
      <trkpt lat="49.64982" lon="-1.56547">
        <ele>14.4</ele>
        <time>2023-05-18T04:05:20Z</time>
      </trkpt>
      <trkpt lat="49.6497" lon="-1.56573">
        <ele>14.9</ele>
        <time>2023-05-18T04:05:24Z</time>
      </trkpt>
      <trkpt lat="49.64963" lon="-1.56603">
        <ele>15.4</ele>
        <time>2023-05-18T04:05:29Z</time>
      </trkpt>
      <trkpt lat="49.64953" lon="-1.56629">
        <ele>15.6</ele>
        <time>2023-05-18T04:05:34Z</time>
      </trkpt>
      <trkpt lat="49.64941" lon="-1.56656">
        <ele>16</ele>
        <time>2023-05-18T04:05:39Z</time>
      </trkpt>
      <trkpt lat="49.64933" lon="-1.56682">
        <ele>16.3</ele>
        <time>2023-05-18T04:05:44Z</time>
      </trkpt>
      <trkpt lat="49.64925" lon="-1.56708">
        <ele>16.7</ele>
        <time>2023-05-18T04:05:50Z</time>
      </trkpt>
      <trkpt lat="49.64916" lon="-1.56735">
        <ele>17</ele>
        <time>2023-05-18T04:05:56Z</time>
      </trkpt>
      <trkpt lat="49.64909" lon="-1.56765">
        <ele>17.4</ele>
        <time>2023-05-18T04:06:02Z</time>
      </trkpt>
      <trkpt lat="49.64902" lon="-1.56795">
        <ele>17.7</ele>
        <time>2023-05-18T04:06:07Z</time>
      </trkpt>
      <trkpt lat="49.64897" lon="-1.56823">
        <ele>17.9</ele>
        <time>2023-05-18T04:06:11Z</time>
      </trkpt>
      <trkpt lat="49.64892" lon="-1.56858">
        <ele>17.5</ele>
        <time>2023-05-18T04:06:16Z</time>
      </trkpt>
      <trkpt lat="49.64886" lon="-1.56887">
        <ele>17</ele>
        <time>2023-05-18T04:06:20Z</time>
      </trkpt>
      <trkpt lat="49.64882" lon="-1.56916">
        <ele>16.5</ele>
        <time>2023-05-18T04:06:24Z</time>
      </trkpt>
      <trkpt lat="49.64878" lon="-1.56948">
        <ele>15.9</ele>
        <time>2023-05-18T04:06:28Z</time>
      </trkpt>
      <trkpt lat="49.64872" lon="-1.56981">
        <ele>15.2</ele>
        <time>2023-05-18T04:06:32Z</time>
      </trkpt>
      <trkpt lat="49.64867" lon="-1.57017">
        <ele>14.6</ele>
        <time>2023-05-18T04:06:36Z</time>
      </trkpt>
      <trkpt lat="49.64864" lon="-1.57045">
        <ele>14.1</ele>
        <time>2023-05-18T04:06:39Z</time>
      </trkpt>
      <trkpt lat="49.64861" lon="-1.57072">
        <ele>13.7</ele>
        <time>2023-05-18T04:06:42Z</time>
      </trkpt>
      <trkpt lat="49.64859" lon="-1.57101">
        <ele>13.2</ele>
        <time>2023-05-18T04:06:45Z</time>
      </trkpt>
      <trkpt lat="49.64858" lon="-1.5713">
        <ele>12.7</ele>
        <time>2023-05-18T04:06:48Z</time>
      </trkpt>
      <trkpt lat="49.64856" lon="-1.57161">
        <ele>12.2</ele>
        <time>2023-05-18T04:06:51Z</time>
      </trkpt>
      <trkpt lat="49.64853" lon="-1.57191">
        <ele>11.8</ele>
        <time>2023-05-18T04:06:54Z</time>
      </trkpt>
      <trkpt lat="49.64853" lon="-1.57224">
        <ele>11.3</ele>
        <time>2023-05-18T04:06:57Z</time>
      </trkpt>
      <trkpt lat="49.64855" lon="-1.57255">
        <ele>10.8</ele>
        <time>2023-05-18T04:07:00Z</time>
      </trkpt>
      <trkpt lat="49.64858" lon="-1.57287">
        <ele>10.2</ele>
        <time>2023-05-18T04:07:03Z</time>
      </trkpt>
      <trkpt lat="49.64862" lon="-1.57316">
        <ele>9.7</ele>
        <time>2023-05-18T04:07:06Z</time>
      </trkpt>
      <trkpt lat="49.64864" lon="-1.57347">
        <ele>9.1</ele>
        <time>2023-05-18T04:07:09Z</time>
      </trkpt>
      <trkpt lat="49.64866" lon="-1.57381">
        <ele>8.6</ele>
        <time>2023-05-18T04:07:12Z</time>
      </trkpt>
      <trkpt lat="49.64867" lon="-1.57414">
        <ele>8.1</ele>
        <time>2023-05-18T04:07:15Z</time>
      </trkpt>
      <trkpt lat="49.64867" lon="-1.57447">
        <ele>7.7</ele>
        <time>2023-05-18T04:07:18Z</time>
      </trkpt>
      <trkpt lat="49.64867" lon="-1.5748">
        <ele>7.3</ele>
        <time>2023-05-18T04:07:21Z</time>
      </trkpt>
      <trkpt lat="49.64867" lon="-1.57513">
        <ele>6.9</ele>
        <time>2023-05-18T04:07:24Z</time>
      </trkpt>
      <trkpt lat="49.64866" lon="-1.57545">
        <ele>6.6</ele>
        <time>2023-05-18T04:07:27Z</time>
      </trkpt>
      <trkpt lat="49.64866" lon="-1.57577">
        <ele>6.3</ele>
        <time>2023-05-18T04:07:30Z</time>
      </trkpt>
      <trkpt lat="49.64865" lon="-1.57608">
        <ele>6.1</ele>
        <time>2023-05-18T04:07:33Z</time>
      </trkpt>
      <trkpt lat="49.64868" lon="-1.57639">
        <ele>5.7</ele>
        <time>2023-05-18T04:07:36Z</time>
      </trkpt>
      <trkpt lat="49.64874" lon="-1.57668">
        <ele>5.4</ele>
        <time>2023-05-18T04:07:39Z</time>
      </trkpt>
      <trkpt lat="49.6488" lon="-1.57697">
        <ele>5.2</ele>
        <time>2023-05-18T04:07:42Z</time>
      </trkpt>
      <trkpt lat="49.64887" lon="-1.57726">
        <ele>4.9</ele>
        <time>2023-05-18T04:07:45Z</time>
      </trkpt>
      <trkpt lat="49.64894" lon="-1.57756">
        <ele>4.7</ele>
        <time>2023-05-18T04:07:48Z</time>
      </trkpt>
      <trkpt lat="49.64901" lon="-1.57784">
        <ele>4.6</ele>
        <time>2023-05-18T04:07:51Z</time>
      </trkpt>
      <trkpt lat="49.64907" lon="-1.57811">
        <ele>4.4</ele>
        <time>2023-05-18T04:07:54Z</time>
      </trkpt>
      <trkpt lat="49.64914" lon="-1.57838">
        <ele>4.4</ele>
        <time>2023-05-18T04:07:57Z</time>
      </trkpt>
      <trkpt lat="49.64922" lon="-1.57872">
        <ele>4.4</ele>
        <time>2023-05-18T04:08:01Z</time>
      </trkpt>
      <trkpt lat="49.64929" lon="-1.579">
        <ele>4.3</ele>
        <time>2023-05-18T04:08:05Z</time>
      </trkpt>
      <trkpt lat="49.64935" lon="-1.57927">
        <ele>4.3</ele>
        <time>2023-05-18T04:08:09Z</time>
      </trkpt>
      <trkpt lat="49.64942" lon="-1.5796">
        <ele>4.4</ele>
        <time>2023-05-18T04:08:14Z</time>
      </trkpt>
      <trkpt lat="49.6495" lon="-1.57993">
        <ele>4.2</ele>
        <time>2023-05-18T04:08:19Z</time>
      </trkpt>
      <trkpt lat="49.64954" lon="-1.58023">
        <ele>4.2</ele>
        <time>2023-05-18T04:08:23Z</time>
      </trkpt>
      <trkpt lat="49.64955" lon="-1.58056">
        <ele>4</ele>
        <time>2023-05-18T04:08:27Z</time>
      </trkpt>
      <trkpt lat="49.64956" lon="-1.5809">
        <ele>3.7</ele>
        <time>2023-05-18T04:08:31Z</time>
      </trkpt>
      <trkpt lat="49.64956" lon="-1.58124">
        <ele>3.5</ele>
        <time>2023-05-18T04:08:35Z</time>
      </trkpt>
      <trkpt lat="49.64957" lon="-1.5816">
        <ele>3.5</ele>
        <time>2023-05-18T04:08:39Z</time>
      </trkpt>
      <trkpt lat="49.64957" lon="-1.58196">
        <ele>3.4</ele>
        <time>2023-05-18T04:08:43Z</time>
      </trkpt>
      <trkpt lat="49.64959" lon="-1.58225">
        <ele>3.3</ele>
        <time>2023-05-18T04:08:46Z</time>
      </trkpt>
      <trkpt lat="49.64958" lon="-1.58259">
        <ele>3.2</ele>
        <time>2023-05-18T04:08:50Z</time>
      </trkpt>
      <trkpt lat="49.64954" lon="-1.58287">
        <ele>3.2</ele>
        <time>2023-05-18T04:08:53Z</time>
      </trkpt>
      <trkpt lat="49.6495" lon="-1.58321">
        <ele>3.2</ele>
        <time>2023-05-18T04:08:57Z</time>
      </trkpt>
      <trkpt lat="49.64942" lon="-1.58356">
        <ele>3.3</ele>
        <time>2023-05-18T04:09:01Z</time>
      </trkpt>
      <trkpt lat="49.64931" lon="-1.58382">
        <ele>3.5</ele>
        <time>2023-05-18T04:09:05Z</time>
      </trkpt>
      <trkpt lat="49.64919" lon="-1.58413">
        <ele>3.5</ele>
        <time>2023-05-18T04:09:09Z</time>
      </trkpt>
      <trkpt lat="49.64906" lon="-1.58444">
        <ele>3.5</ele>
        <time>2023-05-18T04:09:13Z</time>
      </trkpt>
      <trkpt lat="49.64893" lon="-1.58473">
        <ele>3.5</ele>
        <time>2023-05-18T04:09:17Z</time>
      </trkpt>
      <trkpt lat="49.6488" lon="-1.58503">
        <ele>3.5</ele>
        <time>2023-05-18T04:09:21Z</time>
      </trkpt>
      <trkpt lat="49.64868" lon="-1.58532">
        <ele>3.5</ele>
        <time>2023-05-18T04:09:25Z</time>
      </trkpt>
      <trkpt lat="49.64856" lon="-1.58561">
        <ele>3.6</ele>
        <time>2023-05-18T04:09:29Z</time>
      </trkpt>
      <trkpt lat="49.64843" lon="-1.58591">
        <ele>3.7</ele>
        <time>2023-05-18T04:09:33Z</time>
      </trkpt>
      <trkpt lat="49.64832" lon="-1.58618">
        <ele>3.8</ele>
        <time>2023-05-18T04:09:37Z</time>
      </trkpt>
      <trkpt lat="49.64819" lon="-1.58644">
        <ele>4</ele>
        <time>2023-05-18T04:09:42Z</time>
      </trkpt>
      <trkpt lat="49.64809" lon="-1.58669">
        <ele>4.1</ele>
        <time>2023-05-18T04:09:46Z</time>
      </trkpt>
      <trkpt lat="49.64798" lon="-1.58696">
        <ele>4.3</ele>
        <time>2023-05-18T04:09:50Z</time>
      </trkpt>
      <trkpt lat="49.64788" lon="-1.58724">
        <ele>4.4</ele>
        <time>2023-05-18T04:09:54Z</time>
      </trkpt>
      <trkpt lat="49.64777" lon="-1.5875">
        <ele>4.5</ele>
        <time>2023-05-18T04:09:58Z</time>
      </trkpt>
      <trkpt lat="49.64765" lon="-1.58778">
        <ele>4.6</ele>
        <time>2023-05-18T04:10:03Z</time>
      </trkpt>
      <trkpt lat="49.64754" lon="-1.58802">
        <ele>4.7</ele>
        <time>2023-05-18T04:10:07Z</time>
      </trkpt>
      <trkpt lat="49.64758" lon="-1.5883">
        <ele>4.6</ele>
        <time>2023-05-18T04:10:13Z</time>
      </trkpt>
      <trkpt lat="49.64776" lon="-1.58838">
        <ele>4.5</ele>
        <time>2023-05-18T04:10:17Z</time>
      </trkpt>
      <trkpt lat="49.64794" lon="-1.58847">
        <ele>4.4</ele>
        <time>2023-05-18T04:10:21Z</time>
      </trkpt>
      <trkpt lat="49.64814" lon="-1.5886">
        <ele>4.3</ele>
        <time>2023-05-18T04:10:26Z</time>
      </trkpt>
      <trkpt lat="49.64835" lon="-1.58871">
        <ele>4.1</ele>
        <time>2023-05-18T04:10:30Z</time>
      </trkpt>
      <trkpt lat="49.64853" lon="-1.58882">
        <ele>4.1</ele>
        <time>2023-05-18T04:10:34Z</time>
      </trkpt>
      <trkpt lat="49.64874" lon="-1.58893">
        <ele>4</ele>
        <time>2023-05-18T04:10:39Z</time>
      </trkpt>
      <trkpt lat="49.64868" lon="-1.5892">
        <ele>4.1</ele>
        <time>2023-05-18T04:10:45Z</time>
      </trkpt>
      <trkpt lat="49.64853" lon="-1.58942">
        <ele>4.1</ele>
        <time>2023-05-18T04:10:50Z</time>
      </trkpt>
      <trkpt lat="49.6484" lon="-1.58964">
        <ele>4</ele>
        <time>2023-05-18T04:10:54Z</time>
      </trkpt>
      <trkpt lat="49.64826" lon="-1.58994">
        <ele>4</ele>
        <time>2023-05-18T04:10:58Z</time>
      </trkpt>
      <trkpt lat="49.64812" lon="-1.59022">
        <ele>4</ele>
        <time>2023-05-18T04:11:02Z</time>
      </trkpt>
      <trkpt lat="49.64799" lon="-1.59045">
        <ele>4</ele>
        <time>2023-05-18T04:11:06Z</time>
      </trkpt>
      <trkpt lat="49.64785" lon="-1.59066">
        <ele>4.1</ele>
        <time>2023-05-18T04:11:10Z</time>
      </trkpt>
      <trkpt lat="49.64768" lon="-1.59079">
        <ele>4.2</ele>
        <time>2023-05-18T04:11:14Z</time>
      </trkpt>
      <trkpt lat="49.6475" lon="-1.591">
        <ele>4.2</ele>
        <time>2023-05-18T04:11:18Z</time>
      </trkpt>
      <trkpt lat="49.64744" lon="-1.59126">
        <ele>4.2</ele>
        <time>2023-05-18T04:11:22Z</time>
      </trkpt>
      <trkpt lat="49.64754" lon="-1.59149">
        <ele>4</ele>
        <time>2023-05-18T04:11:26Z</time>
      </trkpt>
      <trkpt lat="49.64774" lon="-1.59156">
        <ele>4</ele>
        <time>2023-05-18T04:11:30Z</time>
      </trkpt>
      <trkpt lat="49.64793" lon="-1.59162">
        <ele>4</ele>
        <time>2023-05-18T04:11:35Z</time>
      </trkpt>
      <trkpt lat="49.64795" lon="-1.59192">
        <ele>3.9</ele>
        <time>2023-05-18T04:11:39Z</time>
      </trkpt>
      <trkpt lat="49.64785" lon="-1.59223">
        <ele>3.9</ele>
        <time>2023-05-18T04:11:44Z</time>
      </trkpt>
      <trkpt lat="49.64771" lon="-1.59249">
        <ele>3.9</ele>
        <time>2023-05-18T04:11:48Z</time>
      </trkpt>
      <trkpt lat="49.64755" lon="-1.59265">
        <ele>3.9</ele>
        <time>2023-05-18T04:11:52Z</time>
      </trkpt>
      <trkpt lat="49.64741" lon="-1.59289">
        <ele>3.9</ele>
        <time>2023-05-18T04:11:56Z</time>
      </trkpt>
      <trkpt lat="49.6473" lon="-1.59313">
        <ele>4</ele>
        <time>2023-05-18T04:12:00Z</time>
      </trkpt>
      <trkpt lat="49.64716" lon="-1.59337">
        <ele>4</ele>
        <time>2023-05-18T04:12:04Z</time>
      </trkpt>
      <trkpt lat="49.64702" lon="-1.59361">
        <ele>4</ele>
        <time>2023-05-18T04:12:08Z</time>
      </trkpt>
      <trkpt lat="49.64689" lon="-1.59386">
        <ele>4</ele>
        <time>2023-05-18T04:12:12Z</time>
      </trkpt>
      <trkpt lat="49.64676" lon="-1.5941">
        <ele>3.9</ele>
        <time>2023-05-18T04:12:16Z</time>
      </trkpt>
      <trkpt lat="49.64662" lon="-1.59434">
        <ele>3.9</ele>
        <time>2023-05-18T04:12:20Z</time>
      </trkpt>
      <trkpt lat="49.64647" lon="-1.59461">
        <ele>3.9</ele>
        <time>2023-05-18T04:12:24Z</time>
      </trkpt>
      <trkpt lat="49.64632" lon="-1.59487">
        <ele>3.9</ele>
        <time>2023-05-18T04:12:28Z</time>
      </trkpt>
      <trkpt lat="49.64618" lon="-1.59511">
        <ele>4</ele>
        <time>2023-05-18T04:12:32Z</time>
      </trkpt>
      <trkpt lat="49.64605" lon="-1.59537">
        <ele>4.1</ele>
        <time>2023-05-18T04:12:36Z</time>
      </trkpt>
      <trkpt lat="49.64593" lon="-1.59563">
        <ele>4.1</ele>
        <time>2023-05-18T04:12:40Z</time>
      </trkpt>
      <trkpt lat="49.64579" lon="-1.5959">
        <ele>4.2</ele>
        <time>2023-05-18T04:12:44Z</time>
      </trkpt>
      <trkpt lat="49.64567" lon="-1.59616">
        <ele>4.2</ele>
        <time>2023-05-18T04:12:48Z</time>
      </trkpt>
      <trkpt lat="49.64553" lon="-1.59644">
        <ele>4.3</ele>
        <time>2023-05-18T04:12:52Z</time>
      </trkpt>
      <trkpt lat="49.64542" lon="-1.59672">
        <ele>4.3</ele>
        <time>2023-05-18T04:12:56Z</time>
      </trkpt>
      <trkpt lat="49.64529" lon="-1.59699">
        <ele>4.4</ele>
        <time>2023-05-18T04:13:00Z</time>
      </trkpt>
      <trkpt lat="49.64515" lon="-1.59727">
        <ele>4.3</ele>
        <time>2023-05-18T04:13:04Z</time>
      </trkpt>
      <trkpt lat="49.64502" lon="-1.59755">
        <ele>4.3</ele>
        <time>2023-05-18T04:13:08Z</time>
      </trkpt>
      <trkpt lat="49.64489" lon="-1.59782">
        <ele>4.3</ele>
        <time>2023-05-18T04:13:12Z</time>
      </trkpt>
      <trkpt lat="49.64477" lon="-1.5981">
        <ele>4.3</ele>
        <time>2023-05-18T04:13:16Z</time>
      </trkpt>
      <trkpt lat="49.64464" lon="-1.59838">
        <ele>4.2</ele>
        <time>2023-05-18T04:13:20Z</time>
      </trkpt>
      <trkpt lat="49.64451" lon="-1.59866">
        <ele>4.2</ele>
        <time>2023-05-18T04:13:24Z</time>
      </trkpt>
      <trkpt lat="49.6444" lon="-1.59896">
        <ele>4.1</ele>
        <time>2023-05-18T04:13:28Z</time>
      </trkpt>
      <trkpt lat="49.64431" lon="-1.59928">
        <ele>4.1</ele>
        <time>2023-05-18T04:13:32Z</time>
      </trkpt>
      <trkpt lat="49.64423" lon="-1.5996">
        <ele>4</ele>
        <time>2023-05-18T04:13:36Z</time>
      </trkpt>
      <trkpt lat="49.64414" lon="-1.59992">
        <ele>4</ele>
        <time>2023-05-18T04:13:40Z</time>
      </trkpt>
      <trkpt lat="49.64407" lon="-1.60023">
        <ele>3.9</ele>
        <time>2023-05-18T04:13:44Z</time>
      </trkpt>
      <trkpt lat="49.64398" lon="-1.60056">
        <ele>3.9</ele>
        <time>2023-05-18T04:13:48Z</time>
      </trkpt>
      <trkpt lat="49.6439" lon="-1.60088">
        <ele>3.8</ele>
        <time>2023-05-18T04:13:52Z</time>
      </trkpt>
      <trkpt lat="49.64382" lon="-1.60121">
        <ele>3.8</ele>
        <time>2023-05-18T04:13:56Z</time>
      </trkpt>
      <trkpt lat="49.64374" lon="-1.60153">
        <ele>3.8</ele>
        <time>2023-05-18T04:14:00Z</time>
      </trkpt>
      <trkpt lat="49.64371" lon="-1.60183">
        <ele>3.9</ele>
        <time>2023-05-18T04:14:04Z</time>
      </trkpt>
      <trkpt lat="49.64365" lon="-1.60214">
        <ele>3.9</ele>
        <time>2023-05-18T04:14:08Z</time>
      </trkpt>
      <trkpt lat="49.64358" lon="-1.60245">
        <ele>3.9</ele>
        <time>2023-05-18T04:14:12Z</time>
      </trkpt>
      <trkpt lat="49.6435" lon="-1.60271">
        <ele>4</ele>
        <time>2023-05-18T04:14:16Z</time>
      </trkpt>
      <trkpt lat="49.64344" lon="-1.60301">
        <ele>4.2</ele>
        <time>2023-05-18T04:14:21Z</time>
      </trkpt>
      <trkpt lat="49.64349" lon="-1.60328">
        <ele>4.1</ele>
        <time>2023-05-18T04:14:27Z</time>
      </trkpt>
      <trkpt lat="49.64342" lon="-1.6036">
        <ele>3.8</ele>
        <time>2023-05-18T04:14:32Z</time>
      </trkpt>
      <trkpt lat="49.64337" lon="-1.6039">
        <ele>3.7</ele>
        <time>2023-05-18T04:14:36Z</time>
      </trkpt>
      <trkpt lat="49.64334" lon="-1.6042">
        <ele>3.6</ele>
        <time>2023-05-18T04:14:40Z</time>
      </trkpt>
      <trkpt lat="49.6433" lon="-1.60451">
        <ele>3.7</ele>
        <time>2023-05-18T04:14:44Z</time>
      </trkpt>
      <trkpt lat="49.64325" lon="-1.60482">
        <ele>3.7</ele>
        <time>2023-05-18T04:14:48Z</time>
      </trkpt>
      <trkpt lat="49.6432" lon="-1.60514">
        <ele>3.8</ele>
        <time>2023-05-18T04:14:52Z</time>
      </trkpt>
      <trkpt lat="49.64314" lon="-1.60544">
        <ele>3.9</ele>
        <time>2023-05-18T04:14:56Z</time>
      </trkpt>
      <trkpt lat="49.6431" lon="-1.60575">
        <ele>4</ele>
        <time>2023-05-18T04:15:00Z</time>
      </trkpt>
      <trkpt lat="49.64303" lon="-1.60608">
        <ele>4</ele>
        <time>2023-05-18T04:15:04Z</time>
      </trkpt>
      <trkpt lat="49.643" lon="-1.60639">
        <ele>4</ele>
        <time>2023-05-18T04:15:08Z</time>
      </trkpt>
      <trkpt lat="49.64297" lon="-1.60671">
        <ele>4.1</ele>
        <time>2023-05-18T04:15:12Z</time>
      </trkpt>
      <trkpt lat="49.64291" lon="-1.60702">
        <ele>4.2</ele>
        <time>2023-05-18T04:15:16Z</time>
      </trkpt>
      <trkpt lat="49.64288" lon="-1.60735">
        <ele>4.2</ele>
        <time>2023-05-18T04:15:20Z</time>
      </trkpt>
      <trkpt lat="49.64284" lon="-1.60769">
        <ele>4.2</ele>
        <time>2023-05-18T04:15:24Z</time>
      </trkpt>
      <trkpt lat="49.64281" lon="-1.60803">
        <ele>4.2</ele>
        <time>2023-05-18T04:15:28Z</time>
      </trkpt>
      <trkpt lat="49.64277" lon="-1.60836">
        <ele>4.3</ele>
        <time>2023-05-18T04:15:32Z</time>
      </trkpt>
      <trkpt lat="49.64275" lon="-1.60869">
        <ele>4.2</ele>
        <time>2023-05-18T04:15:36Z</time>
      </trkpt>
      <trkpt lat="49.64271" lon="-1.60903">
        <ele>4.2</ele>
        <time>2023-05-18T04:15:40Z</time>
      </trkpt>
      <trkpt lat="49.6427" lon="-1.60938">
        <ele>4.1</ele>
        <time>2023-05-18T04:15:44Z</time>
      </trkpt>
      <trkpt lat="49.64267" lon="-1.60974">
        <ele>4</ele>
        <time>2023-05-18T04:15:48Z</time>
      </trkpt>
      <trkpt lat="49.64264" lon="-1.6101">
        <ele>4</ele>
        <time>2023-05-18T04:15:52Z</time>
      </trkpt>
      <trkpt lat="49.64261" lon="-1.61044">
        <ele>4</ele>
        <time>2023-05-18T04:15:56Z</time>
      </trkpt>
      <trkpt lat="49.64259" lon="-1.61078">
        <ele>4.1</ele>
        <time>2023-05-18T04:16:00Z</time>
      </trkpt>
      <trkpt lat="49.64257" lon="-1.61111">
        <ele>4.3</ele>
        <time>2023-05-18T04:16:04Z</time>
      </trkpt>
      <trkpt lat="49.64256" lon="-1.61144">
        <ele>4.4</ele>
        <time>2023-05-18T04:16:08Z</time>
      </trkpt>
      <trkpt lat="49.64254" lon="-1.61177">
        <ele>4.4</ele>
        <time>2023-05-18T04:16:12Z</time>
      </trkpt>
      <trkpt lat="49.64252" lon="-1.61212">
        <ele>4.4</ele>
        <time>2023-05-18T04:16:16Z</time>
      </trkpt>
      <trkpt lat="49.6425" lon="-1.61245">
        <ele>4.4</ele>
        <time>2023-05-18T04:16:20Z</time>
      </trkpt>
      <trkpt lat="49.64246" lon="-1.61278">
        <ele>4.3</ele>
        <time>2023-05-18T04:16:24Z</time>
      </trkpt>
      <trkpt lat="49.64244" lon="-1.61312">
        <ele>4.3</ele>
        <time>2023-05-18T04:16:28Z</time>
      </trkpt>
      <trkpt lat="49.64246" lon="-1.61345">
        <ele>4.2</ele>
        <time>2023-05-18T04:16:32Z</time>
      </trkpt>
      <trkpt lat="49.64251" lon="-1.61377">
        <ele>4.1</ele>
        <time>2023-05-18T04:16:36Z</time>
      </trkpt>
      <trkpt lat="49.64258" lon="-1.6141">
        <ele>4</ele>
        <time>2023-05-18T04:16:40Z</time>
      </trkpt>
      <trkpt lat="49.64264" lon="-1.61442">
        <ele>4</ele>
        <time>2023-05-18T04:16:44Z</time>
      </trkpt>
      <trkpt lat="49.64271" lon="-1.61475">
        <ele>3.9</ele>
        <time>2023-05-18T04:16:48Z</time>
      </trkpt>
      <trkpt lat="49.64275" lon="-1.61508">
        <ele>3.8</ele>
        <time>2023-05-18T04:16:52Z</time>
      </trkpt>
      <trkpt lat="49.64274" lon="-1.61542">
        <ele>3.9</ele>
        <time>2023-05-18T04:16:56Z</time>
      </trkpt>
      <trkpt lat="49.64271" lon="-1.61572">
        <ele>3.9</ele>
        <time>2023-05-18T04:17:00Z</time>
      </trkpt>
      <trkpt lat="49.64265" lon="-1.61599">
        <ele>3.9</ele>
        <time>2023-05-18T04:17:04Z</time>
      </trkpt>
      <trkpt lat="49.64245" lon="-1.61612">
        <ele>3.9</ele>
        <time>2023-05-18T04:17:09Z</time>
      </trkpt>
      <trkpt lat="49.64237" lon="-1.61639">
        <ele>3.8</ele>
        <time>2023-05-18T04:17:13Z</time>
      </trkpt>
      <trkpt lat="49.64231" lon="-1.61673">
        <ele>3.8</ele>
        <time>2023-05-18T04:17:17Z</time>
      </trkpt>
      <trkpt lat="49.64225" lon="-1.61706">
        <ele>3.8</ele>
        <time>2023-05-18T04:17:21Z</time>
      </trkpt>
      <trkpt lat="49.64214" lon="-1.61738">
        <ele>3.8</ele>
        <time>2023-05-18T04:17:25Z</time>
      </trkpt>
      <trkpt lat="49.64198" lon="-1.61762">
        <ele>3.8</ele>
        <time>2023-05-18T04:17:29Z</time>
      </trkpt>
      <trkpt lat="49.64182" lon="-1.61783">
        <ele>3.8</ele>
        <time>2023-05-18T04:17:33Z</time>
      </trkpt>
      <trkpt lat="49.64162" lon="-1.618">
        <ele>3.8</ele>
        <time>2023-05-18T04:17:37Z</time>
      </trkpt>
      <trkpt lat="49.6414" lon="-1.61806">
        <ele>3.8</ele>
        <time>2023-05-18T04:17:41Z</time>
      </trkpt>
      <trkpt lat="49.64117" lon="-1.61809">
        <ele>3.8</ele>
        <time>2023-05-18T04:17:45Z</time>
      </trkpt>
      <trkpt lat="49.64096" lon="-1.61812">
        <ele>3.8</ele>
        <time>2023-05-18T04:17:49Z</time>
      </trkpt>
      <trkpt lat="49.64075" lon="-1.61816">
        <ele>3.7</ele>
        <time>2023-05-18T04:17:53Z</time>
      </trkpt>
      <trkpt lat="49.64052" lon="-1.61821">
        <ele>3.7</ele>
        <time>2023-05-18T04:17:57Z</time>
      </trkpt>
      <trkpt lat="49.6403" lon="-1.61829">
        <ele>3.7</ele>
        <time>2023-05-18T04:18:01Z</time>
      </trkpt>
      <trkpt lat="49.64009" lon="-1.61842">
        <ele>3.8</ele>
        <time>2023-05-18T04:18:05Z</time>
      </trkpt>
      <trkpt lat="49.63988" lon="-1.61855">
        <ele>3.8</ele>
        <time>2023-05-18T04:18:09Z</time>
      </trkpt>
      <trkpt lat="49.63968" lon="-1.61871">
        <ele>3.8</ele>
        <time>2023-05-18T04:18:13Z</time>
      </trkpt>
      <trkpt lat="49.6395" lon="-1.61892">
        <ele>3.9</ele>
        <time>2023-05-18T04:18:17Z</time>
      </trkpt>
      <trkpt lat="49.63936" lon="-1.6191">
        <ele>4.1</ele>
        <time>2023-05-18T04:18:21Z</time>
      </trkpt>
      <trkpt lat="49.63918" lon="-1.61926">
        <ele>4.4</ele>
        <time>2023-05-18T04:18:26Z</time>
      </trkpt>
      <trkpt lat="49.63914" lon="-1.61959">
        <ele>5</ele>
        <time>2023-05-18T04:18:32Z</time>
      </trkpt>
      <trkpt lat="49.63917" lon="-1.61989">
        <ele>5.1</ele>
        <time>2023-05-18T04:18:36Z</time>
      </trkpt>
      <trkpt lat="49.63918" lon="-1.62022">
        <ele>5.2</ele>
        <time>2023-05-18T04:18:40Z</time>
      </trkpt>
      <trkpt lat="49.63919" lon="-1.62052">
        <ele>5.2</ele>
        <time>2023-05-18T04:18:44Z</time>
      </trkpt>
      <trkpt lat="49.63922" lon="-1.62083">
        <ele>5</ele>
        <time>2023-05-18T04:18:48Z</time>
      </trkpt>
      <trkpt lat="49.63936" lon="-1.62104">
        <ele>4.7</ele>
        <time>2023-05-18T04:18:52Z</time>
      </trkpt>
      <trkpt lat="49.63955" lon="-1.62116">
        <ele>4.4</ele>
        <time>2023-05-18T04:18:56Z</time>
      </trkpt>
      <trkpt lat="49.63973" lon="-1.62128">
        <ele>4.3</ele>
        <time>2023-05-18T04:19:00Z</time>
      </trkpt>
      <trkpt lat="49.63991" lon="-1.62141">
        <ele>4.2</ele>
        <time>2023-05-18T04:19:15Z</time>
      </trkpt>
      <trkpt lat="49.6401" lon="-1.62144">
        <ele>4.2</ele>
        <time>2023-05-18T04:19:21Z</time>
      </trkpt>
      <trkpt lat="49.64028" lon="-1.6214">
        <ele>4.2</ele>
        <time>2023-05-18T04:19:25Z</time>
      </trkpt>
      <trkpt lat="49.64046" lon="-1.62134">
        <ele>4.1</ele>
        <time>2023-05-18T04:19:29Z</time>
      </trkpt>
      <trkpt lat="49.64066" lon="-1.62133">
        <ele>4</ele>
        <time>2023-05-18T04:19:33Z</time>
      </trkpt>
      <trkpt lat="49.64084" lon="-1.62132">
        <ele>3.9</ele>
        <time>2023-05-18T04:19:37Z</time>
      </trkpt>
      <trkpt lat="49.64102" lon="-1.62129">
        <ele>3.9</ele>
        <time>2023-05-18T04:19:41Z</time>
      </trkpt>
      <trkpt lat="49.6412" lon="-1.62123">
        <ele>3.9</ele>
        <time>2023-05-18T04:19:46Z</time>
      </trkpt>
      <trkpt lat="49.6414" lon="-1.62124">
        <ele>4</ele>
        <time>2023-05-18T04:19:51Z</time>
      </trkpt>
      <trkpt lat="49.64159" lon="-1.62129">
        <ele>4.1</ele>
        <time>2023-05-18T04:19:55Z</time>
      </trkpt>
      <trkpt lat="49.64178" lon="-1.62138">
        <ele>4.3</ele>
        <time>2023-05-18T04:19:59Z</time>
      </trkpt>
      <trkpt lat="49.64195" lon="-1.62154">
        <ele>4.5</ele>
        <time>2023-05-18T04:20:03Z</time>
      </trkpt>
      <trkpt lat="49.64209" lon="-1.62179">
        <ele>4.6</ele>
        <time>2023-05-18T04:20:07Z</time>
      </trkpt>
      <trkpt lat="49.6422" lon="-1.62205">
        <ele>4.7</ele>
        <time>2023-05-18T04:20:11Z</time>
      </trkpt>
      <trkpt lat="49.64227" lon="-1.62235">
        <ele>4.9</ele>
        <time>2023-05-18T04:20:15Z</time>
      </trkpt>
      <trkpt lat="49.64234" lon="-1.62264">
        <ele>5</ele>
        <time>2023-05-18T04:20:19Z</time>
      </trkpt>
      <trkpt lat="49.64242" lon="-1.62291">
        <ele>5</ele>
        <time>2023-05-18T04:20:23Z</time>
      </trkpt>
      <trkpt lat="49.64253" lon="-1.62319">
        <ele>5.1</ele>
        <time>2023-05-18T04:20:27Z</time>
      </trkpt>
      <trkpt lat="49.64264" lon="-1.62346">
        <ele>5.4</ele>
        <time>2023-05-18T04:20:31Z</time>
      </trkpt>
      <trkpt lat="49.64275" lon="-1.62371">
        <ele>5.5</ele>
        <time>2023-05-18T04:20:35Z</time>
      </trkpt>
      <trkpt lat="49.64285" lon="-1.62395">
        <ele>5.4</ele>
        <time>2023-05-18T04:20:40Z</time>
      </trkpt>
      <trkpt lat="49.64298" lon="-1.62422">
        <ele>5.3</ele>
        <time>2023-05-18T04:20:45Z</time>
      </trkpt>
      <trkpt lat="49.64311" lon="-1.62447">
        <ele>5.2</ele>
        <time>2023-05-18T04:20:49Z</time>
      </trkpt>
      <trkpt lat="49.64324" lon="-1.62475">
        <ele>5</ele>
        <time>2023-05-18T04:20:53Z</time>
      </trkpt>
      <trkpt lat="49.64338" lon="-1.62503">
        <ele>4.9</ele>
        <time>2023-05-18T04:20:57Z</time>
      </trkpt>
      <trkpt lat="49.64352" lon="-1.62531">
        <ele>4.9</ele>
        <time>2023-05-18T04:21:01Z</time>
      </trkpt>
      <trkpt lat="49.64364" lon="-1.62554">
        <ele>5</ele>
        <time>2023-05-18T04:21:05Z</time>
      </trkpt>
      <trkpt lat="49.64382" lon="-1.62568">
        <ele>5</ele>
        <time>2023-05-18T04:21:14Z</time>
      </trkpt>
      <trkpt lat="49.644" lon="-1.62575">
        <ele>4.9</ele>
        <time>2023-05-18T04:21:19Z</time>
      </trkpt>
      <trkpt lat="49.64412" lon="-1.62603">
        <ele>4.9</ele>
        <time>2023-05-18T04:21:24Z</time>
      </trkpt>
      <trkpt lat="49.64424" lon="-1.62629">
        <ele>5.1</ele>
        <time>2023-05-18T04:21:29Z</time>
      </trkpt>
      <trkpt lat="49.64436" lon="-1.6265">
        <ele>5.4</ele>
        <time>2023-05-18T04:21:33Z</time>
      </trkpt>
      <trkpt lat="49.64451" lon="-1.62673">
        <ele>5.7</ele>
        <time>2023-05-18T04:21:38Z</time>
      </trkpt>
      <trkpt lat="49.64461" lon="-1.62704">
        <ele>6</ele>
        <time>2023-05-18T04:21:43Z</time>
      </trkpt>
      <trkpt lat="49.64475" lon="-1.62727">
        <ele>6.1</ele>
        <time>2023-05-18T04:21:47Z</time>
      </trkpt>
      <trkpt lat="49.64487" lon="-1.62753">
        <ele>6.1</ele>
        <time>2023-05-18T04:21:51Z</time>
      </trkpt>
      <trkpt lat="49.64498" lon="-1.62781">
        <ele>6.3</ele>
        <time>2023-05-18T04:21:55Z</time>
      </trkpt>
      <trkpt lat="49.64505" lon="-1.62811">
        <ele>6.3</ele>
        <time>2023-05-18T04:21:59Z</time>
      </trkpt>
      <trkpt lat="49.64506" lon="-1.62845">
        <ele>6.5</ele>
        <time>2023-05-18T04:22:03Z</time>
      </trkpt>
      <trkpt lat="49.64506" lon="-1.62881">
        <ele>6.6</ele>
        <time>2023-05-18T04:22:07Z</time>
      </trkpt>
      <trkpt lat="49.64502" lon="-1.62915">
        <ele>6.7</ele>
        <time>2023-05-18T04:22:11Z</time>
      </trkpt>
      <trkpt lat="49.64498" lon="-1.62946">
        <ele>6.8</ele>
        <time>2023-05-18T04:22:15Z</time>
      </trkpt>
      <trkpt lat="49.64491" lon="-1.62979">
        <ele>6.9</ele>
        <time>2023-05-18T04:22:19Z</time>
      </trkpt>
      <trkpt lat="49.64485" lon="-1.63009">
        <ele>7</ele>
        <time>2023-05-18T04:22:23Z</time>
      </trkpt>
      <trkpt lat="49.64478" lon="-1.63041">
        <ele>7</ele>
        <time>2023-05-18T04:22:27Z</time>
      </trkpt>
      <trkpt lat="49.64468" lon="-1.63068">
        <ele>7.1</ele>
        <time>2023-05-18T04:22:31Z</time>
      </trkpt>
      <trkpt lat="49.64456" lon="-1.63095">
        <ele>7.2</ele>
        <time>2023-05-18T04:22:35Z</time>
      </trkpt>
      <trkpt lat="49.64449" lon="-1.63128">
        <ele>7.2</ele>
        <time>2023-05-18T04:22:39Z</time>
      </trkpt>
      <trkpt lat="49.64443" lon="-1.63159">
        <ele>7.2</ele>
        <time>2023-05-18T04:22:43Z</time>
      </trkpt>
      <trkpt lat="49.6444" lon="-1.63194">
        <ele>7.2</ele>
        <time>2023-05-18T04:22:47Z</time>
      </trkpt>
      <trkpt lat="49.64438" lon="-1.63222">
        <ele>7</ele>
        <time>2023-05-18T04:22:50Z</time>
      </trkpt>
      <trkpt lat="49.64437" lon="-1.6325">
        <ele>6.9</ele>
        <time>2023-05-18T04:22:53Z</time>
      </trkpt>
      <trkpt lat="49.64439" lon="-1.63287">
        <ele>6.7</ele>
        <time>2023-05-18T04:22:57Z</time>
      </trkpt>
      <trkpt lat="49.64445" lon="-1.63313">
        <ele>6.6</ele>
        <time>2023-05-18T04:23:00Z</time>
      </trkpt>
      <trkpt lat="49.64452" lon="-1.63341">
        <ele>6.5</ele>
        <time>2023-05-18T04:23:03Z</time>
      </trkpt>
      <trkpt lat="49.64459" lon="-1.63376">
        <ele>6.4</ele>
        <time>2023-05-18T04:23:07Z</time>
      </trkpt>
      <trkpt lat="49.64465" lon="-1.63403">
        <ele>6.4</ele>
        <time>2023-05-18T04:23:10Z</time>
      </trkpt>
      <trkpt lat="49.64472" lon="-1.63431">
        <ele>6.3</ele>
        <time>2023-05-18T04:23:13Z</time>
      </trkpt>
      <trkpt lat="49.6448" lon="-1.63465">
        <ele>6.2</ele>
        <time>2023-05-18T04:23:17Z</time>
      </trkpt>
      <trkpt lat="49.64487" lon="-1.63498">
        <ele>6.2</ele>
        <time>2023-05-18T04:23:21Z</time>
      </trkpt>
      <trkpt lat="49.64495" lon="-1.63528">
        <ele>6.1</ele>
        <time>2023-05-18T04:23:54Z</time>
      </trkpt>
      <trkpt lat="49.64496" lon="-1.63556">
        <ele>6.1</ele>
        <time>2023-05-18T04:24:00Z</time>
      </trkpt>
      <trkpt lat="49.645" lon="-1.63585">
        <ele>6</ele>
        <time>2023-05-18T04:24:04Z</time>
      </trkpt>
      <trkpt lat="49.64508" lon="-1.63613">
        <ele>6</ele>
        <time>2023-05-18T04:24:08Z</time>
      </trkpt>
      <trkpt lat="49.64511" lon="-1.63643">
        <ele>6.1</ele>
        <time>2023-05-18T04:24:12Z</time>
      </trkpt>
      <trkpt lat="49.64519" lon="-1.63673">
        <ele>6.3</ele>
        <time>2023-05-18T04:24:16Z</time>
      </trkpt>
      <trkpt lat="49.64526" lon="-1.63706">
        <ele>6.5</ele>
        <time>2023-05-18T04:24:20Z</time>
      </trkpt>
      <trkpt lat="49.64534" lon="-1.6374">
        <ele>6.7</ele>
        <time>2023-05-18T04:24:24Z</time>
      </trkpt>
      <trkpt lat="49.64541" lon="-1.63772">
        <ele>6.9</ele>
        <time>2023-05-18T04:24:28Z</time>
      </trkpt>
      <trkpt lat="49.64551" lon="-1.63801">
        <ele>7.4</ele>
        <time>2023-05-18T04:24:32Z</time>
      </trkpt>
      <trkpt lat="49.64562" lon="-1.6383">
        <ele>7.7</ele>
        <time>2023-05-18T04:24:36Z</time>
      </trkpt>
      <trkpt lat="49.64569" lon="-1.6386">
        <ele>7.9</ele>
        <time>2023-05-18T04:24:40Z</time>
      </trkpt>
      <trkpt lat="49.64575" lon="-1.63891">
        <ele>8.1</ele>
        <time>2023-05-18T04:24:44Z</time>
      </trkpt>
      <trkpt lat="49.64583" lon="-1.63922">
        <ele>8.4</ele>
        <time>2023-05-18T04:24:48Z</time>
      </trkpt>
      <trkpt lat="49.64589" lon="-1.63952">
        <ele>8.8</ele>
        <time>2023-05-18T04:24:52Z</time>
      </trkpt>
      <trkpt lat="49.64595" lon="-1.63982">
        <ele>9.1</ele>
        <time>2023-05-18T04:24:56Z</time>
      </trkpt>
      <trkpt lat="49.64605" lon="-1.64008">
        <ele>9.5</ele>
        <time>2023-05-18T04:25:00Z</time>
      </trkpt>
      <trkpt lat="49.64613" lon="-1.64038">
        <ele>10</ele>
        <time>2023-05-18T04:25:04Z</time>
      </trkpt>
      <trkpt lat="49.64621" lon="-1.64066">
        <ele>10.5</ele>
        <time>2023-05-18T04:25:08Z</time>
      </trkpt>
      <trkpt lat="49.64627" lon="-1.64092">
        <ele>11</ele>
        <time>2023-05-18T04:25:12Z</time>
      </trkpt>
      <trkpt lat="49.64634" lon="-1.64119">
        <ele>11.5</ele>
        <time>2023-05-18T04:25:16Z</time>
      </trkpt>
      <trkpt lat="49.6464" lon="-1.64146">
        <ele>11.8</ele>
        <time>2023-05-18T04:25:20Z</time>
      </trkpt>
      <trkpt lat="49.64649" lon="-1.64178">
        <ele>12</ele>
        <time>2023-05-18T04:25:24Z</time>
      </trkpt>
      <trkpt lat="49.64659" lon="-1.64204">
        <ele>12.1</ele>
        <time>2023-05-18T04:25:28Z</time>
      </trkpt>
      <trkpt lat="49.64675" lon="-1.64226">
        <ele>12.2</ele>
        <time>2023-05-18T04:25:32Z</time>
      </trkpt>
      <trkpt lat="49.6469" lon="-1.64249">
        <ele>12.2</ele>
        <time>2023-05-18T04:25:36Z</time>
      </trkpt>
      <trkpt lat="49.6471" lon="-1.64267">
        <ele>12.1</ele>
        <time>2023-05-18T04:25:40Z</time>
      </trkpt>
      <trkpt lat="49.64726" lon="-1.6428">
        <ele>12</ele>
        <time>2023-05-18T04:25:43Z</time>
      </trkpt>
      <trkpt lat="49.64745" lon="-1.64288">
        <ele>11.8</ele>
        <time>2023-05-18T04:25:46Z</time>
      </trkpt>
      <trkpt lat="49.64765" lon="-1.64296">
        <ele>11.6</ele>
        <time>2023-05-18T04:25:49Z</time>
      </trkpt>
      <trkpt lat="49.64783" lon="-1.64305">
        <ele>11.6</ele>
        <time>2023-05-18T04:25:52Z</time>
      </trkpt>
      <trkpt lat="49.64806" lon="-1.64316">
        <ele>11.6</ele>
        <time>2023-05-18T04:25:56Z</time>
      </trkpt>
      <trkpt lat="49.64823" lon="-1.64327">
        <ele>11.6</ele>
        <time>2023-05-18T04:25:59Z</time>
      </trkpt>
      <trkpt lat="49.64844" lon="-1.64345">
        <ele>11.6</ele>
        <time>2023-05-18T04:26:03Z</time>
      </trkpt>
      <trkpt lat="49.64864" lon="-1.64363">
        <ele>11.5</ele>
        <time>2023-05-18T04:26:07Z</time>
      </trkpt>
      <trkpt lat="49.64884" lon="-1.64379">
        <ele>11.5</ele>
        <time>2023-05-18T04:26:11Z</time>
      </trkpt>
      <trkpt lat="49.64904" lon="-1.64397">
        <ele>11.6</ele>
        <time>2023-05-18T04:26:15Z</time>
      </trkpt>
      <trkpt lat="49.64922" lon="-1.64415">
        <ele>11.7</ele>
        <time>2023-05-18T04:26:19Z</time>
      </trkpt>
      <trkpt lat="49.64941" lon="-1.64434">
        <ele>11.8</ele>
        <time>2023-05-18T04:26:23Z</time>
      </trkpt>
      <trkpt lat="49.64959" lon="-1.64453">
        <ele>12</ele>
        <time>2023-05-18T04:26:27Z</time>
      </trkpt>
      <trkpt lat="49.64974" lon="-1.64475">
        <ele>12.2</ele>
        <time>2023-05-18T04:26:32Z</time>
      </trkpt>
      <trkpt lat="49.64993" lon="-1.64494">
        <ele>12.3</ele>
        <time>2023-05-18T04:26:37Z</time>
      </trkpt>
      <trkpt lat="49.6501" lon="-1.64511">
        <ele>12.3</ele>
        <time>2023-05-18T04:26:41Z</time>
      </trkpt>
      <trkpt lat="49.65028" lon="-1.6453">
        <ele>12.3</ele>
        <time>2023-05-18T04:26:45Z</time>
      </trkpt>
      <trkpt lat="49.65046" lon="-1.64547">
        <ele>12.4</ele>
        <time>2023-05-18T04:26:49Z</time>
      </trkpt>
      <trkpt lat="49.65064" lon="-1.64566">
        <ele>12.6</ele>
        <time>2023-05-18T04:26:53Z</time>
      </trkpt>
      <trkpt lat="49.65082" lon="-1.64584">
        <ele>12.7</ele>
        <time>2023-05-18T04:26:57Z</time>
      </trkpt>
      <trkpt lat="49.65101" lon="-1.64602">
        <ele>12.8</ele>
        <time>2023-05-18T04:27:01Z</time>
      </trkpt>
      <trkpt lat="49.65118" lon="-1.64621">
        <ele>12.8</ele>
        <time>2023-05-18T04:27:05Z</time>
      </trkpt>
      <trkpt lat="49.65136" lon="-1.64639">
        <ele>12.9</ele>
        <time>2023-05-18T04:27:09Z</time>
      </trkpt>
      <trkpt lat="49.65153" lon="-1.64656">
        <ele>13</ele>
        <time>2023-05-18T04:27:13Z</time>
      </trkpt>
      <trkpt lat="49.65171" lon="-1.64674">
        <ele>13.1</ele>
        <time>2023-05-18T04:27:17Z</time>
      </trkpt>
      <trkpt lat="49.6519" lon="-1.64693">
        <ele>13.2</ele>
        <time>2023-05-18T04:27:21Z</time>
      </trkpt>
      <trkpt lat="49.65208" lon="-1.64711">
        <ele>13.4</ele>
        <time>2023-05-18T04:27:25Z</time>
      </trkpt>
      <trkpt lat="49.65225" lon="-1.6473">
        <ele>13.5</ele>
        <time>2023-05-18T04:27:29Z</time>
      </trkpt>
      <trkpt lat="49.65244" lon="-1.64748">
        <ele>13.6</ele>
        <time>2023-05-18T04:27:33Z</time>
      </trkpt>
      <trkpt lat="49.65264" lon="-1.64768">
        <ele>13.8</ele>
        <time>2023-05-18T04:27:37Z</time>
      </trkpt>
      <trkpt lat="49.65283" lon="-1.64787">
        <ele>13.9</ele>
        <time>2023-05-18T04:27:41Z</time>
      </trkpt>
      <trkpt lat="49.65302" lon="-1.64806">
        <ele>14</ele>
        <time>2023-05-18T04:27:45Z</time>
      </trkpt>
      <trkpt lat="49.65321" lon="-1.64822">
        <ele>14.2</ele>
        <time>2023-05-18T04:27:49Z</time>
      </trkpt>
      <trkpt lat="49.65341" lon="-1.64838">
        <ele>14.4</ele>
        <time>2023-05-18T04:27:53Z</time>
      </trkpt>
      <trkpt lat="49.6536" lon="-1.64857">
        <ele>14.6</ele>
        <time>2023-05-18T04:27:57Z</time>
      </trkpt>
      <trkpt lat="49.65378" lon="-1.64875">
        <ele>14.8</ele>
        <time>2023-05-18T04:28:01Z</time>
      </trkpt>
      <trkpt lat="49.65398" lon="-1.64881">
        <ele>14.8</ele>
        <time>2023-05-18T04:28:05Z</time>
      </trkpt>
      <trkpt lat="49.65418" lon="-1.64894">
        <ele>14.9</ele>
        <time>2023-05-18T04:28:10Z</time>
      </trkpt>
      <trkpt lat="49.65429" lon="-1.64922">
        <ele>14.8</ele>
        <time>2023-05-18T04:28:14Z</time>
      </trkpt>
      <trkpt lat="49.65446" lon="-1.64942">
        <ele>14.9</ele>
        <time>2023-05-18T04:28:18Z</time>
      </trkpt>
      <trkpt lat="49.65465" lon="-1.64953">
        <ele>14.9</ele>
        <time>2023-05-18T04:28:22Z</time>
      </trkpt>
      <trkpt lat="49.65483" lon="-1.64972">
        <ele>14.7</ele>
        <time>2023-05-18T04:28:26Z</time>
      </trkpt>
      <trkpt lat="49.65499" lon="-1.64995">
        <ele>14.3</ele>
        <time>2023-05-18T04:28:30Z</time>
      </trkpt>
      <trkpt lat="49.65511" lon="-1.65016">
        <ele>13.9</ele>
        <time>2023-05-18T04:28:33Z</time>
      </trkpt>
      <trkpt lat="49.65528" lon="-1.65043">
        <ele>13.3</ele>
        <time>2023-05-18T04:28:37Z</time>
      </trkpt>
      <trkpt lat="49.65543" lon="-1.6506">
        <ele>12.7</ele>
        <time>2023-05-18T04:28:40Z</time>
      </trkpt>
      <trkpt lat="49.65564" lon="-1.65079">
        <ele>11.9</ele>
        <time>2023-05-18T04:28:44Z</time>
      </trkpt>
      <trkpt lat="49.65579" lon="-1.65099">
        <ele>11</ele>
        <time>2023-05-18T04:28:47Z</time>
      </trkpt>
      <trkpt lat="49.65595" lon="-1.65125">
        <ele>9.7</ele>
        <time>2023-05-18T04:28:50Z</time>
      </trkpt>
      <trkpt lat="49.6561" lon="-1.65156">
        <ele>8.6</ele>
        <time>2023-05-18T04:28:53Z</time>
      </trkpt>
      <trkpt lat="49.65621" lon="-1.6519">
        <ele>7.7</ele>
        <time>2023-05-18T04:28:56Z</time>
      </trkpt>
      <trkpt lat="49.65623" lon="-1.65226">
        <ele>6.9</ele>
        <time>2023-05-18T04:28:59Z</time>
      </trkpt>
      <trkpt lat="49.65629" lon="-1.65262">
        <ele>6.2</ele>
        <time>2023-05-18T04:29:02Z</time>
      </trkpt>
      <trkpt lat="49.65639" lon="-1.65294">
        <ele>5.7</ele>
        <time>2023-05-18T04:29:05Z</time>
      </trkpt>
      <trkpt lat="49.65649" lon="-1.65325">
        <ele>5.4</ele>
        <time>2023-05-18T04:29:08Z</time>
      </trkpt>
      <trkpt lat="49.65657" lon="-1.65355">
        <ele>5.4</ele>
        <time>2023-05-18T04:29:11Z</time>
      </trkpt>
      <trkpt lat="49.65667" lon="-1.65385">
        <ele>5.4</ele>
        <time>2023-05-18T04:29:14Z</time>
      </trkpt>
      <trkpt lat="49.65675" lon="-1.65413">
        <ele>5.7</ele>
        <time>2023-05-18T04:29:17Z</time>
      </trkpt>
      <trkpt lat="49.65686" lon="-1.65444">
        <ele>6.7</ele>
        <time>2023-05-18T04:29:21Z</time>
      </trkpt>
      <trkpt lat="49.65693" lon="-1.65471">
        <ele>7.8</ele>
        <time>2023-05-18T04:29:25Z</time>
      </trkpt>
      <trkpt lat="49.65704" lon="-1.65501">
        <ele>8.7</ele>
        <time>2023-05-18T04:29:30Z</time>
      </trkpt>
      <trkpt lat="49.65712" lon="-1.65529">
        <ele>9.1</ele>
        <time>2023-05-18T04:29:34Z</time>
      </trkpt>
      <trkpt lat="49.65721" lon="-1.65559">
        <ele>9.1</ele>
        <time>2023-05-18T04:29:38Z</time>
      </trkpt>
      <trkpt lat="49.6573" lon="-1.65593">
        <ele>9</ele>
        <time>2023-05-18T04:29:42Z</time>
      </trkpt>
      <trkpt lat="49.65736" lon="-1.65628">
        <ele>8.8</ele>
        <time>2023-05-18T04:29:46Z</time>
      </trkpt>
      <trkpt lat="49.6574" lon="-1.65655">
        <ele>8.7</ele>
        <time>2023-05-18T04:29:49Z</time>
      </trkpt>
      <trkpt lat="49.65744" lon="-1.65691">
        <ele>8.6</ele>
        <time>2023-05-18T04:29:53Z</time>
      </trkpt>
      <trkpt lat="49.65747" lon="-1.65727">
        <ele>8.3</ele>
        <time>2023-05-18T04:29:57Z</time>
      </trkpt>
      <trkpt lat="49.65748" lon="-1.65755">
        <ele>8.1</ele>
        <time>2023-05-18T04:30:00Z</time>
      </trkpt>
      <trkpt lat="49.65749" lon="-1.65783">
        <ele>8</ele>
        <time>2023-05-18T04:30:03Z</time>
      </trkpt>
      <trkpt lat="49.6575" lon="-1.6582">
        <ele>7.6</ele>
        <time>2023-05-18T04:30:07Z</time>
      </trkpt>
      <trkpt lat="49.65757" lon="-1.65847">
        <ele>7</ele>
        <time>2023-05-18T04:30:10Z</time>
      </trkpt>
      <trkpt lat="49.65765" lon="-1.65877">
        <ele>6.1</ele>
        <time>2023-05-18T04:30:13Z</time>
      </trkpt>
      <trkpt lat="49.65767" lon="-1.65911">
        <ele>5.6</ele>
        <time>2023-05-18T04:30:16Z</time>
      </trkpt>
      <trkpt lat="49.65769" lon="-1.65944">
        <ele>5.4</ele>
        <time>2023-05-18T04:30:19Z</time>
      </trkpt>
      <trkpt lat="49.65772" lon="-1.65975">
        <ele>5.3</ele>
        <time>2023-05-18T04:30:22Z</time>
      </trkpt>
      <trkpt lat="49.65776" lon="-1.66005">
        <ele>5.3</ele>
        <time>2023-05-18T04:30:25Z</time>
      </trkpt>
      <trkpt lat="49.65779" lon="-1.66035">
        <ele>5.4</ele>
        <time>2023-05-18T04:30:28Z</time>
      </trkpt>
      <trkpt lat="49.65783" lon="-1.66065">
        <ele>5.3</ele>
        <time>2023-05-18T04:30:31Z</time>
      </trkpt>
      <trkpt lat="49.65786" lon="-1.66094">
        <ele>5.3</ele>
        <time>2023-05-18T04:30:34Z</time>
      </trkpt>
      <trkpt lat="49.65791" lon="-1.66123">
        <ele>5.3</ele>
        <time>2023-05-18T04:30:37Z</time>
      </trkpt>
      <trkpt lat="49.65795" lon="-1.6615">
        <ele>5.3</ele>
        <time>2023-05-18T04:30:40Z</time>
      </trkpt>
      <trkpt lat="49.65799" lon="-1.66179">
        <ele>5.4</ele>
        <time>2023-05-18T04:30:43Z</time>
      </trkpt>
      <trkpt lat="49.65802" lon="-1.66207">
        <ele>5.3</ele>
        <time>2023-05-18T04:30:46Z</time>
      </trkpt>
      <trkpt lat="49.65804" lon="-1.66235">
        <ele>5.3</ele>
        <time>2023-05-18T04:30:49Z</time>
      </trkpt>
      <trkpt lat="49.65805" lon="-1.66272">
        <ele>5.4</ele>
        <time>2023-05-18T04:30:53Z</time>
      </trkpt>
      <trkpt lat="49.65805" lon="-1.663">
        <ele>5.4</ele>
        <time>2023-05-18T04:30:56Z</time>
      </trkpt>
      <trkpt lat="49.65806" lon="-1.66337">
        <ele>5.4</ele>
        <time>2023-05-18T04:31:00Z</time>
      </trkpt>
      <trkpt lat="49.65806" lon="-1.66373">
        <ele>5.4</ele>
        <time>2023-05-18T04:31:04Z</time>
      </trkpt>
      <trkpt lat="49.65805" lon="-1.66409">
        <ele>5.5</ele>
        <time>2023-05-18T04:31:08Z</time>
      </trkpt>
      <trkpt lat="49.65803" lon="-1.66441">
        <ele>5.6</ele>
        <time>2023-05-18T04:31:12Z</time>
      </trkpt>
      <trkpt lat="49.65799" lon="-1.66475">
        <ele>5.8</ele>
        <time>2023-05-18T04:31:16Z</time>
      </trkpt>
      <trkpt lat="49.65796" lon="-1.66509">
        <ele>5.8</ele>
        <time>2023-05-18T04:31:20Z</time>
      </trkpt>
      <trkpt lat="49.65792" lon="-1.66542">
        <ele>5.8</ele>
        <time>2023-05-18T04:31:24Z</time>
      </trkpt>
      <trkpt lat="49.6579" lon="-1.66577">
        <ele>5.8</ele>
        <time>2023-05-18T04:31:28Z</time>
      </trkpt>
      <trkpt lat="49.65787" lon="-1.66606">
        <ele>5.8</ele>
        <time>2023-05-18T04:31:31Z</time>
      </trkpt>
      <trkpt lat="49.65784" lon="-1.66642">
        <ele>5.9</ele>
        <time>2023-05-18T04:31:35Z</time>
      </trkpt>
      <trkpt lat="49.65782" lon="-1.66676">
        <ele>6</ele>
        <time>2023-05-18T04:31:39Z</time>
      </trkpt>
      <trkpt lat="49.6578" lon="-1.66712">
        <ele>6.1</ele>
        <time>2023-05-18T04:31:43Z</time>
      </trkpt>
      <trkpt lat="49.65782" lon="-1.66746">
        <ele>6.3</ele>
        <time>2023-05-18T04:31:47Z</time>
      </trkpt>
      <trkpt lat="49.6579" lon="-1.66777">
        <ele>6.5</ele>
        <time>2023-05-18T04:31:51Z</time>
      </trkpt>
      <trkpt lat="49.65796" lon="-1.66809">
        <ele>6.8</ele>
        <time>2023-05-18T04:31:55Z</time>
      </trkpt>
      <trkpt lat="49.6579" lon="-1.66839">
        <ele>6.8</ele>
        <time>2023-05-18T04:31:59Z</time>
      </trkpt>
      <trkpt lat="49.6578" lon="-1.66867">
        <ele>6.8</ele>
        <time>2023-05-18T04:32:03Z</time>
      </trkpt>
      <trkpt lat="49.65776" lon="-1.66902">
        <ele>6.6</ele>
        <time>2023-05-18T04:32:07Z</time>
      </trkpt>
      <trkpt lat="49.65773" lon="-1.6694">
        <ele>5.9</ele>
        <time>2023-05-18T04:32:11Z</time>
      </trkpt>
      <trkpt lat="49.6577" lon="-1.66971">
        <ele>5.3</ele>
        <time>2023-05-18T04:32:14Z</time>
      </trkpt>
      <trkpt lat="49.65768" lon="-1.67003">
        <ele>4.9</ele>
        <time>2023-05-18T04:32:17Z</time>
      </trkpt>
      <trkpt lat="49.65766" lon="-1.67034">
        <ele>4.8</ele>
        <time>2023-05-18T04:32:20Z</time>
      </trkpt>
      <trkpt lat="49.65765" lon="-1.67066">
        <ele>4.8</ele>
        <time>2023-05-18T04:32:23Z</time>
      </trkpt>
      <trkpt lat="49.65767" lon="-1.67098">
        <ele>4.8</ele>
        <time>2023-05-18T04:32:26Z</time>
      </trkpt>
      <trkpt lat="49.6577" lon="-1.67127">
        <ele>4.7</ele>
        <time>2023-05-18T04:32:29Z</time>
      </trkpt>
      <trkpt lat="49.65774" lon="-1.67156">
        <ele>4.7</ele>
        <time>2023-05-18T04:32:32Z</time>
      </trkpt>
      <trkpt lat="49.6578" lon="-1.67185">
        <ele>4.7</ele>
        <time>2023-05-18T04:32:35Z</time>
      </trkpt>
      <trkpt lat="49.65788" lon="-1.67212">
        <ele>4.8</ele>
        <time>2023-05-18T04:32:38Z</time>
      </trkpt>
      <trkpt lat="49.65795" lon="-1.67238">
        <ele>4.9</ele>
        <time>2023-05-18T04:32:41Z</time>
      </trkpt>
      <trkpt lat="49.65804" lon="-1.67263">
        <ele>4.9</ele>
        <time>2023-05-18T04:32:44Z</time>
      </trkpt>
      <trkpt lat="49.65816" lon="-1.67286">
        <ele>5</ele>
        <time>2023-05-18T04:32:47Z</time>
      </trkpt>
      <trkpt lat="49.65829" lon="-1.67309">
        <ele>5</ele>
        <time>2023-05-18T04:32:50Z</time>
      </trkpt>
      <trkpt lat="49.65841" lon="-1.67332">
        <ele>5</ele>
        <time>2023-05-18T04:32:53Z</time>
      </trkpt>
      <trkpt lat="49.65854" lon="-1.67354">
        <ele>5</ele>
        <time>2023-05-18T04:32:56Z</time>
      </trkpt>
      <trkpt lat="49.65867" lon="-1.67376">
        <ele>5.1</ele>
        <time>2023-05-18T04:32:59Z</time>
      </trkpt>
      <trkpt lat="49.65883" lon="-1.67404">
        <ele>5.1</ele>
        <time>2023-05-18T04:33:03Z</time>
      </trkpt>
      <trkpt lat="49.65895" lon="-1.67425">
        <ele>5.1</ele>
        <time>2023-05-18T04:33:06Z</time>
      </trkpt>
      <trkpt lat="49.65908" lon="-1.67446">
        <ele>5.2</ele>
        <time>2023-05-18T04:33:09Z</time>
      </trkpt>
      <trkpt lat="49.65921" lon="-1.67468">
        <ele>5.2</ele>
        <time>2023-05-18T04:33:12Z</time>
      </trkpt>
      <trkpt lat="49.65934" lon="-1.6749">
        <ele>5.3</ele>
        <time>2023-05-18T04:33:15Z</time>
      </trkpt>
      <trkpt lat="49.65946" lon="-1.67512">
        <ele>5.3</ele>
        <time>2023-05-18T04:33:18Z</time>
      </trkpt>
      <trkpt lat="49.65958" lon="-1.67534">
        <ele>5.5</ele>
        <time>2023-05-18T04:33:21Z</time>
      </trkpt>
      <trkpt lat="49.6597" lon="-1.67555">
        <ele>5.5</ele>
        <time>2023-05-18T04:33:24Z</time>
      </trkpt>
      <trkpt lat="49.65983" lon="-1.67576">
        <ele>5.5</ele>
        <time>2023-05-18T04:33:27Z</time>
      </trkpt>
      <trkpt lat="49.65996" lon="-1.67598">
        <ele>5.4</ele>
        <time>2023-05-18T04:33:30Z</time>
      </trkpt>
      <trkpt lat="49.66009" lon="-1.67619">
        <ele>5.3</ele>
        <time>2023-05-18T04:33:33Z</time>
      </trkpt>
      <trkpt lat="49.66021" lon="-1.67641">
        <ele>5.3</ele>
        <time>2023-05-18T04:33:36Z</time>
      </trkpt>
      <trkpt lat="49.66034" lon="-1.67662">
        <ele>5.2</ele>
        <time>2023-05-18T04:33:39Z</time>
      </trkpt>
      <trkpt lat="49.66048" lon="-1.67685">
        <ele>5.2</ele>
        <time>2023-05-18T04:33:42Z</time>
      </trkpt>
      <trkpt lat="49.6606" lon="-1.67707">
        <ele>5.2</ele>
        <time>2023-05-18T04:33:45Z</time>
      </trkpt>
      <trkpt lat="49.66073" lon="-1.67729">
        <ele>5.1</ele>
        <time>2023-05-18T04:33:48Z</time>
      </trkpt>
      <trkpt lat="49.66086" lon="-1.67751">
        <ele>5.1</ele>
        <time>2023-05-18T04:33:51Z</time>
      </trkpt>
      <trkpt lat="49.661" lon="-1.67772">
        <ele>5.1</ele>
        <time>2023-05-18T04:33:54Z</time>
      </trkpt>
      <trkpt lat="49.66112" lon="-1.67795">
        <ele>5.1</ele>
        <time>2023-05-18T04:33:57Z</time>
      </trkpt>
      <trkpt lat="49.66125" lon="-1.67817">
        <ele>5.1</ele>
        <time>2023-05-18T04:34:00Z</time>
      </trkpt>
      <trkpt lat="49.66138" lon="-1.67838">
        <ele>5.1</ele>
        <time>2023-05-18T04:34:03Z</time>
      </trkpt>
      <trkpt lat="49.66151" lon="-1.6786">
        <ele>5</ele>
        <time>2023-05-18T04:34:06Z</time>
      </trkpt>
      <trkpt lat="49.66165" lon="-1.67881">
        <ele>4.9</ele>
        <time>2023-05-18T04:34:09Z</time>
      </trkpt>
      <trkpt lat="49.66178" lon="-1.67903">
        <ele>4.9</ele>
        <time>2023-05-18T04:34:12Z</time>
      </trkpt>
      <trkpt lat="49.6619" lon="-1.67925">
        <ele>4.8</ele>
        <time>2023-05-18T04:34:15Z</time>
      </trkpt>
      <trkpt lat="49.66204" lon="-1.67947">
        <ele>4.9</ele>
        <time>2023-05-18T04:34:18Z</time>
      </trkpt>
      <trkpt lat="49.66214" lon="-1.67971">
        <ele>5</ele>
        <time>2023-05-18T04:34:21Z</time>
      </trkpt>
      <trkpt lat="49.66206" lon="-1.68">
        <ele>5</ele>
        <time>2023-05-18T04:34:25Z</time>
      </trkpt>
      <trkpt lat="49.66194" lon="-1.68031">
        <ele>4.8</ele>
        <time>2023-05-18T04:34:29Z</time>
      </trkpt>
      <trkpt lat="49.66186" lon="-1.68062">
        <ele>4.7</ele>
        <time>2023-05-18T04:34:33Z</time>
      </trkpt>
      <trkpt lat="49.6618" lon="-1.68092">
        <ele>4.5</ele>
        <time>2023-05-18T04:34:37Z</time>
      </trkpt>
      <trkpt lat="49.66175" lon="-1.68123">
        <ele>4.5</ele>
        <time>2023-05-18T04:34:41Z</time>
      </trkpt>
      <trkpt lat="49.6618" lon="-1.68154">
        <ele>4.7</ele>
        <time>2023-05-18T04:34:45Z</time>
      </trkpt>
      <trkpt lat="49.66195" lon="-1.68173">
        <ele>4.8</ele>
        <time>2023-05-18T04:34:49Z</time>
      </trkpt>
      <trkpt lat="49.66199" lon="-1.68202">
        <ele>4.8</ele>
        <time>2023-05-18T04:34:54Z</time>
      </trkpt>
      <trkpt lat="49.66198" lon="-1.68233">
        <ele>4.8</ele>
        <time>2023-05-18T04:35:35Z</time>
      </trkpt>
      <trkpt lat="49.662" lon="-1.68266">
        <ele>4.8</ele>
        <time>2023-05-18T04:35:40Z</time>
      </trkpt>
      <trkpt lat="49.66203" lon="-1.68299">
        <ele>4.8</ele>
        <time>2023-05-18T04:35:44Z</time>
      </trkpt>
      <trkpt lat="49.66208" lon="-1.68329">
        <ele>4.8</ele>
        <time>2023-05-18T04:35:48Z</time>
      </trkpt>
      <trkpt lat="49.66219" lon="-1.68358">
        <ele>4.9</ele>
        <time>2023-05-18T04:35:52Z</time>
      </trkpt>
      <trkpt lat="49.66235" lon="-1.68383">
        <ele>5</ele>
        <time>2023-05-18T04:35:56Z</time>
      </trkpt>
      <trkpt lat="49.66254" lon="-1.68401">
        <ele>5.1</ele>
        <time>2023-05-18T04:36:00Z</time>
      </trkpt>
      <trkpt lat="49.66275" lon="-1.68417">
        <ele>5.2</ele>
        <time>2023-05-18T04:36:04Z</time>
      </trkpt>
      <trkpt lat="49.66294" lon="-1.68433">
        <ele>5.3</ele>
        <time>2023-05-18T04:36:08Z</time>
      </trkpt>
      <trkpt lat="49.66314" lon="-1.68451">
        <ele>5.4</ele>
        <time>2023-05-18T04:36:12Z</time>
      </trkpt>
      <trkpt lat="49.66335" lon="-1.68468">
        <ele>5.5</ele>
        <time>2023-05-18T04:36:16Z</time>
      </trkpt>
      <trkpt lat="49.66355" lon="-1.68484">
        <ele>5.5</ele>
        <time>2023-05-18T04:36:20Z</time>
      </trkpt>
      <trkpt lat="49.66371" lon="-1.68497">
        <ele>5.6</ele>
        <time>2023-05-18T04:36:23Z</time>
      </trkpt>
      <trkpt lat="49.66392" lon="-1.68514">
        <ele>5.6</ele>
        <time>2023-05-18T04:36:27Z</time>
      </trkpt>
      <trkpt lat="49.66411" lon="-1.68529">
        <ele>5.7</ele>
        <time>2023-05-18T04:36:31Z</time>
      </trkpt>
      <trkpt lat="49.66429" lon="-1.68542">
        <ele>5.9</ele>
        <time>2023-05-18T04:36:35Z</time>
      </trkpt>
      <trkpt lat="49.66447" lon="-1.68557">
        <ele>6.1</ele>
        <time>2023-05-18T04:36:40Z</time>
      </trkpt>
      <trkpt lat="49.66463" lon="-1.68573">
        <ele>6.4</ele>
        <time>2023-05-18T04:36:46Z</time>
      </trkpt>
      <trkpt lat="49.66477" lon="-1.68592">
        <ele>6.6</ele>
        <time>2023-05-18T04:37:03Z</time>
      </trkpt>
      <trkpt lat="49.66492" lon="-1.68613">
        <ele>6.9</ele>
        <time>2023-05-18T04:37:08Z</time>
      </trkpt>
      <trkpt lat="49.66504" lon="-1.68634">
        <ele>7</ele>
        <time>2023-05-18T04:37:12Z</time>
      </trkpt>
      <trkpt lat="49.66518" lon="-1.68657">
        <ele>7</ele>
        <time>2023-05-18T04:37:16Z</time>
      </trkpt>
      <trkpt lat="49.6653" lon="-1.6868">
        <ele>7.1</ele>
        <time>2023-05-18T04:37:20Z</time>
      </trkpt>
      <trkpt lat="49.66537" lon="-1.6871">
        <ele>7.2</ele>
        <time>2023-05-18T04:37:25Z</time>
      </trkpt>
      <trkpt lat="49.66548" lon="-1.68734">
        <ele>7.3</ele>
        <time>2023-05-18T04:37:29Z</time>
      </trkpt>
      <trkpt lat="49.66559" lon="-1.68758">
        <ele>7.6</ele>
        <time>2023-05-18T04:37:33Z</time>
      </trkpt>
      <trkpt lat="49.66569" lon="-1.68787">
        <ele>7.9</ele>
        <time>2023-05-18T04:37:37Z</time>
      </trkpt>
      <trkpt lat="49.66577" lon="-1.68817">
        <ele>8.3</ele>
        <time>2023-05-18T04:37:41Z</time>
      </trkpt>
      <trkpt lat="49.66585" lon="-1.68845">
        <ele>8.6</ele>
        <time>2023-05-18T04:37:45Z</time>
      </trkpt>
      <trkpt lat="49.66592" lon="-1.68875">
        <ele>8.9</ele>
        <time>2023-05-18T04:37:49Z</time>
      </trkpt>
      <trkpt lat="49.66598" lon="-1.68904">
        <ele>9.2</ele>
        <time>2023-05-18T04:37:53Z</time>
      </trkpt>
      <trkpt lat="49.66605" lon="-1.68932">
        <ele>9.5</ele>
        <time>2023-05-18T04:37:57Z</time>
      </trkpt>
      <trkpt lat="49.66612" lon="-1.6896">
        <ele>9.7</ele>
        <time>2023-05-18T04:38:01Z</time>
      </trkpt>
      <trkpt lat="49.66618" lon="-1.68989">
        <ele>10</ele>
        <time>2023-05-18T04:38:05Z</time>
      </trkpt>
      <trkpt lat="49.66623" lon="-1.69017">
        <ele>10.2</ele>
        <time>2023-05-18T04:38:09Z</time>
      </trkpt>
      <trkpt lat="49.6663" lon="-1.69045">
        <ele>10.4</ele>
        <time>2023-05-18T04:38:13Z</time>
      </trkpt>
      <trkpt lat="49.66636" lon="-1.69076">
        <ele>10.7</ele>
        <time>2023-05-18T04:38:17Z</time>
      </trkpt>
      <trkpt lat="49.66642" lon="-1.69106">
        <ele>10.7</ele>
        <time>2023-05-18T04:38:21Z</time>
      </trkpt>
      <trkpt lat="49.6665" lon="-1.69135">
        <ele>10.7</ele>
        <time>2023-05-18T04:38:25Z</time>
      </trkpt>
      <trkpt lat="49.66656" lon="-1.69165">
        <ele>10.7</ele>
        <time>2023-05-18T04:38:29Z</time>
      </trkpt>
      <trkpt lat="49.66663" lon="-1.69197">
        <ele>10.7</ele>
        <time>2023-05-18T04:38:33Z</time>
      </trkpt>
      <trkpt lat="49.6667" lon="-1.69229">
        <ele>10.5</ele>
        <time>2023-05-18T04:38:37Z</time>
      </trkpt>
      <trkpt lat="49.66678" lon="-1.69263">
        <ele>10.3</ele>
        <time>2023-05-18T04:38:41Z</time>
      </trkpt>
      <trkpt lat="49.66684" lon="-1.6929">
        <ele>10</ele>
        <time>2023-05-18T04:38:44Z</time>
      </trkpt>
      <trkpt lat="49.66689" lon="-1.69318">
        <ele>9.6</ele>
        <time>2023-05-18T04:38:47Z</time>
      </trkpt>
      <trkpt lat="49.66696" lon="-1.69347">
        <ele>9.4</ele>
        <time>2023-05-18T04:38:50Z</time>
      </trkpt>
      <trkpt lat="49.66702" lon="-1.69376">
        <ele>9</ele>
        <time>2023-05-18T04:38:53Z</time>
      </trkpt>
      <trkpt lat="49.66708" lon="-1.69405">
        <ele>8.7</ele>
        <time>2023-05-18T04:38:56Z</time>
      </trkpt>
      <trkpt lat="49.66714" lon="-1.69434">
        <ele>8.5</ele>
        <time>2023-05-18T04:38:59Z</time>
      </trkpt>
      <trkpt lat="49.6672" lon="-1.69463">
        <ele>8.2</ele>
        <time>2023-05-18T04:39:02Z</time>
      </trkpt>
      <trkpt lat="49.66724" lon="-1.69492">
        <ele>7.9</ele>
        <time>2023-05-18T04:39:05Z</time>
      </trkpt>
      <trkpt lat="49.66729" lon="-1.69527">
        <ele>7.7</ele>
        <time>2023-05-18T04:39:09Z</time>
      </trkpt>
      <trkpt lat="49.66732" lon="-1.69561">
        <ele>7.6</ele>
        <time>2023-05-18T04:39:13Z</time>
      </trkpt>
      <trkpt lat="49.66735" lon="-1.69591">
        <ele>7.7</ele>
        <time>2023-05-18T04:39:17Z</time>
      </trkpt>
      <trkpt lat="49.66737" lon="-1.69624">
        <ele>8.1</ele>
        <time>2023-05-18T04:39:22Z</time>
      </trkpt>
      <trkpt lat="49.66739" lon="-1.69656">
        <ele>8.3</ele>
        <time>2023-05-18T04:39:28Z</time>
      </trkpt>
      <trkpt lat="49.66745" lon="-1.69688">
        <ele>8.3</ele>
        <time>2023-05-18T04:39:33Z</time>
      </trkpt>
      <trkpt lat="49.66747" lon="-1.6972">
        <ele>8.4</ele>
        <time>2023-05-18T04:39:37Z</time>
      </trkpt>
      <trkpt lat="49.66748" lon="-1.69755">
        <ele>8.6</ele>
        <time>2023-05-18T04:39:41Z</time>
      </trkpt>
      <trkpt lat="49.6675" lon="-1.69789">
        <ele>8.7</ele>
        <time>2023-05-18T04:39:45Z</time>
      </trkpt>
      <trkpt lat="49.66752" lon="-1.69822">
        <ele>8.8</ele>
        <time>2023-05-18T04:39:49Z</time>
      </trkpt>
      <trkpt lat="49.66754" lon="-1.69855">
        <ele>8.9</ele>
        <time>2023-05-18T04:39:53Z</time>
      </trkpt>
      <trkpt lat="49.66755" lon="-1.69888">
        <ele>8.9</ele>
        <time>2023-05-18T04:39:57Z</time>
      </trkpt>
      <trkpt lat="49.66757" lon="-1.69922">
        <ele>8.9</ele>
        <time>2023-05-18T04:40:01Z</time>
      </trkpt>
      <trkpt lat="49.66759" lon="-1.69957">
        <ele>9</ele>
        <time>2023-05-18T04:40:05Z</time>
      </trkpt>
      <trkpt lat="49.6676" lon="-1.69992">
        <ele>9</ele>
        <time>2023-05-18T04:40:09Z</time>
      </trkpt>
      <trkpt lat="49.66761" lon="-1.70028">
        <ele>9</ele>
        <time>2023-05-18T04:40:13Z</time>
      </trkpt>
      <trkpt lat="49.66763" lon="-1.70056">
        <ele>9</ele>
        <time>2023-05-18T04:40:16Z</time>
      </trkpt>
      <trkpt lat="49.66762" lon="-1.70091">
        <ele>9</ele>
        <time>2023-05-18T04:40:20Z</time>
      </trkpt>
      <trkpt lat="49.66762" lon="-1.70127">
        <ele>8.9</ele>
        <time>2023-05-18T04:40:24Z</time>
      </trkpt>
      <trkpt lat="49.66759" lon="-1.70163">
        <ele>8.9</ele>
        <time>2023-05-18T04:40:28Z</time>
      </trkpt>
      <trkpt lat="49.66756" lon="-1.70199">
        <ele>8.9</ele>
        <time>2023-05-18T04:40:32Z</time>
      </trkpt>
      <trkpt lat="49.66752" lon="-1.70236">
        <ele>8.9</ele>
        <time>2023-05-18T04:40:36Z</time>
      </trkpt>
      <trkpt lat="49.66745" lon="-1.7027">
        <ele>8.9</ele>
        <time>2023-05-18T04:40:40Z</time>
      </trkpt>
      <trkpt lat="49.66736" lon="-1.703">
        <ele>9.1</ele>
        <time>2023-05-18T04:40:44Z</time>
      </trkpt>
      <trkpt lat="49.66726" lon="-1.70332">
        <ele>9.4</ele>
        <time>2023-05-18T04:40:48Z</time>
      </trkpt>
      <trkpt lat="49.66719" lon="-1.70359">
        <ele>9.7</ele>
        <time>2023-05-18T04:40:52Z</time>
      </trkpt>
      <trkpt lat="49.6671" lon="-1.70387">
        <ele>10.2</ele>
        <time>2023-05-18T04:40:56Z</time>
      </trkpt>
      <trkpt lat="49.66702" lon="-1.70413">
        <ele>10.8</ele>
        <time>2023-05-18T04:41:00Z</time>
      </trkpt>
      <trkpt lat="49.66693" lon="-1.70443">
        <ele>11.4</ele>
        <time>2023-05-18T04:41:05Z</time>
      </trkpt>
      <trkpt lat="49.66685" lon="-1.70469">
        <ele>11.9</ele>
        <time>2023-05-18T04:41:09Z</time>
      </trkpt>
      <trkpt lat="49.66678" lon="-1.70496">
        <ele>12.5</ele>
        <time>2023-05-18T04:41:13Z</time>
      </trkpt>
      <trkpt lat="49.66672" lon="-1.70523">
        <ele>12.9</ele>
        <time>2023-05-18T04:41:17Z</time>
      </trkpt>
      <trkpt lat="49.66665" lon="-1.70549">
        <ele>13.4</ele>
        <time>2023-05-18T04:41:21Z</time>
      </trkpt>
      <trkpt lat="49.66661" lon="-1.70583">
        <ele>14.1</ele>
        <time>2023-05-18T04:41:26Z</time>
      </trkpt>
      <trkpt lat="49.66657" lon="-1.70616">
        <ele>14.7</ele>
        <time>2023-05-18T04:41:31Z</time>
      </trkpt>
      <trkpt lat="49.66657" lon="-1.70646">
        <ele>15</ele>
        <time>2023-05-18T04:41:35Z</time>
      </trkpt>
      <trkpt lat="49.66656" lon="-1.70676">
        <ele>15.2</ele>
        <time>2023-05-18T04:41:39Z</time>
      </trkpt>
      <trkpt lat="49.66657" lon="-1.70709">
        <ele>15.3</ele>
        <time>2023-05-18T04:41:43Z</time>
      </trkpt>
      <trkpt lat="49.66658" lon="-1.70743">
        <ele>15.2</ele>
        <time>2023-05-18T04:41:47Z</time>
      </trkpt>
      <trkpt lat="49.6666" lon="-1.70778">
        <ele>15.1</ele>
        <time>2023-05-18T04:41:51Z</time>
      </trkpt>
      <trkpt lat="49.66663" lon="-1.70806">
        <ele>14.9</ele>
        <time>2023-05-18T04:41:54Z</time>
      </trkpt>
      <trkpt lat="49.66666" lon="-1.70834">
        <ele>14.7</ele>
        <time>2023-05-18T04:41:57Z</time>
      </trkpt>
      <trkpt lat="49.6667" lon="-1.70862">
        <ele>14.4</ele>
        <time>2023-05-18T04:42:00Z</time>
      </trkpt>
      <trkpt lat="49.66674" lon="-1.70891">
        <ele>14.1</ele>
        <time>2023-05-18T04:42:03Z</time>
      </trkpt>
      <trkpt lat="49.66676" lon="-1.7092">
        <ele>13.8</ele>
        <time>2023-05-18T04:42:06Z</time>
      </trkpt>
      <trkpt lat="49.66679" lon="-1.70949">
        <ele>13.5</ele>
        <time>2023-05-18T04:42:09Z</time>
      </trkpt>
      <trkpt lat="49.66681" lon="-1.70978">
        <ele>13.2</ele>
        <time>2023-05-18T04:42:12Z</time>
      </trkpt>
      <trkpt lat="49.66685" lon="-1.71007">
        <ele>12.8</ele>
        <time>2023-05-18T04:42:15Z</time>
      </trkpt>
      <trkpt lat="49.6669" lon="-1.71037">
        <ele>12.5</ele>
        <time>2023-05-18T04:42:18Z</time>
      </trkpt>
      <trkpt lat="49.66694" lon="-1.71066">
        <ele>12.1</ele>
        <time>2023-05-18T04:42:21Z</time>
      </trkpt>
      <trkpt lat="49.66699" lon="-1.71096">
        <ele>11.7</ele>
        <time>2023-05-18T04:42:24Z</time>
      </trkpt>
      <trkpt lat="49.66706" lon="-1.71126">
        <ele>11.2</ele>
        <time>2023-05-18T04:42:27Z</time>
      </trkpt>
      <trkpt lat="49.66715" lon="-1.71156">
        <ele>10.6</ele>
        <time>2023-05-18T04:42:30Z</time>
      </trkpt>
      <trkpt lat="49.66726" lon="-1.71185">
        <ele>10.2</ele>
        <time>2023-05-18T04:42:33Z</time>
      </trkpt>
      <trkpt lat="49.66735" lon="-1.71215">
        <ele>10</ele>
        <time>2023-05-18T04:42:36Z</time>
      </trkpt>
      <trkpt lat="49.66744" lon="-1.71244">
        <ele>9.7</ele>
        <time>2023-05-18T04:42:39Z</time>
      </trkpt>
      <trkpt lat="49.66753" lon="-1.71273">
        <ele>9.4</ele>
        <time>2023-05-18T04:42:42Z</time>
      </trkpt>
      <trkpt lat="49.66763" lon="-1.713">
        <ele>9.3</ele>
        <time>2023-05-18T04:42:45Z</time>
      </trkpt>
      <trkpt lat="49.66772" lon="-1.71327">
        <ele>9.2</ele>
        <time>2023-05-18T04:42:48Z</time>
      </trkpt>
      <trkpt lat="49.66783" lon="-1.71352">
        <ele>9.2</ele>
        <time>2023-05-18T04:42:51Z</time>
      </trkpt>
      <trkpt lat="49.66792" lon="-1.71376">
        <ele>9.3</ele>
        <time>2023-05-18T04:42:54Z</time>
      </trkpt>
      <trkpt lat="49.66802" lon="-1.71401">
        <ele>9.5</ele>
        <time>2023-05-18T04:42:57Z</time>
      </trkpt>
      <trkpt lat="49.66811" lon="-1.71427">
        <ele>9.7</ele>
        <time>2023-05-18T04:43:00Z</time>
      </trkpt>
      <trkpt lat="49.66823" lon="-1.71458">
        <ele>10</ele>
        <time>2023-05-18T04:43:04Z</time>
      </trkpt>
      <trkpt lat="49.66833" lon="-1.7149">
        <ele>10.4</ele>
        <time>2023-05-18T04:43:08Z</time>
      </trkpt>
      <trkpt lat="49.6684" lon="-1.7152">
        <ele>10.8</ele>
        <time>2023-05-18T04:43:12Z</time>
      </trkpt>
      <trkpt lat="49.66848" lon="-1.71549">
        <ele>11.2</ele>
        <time>2023-05-18T04:43:16Z</time>
      </trkpt>
      <trkpt lat="49.66856" lon="-1.71576">
        <ele>11.7</ele>
        <time>2023-05-18T04:43:20Z</time>
      </trkpt>
      <trkpt lat="49.66863" lon="-1.71608">
        <ele>12.3</ele>
        <time>2023-05-18T04:43:25Z</time>
      </trkpt>
      <trkpt lat="49.6687" lon="-1.71635">
        <ele>12.7</ele>
        <time>2023-05-18T04:43:29Z</time>
      </trkpt>
      <trkpt lat="49.66876" lon="-1.71666">
        <ele>13.4</ele>
        <time>2023-05-18T04:43:34Z</time>
      </trkpt>
      <trkpt lat="49.66881" lon="-1.71696">
        <ele>14.2</ele>
        <time>2023-05-18T04:43:39Z</time>
      </trkpt>
      <trkpt lat="49.66885" lon="-1.71726">
        <ele>15</ele>
        <time>2023-05-18T04:43:44Z</time>
      </trkpt>
      <trkpt lat="49.66888" lon="-1.71755">
        <ele>15.9</ele>
        <time>2023-05-18T04:43:49Z</time>
      </trkpt>
      <trkpt lat="49.66893" lon="-1.71784">
        <ele>16.7</ele>
        <time>2023-05-18T04:43:54Z</time>
      </trkpt>
      <trkpt lat="49.66896" lon="-1.71813">
        <ele>17.5</ele>
        <time>2023-05-18T04:43:59Z</time>
      </trkpt>
      <trkpt lat="49.66899" lon="-1.71842">
        <ele>18.3</ele>
        <time>2023-05-18T04:44:04Z</time>
      </trkpt>
      <trkpt lat="49.66902" lon="-1.71873">
        <ele>19.2</ele>
        <time>2023-05-18T04:44:09Z</time>
      </trkpt>
      <trkpt lat="49.66905" lon="-1.71902">
        <ele>19.9</ele>
        <time>2023-05-18T04:44:14Z</time>
      </trkpt>
      <trkpt lat="49.66908" lon="-1.71931">
        <ele>20.6</ele>
        <time>2023-05-18T04:44:19Z</time>
      </trkpt>
      <trkpt lat="49.66911" lon="-1.71959">
        <ele>21.1</ele>
        <time>2023-05-18T04:44:24Z</time>
      </trkpt>
      <trkpt lat="49.66914" lon="-1.71987">
        <ele>21.7</ele>
        <time>2023-05-18T04:44:29Z</time>
      </trkpt>
      <trkpt lat="49.66916" lon="-1.72017">
        <ele>22.4</ele>
        <time>2023-05-18T04:44:34Z</time>
      </trkpt>
      <trkpt lat="49.66919" lon="-1.72044">
        <ele>23</ele>
        <time>2023-05-18T04:44:39Z</time>
      </trkpt>
      <trkpt lat="49.66923" lon="-1.72072">
        <ele>23.5</ele>
        <time>2023-05-18T04:44:44Z</time>
      </trkpt>
      <trkpt lat="49.66929" lon="-1.72105">
        <ele>23.8</ele>
        <time>2023-05-18T04:44:50Z</time>
      </trkpt>
      <trkpt lat="49.66933" lon="-1.72132">
        <ele>23.8</ele>
        <time>2023-05-18T04:44:54Z</time>
      </trkpt>
      <trkpt lat="49.66937" lon="-1.72163">
        <ele>23.5</ele>
        <time>2023-05-18T04:44:58Z</time>
      </trkpt>
      <trkpt lat="49.66943" lon="-1.72194">
        <ele>23.1</ele>
        <time>2023-05-18T04:45:02Z</time>
      </trkpt>
      <trkpt lat="49.66948" lon="-1.72228">
        <ele>22.5</ele>
        <time>2023-05-18T04:45:06Z</time>
      </trkpt>
      <trkpt lat="49.66953" lon="-1.72264">
        <ele>22</ele>
        <time>2023-05-18T04:45:10Z</time>
      </trkpt>
      <trkpt lat="49.66958" lon="-1.72294">
        <ele>21.6</ele>
        <time>2023-05-18T04:45:13Z</time>
      </trkpt>
      <trkpt lat="49.66962" lon="-1.72323">
        <ele>21.4</ele>
        <time>2023-05-18T04:45:16Z</time>
      </trkpt>
      <trkpt lat="49.66965" lon="-1.72352">
        <ele>21.3</ele>
        <time>2023-05-18T04:45:19Z</time>
      </trkpt>
      <trkpt lat="49.66968" lon="-1.72381">
        <ele>21.3</ele>
        <time>2023-05-18T04:45:22Z</time>
      </trkpt>
      <trkpt lat="49.6697" lon="-1.7241">
        <ele>21.4</ele>
        <time>2023-05-18T04:45:25Z</time>
      </trkpt>
      <trkpt lat="49.66972" lon="-1.72438">
        <ele>21.6</ele>
        <time>2023-05-18T04:45:28Z</time>
      </trkpt>
      <trkpt lat="49.66972" lon="-1.72466">
        <ele>21.7</ele>
        <time>2023-05-18T04:45:31Z</time>
      </trkpt>
      <trkpt lat="49.66973" lon="-1.72501">
        <ele>21.9</ele>
        <time>2023-05-18T04:45:35Z</time>
      </trkpt>
      <trkpt lat="49.66975" lon="-1.72536">
        <ele>22.1</ele>
        <time>2023-05-18T04:45:39Z</time>
      </trkpt>
      <trkpt lat="49.66976" lon="-1.72564">
        <ele>22.2</ele>
        <time>2023-05-18T04:45:42Z</time>
      </trkpt>
      <trkpt lat="49.66981" lon="-1.72599">
        <ele>22.3</ele>
        <time>2023-05-18T04:45:46Z</time>
      </trkpt>
      <trkpt lat="49.66986" lon="-1.72634">
        <ele>22.4</ele>
        <time>2023-05-18T04:45:50Z</time>
      </trkpt>
      <trkpt lat="49.66992" lon="-1.72667">
        <ele>22.6</ele>
        <time>2023-05-18T04:45:54Z</time>
      </trkpt>
      <trkpt lat="49.66998" lon="-1.727">
        <ele>22.7</ele>
        <time>2023-05-18T04:45:58Z</time>
      </trkpt>
      <trkpt lat="49.67006" lon="-1.72732">
        <ele>22.8</ele>
        <time>2023-05-18T04:46:02Z</time>
      </trkpt>
      <trkpt lat="49.67013" lon="-1.72766">
        <ele>22.9</ele>
        <time>2023-05-18T04:46:06Z</time>
      </trkpt>
      <trkpt lat="49.67021" lon="-1.728">
        <ele>23</ele>
        <time>2023-05-18T04:46:10Z</time>
      </trkpt>
      <trkpt lat="49.67025" lon="-1.72835">
        <ele>23.1</ele>
        <time>2023-05-18T04:46:14Z</time>
      </trkpt>
      <trkpt lat="49.67032" lon="-1.72867">
        <ele>23</ele>
        <time>2023-05-18T04:46:18Z</time>
      </trkpt>
      <trkpt lat="49.67039" lon="-1.72901">
        <ele>22.8</ele>
        <time>2023-05-18T04:46:22Z</time>
      </trkpt>
      <trkpt lat="49.67045" lon="-1.72936">
        <ele>22.6</ele>
        <time>2023-05-18T04:46:26Z</time>
      </trkpt>
      <trkpt lat="49.67051" lon="-1.72962">
        <ele>22.4</ele>
        <time>2023-05-18T04:46:29Z</time>
      </trkpt>
      <trkpt lat="49.67058" lon="-1.7299">
        <ele>22.2</ele>
        <time>2023-05-18T04:46:32Z</time>
      </trkpt>
      <trkpt lat="49.67069" lon="-1.73014">
        <ele>22</ele>
        <time>2023-05-18T04:46:35Z</time>
      </trkpt>
      <trkpt lat="49.67084" lon="-1.73036">
        <ele>21.9</ele>
        <time>2023-05-18T04:46:38Z</time>
      </trkpt>
      <trkpt lat="49.67099" lon="-1.73058">
        <ele>21.7</ele>
        <time>2023-05-18T04:46:41Z</time>
      </trkpt>
      <trkpt lat="49.67098" lon="-1.73087">
        <ele>21.8</ele>
        <time>2023-05-18T04:46:44Z</time>
      </trkpt>
      <trkpt lat="49.67097" lon="-1.73122">
        <ele>21.9</ele>
        <time>2023-05-18T04:46:48Z</time>
      </trkpt>
      <trkpt lat="49.67097" lon="-1.73158">
        <ele>22.1</ele>
        <time>2023-05-18T04:46:52Z</time>
      </trkpt>
      <trkpt lat="49.67097" lon="-1.73193">
        <ele>22.5</ele>
        <time>2023-05-18T04:46:56Z</time>
      </trkpt>
      <trkpt lat="49.67097" lon="-1.73228">
        <ele>23</ele>
        <time>2023-05-18T04:47:00Z</time>
      </trkpt>
      <trkpt lat="49.67102" lon="-1.73261">
        <ele>23.2</ele>
        <time>2023-05-18T04:47:04Z</time>
      </trkpt>
      <trkpt lat="49.67109" lon="-1.73293">
        <ele>23.4</ele>
        <time>2023-05-18T04:47:08Z</time>
      </trkpt>
      <trkpt lat="49.67117" lon="-1.73323">
        <ele>23.7</ele>
        <time>2023-05-18T04:47:12Z</time>
      </trkpt>
      <trkpt lat="49.67124" lon="-1.73354">
        <ele>24</ele>
        <time>2023-05-18T04:47:16Z</time>
      </trkpt>
      <trkpt lat="49.67132" lon="-1.73386">
        <ele>24.1</ele>
        <time>2023-05-18T04:47:20Z</time>
      </trkpt>
      <trkpt lat="49.67142" lon="-1.73417">
        <ele>24.1</ele>
        <time>2023-05-18T04:47:24Z</time>
      </trkpt>
      <trkpt lat="49.67153" lon="-1.73446">
        <ele>24</ele>
        <time>2023-05-18T04:47:28Z</time>
      </trkpt>
      <trkpt lat="49.67168" lon="-1.73473">
        <ele>23.8</ele>
        <time>2023-05-18T04:47:32Z</time>
      </trkpt>
      <trkpt lat="49.67183" lon="-1.73499">
        <ele>23.3</ele>
        <time>2023-05-18T04:47:36Z</time>
      </trkpt>
      <trkpt lat="49.67197" lon="-1.73525">
        <ele>22.9</ele>
        <time>2023-05-18T04:47:40Z</time>
      </trkpt>
      <trkpt lat="49.67209" lon="-1.73555">
        <ele>22.3</ele>
        <time>2023-05-18T04:47:44Z</time>
      </trkpt>
      <trkpt lat="49.6722" lon="-1.73588">
        <ele>21.6</ele>
        <time>2023-05-18T04:47:48Z</time>
      </trkpt>
      <trkpt lat="49.67231" lon="-1.73612">
        <ele>21.2</ele>
        <time>2023-05-18T04:47:51Z</time>
      </trkpt>
      <trkpt lat="49.67241" lon="-1.73637">
        <ele>20.6</ele>
        <time>2023-05-18T04:47:54Z</time>
      </trkpt>
      <trkpt lat="49.67249" lon="-1.73662">
        <ele>20</ele>
        <time>2023-05-18T04:47:57Z</time>
      </trkpt>
      <trkpt lat="49.67259" lon="-1.7369">
        <ele>19.4</ele>
        <time>2023-05-18T04:48:00Z</time>
      </trkpt>
      <trkpt lat="49.67269" lon="-1.73719">
        <ele>18.6</ele>
        <time>2023-05-18T04:48:03Z</time>
      </trkpt>
      <trkpt lat="49.6728" lon="-1.73743">
        <ele>18</ele>
        <time>2023-05-18T04:48:06Z</time>
      </trkpt>
      <trkpt lat="49.67291" lon="-1.73771">
        <ele>17.5</ele>
        <time>2023-05-18T04:48:09Z</time>
      </trkpt>
      <trkpt lat="49.67299" lon="-1.73798">
        <ele>17</ele>
        <time>2023-05-18T04:48:12Z</time>
      </trkpt>
      <trkpt lat="49.67305" lon="-1.73826">
        <ele>16.6</ele>
        <time>2023-05-18T04:48:15Z</time>
      </trkpt>
      <trkpt lat="49.67312" lon="-1.73854">
        <ele>16.2</ele>
        <time>2023-05-18T04:48:18Z</time>
      </trkpt>
      <trkpt lat="49.67319" lon="-1.73882">
        <ele>16.1</ele>
        <time>2023-05-18T04:48:21Z</time>
      </trkpt>
      <trkpt lat="49.67326" lon="-1.73911">
        <ele>15.9</ele>
        <time>2023-05-18T04:48:24Z</time>
      </trkpt>
      <trkpt lat="49.67335" lon="-1.73945">
        <ele>15.8</ele>
        <time>2023-05-18T04:48:28Z</time>
      </trkpt>
      <trkpt lat="49.67341" lon="-1.73973">
        <ele>15.6</ele>
        <time>2023-05-18T04:48:31Z</time>
      </trkpt>
      <trkpt lat="49.67349" lon="-1.74">
        <ele>15.5</ele>
        <time>2023-05-18T04:48:34Z</time>
      </trkpt>
      <trkpt lat="49.67355" lon="-1.74028">
        <ele>15.3</ele>
        <time>2023-05-18T04:48:37Z</time>
      </trkpt>
      <trkpt lat="49.67361" lon="-1.74054">
        <ele>15.2</ele>
        <time>2023-05-18T04:48:40Z</time>
      </trkpt>
      <trkpt lat="49.67369" lon="-1.74089">
        <ele>15</ele>
        <time>2023-05-18T04:48:44Z</time>
      </trkpt>
      <trkpt lat="49.67375" lon="-1.74115">
        <ele>14.9</ele>
        <time>2023-05-18T04:48:47Z</time>
      </trkpt>
      <trkpt lat="49.6738" lon="-1.74143">
        <ele>14.7</ele>
        <time>2023-05-18T04:48:50Z</time>
      </trkpt>
      <trkpt lat="49.67389" lon="-1.74176">
        <ele>14.5</ele>
        <time>2023-05-18T04:48:54Z</time>
      </trkpt>
      <trkpt lat="49.67395" lon="-1.74203">
        <ele>14.3</ele>
        <time>2023-05-18T04:48:57Z</time>
      </trkpt>
      <trkpt lat="49.674" lon="-1.7423">
        <ele>14.1</ele>
        <time>2023-05-18T04:49:00Z</time>
      </trkpt>
      <trkpt lat="49.67405" lon="-1.74257">
        <ele>13.9</ele>
        <time>2023-05-18T04:49:03Z</time>
      </trkpt>
      <trkpt lat="49.67411" lon="-1.74287">
        <ele>13.8</ele>
        <time>2023-05-18T04:49:06Z</time>
      </trkpt>
      <trkpt lat="49.67416" lon="-1.74315">
        <ele>13.6</ele>
        <time>2023-05-18T04:49:09Z</time>
      </trkpt>
      <trkpt lat="49.67426" lon="-1.74338">
        <ele>13.5</ele>
        <time>2023-05-18T04:49:12Z</time>
      </trkpt>
      <trkpt lat="49.67439" lon="-1.74359">
        <ele>13.2</ele>
        <time>2023-05-18T04:49:15Z</time>
      </trkpt>
      <trkpt lat="49.6745" lon="-1.74383">
        <ele>12.9</ele>
        <time>2023-05-18T04:49:18Z</time>
      </trkpt>
      <trkpt lat="49.67458" lon="-1.7441">
        <ele>12.7</ele>
        <time>2023-05-18T04:49:21Z</time>
      </trkpt>
      <trkpt lat="49.67467" lon="-1.74436">
        <ele>12.6</ele>
        <time>2023-05-18T04:49:24Z</time>
      </trkpt>
      <trkpt lat="49.67476" lon="-1.74461">
        <ele>12.7</ele>
        <time>2023-05-18T04:49:27Z</time>
      </trkpt>
      <trkpt lat="49.67485" lon="-1.74493">
        <ele>12.8</ele>
        <time>2023-05-18T04:49:31Z</time>
      </trkpt>
      <trkpt lat="49.67496" lon="-1.74524">
        <ele>12.9</ele>
        <time>2023-05-18T04:49:35Z</time>
      </trkpt>
      <trkpt lat="49.67504" lon="-1.74555">
        <ele>13.2</ele>
        <time>2023-05-18T04:49:39Z</time>
      </trkpt>
      <trkpt lat="49.6751" lon="-1.74586">
        <ele>13.4</ele>
        <time>2023-05-18T04:49:43Z</time>
      </trkpt>
      <trkpt lat="49.67517" lon="-1.74617">
        <ele>13.6</ele>
        <time>2023-05-18T04:49:47Z</time>
      </trkpt>
      <trkpt lat="49.67524" lon="-1.74647">
        <ele>13.8</ele>
        <time>2023-05-18T04:49:51Z</time>
      </trkpt>
      <trkpt lat="49.67529" lon="-1.74676">
        <ele>14</ele>
        <time>2023-05-18T04:49:55Z</time>
      </trkpt>
      <trkpt lat="49.67539" lon="-1.74702">
        <ele>14.1</ele>
        <time>2023-05-18T04:49:59Z</time>
      </trkpt>
      <trkpt lat="49.6755" lon="-1.74728">
        <ele>14.1</ele>
        <time>2023-05-18T04:50:03Z</time>
      </trkpt>
      <trkpt lat="49.67563" lon="-1.74757">
        <ele>13.8</ele>
        <time>2023-05-18T04:50:07Z</time>
      </trkpt>
      <trkpt lat="49.67574" lon="-1.7479">
        <ele>13.7</ele>
        <time>2023-05-18T04:50:11Z</time>
      </trkpt>
      <trkpt lat="49.67581" lon="-1.74816">
        <ele>13.6</ele>
        <time>2023-05-18T04:50:14Z</time>
      </trkpt>
      <trkpt lat="49.67588" lon="-1.74842">
        <ele>13.5</ele>
        <time>2023-05-18T04:50:17Z</time>
      </trkpt>
      <trkpt lat="49.67596" lon="-1.74868">
        <ele>13.5</ele>
        <time>2023-05-18T04:50:20Z</time>
      </trkpt>
      <trkpt lat="49.67604" lon="-1.74894">
        <ele>13.5</ele>
        <time>2023-05-18T04:50:23Z</time>
      </trkpt>
      <trkpt lat="49.67609" lon="-1.74921">
        <ele>13.5</ele>
        <time>2023-05-18T04:50:26Z</time>
      </trkpt>
      <trkpt lat="49.67617" lon="-1.74955">
        <ele>13.5</ele>
        <time>2023-05-18T04:50:30Z</time>
      </trkpt>
      <trkpt lat="49.67628" lon="-1.74987">
        <ele>13.5</ele>
        <time>2023-05-18T04:50:34Z</time>
      </trkpt>
      <trkpt lat="49.67637" lon="-1.75018">
        <ele>13.4</ele>
        <time>2023-05-18T04:50:38Z</time>
      </trkpt>
      <trkpt lat="49.67644" lon="-1.75051">
        <ele>13.4</ele>
        <time>2023-05-18T04:50:42Z</time>
      </trkpt>
      <trkpt lat="49.67652" lon="-1.75083">
        <ele>13.4</ele>
        <time>2023-05-18T04:50:46Z</time>
      </trkpt>
      <trkpt lat="49.67658" lon="-1.7511">
        <ele>13.5</ele>
        <time>2023-05-18T04:50:49Z</time>
      </trkpt>
      <trkpt lat="49.67661" lon="-1.75145">
        <ele>13.7</ele>
        <time>2023-05-18T04:50:53Z</time>
      </trkpt>
      <trkpt lat="49.67662" lon="-1.75179">
        <ele>14</ele>
        <time>2023-05-18T04:50:57Z</time>
      </trkpt>
      <trkpt lat="49.6766" lon="-1.75212">
        <ele>14.4</ele>
        <time>2023-05-18T04:51:01Z</time>
      </trkpt>
      <trkpt lat="49.67658" lon="-1.7524">
        <ele>14.8</ele>
        <time>2023-05-18T04:51:05Z</time>
      </trkpt>
      <trkpt lat="49.67656" lon="-1.75269">
        <ele>15.1</ele>
        <time>2023-05-18T04:51:10Z</time>
      </trkpt>
      <trkpt lat="49.67653" lon="-1.75299">
        <ele>15.5</ele>
        <time>2023-05-18T04:51:15Z</time>
      </trkpt>
      <trkpt lat="49.67652" lon="-1.75329">
        <ele>15.9</ele>
        <time>2023-05-18T04:51:20Z</time>
      </trkpt>
      <trkpt lat="49.67651" lon="-1.75361">
        <ele>16.5</ele>
        <time>2023-05-18T04:51:25Z</time>
      </trkpt>
      <trkpt lat="49.67652" lon="-1.75392">
        <ele>17.2</ele>
        <time>2023-05-18T04:51:30Z</time>
      </trkpt>
      <trkpt lat="49.67653" lon="-1.75423">
        <ele>17.7</ele>
        <time>2023-05-18T04:51:35Z</time>
      </trkpt>
      <trkpt lat="49.67656" lon="-1.75453">
        <ele>17.8</ele>
        <time>2023-05-18T04:51:40Z</time>
      </trkpt>
      <trkpt lat="49.6766" lon="-1.75484">
        <ele>17</ele>
        <time>2023-05-18T04:51:44Z</time>
      </trkpt>
      <trkpt lat="49.67666" lon="-1.75511">
        <ele>16.2</ele>
        <time>2023-05-18T04:51:47Z</time>
      </trkpt>
      <trkpt lat="49.67675" lon="-1.75538">
        <ele>15.5</ele>
        <time>2023-05-18T04:51:50Z</time>
      </trkpt>
      <trkpt lat="49.67685" lon="-1.75567">
        <ele>14.7</ele>
        <time>2023-05-18T04:51:53Z</time>
      </trkpt>
      <trkpt lat="49.67694" lon="-1.75596">
        <ele>14</ele>
        <time>2023-05-18T04:51:56Z</time>
      </trkpt>
      <trkpt lat="49.67704" lon="-1.75626">
        <ele>13.4</ele>
        <time>2023-05-18T04:51:59Z</time>
      </trkpt>
      <trkpt lat="49.67714" lon="-1.75656">
        <ele>13.1</ele>
        <time>2023-05-18T04:52:02Z</time>
      </trkpt>
      <trkpt lat="49.67724" lon="-1.75683">
        <ele>12.9</ele>
        <time>2023-05-18T04:52:05Z</time>
      </trkpt>
      <trkpt lat="49.67734" lon="-1.75711">
        <ele>12.8</ele>
        <time>2023-05-18T04:52:08Z</time>
      </trkpt>
      <trkpt lat="49.67743" lon="-1.75737">
        <ele>12.8</ele>
        <time>2023-05-18T04:52:11Z</time>
      </trkpt>
      <trkpt lat="49.67753" lon="-1.75764">
        <ele>12.9</ele>
        <time>2023-05-18T04:52:14Z</time>
      </trkpt>
      <trkpt lat="49.67764" lon="-1.7579">
        <ele>12.9</ele>
        <time>2023-05-18T04:52:17Z</time>
      </trkpt>
      <trkpt lat="49.67771" lon="-1.75817">
        <ele>12.9</ele>
        <time>2023-05-18T04:52:20Z</time>
      </trkpt>
      <trkpt lat="49.67776" lon="-1.75846">
        <ele>13.1</ele>
        <time>2023-05-18T04:52:23Z</time>
      </trkpt>
      <trkpt lat="49.67778" lon="-1.75874">
        <ele>13.3</ele>
        <time>2023-05-18T04:52:26Z</time>
      </trkpt>
      <trkpt lat="49.6778" lon="-1.75911">
        <ele>13.9</ele>
        <time>2023-05-18T04:52:30Z</time>
      </trkpt>
      <trkpt lat="49.67782" lon="-1.75942">
        <ele>14.9</ele>
        <time>2023-05-18T04:52:34Z</time>
      </trkpt>
      <trkpt lat="49.67785" lon="-1.75973">
        <ele>16.1</ele>
        <time>2023-05-18T04:52:41Z</time>
      </trkpt>
      <trkpt lat="49.67785" lon="-1.76006">
        <ele>17.3</ele>
        <time>2023-05-18T04:52:47Z</time>
      </trkpt>
      <trkpt lat="49.67783" lon="-1.76035">
        <ele>18.5</ele>
        <time>2023-05-18T04:52:53Z</time>
      </trkpt>
      <trkpt lat="49.67782" lon="-1.76066">
        <ele>20</ele>
        <time>2023-05-18T04:53:01Z</time>
      </trkpt>
      <trkpt lat="49.67781" lon="-1.76095">
        <ele>21.4</ele>
        <time>2023-05-18T04:53:09Z</time>
      </trkpt>
      <trkpt lat="49.67777" lon="-1.76124">
        <ele>22.8</ele>
        <time>2023-05-18T05:18:02Z</time>
      </trkpt>
      <trkpt lat="49.67772" lon="-1.76151">
        <ele>24.4</ele>
        <time>2023-05-18T05:18:13Z</time>
      </trkpt>
      <trkpt lat="49.67766" lon="-1.76178">
        <ele>26</ele>
        <time>2023-05-18T05:18:22Z</time>
      </trkpt>
      <trkpt lat="49.67753" lon="-1.76201">
        <ele>27.6</ele>
        <time>2023-05-18T05:18:31Z</time>
      </trkpt>
      <trkpt lat="49.67741" lon="-1.76223">
        <ele>29.1</ele>
        <time>2023-05-18T05:18:40Z</time>
      </trkpt>
      <trkpt lat="49.67726" lon="-1.76245">
        <ele>30.8</ele>
        <time>2023-05-18T05:18:49Z</time>
      </trkpt>
      <trkpt lat="49.67712" lon="-1.76265">
        <ele>32.3</ele>
        <time>2023-05-18T05:18:58Z</time>
      </trkpt>
      <trkpt lat="49.67704" lon="-1.76292">
        <ele>33.9</ele>
        <time>2023-05-18T05:19:07Z</time>
      </trkpt>
      <trkpt lat="49.67701" lon="-1.76323">
        <ele>35.5</ele>
        <time>2023-05-18T05:19:17Z</time>
      </trkpt>
      <trkpt lat="49.67699" lon="-1.76353">
        <ele>37.1</ele>
        <time>2023-05-18T05:19:28Z</time>
      </trkpt>
      <trkpt lat="49.67697" lon="-1.76384">
        <ele>38.6</ele>
        <time>2023-05-18T05:19:37Z</time>
      </trkpt>
      <trkpt lat="49.67697" lon="-1.76414">
        <ele>39.8</ele>
        <time>2023-05-18T05:19:46Z</time>
      </trkpt>
      <trkpt lat="49.67694" lon="-1.76442">
        <ele>40.6</ele>
        <time>2023-05-18T05:19:55Z</time>
      </trkpt>
      <trkpt lat="49.67686" lon="-1.76469">
        <ele>41.1</ele>
        <time>2023-05-18T05:20:03Z</time>
      </trkpt>
      <trkpt lat="49.67686" lon="-1.76498">
        <ele>41</ele>
        <time>2023-05-18T05:20:10Z</time>
      </trkpt>
      <trkpt lat="49.67681" lon="-1.76532">
        <ele>40.3</ele>
        <time>2023-05-18T05:20:15Z</time>
      </trkpt>
      <trkpt lat="49.67683" lon="-1.76561">
        <ele>40</ele>
        <time>2023-05-18T05:20:19Z</time>
      </trkpt>
      <trkpt lat="49.67698" lon="-1.76578">
        <ele>39.6</ele>
        <time>2023-05-18T05:20:22Z</time>
      </trkpt>
      <trkpt lat="49.67716" lon="-1.76571">
        <ele>39.6</ele>
        <time>2023-05-18T05:20:27Z</time>
      </trkpt>
      <trkpt lat="49.67731" lon="-1.76547">
        <ele>40</ele>
        <time>2023-05-18T05:20:32Z</time>
      </trkpt>
      <trkpt lat="49.67745" lon="-1.7652">
        <ele>40.6</ele>
        <time>2023-05-18T05:20:38Z</time>
      </trkpt>
      <trkpt lat="49.67751" lon="-1.76491">
        <ele>41.3</ele>
        <time>2023-05-18T05:20:44Z</time>
      </trkpt>
      <trkpt lat="49.6776" lon="-1.76466">
        <ele>42.3</ele>
        <time>2023-05-18T05:20:50Z</time>
      </trkpt>
      <trkpt lat="49.67775" lon="-1.76446">
        <ele>43.5</ele>
        <time>2023-05-18T05:20:57Z</time>
      </trkpt>
      <trkpt lat="49.67796" lon="-1.76453">
        <ele>44.5</ele>
        <time>2023-05-18T05:21:04Z</time>
      </trkpt>
      <trkpt lat="49.67812" lon="-1.76469">
        <ele>46</ele>
        <time>2023-05-18T05:21:12Z</time>
      </trkpt>
      <trkpt lat="49.67824" lon="-1.76493">
        <ele>47.4</ele>
        <time>2023-05-18T05:21:22Z</time>
      </trkpt>
      <trkpt lat="49.67837" lon="-1.76517">
        <ele>48.9</ele>
        <time>2023-05-18T05:21:32Z</time>
      </trkpt>
      <trkpt lat="49.67845" lon="-1.76543">
        <ele>50.3</ele>
        <time>2023-05-18T05:21:42Z</time>
      </trkpt>
      <trkpt lat="49.67856" lon="-1.76567">
        <ele>51.6</ele>
        <time>2023-05-18T05:21:51Z</time>
      </trkpt>
      <trkpt lat="49.67866" lon="-1.76596">
        <ele>53</ele>
        <time>2023-05-18T05:22:01Z</time>
      </trkpt>
      <trkpt lat="49.67877" lon="-1.7662">
        <ele>54.1</ele>
        <time>2023-05-18T05:22:10Z</time>
      </trkpt>
      <trkpt lat="49.67887" lon="-1.76646">
        <ele>55.2</ele>
        <time>2023-05-18T05:22:18Z</time>
      </trkpt>
      <trkpt lat="49.67892" lon="-1.76673">
        <ele>56.4</ele>
        <time>2023-05-18T05:22:27Z</time>
      </trkpt>
      <trkpt lat="49.67899" lon="-1.76699">
        <ele>57.6</ele>
        <time>2023-05-18T05:22:36Z</time>
      </trkpt>
      <trkpt lat="49.67907" lon="-1.76726">
        <ele>58.9</ele>
        <time>2023-05-18T05:22:47Z</time>
      </trkpt>
      <trkpt lat="49.67913" lon="-1.76754">
        <ele>60.2</ele>
        <time>2023-05-18T05:22:55Z</time>
      </trkpt>
      <trkpt lat="49.67918" lon="-1.76781">
        <ele>61.4</ele>
        <time>2023-05-18T05:23:05Z</time>
      </trkpt>
      <trkpt lat="49.67925" lon="-1.76808">
        <ele>62.6</ele>
        <time>2023-05-18T05:23:13Z</time>
      </trkpt>
      <trkpt lat="49.67929" lon="-1.76837">
        <ele>63.9</ele>
        <time>2023-05-18T05:23:23Z</time>
      </trkpt>
      <trkpt lat="49.67932" lon="-1.76864">
        <ele>65</ele>
        <time>2023-05-18T05:23:32Z</time>
      </trkpt>
      <trkpt lat="49.67936" lon="-1.76892">
        <ele>66.2</ele>
        <time>2023-05-18T05:23:41Z</time>
      </trkpt>
      <trkpt lat="49.67939" lon="-1.76919">
        <ele>67.3</ele>
        <time>2023-05-18T05:23:51Z</time>
      </trkpt>
      <trkpt lat="49.67943" lon="-1.76949">
        <ele>68.7</ele>
        <time>2023-05-18T05:24:01Z</time>
      </trkpt>
      <trkpt lat="49.67943" lon="-1.76977">
        <ele>69.9</ele>
        <time>2023-05-18T05:24:10Z</time>
      </trkpt>
      <trkpt lat="49.67939" lon="-1.77006">
        <ele>71.2</ele>
        <time>2023-05-18T05:24:20Z</time>
      </trkpt>
      <trkpt lat="49.67932" lon="-1.77031">
        <ele>72.4</ele>
        <time>2023-05-18T05:24:30Z</time>
      </trkpt>
      <trkpt lat="49.67923" lon="-1.77058">
        <ele>73.8</ele>
        <time>2023-05-18T05:24:40Z</time>
      </trkpt>
      <trkpt lat="49.67912" lon="-1.77081">
        <ele>75</ele>
        <time>2023-05-18T05:24:50Z</time>
      </trkpt>
      <trkpt lat="49.679" lon="-1.77104">
        <ele>76.2</ele>
        <time>2023-05-18T05:24:59Z</time>
      </trkpt>
      <trkpt lat="49.6789" lon="-1.77129">
        <ele>77.3</ele>
        <time>2023-05-18T05:26:48Z</time>
      </trkpt>
      <trkpt lat="49.67882" lon="-1.77153">
        <ele>78.5</ele>
        <time>2023-05-18T05:26:58Z</time>
      </trkpt>
      <trkpt lat="49.67877" lon="-1.77181">
        <ele>79.7</ele>
        <time>2023-05-18T05:27:07Z</time>
      </trkpt>
      <trkpt lat="49.67872" lon="-1.7721">
        <ele>80.9</ele>
        <time>2023-05-18T05:27:16Z</time>
      </trkpt>
      <trkpt lat="49.67869" lon="-1.77237">
        <ele>82</ele>
        <time>2023-05-18T05:27:25Z</time>
      </trkpt>
      <trkpt lat="49.67865" lon="-1.77267">
        <ele>83.2</ele>
        <time>2023-05-18T05:27:34Z</time>
      </trkpt>
      <trkpt lat="49.67861" lon="-1.77297">
        <ele>84.4</ele>
        <time>2023-05-18T05:27:43Z</time>
      </trkpt>
      <trkpt lat="49.6786" lon="-1.77326">
        <ele>85.4</ele>
        <time>2023-05-18T05:27:51Z</time>
      </trkpt>
      <trkpt lat="49.67859" lon="-1.77356">
        <ele>86.7</ele>
        <time>2023-05-18T05:28:01Z</time>
      </trkpt>
      <trkpt lat="49.67856" lon="-1.77385">
        <ele>87.9</ele>
        <time>2023-05-18T05:28:10Z</time>
      </trkpt>
      <trkpt lat="49.67852" lon="-1.77414">
        <ele>89.1</ele>
        <time>2023-05-18T05:28:19Z</time>
      </trkpt>
      <trkpt lat="49.67848" lon="-1.77442">
        <ele>90.1</ele>
        <time>2023-05-18T05:28:27Z</time>
      </trkpt>
      <trkpt lat="49.67844" lon="-1.77471">
        <ele>91.1</ele>
        <time>2023-05-18T05:28:35Z</time>
      </trkpt>
      <trkpt lat="49.6784" lon="-1.77498">
        <ele>92.1</ele>
        <time>2023-05-18T05:28:43Z</time>
      </trkpt>
      <trkpt lat="49.67834" lon="-1.77527">
        <ele>93.3</ele>
        <time>2023-05-18T05:28:52Z</time>
      </trkpt>
      <trkpt lat="49.67828" lon="-1.77556">
        <ele>94.4</ele>
        <time>2023-05-18T05:29:01Z</time>
      </trkpt>
      <trkpt lat="49.67819" lon="-1.77585">
        <ele>95.4</ele>
        <time>2023-05-18T05:29:10Z</time>
      </trkpt>
      <trkpt lat="49.6781" lon="-1.77611">
        <ele>96.3</ele>
        <time>2023-05-18T05:29:18Z</time>
      </trkpt>
      <trkpt lat="49.678" lon="-1.77637">
        <ele>97</ele>
        <time>2023-05-18T05:29:26Z</time>
      </trkpt>
      <trkpt lat="49.67791" lon="-1.77662">
        <ele>97.6</ele>
        <time>2023-05-18T05:29:33Z</time>
      </trkpt>
      <trkpt lat="49.67783" lon="-1.77689">
        <ele>98</ele>
        <time>2023-05-18T05:29:39Z</time>
      </trkpt>
      <trkpt lat="49.67771" lon="-1.77715">
        <ele>98.1</ele>
        <time>2023-05-18T05:29:45Z</time>
      </trkpt>
      <trkpt lat="49.67761" lon="-1.77743">
        <ele>98.2</ele>
        <time>2023-05-18T05:29:51Z</time>
      </trkpt>
      <trkpt lat="49.67751" lon="-1.77771">
        <ele>98.3</ele>
        <time>2023-05-18T05:29:56Z</time>
      </trkpt>
      <trkpt lat="49.6774" lon="-1.77798">
        <ele>98.5</ele>
        <time>2023-05-18T05:30:01Z</time>
      </trkpt>
      <trkpt lat="49.67729" lon="-1.77826">
        <ele>98.7</ele>
        <time>2023-05-18T05:30:06Z</time>
      </trkpt>
      <trkpt lat="49.67719" lon="-1.77854">
        <ele>99</ele>
        <time>2023-05-18T05:30:11Z</time>
      </trkpt>
      <trkpt lat="49.67705" lon="-1.77879">
        <ele>99</ele>
        <time>2023-05-18T05:30:16Z</time>
      </trkpt>
      <trkpt lat="49.67688" lon="-1.77896">
        <ele>99</ele>
        <time>2023-05-18T05:30:21Z</time>
      </trkpt>
      <trkpt lat="49.67674" lon="-1.77918">
        <ele>99</ele>
        <time>2023-05-18T05:30:26Z</time>
      </trkpt>
      <trkpt lat="49.67659" lon="-1.77937">
        <ele>98.9</ele>
        <time>2023-05-18T05:30:31Z</time>
      </trkpt>
      <trkpt lat="49.67642" lon="-1.77958">
        <ele>98.7</ele>
        <time>2023-05-18T05:30:36Z</time>
      </trkpt>
      <trkpt lat="49.67628" lon="-1.77976">
        <ele>98.5</ele>
        <time>2023-05-18T05:30:41Z</time>
      </trkpt>
      <trkpt lat="49.67617" lon="-1.78001">
        <ele>98.1</ele>
        <time>2023-05-18T05:30:46Z</time>
      </trkpt>
      <trkpt lat="49.6761" lon="-1.78035">
        <ele>97.7</ele>
        <time>2023-05-18T05:30:50Z</time>
      </trkpt>
      <trkpt lat="49.67604" lon="-1.78063">
        <ele>97.4</ele>
        <time>2023-05-18T05:30:53Z</time>
      </trkpt>
      <trkpt lat="49.67592" lon="-1.7809">
        <ele>97.3</ele>
        <time>2023-05-18T05:30:56Z</time>
      </trkpt>
      <trkpt lat="49.67579" lon="-1.7812">
        <ele>97.5</ele>
        <time>2023-05-18T05:31:00Z</time>
      </trkpt>
      <trkpt lat="49.67567" lon="-1.78146">
        <ele>97.9</ele>
        <time>2023-05-18T05:31:05Z</time>
      </trkpt>
      <trkpt lat="49.67556" lon="-1.78173">
        <ele>98.6</ele>
        <time>2023-05-18T05:31:11Z</time>
      </trkpt>
      <trkpt lat="49.67546" lon="-1.78197">
        <ele>99.4</ele>
        <time>2023-05-18T05:31:17Z</time>
      </trkpt>
      <trkpt lat="49.67536" lon="-1.78223">
        <ele>100.5</ele>
        <time>2023-05-18T05:31:24Z</time>
      </trkpt>
      <trkpt lat="49.67526" lon="-1.78248">
        <ele>101.7</ele>
        <time>2023-05-18T05:31:31Z</time>
      </trkpt>
      <trkpt lat="49.67517" lon="-1.78277">
        <ele>102.9</ele>
        <time>2023-05-18T05:31:39Z</time>
      </trkpt>
      <trkpt lat="49.67505" lon="-1.78304">
        <ele>104.1</ele>
        <time>2023-05-18T05:31:46Z</time>
      </trkpt>
      <trkpt lat="49.67494" lon="-1.78327">
        <ele>105.2</ele>
        <time>2023-05-18T05:31:52Z</time>
      </trkpt>
      <trkpt lat="49.67485" lon="-1.78353">
        <ele>106.2</ele>
        <time>2023-05-18T05:31:59Z</time>
      </trkpt>
      <trkpt lat="49.67475" lon="-1.78377">
        <ele>107.1</ele>
        <time>2023-05-18T05:32:06Z</time>
      </trkpt>
      <trkpt lat="49.67463" lon="-1.78402">
        <ele>107.8</ele>
        <time>2023-05-18T05:32:13Z</time>
      </trkpt>
      <trkpt lat="49.67451" lon="-1.78427">
        <ele>108.2</ele>
        <time>2023-05-18T05:32:19Z</time>
      </trkpt>
      <trkpt lat="49.67442" lon="-1.78452">
        <ele>108.6</ele>
        <time>2023-05-18T05:32:24Z</time>
      </trkpt>
      <trkpt lat="49.67431" lon="-1.78479">
        <ele>108.9</ele>
        <time>2023-05-18T05:32:30Z</time>
      </trkpt>
      <trkpt lat="49.67422" lon="-1.78504">
        <ele>109.1</ele>
        <time>2023-05-18T05:32:35Z</time>
      </trkpt>
      <trkpt lat="49.67411" lon="-1.78533">
        <ele>109.3</ele>
        <time>2023-05-18T05:32:41Z</time>
      </trkpt>
      <trkpt lat="49.67401" lon="-1.7856">
        <ele>109.2</ele>
        <time>2023-05-18T05:32:46Z</time>
      </trkpt>
      <trkpt lat="49.67395" lon="-1.78588">
        <ele>108.9</ele>
        <time>2023-05-18T05:32:50Z</time>
      </trkpt>
      <trkpt lat="49.67388" lon="-1.78619">
        <ele>108.4</ele>
        <time>2023-05-18T05:32:54Z</time>
      </trkpt>
      <trkpt lat="49.67382" lon="-1.78649">
        <ele>108</ele>
        <time>2023-05-18T05:32:58Z</time>
      </trkpt>
      <trkpt lat="49.67377" lon="-1.7868">
        <ele>107.5</ele>
        <time>2023-05-18T05:33:02Z</time>
      </trkpt>
      <trkpt lat="49.67372" lon="-1.78713">
        <ele>107</ele>
        <time>2023-05-18T05:33:06Z</time>
      </trkpt>
      <trkpt lat="49.67367" lon="-1.78746">
        <ele>106.5</ele>
        <time>2023-05-18T05:33:10Z</time>
      </trkpt>
      <trkpt lat="49.67362" lon="-1.7878">
        <ele>106</ele>
        <time>2023-05-18T05:33:14Z</time>
      </trkpt>
      <trkpt lat="49.67357" lon="-1.78815">
        <ele>105.6</ele>
        <time>2023-05-18T05:33:18Z</time>
      </trkpt>
      <trkpt lat="49.6735" lon="-1.7885">
        <ele>105.2</ele>
        <time>2023-05-18T05:33:22Z</time>
      </trkpt>
      <trkpt lat="49.67345" lon="-1.78885">
        <ele>104.7</ele>
        <time>2023-05-18T05:33:26Z</time>
      </trkpt>
      <trkpt lat="49.67341" lon="-1.7892">
        <ele>104.2</ele>
        <time>2023-05-18T05:33:30Z</time>
      </trkpt>
      <trkpt lat="49.6734" lon="-1.78952">
        <ele>103.8</ele>
        <time>2023-05-18T05:33:33Z</time>
      </trkpt>
      <trkpt lat="49.67341" lon="-1.78984">
        <ele>103.8</ele>
        <time>2023-05-18T05:33:36Z</time>
      </trkpt>
      <trkpt lat="49.67345" lon="-1.79012">
        <ele>103.9</ele>
        <time>2023-05-18T05:33:39Z</time>
      </trkpt>
      <trkpt lat="49.67352" lon="-1.79039">
        <ele>104.1</ele>
        <time>2023-05-18T05:33:42Z</time>
      </trkpt>
      <trkpt lat="49.6736" lon="-1.7907">
        <ele>104.7</ele>
        <time>2023-05-18T05:33:47Z</time>
      </trkpt>
      <trkpt lat="49.67366" lon="-1.79097">
        <ele>105.5</ele>
        <time>2023-05-18T05:33:53Z</time>
      </trkpt>
      <trkpt lat="49.67369" lon="-1.79129">
        <ele>106.9</ele>
        <time>2023-05-18T05:34:00Z</time>
      </trkpt>
      <trkpt lat="49.67374" lon="-1.79157">
        <ele>108.2</ele>
        <time>2023-05-18T05:34:07Z</time>
      </trkpt>
      <trkpt lat="49.67381" lon="-1.79186">
        <ele>109.9</ele>
        <time>2023-05-18T05:34:16Z</time>
      </trkpt>
      <trkpt lat="49.67387" lon="-1.79215">
        <ele>111.6</ele>
        <time>2023-05-18T05:34:25Z</time>
      </trkpt>
      <trkpt lat="49.67394" lon="-1.79243">
        <ele>113.2</ele>
        <time>2023-05-18T05:34:35Z</time>
      </trkpt>
      <trkpt lat="49.67402" lon="-1.79269">
        <ele>114.5</ele>
        <time>2023-05-18T05:34:43Z</time>
      </trkpt>
      <trkpt lat="49.67412" lon="-1.79294">
        <ele>115.8</ele>
        <time>2023-05-18T05:34:51Z</time>
      </trkpt>
      <trkpt lat="49.67421" lon="-1.7932">
        <ele>117.1</ele>
        <time>2023-05-18T05:35:00Z</time>
      </trkpt>
      <trkpt lat="49.67429" lon="-1.79346">
        <ele>118.4</ele>
        <time>2023-05-18T05:35:10Z</time>
      </trkpt>
      <trkpt lat="49.6744" lon="-1.79371">
        <ele>119.7</ele>
        <time>2023-05-18T05:35:20Z</time>
      </trkpt>
      <trkpt lat="49.67452" lon="-1.79394">
        <ele>120.9</ele>
        <time>2023-05-18T05:35:30Z</time>
      </trkpt>
      <trkpt lat="49.67461" lon="-1.79418">
        <ele>121.9</ele>
        <time>2023-05-18T05:35:39Z</time>
      </trkpt>
      <trkpt lat="49.67473" lon="-1.79443">
        <ele>123</ele>
        <time>2023-05-18T05:35:47Z</time>
      </trkpt>
      <trkpt lat="49.67481" lon="-1.7947">
        <ele>124.1</ele>
        <time>2023-05-18T05:35:56Z</time>
      </trkpt>
      <trkpt lat="49.67489" lon="-1.79498">
        <ele>125.2</ele>
        <time>2023-05-18T05:36:04Z</time>
      </trkpt>
      <trkpt lat="49.67494" lon="-1.79525">
        <ele>126.1</ele>
        <time>2023-05-18T05:36:12Z</time>
      </trkpt>
      <trkpt lat="49.67492" lon="-1.79553">
        <ele>127</ele>
        <time>2023-05-18T05:36:20Z</time>
      </trkpt>
      <trkpt lat="49.67489" lon="-1.79583">
        <ele>127.9</ele>
        <time>2023-05-18T05:36:28Z</time>
      </trkpt>
      <trkpt lat="49.67483" lon="-1.79614">
        <ele>128.7</ele>
        <time>2023-05-18T05:36:35Z</time>
      </trkpt>
      <trkpt lat="49.6748" lon="-1.79645">
        <ele>129.5</ele>
        <time>2023-05-18T05:36:42Z</time>
      </trkpt>
      <trkpt lat="49.67479" lon="-1.79676">
        <ele>130.3</ele>
        <time>2023-05-18T05:36:49Z</time>
      </trkpt>
      <trkpt lat="49.67482" lon="-1.79703">
        <ele>130.9</ele>
        <time>2023-05-18T05:36:55Z</time>
      </trkpt>
      <trkpt lat="49.67486" lon="-1.79734">
        <ele>131.9</ele>
        <time>2023-05-18T05:37:02Z</time>
      </trkpt>
      <trkpt lat="49.6749" lon="-1.79764">
        <ele>133.1</ele>
        <time>2023-05-18T05:37:09Z</time>
      </trkpt>
      <trkpt lat="49.67493" lon="-1.79794">
        <ele>134.2</ele>
        <time>2023-05-18T05:37:15Z</time>
      </trkpt>
      <trkpt lat="49.67492" lon="-1.79822">
        <ele>134.7</ele>
        <time>2023-05-18T05:37:21Z</time>
      </trkpt>
      <trkpt lat="49.67487" lon="-1.79853">
        <ele>135.4</ele>
        <time>2023-05-18T05:37:28Z</time>
      </trkpt>
      <trkpt lat="49.67482" lon="-1.79884">
        <ele>136.1</ele>
        <time>2023-05-18T05:37:35Z</time>
      </trkpt>
      <trkpt lat="49.67476" lon="-1.79911">
        <ele>136.8</ele>
        <time>2023-05-18T05:37:41Z</time>
      </trkpt>
      <trkpt lat="49.67475" lon="-1.79942">
        <ele>137.7</ele>
        <time>2023-05-18T05:37:48Z</time>
      </trkpt>
      <trkpt lat="49.6748" lon="-1.7997">
        <ele>138.5</ele>
        <time>2023-05-18T05:37:54Z</time>
      </trkpt>
      <trkpt lat="49.67485" lon="-1.80002">
        <ele>139.2</ele>
        <time>2023-05-18T05:38:01Z</time>
      </trkpt>
      <trkpt lat="49.67483" lon="-1.80032">
        <ele>139.6</ele>
        <time>2023-05-18T05:38:07Z</time>
      </trkpt>
      <trkpt lat="49.67481" lon="-1.8006">
        <ele>140</ele>
        <time>2023-05-18T05:38:12Z</time>
      </trkpt>
      <trkpt lat="49.67486" lon="-1.8009">
        <ele>140.3</ele>
        <time>2023-05-18T05:38:19Z</time>
      </trkpt>
      <trkpt lat="49.67484" lon="-1.80119">
        <ele>140.6</ele>
        <time>2023-05-18T05:47:50Z</time>
      </trkpt>
      <trkpt lat="49.67476" lon="-1.80145">
        <ele>141.1</ele>
        <time>2023-05-18T05:48:10Z</time>
      </trkpt>
      <trkpt lat="49.67476" lon="-1.80174">
        <ele>141.6</ele>
        <time>2023-05-18T05:48:17Z</time>
      </trkpt>
      <trkpt lat="49.67475" lon="-1.80204">
        <ele>142.2</ele>
        <time>2023-05-18T05:48:24Z</time>
      </trkpt>
      <trkpt lat="49.6747" lon="-1.80234">
        <ele>143.1</ele>
        <time>2023-05-18T05:48:32Z</time>
      </trkpt>
      <trkpt lat="49.67466" lon="-1.80263">
        <ele>144</ele>
        <time>2023-05-18T05:48:39Z</time>
      </trkpt>
      <trkpt lat="49.67462" lon="-1.80291">
        <ele>144.8</ele>
        <time>2023-05-18T05:48:46Z</time>
      </trkpt>
      <trkpt lat="49.67459" lon="-1.80319">
        <ele>145.7</ele>
        <time>2023-05-18T05:48:53Z</time>
      </trkpt>
      <trkpt lat="49.67455" lon="-1.80347">
        <ele>146.5</ele>
        <time>2023-05-18T05:49:00Z</time>
      </trkpt>
      <trkpt lat="49.6745" lon="-1.80377">
        <ele>147.3</ele>
        <time>2023-05-18T05:49:07Z</time>
      </trkpt>
      <trkpt lat="49.67446" lon="-1.80408">
        <ele>148</ele>
        <time>2023-05-18T05:49:14Z</time>
      </trkpt>
      <trkpt lat="49.67442" lon="-1.8044">
        <ele>148.5</ele>
        <time>2023-05-18T05:49:20Z</time>
      </trkpt>
      <trkpt lat="49.67438" lon="-1.80468">
        <ele>148.9</ele>
        <time>2023-05-18T05:49:25Z</time>
      </trkpt>
      <trkpt lat="49.67436" lon="-1.80496">
        <ele>149.2</ele>
        <time>2023-05-18T05:49:30Z</time>
      </trkpt>
      <trkpt lat="49.67433" lon="-1.80526">
        <ele>149.5</ele>
        <time>2023-05-18T05:49:35Z</time>
      </trkpt>
      <trkpt lat="49.67431" lon="-1.80556">
        <ele>149.8</ele>
        <time>2023-05-18T05:49:40Z</time>
      </trkpt>
      <trkpt lat="49.67429" lon="-1.80585">
        <ele>150</ele>
        <time>2023-05-18T05:49:45Z</time>
      </trkpt>
      <trkpt lat="49.67426" lon="-1.80616">
        <ele>150.2</ele>
        <time>2023-05-18T05:49:50Z</time>
      </trkpt>
      <trkpt lat="49.67422" lon="-1.80648">
        <ele>150.4</ele>
        <time>2023-05-18T05:49:55Z</time>
      </trkpt>
      <trkpt lat="49.67416" lon="-1.80679">
        <ele>150.6</ele>
        <time>2023-05-18T05:50:00Z</time>
      </trkpt>
      <trkpt lat="49.67405" lon="-1.80707">
        <ele>150.6</ele>
        <time>2023-05-18T05:50:05Z</time>
      </trkpt>
      <trkpt lat="49.67394" lon="-1.80732">
        <ele>150.5</ele>
        <time>2023-05-18T05:50:10Z</time>
      </trkpt>
      <trkpt lat="49.67384" lon="-1.80757">
        <ele>150.5</ele>
        <time>2023-05-18T05:50:15Z</time>
      </trkpt>
      <trkpt lat="49.67373" lon="-1.80783">
        <ele>150.5</ele>
        <time>2023-05-18T05:50:20Z</time>
      </trkpt>
      <trkpt lat="49.67361" lon="-1.8081">
        <ele>150.6</ele>
        <time>2023-05-18T05:50:25Z</time>
      </trkpt>
      <trkpt lat="49.67351" lon="-1.80835">
        <ele>150.7</ele>
        <time>2023-05-18T05:50:29Z</time>
      </trkpt>
      <trkpt lat="49.67341" lon="-1.8086">
        <ele>150.9</ele>
        <time>2023-05-18T05:50:33Z</time>
      </trkpt>
      <trkpt lat="49.6733" lon="-1.80885">
        <ele>151.1</ele>
        <time>2023-05-18T05:50:37Z</time>
      </trkpt>
      <trkpt lat="49.67318" lon="-1.8091">
        <ele>151.4</ele>
        <time>2023-05-18T05:50:41Z</time>
      </trkpt>
      <trkpt lat="49.67305" lon="-1.80933">
        <ele>151.7</ele>
        <time>2023-05-18T05:50:45Z</time>
      </trkpt>
      <trkpt lat="49.67292" lon="-1.80954">
        <ele>151.9</ele>
        <time>2023-05-18T05:50:49Z</time>
      </trkpt>
      <trkpt lat="49.67278" lon="-1.80976">
        <ele>152.1</ele>
        <time>2023-05-18T05:50:53Z</time>
      </trkpt>
      <trkpt lat="49.67265" lon="-1.80999">
        <ele>152.3</ele>
        <time>2023-05-18T05:50:57Z</time>
      </trkpt>
      <trkpt lat="49.67252" lon="-1.81023">
        <ele>152.5</ele>
        <time>2023-05-18T05:51:01Z</time>
      </trkpt>
      <trkpt lat="49.67238" lon="-1.81045">
        <ele>152.7</ele>
        <time>2023-05-18T05:51:05Z</time>
      </trkpt>
      <trkpt lat="49.67225" lon="-1.81068">
        <ele>153.1</ele>
        <time>2023-05-18T05:51:09Z</time>
      </trkpt>
      <trkpt lat="49.67212" lon="-1.81089">
        <ele>153.4</ele>
        <time>2023-05-18T05:51:13Z</time>
      </trkpt>
      <trkpt lat="49.67198" lon="-1.81111">
        <ele>153.7</ele>
        <time>2023-05-18T05:51:17Z</time>
      </trkpt>
      <trkpt lat="49.67185" lon="-1.81133">
        <ele>153.9</ele>
        <time>2023-05-18T05:51:21Z</time>
      </trkpt>
      <trkpt lat="49.67173" lon="-1.81154">
        <ele>154.1</ele>
        <time>2023-05-18T05:51:25Z</time>
      </trkpt>
      <trkpt lat="49.67159" lon="-1.81176">
        <ele>154.3</ele>
        <time>2023-05-18T05:51:29Z</time>
      </trkpt>
      <trkpt lat="49.67146" lon="-1.81198">
        <ele>154.6</ele>
        <time>2023-05-18T05:51:33Z</time>
      </trkpt>
      <trkpt lat="49.67134" lon="-1.81222">
        <ele>154.8</ele>
        <time>2023-05-18T05:51:37Z</time>
      </trkpt>
      <trkpt lat="49.6712" lon="-1.81244">
        <ele>154.9</ele>
        <time>2023-05-18T05:51:41Z</time>
      </trkpt>
      <trkpt lat="49.67107" lon="-1.81266">
        <ele>154.8</ele>
        <time>2023-05-18T05:51:45Z</time>
      </trkpt>
      <trkpt lat="49.67095" lon="-1.81288">
        <ele>154.5</ele>
        <time>2023-05-18T05:51:49Z</time>
      </trkpt>
      <trkpt lat="49.67081" lon="-1.8131">
        <ele>153.8</ele>
        <time>2023-05-18T05:51:53Z</time>
      </trkpt>
      <trkpt lat="49.67067" lon="-1.81338">
        <ele>152.5</ele>
        <time>2023-05-18T05:51:57Z</time>
      </trkpt>
      <trkpt lat="49.67055" lon="-1.81366">
        <ele>151.1</ele>
        <time>2023-05-18T05:52:00Z</time>
      </trkpt>
      <trkpt lat="49.67042" lon="-1.81398">
        <ele>149.4</ele>
        <time>2023-05-18T05:52:03Z</time>
      </trkpt>
      <trkpt lat="49.67029" lon="-1.8143">
        <ele>147.4</ele>
        <time>2023-05-18T05:52:06Z</time>
      </trkpt>
      <trkpt lat="49.67021" lon="-1.81455">
        <ele>145.9</ele>
        <time>2023-05-18T05:52:08Z</time>
      </trkpt>
      <trkpt lat="49.67012" lon="-1.81482">
        <ele>144.3</ele>
        <time>2023-05-18T05:52:10Z</time>
      </trkpt>
      <trkpt lat="49.67001" lon="-1.81509">
        <ele>142.7</ele>
        <time>2023-05-18T05:52:12Z</time>
      </trkpt>
      <trkpt lat="49.66989" lon="-1.81537">
        <ele>141.1</ele>
        <time>2023-05-18T05:52:14Z</time>
      </trkpt>
      <trkpt lat="49.66979" lon="-1.81565">
        <ele>139.5</ele>
        <time>2023-05-18T05:52:16Z</time>
      </trkpt>
      <trkpt lat="49.66969" lon="-1.81594">
        <ele>138</ele>
        <time>2023-05-18T05:52:18Z</time>
      </trkpt>
      <trkpt lat="49.66963" lon="-1.81626">
        <ele>136.5</ele>
        <time>2023-05-18T05:52:20Z</time>
      </trkpt>
      <trkpt lat="49.66961" lon="-1.8166">
        <ele>135</ele>
        <time>2023-05-18T05:52:22Z</time>
      </trkpt>
      <trkpt lat="49.66965" lon="-1.81694">
        <ele>133.9</ele>
        <time>2023-05-18T05:52:24Z</time>
      </trkpt>
      <trkpt lat="49.66973" lon="-1.81727">
        <ele>132.4</ele>
        <time>2023-05-18T05:52:26Z</time>
      </trkpt>
      <trkpt lat="49.66982" lon="-1.81759">
        <ele>131.1</ele>
        <time>2023-05-18T05:52:28Z</time>
      </trkpt>
      <trkpt lat="49.66992" lon="-1.8179">
        <ele>129.7</ele>
        <time>2023-05-18T05:52:30Z</time>
      </trkpt>
      <trkpt lat="49.67002" lon="-1.81819">
        <ele>128.4</ele>
        <time>2023-05-18T05:52:32Z</time>
      </trkpt>
      <trkpt lat="49.67012" lon="-1.81845">
        <ele>127.2</ele>
        <time>2023-05-18T05:52:34Z</time>
      </trkpt>
      <trkpt lat="49.67021" lon="-1.81873">
        <ele>126</ele>
        <time>2023-05-18T05:52:36Z</time>
      </trkpt>
      <trkpt lat="49.67029" lon="-1.81902">
        <ele>124.8</ele>
        <time>2023-05-18T05:52:39Z</time>
      </trkpt>
      <trkpt lat="49.67049" lon="-1.81919">
        <ele>123.4</ele>
        <time>2023-05-18T05:53:04Z</time>
      </trkpt>
      <trkpt lat="49.6706" lon="-1.81894">
        <ele>122.3</ele>
        <time>2023-05-18T05:53:30Z</time>
      </trkpt>
      <trkpt lat="49.67047" lon="-1.81919">
        <ele>121.1</ele>
        <time>2023-05-18T06:37:58Z</time>
      </trkpt>
      <trkpt lat="49.67039" lon="-1.81949">
        <ele>119.9</ele>
        <time>2023-05-18T06:38:07Z</time>
      </trkpt>
      <trkpt lat="49.67042" lon="-1.81978">
        <ele>118.9</ele>
        <time>2023-05-18T06:38:11Z</time>
      </trkpt>
      <trkpt lat="49.67046" lon="-1.82006">
        <ele>117.9</ele>
        <time>2023-05-18T06:38:14Z</time>
      </trkpt>
      <trkpt lat="49.67048" lon="-1.82039">
        <ele>116.7</ele>
        <time>2023-05-18T06:38:17Z</time>
      </trkpt>
      <trkpt lat="49.6705" lon="-1.82077">
        <ele>115.6</ele>
        <time>2023-05-18T06:38:20Z</time>
      </trkpt>
      <trkpt lat="49.67051" lon="-1.82117">
        <ele>114.4</ele>
        <time>2023-05-18T06:38:23Z</time>
      </trkpt>
      <trkpt lat="49.67052" lon="-1.82145">
        <ele>113.7</ele>
        <time>2023-05-18T06:38:25Z</time>
      </trkpt>
      <trkpt lat="49.67058" lon="-1.82173">
        <ele>113</ele>
        <time>2023-05-18T06:38:27Z</time>
      </trkpt>
      <trkpt lat="49.67062" lon="-1.82201">
        <ele>112.3</ele>
        <time>2023-05-18T06:38:29Z</time>
      </trkpt>
      <trkpt lat="49.67068" lon="-1.82229">
        <ele>111.7</ele>
        <time>2023-05-18T06:38:31Z</time>
      </trkpt>
      <trkpt lat="49.67078" lon="-1.82255">
        <ele>111.1</ele>
        <time>2023-05-18T06:38:33Z</time>
      </trkpt>
      <trkpt lat="49.67089" lon="-1.8228">
        <ele>110.6</ele>
        <time>2023-05-18T06:38:35Z</time>
      </trkpt>
      <trkpt lat="49.67101" lon="-1.82304">
        <ele>110.1</ele>
        <time>2023-05-18T06:38:37Z</time>
      </trkpt>
      <trkpt lat="49.67113" lon="-1.82328">
        <ele>109.6</ele>
        <time>2023-05-18T06:38:39Z</time>
      </trkpt>
      <trkpt lat="49.6713" lon="-1.82362">
        <ele>108.5</ele>
        <time>2023-05-18T06:38:42Z</time>
      </trkpt>
      <trkpt lat="49.67141" lon="-1.82385">
        <ele>107.7</ele>
        <time>2023-05-18T06:38:44Z</time>
      </trkpt>
      <trkpt lat="49.67154" lon="-1.82408">
        <ele>106.8</ele>
        <time>2023-05-18T06:38:46Z</time>
      </trkpt>
      <trkpt lat="49.67166" lon="-1.82432">
        <ele>106</ele>
        <time>2023-05-18T06:38:48Z</time>
      </trkpt>
      <trkpt lat="49.67177" lon="-1.82457">
        <ele>105.2</ele>
        <time>2023-05-18T06:38:50Z</time>
      </trkpt>
      <trkpt lat="49.67187" lon="-1.82486">
        <ele>104.4</ele>
        <time>2023-05-18T06:38:52Z</time>
      </trkpt>
      <trkpt lat="49.67193" lon="-1.82518">
        <ele>103.8</ele>
        <time>2023-05-18T06:38:54Z</time>
      </trkpt>
      <trkpt lat="49.67194" lon="-1.82551">
        <ele>103.5</ele>
        <time>2023-05-18T06:38:56Z</time>
      </trkpt>
      <trkpt lat="49.67196" lon="-1.82582">
        <ele>103.4</ele>
        <time>2023-05-18T06:38:58Z</time>
      </trkpt>
      <trkpt lat="49.67197" lon="-1.82611">
        <ele>103.5</ele>
        <time>2023-05-18T06:39:00Z</time>
      </trkpt>
      <trkpt lat="49.672" lon="-1.82648">
        <ele>104.3</ele>
        <time>2023-05-18T06:39:03Z</time>
      </trkpt>
      <trkpt lat="49.67201" lon="-1.82677">
        <ele>105.3</ele>
        <time>2023-05-18T06:39:06Z</time>
      </trkpt>
      <trkpt lat="49.67203" lon="-1.82711">
        <ele>107</ele>
        <time>2023-05-18T06:39:10Z</time>
      </trkpt>
      <trkpt lat="49.67213" lon="-1.82741">
        <ele>108.7</ele>
        <time>2023-05-18T06:39:14Z</time>
      </trkpt>
      <trkpt lat="49.67224" lon="-1.82767">
        <ele>110.4</ele>
        <time>2023-05-18T06:39:19Z</time>
      </trkpt>
      <trkpt lat="49.67239" lon="-1.8279">
        <ele>112.1</ele>
        <time>2023-05-18T06:39:25Z</time>
      </trkpt>
      <trkpt lat="49.6725" lon="-1.82812">
        <ele>113.3</ele>
        <time>2023-05-18T06:39:30Z</time>
      </trkpt>
      <trkpt lat="49.67264" lon="-1.82831">
        <ele>114.4</ele>
        <time>2023-05-18T06:39:35Z</time>
      </trkpt>
      <trkpt lat="49.67276" lon="-1.82855">
        <ele>115.3</ele>
        <time>2023-05-18T06:39:40Z</time>
      </trkpt>
      <trkpt lat="49.67292" lon="-1.82877">
        <ele>116.1</ele>
        <time>2023-05-18T06:39:45Z</time>
      </trkpt>
      <trkpt lat="49.67308" lon="-1.82896">
        <ele>116.7</ele>
        <time>2023-05-18T06:39:50Z</time>
      </trkpt>
      <trkpt lat="49.67321" lon="-1.82917">
        <ele>117.3</ele>
        <time>2023-05-18T06:39:55Z</time>
      </trkpt>
      <trkpt lat="49.67336" lon="-1.82941">
        <ele>118</ele>
        <time>2023-05-18T06:40:00Z</time>
      </trkpt>
      <trkpt lat="49.67351" lon="-1.82963">
        <ele>118.7</ele>
        <time>2023-05-18T06:40:05Z</time>
      </trkpt>
      <trkpt lat="49.67365" lon="-1.82985">
        <ele>119.4</ele>
        <time>2023-05-18T06:40:10Z</time>
      </trkpt>
      <trkpt lat="49.67378" lon="-1.83007">
        <ele>120</ele>
        <time>2023-05-18T06:40:15Z</time>
      </trkpt>
      <trkpt lat="49.67394" lon="-1.83027">
        <ele>120.7</ele>
        <time>2023-05-18T06:40:20Z</time>
      </trkpt>
      <trkpt lat="49.6741" lon="-1.83048">
        <ele>121.4</ele>
        <time>2023-05-18T06:40:25Z</time>
      </trkpt>
      <trkpt lat="49.67424" lon="-1.83072">
        <ele>122.1</ele>
        <time>2023-05-18T06:40:30Z</time>
      </trkpt>
      <trkpt lat="49.67441" lon="-1.83095">
        <ele>122.9</ele>
        <time>2023-05-18T06:40:35Z</time>
      </trkpt>
      <trkpt lat="49.67457" lon="-1.83115">
        <ele>123.7</ele>
        <time>2023-05-18T06:40:40Z</time>
      </trkpt>
      <trkpt lat="49.6747" lon="-1.83136">
        <ele>124.5</ele>
        <time>2023-05-18T06:40:45Z</time>
      </trkpt>
      <trkpt lat="49.67484" lon="-1.83156">
        <ele>125.2</ele>
        <time>2023-05-18T06:40:50Z</time>
      </trkpt>
      <trkpt lat="49.67498" lon="-1.83175">
        <ele>126.1</ele>
        <time>2023-05-18T06:40:55Z</time>
      </trkpt>
      <trkpt lat="49.67512" lon="-1.83198">
        <ele>127.2</ele>
        <time>2023-05-18T06:41:01Z</time>
      </trkpt>
      <trkpt lat="49.67524" lon="-1.83218">
        <ele>128.3</ele>
        <time>2023-05-18T06:41:07Z</time>
      </trkpt>
      <trkpt lat="49.67538" lon="-1.83239">
        <ele>129.6</ele>
        <time>2023-05-18T06:41:14Z</time>
      </trkpt>
      <trkpt lat="49.67553" lon="-1.8326">
        <ele>131</ele>
        <time>2023-05-18T06:41:21Z</time>
      </trkpt>
      <trkpt lat="49.67567" lon="-1.83281">
        <ele>132.3</ele>
        <time>2023-05-18T06:41:28Z</time>
      </trkpt>
      <trkpt lat="49.67581" lon="-1.83302">
        <ele>133.4</ele>
        <time>2023-05-18T06:41:35Z</time>
      </trkpt>
      <trkpt lat="49.67596" lon="-1.83321">
        <ele>134.6</ele>
        <time>2023-05-18T06:41:42Z</time>
      </trkpt>
      <trkpt lat="49.6761" lon="-1.83344">
        <ele>135.6</ele>
        <time>2023-05-18T06:41:49Z</time>
      </trkpt>
      <trkpt lat="49.67624" lon="-1.8337">
        <ele>136.4</ele>
        <time>2023-05-18T06:41:55Z</time>
      </trkpt>
      <trkpt lat="49.67637" lon="-1.83397">
        <ele>136.7</ele>
        <time>2023-05-18T06:42:00Z</time>
      </trkpt>
      <trkpt lat="49.67648" lon="-1.83419">
        <ele>136.9</ele>
        <time>2023-05-18T06:42:04Z</time>
      </trkpt>
      <trkpt lat="49.6766" lon="-1.83442">
        <ele>136.9</ele>
        <time>2023-05-18T06:42:08Z</time>
      </trkpt>
      <trkpt lat="49.67672" lon="-1.83468">
        <ele>136.8</ele>
        <time>2023-05-18T06:42:12Z</time>
      </trkpt>
      <trkpt lat="49.67684" lon="-1.83494">
        <ele>136.8</ele>
        <time>2023-05-18T06:42:16Z</time>
      </trkpt>
      <trkpt lat="49.67698" lon="-1.83519">
        <ele>136.9</ele>
        <time>2023-05-18T06:42:20Z</time>
      </trkpt>
      <trkpt lat="49.67712" lon="-1.83545">
        <ele>137.1</ele>
        <time>2023-05-18T06:42:24Z</time>
      </trkpt>
      <trkpt lat="49.67726" lon="-1.83569">
        <ele>137.2</ele>
        <time>2023-05-18T06:42:28Z</time>
      </trkpt>
      <trkpt lat="49.67741" lon="-1.83593">
        <ele>137.3</ele>
        <time>2023-05-18T06:42:32Z</time>
      </trkpt>
      <trkpt lat="49.67754" lon="-1.83618">
        <ele>137.4</ele>
        <time>2023-05-18T06:42:36Z</time>
      </trkpt>
      <trkpt lat="49.67768" lon="-1.83642">
        <ele>137.7</ele>
        <time>2023-05-18T06:42:40Z</time>
      </trkpt>
      <trkpt lat="49.67783" lon="-1.83662">
        <ele>137.9</ele>
        <time>2023-05-18T06:42:44Z</time>
      </trkpt>
      <trkpt lat="49.67798" lon="-1.83682">
        <ele>138</ele>
        <time>2023-05-18T06:42:48Z</time>
      </trkpt>
      <trkpt lat="49.67818" lon="-1.83698">
        <ele>137.7</ele>
        <time>2023-05-18T06:42:52Z</time>
      </trkpt>
      <trkpt lat="49.67834" lon="-1.83711">
        <ele>137.3</ele>
        <time>2023-05-18T06:42:55Z</time>
      </trkpt>
      <trkpt lat="49.67852" lon="-1.83723">
        <ele>136.8</ele>
        <time>2023-05-18T06:42:58Z</time>
      </trkpt>
      <trkpt lat="49.67872" lon="-1.83734">
        <ele>136.2</ele>
        <time>2023-05-18T06:43:01Z</time>
      </trkpt>
      <trkpt lat="49.67892" lon="-1.83744">
        <ele>135.7</ele>
        <time>2023-05-18T06:43:04Z</time>
      </trkpt>
      <trkpt lat="49.67913" lon="-1.83754">
        <ele>135.2</ele>
        <time>2023-05-18T06:43:07Z</time>
      </trkpt>
      <trkpt lat="49.67936" lon="-1.83761">
        <ele>134.8</ele>
        <time>2023-05-18T06:43:10Z</time>
      </trkpt>
      <trkpt lat="49.67959" lon="-1.83767">
        <ele>134.3</ele>
        <time>2023-05-18T06:43:13Z</time>
      </trkpt>
      <trkpt lat="49.67982" lon="-1.8377">
        <ele>133.8</ele>
        <time>2023-05-18T06:43:16Z</time>
      </trkpt>
      <trkpt lat="49.68007" lon="-1.83772">
        <ele>133.2</ele>
        <time>2023-05-18T06:43:19Z</time>
      </trkpt>
      <trkpt lat="49.6803" lon="-1.83774">
        <ele>132.5</ele>
        <time>2023-05-18T06:43:22Z</time>
      </trkpt>
      <trkpt lat="49.68055" lon="-1.83777">
        <ele>131.8</ele>
        <time>2023-05-18T06:43:25Z</time>
      </trkpt>
      <trkpt lat="49.68082" lon="-1.83778">
        <ele>131.1</ele>
        <time>2023-05-18T06:43:28Z</time>
      </trkpt>
      <trkpt lat="49.68108" lon="-1.83781">
        <ele>130.6</ele>
        <time>2023-05-18T06:43:31Z</time>
      </trkpt>
      <trkpt lat="49.68133" lon="-1.83786">
        <ele>129.9</ele>
        <time>2023-05-18T06:43:34Z</time>
      </trkpt>
      <trkpt lat="49.68159" lon="-1.83791">
        <ele>129.2</ele>
        <time>2023-05-18T06:43:37Z</time>
      </trkpt>
      <trkpt lat="49.68186" lon="-1.83795">
        <ele>128.5</ele>
        <time>2023-05-18T06:43:40Z</time>
      </trkpt>
      <trkpt lat="49.68204" lon="-1.83798">
        <ele>128.1</ele>
        <time>2023-05-18T06:43:42Z</time>
      </trkpt>
      <trkpt lat="49.6823" lon="-1.83801">
        <ele>127.7</ele>
        <time>2023-05-18T06:43:45Z</time>
      </trkpt>
      <trkpt lat="49.68249" lon="-1.83802">
        <ele>127.4</ele>
        <time>2023-05-18T06:43:47Z</time>
      </trkpt>
      <trkpt lat="49.68268" lon="-1.83805">
        <ele>127.1</ele>
        <time>2023-05-18T06:43:49Z</time>
      </trkpt>
      <trkpt lat="49.68286" lon="-1.83807">
        <ele>127</ele>
        <time>2023-05-18T06:43:51Z</time>
      </trkpt>
      <trkpt lat="49.68312" lon="-1.8381">
        <ele>127</ele>
        <time>2023-05-18T06:43:54Z</time>
      </trkpt>
      <trkpt lat="49.68338" lon="-1.83814">
        <ele>127</ele>
        <time>2023-05-18T06:43:57Z</time>
      </trkpt>
      <trkpt lat="49.68362" lon="-1.8382">
        <ele>127</ele>
        <time>2023-05-18T06:44:00Z</time>
      </trkpt>
      <trkpt lat="49.68384" lon="-1.83827">
        <ele>127.1</ele>
        <time>2023-05-18T06:44:03Z</time>
      </trkpt>
      <trkpt lat="49.68406" lon="-1.83833">
        <ele>127.3</ele>
        <time>2023-05-18T06:44:06Z</time>
      </trkpt>
      <trkpt lat="49.68428" lon="-1.83837">
        <ele>127.5</ele>
        <time>2023-05-18T06:44:09Z</time>
      </trkpt>
      <trkpt lat="49.6845" lon="-1.83843">
        <ele>127.7</ele>
        <time>2023-05-18T06:44:12Z</time>
      </trkpt>
      <trkpt lat="49.68471" lon="-1.83848">
        <ele>127.9</ele>
        <time>2023-05-18T06:44:15Z</time>
      </trkpt>
      <trkpt lat="49.68492" lon="-1.83854">
        <ele>127.9</ele>
        <time>2023-05-18T06:44:18Z</time>
      </trkpt>
      <trkpt lat="49.68514" lon="-1.83859">
        <ele>127.6</ele>
        <time>2023-05-18T06:44:21Z</time>
      </trkpt>
      <trkpt lat="49.68537" lon="-1.83864">
        <ele>126.8</ele>
        <time>2023-05-18T06:44:24Z</time>
      </trkpt>
      <trkpt lat="49.68562" lon="-1.83868">
        <ele>125.6</ele>
        <time>2023-05-18T06:44:27Z</time>
      </trkpt>
      <trkpt lat="49.68589" lon="-1.83874">
        <ele>124.3</ele>
        <time>2023-05-18T06:44:30Z</time>
      </trkpt>
      <trkpt lat="49.68607" lon="-1.83877">
        <ele>123.3</ele>
        <time>2023-05-18T06:44:32Z</time>
      </trkpt>
      <trkpt lat="49.68626" lon="-1.8388">
        <ele>122.2</ele>
        <time>2023-05-18T06:44:34Z</time>
      </trkpt>
      <trkpt lat="49.68646" lon="-1.83881">
        <ele>121</ele>
        <time>2023-05-18T06:44:36Z</time>
      </trkpt>
      <trkpt lat="49.68667" lon="-1.83881">
        <ele>119.7</ele>
        <time>2023-05-18T06:44:38Z</time>
      </trkpt>
      <trkpt lat="49.68688" lon="-1.83883">
        <ele>118.4</ele>
        <time>2023-05-18T06:44:40Z</time>
      </trkpt>
      <trkpt lat="49.68707" lon="-1.83884">
        <ele>117.4</ele>
        <time>2023-05-18T06:44:42Z</time>
      </trkpt>
      <trkpt lat="49.68727" lon="-1.83883">
        <ele>116.2</ele>
        <time>2023-05-18T06:44:44Z</time>
      </trkpt>
      <trkpt lat="49.68747" lon="-1.83881">
        <ele>115</ele>
        <time>2023-05-18T06:44:46Z</time>
      </trkpt>
      <trkpt lat="49.68767" lon="-1.83876">
        <ele>114.2</ele>
        <time>2023-05-18T06:44:48Z</time>
      </trkpt>
      <trkpt lat="49.68786" lon="-1.83868">
        <ele>113.5</ele>
        <time>2023-05-18T06:44:50Z</time>
      </trkpt>
      <trkpt lat="49.68806" lon="-1.83857">
        <ele>112.8</ele>
        <time>2023-05-18T06:44:52Z</time>
      </trkpt>
      <trkpt lat="49.68825" lon="-1.83847">
        <ele>112.5</ele>
        <time>2023-05-18T06:44:54Z</time>
      </trkpt>
      <trkpt lat="49.68844" lon="-1.83839">
        <ele>111.9</ele>
        <time>2023-05-18T06:44:56Z</time>
      </trkpt>
      <trkpt lat="49.68864" lon="-1.83836">
        <ele>111.2</ele>
        <time>2023-05-18T06:44:58Z</time>
      </trkpt>
      <trkpt lat="49.68882" lon="-1.83838">
        <ele>110.8</ele>
        <time>2023-05-18T06:45:00Z</time>
      </trkpt>
      <trkpt lat="49.689" lon="-1.83844">
        <ele>110.5</ele>
        <time>2023-05-18T06:45:02Z</time>
      </trkpt>
      <trkpt lat="49.68918" lon="-1.8385">
        <ele>110.2</ele>
        <time>2023-05-18T06:45:04Z</time>
      </trkpt>
      <trkpt lat="49.68945" lon="-1.83861">
        <ele>109.7</ele>
        <time>2023-05-18T06:45:07Z</time>
      </trkpt>
      <trkpt lat="49.68962" lon="-1.8387">
        <ele>109.4</ele>
        <time>2023-05-18T06:45:09Z</time>
      </trkpt>
      <trkpt lat="49.68979" lon="-1.83877">
        <ele>109.1</ele>
        <time>2023-05-18T06:45:11Z</time>
      </trkpt>
      <trkpt lat="49.69005" lon="-1.83888">
        <ele>108.7</ele>
        <time>2023-05-18T06:45:14Z</time>
      </trkpt>
      <trkpt lat="49.6903" lon="-1.83899">
        <ele>108.3</ele>
        <time>2023-05-18T06:45:17Z</time>
      </trkpt>
      <trkpt lat="49.69055" lon="-1.83907">
        <ele>107.8</ele>
        <time>2023-05-18T06:45:20Z</time>
      </trkpt>
      <trkpt lat="49.6908" lon="-1.83911">
        <ele>107.4</ele>
        <time>2023-05-18T06:45:23Z</time>
      </trkpt>
      <trkpt lat="49.69105" lon="-1.83912">
        <ele>107</ele>
        <time>2023-05-18T06:45:26Z</time>
      </trkpt>
      <trkpt lat="49.69131" lon="-1.83905">
        <ele>106.6</ele>
        <time>2023-05-18T06:45:29Z</time>
      </trkpt>
      <trkpt lat="49.69154" lon="-1.83896">
        <ele>106</ele>
        <time>2023-05-18T06:45:32Z</time>
      </trkpt>
      <trkpt lat="49.69178" lon="-1.83884">
        <ele>105.3</ele>
        <time>2023-05-18T06:45:35Z</time>
      </trkpt>
      <trkpt lat="49.69204" lon="-1.83875">
        <ele>104.4</ele>
        <time>2023-05-18T06:45:38Z</time>
      </trkpt>
      <trkpt lat="49.69222" lon="-1.83871">
        <ele>103.4</ele>
        <time>2023-05-18T06:45:40Z</time>
      </trkpt>
      <trkpt lat="49.69241" lon="-1.83868">
        <ele>102.3</ele>
        <time>2023-05-18T06:45:42Z</time>
      </trkpt>
      <trkpt lat="49.69261" lon="-1.83867">
        <ele>101.1</ele>
        <time>2023-05-18T06:45:44Z</time>
      </trkpt>
      <trkpt lat="49.69281" lon="-1.83867">
        <ele>99.8</ele>
        <time>2023-05-18T06:45:46Z</time>
      </trkpt>
      <trkpt lat="49.69301" lon="-1.83871">
        <ele>98.1</ele>
        <time>2023-05-18T06:45:48Z</time>
      </trkpt>
      <trkpt lat="49.69321" lon="-1.8388">
        <ele>96.3</ele>
        <time>2023-05-18T06:45:50Z</time>
      </trkpt>
      <trkpt lat="49.6934" lon="-1.83897">
        <ele>94.3</ele>
        <time>2023-05-18T06:45:52Z</time>
      </trkpt>
      <trkpt lat="49.69355" lon="-1.83924">
        <ele>92.4</ele>
        <time>2023-05-18T06:45:54Z</time>
      </trkpt>
      <trkpt lat="49.69364" lon="-1.83956">
        <ele>90.5</ele>
        <time>2023-05-18T06:45:56Z</time>
      </trkpt>
      <trkpt lat="49.69372" lon="-1.83989">
        <ele>88.6</ele>
        <time>2023-05-18T06:45:58Z</time>
      </trkpt>
      <trkpt lat="49.6938" lon="-1.84023">
        <ele>86.8</ele>
        <time>2023-05-18T06:46:00Z</time>
      </trkpt>
      <trkpt lat="49.69387" lon="-1.84057">
        <ele>84.9</ele>
        <time>2023-05-18T06:46:02Z</time>
      </trkpt>
      <trkpt lat="49.69395" lon="-1.84092">
        <ele>83</ele>
        <time>2023-05-18T06:46:04Z</time>
      </trkpt>
      <trkpt lat="49.69403" lon="-1.84128">
        <ele>81.1</ele>
        <time>2023-05-18T06:46:06Z</time>
      </trkpt>
      <trkpt lat="49.69411" lon="-1.84163">
        <ele>79.4</ele>
        <time>2023-05-18T06:46:08Z</time>
      </trkpt>
      <trkpt lat="49.69418" lon="-1.84198">
        <ele>77.6</ele>
        <time>2023-05-18T06:46:10Z</time>
      </trkpt>
      <trkpt lat="49.69425" lon="-1.84233">
        <ele>76</ele>
        <time>2023-05-18T06:46:12Z</time>
      </trkpt>
      <trkpt lat="49.69433" lon="-1.84267">
        <ele>74.4</ele>
        <time>2023-05-18T06:46:14Z</time>
      </trkpt>
      <trkpt lat="49.69442" lon="-1.84302">
        <ele>72.7</ele>
        <time>2023-05-18T06:46:16Z</time>
      </trkpt>
      <trkpt lat="49.69454" lon="-1.84335">
        <ele>70.9</ele>
        <time>2023-05-18T06:46:18Z</time>
      </trkpt>
      <trkpt lat="49.69472" lon="-1.8436">
        <ele>69</ele>
        <time>2023-05-18T06:46:20Z</time>
      </trkpt>
      <trkpt lat="49.69495" lon="-1.84377">
        <ele>67.2</ele>
        <time>2023-05-18T06:46:22Z</time>
      </trkpt>
      <trkpt lat="49.6952" lon="-1.84387">
        <ele>65.3</ele>
        <time>2023-05-18T06:46:24Z</time>
      </trkpt>
      <trkpt lat="49.69545" lon="-1.84395">
        <ele>63.4</ele>
        <time>2023-05-18T06:46:26Z</time>
      </trkpt>
      <trkpt lat="49.69569" lon="-1.84404">
        <ele>61.4</ele>
        <time>2023-05-18T06:46:28Z</time>
      </trkpt>
      <trkpt lat="49.69592" lon="-1.84412">
        <ele>59.5</ele>
        <time>2023-05-18T06:46:30Z</time>
      </trkpt>
      <trkpt lat="49.69617" lon="-1.84422">
        <ele>57.7</ele>
        <time>2023-05-18T06:46:32Z</time>
      </trkpt>
      <trkpt lat="49.69641" lon="-1.84429">
        <ele>55.9</ele>
        <time>2023-05-18T06:46:34Z</time>
      </trkpt>
      <trkpt lat="49.69665" lon="-1.8443">
        <ele>54</ele>
        <time>2023-05-18T06:46:36Z</time>
      </trkpt>
      <trkpt lat="49.6969" lon="-1.84428">
        <ele>52.2</ele>
        <time>2023-05-18T06:46:38Z</time>
      </trkpt>
      <trkpt lat="49.69715" lon="-1.84427">
        <ele>50.5</ele>
        <time>2023-05-18T06:46:40Z</time>
      </trkpt>
      <trkpt lat="49.6974" lon="-1.84426">
        <ele>48.9</ele>
        <time>2023-05-18T06:46:42Z</time>
      </trkpt>
      <trkpt lat="49.69765" lon="-1.84422">
        <ele>47.1</ele>
        <time>2023-05-18T06:46:44Z</time>
      </trkpt>
      <trkpt lat="49.6979" lon="-1.84417">
        <ele>45.3</ele>
        <time>2023-05-18T06:46:46Z</time>
      </trkpt>
      <trkpt lat="49.69814" lon="-1.84408">
        <ele>43.4</ele>
        <time>2023-05-18T06:46:48Z</time>
      </trkpt>
      <trkpt lat="49.69837" lon="-1.844">
        <ele>41.8</ele>
        <time>2023-05-18T06:46:50Z</time>
      </trkpt>
      <trkpt lat="49.69861" lon="-1.84392">
        <ele>40.1</ele>
        <time>2023-05-18T06:46:52Z</time>
      </trkpt>
      <trkpt lat="49.69884" lon="-1.84384">
        <ele>38.3</ele>
        <time>2023-05-18T06:46:54Z</time>
      </trkpt>
      <trkpt lat="49.69907" lon="-1.84377">
        <ele>36.5</ele>
        <time>2023-05-18T06:46:56Z</time>
      </trkpt>
      <trkpt lat="49.69932" lon="-1.84369">
        <ele>34.7</ele>
        <time>2023-05-18T06:46:58Z</time>
      </trkpt>
      <trkpt lat="49.69956" lon="-1.84363">
        <ele>33</ele>
        <time>2023-05-18T06:47:00Z</time>
      </trkpt>
      <trkpt lat="49.6998" lon="-1.84358">
        <ele>31.5</ele>
        <time>2023-05-18T06:47:02Z</time>
      </trkpt>
      <trkpt lat="49.70004" lon="-1.84357">
        <ele>29.7</ele>
        <time>2023-05-18T06:47:04Z</time>
      </trkpt>
      <trkpt lat="49.70029" lon="-1.84356">
        <ele>27.8</ele>
        <time>2023-05-18T06:47:06Z</time>
      </trkpt>
      <trkpt lat="49.70052" lon="-1.84356">
        <ele>26.1</ele>
        <time>2023-05-18T06:47:08Z</time>
      </trkpt>
      <trkpt lat="49.70075" lon="-1.84355">
        <ele>24.3</ele>
        <time>2023-05-18T06:47:10Z</time>
      </trkpt>
      <trkpt lat="49.70098" lon="-1.84356">
        <ele>22.6</ele>
        <time>2023-05-18T06:47:12Z</time>
      </trkpt>
      <trkpt lat="49.70122" lon="-1.84359">
        <ele>21.1</ele>
        <time>2023-05-18T06:47:14Z</time>
      </trkpt>
      <trkpt lat="49.70146" lon="-1.84362">
        <ele>20</ele>
        <time>2023-05-18T06:47:16Z</time>
      </trkpt>
      <trkpt lat="49.7017" lon="-1.8436">
        <ele>19.4</ele>
        <time>2023-05-18T06:47:18Z</time>
      </trkpt>
      <trkpt lat="49.70191" lon="-1.84357">
        <ele>18.8</ele>
        <time>2023-05-18T06:47:20Z</time>
      </trkpt>
      <trkpt lat="49.70209" lon="-1.8435">
        <ele>18.7</ele>
        <time>2023-05-18T06:47:22Z</time>
      </trkpt>
      <trkpt lat="49.70225" lon="-1.84334">
        <ele>17.4</ele>
        <time>2023-05-18T06:47:24Z</time>
      </trkpt>
      <trkpt lat="49.7024" lon="-1.84317">
        <ele>16.2</ele>
        <time>2023-05-18T06:47:26Z</time>
      </trkpt>
      <trkpt lat="49.70256" lon="-1.84301">
        <ele>15</ele>
        <time>2023-05-18T06:47:28Z</time>
      </trkpt>
      <trkpt lat="49.70273" lon="-1.84285">
        <ele>13.7</ele>
        <time>2023-05-18T06:47:30Z</time>
      </trkpt>
      <trkpt lat="49.70289" lon="-1.84268">
        <ele>12.6</ele>
        <time>2023-05-18T06:47:32Z</time>
      </trkpt>
      <trkpt lat="49.70301" lon="-1.84246">
        <ele>11.6</ele>
        <time>2023-05-18T06:47:34Z</time>
      </trkpt>
      <trkpt lat="49.70309" lon="-1.84219">
        <ele>10.6</ele>
        <time>2023-05-18T06:47:36Z</time>
      </trkpt>
      <trkpt lat="49.70318" lon="-1.84192">
        <ele>9.8</ele>
        <time>2023-05-18T06:47:38Z</time>
      </trkpt>
      <trkpt lat="49.70326" lon="-1.84163">
        <ele>9.3</ele>
        <time>2023-05-18T06:47:40Z</time>
      </trkpt>
      <trkpt lat="49.70334" lon="-1.84135">
        <ele>8.9</ele>
        <time>2023-05-18T06:47:42Z</time>
      </trkpt>
      <trkpt lat="49.70343" lon="-1.84108">
        <ele>8.6</ele>
        <time>2023-05-18T06:47:44Z</time>
      </trkpt>
      <trkpt lat="49.70352" lon="-1.84084">
        <ele>8.4</ele>
        <time>2023-05-18T06:47:46Z</time>
      </trkpt>
      <trkpt lat="49.70364" lon="-1.84062">
        <ele>8.2</ele>
        <time>2023-05-18T06:47:48Z</time>
      </trkpt>
      <trkpt lat="49.70378" lon="-1.84046">
        <ele>8.2</ele>
        <time>2023-05-18T06:47:50Z</time>
      </trkpt>
      <trkpt lat="49.70404" lon="-1.84051">
        <ele>8.2</ele>
        <time>2023-05-18T06:47:53Z</time>
      </trkpt>
      <trkpt lat="49.70422" lon="-1.84076">
        <ele>8.1</ele>
        <time>2023-05-18T06:47:56Z</time>
      </trkpt>
      <trkpt lat="49.70438" lon="-1.84102">
        <ele>8</ele>
        <time>2023-05-18T06:47:59Z</time>
      </trkpt>
      <trkpt lat="49.70453" lon="-1.84128">
        <ele>7.8</ele>
        <time>2023-05-18T06:48:02Z</time>
      </trkpt>
      <trkpt lat="49.7047" lon="-1.84152">
        <ele>7.7</ele>
        <time>2023-05-18T06:48:05Z</time>
      </trkpt>
      <trkpt lat="49.70485" lon="-1.84177">
        <ele>7.7</ele>
        <time>2023-05-18T06:48:08Z</time>
      </trkpt>
      <trkpt lat="49.70499" lon="-1.842">
        <ele>7.9</ele>
        <time>2023-05-18T06:48:11Z</time>
      </trkpt>
      <trkpt lat="49.70513" lon="-1.84221">
        <ele>8.3</ele>
        <time>2023-05-18T06:48:14Z</time>
      </trkpt>
      <trkpt lat="49.70526" lon="-1.84242">
        <ele>8.6</ele>
        <time>2023-05-18T06:48:17Z</time>
      </trkpt>
      <trkpt lat="49.70539" lon="-1.84262">
        <ele>8.9</ele>
        <time>2023-05-18T06:48:20Z</time>
      </trkpt>
      <trkpt lat="49.70557" lon="-1.84283">
        <ele>9.3</ele>
        <time>2023-05-18T06:48:24Z</time>
      </trkpt>
      <trkpt lat="49.70577" lon="-1.84292">
        <ele>9.6</ele>
        <time>2023-05-18T06:48:28Z</time>
      </trkpt>
      <trkpt lat="49.70598" lon="-1.84294">
        <ele>10</ele>
        <time>2023-05-18T06:48:32Z</time>
      </trkpt>
      <trkpt lat="49.70619" lon="-1.84294">
        <ele>10.2</ele>
        <time>2023-05-18T06:48:36Z</time>
      </trkpt>
      <trkpt lat="49.70641" lon="-1.84293">
        <ele>10.4</ele>
        <time>2023-05-18T06:48:40Z</time>
      </trkpt>
      <trkpt lat="49.70665" lon="-1.84288">
        <ele>10.5</ele>
        <time>2023-05-18T06:48:44Z</time>
      </trkpt>
      <trkpt lat="49.70688" lon="-1.8428">
        <ele>10.5</ele>
        <time>2023-05-18T06:48:48Z</time>
      </trkpt>
      <trkpt lat="49.70711" lon="-1.8427">
        <ele>10.4</ele>
        <time>2023-05-18T06:48:52Z</time>
      </trkpt>
      <trkpt lat="49.70732" lon="-1.84255">
        <ele>10.2</ele>
        <time>2023-05-18T06:48:56Z</time>
      </trkpt>
      <trkpt lat="49.70749" lon="-1.84244">
        <ele>10.1</ele>
        <time>2023-05-18T06:48:59Z</time>
      </trkpt>
      <trkpt lat="49.70767" lon="-1.84233">
        <ele>9.8</ele>
        <time>2023-05-18T06:49:02Z</time>
      </trkpt>
      <trkpt lat="49.70785" lon="-1.8422">
        <ele>9.6</ele>
        <time>2023-05-18T06:49:05Z</time>
      </trkpt>
      <trkpt lat="49.70803" lon="-1.84207">
        <ele>9.4</ele>
        <time>2023-05-18T06:49:08Z</time>
      </trkpt>
      <trkpt lat="49.70822" lon="-1.84198">
        <ele>9.2</ele>
        <time>2023-05-18T06:49:11Z</time>
      </trkpt>
      <trkpt lat="49.70844" lon="-1.8419">
        <ele>9</ele>
        <time>2023-05-18T06:49:14Z</time>
      </trkpt>
      <trkpt lat="49.70864" lon="-1.84183">
        <ele>8.8</ele>
        <time>2023-05-18T06:49:17Z</time>
      </trkpt>
      <trkpt lat="49.70884" lon="-1.84176">
        <ele>8.7</ele>
        <time>2023-05-18T06:49:20Z</time>
      </trkpt>
      <trkpt lat="49.70904" lon="-1.8417">
        <ele>8.6</ele>
        <time>2023-05-18T06:49:23Z</time>
      </trkpt>
      <trkpt lat="49.70925" lon="-1.84164">
        <ele>8.5</ele>
        <time>2023-05-18T06:49:26Z</time>
      </trkpt>
      <trkpt lat="49.70944" lon="-1.84163">
        <ele>8.4</ele>
        <time>2023-05-18T06:49:29Z</time>
      </trkpt>
      <trkpt lat="49.70963" lon="-1.84168">
        <ele>8.3</ele>
        <time>2023-05-18T06:49:32Z</time>
      </trkpt>
      <trkpt lat="49.70981" lon="-1.84179">
        <ele>8.3</ele>
        <time>2023-05-18T06:49:35Z</time>
      </trkpt>
      <trkpt lat="49.70996" lon="-1.84194">
        <ele>8.4</ele>
        <time>2023-05-18T06:49:38Z</time>
      </trkpt>
      <trkpt lat="49.71013" lon="-1.84221">
        <ele>8.6</ele>
        <time>2023-05-18T06:49:42Z</time>
      </trkpt>
      <trkpt lat="49.71024" lon="-1.84243">
        <ele>8.6</ele>
        <time>2023-05-18T06:49:45Z</time>
      </trkpt>
      <trkpt lat="49.71034" lon="-1.84267">
        <ele>8.5</ele>
        <time>2023-05-18T06:49:48Z</time>
      </trkpt>
      <trkpt lat="49.71045" lon="-1.84292">
        <ele>8.4</ele>
        <time>2023-05-18T06:49:51Z</time>
      </trkpt>
      <trkpt lat="49.71056" lon="-1.84319">
        <ele>8.2</ele>
        <time>2023-05-18T06:49:54Z</time>
      </trkpt>
      <trkpt lat="49.71066" lon="-1.84345">
        <ele>7.9</ele>
        <time>2023-05-18T06:49:57Z</time>
      </trkpt>
      <trkpt lat="49.71077" lon="-1.84372">
        <ele>7.6</ele>
        <time>2023-05-18T06:50:00Z</time>
      </trkpt>
      <trkpt lat="49.71089" lon="-1.84398">
        <ele>7.3</ele>
        <time>2023-05-18T06:50:03Z</time>
      </trkpt>
      <trkpt lat="49.711" lon="-1.84426">
        <ele>7</ele>
        <time>2023-05-18T06:50:06Z</time>
      </trkpt>
      <trkpt lat="49.71112" lon="-1.84454">
        <ele>6.9</ele>
        <time>2023-05-18T06:50:09Z</time>
      </trkpt>
      <trkpt lat="49.71122" lon="-1.84481">
        <ele>6.8</ele>
        <time>2023-05-18T06:50:12Z</time>
      </trkpt>
      <trkpt lat="49.71131" lon="-1.84509">
        <ele>6.8</ele>
        <time>2023-05-18T06:50:15Z</time>
      </trkpt>
      <trkpt lat="49.71138" lon="-1.84536">
        <ele>6.9</ele>
        <time>2023-05-18T06:50:18Z</time>
      </trkpt>
      <trkpt lat="49.71144" lon="-1.84566">
        <ele>6.9</ele>
        <time>2023-05-18T06:50:21Z</time>
      </trkpt>
      <trkpt lat="49.71149" lon="-1.84594">
        <ele>7</ele>
        <time>2023-05-18T06:50:24Z</time>
      </trkpt>
      <trkpt lat="49.71154" lon="-1.84623">
        <ele>7.1</ele>
        <time>2023-05-18T06:50:27Z</time>
      </trkpt>
      <trkpt lat="49.71159" lon="-1.84651">
        <ele>7.1</ele>
        <time>2023-05-18T06:50:30Z</time>
      </trkpt>
      <trkpt lat="49.71163" lon="-1.84678">
        <ele>7.1</ele>
        <time>2023-05-18T06:50:33Z</time>
      </trkpt>
      <trkpt lat="49.71169" lon="-1.84707">
        <ele>7</ele>
        <time>2023-05-18T06:50:36Z</time>
      </trkpt>
      <trkpt lat="49.71174" lon="-1.84736">
        <ele>6.8</ele>
        <time>2023-05-18T06:50:39Z</time>
      </trkpt>
      <trkpt lat="49.71179" lon="-1.84765">
        <ele>6.7</ele>
        <time>2023-05-18T06:50:42Z</time>
      </trkpt>
      <trkpt lat="49.71184" lon="-1.84795">
        <ele>6.6</ele>
        <time>2023-05-18T06:50:45Z</time>
      </trkpt>
      <trkpt lat="49.71188" lon="-1.84824">
        <ele>6.6</ele>
        <time>2023-05-18T06:50:48Z</time>
      </trkpt>
      <trkpt lat="49.71189" lon="-1.84855">
        <ele>6.5</ele>
        <time>2023-05-18T06:50:51Z</time>
      </trkpt>
      <trkpt lat="49.71188" lon="-1.84883">
        <ele>6.4</ele>
        <time>2023-05-18T06:50:54Z</time>
      </trkpt>
      <trkpt lat="49.71184" lon="-1.84911">
        <ele>6.3</ele>
        <time>2023-05-18T06:50:57Z</time>
      </trkpt>
      <trkpt lat="49.7118" lon="-1.84938">
        <ele>6.4</ele>
        <time>2023-05-18T06:51:00Z</time>
      </trkpt>
      <trkpt lat="49.71174" lon="-1.84973">
        <ele>6.7</ele>
        <time>2023-05-18T06:51:04Z</time>
      </trkpt>
      <trkpt lat="49.71169" lon="-1.85005">
        <ele>7.1</ele>
        <time>2023-05-18T06:51:08Z</time>
      </trkpt>
      <trkpt lat="49.71164" lon="-1.85036">
        <ele>7.5</ele>
        <time>2023-05-18T06:51:12Z</time>
      </trkpt>
      <trkpt lat="49.71159" lon="-1.85064">
        <ele>7.9</ele>
        <time>2023-05-18T06:51:16Z</time>
      </trkpt>
      <trkpt lat="49.71155" lon="-1.85092">
        <ele>8.5</ele>
        <time>2023-05-18T06:51:20Z</time>
      </trkpt>
      <trkpt lat="49.7115" lon="-1.8512">
        <ele>9.1</ele>
        <time>2023-05-18T06:51:24Z</time>
      </trkpt>
      <trkpt lat="49.71146" lon="-1.85147">
        <ele>9.8</ele>
        <time>2023-05-18T06:51:28Z</time>
      </trkpt>
      <trkpt lat="49.71141" lon="-1.85181">
        <ele>10.8</ele>
        <time>2023-05-18T06:51:33Z</time>
      </trkpt>
      <trkpt lat="49.71135" lon="-1.85211">
        <ele>11.9</ele>
        <time>2023-05-18T06:51:39Z</time>
      </trkpt>
      <trkpt lat="49.71128" lon="-1.85242">
        <ele>13.2</ele>
        <time>2023-05-18T06:51:46Z</time>
      </trkpt>
      <trkpt lat="49.71124" lon="-1.8527">
        <ele>14.5</ele>
        <time>2023-05-18T06:51:52Z</time>
      </trkpt>
      <trkpt lat="49.71118" lon="-1.85297">
        <ele>15.7</ele>
        <time>2023-05-18T06:51:58Z</time>
      </trkpt>
      <trkpt lat="49.71111" lon="-1.85324">
        <ele>17</ele>
        <time>2023-05-18T06:52:04Z</time>
      </trkpt>
      <trkpt lat="49.71102" lon="-1.85352">
        <ele>18.5</ele>
        <time>2023-05-18T06:52:11Z</time>
      </trkpt>
      <trkpt lat="49.71094" lon="-1.85378">
        <ele>19.8</ele>
        <time>2023-05-18T06:52:18Z</time>
      </trkpt>
      <trkpt lat="49.71084" lon="-1.85407">
        <ele>21.1</ele>
        <time>2023-05-18T06:52:25Z</time>
      </trkpt>
      <trkpt lat="49.71076" lon="-1.85431">
        <ele>22.1</ele>
        <time>2023-05-18T06:52:31Z</time>
      </trkpt>
      <trkpt lat="49.71065" lon="-1.85455">
        <ele>23</ele>
        <time>2023-05-18T06:52:37Z</time>
      </trkpt>
      <trkpt lat="49.71053" lon="-1.85478">
        <ele>23.5</ele>
        <time>2023-05-18T06:52:43Z</time>
      </trkpt>
      <trkpt lat="49.71039" lon="-1.85503">
        <ele>23.7</ele>
        <time>2023-05-18T06:52:48Z</time>
      </trkpt>
      <trkpt lat="49.71024" lon="-1.85529">
        <ele>23.7</ele>
        <time>2023-05-18T06:52:53Z</time>
      </trkpt>
      <trkpt lat="49.71011" lon="-1.85554">
        <ele>23.5</ele>
        <time>2023-05-18T06:52:57Z</time>
      </trkpt>
      <trkpt lat="49.70995" lon="-1.85581">
        <ele>23.3</ele>
        <time>2023-05-18T06:53:01Z</time>
      </trkpt>
      <trkpt lat="49.70983" lon="-1.85602">
        <ele>23.2</ele>
        <time>2023-05-18T06:53:04Z</time>
      </trkpt>
      <trkpt lat="49.70966" lon="-1.85626">
        <ele>23.2</ele>
        <time>2023-05-18T06:53:08Z</time>
      </trkpt>
      <trkpt lat="49.7095" lon="-1.85651">
        <ele>23.8</ele>
        <time>2023-05-18T06:53:12Z</time>
      </trkpt>
      <trkpt lat="49.70933" lon="-1.85675">
        <ele>24.7</ele>
        <time>2023-05-18T06:53:17Z</time>
      </trkpt>
      <trkpt lat="49.7092" lon="-1.85696">
        <ele>25.3</ele>
        <time>2023-05-18T06:53:21Z</time>
      </trkpt>
      <trkpt lat="49.70905" lon="-1.85714">
        <ele>25.9</ele>
        <time>2023-05-18T06:53:25Z</time>
      </trkpt>
      <trkpt lat="49.70891" lon="-1.85732">
        <ele>26.3</ele>
        <time>2023-05-18T06:53:29Z</time>
      </trkpt>
      <trkpt lat="49.70876" lon="-1.85758">
        <ele>26.8</ele>
        <time>2023-05-18T06:53:34Z</time>
      </trkpt>
      <trkpt lat="49.70868" lon="-1.85784">
        <ele>27</ele>
        <time>2023-05-18T06:53:38Z</time>
      </trkpt>
      <trkpt lat="49.70865" lon="-1.85815">
        <ele>27.2</ele>
        <time>2023-05-18T06:53:42Z</time>
      </trkpt>
      <trkpt lat="49.70858" lon="-1.85848">
        <ele>27</ele>
        <time>2023-05-18T06:53:46Z</time>
      </trkpt>
      <trkpt lat="49.70848" lon="-1.85879">
        <ele>26.9</ele>
        <time>2023-05-18T06:53:50Z</time>
      </trkpt>
      <trkpt lat="49.7084" lon="-1.85912">
        <ele>26.7</ele>
        <time>2023-05-18T06:53:54Z</time>
      </trkpt>
      <trkpt lat="49.70833" lon="-1.85945">
        <ele>26.7</ele>
        <time>2023-05-18T06:53:58Z</time>
      </trkpt>
      <trkpt lat="49.70827" lon="-1.85979">
        <ele>27</ele>
        <time>2023-05-18T06:54:02Z</time>
      </trkpt>
      <trkpt lat="49.70822" lon="-1.8601">
        <ele>27.5</ele>
        <time>2023-05-18T06:54:06Z</time>
      </trkpt>
      <trkpt lat="49.70817" lon="-1.86038">
        <ele>27.9</ele>
        <time>2023-05-18T06:54:10Z</time>
      </trkpt>
      <trkpt lat="49.70813" lon="-1.86066">
        <ele>28.2</ele>
        <time>2023-05-18T06:54:14Z</time>
      </trkpt>
      <trkpt lat="49.70812" lon="-1.86095">
        <ele>28.4</ele>
        <time>2023-05-18T06:54:18Z</time>
      </trkpt>
      <trkpt lat="49.70816" lon="-1.86127">
        <ele>28</ele>
        <time>2023-05-18T06:54:22Z</time>
      </trkpt>
      <trkpt lat="49.70825" lon="-1.86162">
        <ele>27.3</ele>
        <time>2023-05-18T06:54:26Z</time>
      </trkpt>
      <trkpt lat="49.70831" lon="-1.86191">
        <ele>26.8</ele>
        <time>2023-05-18T06:54:29Z</time>
      </trkpt>
      <trkpt lat="49.70835" lon="-1.86224">
        <ele>26.3</ele>
        <time>2023-05-18T06:54:32Z</time>
      </trkpt>
      <trkpt lat="49.70836" lon="-1.86257">
        <ele>26</ele>
        <time>2023-05-18T06:54:35Z</time>
      </trkpt>
      <trkpt lat="49.70836" lon="-1.8629">
        <ele>25.5</ele>
        <time>2023-05-18T06:54:38Z</time>
      </trkpt>
      <trkpt lat="49.70833" lon="-1.86325">
        <ele>24.9</ele>
        <time>2023-05-18T06:54:41Z</time>
      </trkpt>
      <trkpt lat="49.70825" lon="-1.86358">
        <ele>24.1</ele>
        <time>2023-05-18T06:54:44Z</time>
      </trkpt>
      <trkpt lat="49.70817" lon="-1.86393">
        <ele>23.3</ele>
        <time>2023-05-18T06:54:47Z</time>
      </trkpt>
      <trkpt lat="49.70807" lon="-1.86428">
        <ele>22.5</ele>
        <time>2023-05-18T06:54:50Z</time>
      </trkpt>
      <trkpt lat="49.70799" lon="-1.86464">
        <ele>21.6</ele>
        <time>2023-05-18T06:54:53Z</time>
      </trkpt>
      <trkpt lat="49.70789" lon="-1.86502">
        <ele>20.7</ele>
        <time>2023-05-18T06:54:56Z</time>
      </trkpt>
      <trkpt lat="49.7078" lon="-1.86539">
        <ele>20.3</ele>
        <time>2023-05-18T06:54:59Z</time>
      </trkpt>
      <trkpt lat="49.70771" lon="-1.86576">
        <ele>20.4</ele>
        <time>2023-05-18T06:55:02Z</time>
      </trkpt>
      <trkpt lat="49.70763" lon="-1.86608">
        <ele>20.8</ele>
        <time>2023-05-18T06:55:05Z</time>
      </trkpt>
      <trkpt lat="49.7076" lon="-1.86638">
        <ele>21.1</ele>
        <time>2023-05-18T06:55:08Z</time>
      </trkpt>
      <trkpt lat="49.70758" lon="-1.86668">
        <ele>21.2</ele>
        <time>2023-05-18T06:55:11Z</time>
      </trkpt>
      <trkpt lat="49.70758" lon="-1.86696">
        <ele>21.2</ele>
        <time>2023-05-18T06:55:14Z</time>
      </trkpt>
      <trkpt lat="49.7076" lon="-1.86725">
        <ele>21.3</ele>
        <time>2023-05-18T06:55:17Z</time>
      </trkpt>
      <trkpt lat="49.70761" lon="-1.86755">
        <ele>21.3</ele>
        <time>2023-05-18T06:55:20Z</time>
      </trkpt>
      <trkpt lat="49.70756" lon="-1.86785">
        <ele>21.4</ele>
        <time>2023-05-18T06:55:23Z</time>
      </trkpt>
      <trkpt lat="49.70741" lon="-1.86806">
        <ele>21.6</ele>
        <time>2023-05-18T06:55:26Z</time>
      </trkpt>
      <trkpt lat="49.70725" lon="-1.86821">
        <ele>22.1</ele>
        <time>2023-05-18T06:55:29Z</time>
      </trkpt>
      <trkpt lat="49.70706" lon="-1.86838">
        <ele>22.7</ele>
        <time>2023-05-18T06:55:33Z</time>
      </trkpt>
      <trkpt lat="49.70688" lon="-1.8686">
        <ele>23.2</ele>
        <time>2023-05-18T06:55:37Z</time>
      </trkpt>
      <trkpt lat="49.70674" lon="-1.86886">
        <ele>23.4</ele>
        <time>2023-05-18T06:55:41Z</time>
      </trkpt>
      <trkpt lat="49.70663" lon="-1.86916">
        <ele>23.3</ele>
        <time>2023-05-18T06:55:45Z</time>
      </trkpt>
      <trkpt lat="49.70653" lon="-1.86949">
        <ele>22.6</ele>
        <time>2023-05-18T06:55:49Z</time>
      </trkpt>
      <trkpt lat="49.70645" lon="-1.86976">
        <ele>21.9</ele>
        <time>2023-05-18T06:55:52Z</time>
      </trkpt>
      <trkpt lat="49.70636" lon="-1.87007">
        <ele>20.8</ele>
        <time>2023-05-18T06:55:55Z</time>
      </trkpt>
      <trkpt lat="49.70626" lon="-1.87043">
        <ele>19.6</ele>
        <time>2023-05-18T06:55:58Z</time>
      </trkpt>
      <trkpt lat="49.70615" lon="-1.87081">
        <ele>18.3</ele>
        <time>2023-05-18T06:56:01Z</time>
      </trkpt>
      <trkpt lat="49.70604" lon="-1.87117">
        <ele>17</ele>
        <time>2023-05-18T06:56:04Z</time>
      </trkpt>
      <trkpt lat="49.70593" lon="-1.87155">
        <ele>15.5</ele>
        <time>2023-05-18T06:56:07Z</time>
      </trkpt>
      <trkpt lat="49.70582" lon="-1.87194">
        <ele>14.1</ele>
        <time>2023-05-18T06:56:10Z</time>
      </trkpt>
      <trkpt lat="49.70571" lon="-1.8722">
        <ele>13.1</ele>
        <time>2023-05-18T06:56:12Z</time>
      </trkpt>
      <trkpt lat="49.70555" lon="-1.87239">
        <ele>12.5</ele>
        <time>2023-05-18T06:56:14Z</time>
      </trkpt>
      <trkpt lat="49.70539" lon="-1.87255">
        <ele>12.2</ele>
        <time>2023-05-18T06:56:16Z</time>
      </trkpt>
      <trkpt lat="49.70515" lon="-1.8727">
        <ele>12.2</ele>
        <time>2023-05-18T06:56:19Z</time>
      </trkpt>
      <trkpt lat="49.70492" lon="-1.87282">
        <ele>12.4</ele>
        <time>2023-05-18T06:56:22Z</time>
      </trkpt>
      <trkpt lat="49.70469" lon="-1.87293">
        <ele>12.6</ele>
        <time>2023-05-18T06:56:25Z</time>
      </trkpt>
      <trkpt lat="49.70447" lon="-1.87301">
        <ele>12.6</ele>
        <time>2023-05-18T06:56:28Z</time>
      </trkpt>
      <trkpt lat="49.70425" lon="-1.8731">
        <ele>12.2</ele>
        <time>2023-05-18T06:56:31Z</time>
      </trkpt>
      <trkpt lat="49.70405" lon="-1.8733">
        <ele>11.6</ele>
        <time>2023-05-18T06:56:34Z</time>
      </trkpt>
      <trkpt lat="49.70386" lon="-1.87356">
        <ele>11.2</ele>
        <time>2023-05-18T06:56:37Z</time>
      </trkpt>
      <trkpt lat="49.70368" lon="-1.8738">
        <ele>10.6</ele>
        <time>2023-05-18T06:56:40Z</time>
      </trkpt>
      <trkpt lat="49.70355" lon="-1.87413">
        <ele>9.8</ele>
        <time>2023-05-18T06:56:43Z</time>
      </trkpt>
      <trkpt lat="49.70345" lon="-1.87449">
        <ele>9.1</ele>
        <time>2023-05-18T06:56:46Z</time>
      </trkpt>
      <trkpt lat="49.70331" lon="-1.8748">
        <ele>8.6</ele>
        <time>2023-05-18T06:56:49Z</time>
      </trkpt>
      <trkpt lat="49.7032" lon="-1.87513">
        <ele>8.3</ele>
        <time>2023-05-18T06:56:52Z</time>
      </trkpt>
      <trkpt lat="49.70314" lon="-1.87548">
        <ele>8.2</ele>
        <time>2023-05-18T06:56:55Z</time>
      </trkpt>
      <trkpt lat="49.70311" lon="-1.87582">
        <ele>8.2</ele>
        <time>2023-05-18T06:56:58Z</time>
      </trkpt>
      <trkpt lat="49.7031" lon="-1.87614">
        <ele>8.3</ele>
        <time>2023-05-18T06:57:01Z</time>
      </trkpt>
      <trkpt lat="49.70308" lon="-1.87646">
        <ele>8.4</ele>
        <time>2023-05-18T06:57:04Z</time>
      </trkpt>
      <trkpt lat="49.70307" lon="-1.87677">
        <ele>8.5</ele>
        <time>2023-05-18T06:57:07Z</time>
      </trkpt>
      <trkpt lat="49.70305" lon="-1.87715">
        <ele>8.5</ele>
        <time>2023-05-18T06:57:11Z</time>
      </trkpt>
      <trkpt lat="49.70304" lon="-1.87745">
        <ele>8.4</ele>
        <time>2023-05-18T06:57:14Z</time>
      </trkpt>
      <trkpt lat="49.70302" lon="-1.87777">
        <ele>8.5</ele>
        <time>2023-05-18T06:57:17Z</time>
      </trkpt>
      <trkpt lat="49.703" lon="-1.87806">
        <ele>8.7</ele>
        <time>2023-05-18T06:57:20Z</time>
      </trkpt>
      <trkpt lat="49.70299" lon="-1.87836">
        <ele>8.8</ele>
        <time>2023-05-18T06:57:23Z</time>
      </trkpt>
      <trkpt lat="49.70298" lon="-1.87865">
        <ele>8.9</ele>
        <time>2023-05-18T06:57:26Z</time>
      </trkpt>
      <trkpt lat="49.70299" lon="-1.87897">
        <ele>9</ele>
        <time>2023-05-18T06:57:29Z</time>
      </trkpt>
      <trkpt lat="49.70303" lon="-1.87928">
        <ele>9</ele>
        <time>2023-05-18T06:57:32Z</time>
      </trkpt>
      <trkpt lat="49.70306" lon="-1.87956">
        <ele>9.1</ele>
        <time>2023-05-18T06:57:35Z</time>
      </trkpt>
      <trkpt lat="49.70311" lon="-1.87992">
        <ele>9.1</ele>
        <time>2023-05-18T06:57:39Z</time>
      </trkpt>
      <trkpt lat="49.70319" lon="-1.88022">
        <ele>9.2</ele>
        <time>2023-05-18T06:57:43Z</time>
      </trkpt>
      <trkpt lat="49.7033" lon="-1.88055">
        <ele>9</ele>
        <time>2023-05-18T06:57:47Z</time>
      </trkpt>
      <trkpt lat="49.70339" lon="-1.88082">
        <ele>8.8</ele>
        <time>2023-05-18T06:57:50Z</time>
      </trkpt>
      <trkpt lat="49.70348" lon="-1.8811">
        <ele>8.6</ele>
        <time>2023-05-18T06:57:53Z</time>
      </trkpt>
      <trkpt lat="49.70356" lon="-1.88139">
        <ele>8.4</ele>
        <time>2023-05-18T06:57:56Z</time>
      </trkpt>
      <trkpt lat="49.70364" lon="-1.88167">
        <ele>8.3</ele>
        <time>2023-05-18T06:57:59Z</time>
      </trkpt>
      <trkpt lat="49.70373" lon="-1.88195">
        <ele>8.3</ele>
        <time>2023-05-18T06:58:02Z</time>
      </trkpt>
      <trkpt lat="49.70381" lon="-1.88223">
        <ele>8.3</ele>
        <time>2023-05-18T06:58:05Z</time>
      </trkpt>
      <trkpt lat="49.70389" lon="-1.88252">
        <ele>8.4</ele>
        <time>2023-05-18T06:58:08Z</time>
      </trkpt>
      <trkpt lat="49.70397" lon="-1.8828">
        <ele>8.5</ele>
        <time>2023-05-18T06:58:11Z</time>
      </trkpt>
      <trkpt lat="49.70404" lon="-1.88308">
        <ele>8.4</ele>
        <time>2023-05-18T06:58:14Z</time>
      </trkpt>
      <trkpt lat="49.70409" lon="-1.88335">
        <ele>8.4</ele>
        <time>2023-05-18T06:58:17Z</time>
      </trkpt>
      <trkpt lat="49.70415" lon="-1.88362">
        <ele>8.3</ele>
        <time>2023-05-18T06:58:20Z</time>
      </trkpt>
      <trkpt lat="49.70422" lon="-1.88389">
        <ele>8.4</ele>
        <time>2023-05-18T06:58:23Z</time>
      </trkpt>
      <trkpt lat="49.70431" lon="-1.88423">
        <ele>8.5</ele>
        <time>2023-05-18T06:58:27Z</time>
      </trkpt>
      <trkpt lat="49.70441" lon="-1.88456">
        <ele>8.8</ele>
        <time>2023-05-18T06:58:31Z</time>
      </trkpt>
      <trkpt lat="49.70447" lon="-1.88486">
        <ele>9.1</ele>
        <time>2023-05-18T06:58:35Z</time>
      </trkpt>
      <trkpt lat="49.7045" lon="-1.88518">
        <ele>9.2</ele>
        <time>2023-05-18T06:58:39Z</time>
      </trkpt>
      <trkpt lat="49.70451" lon="-1.88553">
        <ele>9.2</ele>
        <time>2023-05-18T06:58:43Z</time>
      </trkpt>
      <trkpt lat="49.70453" lon="-1.88587">
        <ele>9</ele>
        <time>2023-05-18T06:58:47Z</time>
      </trkpt>
      <trkpt lat="49.70453" lon="-1.88624">
        <ele>8.7</ele>
        <time>2023-05-18T06:58:51Z</time>
      </trkpt>
      <trkpt lat="49.70455" lon="-1.88661">
        <ele>8.1</ele>
        <time>2023-05-18T06:58:55Z</time>
      </trkpt>
      <trkpt lat="49.70455" lon="-1.88693">
        <ele>7.5</ele>
        <time>2023-05-18T06:58:58Z</time>
      </trkpt>
      <trkpt lat="49.70456" lon="-1.88724">
        <ele>7.1</ele>
        <time>2023-05-18T06:59:01Z</time>
      </trkpt>
      <trkpt lat="49.70464" lon="-1.88756">
        <ele>6.8</ele>
        <time>2023-05-18T06:59:04Z</time>
      </trkpt>
      <trkpt lat="49.70478" lon="-1.88783">
        <ele>6.5</ele>
        <time>2023-05-18T06:59:07Z</time>
      </trkpt>
      <trkpt lat="49.70493" lon="-1.88808">
        <ele>6.2</ele>
        <time>2023-05-18T06:59:10Z</time>
      </trkpt>
      <trkpt lat="49.70506" lon="-1.88834">
        <ele>5.9</ele>
        <time>2023-05-18T06:59:13Z</time>
      </trkpt>
      <trkpt lat="49.70521" lon="-1.88857">
        <ele>5.8</ele>
        <time>2023-05-18T06:59:16Z</time>
      </trkpt>
      <trkpt lat="49.70536" lon="-1.88878">
        <ele>5.8</ele>
        <time>2023-05-18T06:59:19Z</time>
      </trkpt>
      <trkpt lat="49.70551" lon="-1.88899">
        <ele>5.9</ele>
        <time>2023-05-18T06:59:22Z</time>
      </trkpt>
      <trkpt lat="49.70566" lon="-1.88915">
        <ele>6.1</ele>
        <time>2023-05-18T06:59:25Z</time>
      </trkpt>
      <trkpt lat="49.70584" lon="-1.88926">
        <ele>6.3</ele>
        <time>2023-05-18T06:59:28Z</time>
      </trkpt>
      <trkpt lat="49.70605" lon="-1.88939">
        <ele>6.2</ele>
        <time>2023-05-18T06:59:32Z</time>
      </trkpt>
      <trkpt lat="49.70627" lon="-1.88954">
        <ele>6.2</ele>
        <time>2023-05-18T06:59:36Z</time>
      </trkpt>
      <trkpt lat="49.70644" lon="-1.88965">
        <ele>6.3</ele>
        <time>2023-05-18T06:59:39Z</time>
      </trkpt>
      <trkpt lat="49.7066" lon="-1.8898">
        <ele>6.3</ele>
        <time>2023-05-18T06:59:42Z</time>
      </trkpt>
      <trkpt lat="49.70675" lon="-1.88997">
        <ele>6.3</ele>
        <time>2023-05-18T06:59:45Z</time>
      </trkpt>
      <trkpt lat="49.70691" lon="-1.89022">
        <ele>6.6</ele>
        <time>2023-05-18T06:59:49Z</time>
      </trkpt>
      <trkpt lat="49.70703" lon="-1.89043">
        <ele>7.1</ele>
        <time>2023-05-18T06:59:53Z</time>
      </trkpt>
      <trkpt lat="49.70717" lon="-1.89066">
        <ele>7.8</ele>
        <time>2023-05-18T06:59:58Z</time>
      </trkpt>
      <trkpt lat="49.70734" lon="-1.89088">
        <ele>8.6</ele>
        <time>2023-05-18T07:00:04Z</time>
      </trkpt>
      <trkpt lat="49.70753" lon="-1.89096">
        <ele>9.3</ele>
        <time>2023-05-18T07:00:09Z</time>
      </trkpt>
      <trkpt lat="49.70772" lon="-1.89103">
        <ele>9.8</ele>
        <time>2023-05-18T07:00:13Z</time>
      </trkpt>
      <trkpt lat="49.7079" lon="-1.89108">
        <ele>10.3</ele>
        <time>2023-05-18T07:00:17Z</time>
      </trkpt>
      <trkpt lat="49.70809" lon="-1.89112">
        <ele>10.7</ele>
        <time>2023-05-18T07:00:21Z</time>
      </trkpt>
      <trkpt lat="49.70829" lon="-1.8912">
        <ele>11.3</ele>
        <time>2023-05-18T07:00:26Z</time>
      </trkpt>
      <trkpt lat="49.70846" lon="-1.89129">
        <ele>11.9</ele>
        <time>2023-05-18T07:00:31Z</time>
      </trkpt>
      <trkpt lat="49.70864" lon="-1.89137">
        <ele>12.7</ele>
        <time>2023-05-18T07:00:37Z</time>
      </trkpt>
      <trkpt lat="49.70881" lon="-1.89155">
        <ele>13.4</ele>
        <time>2023-05-18T07:00:44Z</time>
      </trkpt>
      <trkpt lat="49.70897" lon="-1.89172">
        <ele>13.9</ele>
        <time>2023-05-18T07:00:50Z</time>
      </trkpt>
      <trkpt lat="49.70913" lon="-1.89191">
        <ele>14.3</ele>
        <time>2023-05-18T07:00:55Z</time>
      </trkpt>
      <trkpt lat="49.70926" lon="-1.89211">
        <ele>14.3</ele>
        <time>2023-05-18T07:00:59Z</time>
      </trkpt>
      <trkpt lat="49.70938" lon="-1.89235">
        <ele>14.3</ele>
        <time>2023-05-18T07:01:03Z</time>
      </trkpt>
      <trkpt lat="49.70948" lon="-1.89263">
        <ele>14.6</ele>
        <time>2023-05-18T07:01:07Z</time>
      </trkpt>
      <trkpt lat="49.70953" lon="-1.89293">
        <ele>14.9</ele>
        <time>2023-05-18T07:01:11Z</time>
      </trkpt>
      <trkpt lat="49.70955" lon="-1.89322">
        <ele>15.1</ele>
        <time>2023-05-18T07:01:15Z</time>
      </trkpt>
      <trkpt lat="49.70958" lon="-1.8935">
        <ele>15.1</ele>
        <time>2023-05-18T07:01:19Z</time>
      </trkpt>
      <trkpt lat="49.70964" lon="-1.8938">
        <ele>14.7</ele>
        <time>2023-05-18T07:01:23Z</time>
      </trkpt>
      <trkpt lat="49.70975" lon="-1.89409">
        <ele>14</ele>
        <time>2023-05-18T07:01:27Z</time>
      </trkpt>
      <trkpt lat="49.70985" lon="-1.89433">
        <ele>13.1</ele>
        <time>2023-05-18T07:01:30Z</time>
      </trkpt>
      <trkpt lat="49.70996" lon="-1.89456">
        <ele>12.2</ele>
        <time>2023-05-18T07:01:33Z</time>
      </trkpt>
      <trkpt lat="49.71008" lon="-1.8948">
        <ele>11.2</ele>
        <time>2023-05-18T07:01:36Z</time>
      </trkpt>
      <trkpt lat="49.71022" lon="-1.89498">
        <ele>10.3</ele>
        <time>2023-05-18T07:01:41Z</time>
      </trkpt>
      <trkpt lat="49.71033" lon="-1.89523">
        <ele>9.4</ele>
        <time>2023-05-18T07:04:17Z</time>
      </trkpt>
      <trkpt lat="49.71049" lon="-1.89547">
        <ele>8.3</ele>
        <time>2023-05-18T07:04:22Z</time>
      </trkpt>
      <trkpt lat="49.71068" lon="-1.8957">
        <ele>7.4</ele>
        <time>2023-05-18T07:04:26Z</time>
      </trkpt>
      <trkpt lat="49.71083" lon="-1.89596">
        <ele>6.7</ele>
        <time>2023-05-18T07:04:29Z</time>
      </trkpt>
      <trkpt lat="49.71098" lon="-1.89625">
        <ele>5.9</ele>
        <time>2023-05-18T07:04:32Z</time>
      </trkpt>
      <trkpt lat="49.71114" lon="-1.89654">
        <ele>6.1</ele>
        <time>2023-05-18T07:04:35Z</time>
      </trkpt>
      <trkpt lat="49.71127" lon="-1.89676">
        <ele>6.7</ele>
        <time>2023-05-18T07:04:38Z</time>
      </trkpt>
      <trkpt lat="49.71142" lon="-1.89693">
        <ele>7.7</ele>
        <time>2023-05-18T07:04:42Z</time>
      </trkpt>
      <trkpt lat="49.71158" lon="-1.8971">
        <ele>9</ele>
        <time>2023-05-18T07:04:48Z</time>
      </trkpt>
      <trkpt lat="49.71176" lon="-1.89723">
        <ele>10.5</ele>
        <time>2023-05-18T07:04:56Z</time>
      </trkpt>
      <trkpt lat="49.71192" lon="-1.89739">
        <ele>12.2</ele>
        <time>2023-05-18T07:05:04Z</time>
      </trkpt>
      <trkpt lat="49.71209" lon="-1.89754">
        <ele>14.1</ele>
        <time>2023-05-18T07:05:13Z</time>
      </trkpt>
      <trkpt lat="49.71226" lon="-1.89766">
        <ele>16</ele>
        <time>2023-05-18T07:05:23Z</time>
      </trkpt>
      <trkpt lat="49.71244" lon="-1.89778">
        <ele>17.9</ele>
        <time>2023-05-18T07:05:33Z</time>
      </trkpt>
      <trkpt lat="49.71263" lon="-1.89781">
        <ele>19.8</ele>
        <time>2023-05-18T07:05:43Z</time>
      </trkpt>
      <trkpt lat="49.71282" lon="-1.89779">
        <ele>21.8</ele>
        <time>2023-05-18T07:05:53Z</time>
      </trkpt>
      <trkpt lat="49.71302" lon="-1.89779">
        <ele>23.7</ele>
        <time>2023-05-18T07:06:06Z</time>
      </trkpt>
      <trkpt lat="49.7132" lon="-1.89776">
        <ele>25.6</ele>
        <time>2023-05-18T07:06:17Z</time>
      </trkpt>
      <trkpt lat="49.71339" lon="-1.89775">
        <ele>27.6</ele>
        <time>2023-05-18T07:06:27Z</time>
      </trkpt>
      <trkpt lat="49.71358" lon="-1.89775">
        <ele>29.7</ele>
        <time>2023-05-18T07:06:38Z</time>
      </trkpt>
      <trkpt lat="49.71377" lon="-1.89783">
        <ele>32</ele>
        <time>2023-05-18T07:06:48Z</time>
      </trkpt>
      <trkpt lat="49.71385" lon="-1.89808">
        <ele>34.1</ele>
        <time>2023-05-18T07:06:57Z</time>
      </trkpt>
      <trkpt lat="49.71382" lon="-1.89838">
        <ele>36.1</ele>
        <time>2023-05-18T07:07:07Z</time>
      </trkpt>
      <trkpt lat="49.71375" lon="-1.89865">
        <ele>38</ele>
        <time>2023-05-18T07:07:16Z</time>
      </trkpt>
      <trkpt lat="49.71372" lon="-1.89896">
        <ele>39.9</ele>
        <time>2023-05-18T07:07:26Z</time>
      </trkpt>
      <trkpt lat="49.71374" lon="-1.89926">
        <ele>41.8</ele>
        <time>2023-05-18T07:07:35Z</time>
      </trkpt>
      <trkpt lat="49.71378" lon="-1.89956">
        <ele>43.8</ele>
        <time>2023-05-18T07:07:45Z</time>
      </trkpt>
      <trkpt lat="49.71374" lon="-1.89985">
        <ele>45.5</ele>
        <time>2023-05-18T07:07:54Z</time>
      </trkpt>
      <trkpt lat="49.71366" lon="-1.90013">
        <ele>47.4</ele>
        <time>2023-05-18T07:08:04Z</time>
      </trkpt>
      <trkpt lat="49.71356" lon="-1.90037">
        <ele>49.1</ele>
        <time>2023-05-18T07:08:13Z</time>
      </trkpt>
      <trkpt lat="49.71343" lon="-1.90057">
        <ele>50.9</ele>
        <time>2023-05-18T07:08:22Z</time>
      </trkpt>
      <trkpt lat="49.71324" lon="-1.9007">
        <ele>52.9</ele>
        <time>2023-05-18T07:08:31Z</time>
      </trkpt>
      <trkpt lat="49.71308" lon="-1.90084">
        <ele>54.6</ele>
        <time>2023-05-18T07:08:40Z</time>
      </trkpt>
      <trkpt lat="49.71296" lon="-1.90109">
        <ele>56.7</ele>
        <time>2023-05-18T07:08:50Z</time>
      </trkpt>
      <trkpt lat="49.71294" lon="-1.9014">
        <ele>58.2</ele>
        <time>2023-05-18T07:08:58Z</time>
      </trkpt>
      <trkpt lat="49.71293" lon="-1.90171">
        <ele>59.5</ele>
        <time>2023-05-18T07:09:07Z</time>
      </trkpt>
      <trkpt lat="49.71288" lon="-1.90199">
        <ele>60.9</ele>
        <time>2023-05-18T07:09:15Z</time>
      </trkpt>
      <trkpt lat="49.71287" lon="-1.90229">
        <ele>62.3</ele>
        <time>2023-05-18T07:09:23Z</time>
      </trkpt>
      <trkpt lat="49.71283" lon="-1.90258">
        <ele>63.6</ele>
        <time>2023-05-18T07:09:31Z</time>
      </trkpt>
      <trkpt lat="49.7128" lon="-1.90288">
        <ele>65</ele>
        <time>2023-05-18T07:09:38Z</time>
      </trkpt>
      <trkpt lat="49.71276" lon="-1.90315">
        <ele>65.8</ele>
        <time>2023-05-18T07:09:45Z</time>
      </trkpt>
      <trkpt lat="49.71272" lon="-1.90344">
        <ele>66.6</ele>
        <time>2023-05-18T07:09:52Z</time>
      </trkpt>
      <trkpt lat="49.71268" lon="-1.90375">
        <ele>67.1</ele>
        <time>2023-05-18T07:09:59Z</time>
      </trkpt>
      <trkpt lat="49.71264" lon="-1.90408">
        <ele>67.1</ele>
        <time>2023-05-18T07:10:05Z</time>
      </trkpt>
      <trkpt lat="49.71263" lon="-1.90438">
        <ele>67</ele>
        <time>2023-05-18T07:10:09Z</time>
      </trkpt>
      <trkpt lat="49.71261" lon="-1.90471">
        <ele>66.9</ele>
        <time>2023-05-18T07:10:13Z</time>
      </trkpt>
      <trkpt lat="49.71258" lon="-1.90503">
        <ele>66.9</ele>
        <time>2023-05-18T07:10:17Z</time>
      </trkpt>
      <trkpt lat="49.71255" lon="-1.90532">
        <ele>66.6</ele>
        <time>2023-05-18T07:10:21Z</time>
      </trkpt>
      <trkpt lat="49.7125" lon="-1.90566">
        <ele>66</ele>
        <time>2023-05-18T07:10:25Z</time>
      </trkpt>
      <trkpt lat="49.71241" lon="-1.90594">
        <ele>65.2</ele>
        <time>2023-05-18T07:10:28Z</time>
      </trkpt>
      <trkpt lat="49.7123" lon="-1.90624">
        <ele>64.5</ele>
        <time>2023-05-18T07:10:31Z</time>
      </trkpt>
      <trkpt lat="49.7122" lon="-1.90659">
        <ele>63.9</ele>
        <time>2023-05-18T07:10:34Z</time>
      </trkpt>
      <trkpt lat="49.71212" lon="-1.9069">
        <ele>63.7</ele>
        <time>2023-05-18T07:10:37Z</time>
      </trkpt>
      <trkpt lat="49.71209" lon="-1.90721">
        <ele>63.7</ele>
        <time>2023-05-18T07:10:40Z</time>
      </trkpt>
      <trkpt lat="49.71204" lon="-1.9075">
        <ele>63.9</ele>
        <time>2023-05-18T07:10:43Z</time>
      </trkpt>
      <trkpt lat="49.712" lon="-1.90782">
        <ele>64.5</ele>
        <time>2023-05-18T07:10:47Z</time>
      </trkpt>
      <trkpt lat="49.71196" lon="-1.9081">
        <ele>65.1</ele>
        <time>2023-05-18T07:10:51Z</time>
      </trkpt>
      <trkpt lat="49.71193" lon="-1.90838">
        <ele>65.8</ele>
        <time>2023-05-18T07:10:56Z</time>
      </trkpt>
      <trkpt lat="49.71186" lon="-1.90867">
        <ele>66.6</ele>
        <time>2023-05-18T07:11:01Z</time>
      </trkpt>
      <trkpt lat="49.7118" lon="-1.90894">
        <ele>67.3</ele>
        <time>2023-05-18T07:11:06Z</time>
      </trkpt>
      <trkpt lat="49.7117" lon="-1.90924">
        <ele>67.8</ele>
        <time>2023-05-18T07:11:11Z</time>
      </trkpt>
      <trkpt lat="49.71163" lon="-1.90952">
        <ele>68</ele>
        <time>2023-05-18T07:11:15Z</time>
      </trkpt>
      <trkpt lat="49.71156" lon="-1.90982">
        <ele>68.2</ele>
        <time>2023-05-18T07:11:19Z</time>
      </trkpt>
      <trkpt lat="49.71151" lon="-1.91016">
        <ele>68.7</ele>
        <time>2023-05-18T07:11:24Z</time>
      </trkpt>
      <trkpt lat="49.7115" lon="-1.91048">
        <ele>69.3</ele>
        <time>2023-05-18T07:11:29Z</time>
      </trkpt>
      <trkpt lat="49.71148" lon="-1.91081">
        <ele>70</ele>
        <time>2023-05-18T07:11:34Z</time>
      </trkpt>
      <trkpt lat="49.71143" lon="-1.91114">
        <ele>70</ele>
        <time>2023-05-18T07:11:38Z</time>
      </trkpt>
      <trkpt lat="49.71142" lon="-1.91147">
        <ele>69.9</ele>
        <time>2023-05-18T07:11:42Z</time>
      </trkpt>
      <trkpt lat="49.71142" lon="-1.91185">
        <ele>69.4</ele>
        <time>2023-05-18T07:11:46Z</time>
      </trkpt>
      <trkpt lat="49.71146" lon="-1.91213">
        <ele>69</ele>
        <time>2023-05-18T07:11:49Z</time>
      </trkpt>
      <trkpt lat="49.71151" lon="-1.91241">
        <ele>68.6</ele>
        <time>2023-05-18T07:11:52Z</time>
      </trkpt>
      <trkpt lat="49.71155" lon="-1.9127">
        <ele>68.3</ele>
        <time>2023-05-18T07:11:55Z</time>
      </trkpt>
      <trkpt lat="49.7116" lon="-1.91301">
        <ele>68.1</ele>
        <time>2023-05-18T07:11:58Z</time>
      </trkpt>
      <trkpt lat="49.71165" lon="-1.91332">
        <ele>67.9</ele>
        <time>2023-05-18T07:12:01Z</time>
      </trkpt>
      <trkpt lat="49.71171" lon="-1.91361">
        <ele>67.6</ele>
        <time>2023-05-18T07:12:04Z</time>
      </trkpt>
      <trkpt lat="49.71181" lon="-1.91388">
        <ele>67.1</ele>
        <time>2023-05-18T07:12:07Z</time>
      </trkpt>
      <trkpt lat="49.71195" lon="-1.91416">
        <ele>66.7</ele>
        <time>2023-05-18T07:12:10Z</time>
      </trkpt>
      <trkpt lat="49.71198" lon="-1.91451">
        <ele>66.4</ele>
        <time>2023-05-18T07:12:13Z</time>
      </trkpt>
      <trkpt lat="49.71186" lon="-1.91481">
        <ele>66.3</ele>
        <time>2023-05-18T07:12:16Z</time>
      </trkpt>
      <trkpt lat="49.71173" lon="-1.91505">
        <ele>66.3</ele>
        <time>2023-05-18T07:12:19Z</time>
      </trkpt>
      <trkpt lat="49.71162" lon="-1.91527">
        <ele>66.4</ele>
        <time>2023-05-18T07:12:22Z</time>
      </trkpt>
      <trkpt lat="49.71151" lon="-1.9155">
        <ele>66.6</ele>
        <time>2023-05-18T07:12:25Z</time>
      </trkpt>
      <trkpt lat="49.7114" lon="-1.91576">
        <ele>66.9</ele>
        <time>2023-05-18T07:12:29Z</time>
      </trkpt>
      <trkpt lat="49.71129" lon="-1.91602">
        <ele>66.9</ele>
        <time>2023-05-18T07:12:33Z</time>
      </trkpt>
      <trkpt lat="49.7112" lon="-1.91632">
        <ele>66.7</ele>
        <time>2023-05-18T07:12:37Z</time>
      </trkpt>
      <trkpt lat="49.71111" lon="-1.91659">
        <ele>66.4</ele>
        <time>2023-05-18T07:12:40Z</time>
      </trkpt>
      <trkpt lat="49.71103" lon="-1.91689">
        <ele>66</ele>
        <time>2023-05-18T07:12:43Z</time>
      </trkpt>
      <trkpt lat="49.71095" lon="-1.91716">
        <ele>65.4</ele>
        <time>2023-05-18T07:12:46Z</time>
      </trkpt>
      <trkpt lat="49.71088" lon="-1.91746">
        <ele>64.6</ele>
        <time>2023-05-18T07:12:49Z</time>
      </trkpt>
      <trkpt lat="49.71086" lon="-1.91779">
        <ele>63.4</ele>
        <time>2023-05-18T07:12:52Z</time>
      </trkpt>
      <trkpt lat="49.71084" lon="-1.91817">
        <ele>61.7</ele>
        <time>2023-05-18T07:12:55Z</time>
      </trkpt>
      <trkpt lat="49.71084" lon="-1.91858">
        <ele>60</ele>
        <time>2023-05-18T07:12:58Z</time>
      </trkpt>
      <trkpt lat="49.71081" lon="-1.91887">
        <ele>58.9</ele>
        <time>2023-05-18T07:13:00Z</time>
      </trkpt>
      <trkpt lat="49.7108" lon="-1.91915">
        <ele>57.5</ele>
        <time>2023-05-18T07:13:02Z</time>
      </trkpt>
      <trkpt lat="49.71088" lon="-1.91941">
        <ele>56.1</ele>
        <time>2023-05-18T07:13:04Z</time>
      </trkpt>
      <trkpt lat="49.71096" lon="-1.91969">
        <ele>54.7</ele>
        <time>2023-05-18T07:13:06Z</time>
      </trkpt>
      <trkpt lat="49.71103" lon="-1.91997">
        <ele>53.8</ele>
        <time>2023-05-18T07:13:08Z</time>
      </trkpt>
      <trkpt lat="49.71106" lon="-1.92026">
        <ele>53.2</ele>
        <time>2023-05-18T07:13:10Z</time>
      </trkpt>
      <trkpt lat="49.71103" lon="-1.92055">
        <ele>53.5</ele>
        <time>2023-05-18T07:13:12Z</time>
      </trkpt>
      <trkpt lat="49.71095" lon="-1.92089">
        <ele>54.2</ele>
        <time>2023-05-18T07:13:15Z</time>
      </trkpt>
      <trkpt lat="49.71091" lon="-1.92118">
        <ele>54.8</ele>
        <time>2023-05-18T07:13:18Z</time>
      </trkpt>
      <trkpt lat="49.71098" lon="-1.92148">
        <ele>55.3</ele>
        <time>2023-05-18T07:13:22Z</time>
      </trkpt>
      <trkpt lat="49.71111" lon="-1.92174">
        <ele>55.5</ele>
        <time>2023-05-18T07:13:26Z</time>
      </trkpt>
      <trkpt lat="49.71127" lon="-1.922">
        <ele>55.7</ele>
        <time>2023-05-18T07:13:30Z</time>
      </trkpt>
      <trkpt lat="49.7112" lon="-1.92233">
        <ele>55.4</ele>
        <time>2023-05-18T07:13:34Z</time>
      </trkpt>
      <trkpt lat="49.71106" lon="-1.92261">
        <ele>55.1</ele>
        <time>2023-05-18T07:13:37Z</time>
      </trkpt>
      <trkpt lat="49.71106" lon="-1.92296">
        <ele>55.1</ele>
        <time>2023-05-18T07:13:40Z</time>
      </trkpt>
      <trkpt lat="49.71117" lon="-1.92326">
        <ele>55.4</ele>
        <time>2023-05-18T07:13:43Z</time>
      </trkpt>
      <trkpt lat="49.71127" lon="-1.92357">
        <ele>56.1</ele>
        <time>2023-05-18T07:13:47Z</time>
      </trkpt>
      <trkpt lat="49.71125" lon="-1.92385">
        <ele>56.8</ele>
        <time>2023-05-18T07:13:52Z</time>
      </trkpt>
      <trkpt lat="49.71125" lon="-1.92414">
        <ele>57.3</ele>
        <time>2023-05-18T07:13:57Z</time>
      </trkpt>
      <trkpt lat="49.71128" lon="-1.92448">
        <ele>57.4</ele>
        <time>2023-05-18T07:14:02Z</time>
      </trkpt>
      <trkpt lat="49.71131" lon="-1.92482">
        <ele>57</ele>
        <time>2023-05-18T07:14:06Z</time>
      </trkpt>
      <trkpt lat="49.71134" lon="-1.92511">
        <ele>56.7</ele>
        <time>2023-05-18T07:14:09Z</time>
      </trkpt>
      <trkpt lat="49.71137" lon="-1.92541">
        <ele>56.4</ele>
        <time>2023-05-18T07:14:12Z</time>
      </trkpt>
      <trkpt lat="49.7114" lon="-1.92572">
        <ele>56.3</ele>
        <time>2023-05-18T07:14:15Z</time>
      </trkpt>
      <trkpt lat="49.71144" lon="-1.92603">
        <ele>56.3</ele>
        <time>2023-05-18T07:14:18Z</time>
      </trkpt>
      <trkpt lat="49.71149" lon="-1.92634">
        <ele>56.5</ele>
        <time>2023-05-18T07:14:21Z</time>
      </trkpt>
      <trkpt lat="49.71153" lon="-1.92663">
        <ele>56.8</ele>
        <time>2023-05-18T07:14:24Z</time>
      </trkpt>
      <trkpt lat="49.71157" lon="-1.92692">
        <ele>57</ele>
        <time>2023-05-18T07:14:27Z</time>
      </trkpt>
      <trkpt lat="49.71161" lon="-1.9272">
        <ele>56.8</ele>
        <time>2023-05-18T07:14:30Z</time>
      </trkpt>
      <trkpt lat="49.71168" lon="-1.92748">
        <ele>56.4</ele>
        <time>2023-05-18T07:14:33Z</time>
      </trkpt>
      <trkpt lat="49.71177" lon="-1.92775">
        <ele>55.6</ele>
        <time>2023-05-18T07:14:36Z</time>
      </trkpt>
      <trkpt lat="49.71186" lon="-1.92806">
        <ele>54.7</ele>
        <time>2023-05-18T07:14:39Z</time>
      </trkpt>
      <trkpt lat="49.71196" lon="-1.92837">
        <ele>53.6</ele>
        <time>2023-05-18T07:14:42Z</time>
      </trkpt>
      <trkpt lat="49.71206" lon="-1.92869">
        <ele>52.6</ele>
        <time>2023-05-18T07:14:45Z</time>
      </trkpt>
      <trkpt lat="49.71215" lon="-1.92903">
        <ele>51.7</ele>
        <time>2023-05-18T07:14:48Z</time>
      </trkpt>
      <trkpt lat="49.71224" lon="-1.92937">
        <ele>51</ele>
        <time>2023-05-18T07:14:51Z</time>
      </trkpt>
      <trkpt lat="49.71219" lon="-1.92974">
        <ele>50.4</ele>
        <time>2023-05-18T07:14:54Z</time>
      </trkpt>
      <trkpt lat="49.71211" lon="-1.93">
        <ele>50.3</ele>
        <time>2023-05-18T07:14:56Z</time>
      </trkpt>
      <trkpt lat="49.71202" lon="-1.93033">
        <ele>50.7</ele>
        <time>2023-05-18T07:14:59Z</time>
      </trkpt>
      <trkpt lat="49.71199" lon="-1.93061">
        <ele>51.5</ele>
        <time>2023-05-18T07:15:02Z</time>
      </trkpt>
      <trkpt lat="49.71201" lon="-1.93092">
        <ele>52.6</ele>
        <time>2023-05-18T07:15:06Z</time>
      </trkpt>
      <trkpt lat="49.71208" lon="-1.93121">
        <ele>53.9</ele>
        <time>2023-05-18T07:15:11Z</time>
      </trkpt>
      <trkpt lat="49.71225" lon="-1.93133">
        <ele>54.6</ele>
        <time>2023-05-18T07:15:19Z</time>
      </trkpt>
      <trkpt lat="49.7124" lon="-1.93112">
        <ele>53.6</ele>
        <time>2023-05-18T07:15:23Z</time>
      </trkpt>
      <trkpt lat="49.71255" lon="-1.93096">
        <ele>52.5</ele>
        <time>2023-05-18T07:15:26Z</time>
      </trkpt>
      <trkpt lat="49.71273" lon="-1.9308">
        <ele>50.8</ele>
        <time>2023-05-18T07:15:29Z</time>
      </trkpt>
      <trkpt lat="49.71297" lon="-1.93068">
        <ele>48.3</ele>
        <time>2023-05-18T07:15:32Z</time>
      </trkpt>
      <trkpt lat="49.71322" lon="-1.93059">
        <ele>47.1</ele>
        <time>2023-05-18T07:15:35Z</time>
      </trkpt>
      <trkpt lat="49.7134" lon="-1.93068">
        <ele>45.9</ele>
        <time>2023-05-18T07:15:37Z</time>
      </trkpt>
      <trkpt lat="49.71357" lon="-1.931">
        <ele>44.2</ele>
        <time>2023-05-18T07:15:40Z</time>
      </trkpt>
      <trkpt lat="49.71365" lon="-1.93127">
        <ele>43.1</ele>
        <time>2023-05-18T07:15:42Z</time>
      </trkpt>
      <trkpt lat="49.71374" lon="-1.93153">
        <ele>42.2</ele>
        <time>2023-05-18T07:15:44Z</time>
      </trkpt>
      <trkpt lat="49.71382" lon="-1.93179">
        <ele>41.5</ele>
        <time>2023-05-18T07:15:46Z</time>
      </trkpt>
      <trkpt lat="49.71393" lon="-1.93216">
        <ele>40.8</ele>
        <time>2023-05-18T07:15:49Z</time>
      </trkpt>
      <trkpt lat="49.71403" lon="-1.93253">
        <ele>39.7</ele>
        <time>2023-05-18T07:15:52Z</time>
      </trkpt>
      <trkpt lat="49.71415" lon="-1.93289">
        <ele>38.4</ele>
        <time>2023-05-18T07:15:55Z</time>
      </trkpt>
      <trkpt lat="49.71423" lon="-1.93315">
        <ele>37.4</ele>
        <time>2023-05-18T07:15:57Z</time>
      </trkpt>
      <trkpt lat="49.7143" lon="-1.93341">
        <ele>36.5</ele>
        <time>2023-05-18T07:15:59Z</time>
      </trkpt>
      <trkpt lat="49.71439" lon="-1.93366">
        <ele>35.6</ele>
        <time>2023-05-18T07:16:01Z</time>
      </trkpt>
      <trkpt lat="49.71446" lon="-1.93391">
        <ele>34.8</ele>
        <time>2023-05-18T07:16:03Z</time>
      </trkpt>
      <trkpt lat="49.71455" lon="-1.93416">
        <ele>33.9</ele>
        <time>2023-05-18T07:16:05Z</time>
      </trkpt>
      <trkpt lat="49.71463" lon="-1.93442">
        <ele>33.1</ele>
        <time>2023-05-18T07:16:07Z</time>
      </trkpt>
      <trkpt lat="49.71471" lon="-1.93467">
        <ele>32.2</ele>
        <time>2023-05-18T07:16:09Z</time>
      </trkpt>
      <trkpt lat="49.7148" lon="-1.93492">
        <ele>31.3</ele>
        <time>2023-05-18T07:16:11Z</time>
      </trkpt>
      <trkpt lat="49.71489" lon="-1.93517">
        <ele>30.4</ele>
        <time>2023-05-18T07:16:13Z</time>
      </trkpt>
      <trkpt lat="49.71499" lon="-1.93541">
        <ele>29.5</ele>
        <time>2023-05-18T07:16:15Z</time>
      </trkpt>
      <trkpt lat="49.71509" lon="-1.93566">
        <ele>28.4</ele>
        <time>2023-05-18T07:16:17Z</time>
      </trkpt>
      <trkpt lat="49.71519" lon="-1.9359">
        <ele>27.4</ele>
        <time>2023-05-18T07:16:19Z</time>
      </trkpt>
      <trkpt lat="49.71528" lon="-1.93616">
        <ele>26.4</ele>
        <time>2023-05-18T07:16:21Z</time>
      </trkpt>
      <trkpt lat="49.71537" lon="-1.93642">
        <ele>25.3</ele>
        <time>2023-05-18T07:16:23Z</time>
      </trkpt>
      <trkpt lat="49.71545" lon="-1.93669">
        <ele>24.1</ele>
        <time>2023-05-18T07:16:25Z</time>
      </trkpt>
      <trkpt lat="49.71551" lon="-1.93699">
        <ele>22.8</ele>
        <time>2023-05-18T07:16:27Z</time>
      </trkpt>
      <trkpt lat="49.71558" lon="-1.93729">
        <ele>21.5</ele>
        <time>2023-05-18T07:16:29Z</time>
      </trkpt>
      <trkpt lat="49.71563" lon="-1.93759">
        <ele>20.2</ele>
        <time>2023-05-18T07:16:31Z</time>
      </trkpt>
      <trkpt lat="49.71569" lon="-1.9379">
        <ele>18.9</ele>
        <time>2023-05-18T07:16:33Z</time>
      </trkpt>
      <trkpt lat="49.71573" lon="-1.93822">
        <ele>17.5</ele>
        <time>2023-05-18T07:16:35Z</time>
      </trkpt>
      <trkpt lat="49.71576" lon="-1.93854">
        <ele>16.2</ele>
        <time>2023-05-18T07:16:37Z</time>
      </trkpt>
      <trkpt lat="49.71579" lon="-1.93887">
        <ele>15</ele>
        <time>2023-05-18T07:16:39Z</time>
      </trkpt>
      <trkpt lat="49.71582" lon="-1.9392">
        <ele>13.7</ele>
        <time>2023-05-18T07:16:41Z</time>
      </trkpt>
      <trkpt lat="49.71584" lon="-1.93953">
        <ele>12.5</ele>
        <time>2023-05-18T07:16:43Z</time>
      </trkpt>
      <trkpt lat="49.71586" lon="-1.93985">
        <ele>11.3</ele>
        <time>2023-05-18T07:16:45Z</time>
      </trkpt>
      <trkpt lat="49.71588" lon="-1.94017">
        <ele>10.4</ele>
        <time>2023-05-18T07:16:47Z</time>
      </trkpt>
      <trkpt lat="49.71589" lon="-1.94046">
        <ele>9.6</ele>
        <time>2023-05-18T07:16:49Z</time>
      </trkpt>
      <trkpt lat="49.71591" lon="-1.94076">
        <ele>8.8</ele>
        <time>2023-05-18T07:16:51Z</time>
      </trkpt>
      <trkpt lat="49.71592" lon="-1.94104">
        <ele>8.1</ele>
        <time>2023-05-18T07:16:53Z</time>
      </trkpt>
      <trkpt lat="49.71594" lon="-1.94145">
        <ele>7.3</ele>
        <time>2023-05-18T07:16:56Z</time>
      </trkpt>
      <trkpt lat="49.71594" lon="-1.94173">
        <ele>6.6</ele>
        <time>2023-05-18T07:16:58Z</time>
      </trkpt>
      <trkpt lat="49.71594" lon="-1.94215">
        <ele>5.7</ele>
        <time>2023-05-18T07:17:01Z</time>
      </trkpt>
      <trkpt lat="49.71595" lon="-1.94254">
        <ele>5.1</ele>
        <time>2023-05-18T07:17:04Z</time>
      </trkpt>
      <trkpt lat="49.71594" lon="-1.94292">
        <ele>4.6</ele>
        <time>2023-05-18T07:17:07Z</time>
      </trkpt>
      <trkpt lat="49.71593" lon="-1.9433">
        <ele>4.2</ele>
        <time>2023-05-18T07:17:10Z</time>
      </trkpt>
      <trkpt lat="49.71592" lon="-1.94366">
        <ele>3.9</ele>
        <time>2023-05-18T07:17:13Z</time>
      </trkpt>
      <trkpt lat="49.7159" lon="-1.944">
        <ele>3.8</ele>
        <time>2023-05-18T07:17:16Z</time>
      </trkpt>
      <trkpt lat="49.71587" lon="-1.94434">
        <ele>3.6</ele>
        <time>2023-05-18T07:17:19Z</time>
      </trkpt>
      <trkpt lat="49.71585" lon="-1.94466">
        <ele>3.4</ele>
        <time>2023-05-18T07:17:22Z</time>
      </trkpt>
      <trkpt lat="49.71582" lon="-1.94498">
        <ele>3.2</ele>
        <time>2023-05-18T07:17:26Z</time>
      </trkpt>
      <trkpt lat="49.71563" lon="-1.94488">
        <ele>3.4</ele>
        <time>2023-05-18T07:17:33Z</time>
      </trkpt>
      <trkpt lat="49.71552" lon="-1.94462">
        <ele>3.5</ele>
        <time>2023-05-18T07:17:40Z</time>
      </trkpt>
      <trkpt lat="49.7154" lon="-1.94436">
        <ele>3.7</ele>
        <time>2023-05-18T07:17:46Z</time>
      </trkpt>
      <trkpt lat="49.71529" lon="-1.94409">
        <ele>4</ele>
        <time>2023-05-18T07:17:52Z</time>
      </trkpt>
      <trkpt lat="49.71516" lon="-1.94386">
        <ele>4.1</ele>
        <time>2023-05-18T07:17:57Z</time>
      </trkpt>
      <trkpt lat="49.71502" lon="-1.94364">
        <ele>4.4</ele>
        <time>2023-05-18T07:18:02Z</time>
      </trkpt>
      <trkpt lat="49.71487" lon="-1.94346">
        <ele>4.7</ele>
        <time>2023-05-18T07:18:07Z</time>
      </trkpt>
      <trkpt lat="49.71468" lon="-1.94332">
        <ele>4.9</ele>
        <time>2023-05-18T07:21:23Z</time>
      </trkpt>
      <trkpt lat="49.71448" lon="-1.94327">
        <ele>5.1</ele>
        <time>2023-05-18T07:21:29Z</time>
      </trkpt>
      <trkpt lat="49.71429" lon="-1.94327">
        <ele>5.3</ele>
        <time>2023-05-18T07:21:34Z</time>
      </trkpt>
      <trkpt lat="49.7141" lon="-1.94328">
        <ele>5.4</ele>
        <time>2023-05-18T07:21:38Z</time>
      </trkpt>
      <trkpt lat="49.71391" lon="-1.9433">
        <ele>5.5</ele>
        <time>2023-05-18T07:21:42Z</time>
      </trkpt>
      <trkpt lat="49.71372" lon="-1.94333">
        <ele>5.5</ele>
        <time>2023-05-18T07:21:46Z</time>
      </trkpt>
      <trkpt lat="49.71352" lon="-1.94336">
        <ele>5.4</ele>
        <time>2023-05-18T07:21:50Z</time>
      </trkpt>
      <trkpt lat="49.71336" lon="-1.9432">
        <ele>5.4</ele>
        <time>2023-05-18T07:21:55Z</time>
      </trkpt>
      <trkpt lat="49.71336" lon="-1.94286">
        <ele>5.6</ele>
        <time>2023-05-18T07:22:00Z</time>
      </trkpt>
      <trkpt lat="49.71332" lon="-1.94257">
        <ele>6</ele>
        <time>2023-05-18T07:22:05Z</time>
      </trkpt>
      <trkpt lat="49.71327" lon="-1.94229">
        <ele>6.6</ele>
        <time>2023-05-18T07:22:10Z</time>
      </trkpt>
      <trkpt lat="49.71315" lon="-1.94204">
        <ele>7.3</ele>
        <time>2023-05-18T07:22:16Z</time>
      </trkpt>
      <trkpt lat="49.71296" lon="-1.94221">
        <ele>8</ele>
        <time>2023-05-18T07:22:21Z</time>
      </trkpt>
      <trkpt lat="49.7128" lon="-1.94238">
        <ele>7.9</ele>
        <time>2023-05-18T07:22:25Z</time>
      </trkpt>
      <trkpt lat="49.71261" lon="-1.94256">
        <ele>7.7</ele>
        <time>2023-05-18T07:22:29Z</time>
      </trkpt>
      <trkpt lat="49.71241" lon="-1.94272">
        <ele>7.6</ele>
        <time>2023-05-18T07:22:33Z</time>
      </trkpt>
      <trkpt lat="49.7122" lon="-1.94289">
        <ele>7.7</ele>
        <time>2023-05-18T07:22:37Z</time>
      </trkpt>
      <trkpt lat="49.71199" lon="-1.94305">
        <ele>7.9</ele>
        <time>2023-05-18T07:22:41Z</time>
      </trkpt>
      <trkpt lat="49.71178" lon="-1.9432">
        <ele>8</ele>
        <time>2023-05-18T07:22:45Z</time>
      </trkpt>
      <trkpt lat="49.71162" lon="-1.94331">
        <ele>8.2</ele>
        <time>2023-05-18T07:22:48Z</time>
      </trkpt>
      <trkpt lat="49.71145" lon="-1.9434">
        <ele>8.3</ele>
        <time>2023-05-18T07:22:51Z</time>
      </trkpt>
      <trkpt lat="49.71123" lon="-1.94353">
        <ele>8.5</ele>
        <time>2023-05-18T07:22:55Z</time>
      </trkpt>
      <trkpt lat="49.71101" lon="-1.94361">
        <ele>8.8</ele>
        <time>2023-05-18T07:22:59Z</time>
      </trkpt>
      <trkpt lat="49.71079" lon="-1.94372">
        <ele>9.1</ele>
        <time>2023-05-18T07:23:03Z</time>
      </trkpt>
      <trkpt lat="49.71058" lon="-1.94384">
        <ele>9.5</ele>
        <time>2023-05-18T07:23:07Z</time>
      </trkpt>
      <trkpt lat="49.71039" lon="-1.94398">
        <ele>10</ele>
        <time>2023-05-18T07:23:11Z</time>
      </trkpt>
      <trkpt lat="49.7102" lon="-1.94412">
        <ele>10.5</ele>
        <time>2023-05-18T07:23:15Z</time>
      </trkpt>
      <trkpt lat="49.71003" lon="-1.94425">
        <ele>11</ele>
        <time>2023-05-18T07:23:19Z</time>
      </trkpt>
      <trkpt lat="49.70985" lon="-1.94441">
        <ele>12</ele>
        <time>2023-05-18T07:23:24Z</time>
      </trkpt>
      <trkpt lat="49.70968" lon="-1.94455">
        <ele>13</ele>
        <time>2023-05-18T07:23:29Z</time>
      </trkpt>
      <trkpt lat="49.70949" lon="-1.94469">
        <ele>13.6</ele>
        <time>2023-05-18T07:23:34Z</time>
      </trkpt>
      <trkpt lat="49.70931" lon="-1.94484">
        <ele>14.2</ele>
        <time>2023-05-18T07:23:39Z</time>
      </trkpt>
      <trkpt lat="49.70913" lon="-1.94491">
        <ele>14.8</ele>
        <time>2023-05-18T07:23:44Z</time>
      </trkpt>
      <trkpt lat="49.70895" lon="-1.94504">
        <ele>15.2</ele>
        <time>2023-05-18T07:23:49Z</time>
      </trkpt>
      <trkpt lat="49.70885" lon="-1.94481">
        <ele>16</ele>
        <time>2023-05-18T07:24:33Z</time>
      </trkpt>
      <trkpt lat="49.70889" lon="-1.94451">
        <ele>16.6</ele>
        <time>2023-05-18T07:24:41Z</time>
      </trkpt>
      <trkpt lat="49.7088" lon="-1.94424">
        <ele>18.3</ele>
        <time>2023-05-18T07:24:48Z</time>
      </trkpt>
      <trkpt lat="49.70868" lon="-1.944">
        <ele>20.4</ele>
        <time>2023-05-18T07:24:58Z</time>
      </trkpt>
      <trkpt lat="49.70854" lon="-1.94379">
        <ele>21.4</ele>
        <time>2023-05-18T07:25:05Z</time>
      </trkpt>
      <trkpt lat="49.70839" lon="-1.94358">
        <ele>22.4</ele>
        <time>2023-05-18T07:25:12Z</time>
      </trkpt>
      <trkpt lat="49.70829" lon="-1.94333">
        <ele>23.6</ele>
        <time>2023-05-18T07:25:20Z</time>
      </trkpt>
      <trkpt lat="49.70819" lon="-1.94308">
        <ele>25.2</ele>
        <time>2023-05-18T07:25:28Z</time>
      </trkpt>
      <trkpt lat="49.70805" lon="-1.94288">
        <ele>26.8</ele>
        <time>2023-05-18T07:25:37Z</time>
      </trkpt>
      <trkpt lat="49.70791" lon="-1.94268">
        <ele>28.4</ele>
        <time>2023-05-18T07:25:46Z</time>
      </trkpt>
      <trkpt lat="49.70778" lon="-1.94249">
        <ele>29.6</ele>
        <time>2023-05-18T07:25:54Z</time>
      </trkpt>
      <trkpt lat="49.70767" lon="-1.94226">
        <ele>30.7</ele>
        <time>2023-05-18T07:26:02Z</time>
      </trkpt>
      <trkpt lat="49.70751" lon="-1.94207">
        <ele>31.8</ele>
        <time>2023-05-18T07:26:11Z</time>
      </trkpt>
      <trkpt lat="49.70734" lon="-1.94191">
        <ele>32.5</ele>
        <time>2023-05-18T07:26:18Z</time>
      </trkpt>
      <trkpt lat="49.70716" lon="-1.94177">
        <ele>32.8</ele>
        <time>2023-05-18T07:26:23Z</time>
      </trkpt>
      <trkpt lat="49.70704" lon="-1.94153">
        <ele>33.1</ele>
        <time>2023-05-18T07:26:28Z</time>
      </trkpt>
      <trkpt lat="49.70705" lon="-1.94124">
        <ele>33.6</ele>
        <time>2023-05-18T07:26:33Z</time>
      </trkpt>
      <trkpt lat="49.70707" lon="-1.94096">
        <ele>34.4</ele>
        <time>2023-05-18T07:26:39Z</time>
      </trkpt>
      <trkpt lat="49.70712" lon="-1.94068">
        <ele>35.5</ele>
        <time>2023-05-18T07:26:47Z</time>
      </trkpt>
      <trkpt lat="49.70712" lon="-1.9404">
        <ele>36.7</ele>
        <time>2023-05-18T07:26:54Z</time>
      </trkpt>
      <trkpt lat="49.70702" lon="-1.94013">
        <ele>37.9</ele>
        <time>2023-05-18T07:27:01Z</time>
      </trkpt>
      <trkpt lat="49.70693" lon="-1.93989">
        <ele>39.1</ele>
        <time>2023-05-18T07:27:09Z</time>
      </trkpt>
      <trkpt lat="49.7068" lon="-1.93967">
        <ele>40.7</ele>
        <time>2023-05-18T07:27:16Z</time>
      </trkpt>
      <trkpt lat="49.70666" lon="-1.93946">
        <ele>42.5</ele>
        <time>2023-05-18T07:27:24Z</time>
      </trkpt>
      <trkpt lat="49.70655" lon="-1.93922">
        <ele>45.3</ele>
        <time>2023-05-18T07:27:33Z</time>
      </trkpt>
      <trkpt lat="49.70637" lon="-1.93921">
        <ele>48.1</ele>
        <time>2023-05-18T07:27:47Z</time>
      </trkpt>
      <trkpt lat="49.70615" lon="-1.93934">
        <ele>52</ele>
        <time>2023-05-18T07:28:08Z</time>
      </trkpt>
      <trkpt lat="49.70601" lon="-1.93952">
        <ele>55.2</ele>
        <time>2023-05-18T07:28:28Z</time>
      </trkpt>
      <trkpt lat="49.70594" lon="-1.93979">
        <ele>57.9</ele>
        <time>2023-05-18T07:28:45Z</time>
      </trkpt>
      <trkpt lat="49.70585" lon="-1.94004">
        <ele>59.8</ele>
        <time>2023-05-18T07:29:03Z</time>
      </trkpt>
      <trkpt lat="49.70566" lon="-1.94">
        <ele>61.1</ele>
        <time>2023-05-18T07:30:02Z</time>
      </trkpt>
      <trkpt lat="49.70548" lon="-1.93996">
        <ele>62.3</ele>
        <time>2023-05-18T07:30:17Z</time>
      </trkpt>
      <trkpt lat="49.70529" lon="-1.93993">
        <ele>63.1</ele>
        <time>2023-05-18T07:30:46Z</time>
      </trkpt>
      <trkpt lat="49.7051" lon="-1.93997">
        <ele>63.9</ele>
        <time>2023-05-18T07:30:55Z</time>
      </trkpt>
      <trkpt lat="49.70492" lon="-1.9401">
        <ele>65.1</ele>
        <time>2023-05-18T07:31:04Z</time>
      </trkpt>
      <trkpt lat="49.70475" lon="-1.94021">
        <ele>66.3</ele>
        <time>2023-05-18T07:31:13Z</time>
      </trkpt>
      <trkpt lat="49.70457" lon="-1.9403">
        <ele>67.2</ele>
        <time>2023-05-18T07:31:20Z</time>
      </trkpt>
      <trkpt lat="49.7044" lon="-1.94038">
        <ele>67.8</ele>
        <time>2023-05-18T07:31:27Z</time>
      </trkpt>
      <trkpt lat="49.70423" lon="-1.94049">
        <ele>68.4</ele>
        <time>2023-05-18T07:31:35Z</time>
      </trkpt>
      <trkpt lat="49.70404" lon="-1.94059">
        <ele>69.1</ele>
        <time>2023-05-18T07:31:45Z</time>
      </trkpt>
      <trkpt lat="49.70386" lon="-1.94067">
        <ele>69.7</ele>
        <time>2023-05-18T07:31:54Z</time>
      </trkpt>
      <trkpt lat="49.70367" lon="-1.94071">
        <ele>70.3</ele>
        <time>2023-05-18T07:33:12Z</time>
      </trkpt>
      <trkpt lat="49.70346" lon="-1.9407">
        <ele>70.5</ele>
        <time>2023-05-18T07:33:20Z</time>
      </trkpt>
      <trkpt lat="49.70327" lon="-1.94064">
        <ele>70.6</ele>
        <time>2023-05-18T07:33:26Z</time>
      </trkpt>
      <trkpt lat="49.7031" lon="-1.94056">
        <ele>70.8</ele>
        <time>2023-05-18T07:33:32Z</time>
      </trkpt>
      <trkpt lat="49.70291" lon="-1.94044">
        <ele>71.1</ele>
        <time>2023-05-18T07:33:38Z</time>
      </trkpt>
      <trkpt lat="49.70271" lon="-1.94034">
        <ele>71.4</ele>
        <time>2023-05-18T07:33:44Z</time>
      </trkpt>
      <trkpt lat="49.70253" lon="-1.94025">
        <ele>71.8</ele>
        <time>2023-05-18T07:33:49Z</time>
      </trkpt>
      <trkpt lat="49.70236" lon="-1.94017">
        <ele>72.3</ele>
        <time>2023-05-18T07:33:54Z</time>
      </trkpt>
      <trkpt lat="49.70219" lon="-1.94009">
        <ele>73</ele>
        <time>2023-05-18T07:34:00Z</time>
      </trkpt>
      <trkpt lat="49.702" lon="-1.93999">
        <ele>74.2</ele>
        <time>2023-05-18T07:34:07Z</time>
      </trkpt>
      <trkpt lat="49.70182" lon="-1.94">
        <ele>75.4</ele>
        <time>2023-05-18T07:34:15Z</time>
      </trkpt>
      <trkpt lat="49.70165" lon="-1.94017">
        <ele>76.2</ele>
        <time>2023-05-18T07:34:23Z</time>
      </trkpt>
      <trkpt lat="49.70144" lon="-1.94011">
        <ele>76.1</ele>
        <time>2023-05-18T07:34:30Z</time>
      </trkpt>
      <trkpt lat="49.70125" lon="-1.94005">
        <ele>75.4</ele>
        <time>2023-05-18T07:34:35Z</time>
      </trkpt>
      <trkpt lat="49.70103" lon="-1.93997">
        <ele>74.6</ele>
        <time>2023-05-18T07:34:40Z</time>
      </trkpt>
      <trkpt lat="49.70084" lon="-1.93988">
        <ele>74.3</ele>
        <time>2023-05-18T07:34:44Z</time>
      </trkpt>
      <trkpt lat="49.70067" lon="-1.93976">
        <ele>74.4</ele>
        <time>2023-05-18T07:34:48Z</time>
      </trkpt>
      <trkpt lat="49.70046" lon="-1.93968">
        <ele>75.2</ele>
        <time>2023-05-18T07:34:53Z</time>
      </trkpt>
      <trkpt lat="49.70027" lon="-1.93956">
        <ele>76.8</ele>
        <time>2023-05-18T07:34:59Z</time>
      </trkpt>
      <trkpt lat="49.70009" lon="-1.93939">
        <ele>78.6</ele>
        <time>2023-05-18T07:35:06Z</time>
      </trkpt>
      <trkpt lat="49.69993" lon="-1.93923">
        <ele>79.9</ele>
        <time>2023-05-18T07:35:12Z</time>
      </trkpt>
      <trkpt lat="49.69974" lon="-1.93913">
        <ele>80.9</ele>
        <time>2023-05-18T07:35:19Z</time>
      </trkpt>
      <trkpt lat="49.69957" lon="-1.939">
        <ele>81.2</ele>
        <time>2023-05-18T07:35:26Z</time>
      </trkpt>
      <trkpt lat="49.6994" lon="-1.93893">
        <ele>81</ele>
        <time>2023-05-18T07:35:32Z</time>
      </trkpt>
      <trkpt lat="49.69921" lon="-1.93897">
        <ele>80.1</ele>
        <time>2023-05-18T07:35:36Z</time>
      </trkpt>
      <trkpt lat="49.69901" lon="-1.93905">
        <ele>79.1</ele>
        <time>2023-05-18T07:35:39Z</time>
      </trkpt>
      <trkpt lat="49.69882" lon="-1.93917">
        <ele>79.4</ele>
        <time>2023-05-18T07:35:42Z</time>
      </trkpt>
      <trkpt lat="49.69863" lon="-1.93918">
        <ele>79.9</ele>
        <time>2023-05-18T07:35:45Z</time>
      </trkpt>
      <trkpt lat="49.69846" lon="-1.93911">
        <ele>79.7</ele>
        <time>2023-05-18T07:35:48Z</time>
      </trkpt>
      <trkpt lat="49.69826" lon="-1.93896">
        <ele>78</ele>
        <time>2023-05-18T07:35:52Z</time>
      </trkpt>
      <trkpt lat="49.69809" lon="-1.93885">
        <ele>75.6</ele>
        <time>2023-05-18T07:35:57Z</time>
      </trkpt>
      <trkpt lat="49.69791" lon="-1.93875">
        <ele>73.1</ele>
        <time>2023-05-18T07:38:09Z</time>
      </trkpt>
      <trkpt lat="49.69774" lon="-1.93865">
        <ele>70.3</ele>
        <time>2023-05-18T07:38:12Z</time>
      </trkpt>
      <trkpt lat="49.69752" lon="-1.93848">
        <ele>66.4</ele>
        <time>2023-05-18T07:38:15Z</time>
      </trkpt>
      <trkpt lat="49.69738" lon="-1.93826">
        <ele>63.2</ele>
        <time>2023-05-18T07:38:17Z</time>
      </trkpt>
      <trkpt lat="49.69722" lon="-1.93799">
        <ele>59.9</ele>
        <time>2023-05-18T07:38:19Z</time>
      </trkpt>
      <trkpt lat="49.69704" lon="-1.93774">
        <ele>57.5</ele>
        <time>2023-05-18T07:38:21Z</time>
      </trkpt>
      <trkpt lat="49.69687" lon="-1.93747">
        <ele>56</ele>
        <time>2023-05-18T07:38:23Z</time>
      </trkpt>
      <trkpt lat="49.69672" lon="-1.93719">
        <ele>54.9</ele>
        <time>2023-05-18T07:38:25Z</time>
      </trkpt>
      <trkpt lat="49.69657" lon="-1.93691">
        <ele>53.4</ele>
        <time>2023-05-18T07:38:27Z</time>
      </trkpt>
      <trkpt lat="49.6964" lon="-1.93666">
        <ele>51.7</ele>
        <time>2023-05-18T07:38:29Z</time>
      </trkpt>
      <trkpt lat="49.6962" lon="-1.93649">
        <ele>49.9</ele>
        <time>2023-05-18T07:38:31Z</time>
      </trkpt>
      <trkpt lat="49.69596" lon="-1.93638">
        <ele>48.7</ele>
        <time>2023-05-18T07:38:33Z</time>
      </trkpt>
      <trkpt lat="49.69574" lon="-1.93623">
        <ele>48</ele>
        <time>2023-05-18T07:38:35Z</time>
      </trkpt>
      <trkpt lat="49.69557" lon="-1.93603">
        <ele>47.8</ele>
        <time>2023-05-18T07:38:37Z</time>
      </trkpt>
      <trkpt lat="49.6954" lon="-1.93586">
        <ele>47.6</ele>
        <time>2023-05-18T07:38:39Z</time>
      </trkpt>
      <trkpt lat="49.69522" lon="-1.93575">
        <ele>47.4</ele>
        <time>2023-05-18T07:38:41Z</time>
      </trkpt>
      <trkpt lat="49.69504" lon="-1.93566">
        <ele>46.9</ele>
        <time>2023-05-18T07:38:43Z</time>
      </trkpt>
      <trkpt lat="49.69486" lon="-1.93565">
        <ele>46.3</ele>
        <time>2023-05-18T07:38:45Z</time>
      </trkpt>
      <trkpt lat="49.69468" lon="-1.93567">
        <ele>45.6</ele>
        <time>2023-05-18T07:38:47Z</time>
      </trkpt>
      <trkpt lat="49.69449" lon="-1.93568">
        <ele>44.6</ele>
        <time>2023-05-18T07:38:49Z</time>
      </trkpt>
      <trkpt lat="49.6943" lon="-1.9356">
        <ele>43.1</ele>
        <time>2023-05-18T07:38:51Z</time>
      </trkpt>
      <trkpt lat="49.69411" lon="-1.9355">
        <ele>41.2</ele>
        <time>2023-05-18T07:38:53Z</time>
      </trkpt>
      <trkpt lat="49.6939" lon="-1.93543">
        <ele>39.1</ele>
        <time>2023-05-18T07:38:55Z</time>
      </trkpt>
      <trkpt lat="49.69367" lon="-1.93538">
        <ele>37.2</ele>
        <time>2023-05-18T07:38:57Z</time>
      </trkpt>
      <trkpt lat="49.69344" lon="-1.93534">
        <ele>35.3</ele>
        <time>2023-05-18T07:38:59Z</time>
      </trkpt>
      <trkpt lat="49.69321" lon="-1.93531">
        <ele>33.5</ele>
        <time>2023-05-18T07:39:01Z</time>
      </trkpt>
      <trkpt lat="49.69298" lon="-1.93522">
        <ele>32.1</ele>
        <time>2023-05-18T07:39:03Z</time>
      </trkpt>
      <trkpt lat="49.69273" lon="-1.93517">
        <ele>30.4</ele>
        <time>2023-05-18T07:39:05Z</time>
      </trkpt>
      <trkpt lat="49.69249" lon="-1.93522">
        <ele>28.4</ele>
        <time>2023-05-18T07:39:07Z</time>
      </trkpt>
      <trkpt lat="49.69223" lon="-1.93528">
        <ele>26.2</ele>
        <time>2023-05-18T07:39:09Z</time>
      </trkpt>
      <trkpt lat="49.69197" lon="-1.93534">
        <ele>24</ele>
        <time>2023-05-18T07:39:11Z</time>
      </trkpt>
      <trkpt lat="49.69173" lon="-1.93541">
        <ele>21.9</ele>
        <time>2023-05-18T07:39:13Z</time>
      </trkpt>
      <trkpt lat="49.69147" lon="-1.93542">
        <ele>20</ele>
        <time>2023-05-18T07:39:15Z</time>
      </trkpt>
      <trkpt lat="49.69121" lon="-1.9354">
        <ele>18.2</ele>
        <time>2023-05-18T07:39:17Z</time>
      </trkpt>
      <trkpt lat="49.69097" lon="-1.93533">
        <ele>16.1</ele>
        <time>2023-05-18T07:39:19Z</time>
      </trkpt>
      <trkpt lat="49.69073" lon="-1.93523">
        <ele>14</ele>
        <time>2023-05-18T07:39:21Z</time>
      </trkpt>
      <trkpt lat="49.69052" lon="-1.93502">
        <ele>12.5</ele>
        <time>2023-05-18T07:39:23Z</time>
      </trkpt>
      <trkpt lat="49.6904" lon="-1.93472">
        <ele>12.7</ele>
        <time>2023-05-18T07:39:25Z</time>
      </trkpt>
      <trkpt lat="49.69038" lon="-1.93443">
        <ele>13.6</ele>
        <time>2023-05-18T07:39:27Z</time>
      </trkpt>
      <trkpt lat="49.69038" lon="-1.93409">
        <ele>15.3</ele>
        <time>2023-05-18T07:39:30Z</time>
      </trkpt>
      <trkpt lat="49.69037" lon="-1.93374">
        <ele>17</ele>
        <time>2023-05-18T07:39:34Z</time>
      </trkpt>
      <trkpt lat="49.69033" lon="-1.93346">
        <ele>18.1</ele>
        <time>2023-05-18T07:39:38Z</time>
      </trkpt>
      <trkpt lat="49.6903" lon="-1.93318">
        <ele>19.1</ele>
        <time>2023-05-18T07:39:42Z</time>
      </trkpt>
      <trkpt lat="49.69019" lon="-1.93291">
        <ele>19.9</ele>
        <time>2023-05-18T07:39:47Z</time>
      </trkpt>
      <trkpt lat="49.69001" lon="-1.93276">
        <ele>20.6</ele>
        <time>2023-05-18T07:39:52Z</time>
      </trkpt>
      <trkpt lat="49.68984" lon="-1.93266">
        <ele>21.5</ele>
        <time>2023-05-18T07:39:58Z</time>
      </trkpt>
      <trkpt lat="49.68964" lon="-1.93258">
        <ele>22.2</ele>
        <time>2023-05-18T07:41:44Z</time>
      </trkpt>
      <trkpt lat="49.68946" lon="-1.93248">
        <ele>23.5</ele>
        <time>2023-05-18T07:41:54Z</time>
      </trkpt>
      <trkpt lat="49.68927" lon="-1.9324">
        <ele>24.8</ele>
        <time>2023-05-18T07:42:01Z</time>
      </trkpt>
      <trkpt lat="49.68909" lon="-1.93231">
        <ele>25.9</ele>
        <time>2023-05-18T07:42:08Z</time>
      </trkpt>
      <trkpt lat="49.68892" lon="-1.93219">
        <ele>26.8</ele>
        <time>2023-05-18T07:42:14Z</time>
      </trkpt>
      <trkpt lat="49.68879" lon="-1.93198">
        <ele>27.8</ele>
        <time>2023-05-18T07:42:20Z</time>
      </trkpt>
      <trkpt lat="49.68869" lon="-1.93172">
        <ele>28.9</ele>
        <time>2023-05-18T07:42:27Z</time>
      </trkpt>
      <trkpt lat="49.68864" lon="-1.93143">
        <ele>30</ele>
        <time>2023-05-18T07:42:34Z</time>
      </trkpt>
      <trkpt lat="49.68859" lon="-1.93113">
        <ele>31.2</ele>
        <time>2023-05-18T07:42:42Z</time>
      </trkpt>
      <trkpt lat="49.68854" lon="-1.93083">
        <ele>32.4</ele>
        <time>2023-05-18T07:42:51Z</time>
      </trkpt>
      <trkpt lat="49.68849" lon="-1.93055">
        <ele>33.7</ele>
        <time>2023-05-18T07:42:59Z</time>
      </trkpt>
      <trkpt lat="49.68843" lon="-1.93026">
        <ele>35.1</ele>
        <time>2023-05-18T07:43:08Z</time>
      </trkpt>
      <trkpt lat="49.68838" lon="-1.92998">
        <ele>36.4</ele>
        <time>2023-05-18T07:43:16Z</time>
      </trkpt>
      <trkpt lat="49.68832" lon="-1.92968">
        <ele>37.8</ele>
        <time>2023-05-18T07:43:25Z</time>
      </trkpt>
      <trkpt lat="49.68825" lon="-1.92941">
        <ele>39.2</ele>
        <time>2023-05-18T07:43:34Z</time>
      </trkpt>
      <trkpt lat="49.68814" lon="-1.92915">
        <ele>40.6</ele>
        <time>2023-05-18T07:43:43Z</time>
      </trkpt>
      <trkpt lat="49.68807" lon="-1.92889">
        <ele>41.9</ele>
        <time>2023-05-18T07:43:52Z</time>
      </trkpt>
      <trkpt lat="49.68798" lon="-1.92862">
        <ele>43.2</ele>
        <time>2023-05-18T07:44:01Z</time>
      </trkpt>
      <trkpt lat="49.6879" lon="-1.92835">
        <ele>44.6</ele>
        <time>2023-05-18T07:44:11Z</time>
      </trkpt>
      <trkpt lat="49.68778" lon="-1.9281">
        <ele>46.4</ele>
        <time>2023-05-18T07:44:20Z</time>
      </trkpt>
      <trkpt lat="49.68765" lon="-1.92787">
        <ele>48.1</ele>
        <time>2023-05-18T07:44:29Z</time>
      </trkpt>
      <trkpt lat="49.68758" lon="-1.92761">
        <ele>49.6</ele>
        <time>2023-05-18T07:44:37Z</time>
      </trkpt>
      <trkpt lat="49.68754" lon="-1.92734">
        <ele>50.7</ele>
        <time>2023-05-18T07:44:44Z</time>
      </trkpt>
      <trkpt lat="49.68748" lon="-1.92705">
        <ele>51.8</ele>
        <time>2023-05-18T07:44:52Z</time>
      </trkpt>
      <trkpt lat="49.68741" lon="-1.92675">
        <ele>53.1</ele>
        <time>2023-05-18T07:44:59Z</time>
      </trkpt>
      <trkpt lat="49.68732" lon="-1.9265">
        <ele>54.3</ele>
        <time>2023-05-18T07:45:06Z</time>
      </trkpt>
      <trkpt lat="49.68721" lon="-1.92624">
        <ele>55.9</ele>
        <time>2023-05-18T07:45:15Z</time>
      </trkpt>
      <trkpt lat="49.68709" lon="-1.926">
        <ele>57.3</ele>
        <time>2023-05-18T07:45:23Z</time>
      </trkpt>
      <trkpt lat="49.68698" lon="-1.92577">
        <ele>58.5</ele>
        <time>2023-05-18T07:45:30Z</time>
      </trkpt>
      <trkpt lat="49.68681" lon="-1.9256">
        <ele>59.4</ele>
        <time>2023-05-18T07:45:37Z</time>
      </trkpt>
      <trkpt lat="49.68661" lon="-1.92551">
        <ele>60.1</ele>
        <time>2023-05-18T07:45:44Z</time>
      </trkpt>
      <trkpt lat="49.68642" lon="-1.92551">
        <ele>60.3</ele>
        <time>2023-05-18T07:45:49Z</time>
      </trkpt>
      <trkpt lat="49.68622" lon="-1.92557">
        <ele>60.6</ele>
        <time>2023-05-18T07:45:54Z</time>
      </trkpt>
      <trkpt lat="49.686" lon="-1.92565">
        <ele>60.8</ele>
        <time>2023-05-18T07:45:59Z</time>
      </trkpt>
      <trkpt lat="49.6858" lon="-1.9256">
        <ele>61.3</ele>
        <time>2023-05-18T07:46:04Z</time>
      </trkpt>
      <trkpt lat="49.68564" lon="-1.92547">
        <ele>61.8</ele>
        <time>2023-05-18T07:46:09Z</time>
      </trkpt>
      <trkpt lat="49.68552" lon="-1.92523">
        <ele>62.4</ele>
        <time>2023-05-18T07:46:15Z</time>
      </trkpt>
      <trkpt lat="49.68544" lon="-1.92496">
        <ele>63.1</ele>
        <time>2023-05-18T07:46:21Z</time>
      </trkpt>
      <trkpt lat="49.68539" lon="-1.92468">
        <ele>64</ele>
        <time>2023-05-18T07:46:28Z</time>
      </trkpt>
      <trkpt lat="49.68534" lon="-1.92437">
        <ele>65</ele>
        <time>2023-05-18T07:46:35Z</time>
      </trkpt>
      <trkpt lat="49.6853" lon="-1.92409">
        <ele>66.1</ele>
        <time>2023-05-18T07:46:41Z</time>
      </trkpt>
      <trkpt lat="49.68526" lon="-1.9238">
        <ele>67.5</ele>
        <time>2023-05-18T07:46:49Z</time>
      </trkpt>
      <trkpt lat="49.68516" lon="-1.92355">
        <ele>69.1</ele>
        <time>2023-05-18T07:46:57Z</time>
      </trkpt>
      <trkpt lat="49.68502" lon="-1.92336">
        <ele>70.7</ele>
        <time>2023-05-18T07:47:06Z</time>
      </trkpt>
      <trkpt lat="49.68485" lon="-1.92319">
        <ele>72.5</ele>
        <time>2023-05-18T07:47:15Z</time>
      </trkpt>
      <trkpt lat="49.68468" lon="-1.92311">
        <ele>74.1</ele>
        <time>2023-05-18T07:47:24Z</time>
      </trkpt>
      <trkpt lat="49.68452" lon="-1.92296">
        <ele>75.3</ele>
        <time>2023-05-18T07:47:30Z</time>
      </trkpt>
      <trkpt lat="49.68436" lon="-1.92279">
        <ele>76</ele>
        <time>2023-05-18T07:47:35Z</time>
      </trkpt>
      <trkpt lat="49.68415" lon="-1.92273">
        <ele>76.3</ele>
        <time>2023-05-18T07:47:41Z</time>
      </trkpt>
      <trkpt lat="49.68396" lon="-1.92277">
        <ele>76.5</ele>
        <time>2023-05-18T07:47:45Z</time>
      </trkpt>
      <trkpt lat="49.68377" lon="-1.92278">
        <ele>76.9</ele>
        <time>2023-05-18T07:47:50Z</time>
      </trkpt>
      <trkpt lat="49.68357" lon="-1.92273">
        <ele>77.3</ele>
        <time>2023-05-18T07:47:55Z</time>
      </trkpt>
      <trkpt lat="49.6834" lon="-1.92267">
        <ele>77.8</ele>
        <time>2023-05-18T07:48:00Z</time>
      </trkpt>
      <trkpt lat="49.68321" lon="-1.92264">
        <ele>78.6</ele>
        <time>2023-05-18T07:48:05Z</time>
      </trkpt>
      <trkpt lat="49.68304" lon="-1.92249">
        <ele>79.6</ele>
        <time>2023-05-18T07:48:12Z</time>
      </trkpt>
      <trkpt lat="49.68288" lon="-1.92232">
        <ele>80.8</ele>
        <time>2023-05-18T07:48:20Z</time>
      </trkpt>
      <trkpt lat="49.68275" lon="-1.9221">
        <ele>82</ele>
        <time>2023-05-18T07:48:27Z</time>
      </trkpt>
      <trkpt lat="49.68262" lon="-1.92189">
        <ele>83.1</ele>
        <time>2023-05-18T07:48:34Z</time>
      </trkpt>
      <trkpt lat="49.68253" lon="-1.92164">
        <ele>84.1</ele>
        <time>2023-05-18T07:48:41Z</time>
      </trkpt>
      <trkpt lat="49.68239" lon="-1.9214">
        <ele>85.1</ele>
        <time>2023-05-18T07:48:49Z</time>
      </trkpt>
      <trkpt lat="49.6823" lon="-1.92116">
        <ele>85.8</ele>
        <time>2023-05-18T07:48:54Z</time>
      </trkpt>
      <trkpt lat="49.68217" lon="-1.92095">
        <ele>86.4</ele>
        <time>2023-05-18T07:48:59Z</time>
      </trkpt>
      <trkpt lat="49.68202" lon="-1.92077">
        <ele>86.8</ele>
        <time>2023-05-18T07:49:04Z</time>
      </trkpt>
      <trkpt lat="49.68184" lon="-1.9207">
        <ele>87.2</ele>
        <time>2023-05-18T07:49:10Z</time>
      </trkpt>
      <trkpt lat="49.68165" lon="-1.92071">
        <ele>87.9</ele>
        <time>2023-05-18T07:49:15Z</time>
      </trkpt>
      <trkpt lat="49.68147" lon="-1.92082">
        <ele>89.2</ele>
        <time>2023-05-18T07:49:22Z</time>
      </trkpt>
      <trkpt lat="49.68131" lon="-1.921">
        <ele>90.8</ele>
        <time>2023-05-18T07:49:29Z</time>
      </trkpt>
      <trkpt lat="49.68116" lon="-1.92119">
        <ele>92.7</ele>
        <time>2023-05-18T07:49:38Z</time>
      </trkpt>
      <trkpt lat="49.681" lon="-1.92141">
        <ele>94.8</ele>
        <time>2023-05-18T07:49:51Z</time>
      </trkpt>
      <trkpt lat="49.68081" lon="-1.92149">
        <ele>97</ele>
        <time>2023-05-18T07:50:00Z</time>
      </trkpt>
      <trkpt lat="49.68062" lon="-1.92152">
        <ele>99.1</ele>
        <time>2023-05-18T07:50:09Z</time>
      </trkpt>
      <trkpt lat="49.68044" lon="-1.92143">
        <ele>101.1</ele>
        <time>2023-05-18T07:50:19Z</time>
      </trkpt>
      <trkpt lat="49.68024" lon="-1.92134">
        <ele>103.6</ele>
        <time>2023-05-18T07:50:31Z</time>
      </trkpt>
      <trkpt lat="49.68007" lon="-1.92125">
        <ele>105.7</ele>
        <time>2023-05-18T07:50:40Z</time>
      </trkpt>
      <trkpt lat="49.67988" lon="-1.92126">
        <ele>107.4</ele>
        <time>2023-05-18T07:50:49Z</time>
      </trkpt>
      <trkpt lat="49.67968" lon="-1.92132">
        <ele>108.6</ele>
        <time>2023-05-18T07:50:56Z</time>
      </trkpt>
      <trkpt lat="49.67947" lon="-1.92141">
        <ele>109.4</ele>
        <time>2023-05-18T07:51:03Z</time>
      </trkpt>
      <trkpt lat="49.67929" lon="-1.9215">
        <ele>109.8</ele>
        <time>2023-05-18T07:51:09Z</time>
      </trkpt>
      <trkpt lat="49.67908" lon="-1.92157">
        <ele>110.3</ele>
        <time>2023-05-18T07:51:15Z</time>
      </trkpt>
      <trkpt lat="49.6789" lon="-1.92161">
        <ele>110.8</ele>
        <time>2023-05-18T07:51:22Z</time>
      </trkpt>
      <trkpt lat="49.6787" lon="-1.92162">
        <ele>111.6</ele>
        <time>2023-05-18T07:51:29Z</time>
      </trkpt>
      <trkpt lat="49.67853" lon="-1.92167">
        <ele>112.4</ele>
        <time>2023-05-18T07:51:35Z</time>
      </trkpt>
      <trkpt lat="49.67834" lon="-1.92175">
        <ele>113.1</ele>
        <time>2023-05-18T07:51:41Z</time>
      </trkpt>
      <trkpt lat="49.67815" lon="-1.92183">
        <ele>113.7</ele>
        <time>2023-05-18T07:51:47Z</time>
      </trkpt>
      <trkpt lat="49.67796" lon="-1.92189">
        <ele>114.9</ele>
        <time>2023-05-18T07:51:54Z</time>
      </trkpt>
      <trkpt lat="49.67791" lon="-1.92158">
        <ele>115.7</ele>
        <time>2023-05-18T07:52:03Z</time>
      </trkpt>
      <trkpt lat="49.6779" lon="-1.92129">
        <ele>116.7</ele>
        <time>2023-05-18T07:52:10Z</time>
      </trkpt>
      <trkpt lat="49.67786" lon="-1.92098">
        <ele>117.9</ele>
        <time>2023-05-18T07:52:18Z</time>
      </trkpt>
      <trkpt lat="49.67786" lon="-1.92067">
        <ele>119.3</ele>
        <time>2023-05-18T07:52:26Z</time>
      </trkpt>
      <trkpt lat="49.67786" lon="-1.92037">
        <ele>120.6</ele>
        <time>2023-05-18T07:52:34Z</time>
      </trkpt>
      <trkpt lat="49.67788" lon="-1.92005">
        <ele>122</ele>
        <time>2023-05-18T07:52:42Z</time>
      </trkpt>
      <trkpt lat="49.67787" lon="-1.91975">
        <ele>122.9</ele>
        <time>2023-05-18T07:52:50Z</time>
      </trkpt>
      <trkpt lat="49.67785" lon="-1.91947">
        <ele>122.9</ele>
        <time>2023-05-18T07:52:56Z</time>
      </trkpt>
      <trkpt lat="49.67783" lon="-1.91916">
        <ele>122.6</ele>
        <time>2023-05-18T07:53:01Z</time>
      </trkpt>
      <trkpt lat="49.67781" lon="-1.91883">
        <ele>122</ele>
        <time>2023-05-18T07:53:05Z</time>
      </trkpt>
      <trkpt lat="49.67765" lon="-1.91869">
        <ele>122.2</ele>
        <time>2023-05-18T07:53:09Z</time>
      </trkpt>
      <trkpt lat="49.67745" lon="-1.91867">
        <ele>122.7</ele>
        <time>2023-05-18T07:53:14Z</time>
      </trkpt>
      <trkpt lat="49.67724" lon="-1.91865">
        <ele>123.2</ele>
        <time>2023-05-18T07:53:19Z</time>
      </trkpt>
      <trkpt lat="49.67703" lon="-1.91863">
        <ele>123.5</ele>
        <time>2023-05-18T07:53:24Z</time>
      </trkpt>
      <trkpt lat="49.67685" lon="-1.91849">
        <ele>123.7</ele>
        <time>2023-05-18T07:53:29Z</time>
      </trkpt>
      <trkpt lat="49.67671" lon="-1.91825">
        <ele>123.9</ele>
        <time>2023-05-18T07:53:34Z</time>
      </trkpt>
      <trkpt lat="49.67671" lon="-1.91795">
        <ele>124.1</ele>
        <time>2023-05-18T07:53:38Z</time>
      </trkpt>
      <trkpt lat="49.67663" lon="-1.91767">
        <ele>124.3</ele>
        <time>2023-05-18T07:54:58Z</time>
      </trkpt>
      <trkpt lat="49.67647" lon="-1.91747">
        <ele>124.6</ele>
        <time>2023-05-18T07:55:04Z</time>
      </trkpt>
      <trkpt lat="49.67628" lon="-1.91735">
        <ele>125.1</ele>
        <time>2023-05-18T07:55:09Z</time>
      </trkpt>
      <trkpt lat="49.67608" lon="-1.91732">
        <ele>125.9</ele>
        <time>2023-05-18T07:55:13Z</time>
      </trkpt>
      <trkpt lat="49.67597" lon="-1.91707">
        <ele>126.5</ele>
        <time>2023-05-18T07:55:19Z</time>
      </trkpt>
      <trkpt lat="49.6759" lon="-1.91678">
        <ele>127</ele>
        <time>2023-05-18T07:55:25Z</time>
      </trkpt>
      <trkpt lat="49.67584" lon="-1.91651">
        <ele>127.5</ele>
        <time>2023-05-18T07:55:30Z</time>
      </trkpt>
      <trkpt lat="49.67582" lon="-1.91621">
        <ele>128</ele>
        <time>2023-05-18T07:55:35Z</time>
      </trkpt>
      <trkpt lat="49.67583" lon="-1.9159">
        <ele>128.6</ele>
        <time>2023-05-18T07:55:41Z</time>
      </trkpt>
      <trkpt lat="49.67581" lon="-1.91561">
        <ele>129.2</ele>
        <time>2023-05-18T07:55:47Z</time>
      </trkpt>
      <trkpt lat="49.67577" lon="-1.9153">
        <ele>129.9</ele>
        <time>2023-05-18T07:55:53Z</time>
      </trkpt>
      <trkpt lat="49.67575" lon="-1.91502">
        <ele>130.5</ele>
        <time>2023-05-18T07:55:58Z</time>
      </trkpt>
      <trkpt lat="49.6757" lon="-1.91471">
        <ele>131.1</ele>
        <time>2023-05-18T07:56:04Z</time>
      </trkpt>
      <trkpt lat="49.67566" lon="-1.91439">
        <ele>131.7</ele>
        <time>2023-05-18T07:56:10Z</time>
      </trkpt>
      <trkpt lat="49.67563" lon="-1.91408">
        <ele>132.3</ele>
        <time>2023-05-18T07:56:16Z</time>
      </trkpt>
      <trkpt lat="49.67564" lon="-1.91379">
        <ele>133.2</ele>
        <time>2023-05-18T07:56:22Z</time>
      </trkpt>
      <trkpt lat="49.67558" lon="-1.91353">
        <ele>134.2</ele>
        <time>2023-05-18T07:56:29Z</time>
      </trkpt>
      <trkpt lat="49.67551" lon="-1.91323">
        <ele>135.6</ele>
        <time>2023-05-18T07:56:37Z</time>
      </trkpt>
      <trkpt lat="49.67547" lon="-1.91293">
        <ele>136.8</ele>
        <time>2023-05-18T07:56:44Z</time>
      </trkpt>
      <trkpt lat="49.6754" lon="-1.91266">
        <ele>137.6</ele>
        <time>2023-05-18T07:56:51Z</time>
      </trkpt>
      <trkpt lat="49.67533" lon="-1.91238">
        <ele>138.2</ele>
        <time>2023-05-18T07:56:59Z</time>
      </trkpt>
      <trkpt lat="49.67522" lon="-1.91214">
        <ele>138.1</ele>
        <time>2023-05-18T07:57:46Z</time>
      </trkpt>
      <trkpt lat="49.67514" lon="-1.91185">
        <ele>137.6</ele>
        <time>2023-05-18T07:57:51Z</time>
      </trkpt>
      <trkpt lat="49.67527" lon="-1.91166">
        <ele>138.4</ele>
        <time>2023-05-18T07:57:57Z</time>
      </trkpt>
      <trkpt lat="49.67543" lon="-1.9115">
        <ele>139.8</ele>
        <time>2023-05-18T07:58:05Z</time>
      </trkpt>
      <trkpt lat="49.67557" lon="-1.91131">
        <ele>141.4</ele>
        <time>2023-05-18T07:58:12Z</time>
      </trkpt>
      <trkpt lat="49.67574" lon="-1.91117">
        <ele>143.2</ele>
        <time>2023-05-18T07:58:19Z</time>
      </trkpt>
      <trkpt lat="49.67591" lon="-1.91102">
        <ele>144.8</ele>
        <time>2023-05-18T07:58:26Z</time>
      </trkpt>
      <trkpt lat="49.67609" lon="-1.91088">
        <ele>146.3</ele>
        <time>2023-05-18T07:58:34Z</time>
      </trkpt>
      <trkpt lat="49.67626" lon="-1.91077">
        <ele>147.8</ele>
        <time>2023-05-18T07:58:41Z</time>
      </trkpt>
      <trkpt lat="49.67641" lon="-1.9106">
        <ele>149.2</ele>
        <time>2023-05-18T07:58:49Z</time>
      </trkpt>
      <trkpt lat="49.67659" lon="-1.91047">
        <ele>150.7</ele>
        <time>2023-05-18T07:58:57Z</time>
      </trkpt>
      <trkpt lat="49.67677" lon="-1.91036">
        <ele>151.4</ele>
        <time>2023-05-18T07:59:04Z</time>
      </trkpt>
      <trkpt lat="49.67696" lon="-1.91029">
        <ele>152.1</ele>
        <time>2023-05-18T07:59:11Z</time>
      </trkpt>
      <trkpt lat="49.67715" lon="-1.91018">
        <ele>153.4</ele>
        <time>2023-05-18T07:59:19Z</time>
      </trkpt>
      <trkpt lat="49.67732" lon="-1.91008">
        <ele>154.4</ele>
        <time>2023-05-18T07:59:27Z</time>
      </trkpt>
      <trkpt lat="49.67749" lon="-1.90997">
        <ele>155.4</ele>
        <time>2023-05-18T07:59:34Z</time>
      </trkpt>
      <trkpt lat="49.67767" lon="-1.90985">
        <ele>156.5</ele>
        <time>2023-05-18T07:59:40Z</time>
      </trkpt>
      <trkpt lat="49.67785" lon="-1.90971">
        <ele>157.4</ele>
        <time>2023-05-18T07:59:48Z</time>
      </trkpt>
      <trkpt lat="49.67802" lon="-1.90958">
        <ele>158.2</ele>
        <time>2023-05-18T07:59:55Z</time>
      </trkpt>
      <trkpt lat="49.67818" lon="-1.90942">
        <ele>158.5</ele>
        <time>2023-05-18T08:00:02Z</time>
      </trkpt>
      <trkpt lat="49.67834" lon="-1.90929">
        <ele>158.5</ele>
        <time>2023-05-18T08:00:07Z</time>
      </trkpt>
      <trkpt lat="49.67853" lon="-1.90915">
        <ele>158.3</ele>
        <time>2023-05-18T08:00:12Z</time>
      </trkpt>
      <trkpt lat="49.67869" lon="-1.90902">
        <ele>158.3</ele>
        <time>2023-05-18T08:00:18Z</time>
      </trkpt>
      <trkpt lat="49.67884" lon="-1.90883">
        <ele>158.2</ele>
        <time>2023-05-18T08:00:25Z</time>
      </trkpt>
      <trkpt lat="49.6789" lon="-1.90854">
        <ele>158.3</ele>
        <time>2023-05-18T08:00:30Z</time>
      </trkpt>
      <trkpt lat="49.67897" lon="-1.90823">
        <ele>158.4</ele>
        <time>2023-05-18T08:00:35Z</time>
      </trkpt>
      <trkpt lat="49.67902" lon="-1.90796">
        <ele>158.5</ele>
        <time>2023-05-18T08:00:39Z</time>
      </trkpt>
      <trkpt lat="49.67908" lon="-1.90763">
        <ele>158.7</ele>
        <time>2023-05-18T08:00:44Z</time>
      </trkpt>
      <trkpt lat="49.67914" lon="-1.90736">
        <ele>158.9</ele>
        <time>2023-05-18T08:00:48Z</time>
      </trkpt>
      <trkpt lat="49.67922" lon="-1.90703">
        <ele>159.2</ele>
        <time>2023-05-18T08:00:53Z</time>
      </trkpt>
      <trkpt lat="49.67929" lon="-1.90677">
        <ele>159.5</ele>
        <time>2023-05-18T08:00:57Z</time>
      </trkpt>
      <trkpt lat="49.67937" lon="-1.90647">
        <ele>160</ele>
        <time>2023-05-18T08:01:02Z</time>
      </trkpt>
      <trkpt lat="49.67943" lon="-1.90619">
        <ele>160.5</ele>
        <time>2023-05-18T08:01:07Z</time>
      </trkpt>
      <trkpt lat="49.67951" lon="-1.90594">
        <ele>161.1</ele>
        <time>2023-05-18T08:01:12Z</time>
      </trkpt>
      <trkpt lat="49.67957" lon="-1.90567">
        <ele>161.8</ele>
        <time>2023-05-18T08:01:18Z</time>
      </trkpt>
      <trkpt lat="49.67965" lon="-1.90537">
        <ele>162.7</ele>
        <time>2023-05-18T08:01:25Z</time>
      </trkpt>
      <trkpt lat="49.67974" lon="-1.90512">
        <ele>163.6</ele>
        <time>2023-05-18T08:01:31Z</time>
      </trkpt>
      <trkpt lat="49.6798" lon="-1.90483">
        <ele>163.9</ele>
        <time>2023-05-18T08:01:38Z</time>
      </trkpt>
      <trkpt lat="49.67966" lon="-1.90506">
        <ele>163.7</ele>
        <time>2023-05-18T08:02:55Z</time>
      </trkpt>
      <trkpt lat="49.67948" lon="-1.90511">
        <ele>163.5</ele>
        <time>2023-05-18T08:02:59Z</time>
      </trkpt>
      <trkpt lat="49.67927" lon="-1.90514">
        <ele>163.5</ele>
        <time>2023-05-18T08:03:03Z</time>
      </trkpt>
      <trkpt lat="49.67906" lon="-1.90519">
        <ele>163.5</ele>
        <time>2023-05-18T08:03:07Z</time>
      </trkpt>
      <trkpt lat="49.67885" lon="-1.90524">
        <ele>163.3</ele>
        <time>2023-05-18T08:03:11Z</time>
      </trkpt>
      <trkpt lat="49.67863" lon="-1.90526">
        <ele>163.2</ele>
        <time>2023-05-18T08:03:15Z</time>
      </trkpt>
      <trkpt lat="49.67842" lon="-1.9053">
        <ele>163</ele>
        <time>2023-05-18T08:03:19Z</time>
      </trkpt>
      <trkpt lat="49.67818" lon="-1.90528">
        <ele>162.9</ele>
        <time>2023-05-18T08:03:23Z</time>
      </trkpt>
      <trkpt lat="49.67799" lon="-1.90529">
        <ele>162.9</ele>
        <time>2023-05-18T08:03:26Z</time>
      </trkpt>
      <trkpt lat="49.67816" lon="-1.90514">
        <ele>163.1</ele>
        <time>2023-05-18T08:03:40Z</time>
      </trkpt>
      <trkpt lat="49.67816" lon="-1.9048">
        <ele>163.2</ele>
        <time>2023-05-18T08:03:45Z</time>
      </trkpt>
      <trkpt lat="49.67814" lon="-1.90447">
        <ele>163.3</ele>
        <time>2023-05-18T08:03:50Z</time>
      </trkpt>
      <trkpt lat="49.67813" lon="-1.90412">
        <ele>163.5</ele>
        <time>2023-05-18T08:03:55Z</time>
      </trkpt>
      <trkpt lat="49.67812" lon="-1.90382">
        <ele>163.7</ele>
        <time>2023-05-18T08:03:59Z</time>
      </trkpt>
      <trkpt lat="49.67815" lon="-1.90351">
        <ele>163.9</ele>
        <time>2023-05-18T08:04:03Z</time>
      </trkpt>
      <trkpt lat="49.67818" lon="-1.90323">
        <ele>164</ele>
        <time>2023-05-18T08:04:07Z</time>
      </trkpt>
      <trkpt lat="49.67823" lon="-1.90293">
        <ele>164.2</ele>
        <time>2023-05-18T08:04:11Z</time>
      </trkpt>
      <trkpt lat="49.67828" lon="-1.90264">
        <ele>164.2</ele>
        <time>2023-05-18T08:04:15Z</time>
      </trkpt>
      <trkpt lat="49.67827" lon="-1.90235">
        <ele>164.2</ele>
        <time>2023-05-18T08:04:19Z</time>
      </trkpt>
      <trkpt lat="49.67823" lon="-1.90205">
        <ele>164</ele>
        <time>2023-05-18T08:04:23Z</time>
      </trkpt>
      <trkpt lat="49.67816" lon="-1.90175">
        <ele>163.6</ele>
        <time>2023-05-18T08:04:27Z</time>
      </trkpt>
      <trkpt lat="49.67808" lon="-1.90145">
        <ele>163.2</ele>
        <time>2023-05-18T08:04:31Z</time>
      </trkpt>
      <trkpt lat="49.67799" lon="-1.90114">
        <ele>162.7</ele>
        <time>2023-05-18T08:04:35Z</time>
      </trkpt>
      <trkpt lat="49.6779" lon="-1.90083">
        <ele>162.1</ele>
        <time>2023-05-18T08:04:39Z</time>
      </trkpt>
      <trkpt lat="49.6778" lon="-1.90051">
        <ele>161.5</ele>
        <time>2023-05-18T08:04:43Z</time>
      </trkpt>
      <trkpt lat="49.67772" lon="-1.90025">
        <ele>160.8</ele>
        <time>2023-05-18T08:04:46Z</time>
      </trkpt>
      <trkpt lat="49.67763" lon="-1.89997">
        <ele>159.9</ele>
        <time>2023-05-18T08:04:49Z</time>
      </trkpt>
      <trkpt lat="49.67752" lon="-1.89969">
        <ele>159.1</ele>
        <time>2023-05-18T08:04:52Z</time>
      </trkpt>
      <trkpt lat="49.6774" lon="-1.89941">
        <ele>158.2</ele>
        <time>2023-05-18T08:04:55Z</time>
      </trkpt>
      <trkpt lat="49.67737" lon="-1.89904">
        <ele>157.9</ele>
        <time>2023-05-18T08:04:58Z</time>
      </trkpt>
      <trkpt lat="49.67742" lon="-1.8987">
        <ele>158.1</ele>
        <time>2023-05-18T08:05:01Z</time>
      </trkpt>
      <trkpt lat="49.67738" lon="-1.89834">
        <ele>158.2</ele>
        <time>2023-05-18T08:05:05Z</time>
      </trkpt>
      <trkpt lat="49.6773" lon="-1.89806">
        <ele>157.8</ele>
        <time>2023-05-18T08:05:08Z</time>
      </trkpt>
      <trkpt lat="49.67722" lon="-1.89778">
        <ele>157.5</ele>
        <time>2023-05-18T08:05:11Z</time>
      </trkpt>
      <trkpt lat="49.67716" lon="-1.89742">
        <ele>157.4</ele>
        <time>2023-05-18T08:05:15Z</time>
      </trkpt>
      <trkpt lat="49.67712" lon="-1.89709">
        <ele>157.6</ele>
        <time>2023-05-18T08:05:19Z</time>
      </trkpt>
      <trkpt lat="49.67708" lon="-1.89679">
        <ele>157.9</ele>
        <time>2023-05-18T08:05:23Z</time>
      </trkpt>
      <trkpt lat="49.67703" lon="-1.89645">
        <ele>158.4</ele>
        <time>2023-05-18T08:05:28Z</time>
      </trkpt>
      <trkpt lat="49.67699" lon="-1.89615">
        <ele>159</ele>
        <time>2023-05-18T08:05:33Z</time>
      </trkpt>
      <trkpt lat="49.67695" lon="-1.89582">
        <ele>159.7</ele>
        <time>2023-05-18T08:05:38Z</time>
      </trkpt>
      <trkpt lat="49.67692" lon="-1.8955">
        <ele>160.4</ele>
        <time>2023-05-18T08:05:43Z</time>
      </trkpt>
      <trkpt lat="49.67687" lon="-1.89518">
        <ele>161.2</ele>
        <time>2023-05-18T08:05:48Z</time>
      </trkpt>
      <trkpt lat="49.67683" lon="-1.89488">
        <ele>161.9</ele>
        <time>2023-05-18T08:05:53Z</time>
      </trkpt>
      <trkpt lat="49.67679" lon="-1.89455">
        <ele>162.6</ele>
        <time>2023-05-18T08:05:58Z</time>
      </trkpt>
      <trkpt lat="49.67675" lon="-1.89424">
        <ele>163.2</ele>
        <time>2023-05-18T08:06:03Z</time>
      </trkpt>
      <trkpt lat="49.6767" lon="-1.89396">
        <ele>163.8</ele>
        <time>2023-05-18T08:06:08Z</time>
      </trkpt>
      <trkpt lat="49.67668" lon="-1.89369">
        <ele>164.3</ele>
        <time>2023-05-18T08:06:13Z</time>
      </trkpt>
      <trkpt lat="49.67664" lon="-1.89336">
        <ele>164.9</ele>
        <time>2023-05-18T08:06:19Z</time>
      </trkpt>
      <trkpt lat="49.67661" lon="-1.89308">
        <ele>165.5</ele>
        <time>2023-05-18T08:06:24Z</time>
      </trkpt>
      <trkpt lat="49.67658" lon="-1.89277">
        <ele>166.1</ele>
        <time>2023-05-18T08:06:30Z</time>
      </trkpt>
      <trkpt lat="49.67653" lon="-1.89246">
        <ele>166.8</ele>
        <time>2023-05-18T08:06:36Z</time>
      </trkpt>
      <trkpt lat="49.67647" lon="-1.89215">
        <ele>167.4</ele>
        <time>2023-05-18T08:06:42Z</time>
      </trkpt>
      <trkpt lat="49.67642" lon="-1.89183">
        <ele>168</ele>
        <time>2023-05-18T08:06:48Z</time>
      </trkpt>
      <trkpt lat="49.67639" lon="-1.89151">
        <ele>168.6</ele>
        <time>2023-05-18T08:06:54Z</time>
      </trkpt>
      <trkpt lat="49.67635" lon="-1.89122">
        <ele>169</ele>
        <time>2023-05-18T08:07:00Z</time>
      </trkpt>
      <trkpt lat="49.67631" lon="-1.89094">
        <ele>169.3</ele>
        <time>2023-05-18T08:07:05Z</time>
      </trkpt>
      <trkpt lat="49.67628" lon="-1.89067">
        <ele>169.6</ele>
        <time>2023-05-18T08:07:10Z</time>
      </trkpt>
      <trkpt lat="49.67623" lon="-1.89037">
        <ele>170</ele>
        <time>2023-05-18T08:07:15Z</time>
      </trkpt>
      <trkpt lat="49.67619" lon="-1.89007">
        <ele>170.2</ele>
        <time>2023-05-18T08:07:20Z</time>
      </trkpt>
      <trkpt lat="49.67615" lon="-1.88977">
        <ele>170.3</ele>
        <time>2023-05-18T08:07:25Z</time>
      </trkpt>
      <trkpt lat="49.67611" lon="-1.88949">
        <ele>170.3</ele>
        <time>2023-05-18T08:07:29Z</time>
      </trkpt>
      <trkpt lat="49.67607" lon="-1.88922">
        <ele>170.3</ele>
        <time>2023-05-18T08:07:33Z</time>
      </trkpt>
      <trkpt lat="49.67605" lon="-1.88893">
        <ele>170.3</ele>
        <time>2023-05-18T08:07:37Z</time>
      </trkpt>
      <trkpt lat="49.67601" lon="-1.88864">
        <ele>170.2</ele>
        <time>2023-05-18T08:07:41Z</time>
      </trkpt>
      <trkpt lat="49.67596" lon="-1.88833">
        <ele>170.1</ele>
        <time>2023-05-18T08:07:45Z</time>
      </trkpt>
      <trkpt lat="49.67593" lon="-1.88802">
        <ele>170</ele>
        <time>2023-05-18T08:07:49Z</time>
      </trkpt>
      <trkpt lat="49.67589" lon="-1.88772">
        <ele>169.8</ele>
        <time>2023-05-18T08:07:53Z</time>
      </trkpt>
      <trkpt lat="49.67585" lon="-1.88741">
        <ele>169.7</ele>
        <time>2023-05-18T08:07:57Z</time>
      </trkpt>
      <trkpt lat="49.67581" lon="-1.88708">
        <ele>169.6</ele>
        <time>2023-05-18T08:08:01Z</time>
      </trkpt>
      <trkpt lat="49.67577" lon="-1.88677">
        <ele>169.5</ele>
        <time>2023-05-18T08:08:05Z</time>
      </trkpt>
      <trkpt lat="49.67573" lon="-1.88648">
        <ele>169.4</ele>
        <time>2023-05-18T08:08:09Z</time>
      </trkpt>
      <trkpt lat="49.67571" lon="-1.88619">
        <ele>169.4</ele>
        <time>2023-05-18T08:08:13Z</time>
      </trkpt>
      <trkpt lat="49.67567" lon="-1.88588">
        <ele>169.2</ele>
        <time>2023-05-18T08:08:17Z</time>
      </trkpt>
      <trkpt lat="49.67562" lon="-1.88553">
        <ele>169.1</ele>
        <time>2023-05-18T08:08:21Z</time>
      </trkpt>
      <trkpt lat="49.67557" lon="-1.8852">
        <ele>169</ele>
        <time>2023-05-18T08:08:25Z</time>
      </trkpt>
      <trkpt lat="49.67552" lon="-1.88487">
        <ele>168.9</ele>
        <time>2023-05-18T08:08:29Z</time>
      </trkpt>
      <trkpt lat="49.67547" lon="-1.88453">
        <ele>168.8</ele>
        <time>2023-05-18T08:08:33Z</time>
      </trkpt>
      <trkpt lat="49.67541" lon="-1.88421">
        <ele>168.7</ele>
        <time>2023-05-18T08:08:37Z</time>
      </trkpt>
      <trkpt lat="49.67536" lon="-1.88387">
        <ele>168.5</ele>
        <time>2023-05-18T08:08:41Z</time>
      </trkpt>
      <trkpt lat="49.67531" lon="-1.88354">
        <ele>168.5</ele>
        <time>2023-05-18T08:08:45Z</time>
      </trkpt>
      <trkpt lat="49.67526" lon="-1.88321">
        <ele>168.6</ele>
        <time>2023-05-18T08:08:49Z</time>
      </trkpt>
      <trkpt lat="49.6752" lon="-1.8829">
        <ele>168.7</ele>
        <time>2023-05-18T08:08:53Z</time>
      </trkpt>
      <trkpt lat="49.67516" lon="-1.88262">
        <ele>168.7</ele>
        <time>2023-05-18T08:08:57Z</time>
      </trkpt>
      <trkpt lat="49.6751" lon="-1.88234">
        <ele>168.9</ele>
        <time>2023-05-18T08:09:01Z</time>
      </trkpt>
      <trkpt lat="49.67505" lon="-1.88206">
        <ele>169</ele>
        <time>2023-05-18T08:09:05Z</time>
      </trkpt>
      <trkpt lat="49.67501" lon="-1.88177">
        <ele>169.2</ele>
        <time>2023-05-18T08:09:09Z</time>
      </trkpt>
      <trkpt lat="49.67495" lon="-1.88146">
        <ele>169.3</ele>
        <time>2023-05-18T08:09:14Z</time>
      </trkpt>
      <trkpt lat="49.67489" lon="-1.88114">
        <ele>169.5</ele>
        <time>2023-05-18T08:09:19Z</time>
      </trkpt>
      <trkpt lat="49.67484" lon="-1.88082">
        <ele>169.7</ele>
        <time>2023-05-18T08:09:24Z</time>
      </trkpt>
      <trkpt lat="49.67477" lon="-1.8805">
        <ele>170</ele>
        <time>2023-05-18T08:09:29Z</time>
      </trkpt>
      <trkpt lat="49.67472" lon="-1.88017">
        <ele>170.2</ele>
        <time>2023-05-18T08:09:34Z</time>
      </trkpt>
      <trkpt lat="49.67465" lon="-1.87988">
        <ele>170.5</ele>
        <time>2023-05-18T08:09:39Z</time>
      </trkpt>
      <trkpt lat="49.67447" lon="-1.87992">
        <ele>169.7</ele>
        <time>2023-05-18T08:10:30Z</time>
      </trkpt>
      <trkpt lat="49.67433" lon="-1.88009">
        <ele>168.8</ele>
        <time>2023-05-18T08:10:34Z</time>
      </trkpt>
      <trkpt lat="49.67416" lon="-1.88035">
        <ele>167.8</ele>
        <time>2023-05-18T08:10:38Z</time>
      </trkpt>
      <trkpt lat="49.67401" lon="-1.88053">
        <ele>167.1</ele>
        <time>2023-05-18T08:10:41Z</time>
      </trkpt>
      <trkpt lat="49.67387" lon="-1.88074">
        <ele>166.4</ele>
        <time>2023-05-18T08:10:44Z</time>
      </trkpt>
      <trkpt lat="49.6737" lon="-1.88097">
        <ele>165.5</ele>
        <time>2023-05-18T08:10:47Z</time>
      </trkpt>
      <trkpt lat="49.67352" lon="-1.88121">
        <ele>164.7</ele>
        <time>2023-05-18T08:10:50Z</time>
      </trkpt>
      <trkpt lat="49.67333" lon="-1.88146">
        <ele>163.9</ele>
        <time>2023-05-18T08:10:53Z</time>
      </trkpt>
      <trkpt lat="49.67311" lon="-1.88171">
        <ele>163.1</ele>
        <time>2023-05-18T08:10:56Z</time>
      </trkpt>
      <trkpt lat="49.67293" lon="-1.88181">
        <ele>162.9</ele>
        <time>2023-05-18T08:10:58Z</time>
      </trkpt>
      <trkpt lat="49.67267" lon="-1.88186">
        <ele>163.2</ele>
        <time>2023-05-18T08:11:01Z</time>
      </trkpt>
      <trkpt lat="49.67245" lon="-1.8818">
        <ele>163.6</ele>
        <time>2023-05-18T08:11:04Z</time>
      </trkpt>
      <trkpt lat="49.67226" lon="-1.88169">
        <ele>164</ele>
        <time>2023-05-18T08:11:07Z</time>
      </trkpt>
      <trkpt lat="49.67207" lon="-1.88161">
        <ele>164.6</ele>
        <time>2023-05-18T08:11:10Z</time>
      </trkpt>
      <trkpt lat="49.67187" lon="-1.8815">
        <ele>165.3</ele>
        <time>2023-05-18T08:11:14Z</time>
      </trkpt>
      <trkpt lat="49.67166" lon="-1.88141">
        <ele>166</ele>
        <time>2023-05-18T08:11:18Z</time>
      </trkpt>
      <trkpt lat="49.67147" lon="-1.88131">
        <ele>166.6</ele>
        <time>2023-05-18T08:11:22Z</time>
      </trkpt>
      <trkpt lat="49.67129" lon="-1.88122">
        <ele>167.3</ele>
        <time>2023-05-18T08:11:26Z</time>
      </trkpt>
      <trkpt lat="49.67108" lon="-1.88113">
        <ele>168.1</ele>
        <time>2023-05-18T08:11:31Z</time>
      </trkpt>
      <trkpt lat="49.67087" lon="-1.88103">
        <ele>168.7</ele>
        <time>2023-05-18T08:11:36Z</time>
      </trkpt>
      <trkpt lat="49.67072" lon="-1.88088">
        <ele>169.1</ele>
        <time>2023-05-18T08:11:40Z</time>
      </trkpt>
      <trkpt lat="49.67056" lon="-1.88071">
        <ele>169.2</ele>
        <time>2023-05-18T08:11:44Z</time>
      </trkpt>
      <trkpt lat="49.67037" lon="-1.88062">
        <ele>169.1</ele>
        <time>2023-05-18T08:11:48Z</time>
      </trkpt>
      <trkpt lat="49.67017" lon="-1.88052">
        <ele>168.3</ele>
        <time>2023-05-18T08:11:52Z</time>
      </trkpt>
      <trkpt lat="49.66998" lon="-1.88043">
        <ele>167.1</ele>
        <time>2023-05-18T08:11:55Z</time>
      </trkpt>
      <trkpt lat="49.66977" lon="-1.88029">
        <ele>165.4</ele>
        <time>2023-05-18T08:11:58Z</time>
      </trkpt>
      <trkpt lat="49.66956" lon="-1.8801">
        <ele>163.5</ele>
        <time>2023-05-18T08:12:01Z</time>
      </trkpt>
      <trkpt lat="49.6694" lon="-1.87989">
        <ele>161.7</ele>
        <time>2023-05-18T08:12:03Z</time>
      </trkpt>
      <trkpt lat="49.66925" lon="-1.87965">
        <ele>159.8</ele>
        <time>2023-05-18T08:12:05Z</time>
      </trkpt>
      <trkpt lat="49.6691" lon="-1.87946">
        <ele>157.9</ele>
        <time>2023-05-18T08:12:07Z</time>
      </trkpt>
      <trkpt lat="49.66887" lon="-1.87942">
        <ele>155.5</ele>
        <time>2023-05-18T08:12:10Z</time>
      </trkpt>
      <trkpt lat="49.6687" lon="-1.87929">
        <ele>153.5</ele>
        <time>2023-05-18T08:12:13Z</time>
      </trkpt>
      <trkpt lat="49.66863" lon="-1.8789">
        <ele>150.7</ele>
        <time>2023-05-18T08:12:16Z</time>
      </trkpt>
      <trkpt lat="49.66848" lon="-1.87867">
        <ele>148.8</ele>
        <time>2023-05-18T08:12:19Z</time>
      </trkpt>
      <trkpt lat="49.66828" lon="-1.87873">
        <ele>148.2</ele>
        <time>2023-05-18T08:12:21Z</time>
      </trkpt>
      <trkpt lat="49.66807" lon="-1.87884">
        <ele>148.9</ele>
        <time>2023-05-18T08:12:24Z</time>
      </trkpt>
      <trkpt lat="49.66788" lon="-1.87881">
        <ele>150</ele>
        <time>2023-05-18T08:12:27Z</time>
      </trkpt>
      <trkpt lat="49.66768" lon="-1.87867">
        <ele>150.9</ele>
        <time>2023-05-18T08:12:31Z</time>
      </trkpt>
      <trkpt lat="49.66749" lon="-1.8786">
        <ele>151.3</ele>
        <time>2023-05-18T08:12:35Z</time>
      </trkpt>
      <trkpt lat="49.66731" lon="-1.87857">
        <ele>151.1</ele>
        <time>2023-05-18T08:12:39Z</time>
      </trkpt>
      <trkpt lat="49.66708" lon="-1.87854">
        <ele>150.5</ele>
        <time>2023-05-18T08:12:43Z</time>
      </trkpt>
      <trkpt lat="49.66686" lon="-1.87855">
        <ele>149.8</ele>
        <time>2023-05-18T08:12:47Z</time>
      </trkpt>
      <trkpt lat="49.66669" lon="-1.87872">
        <ele>149</ele>
        <time>2023-05-18T08:12:50Z</time>
      </trkpt>
      <trkpt lat="49.66656" lon="-1.87907">
        <ele>147.6</ele>
        <time>2023-05-18T08:12:53Z</time>
      </trkpt>
      <trkpt lat="49.66635" lon="-1.87929">
        <ele>145.8</ele>
        <time>2023-05-18T08:12:56Z</time>
      </trkpt>
      <trkpt lat="49.66616" lon="-1.87935">
        <ele>144.4</ele>
        <time>2023-05-18T08:12:58Z</time>
      </trkpt>
      <trkpt lat="49.66596" lon="-1.87936">
        <ele>143.1</ele>
        <time>2023-05-18T08:13:00Z</time>
      </trkpt>
      <trkpt lat="49.66576" lon="-1.87942">
        <ele>141.9</ele>
        <time>2023-05-18T08:13:02Z</time>
      </trkpt>
      <trkpt lat="49.66557" lon="-1.87952">
        <ele>141.1</ele>
        <time>2023-05-18T08:13:04Z</time>
      </trkpt>
      <trkpt lat="49.66537" lon="-1.87964">
        <ele>140.3</ele>
        <time>2023-05-18T08:13:06Z</time>
      </trkpt>
      <trkpt lat="49.66519" lon="-1.87975">
        <ele>139.7</ele>
        <time>2023-05-18T08:13:08Z</time>
      </trkpt>
      <trkpt lat="49.665" lon="-1.87986">
        <ele>139</ele>
        <time>2023-05-18T08:13:10Z</time>
      </trkpt>
      <trkpt lat="49.6648" lon="-1.87998">
        <ele>138</ele>
        <time>2023-05-18T08:13:12Z</time>
      </trkpt>
      <trkpt lat="49.66461" lon="-1.8801">
        <ele>136.8</ele>
        <time>2023-05-18T08:13:14Z</time>
      </trkpt>
      <trkpt lat="49.6644" lon="-1.8802">
        <ele>135.7</ele>
        <time>2023-05-18T08:13:16Z</time>
      </trkpt>
      <trkpt lat="49.66418" lon="-1.88029">
        <ele>134.7</ele>
        <time>2023-05-18T08:13:18Z</time>
      </trkpt>
      <trkpt lat="49.66396" lon="-1.88039">
        <ele>134</ele>
        <time>2023-05-18T08:13:20Z</time>
      </trkpt>
      <trkpt lat="49.66375" lon="-1.88048">
        <ele>133.3</ele>
        <time>2023-05-18T08:13:22Z</time>
      </trkpt>
      <trkpt lat="49.66355" lon="-1.88056">
        <ele>132.5</ele>
        <time>2023-05-18T08:13:24Z</time>
      </trkpt>
      <trkpt lat="49.66333" lon="-1.88063">
        <ele>131.4</ele>
        <time>2023-05-18T08:13:26Z</time>
      </trkpt>
      <trkpt lat="49.66311" lon="-1.88067">
        <ele>130</ele>
        <time>2023-05-18T08:13:28Z</time>
      </trkpt>
      <trkpt lat="49.66288" lon="-1.88073">
        <ele>128.3</ele>
        <time>2023-05-18T08:13:30Z</time>
      </trkpt>
      <trkpt lat="49.66266" lon="-1.88082">
        <ele>126.5</ele>
        <time>2023-05-18T08:13:32Z</time>
      </trkpt>
      <trkpt lat="49.66243" lon="-1.88091">
        <ele>125.1</ele>
        <time>2023-05-18T08:13:34Z</time>
      </trkpt>
      <trkpt lat="49.66221" lon="-1.88103">
        <ele>123.9</ele>
        <time>2023-05-18T08:13:36Z</time>
      </trkpt>
      <trkpt lat="49.66201" lon="-1.88118">
        <ele>122.8</ele>
        <time>2023-05-18T08:13:38Z</time>
      </trkpt>
      <trkpt lat="49.66184" lon="-1.88129">
        <ele>121.6</ele>
        <time>2023-05-18T08:13:40Z</time>
      </trkpt>
      <trkpt lat="49.6616" lon="-1.88147">
        <ele>119.6</ele>
        <time>2023-05-18T08:13:43Z</time>
      </trkpt>
      <trkpt lat="49.66142" lon="-1.88177">
        <ele>117.2</ele>
        <time>2023-05-18T08:13:46Z</time>
      </trkpt>
      <trkpt lat="49.66123" lon="-1.88204">
        <ele>114.6</ele>
        <time>2023-05-18T08:13:49Z</time>
      </trkpt>
      <trkpt lat="49.66106" lon="-1.88227">
        <ele>112.1</ele>
        <time>2023-05-18T08:13:52Z</time>
      </trkpt>
      <trkpt lat="49.66092" lon="-1.88247">
        <ele>109.6</ele>
        <time>2023-05-18T08:13:55Z</time>
      </trkpt>
      <trkpt lat="49.66075" lon="-1.88234">
        <ele>105.8</ele>
        <time>2023-05-18T08:14:00Z</time>
      </trkpt>
      <trkpt lat="49.66071" lon="-1.882">
        <ele>101.7</ele>
        <time>2023-05-18T08:14:04Z</time>
      </trkpt>
      <trkpt lat="49.66069" lon="-1.88164">
        <ele>98.6</ele>
        <time>2023-05-18T08:14:09Z</time>
      </trkpt>
      <trkpt lat="49.66059" lon="-1.88131">
        <ele>96</ele>
        <time>2023-05-18T08:14:12Z</time>
      </trkpt>
      <trkpt lat="49.66053" lon="-1.88103">
        <ele>93.9</ele>
        <time>2023-05-18T08:14:14Z</time>
      </trkpt>
      <trkpt lat="49.66046" lon="-1.88072">
        <ele>91.4</ele>
        <time>2023-05-18T08:14:16Z</time>
      </trkpt>
      <trkpt lat="49.6604" lon="-1.8804">
        <ele>88.3</ele>
        <time>2023-05-18T08:14:18Z</time>
      </trkpt>
      <trkpt lat="49.66041" lon="-1.88003">
        <ele>85.1</ele>
        <time>2023-05-18T08:14:20Z</time>
      </trkpt>
      <trkpt lat="49.66042" lon="-1.87967">
        <ele>82.7</ele>
        <time>2023-05-18T08:14:22Z</time>
      </trkpt>
      <trkpt lat="49.6604" lon="-1.8793">
        <ele>80.3</ele>
        <time>2023-05-18T08:14:24Z</time>
      </trkpt>
      <trkpt lat="49.66035" lon="-1.87894">
        <ele>77.9</ele>
        <time>2023-05-18T08:14:26Z</time>
      </trkpt>
      <trkpt lat="49.66027" lon="-1.87859">
        <ele>75.3</ele>
        <time>2023-05-18T08:14:28Z</time>
      </trkpt>
      <trkpt lat="49.66019" lon="-1.87822">
        <ele>72.7</ele>
        <time>2023-05-18T08:14:30Z</time>
      </trkpt>
      <trkpt lat="49.66013" lon="-1.87782">
        <ele>70.2</ele>
        <time>2023-05-18T08:14:32Z</time>
      </trkpt>
      <trkpt lat="49.66005" lon="-1.87742">
        <ele>67.3</ele>
        <time>2023-05-18T08:14:34Z</time>
      </trkpt>
      <trkpt lat="49.6599" lon="-1.8771">
        <ele>64.2</ele>
        <time>2023-05-18T08:14:36Z</time>
      </trkpt>
      <trkpt lat="49.65975" lon="-1.87678">
        <ele>60.9</ele>
        <time>2023-05-18T08:14:38Z</time>
      </trkpt>
      <trkpt lat="49.6596" lon="-1.87643">
        <ele>58.3</ele>
        <time>2023-05-18T08:14:40Z</time>
      </trkpt>
      <trkpt lat="49.65945" lon="-1.87607">
        <ele>56.7</ele>
        <time>2023-05-18T08:14:42Z</time>
      </trkpt>
      <trkpt lat="49.65936" lon="-1.87571">
        <ele>56.1</ele>
        <time>2023-05-18T08:14:44Z</time>
      </trkpt>
      <trkpt lat="49.65926" lon="-1.87537">
        <ele>55.5</ele>
        <time>2023-05-18T08:14:46Z</time>
      </trkpt>
      <trkpt lat="49.65915" lon="-1.87507">
        <ele>54.5</ele>
        <time>2023-05-18T08:14:48Z</time>
      </trkpt>
      <trkpt lat="49.65902" lon="-1.87477">
        <ele>52.5</ele>
        <time>2023-05-18T08:14:50Z</time>
      </trkpt>
      <trkpt lat="49.6589" lon="-1.8745">
        <ele>49.9</ele>
        <time>2023-05-18T08:14:52Z</time>
      </trkpt>
      <trkpt lat="49.65877" lon="-1.87426">
        <ele>46.9</ele>
        <time>2023-05-18T08:14:54Z</time>
      </trkpt>
      <trkpt lat="49.65862" lon="-1.87404">
        <ele>43.2</ele>
        <time>2023-05-18T08:14:56Z</time>
      </trkpt>
      <trkpt lat="49.65847" lon="-1.8738">
        <ele>39.7</ele>
        <time>2023-05-18T08:14:58Z</time>
      </trkpt>
      <trkpt lat="49.65836" lon="-1.87356">
        <ele>37.2</ele>
        <time>2023-05-18T08:15:00Z</time>
      </trkpt>
      <trkpt lat="49.65831" lon="-1.87329">
        <ele>35.4</ele>
        <time>2023-05-18T08:15:02Z</time>
      </trkpt>
      <trkpt lat="49.65834" lon="-1.87288">
        <ele>33.9</ele>
        <time>2023-05-18T08:15:05Z</time>
      </trkpt>
      <trkpt lat="49.65841" lon="-1.87252">
        <ele>32.9</ele>
        <time>2023-05-18T08:15:08Z</time>
      </trkpt>
      <trkpt lat="49.65853" lon="-1.87224">
        <ele>32.4</ele>
        <time>2023-05-18T08:15:11Z</time>
      </trkpt>
      <trkpt lat="49.65871" lon="-1.87206">
        <ele>33.8</ele>
        <time>2023-05-18T08:15:15Z</time>
      </trkpt>
      <trkpt lat="49.65889" lon="-1.87196">
        <ele>35.5</ele>
        <time>2023-05-18T08:15:22Z</time>
      </trkpt>
      <trkpt lat="49.65905" lon="-1.87182">
        <ele>37.4</ele>
        <time>2023-05-18T08:15:33Z</time>
      </trkpt>
      <trkpt lat="49.65921" lon="-1.87168">
        <ele>39.4</ele>
        <time>2023-05-18T08:15:42Z</time>
      </trkpt>
      <trkpt lat="49.65939" lon="-1.87152">
        <ele>41.3</ele>
        <time>2023-05-18T08:15:52Z</time>
      </trkpt>
      <trkpt lat="49.65955" lon="-1.87135">
        <ele>43</ele>
        <time>2023-05-18T08:16:01Z</time>
      </trkpt>
      <trkpt lat="49.65973" lon="-1.87123">
        <ele>44.3</ele>
        <time>2023-05-18T08:16:09Z</time>
      </trkpt>
      <trkpt lat="49.65992" lon="-1.87119">
        <ele>45.2</ele>
        <time>2023-05-18T08:16:17Z</time>
      </trkpt>
      <trkpt lat="49.6601" lon="-1.87112">
        <ele>46</ele>
        <time>2023-05-18T08:16:24Z</time>
      </trkpt>
      <trkpt lat="49.6603" lon="-1.8711">
        <ele>47</ele>
        <time>2023-05-18T08:16:33Z</time>
      </trkpt>
      <trkpt lat="49.6605" lon="-1.8711">
        <ele>48.1</ele>
        <time>2023-05-18T08:16:41Z</time>
      </trkpt>
      <trkpt lat="49.6607" lon="-1.8711">
        <ele>49.5</ele>
        <time>2023-05-18T08:16:51Z</time>
      </trkpt>
      <trkpt lat="49.66089" lon="-1.87114">
        <ele>50.9</ele>
        <time>2023-05-18T08:17:00Z</time>
      </trkpt>
      <trkpt lat="49.66108" lon="-1.87118">
        <ele>52.4</ele>
        <time>2023-05-18T08:17:10Z</time>
      </trkpt>
      <trkpt lat="49.66128" lon="-1.87125">
        <ele>54</ele>
        <time>2023-05-18T08:17:19Z</time>
      </trkpt>
      <trkpt lat="49.66148" lon="-1.87123">
        <ele>55.6</ele>
        <time>2023-05-18T08:17:28Z</time>
      </trkpt>
      <trkpt lat="49.66164" lon="-1.87108">
        <ele>57</ele>
        <time>2023-05-18T08:17:37Z</time>
      </trkpt>
      <trkpt lat="49.66178" lon="-1.87089">
        <ele>58.1</ele>
        <time>2023-05-18T08:17:45Z</time>
      </trkpt>
      <trkpt lat="49.66191" lon="-1.87066">
        <ele>59.9</ele>
        <time>2023-05-18T08:17:56Z</time>
      </trkpt>
      <trkpt lat="49.66205" lon="-1.87047">
        <ele>62.1</ele>
        <time>2023-05-18T08:18:13Z</time>
      </trkpt>
      <trkpt lat="49.66218" lon="-1.87028">
        <ele>64.7</ele>
        <time>2023-05-18T08:18:32Z</time>
      </trkpt>
      <trkpt lat="49.66232" lon="-1.8701">
        <ele>67.6</ele>
        <time>2023-05-18T08:18:52Z</time>
      </trkpt>
      <trkpt lat="49.66248" lon="-1.86995">
        <ele>70.9</ele>
        <time>2023-05-18T08:19:11Z</time>
      </trkpt>
      <trkpt lat="49.66242" lon="-1.86968">
        <ele>74</ele>
        <time>2023-05-18T08:19:52Z</time>
      </trkpt>
      <trkpt lat="49.66224" lon="-1.86958">
        <ele>76.8</ele>
        <time>2023-05-18T08:20:02Z</time>
      </trkpt>
      <trkpt lat="49.66208" lon="-1.86942">
        <ele>78.9</ele>
        <time>2023-05-18T08:20:11Z</time>
      </trkpt>
      <trkpt lat="49.66202" lon="-1.86914">
        <ele>80.9</ele>
        <time>2023-05-18T08:20:21Z</time>
      </trkpt>
      <trkpt lat="49.66193" lon="-1.86888">
        <ele>82.8</ele>
        <time>2023-05-18T08:20:35Z</time>
      </trkpt>
      <trkpt lat="49.66192" lon="-1.86859">
        <ele>85.2</ele>
        <time>2023-05-18T08:20:55Z</time>
      </trkpt>
      <trkpt lat="49.66201" lon="-1.86834">
        <ele>88.1</ele>
        <time>2023-05-18T08:21:14Z</time>
      </trkpt>
      <trkpt lat="49.66215" lon="-1.86815">
        <ele>91.1</ele>
        <time>2023-05-18T08:21:33Z</time>
      </trkpt>
      <trkpt lat="49.66228" lon="-1.86795">
        <ele>93.9</ele>
        <time>2023-05-18T08:21:51Z</time>
      </trkpt>
      <trkpt lat="49.66239" lon="-1.86772">
        <ele>96.9</ele>
        <time>2023-05-18T08:22:10Z</time>
      </trkpt>
      <trkpt lat="49.66247" lon="-1.86746">
        <ele>99.7</ele>
        <time>2023-05-18T08:22:27Z</time>
      </trkpt>
      <trkpt lat="49.6625" lon="-1.86718">
        <ele>102.3</ele>
        <time>2023-05-18T08:22:47Z</time>
      </trkpt>
      <trkpt lat="49.66246" lon="-1.8669">
        <ele>105.1</ele>
        <time>2023-05-18T08:23:06Z</time>
      </trkpt>
      <trkpt lat="49.66243" lon="-1.86662">
        <ele>107.7</ele>
        <time>2023-05-18T08:23:22Z</time>
      </trkpt>
      <trkpt lat="49.66242" lon="-1.86633">
        <ele>110.4</ele>
        <time>2023-05-18T08:23:40Z</time>
      </trkpt>
      <trkpt lat="49.66247" lon="-1.86605">
        <ele>113</ele>
        <time>2023-05-18T08:23:58Z</time>
      </trkpt>
      <trkpt lat="49.66255" lon="-1.8658">
        <ele>115.4</ele>
        <time>2023-05-18T08:24:15Z</time>
      </trkpt>
      <trkpt lat="49.66265" lon="-1.86556">
        <ele>117.7</ele>
        <time>2023-05-18T08:24:33Z</time>
      </trkpt>
      <trkpt lat="49.6627" lon="-1.86528">
        <ele>119.8</ele>
        <time>2023-05-18T08:24:51Z</time>
      </trkpt>
      <trkpt lat="49.6627" lon="-1.86499">
        <ele>122.2</ele>
        <time>2023-05-18T08:25:08Z</time>
      </trkpt>
      <trkpt lat="49.66275" lon="-1.86471">
        <ele>124.3</ele>
        <time>2023-05-18T08:25:26Z</time>
      </trkpt>
      <trkpt lat="49.66281" lon="-1.86444">
        <ele>126.3</ele>
        <time>2023-05-18T08:25:42Z</time>
      </trkpt>
      <trkpt lat="49.66289" lon="-1.86419">
        <ele>128.2</ele>
        <time>2023-05-18T08:25:59Z</time>
      </trkpt>
      <trkpt lat="49.66292" lon="-1.86389">
        <ele>130.4</ele>
        <time>2023-05-18T08:26:20Z</time>
      </trkpt>
      <trkpt lat="49.66292" lon="-1.8636">
        <ele>132.5</ele>
        <time>2023-05-18T08:26:37Z</time>
      </trkpt>
      <trkpt lat="49.66287" lon="-1.86332">
        <ele>134.5</ele>
        <time>2023-05-18T08:26:53Z</time>
      </trkpt>
      <trkpt lat="49.66281" lon="-1.86305">
        <ele>136.6</ele>
        <time>2023-05-18T08:27:12Z</time>
      </trkpt>
      <trkpt lat="49.66271" lon="-1.86281">
        <ele>139.1</ele>
        <time>2023-05-18T08:27:29Z</time>
      </trkpt>
      <trkpt lat="49.66271" lon="-1.86252">
        <ele>141.6</ele>
        <time>2023-05-18T08:28:31Z</time>
      </trkpt>
      <trkpt lat="49.66261" lon="-1.86227">
        <ele>143.7</ele>
        <time>2023-05-18T08:35:20Z</time>
      </trkpt>
      <trkpt lat="49.66263" lon="-1.86197">
        <ele>145</ele>
        <time>2023-05-18T08:35:28Z</time>
      </trkpt>
      <trkpt lat="49.66263" lon="-1.86168">
        <ele>146.3</ele>
        <time>2023-05-18T08:35:37Z</time>
      </trkpt>
      <trkpt lat="49.66265" lon="-1.86139">
        <ele>147.5</ele>
        <time>2023-05-18T08:35:46Z</time>
      </trkpt>
      <trkpt lat="49.66266" lon="-1.8611">
        <ele>148.3</ele>
        <time>2023-05-18T08:35:54Z</time>
      </trkpt>
      <trkpt lat="49.66269" lon="-1.86079">
        <ele>148.9</ele>
        <time>2023-05-18T08:36:02Z</time>
      </trkpt>
      <trkpt lat="49.66269" lon="-1.8605">
        <ele>149.4</ele>
        <time>2023-05-18T08:36:08Z</time>
      </trkpt>
      <trkpt lat="49.66269" lon="-1.8602">
        <ele>150</ele>
        <time>2023-05-18T08:36:14Z</time>
      </trkpt>
      <trkpt lat="49.66273" lon="-1.85988">
        <ele>150.5</ele>
        <time>2023-05-18T08:36:21Z</time>
      </trkpt>
      <trkpt lat="49.66277" lon="-1.85956">
        <ele>150.8</ele>
        <time>2023-05-18T08:36:27Z</time>
      </trkpt>
      <trkpt lat="49.66281" lon="-1.85925">
        <ele>151.1</ele>
        <time>2023-05-18T08:36:33Z</time>
      </trkpt>
      <trkpt lat="49.66286" lon="-1.85893">
        <ele>151.4</ele>
        <time>2023-05-18T08:36:39Z</time>
      </trkpt>
      <trkpt lat="49.66292" lon="-1.85864">
        <ele>151.7</ele>
        <time>2023-05-18T08:36:45Z</time>
      </trkpt>
      <trkpt lat="49.66299" lon="-1.85833">
        <ele>152.1</ele>
        <time>2023-05-18T08:36:51Z</time>
      </trkpt>
      <trkpt lat="49.66314" lon="-1.85811">
        <ele>152.5</ele>
        <time>2023-05-18T08:36:57Z</time>
      </trkpt>
      <trkpt lat="49.66332" lon="-1.85794">
        <ele>152.9</ele>
        <time>2023-05-18T08:37:03Z</time>
      </trkpt>
      <trkpt lat="49.66346" lon="-1.85774">
        <ele>153.4</ele>
        <time>2023-05-18T08:37:09Z</time>
      </trkpt>
      <trkpt lat="49.66356" lon="-1.85748">
        <ele>154.1</ele>
        <time>2023-05-18T08:37:15Z</time>
      </trkpt>
      <trkpt lat="49.66366" lon="-1.85725">
        <ele>154.6</ele>
        <time>2023-05-18T08:37:21Z</time>
      </trkpt>
      <trkpt lat="49.66366" lon="-1.85696">
        <ele>155.1</ele>
        <time>2023-05-18T08:37:28Z</time>
      </trkpt>
      <trkpt lat="49.66347" lon="-1.85681">
        <ele>155.6</ele>
        <time>2023-05-18T08:37:34Z</time>
      </trkpt>
      <trkpt lat="49.66327" lon="-1.85674">
        <ele>156.2</ele>
        <time>2023-05-18T08:37:40Z</time>
      </trkpt>
      <trkpt lat="49.66308" lon="-1.85665">
        <ele>156.8</ele>
        <time>2023-05-18T08:37:47Z</time>
      </trkpt>
      <trkpt lat="49.66288" lon="-1.85664">
        <ele>157.6</ele>
        <time>2023-05-18T08:37:54Z</time>
      </trkpt>
      <trkpt lat="49.66269" lon="-1.85661">
        <ele>158.6</ele>
        <time>2023-05-18T08:38:00Z</time>
      </trkpt>
      <trkpt lat="49.6625" lon="-1.85658">
        <ele>159.8</ele>
        <time>2023-05-18T08:38:08Z</time>
      </trkpt>
      <trkpt lat="49.66231" lon="-1.85653">
        <ele>160.9</ele>
        <time>2023-05-18T08:38:15Z</time>
      </trkpt>
      <trkpt lat="49.6621" lon="-1.85647">
        <ele>162.1</ele>
        <time>2023-05-18T08:38:22Z</time>
      </trkpt>
      <trkpt lat="49.66191" lon="-1.85642">
        <ele>163.2</ele>
        <time>2023-05-18T08:38:29Z</time>
      </trkpt>
      <trkpt lat="49.6617" lon="-1.85638">
        <ele>164.4</ele>
        <time>2023-05-18T08:38:36Z</time>
      </trkpt>
      <trkpt lat="49.66151" lon="-1.85631">
        <ele>165.4</ele>
        <time>2023-05-18T08:38:42Z</time>
      </trkpt>
      <trkpt lat="49.66133" lon="-1.85626">
        <ele>166.3</ele>
        <time>2023-05-18T08:38:48Z</time>
      </trkpt>
      <trkpt lat="49.66114" lon="-1.85618">
        <ele>167.2</ele>
        <time>2023-05-18T08:38:54Z</time>
      </trkpt>
      <trkpt lat="49.66097" lon="-1.85607">
        <ele>168.1</ele>
        <time>2023-05-18T08:39:01Z</time>
      </trkpt>
      <trkpt lat="49.66099" lon="-1.85576">
        <ele>168.3</ele>
        <time>2023-05-18T08:39:09Z</time>
      </trkpt>
      <trkpt lat="49.66092" lon="-1.85544">
        <ele>166.6</ele>
        <time>2023-05-18T08:39:15Z</time>
      </trkpt>
      <trkpt lat="49.66078" lon="-1.85518">
        <ele>164.7</ele>
        <time>2023-05-18T08:39:19Z</time>
      </trkpt>
      <trkpt lat="49.66057" lon="-1.85503">
        <ele>163.2</ele>
        <time>2023-05-18T08:39:22Z</time>
      </trkpt>
      <trkpt lat="49.66035" lon="-1.85486">
        <ele>161.7</ele>
        <time>2023-05-18T08:39:25Z</time>
      </trkpt>
      <trkpt lat="49.66012" lon="-1.85468">
        <ele>160.4</ele>
        <time>2023-05-18T08:39:28Z</time>
      </trkpt>
      <trkpt lat="49.65987" lon="-1.85451">
        <ele>158.9</ele>
        <time>2023-05-18T08:39:31Z</time>
      </trkpt>
      <trkpt lat="49.6597" lon="-1.85439">
        <ele>158</ele>
        <time>2023-05-18T08:39:33Z</time>
      </trkpt>
      <trkpt lat="49.65952" lon="-1.85426">
        <ele>157</ele>
        <time>2023-05-18T08:39:35Z</time>
      </trkpt>
      <trkpt lat="49.65934" lon="-1.85414">
        <ele>156</ele>
        <time>2023-05-18T08:39:37Z</time>
      </trkpt>
      <trkpt lat="49.65917" lon="-1.854">
        <ele>154.9</ele>
        <time>2023-05-18T08:39:39Z</time>
      </trkpt>
      <trkpt lat="49.65898" lon="-1.85387">
        <ele>153.7</ele>
        <time>2023-05-18T08:39:41Z</time>
      </trkpt>
      <trkpt lat="49.65879" lon="-1.85374">
        <ele>152.6</ele>
        <time>2023-05-18T08:39:43Z</time>
      </trkpt>
      <trkpt lat="49.6586" lon="-1.8536">
        <ele>151.6</ele>
        <time>2023-05-18T08:39:45Z</time>
      </trkpt>
      <trkpt lat="49.65841" lon="-1.85347">
        <ele>150.8</ele>
        <time>2023-05-18T08:39:47Z</time>
      </trkpt>
      <trkpt lat="49.65823" lon="-1.85334">
        <ele>150</ele>
        <time>2023-05-18T08:39:49Z</time>
      </trkpt>
      <trkpt lat="49.65805" lon="-1.85319">
        <ele>149.4</ele>
        <time>2023-05-18T08:39:51Z</time>
      </trkpt>
      <trkpt lat="49.65787" lon="-1.85306">
        <ele>149</ele>
        <time>2023-05-18T08:39:53Z</time>
      </trkpt>
      <trkpt lat="49.6577" lon="-1.85293">
        <ele>148.6</ele>
        <time>2023-05-18T08:39:55Z</time>
      </trkpt>
      <trkpt lat="49.65753" lon="-1.85281">
        <ele>148.3</ele>
        <time>2023-05-18T08:39:57Z</time>
      </trkpt>
      <trkpt lat="49.65735" lon="-1.85271">
        <ele>148.1</ele>
        <time>2023-05-18T08:39:59Z</time>
      </trkpt>
      <trkpt lat="49.6571" lon="-1.85267">
        <ele>147.8</ele>
        <time>2023-05-18T08:40:02Z</time>
      </trkpt>
      <trkpt lat="49.65686" lon="-1.85265">
        <ele>147.1</ele>
        <time>2023-05-18T08:40:05Z</time>
      </trkpt>
      <trkpt lat="49.65662" lon="-1.85263">
        <ele>146.3</ele>
        <time>2023-05-18T08:40:08Z</time>
      </trkpt>
      <trkpt lat="49.65638" lon="-1.85263">
        <ele>145.4</ele>
        <time>2023-05-18T08:40:11Z</time>
      </trkpt>
      <trkpt lat="49.65612" lon="-1.85262">
        <ele>144.5</ele>
        <time>2023-05-18T08:40:14Z</time>
      </trkpt>
      <trkpt lat="49.65589" lon="-1.85262">
        <ele>144.1</ele>
        <time>2023-05-18T08:40:17Z</time>
      </trkpt>
      <trkpt lat="49.65565" lon="-1.8526">
        <ele>143.9</ele>
        <time>2023-05-18T08:40:20Z</time>
      </trkpt>
      <trkpt lat="49.65542" lon="-1.8526">
        <ele>144</ele>
        <time>2023-05-18T08:40:23Z</time>
      </trkpt>
      <trkpt lat="49.65523" lon="-1.85262">
        <ele>143.9</ele>
        <time>2023-05-18T08:40:26Z</time>
      </trkpt>
      <trkpt lat="49.65504" lon="-1.85267">
        <ele>143.7</ele>
        <time>2023-05-18T08:40:29Z</time>
      </trkpt>
      <trkpt lat="49.65483" lon="-1.85273">
        <ele>143.6</ele>
        <time>2023-05-18T08:40:32Z</time>
      </trkpt>
      <trkpt lat="49.65466" lon="-1.85287">
        <ele>143.5</ele>
        <time>2023-05-18T08:40:35Z</time>
      </trkpt>
      <trkpt lat="49.65451" lon="-1.85308">
        <ele>143.4</ele>
        <time>2023-05-18T08:40:38Z</time>
      </trkpt>
      <trkpt lat="49.65436" lon="-1.85325">
        <ele>143.3</ele>
        <time>2023-05-18T08:40:41Z</time>
      </trkpt>
      <trkpt lat="49.65419" lon="-1.85341">
        <ele>143</ele>
        <time>2023-05-18T08:40:44Z</time>
      </trkpt>
      <trkpt lat="49.654" lon="-1.85355">
        <ele>142.3</ele>
        <time>2023-05-18T08:40:47Z</time>
      </trkpt>
      <trkpt lat="49.65379" lon="-1.8537">
        <ele>141.5</ele>
        <time>2023-05-18T08:40:50Z</time>
      </trkpt>
      <trkpt lat="49.65358" lon="-1.85389">
        <ele>140.3</ele>
        <time>2023-05-18T08:40:53Z</time>
      </trkpt>
      <trkpt lat="49.65337" lon="-1.85403">
        <ele>139</ele>
        <time>2023-05-18T08:40:56Z</time>
      </trkpt>
      <trkpt lat="49.65319" lon="-1.85385">
        <ele>138.6</ele>
        <time>2023-05-18T08:40:59Z</time>
      </trkpt>
      <trkpt lat="49.65307" lon="-1.8536">
        <ele>138.6</ele>
        <time>2023-05-18T08:41:02Z</time>
      </trkpt>
      <trkpt lat="49.65295" lon="-1.85337">
        <ele>138.4</ele>
        <time>2023-05-18T08:41:05Z</time>
      </trkpt>
      <trkpt lat="49.65281" lon="-1.85311">
        <ele>137.8</ele>
        <time>2023-05-18T08:41:09Z</time>
      </trkpt>
      <trkpt lat="49.65266" lon="-1.85284">
        <ele>137.1</ele>
        <time>2023-05-18T08:41:13Z</time>
      </trkpt>
      <trkpt lat="49.65247" lon="-1.85264">
        <ele>135.8</ele>
        <time>2023-05-18T08:41:17Z</time>
      </trkpt>
      <trkpt lat="49.65229" lon="-1.85249">
        <ele>134.5</ele>
        <time>2023-05-18T08:41:20Z</time>
      </trkpt>
      <trkpt lat="49.65211" lon="-1.85233">
        <ele>132.8</ele>
        <time>2023-05-18T08:41:24Z</time>
      </trkpt>
      <trkpt lat="49.65193" lon="-1.85222">
        <ele>130.8</ele>
        <time>2023-05-18T08:41:28Z</time>
      </trkpt>
      <trkpt lat="49.65177" lon="-1.85209">
        <ele>129</ele>
        <time>2023-05-18T08:41:31Z</time>
      </trkpt>
      <trkpt lat="49.65162" lon="-1.85191">
        <ele>127.3</ele>
        <time>2023-05-18T08:41:35Z</time>
      </trkpt>
      <trkpt lat="49.65143" lon="-1.85169">
        <ele>125</ele>
        <time>2023-05-18T08:41:39Z</time>
      </trkpt>
      <trkpt lat="49.65127" lon="-1.85149">
        <ele>122.6</ele>
        <time>2023-05-18T08:41:43Z</time>
      </trkpt>
      <trkpt lat="49.65108" lon="-1.85131">
        <ele>119.9</ele>
        <time>2023-05-18T08:41:47Z</time>
      </trkpt>
      <trkpt lat="49.65097" lon="-1.85107">
        <ele>117.5</ele>
        <time>2023-05-18T08:41:50Z</time>
      </trkpt>
      <trkpt lat="49.65085" lon="-1.85082">
        <ele>114.8</ele>
        <time>2023-05-18T08:41:54Z</time>
      </trkpt>
      <trkpt lat="49.6507" lon="-1.85058">
        <ele>111.7</ele>
        <time>2023-05-18T08:41:58Z</time>
      </trkpt>
      <trkpt lat="49.65054" lon="-1.85073">
        <ele>109.2</ele>
        <time>2023-05-18T08:42:01Z</time>
      </trkpt>
      <trkpt lat="49.65048" lon="-1.85104">
        <ele>106.5</ele>
        <time>2023-05-18T08:42:05Z</time>
      </trkpt>
      <trkpt lat="49.65051" lon="-1.85132">
        <ele>104.1</ele>
        <time>2023-05-18T08:42:09Z</time>
      </trkpt>
      <trkpt lat="49.65049" lon="-1.85162">
        <ele>101.5</ele>
        <time>2023-05-18T08:42:12Z</time>
      </trkpt>
      <trkpt lat="49.6503" lon="-1.85178">
        <ele>98.6</ele>
        <time>2023-05-18T08:42:17Z</time>
      </trkpt>
      <trkpt lat="49.65011" lon="-1.85168">
        <ele>97</ele>
        <time>2023-05-18T08:42:20Z</time>
      </trkpt>
      <trkpt lat="49.64993" lon="-1.85156">
        <ele>95.9</ele>
        <time>2023-05-18T08:42:24Z</time>
      </trkpt>
      <trkpt lat="49.64976" lon="-1.85146">
        <ele>94.6</ele>
        <time>2023-05-18T08:42:28Z</time>
      </trkpt>
      <trkpt lat="49.64958" lon="-1.85139">
        <ele>92.6</ele>
        <time>2023-05-18T08:42:32Z</time>
      </trkpt>
      <trkpt lat="49.64935" lon="-1.85133">
        <ele>89.5</ele>
        <time>2023-05-18T08:42:36Z</time>
      </trkpt>
      <trkpt lat="49.64916" lon="-1.85128">
        <ele>86.5</ele>
        <time>2023-05-18T08:42:40Z</time>
      </trkpt>
      <trkpt lat="49.64894" lon="-1.85127">
        <ele>83.1</ele>
        <time>2023-05-18T08:42:44Z</time>
      </trkpt>
      <trkpt lat="49.64875" lon="-1.85128">
        <ele>79.4</ele>
        <time>2023-05-18T08:42:48Z</time>
      </trkpt>
      <trkpt lat="49.64854" lon="-1.85132">
        <ele>75.4</ele>
        <time>2023-05-18T08:42:52Z</time>
      </trkpt>
      <trkpt lat="49.64834" lon="-1.8513">
        <ele>71.8</ele>
        <time>2023-05-18T08:42:56Z</time>
      </trkpt>
      <trkpt lat="49.64812" lon="-1.85132">
        <ele>68.1</ele>
        <time>2023-05-18T08:43:00Z</time>
      </trkpt>
      <trkpt lat="49.64793" lon="-1.85135">
        <ele>64.5</ele>
        <time>2023-05-18T08:43:04Z</time>
      </trkpt>
      <trkpt lat="49.64771" lon="-1.85136">
        <ele>60.7</ele>
        <time>2023-05-18T08:43:09Z</time>
      </trkpt>
      <trkpt lat="49.64751" lon="-1.85139">
        <ele>57.2</ele>
        <time>2023-05-18T08:43:13Z</time>
      </trkpt>
      <trkpt lat="49.6473" lon="-1.85141">
        <ele>53.4</ele>
        <time>2023-05-18T08:43:17Z</time>
      </trkpt>
      <trkpt lat="49.64712" lon="-1.85139">
        <ele>50</ele>
        <time>2023-05-18T08:43:20Z</time>
      </trkpt>
      <trkpt lat="49.64691" lon="-1.85122">
        <ele>46</ele>
        <time>2023-05-18T08:43:24Z</time>
      </trkpt>
      <trkpt lat="49.64675" lon="-1.851">
        <ele>42.6</ele>
        <time>2023-05-18T08:43:28Z</time>
      </trkpt>
      <trkpt lat="49.64659" lon="-1.85088">
        <ele>40.2</ele>
        <time>2023-05-18T08:43:32Z</time>
      </trkpt>
      <trkpt lat="49.64639" lon="-1.85067">
        <ele>37.9</ele>
        <time>2023-05-18T08:43:36Z</time>
      </trkpt>
      <trkpt lat="49.64613" lon="-1.85059">
        <ele>35.2</ele>
        <time>2023-05-18T08:43:39Z</time>
      </trkpt>
      <trkpt lat="49.64593" lon="-1.85053">
        <ele>33.1</ele>
        <time>2023-05-18T08:43:41Z</time>
      </trkpt>
      <trkpt lat="49.64571" lon="-1.85049">
        <ele>31.1</ele>
        <time>2023-05-18T08:43:43Z</time>
      </trkpt>
      <trkpt lat="49.64548" lon="-1.85046">
        <ele>29.5</ele>
        <time>2023-05-18T08:43:45Z</time>
      </trkpt>
      <trkpt lat="49.64523" lon="-1.85045">
        <ele>28.2</ele>
        <time>2023-05-18T08:43:47Z</time>
      </trkpt>
      <trkpt lat="49.64501" lon="-1.85052">
        <ele>27.2</ele>
        <time>2023-05-18T08:43:49Z</time>
      </trkpt>
      <trkpt lat="49.64485" lon="-1.85074">
        <ele>26.3</ele>
        <time>2023-05-18T08:43:51Z</time>
      </trkpt>
      <trkpt lat="49.64468" lon="-1.85098">
        <ele>25.5</ele>
        <time>2023-05-18T08:43:53Z</time>
      </trkpt>
      <trkpt lat="49.64454" lon="-1.85122">
        <ele>25</ele>
        <time>2023-05-18T08:43:55Z</time>
      </trkpt>
      <trkpt lat="49.64433" lon="-1.85141">
        <ele>24.8</ele>
        <time>2023-05-18T08:43:58Z</time>
      </trkpt>
      <trkpt lat="49.64414" lon="-1.85134">
        <ele>24.8</ele>
        <time>2023-05-18T08:44:01Z</time>
      </trkpt>
      <trkpt lat="49.64394" lon="-1.85138">
        <ele>24.6</ele>
        <time>2023-05-18T08:44:04Z</time>
      </trkpt>
      <trkpt lat="49.64376" lon="-1.85151">
        <ele>24.3</ele>
        <time>2023-05-18T08:44:07Z</time>
      </trkpt>
      <trkpt lat="49.64355" lon="-1.85161">
        <ele>23.8</ele>
        <time>2023-05-18T08:44:10Z</time>
      </trkpt>
      <trkpt lat="49.64335" lon="-1.8515">
        <ele>23.4</ele>
        <time>2023-05-18T08:44:13Z</time>
      </trkpt>
      <trkpt lat="49.64315" lon="-1.85134">
        <ele>22.9</ele>
        <time>2023-05-18T08:44:16Z</time>
      </trkpt>
      <trkpt lat="49.64294" lon="-1.85118">
        <ele>22.6</ele>
        <time>2023-05-18T08:44:19Z</time>
      </trkpt>
      <trkpt lat="49.64276" lon="-1.851">
        <ele>22.2</ele>
        <time>2023-05-18T08:44:22Z</time>
      </trkpt>
      <trkpt lat="49.64258" lon="-1.85082">
        <ele>22</ele>
        <time>2023-05-18T08:44:25Z</time>
      </trkpt>
      <trkpt lat="49.6424" lon="-1.85061">
        <ele>21.8</ele>
        <time>2023-05-18T08:44:28Z</time>
      </trkpt>
      <trkpt lat="49.64223" lon="-1.85041">
        <ele>21.7</ele>
        <time>2023-05-18T08:44:31Z</time>
      </trkpt>
      <trkpt lat="49.64206" lon="-1.85023">
        <ele>21.7</ele>
        <time>2023-05-18T08:44:34Z</time>
      </trkpt>
      <trkpt lat="49.6419" lon="-1.85007">
        <ele>21.7</ele>
        <time>2023-05-18T08:44:37Z</time>
      </trkpt>
      <trkpt lat="49.64173" lon="-1.8499">
        <ele>21.7</ele>
        <time>2023-05-18T08:44:40Z</time>
      </trkpt>
      <trkpt lat="49.64155" lon="-1.84971">
        <ele>21.9</ele>
        <time>2023-05-18T08:44:43Z</time>
      </trkpt>
      <trkpt lat="49.64134" lon="-1.84954">
        <ele>22.1</ele>
        <time>2023-05-18T08:44:47Z</time>
      </trkpt>
      <trkpt lat="49.64119" lon="-1.84937">
        <ele>22.4</ele>
        <time>2023-05-18T08:44:50Z</time>
      </trkpt>
      <trkpt lat="49.64104" lon="-1.84921">
        <ele>22.5</ele>
        <time>2023-05-18T08:44:53Z</time>
      </trkpt>
      <trkpt lat="49.64086" lon="-1.84903">
        <ele>22.7</ele>
        <time>2023-05-18T08:44:57Z</time>
      </trkpt>
      <trkpt lat="49.64067" lon="-1.84884">
        <ele>22.9</ele>
        <time>2023-05-18T08:45:01Z</time>
      </trkpt>
      <trkpt lat="49.6405" lon="-1.84864">
        <ele>23</ele>
        <time>2023-05-18T08:45:05Z</time>
      </trkpt>
      <trkpt lat="49.64032" lon="-1.84844">
        <ele>23.1</ele>
        <time>2023-05-18T08:45:09Z</time>
      </trkpt>
      <trkpt lat="49.64012" lon="-1.84827">
        <ele>23.2</ele>
        <time>2023-05-18T08:45:13Z</time>
      </trkpt>
      <trkpt lat="49.6399" lon="-1.84816">
        <ele>23.5</ele>
        <time>2023-05-18T08:45:17Z</time>
      </trkpt>
      <trkpt lat="49.63969" lon="-1.84811">
        <ele>23.7</ele>
        <time>2023-05-18T08:45:21Z</time>
      </trkpt>
      <trkpt lat="49.63946" lon="-1.84806">
        <ele>23.9</ele>
        <time>2023-05-18T08:45:25Z</time>
      </trkpt>
      <trkpt lat="49.63927" lon="-1.848">
        <ele>24.1</ele>
        <time>2023-05-18T08:45:29Z</time>
      </trkpt>
      <trkpt lat="49.63906" lon="-1.84796">
        <ele>24</ele>
        <time>2023-05-18T08:45:33Z</time>
      </trkpt>
      <trkpt lat="49.63885" lon="-1.8479">
        <ele>23.3</ele>
        <time>2023-05-18T08:45:37Z</time>
      </trkpt>
      <trkpt lat="49.63866" lon="-1.84789">
        <ele>22.4</ele>
        <time>2023-05-18T08:45:40Z</time>
      </trkpt>
      <trkpt lat="49.63846" lon="-1.84789">
        <ele>21.2</ele>
        <time>2023-05-18T08:45:43Z</time>
      </trkpt>
      <trkpt lat="49.63823" lon="-1.84789">
        <ele>19.8</ele>
        <time>2023-05-18T08:45:46Z</time>
      </trkpt>
      <trkpt lat="49.63798" lon="-1.84788">
        <ele>18.4</ele>
        <time>2023-05-18T08:45:49Z</time>
      </trkpt>
      <trkpt lat="49.63772" lon="-1.84787">
        <ele>17.2</ele>
        <time>2023-05-18T08:45:52Z</time>
      </trkpt>
      <trkpt lat="49.63747" lon="-1.84778">
        <ele>16.8</ele>
        <time>2023-05-18T08:45:55Z</time>
      </trkpt>
      <trkpt lat="49.63729" lon="-1.84751">
        <ele>16.5</ele>
        <time>2023-05-18T08:45:58Z</time>
      </trkpt>
      <trkpt lat="49.63714" lon="-1.84722">
        <ele>16.2</ele>
        <time>2023-05-18T08:46:01Z</time>
      </trkpt>
      <trkpt lat="49.637" lon="-1.84695">
        <ele>16.1</ele>
        <time>2023-05-18T08:46:04Z</time>
      </trkpt>
      <trkpt lat="49.63688" lon="-1.84673">
        <ele>16.3</ele>
        <time>2023-05-18T08:46:07Z</time>
      </trkpt>
      <trkpt lat="49.63672" lon="-1.84652">
        <ele>16.6</ele>
        <time>2023-05-18T08:46:11Z</time>
      </trkpt>
      <trkpt lat="49.6365" lon="-1.84658">
        <ele>15.9</ele>
        <time>2023-05-18T08:46:15Z</time>
      </trkpt>
      <trkpt lat="49.63627" lon="-1.8466">
        <ele>15.9</ele>
        <time>2023-05-18T08:46:19Z</time>
      </trkpt>
      <trkpt lat="49.63606" lon="-1.84658">
        <ele>16.1</ele>
        <time>2023-05-18T08:46:23Z</time>
      </trkpt>
      <trkpt lat="49.63584" lon="-1.84655">
        <ele>16.6</ele>
        <time>2023-05-18T08:46:27Z</time>
      </trkpt>
      <trkpt lat="49.63565" lon="-1.84648">
        <ele>17.3</ele>
        <time>2023-05-18T08:46:31Z</time>
      </trkpt>
      <trkpt lat="49.63547" lon="-1.84646">
        <ele>17.9</ele>
        <time>2023-05-18T08:46:36Z</time>
      </trkpt>
      <trkpt lat="49.63566" lon="-1.84644">
        <ele>17.2</ele>
        <time>2023-05-18T08:47:54Z</time>
      </trkpt>
      <trkpt lat="49.6359" lon="-1.84651">
        <ele>16.5</ele>
        <time>2023-05-18T08:47:58Z</time>
      </trkpt>
      <trkpt lat="49.63613" lon="-1.84654">
        <ele>16</ele>
        <time>2023-05-18T08:48:02Z</time>
      </trkpt>
      <trkpt lat="49.63636" lon="-1.84656">
        <ele>15.8</ele>
        <time>2023-05-18T08:48:06Z</time>
      </trkpt>
      <trkpt lat="49.63657" lon="-1.84655">
        <ele>16</ele>
        <time>2023-05-18T08:48:10Z</time>
      </trkpt>
      <trkpt lat="49.63657" lon="-1.84624">
        <ele>16.9</ele>
        <time>2023-05-18T08:48:21Z</time>
      </trkpt>
      <trkpt lat="49.63643" lon="-1.84606">
        <ele>17.3</ele>
        <time>2023-05-18T08:48:26Z</time>
      </trkpt>
      <trkpt lat="49.6363" lon="-1.84585">
        <ele>18</ele>
        <time>2023-05-18T08:48:32Z</time>
      </trkpt>
      <trkpt lat="49.63625" lon="-1.84556">
        <ele>18.8</ele>
        <time>2023-05-18T08:48:38Z</time>
      </trkpt>
      <trkpt lat="49.6363" lon="-1.84527">
        <ele>19.7</ele>
        <time>2023-05-18T08:48:45Z</time>
      </trkpt>
      <trkpt lat="49.63622" lon="-1.845">
        <ele>20.4</ele>
        <time>2023-05-18T08:48:51Z</time>
      </trkpt>
      <trkpt lat="49.63608" lon="-1.8448">
        <ele>21.2</ele>
        <time>2023-05-18T08:48:58Z</time>
      </trkpt>
      <trkpt lat="49.63591" lon="-1.84466">
        <ele>22.3</ele>
        <time>2023-05-18T08:49:06Z</time>
      </trkpt>
      <trkpt lat="49.63576" lon="-1.84449">
        <ele>23.3</ele>
        <time>2023-05-18T08:49:13Z</time>
      </trkpt>
      <trkpt lat="49.6356" lon="-1.84431">
        <ele>24.3</ele>
        <time>2023-05-18T08:49:21Z</time>
      </trkpt>
      <trkpt lat="49.63547" lon="-1.84412">
        <ele>25.2</ele>
        <time>2023-05-18T08:49:28Z</time>
      </trkpt>
      <trkpt lat="49.63533" lon="-1.84394">
        <ele>26.2</ele>
        <time>2023-05-18T08:49:35Z</time>
      </trkpt>
      <trkpt lat="49.63522" lon="-1.8437">
        <ele>27.1</ele>
        <time>2023-05-18T08:49:43Z</time>
      </trkpt>
      <trkpt lat="49.63513" lon="-1.84347">
        <ele>27.8</ele>
        <time>2023-05-18T08:49:49Z</time>
      </trkpt>
      <trkpt lat="49.63503" lon="-1.84322">
        <ele>28.6</ele>
        <time>2023-05-18T08:49:56Z</time>
      </trkpt>
      <trkpt lat="49.63493" lon="-1.84298">
        <ele>29.2</ele>
        <time>2023-05-18T08:50:02Z</time>
      </trkpt>
      <trkpt lat="49.63483" lon="-1.84273">
        <ele>30</ele>
        <time>2023-05-18T08:50:09Z</time>
      </trkpt>
      <trkpt lat="49.63472" lon="-1.84249">
        <ele>30.8</ele>
        <time>2023-05-18T08:50:16Z</time>
      </trkpt>
      <trkpt lat="49.63463" lon="-1.84222">
        <ele>31.8</ele>
        <time>2023-05-18T08:50:24Z</time>
      </trkpt>
      <trkpt lat="49.63451" lon="-1.84195">
        <ele>32.9</ele>
        <time>2023-05-18T08:51:33Z</time>
      </trkpt>
      <trkpt lat="49.6344" lon="-1.84171">
        <ele>33.9</ele>
        <time>2023-05-18T08:51:38Z</time>
      </trkpt>
      <trkpt lat="49.63429" lon="-1.84147">
        <ele>35.1</ele>
        <time>2023-05-18T08:51:44Z</time>
      </trkpt>
      <trkpt lat="49.63418" lon="-1.84125">
        <ele>36.4</ele>
        <time>2023-05-18T08:51:51Z</time>
      </trkpt>
      <trkpt lat="49.63404" lon="-1.84104">
        <ele>38</ele>
        <time>2023-05-18T08:51:58Z</time>
      </trkpt>
      <trkpt lat="49.63388" lon="-1.84087">
        <ele>39.8</ele>
        <time>2023-05-18T08:52:07Z</time>
      </trkpt>
      <trkpt lat="49.63377" lon="-1.8411">
        <ele>44.7</ele>
        <time>2023-05-18T08:52:45Z</time>
      </trkpt>
      <trkpt lat="49.63378" lon="-1.84139">
        <ele>46.6</ele>
        <time>2023-05-18T08:53:03Z</time>
      </trkpt>
      <trkpt lat="49.6338" lon="-1.84167">
        <ele>48.7</ele>
        <time>2023-05-18T08:53:20Z</time>
      </trkpt>
      <trkpt lat="49.63378" lon="-1.84197">
        <ele>50.2</ele>
        <time>2023-05-18T08:53:42Z</time>
      </trkpt>
      <trkpt lat="49.63371" lon="-1.84224">
        <ele>50.3</ele>
        <time>2023-05-18T08:53:51Z</time>
      </trkpt>
      <trkpt lat="49.63355" lon="-1.84239">
        <ele>50.1</ele>
        <time>2023-05-18T08:53:56Z</time>
      </trkpt>
      <trkpt lat="49.63337" lon="-1.84246">
        <ele>50</ele>
        <time>2023-05-18T08:54:00Z</time>
      </trkpt>
      <trkpt lat="49.63318" lon="-1.84253">
        <ele>50.2</ele>
        <time>2023-05-18T08:54:04Z</time>
      </trkpt>
      <trkpt lat="49.63298" lon="-1.84251">
        <ele>50.7</ele>
        <time>2023-05-18T08:54:09Z</time>
      </trkpt>
      <trkpt lat="49.63279" lon="-1.84252">
        <ele>51.3</ele>
        <time>2023-05-18T08:54:13Z</time>
      </trkpt>
      <trkpt lat="49.63261" lon="-1.84249">
        <ele>51.9</ele>
        <time>2023-05-18T08:54:18Z</time>
      </trkpt>
      <trkpt lat="49.63242" lon="-1.84247">
        <ele>52.6</ele>
        <time>2023-05-18T08:54:23Z</time>
      </trkpt>
      <trkpt lat="49.63224" lon="-1.84236">
        <ele>53.4</ele>
        <time>2023-05-18T08:54:28Z</time>
      </trkpt>
      <trkpt lat="49.63206" lon="-1.84221">
        <ele>53.8</ele>
        <time>2023-05-18T08:54:34Z</time>
      </trkpt>
      <trkpt lat="49.63186" lon="-1.84212">
        <ele>53.7</ele>
        <time>2023-05-18T08:54:39Z</time>
      </trkpt>
      <trkpt lat="49.63165" lon="-1.84208">
        <ele>53.4</ele>
        <time>2023-05-18T08:54:43Z</time>
      </trkpt>
      <trkpt lat="49.63144" lon="-1.84204">
        <ele>52.9</ele>
        <time>2023-05-18T08:54:47Z</time>
      </trkpt>
      <trkpt lat="49.63121" lon="-1.84197">
        <ele>52.5</ele>
        <time>2023-05-18T08:54:51Z</time>
      </trkpt>
      <trkpt lat="49.63103" lon="-1.84193">
        <ele>52.5</ele>
        <time>2023-05-18T08:54:54Z</time>
      </trkpt>
      <trkpt lat="49.6308" lon="-1.84186">
        <ele>52.7</ele>
        <time>2023-05-18T08:54:58Z</time>
      </trkpt>
      <trkpt lat="49.63059" lon="-1.8418">
        <ele>53.2</ele>
        <time>2023-05-18T08:55:02Z</time>
      </trkpt>
      <trkpt lat="49.6304" lon="-1.84174">
        <ele>53.5</ele>
        <time>2023-05-18T08:55:06Z</time>
      </trkpt>
      <trkpt lat="49.63022" lon="-1.84164">
        <ele>53.8</ele>
        <time>2023-05-18T08:55:10Z</time>
      </trkpt>
      <trkpt lat="49.63004" lon="-1.84156">
        <ele>54.1</ele>
        <time>2023-05-18T08:55:14Z</time>
      </trkpt>
      <trkpt lat="49.62986" lon="-1.84149">
        <ele>54.3</ele>
        <time>2023-05-18T08:55:18Z</time>
      </trkpt>
      <trkpt lat="49.62967" lon="-1.84142">
        <ele>54.4</ele>
        <time>2023-05-18T08:55:22Z</time>
      </trkpt>
      <trkpt lat="49.62947" lon="-1.84132">
        <ele>54.5</ele>
        <time>2023-05-18T08:55:26Z</time>
      </trkpt>
      <trkpt lat="49.6293" lon="-1.84117">
        <ele>54.8</ele>
        <time>2023-05-18T08:55:30Z</time>
      </trkpt>
      <trkpt lat="49.62913" lon="-1.84097">
        <ele>55.5</ele>
        <time>2023-05-18T08:55:35Z</time>
      </trkpt>
      <trkpt lat="49.62897" lon="-1.84076">
        <ele>56.1</ele>
        <time>2023-05-18T08:55:41Z</time>
      </trkpt>
      <trkpt lat="49.6288" lon="-1.8406">
        <ele>56.2</ele>
        <time>2023-05-18T08:55:46Z</time>
      </trkpt>
      <trkpt lat="49.62862" lon="-1.84046">
        <ele>56.1</ele>
        <time>2023-05-18T08:55:50Z</time>
      </trkpt>
      <trkpt lat="49.62844" lon="-1.84033">
        <ele>56.2</ele>
        <time>2023-05-18T08:55:54Z</time>
      </trkpt>
      <trkpt lat="49.62829" lon="-1.84016">
        <ele>56.6</ele>
        <time>2023-05-18T08:55:58Z</time>
      </trkpt>
      <trkpt lat="49.62814" lon="-1.83997">
        <ele>57</ele>
        <time>2023-05-18T08:56:03Z</time>
      </trkpt>
      <trkpt lat="49.62794" lon="-1.83983">
        <ele>57.2</ele>
        <time>2023-05-18T08:56:08Z</time>
      </trkpt>
      <trkpt lat="49.62776" lon="-1.83971">
        <ele>57.6</ele>
        <time>2023-05-18T08:56:12Z</time>
      </trkpt>
      <trkpt lat="49.62757" lon="-1.83957">
        <ele>58.2</ele>
        <time>2023-05-18T08:56:17Z</time>
      </trkpt>
      <trkpt lat="49.62738" lon="-1.83943">
        <ele>58.8</ele>
        <time>2023-05-18T08:56:23Z</time>
      </trkpt>
      <trkpt lat="49.6272" lon="-1.83928">
        <ele>59.5</ele>
        <time>2023-05-18T08:56:29Z</time>
      </trkpt>
      <trkpt lat="49.62703" lon="-1.83911">
        <ele>60</ele>
        <time>2023-05-18T08:56:35Z</time>
      </trkpt>
      <trkpt lat="49.62688" lon="-1.83893">
        <ele>60.1</ele>
        <time>2023-05-18T08:56:40Z</time>
      </trkpt>
      <trkpt lat="49.62671" lon="-1.83874">
        <ele>60.1</ele>
        <time>2023-05-18T08:56:45Z</time>
      </trkpt>
      <trkpt lat="49.62655" lon="-1.8386">
        <ele>60.2</ele>
        <time>2023-05-18T08:56:49Z</time>
      </trkpt>
      <trkpt lat="49.62638" lon="-1.83847">
        <ele>60</ele>
        <time>2023-05-18T08:56:53Z</time>
      </trkpt>
      <trkpt lat="49.62618" lon="-1.83842">
        <ele>59.6</ele>
        <time>2023-05-18T08:56:57Z</time>
      </trkpt>
      <trkpt lat="49.62597" lon="-1.83838">
        <ele>59.2</ele>
        <time>2023-05-18T08:57:01Z</time>
      </trkpt>
      <trkpt lat="49.62577" lon="-1.83831">
        <ele>59</ele>
        <time>2023-05-18T08:57:05Z</time>
      </trkpt>
      <trkpt lat="49.62558" lon="-1.83821">
        <ele>59</ele>
        <time>2023-05-18T08:57:09Z</time>
      </trkpt>
      <trkpt lat="49.6254" lon="-1.83808">
        <ele>59</ele>
        <time>2023-05-18T08:57:13Z</time>
      </trkpt>
      <trkpt lat="49.62524" lon="-1.83795">
        <ele>59</ele>
        <time>2023-05-18T08:57:17Z</time>
      </trkpt>
      <trkpt lat="49.62505" lon="-1.83787">
        <ele>58.7</ele>
        <time>2023-05-18T08:57:21Z</time>
      </trkpt>
      <trkpt lat="49.62482" lon="-1.83786">
        <ele>58.2</ele>
        <time>2023-05-18T08:57:25Z</time>
      </trkpt>
      <trkpt lat="49.62458" lon="-1.83782">
        <ele>57.5</ele>
        <time>2023-05-18T08:57:29Z</time>
      </trkpt>
      <trkpt lat="49.62442" lon="-1.8377">
        <ele>56.5</ele>
        <time>2023-05-18T08:57:32Z</time>
      </trkpt>
      <trkpt lat="49.62425" lon="-1.83754">
        <ele>54.3</ele>
        <time>2023-05-18T08:57:35Z</time>
      </trkpt>
      <trkpt lat="49.62405" lon="-1.83777">
        <ele>52.1</ele>
        <time>2023-05-18T08:57:38Z</time>
      </trkpt>
      <trkpt lat="49.62379" lon="-1.83769">
        <ele>50.8</ele>
        <time>2023-05-18T08:57:41Z</time>
      </trkpt>
      <trkpt lat="49.62355" lon="-1.83752">
        <ele>50.3</ele>
        <time>2023-05-18T08:57:44Z</time>
      </trkpt>
      <trkpt lat="49.62333" lon="-1.8374">
        <ele>50.1</ele>
        <time>2023-05-18T08:57:47Z</time>
      </trkpt>
      <trkpt lat="49.62311" lon="-1.83729">
        <ele>50.1</ele>
        <time>2023-05-18T08:57:50Z</time>
      </trkpt>
      <trkpt lat="49.6229" lon="-1.83715">
        <ele>50.5</ele>
        <time>2023-05-18T08:57:53Z</time>
      </trkpt>
      <trkpt lat="49.6227" lon="-1.83701">
        <ele>51.6</ele>
        <time>2023-05-18T08:57:56Z</time>
      </trkpt>
      <trkpt lat="49.62249" lon="-1.83704">
        <ele>53.3</ele>
        <time>2023-05-18T08:58:00Z</time>
      </trkpt>
      <trkpt lat="49.62228" lon="-1.83702">
        <ele>54.2</ele>
        <time>2023-05-18T08:58:06Z</time>
      </trkpt>
      <trkpt lat="49.62207" lon="-1.83694">
        <ele>55.9</ele>
        <time>2023-05-18T08:58:12Z</time>
      </trkpt>
      <trkpt lat="49.62188" lon="-1.83688">
        <ele>57.4</ele>
        <time>2023-05-18T08:58:18Z</time>
      </trkpt>
      <trkpt lat="49.62171" lon="-1.8368">
        <ele>59</ele>
        <time>2023-05-18T08:58:29Z</time>
      </trkpt>
      <trkpt lat="49.62154" lon="-1.83666">
        <ele>60.9</ele>
        <time>2023-05-18T08:58:46Z</time>
      </trkpt>
      <trkpt lat="49.62138" lon="-1.83651">
        <ele>63</ele>
        <time>2023-05-18T08:59:03Z</time>
      </trkpt>
      <trkpt lat="49.62123" lon="-1.83634">
        <ele>65.3</ele>
        <time>2023-05-18T08:59:20Z</time>
      </trkpt>
      <trkpt lat="49.6211" lon="-1.83614">
        <ele>67.7</ele>
        <time>2023-05-18T08:59:37Z</time>
      </trkpt>
      <trkpt lat="49.62099" lon="-1.83591">
        <ele>70.1</ele>
        <time>2023-05-18T08:59:54Z</time>
      </trkpt>
      <trkpt lat="49.62081" lon="-1.8359">
        <ele>72.2</ele>
        <time>2023-05-18T09:00:11Z</time>
      </trkpt>
      <trkpt lat="49.62064" lon="-1.83598">
        <ele>74.4</ele>
        <time>2023-05-18T09:00:29Z</time>
      </trkpt>
      <trkpt lat="49.62045" lon="-1.83595">
        <ele>76.6</ele>
        <time>2023-05-18T09:00:46Z</time>
      </trkpt>
      <trkpt lat="49.62027" lon="-1.83586">
        <ele>78.5</ele>
        <time>2023-05-18T09:01:02Z</time>
      </trkpt>
      <trkpt lat="49.6201" lon="-1.83576">
        <ele>80.7</ele>
        <time>2023-05-18T09:01:19Z</time>
      </trkpt>
      <trkpt lat="49.61993" lon="-1.83564">
        <ele>82.9</ele>
        <time>2023-05-18T09:01:36Z</time>
      </trkpt>
      <trkpt lat="49.61975" lon="-1.8355">
        <ele>84.9</ele>
        <time>2023-05-18T09:06:10Z</time>
      </trkpt>
      <trkpt lat="49.61957" lon="-1.83537">
        <ele>86.4</ele>
        <time>2023-05-18T09:06:19Z</time>
      </trkpt>
      <trkpt lat="49.61938" lon="-1.8353">
        <ele>87.8</ele>
        <time>2023-05-18T09:06:27Z</time>
      </trkpt>
      <trkpt lat="49.6192" lon="-1.83524">
        <ele>89.3</ele>
        <time>2023-05-18T09:06:35Z</time>
      </trkpt>
      <trkpt lat="49.61902" lon="-1.83516">
        <ele>92.1</ele>
        <time>2023-05-18T09:06:43Z</time>
      </trkpt>
      <trkpt lat="49.61916" lon="-1.83499">
        <ele>93.6</ele>
        <time>2023-05-18T09:06:58Z</time>
      </trkpt>
      <trkpt lat="49.61934" lon="-1.83503">
        <ele>95</ele>
        <time>2023-05-18T09:07:07Z</time>
      </trkpt>
      <trkpt lat="49.61953" lon="-1.83496">
        <ele>96.4</ele>
        <time>2023-05-18T09:07:16Z</time>
      </trkpt>
      <trkpt lat="49.61972" lon="-1.83488">
        <ele>97.7</ele>
        <time>2023-05-18T09:07:24Z</time>
      </trkpt>
      <trkpt lat="49.61991" lon="-1.83482">
        <ele>99.2</ele>
        <time>2023-05-18T09:07:33Z</time>
      </trkpt>
      <trkpt lat="49.6201" lon="-1.83476">
        <ele>101.2</ele>
        <time>2023-05-18T09:07:44Z</time>
      </trkpt>
      <trkpt lat="49.62023" lon="-1.83456">
        <ele>103.5</ele>
        <time>2023-05-18T09:07:56Z</time>
      </trkpt>
      <trkpt lat="49.62033" lon="-1.83432">
        <ele>105.8</ele>
        <time>2023-05-18T09:08:08Z</time>
      </trkpt>
      <trkpt lat="49.62044" lon="-1.83407">
        <ele>108.1</ele>
        <time>2023-05-18T09:08:25Z</time>
      </trkpt>
      <trkpt lat="49.62054" lon="-1.83383">
        <ele>110.1</ele>
        <time>2023-05-18T09:09:00Z</time>
      </trkpt>
      <trkpt lat="49.62065" lon="-1.8336">
        <ele>112.2</ele>
        <time>2023-05-18T09:09:18Z</time>
      </trkpt>
      <trkpt lat="49.62075" lon="-1.83337">
        <ele>114.1</ele>
        <time>2023-05-18T09:09:35Z</time>
      </trkpt>
      <trkpt lat="49.62086" lon="-1.83315">
        <ele>116.1</ele>
        <time>2023-05-18T09:09:52Z</time>
      </trkpt>
      <trkpt lat="49.62097" lon="-1.83292">
        <ele>118</ele>
        <time>2023-05-18T09:10:08Z</time>
      </trkpt>
      <trkpt lat="49.62108" lon="-1.83269">
        <ele>119.7</ele>
        <time>2023-05-18T09:10:26Z</time>
      </trkpt>
      <trkpt lat="49.62119" lon="-1.83245">
        <ele>121.4</ele>
        <time>2023-05-18T09:10:43Z</time>
      </trkpt>
      <trkpt lat="49.62131" lon="-1.83224">
        <ele>123</ele>
        <time>2023-05-18T09:11:00Z</time>
      </trkpt>
      <trkpt lat="49.6214" lon="-1.832">
        <ele>124.2</ele>
        <time>2023-05-18T09:11:24Z</time>
      </trkpt>
      <trkpt lat="49.62151" lon="-1.83175">
        <ele>125.4</ele>
        <time>2023-05-18T09:11:34Z</time>
      </trkpt>
      <trkpt lat="49.62163" lon="-1.83151">
        <ele>126.6</ele>
        <time>2023-05-18T09:11:42Z</time>
      </trkpt>
      <trkpt lat="49.62173" lon="-1.83128">
        <ele>127.7</ele>
        <time>2023-05-18T09:11:50Z</time>
      </trkpt>
      <trkpt lat="49.62184" lon="-1.83105">
        <ele>128.9</ele>
        <time>2023-05-18T09:11:59Z</time>
      </trkpt>
      <trkpt lat="49.62196" lon="-1.8308">
        <ele>130.4</ele>
        <time>2023-05-18T09:12:09Z</time>
      </trkpt>
      <trkpt lat="49.62206" lon="-1.83054">
        <ele>131.7</ele>
        <time>2023-05-18T09:12:19Z</time>
      </trkpt>
      <trkpt lat="49.62216" lon="-1.83029">
        <ele>132.6</ele>
        <time>2023-05-18T09:12:27Z</time>
      </trkpt>
      <trkpt lat="49.62227" lon="-1.83004">
        <ele>133.2</ele>
        <time>2023-05-18T09:12:35Z</time>
      </trkpt>
      <trkpt lat="49.62236" lon="-1.82979">
        <ele>133.8</ele>
        <time>2023-05-18T09:12:42Z</time>
      </trkpt>
      <trkpt lat="49.62244" lon="-1.82954">
        <ele>134.3</ele>
        <time>2023-05-18T09:12:49Z</time>
      </trkpt>
      <trkpt lat="49.62253" lon="-1.8293">
        <ele>134.7</ele>
        <time>2023-05-18T09:12:56Z</time>
      </trkpt>
      <trkpt lat="49.62262" lon="-1.82902">
        <ele>135.2</ele>
        <time>2023-05-18T09:13:03Z</time>
      </trkpt>
      <trkpt lat="49.62271" lon="-1.82876">
        <ele>135.6</ele>
        <time>2023-05-18T09:13:10Z</time>
      </trkpt>
      <trkpt lat="49.6228" lon="-1.82849">
        <ele>136</ele>
        <time>2023-05-18T09:13:17Z</time>
      </trkpt>
      <trkpt lat="49.62288" lon="-1.82819">
        <ele>136.4</ele>
        <time>2023-05-18T09:13:24Z</time>
      </trkpt>
      <trkpt lat="49.62294" lon="-1.8279">
        <ele>136.7</ele>
        <time>2023-05-18T09:13:31Z</time>
      </trkpt>
      <trkpt lat="49.62299" lon="-1.82761">
        <ele>137</ele>
        <time>2023-05-18T09:13:38Z</time>
      </trkpt>
      <trkpt lat="49.62304" lon="-1.82731">
        <ele>137.3</ele>
        <time>2023-05-18T09:13:45Z</time>
      </trkpt>
      <trkpt lat="49.62309" lon="-1.82701">
        <ele>137.6</ele>
        <time>2023-05-18T09:13:51Z</time>
      </trkpt>
      <trkpt lat="49.62314" lon="-1.82672">
        <ele>137.8</ele>
        <time>2023-05-18T09:13:57Z</time>
      </trkpt>
      <trkpt lat="49.62319" lon="-1.82642">
        <ele>138.2</ele>
        <time>2023-05-18T09:14:03Z</time>
      </trkpt>
      <trkpt lat="49.62324" lon="-1.82613">
        <ele>138.6</ele>
        <time>2023-05-18T09:14:09Z</time>
      </trkpt>
      <trkpt lat="49.62329" lon="-1.82583">
        <ele>139</ele>
        <time>2023-05-18T09:14:15Z</time>
      </trkpt>
      <trkpt lat="49.62323" lon="-1.82554">
        <ele>139.1</ele>
        <time>2023-05-18T09:14:22Z</time>
      </trkpt>
      <trkpt lat="49.6232" lon="-1.82526">
        <ele>139.2</ele>
        <time>2023-05-18T09:14:27Z</time>
      </trkpt>
      <trkpt lat="49.62317" lon="-1.82497">
        <ele>139.3</ele>
        <time>2023-05-18T09:14:32Z</time>
      </trkpt>
      <trkpt lat="49.62312" lon="-1.8247">
        <ele>139.4</ele>
        <time>2023-05-18T09:14:36Z</time>
      </trkpt>
      <trkpt lat="49.62307" lon="-1.82436">
        <ele>139.5</ele>
        <time>2023-05-18T09:14:42Z</time>
      </trkpt>
      <trkpt lat="49.62302" lon="-1.82408">
        <ele>139.5</ele>
        <time>2023-05-18T09:14:46Z</time>
      </trkpt>
      <trkpt lat="49.62296" lon="-1.82377">
        <ele>139.5</ele>
        <time>2023-05-18T09:14:51Z</time>
      </trkpt>
      <trkpt lat="49.62291" lon="-1.82348">
        <ele>139.3</ele>
        <time>2023-05-18T09:14:55Z</time>
      </trkpt>
      <trkpt lat="49.62285" lon="-1.82314">
        <ele>139</ele>
        <time>2023-05-18T09:14:59Z</time>
      </trkpt>
      <trkpt lat="49.62276" lon="-1.82288">
        <ele>138.8</ele>
        <time>2023-05-18T09:15:03Z</time>
      </trkpt>
      <trkpt lat="49.62258" lon="-1.82276">
        <ele>138.6</ele>
        <time>2023-05-18T09:15:06Z</time>
      </trkpt>
      <trkpt lat="49.62237" lon="-1.82275">
        <ele>138.5</ele>
        <time>2023-05-18T09:15:10Z</time>
      </trkpt>
      <trkpt lat="49.62216" lon="-1.82279">
        <ele>138.3</ele>
        <time>2023-05-18T09:15:14Z</time>
      </trkpt>
      <trkpt lat="49.62196" lon="-1.8228">
        <ele>138.2</ele>
        <time>2023-05-18T09:15:18Z</time>
      </trkpt>
      <trkpt lat="49.62174" lon="-1.82288">
        <ele>137.9</ele>
        <time>2023-05-18T09:15:22Z</time>
      </trkpt>
      <trkpt lat="49.62156" lon="-1.82293">
        <ele>137.5</ele>
        <time>2023-05-18T09:15:25Z</time>
      </trkpt>
      <trkpt lat="49.62138" lon="-1.82299">
        <ele>137.1</ele>
        <time>2023-05-18T09:15:28Z</time>
      </trkpt>
      <trkpt lat="49.6212" lon="-1.82307">
        <ele>136.7</ele>
        <time>2023-05-18T09:15:31Z</time>
      </trkpt>
      <trkpt lat="49.62103" lon="-1.82317">
        <ele>136.3</ele>
        <time>2023-05-18T09:15:34Z</time>
      </trkpt>
      <trkpt lat="49.62083" lon="-1.82327">
        <ele>135.9</ele>
        <time>2023-05-18T09:15:38Z</time>
      </trkpt>
      <trkpt lat="49.62065" lon="-1.82336">
        <ele>135.6</ele>
        <time>2023-05-18T09:15:41Z</time>
      </trkpt>
      <trkpt lat="49.62047" lon="-1.82344">
        <ele>135.3</ele>
        <time>2023-05-18T09:15:44Z</time>
      </trkpt>
      <trkpt lat="49.62027" lon="-1.82348">
        <ele>134.9</ele>
        <time>2023-05-18T09:15:47Z</time>
      </trkpt>
      <trkpt lat="49.62007" lon="-1.82348">
        <ele>134.6</ele>
        <time>2023-05-18T09:15:50Z</time>
      </trkpt>
      <trkpt lat="49.61987" lon="-1.82343">
        <ele>134.3</ele>
        <time>2023-05-18T09:15:53Z</time>
      </trkpt>
      <trkpt lat="49.6197" lon="-1.82332">
        <ele>134.1</ele>
        <time>2023-05-18T09:15:56Z</time>
      </trkpt>
      <trkpt lat="49.61953" lon="-1.8232">
        <ele>134</ele>
        <time>2023-05-18T09:15:59Z</time>
      </trkpt>
      <trkpt lat="49.61936" lon="-1.82307">
        <ele>133.9</ele>
        <time>2023-05-18T09:16:02Z</time>
      </trkpt>
      <trkpt lat="49.61919" lon="-1.82297">
        <ele>133.8</ele>
        <time>2023-05-18T09:16:05Z</time>
      </trkpt>
      <trkpt lat="49.61902" lon="-1.8229">
        <ele>133.6</ele>
        <time>2023-05-18T09:16:08Z</time>
      </trkpt>
      <trkpt lat="49.61878" lon="-1.82283">
        <ele>133.3</ele>
        <time>2023-05-18T09:16:12Z</time>
      </trkpt>
      <trkpt lat="49.61859" lon="-1.82277">
        <ele>132.8</ele>
        <time>2023-05-18T09:16:15Z</time>
      </trkpt>
      <trkpt lat="49.6184" lon="-1.82271">
        <ele>132.4</ele>
        <time>2023-05-18T09:16:18Z</time>
      </trkpt>
      <trkpt lat="49.61821" lon="-1.82267">
        <ele>132.2</ele>
        <time>2023-05-18T09:16:21Z</time>
      </trkpt>
      <trkpt lat="49.61798" lon="-1.82264">
        <ele>131.9</ele>
        <time>2023-05-18T09:16:25Z</time>
      </trkpt>
      <trkpt lat="49.61779" lon="-1.82262">
        <ele>131.6</ele>
        <time>2023-05-18T09:16:28Z</time>
      </trkpt>
      <trkpt lat="49.6176" lon="-1.82261">
        <ele>131.5</ele>
        <time>2023-05-18T09:16:31Z</time>
      </trkpt>
      <trkpt lat="49.61741" lon="-1.82265">
        <ele>131.3</ele>
        <time>2023-05-18T09:16:34Z</time>
      </trkpt>
      <trkpt lat="49.61723" lon="-1.82274">
        <ele>131.1</ele>
        <time>2023-05-18T09:16:37Z</time>
      </trkpt>
      <trkpt lat="49.61706" lon="-1.82284">
        <ele>131.1</ele>
        <time>2023-05-18T09:16:40Z</time>
      </trkpt>
      <trkpt lat="49.61685" lon="-1.82296">
        <ele>131.2</ele>
        <time>2023-05-18T09:16:44Z</time>
      </trkpt>
      <trkpt lat="49.61666" lon="-1.82303">
        <ele>131.2</ele>
        <time>2023-05-18T09:16:48Z</time>
      </trkpt>
      <trkpt lat="49.61649" lon="-1.8231">
        <ele>131.1</ele>
        <time>2023-05-18T09:16:51Z</time>
      </trkpt>
      <trkpt lat="49.6163" lon="-1.82313">
        <ele>131.1</ele>
        <time>2023-05-18T09:16:54Z</time>
      </trkpt>
      <trkpt lat="49.61611" lon="-1.82314">
        <ele>131.3</ele>
        <time>2023-05-18T09:16:57Z</time>
      </trkpt>
      <trkpt lat="49.61594" lon="-1.82308">
        <ele>131.3</ele>
        <time>2023-05-18T09:17:00Z</time>
      </trkpt>
      <trkpt lat="49.61572" lon="-1.82298">
        <ele>131</ele>
        <time>2023-05-18T09:17:04Z</time>
      </trkpt>
      <trkpt lat="49.6155" lon="-1.82289">
        <ele>130.6</ele>
        <time>2023-05-18T09:17:08Z</time>
      </trkpt>
      <trkpt lat="49.61531" lon="-1.82281">
        <ele>130</ele>
        <time>2023-05-18T09:17:12Z</time>
      </trkpt>
      <trkpt lat="49.61508" lon="-1.82268">
        <ele>129.1</ele>
        <time>2023-05-18T09:17:16Z</time>
      </trkpt>
      <trkpt lat="49.61487" lon="-1.82258">
        <ele>128.2</ele>
        <time>2023-05-18T09:17:20Z</time>
      </trkpt>
      <trkpt lat="49.61468" lon="-1.82244">
        <ele>127.5</ele>
        <time>2023-05-18T09:17:23Z</time>
      </trkpt>
      <trkpt lat="49.61451" lon="-1.82232">
        <ele>126.8</ele>
        <time>2023-05-18T09:17:26Z</time>
      </trkpt>
      <trkpt lat="49.61432" lon="-1.8222">
        <ele>126.1</ele>
        <time>2023-05-18T09:17:29Z</time>
      </trkpt>
      <trkpt lat="49.61417" lon="-1.82205">
        <ele>125.5</ele>
        <time>2023-05-18T09:17:32Z</time>
      </trkpt>
      <trkpt lat="49.61399" lon="-1.82185">
        <ele>124.6</ele>
        <time>2023-05-18T09:17:35Z</time>
      </trkpt>
      <trkpt lat="49.61381" lon="-1.82169">
        <ele>123.9</ele>
        <time>2023-05-18T09:17:38Z</time>
      </trkpt>
      <trkpt lat="49.61361" lon="-1.82163">
        <ele>123.3</ele>
        <time>2023-05-18T09:17:41Z</time>
      </trkpt>
      <trkpt lat="49.61343" lon="-1.82159">
        <ele>123</ele>
        <time>2023-05-18T09:17:48Z</time>
      </trkpt>
      <trkpt lat="49.61342" lon="-1.82125">
        <ele>122.2</ele>
        <time>2023-05-18T09:17:53Z</time>
      </trkpt>
      <trkpt lat="49.6134" lon="-1.82095">
        <ele>121.8</ele>
        <time>2023-05-18T09:17:57Z</time>
      </trkpt>
      <trkpt lat="49.61337" lon="-1.82063">
        <ele>121.6</ele>
        <time>2023-05-18T09:18:01Z</time>
      </trkpt>
      <trkpt lat="49.61334" lon="-1.82029">
        <ele>121.3</ele>
        <time>2023-05-18T09:18:05Z</time>
      </trkpt>
      <trkpt lat="49.61336" lon="-1.81993">
        <ele>120.8</ele>
        <time>2023-05-18T09:18:09Z</time>
      </trkpt>
      <trkpt lat="49.61338" lon="-1.81965">
        <ele>120.4</ele>
        <time>2023-05-18T09:18:12Z</time>
      </trkpt>
      <trkpt lat="49.61341" lon="-1.81933">
        <ele>119.9</ele>
        <time>2023-05-18T09:18:16Z</time>
      </trkpt>
      <trkpt lat="49.61345" lon="-1.81897">
        <ele>119.1</ele>
        <time>2023-05-18T09:18:20Z</time>
      </trkpt>
      <trkpt lat="49.61349" lon="-1.81866">
        <ele>118.4</ele>
        <time>2023-05-18T09:18:23Z</time>
      </trkpt>
      <trkpt lat="49.61353" lon="-1.81836">
        <ele>117.7</ele>
        <time>2023-05-18T09:18:26Z</time>
      </trkpt>
      <trkpt lat="49.61357" lon="-1.81806">
        <ele>116.8</ele>
        <time>2023-05-18T09:18:29Z</time>
      </trkpt>
      <trkpt lat="49.61361" lon="-1.81777">
        <ele>115.8</ele>
        <time>2023-05-18T09:18:32Z</time>
      </trkpt>
      <trkpt lat="49.61365" lon="-1.81746">
        <ele>114.5</ele>
        <time>2023-05-18T09:18:35Z</time>
      </trkpt>
      <trkpt lat="49.61369" lon="-1.81714">
        <ele>113.1</ele>
        <time>2023-05-18T09:18:38Z</time>
      </trkpt>
      <trkpt lat="49.61373" lon="-1.81679">
        <ele>111.6</ele>
        <time>2023-05-18T09:18:41Z</time>
      </trkpt>
      <trkpt lat="49.61378" lon="-1.81641">
        <ele>109.8</ele>
        <time>2023-05-18T09:18:44Z</time>
      </trkpt>
      <trkpt lat="49.61381" lon="-1.81602">
        <ele>107.8</ele>
        <time>2023-05-18T09:18:47Z</time>
      </trkpt>
      <trkpt lat="49.61381" lon="-1.81574">
        <ele>106.2</ele>
        <time>2023-05-18T09:18:49Z</time>
      </trkpt>
      <trkpt lat="49.61376" lon="-1.81544">
        <ele>104.6</ele>
        <time>2023-05-18T09:18:51Z</time>
      </trkpt>
      <trkpt lat="49.61368" lon="-1.81516">
        <ele>103</ele>
        <time>2023-05-18T09:18:53Z</time>
      </trkpt>
      <trkpt lat="49.61361" lon="-1.81485">
        <ele>101.7</ele>
        <time>2023-05-18T09:18:55Z</time>
      </trkpt>
      <trkpt lat="49.61358" lon="-1.81453">
        <ele>100.5</ele>
        <time>2023-05-18T09:18:57Z</time>
      </trkpt>
      <trkpt lat="49.61355" lon="-1.81423">
        <ele>99.4</ele>
        <time>2023-05-18T09:18:59Z</time>
      </trkpt>
      <trkpt lat="49.61353" lon="-1.81393">
        <ele>98.5</ele>
        <time>2023-05-18T09:19:01Z</time>
      </trkpt>
      <trkpt lat="49.61351" lon="-1.81364">
        <ele>97.6</ele>
        <time>2023-05-18T09:19:03Z</time>
      </trkpt>
      <trkpt lat="49.61349" lon="-1.81335">
        <ele>96.8</ele>
        <time>2023-05-18T09:19:05Z</time>
      </trkpt>
      <trkpt lat="49.61346" lon="-1.81307">
        <ele>96.2</ele>
        <time>2023-05-18T09:19:07Z</time>
      </trkpt>
      <trkpt lat="49.61342" lon="-1.8128">
        <ele>95.8</ele>
        <time>2023-05-18T09:19:09Z</time>
      </trkpt>
      <trkpt lat="49.61338" lon="-1.81252">
        <ele>95.5</ele>
        <time>2023-05-18T09:19:11Z</time>
      </trkpt>
      <trkpt lat="49.6133" lon="-1.81213">
        <ele>95.8</ele>
        <time>2023-05-18T09:19:14Z</time>
      </trkpt>
      <trkpt lat="49.61323" lon="-1.81177">
        <ele>96.8</ele>
        <time>2023-05-18T09:19:17Z</time>
      </trkpt>
      <trkpt lat="49.61319" lon="-1.81145">
        <ele>98.1</ele>
        <time>2023-05-18T09:19:20Z</time>
      </trkpt>
      <trkpt lat="49.6132" lon="-1.81113">
        <ele>99.6</ele>
        <time>2023-05-18T09:19:24Z</time>
      </trkpt>
      <trkpt lat="49.6132" lon="-1.8108">
        <ele>101.3</ele>
        <time>2023-05-18T09:19:29Z</time>
      </trkpt>
      <trkpt lat="49.61321" lon="-1.81051">
        <ele>103</ele>
        <time>2023-05-18T09:19:35Z</time>
      </trkpt>
      <trkpt lat="49.61323" lon="-1.81022">
        <ele>104.7</ele>
        <time>2023-05-18T09:19:42Z</time>
      </trkpt>
      <trkpt lat="49.61322" lon="-1.80994">
        <ele>106.3</ele>
        <time>2023-05-18T09:19:49Z</time>
      </trkpt>
      <trkpt lat="49.61323" lon="-1.80964">
        <ele>108</ele>
        <time>2023-05-18T09:19:56Z</time>
      </trkpt>
      <trkpt lat="49.61326" lon="-1.80935">
        <ele>109.4</ele>
        <time>2023-05-18T09:20:02Z</time>
      </trkpt>
      <trkpt lat="49.61329" lon="-1.80905">
        <ele>110.7</ele>
        <time>2023-05-18T09:20:09Z</time>
      </trkpt>
      <trkpt lat="49.61335" lon="-1.80877">
        <ele>111.6</ele>
        <time>2023-05-18T09:20:19Z</time>
      </trkpt>
      <trkpt lat="49.61342" lon="-1.80849">
        <ele>112.3</ele>
        <time>2023-05-18T09:20:25Z</time>
      </trkpt>
      <trkpt lat="49.61345" lon="-1.80818">
        <ele>113</ele>
        <time>2023-05-18T09:20:32Z</time>
      </trkpt>
      <trkpt lat="49.6135" lon="-1.80786">
        <ele>113.5</ele>
        <time>2023-05-18T09:20:39Z</time>
      </trkpt>
      <trkpt lat="49.61354" lon="-1.80757">
        <ele>113.7</ele>
        <time>2023-05-18T09:20:44Z</time>
      </trkpt>
      <trkpt lat="49.61356" lon="-1.80725">
        <ele>113.8</ele>
        <time>2023-05-18T09:20:49Z</time>
      </trkpt>
      <trkpt lat="49.61356" lon="-1.80691">
        <ele>114</ele>
        <time>2023-05-18T09:20:54Z</time>
      </trkpt>
      <trkpt lat="49.61355" lon="-1.8066">
        <ele>114.1</ele>
        <time>2023-05-18T09:20:59Z</time>
      </trkpt>
      <trkpt lat="49.61356" lon="-1.80626">
        <ele>114.2</ele>
        <time>2023-05-18T09:21:04Z</time>
      </trkpt>
      <trkpt lat="49.61356" lon="-1.80595">
        <ele>114.2</ele>
        <time>2023-05-18T09:21:08Z</time>
      </trkpt>
      <trkpt lat="49.61356" lon="-1.80563">
        <ele>114.1</ele>
        <time>2023-05-18T09:21:12Z</time>
      </trkpt>
      <trkpt lat="49.61357" lon="-1.80529">
        <ele>114.1</ele>
        <time>2023-05-18T09:21:17Z</time>
      </trkpt>
      <trkpt lat="49.61359" lon="-1.805">
        <ele>114</ele>
        <time>2023-05-18T09:21:21Z</time>
      </trkpt>
      <trkpt lat="49.61363" lon="-1.80472">
        <ele>113.9</ele>
        <time>2023-05-18T09:21:25Z</time>
      </trkpt>
      <trkpt lat="49.61367" lon="-1.80439">
        <ele>114</ele>
        <time>2023-05-18T09:21:29Z</time>
      </trkpt>
      <trkpt lat="49.61372" lon="-1.8041">
        <ele>114.2</ele>
        <time>2023-05-18T09:21:33Z</time>
      </trkpt>
      <trkpt lat="49.61377" lon="-1.80379">
        <ele>114.2</ele>
        <time>2023-05-18T09:21:38Z</time>
      </trkpt>
      <trkpt lat="49.6138" lon="-1.80352">
        <ele>114.2</ele>
        <time>2023-05-18T09:21:42Z</time>
      </trkpt>
      <trkpt lat="49.61385" lon="-1.8032">
        <ele>114.2</ele>
        <time>2023-05-18T09:21:47Z</time>
      </trkpt>
      <trkpt lat="49.6139" lon="-1.80289">
        <ele>114.2</ele>
        <time>2023-05-18T09:21:51Z</time>
      </trkpt>
      <trkpt lat="49.61394" lon="-1.80256">
        <ele>114.3</ele>
        <time>2023-05-18T09:21:56Z</time>
      </trkpt>
      <trkpt lat="49.614" lon="-1.80224">
        <ele>114.5</ele>
        <time>2023-05-18T09:22:01Z</time>
      </trkpt>
      <trkpt lat="49.61409" lon="-1.80198">
        <ele>114.7</ele>
        <time>2023-05-18T09:22:05Z</time>
      </trkpt>
      <trkpt lat="49.61417" lon="-1.80171">
        <ele>114.9</ele>
        <time>2023-05-18T09:22:10Z</time>
      </trkpt>
      <trkpt lat="49.61425" lon="-1.80144">
        <ele>114.9</ele>
        <time>2023-05-18T09:22:14Z</time>
      </trkpt>
      <trkpt lat="49.6143" lon="-1.80116">
        <ele>114.8</ele>
        <time>2023-05-18T09:22:18Z</time>
      </trkpt>
      <trkpt lat="49.6144" lon="-1.80084">
        <ele>114.4</ele>
        <time>2023-05-18T09:22:22Z</time>
      </trkpt>
      <trkpt lat="49.61446" lon="-1.80055">
        <ele>114.1</ele>
        <time>2023-05-18T09:22:25Z</time>
      </trkpt>
      <trkpt lat="49.61455" lon="-1.80022">
        <ele>113.8</ele>
        <time>2023-05-18T09:22:29Z</time>
      </trkpt>
      <trkpt lat="49.61464" lon="-1.79993">
        <ele>113.7</ele>
        <time>2023-05-18T09:22:33Z</time>
      </trkpt>
      <trkpt lat="49.61473" lon="-1.79966">
        <ele>113.6</ele>
        <time>2023-05-18T09:22:37Z</time>
      </trkpt>
      <trkpt lat="49.61479" lon="-1.79932">
        <ele>113.3</ele>
        <time>2023-05-18T09:22:41Z</time>
      </trkpt>
      <trkpt lat="49.61488" lon="-1.79898">
        <ele>112.7</ele>
        <time>2023-05-18T09:22:46Z</time>
      </trkpt>
      <trkpt lat="49.615" lon="-1.79868">
        <ele>112.1</ele>
        <time>2023-05-18T09:22:49Z</time>
      </trkpt>
      <trkpt lat="49.61513" lon="-1.79843">
        <ele>112</ele>
        <time>2023-05-18T09:22:52Z</time>
      </trkpt>
      <trkpt lat="49.61528" lon="-1.79818">
        <ele>112.1</ele>
        <time>2023-05-18T09:22:56Z</time>
      </trkpt>
      <trkpt lat="49.61536" lon="-1.79791">
        <ele>113</ele>
        <time>2023-05-18T09:23:00Z</time>
      </trkpt>
      <trkpt lat="49.61536" lon="-1.79759">
        <ele>114.4</ele>
        <time>2023-05-18T09:23:06Z</time>
      </trkpt>
      <trkpt lat="49.61533" lon="-1.79729">
        <ele>115.9</ele>
        <time>2023-05-18T09:23:13Z</time>
      </trkpt>
      <trkpt lat="49.61532" lon="-1.797">
        <ele>117.4</ele>
        <time>2023-05-18T09:23:19Z</time>
      </trkpt>
      <trkpt lat="49.61532" lon="-1.79669">
        <ele>118.9</ele>
        <time>2023-05-18T09:23:26Z</time>
      </trkpt>
      <trkpt lat="49.61531" lon="-1.79639">
        <ele>120.5</ele>
        <time>2023-05-18T09:23:34Z</time>
      </trkpt>
      <trkpt lat="49.61532" lon="-1.7961">
        <ele>121.7</ele>
        <time>2023-05-18T09:23:41Z</time>
      </trkpt>
      <trkpt lat="49.61533" lon="-1.79579">
        <ele>122.7</ele>
        <time>2023-05-18T09:23:47Z</time>
      </trkpt>
      <trkpt lat="49.61531" lon="-1.79549">
        <ele>123.4</ele>
        <time>2023-05-18T09:23:53Z</time>
      </trkpt>
      <trkpt lat="49.61529" lon="-1.7952">
        <ele>124</ele>
        <time>2023-05-18T09:23:59Z</time>
      </trkpt>
      <trkpt lat="49.61528" lon="-1.79491">
        <ele>124.5</ele>
        <time>2023-05-18T09:24:05Z</time>
      </trkpt>
      <trkpt lat="49.61528" lon="-1.7946">
        <ele>124.8</ele>
        <time>2023-05-18T09:24:11Z</time>
      </trkpt>
      <trkpt lat="49.61527" lon="-1.79431">
        <ele>124.9</ele>
        <time>2023-05-18T09:24:16Z</time>
      </trkpt>
      <trkpt lat="49.61516" lon="-1.79404">
        <ele>124.6</ele>
        <time>2023-05-18T09:24:22Z</time>
      </trkpt>
      <trkpt lat="49.61499" lon="-1.79384">
        <ele>123.8</ele>
        <time>2023-05-18T09:24:26Z</time>
      </trkpt>
      <trkpt lat="49.61484" lon="-1.79364">
        <ele>122.8</ele>
        <time>2023-05-18T09:24:29Z</time>
      </trkpt>
      <trkpt lat="49.61469" lon="-1.79338">
        <ele>121.3</ele>
        <time>2023-05-18T09:24:33Z</time>
      </trkpt>
      <trkpt lat="49.61457" lon="-1.79303">
        <ele>119.6</ele>
        <time>2023-05-18T09:24:37Z</time>
      </trkpt>
      <trkpt lat="49.61451" lon="-1.79274">
        <ele>118.3</ele>
        <time>2023-05-18T09:24:39Z</time>
      </trkpt>
      <trkpt lat="49.61446" lon="-1.79247">
        <ele>117.1</ele>
        <time>2023-05-18T09:24:41Z</time>
      </trkpt>
      <trkpt lat="49.61444" lon="-1.79218">
        <ele>115.9</ele>
        <time>2023-05-18T09:24:43Z</time>
      </trkpt>
      <trkpt lat="49.61442" lon="-1.79181">
        <ele>114.3</ele>
        <time>2023-05-18T09:24:46Z</time>
      </trkpt>
      <trkpt lat="49.61439" lon="-1.7914">
        <ele>112.6</ele>
        <time>2023-05-18T09:24:49Z</time>
      </trkpt>
      <trkpt lat="49.61436" lon="-1.79099">
        <ele>111</ele>
        <time>2023-05-18T09:24:52Z</time>
      </trkpt>
      <trkpt lat="49.61436" lon="-1.7906">
        <ele>109.3</ele>
        <time>2023-05-18T09:24:55Z</time>
      </trkpt>
      <trkpt lat="49.61437" lon="-1.79031">
        <ele>108.1</ele>
        <time>2023-05-18T09:24:57Z</time>
      </trkpt>
      <trkpt lat="49.61437" lon="-1.78998">
        <ele>106.7</ele>
        <time>2023-05-18T09:24:59Z</time>
      </trkpt>
      <trkpt lat="49.61439" lon="-1.78967">
        <ele>105.5</ele>
        <time>2023-05-18T09:25:01Z</time>
      </trkpt>
      <trkpt lat="49.61442" lon="-1.78936">
        <ele>104.2</ele>
        <time>2023-05-18T09:25:03Z</time>
      </trkpt>
      <trkpt lat="49.61446" lon="-1.78905">
        <ele>103.2</ele>
        <time>2023-05-18T09:25:05Z</time>
      </trkpt>
      <trkpt lat="49.6145" lon="-1.78876">
        <ele>102.1</ele>
        <time>2023-05-18T09:25:07Z</time>
      </trkpt>
      <trkpt lat="49.61451" lon="-1.78844">
        <ele>100.9</ele>
        <time>2023-05-18T09:25:09Z</time>
      </trkpt>
      <trkpt lat="49.61446" lon="-1.78812">
        <ele>99.8</ele>
        <time>2023-05-18T09:25:11Z</time>
      </trkpt>
      <trkpt lat="49.61434" lon="-1.78785">
        <ele>98.6</ele>
        <time>2023-05-18T09:25:13Z</time>
      </trkpt>
      <trkpt lat="49.61415" lon="-1.78769">
        <ele>97.4</ele>
        <time>2023-05-18T09:25:15Z</time>
      </trkpt>
      <trkpt lat="49.61392" lon="-1.78774">
        <ele>96</ele>
        <time>2023-05-18T09:25:17Z</time>
      </trkpt>
      <trkpt lat="49.61373" lon="-1.78793">
        <ele>94.5</ele>
        <time>2023-05-18T09:25:19Z</time>
      </trkpt>
      <trkpt lat="49.61355" lon="-1.78818">
        <ele>92.9</ele>
        <time>2023-05-18T09:25:21Z</time>
      </trkpt>
      <trkpt lat="49.61339" lon="-1.78844">
        <ele>91.5</ele>
        <time>2023-05-18T09:25:23Z</time>
      </trkpt>
      <trkpt lat="49.61321" lon="-1.78869">
        <ele>90.2</ele>
        <time>2023-05-18T09:25:25Z</time>
      </trkpt>
      <trkpt lat="49.61302" lon="-1.7889">
        <ele>89</ele>
        <time>2023-05-18T09:25:27Z</time>
      </trkpt>
      <trkpt lat="49.61283" lon="-1.78909">
        <ele>87.8</ele>
        <time>2023-05-18T09:25:29Z</time>
      </trkpt>
      <trkpt lat="49.61263" lon="-1.78926">
        <ele>86.6</ele>
        <time>2023-05-18T09:25:31Z</time>
      </trkpt>
      <trkpt lat="49.61245" lon="-1.78945">
        <ele>85.3</ele>
        <time>2023-05-18T09:25:33Z</time>
      </trkpt>
      <trkpt lat="49.61227" lon="-1.78964">
        <ele>83.8</ele>
        <time>2023-05-18T09:25:35Z</time>
      </trkpt>
      <trkpt lat="49.61205" lon="-1.78981">
        <ele>81.9</ele>
        <time>2023-05-18T09:25:37Z</time>
      </trkpt>
      <trkpt lat="49.61182" lon="-1.78991">
        <ele>79.9</ele>
        <time>2023-05-18T09:25:39Z</time>
      </trkpt>
      <trkpt lat="49.61158" lon="-1.78989">
        <ele>78.3</ele>
        <time>2023-05-18T09:25:41Z</time>
      </trkpt>
      <trkpt lat="49.61136" lon="-1.78984">
        <ele>77.2</ele>
        <time>2023-05-18T09:25:43Z</time>
      </trkpt>
      <trkpt lat="49.6111" lon="-1.78975">
        <ele>76.5</ele>
        <time>2023-05-18T09:25:45Z</time>
      </trkpt>
      <trkpt lat="49.61088" lon="-1.78976">
        <ele>76.2</ele>
        <time>2023-05-18T09:25:47Z</time>
      </trkpt>
      <trkpt lat="49.61068" lon="-1.78985">
        <ele>76</ele>
        <time>2023-05-18T09:25:49Z</time>
      </trkpt>
      <trkpt lat="49.61051" lon="-1.78999">
        <ele>75.8</ele>
        <time>2023-05-18T09:25:51Z</time>
      </trkpt>
      <trkpt lat="49.61034" lon="-1.79014">
        <ele>76</ele>
        <time>2023-05-18T09:25:53Z</time>
      </trkpt>
      <trkpt lat="49.61017" lon="-1.79027">
        <ele>76.2</ele>
        <time>2023-05-18T09:25:55Z</time>
      </trkpt>
      <trkpt lat="49.60996" lon="-1.79047">
        <ele>76.6</ele>
        <time>2023-05-18T09:25:58Z</time>
      </trkpt>
      <trkpt lat="49.60978" lon="-1.79063">
        <ele>77.1</ele>
        <time>2023-05-18T09:26:01Z</time>
      </trkpt>
      <trkpt lat="49.60961" lon="-1.79082">
        <ele>77.7</ele>
        <time>2023-05-18T09:26:04Z</time>
      </trkpt>
      <trkpt lat="49.60944" lon="-1.79098">
        <ele>78.2</ele>
        <time>2023-05-18T09:26:07Z</time>
      </trkpt>
      <trkpt lat="49.60928" lon="-1.79112">
        <ele>78.7</ele>
        <time>2023-05-18T09:26:10Z</time>
      </trkpt>
      <trkpt lat="49.60912" lon="-1.79125">
        <ele>79.3</ele>
        <time>2023-05-18T09:26:13Z</time>
      </trkpt>
      <trkpt lat="49.60891" lon="-1.79137">
        <ele>80.1</ele>
        <time>2023-05-18T09:26:17Z</time>
      </trkpt>
      <trkpt lat="49.60873" lon="-1.7914">
        <ele>81</ele>
        <time>2023-05-18T09:26:21Z</time>
      </trkpt>
      <trkpt lat="49.60851" lon="-1.79133">
        <ele>82.1</ele>
        <time>2023-05-18T09:26:26Z</time>
      </trkpt>
      <trkpt lat="49.60834" lon="-1.79123">
        <ele>83.1</ele>
        <time>2023-05-18T09:26:30Z</time>
      </trkpt>
      <trkpt lat="49.6082" lon="-1.79104">
        <ele>84.4</ele>
        <time>2023-05-18T09:26:35Z</time>
      </trkpt>
      <trkpt lat="49.60804" lon="-1.79087">
        <ele>85.7</ele>
        <time>2023-05-18T09:26:41Z</time>
      </trkpt>
      <trkpt lat="49.60787" lon="-1.7907">
        <ele>87.1</ele>
        <time>2023-05-18T09:26:47Z</time>
      </trkpt>
      <trkpt lat="49.60773" lon="-1.79052">
        <ele>88.4</ele>
        <time>2023-05-18T09:26:53Z</time>
      </trkpt>
      <trkpt lat="49.60758" lon="-1.79036">
        <ele>89.8</ele>
        <time>2023-05-18T09:26:59Z</time>
      </trkpt>
      <trkpt lat="49.60742" lon="-1.7902">
        <ele>91.3</ele>
        <time>2023-05-18T09:27:09Z</time>
      </trkpt>
      <trkpt lat="49.60726" lon="-1.79005">
        <ele>92.7</ele>
        <time>2023-05-18T09:27:17Z</time>
      </trkpt>
      <trkpt lat="49.6071" lon="-1.78989">
        <ele>94.2</ele>
        <time>2023-05-18T09:27:25Z</time>
      </trkpt>
      <trkpt lat="49.60696" lon="-1.78972">
        <ele>95.6</ele>
        <time>2023-05-18T09:27:32Z</time>
      </trkpt>
      <trkpt lat="49.60682" lon="-1.78952">
        <ele>97.1</ele>
        <time>2023-05-18T09:27:40Z</time>
      </trkpt>
      <trkpt lat="49.60669" lon="-1.7893">
        <ele>98.8</ele>
        <time>2023-05-18T09:27:49Z</time>
      </trkpt>
      <trkpt lat="49.60656" lon="-1.78907">
        <ele>100.4</ele>
        <time>2023-05-18T09:27:59Z</time>
      </trkpt>
      <trkpt lat="49.60646" lon="-1.78881">
        <ele>102</ele>
        <time>2023-05-18T09:28:08Z</time>
      </trkpt>
      <trkpt lat="49.60636" lon="-1.78856">
        <ele>103.4</ele>
        <time>2023-05-18T09:28:16Z</time>
      </trkpt>
      <trkpt lat="49.60626" lon="-1.78831">
        <ele>104.7</ele>
        <time>2023-05-18T09:28:24Z</time>
      </trkpt>
      <trkpt lat="49.60616" lon="-1.78804">
        <ele>106.1</ele>
        <time>2023-05-18T09:28:33Z</time>
      </trkpt>
      <trkpt lat="49.60606" lon="-1.7878">
        <ele>107.3</ele>
        <time>2023-05-18T09:28:42Z</time>
      </trkpt>
      <trkpt lat="49.60595" lon="-1.78753">
        <ele>108.5</ele>
        <time>2023-05-18T09:28:51Z</time>
      </trkpt>
      <trkpt lat="49.60584" lon="-1.7873">
        <ele>109.4</ele>
        <time>2023-05-18T09:28:58Z</time>
      </trkpt>
      <trkpt lat="49.60576" lon="-1.78701">
        <ele>110</ele>
        <time>2023-05-18T09:29:04Z</time>
      </trkpt>
      <trkpt lat="49.60568" lon="-1.78671">
        <ele>110</ele>
        <time>2023-05-18T09:29:10Z</time>
      </trkpt>
      <trkpt lat="49.60561" lon="-1.7864">
        <ele>109.6</ele>
        <time>2023-05-18T09:29:15Z</time>
      </trkpt>
      <trkpt lat="49.60557" lon="-1.78613">
        <ele>108.9</ele>
        <time>2023-05-18T09:29:19Z</time>
      </trkpt>
      <trkpt lat="49.6055" lon="-1.78586">
        <ele>108.1</ele>
        <time>2023-05-18T09:29:23Z</time>
      </trkpt>
      <trkpt lat="49.6054" lon="-1.78554">
        <ele>107</ele>
        <time>2023-05-18T09:29:27Z</time>
      </trkpt>
      <trkpt lat="49.60529" lon="-1.78522">
        <ele>105.8</ele>
        <time>2023-05-18T09:29:31Z</time>
      </trkpt>
      <trkpt lat="49.60518" lon="-1.78496">
        <ele>104.7</ele>
        <time>2023-05-18T09:29:34Z</time>
      </trkpt>
      <trkpt lat="49.60506" lon="-1.78469">
        <ele>103.6</ele>
        <time>2023-05-18T09:29:37Z</time>
      </trkpt>
      <trkpt lat="49.60493" lon="-1.78445">
        <ele>102.8</ele>
        <time>2023-05-18T09:29:40Z</time>
      </trkpt>
      <trkpt lat="49.6048" lon="-1.78418">
        <ele>102.1</ele>
        <time>2023-05-18T09:29:43Z</time>
      </trkpt>
      <trkpt lat="49.60466" lon="-1.78396">
        <ele>101.6</ele>
        <time>2023-05-18T09:29:46Z</time>
      </trkpt>
      <trkpt lat="49.6045" lon="-1.78374">
        <ele>101.2</ele>
        <time>2023-05-18T09:29:49Z</time>
      </trkpt>
      <trkpt lat="49.60433" lon="-1.78352">
        <ele>101</ele>
        <time>2023-05-18T09:29:52Z</time>
      </trkpt>
      <trkpt lat="49.60417" lon="-1.78333">
        <ele>101</ele>
        <time>2023-05-18T09:29:55Z</time>
      </trkpt>
      <trkpt lat="49.60398" lon="-1.78315">
        <ele>101.2</ele>
        <time>2023-05-18T09:29:58Z</time>
      </trkpt>
      <trkpt lat="49.60381" lon="-1.78298">
        <ele>101.3</ele>
        <time>2023-05-18T09:30:01Z</time>
      </trkpt>
      <trkpt lat="49.60361" lon="-1.78279">
        <ele>101.7</ele>
        <time>2023-05-18T09:30:05Z</time>
      </trkpt>
      <trkpt lat="49.60338" lon="-1.78265">
        <ele>102.1</ele>
        <time>2023-05-18T09:30:09Z</time>
      </trkpt>
      <trkpt lat="49.60321" lon="-1.78251">
        <ele>102.6</ele>
        <time>2023-05-18T09:30:13Z</time>
      </trkpt>
      <trkpt lat="49.60302" lon="-1.78238">
        <ele>103.1</ele>
        <time>2023-05-18T09:30:17Z</time>
      </trkpt>
      <trkpt lat="49.60283" lon="-1.78225">
        <ele>103.8</ele>
        <time>2023-05-18T09:30:21Z</time>
      </trkpt>
      <trkpt lat="49.60263" lon="-1.78211">
        <ele>104.5</ele>
        <time>2023-05-18T09:30:26Z</time>
      </trkpt>
      <trkpt lat="49.60247" lon="-1.78199">
        <ele>105</ele>
        <time>2023-05-18T09:30:30Z</time>
      </trkpt>
      <trkpt lat="49.6023" lon="-1.78185">
        <ele>105.4</ele>
        <time>2023-05-18T09:30:34Z</time>
      </trkpt>
      <trkpt lat="49.60211" lon="-1.78172">
        <ele>105.4</ele>
        <time>2023-05-18T09:30:39Z</time>
      </trkpt>
      <trkpt lat="49.60193" lon="-1.78161">
        <ele>105.1</ele>
        <time>2023-05-18T09:30:43Z</time>
      </trkpt>
      <trkpt lat="49.60172" lon="-1.78147">
        <ele>104.8</ele>
        <time>2023-05-18T09:30:48Z</time>
      </trkpt>
      <trkpt lat="49.60153" lon="-1.78134">
        <ele>104.3</ele>
        <time>2023-05-18T09:30:52Z</time>
      </trkpt>
      <trkpt lat="49.60133" lon="-1.78124">
        <ele>103.6</ele>
        <time>2023-05-18T09:30:55Z</time>
      </trkpt>
      <trkpt lat="49.60113" lon="-1.7811">
        <ele>102.7</ele>
        <time>2023-05-18T09:30:58Z</time>
      </trkpt>
      <trkpt lat="49.60094" lon="-1.78098">
        <ele>101.8</ele>
        <time>2023-05-18T09:31:01Z</time>
      </trkpt>
      <trkpt lat="49.60073" lon="-1.78089">
        <ele>100.9</ele>
        <time>2023-05-18T09:31:04Z</time>
      </trkpt>
      <trkpt lat="49.6005" lon="-1.78082">
        <ele>100</ele>
        <time>2023-05-18T09:31:07Z</time>
      </trkpt>
      <trkpt lat="49.60029" lon="-1.78074">
        <ele>99.2</ele>
        <time>2023-05-18T09:31:10Z</time>
      </trkpt>
      <trkpt lat="49.60005" lon="-1.78064">
        <ele>98.4</ele>
        <time>2023-05-18T09:31:13Z</time>
      </trkpt>
      <trkpt lat="49.59981" lon="-1.78055">
        <ele>97.6</ele>
        <time>2023-05-18T09:31:16Z</time>
      </trkpt>
      <trkpt lat="49.59959" lon="-1.78041">
        <ele>97.1</ele>
        <time>2023-05-18T09:31:19Z</time>
      </trkpt>
      <trkpt lat="49.59941" lon="-1.78022">
        <ele>96.6</ele>
        <time>2023-05-18T09:31:22Z</time>
      </trkpt>
      <trkpt lat="49.59925" lon="-1.77995">
        <ele>96.1</ele>
        <time>2023-05-18T09:31:25Z</time>
      </trkpt>
      <trkpt lat="49.59909" lon="-1.77969">
        <ele>95.7</ele>
        <time>2023-05-18T09:31:28Z</time>
      </trkpt>
      <trkpt lat="49.59893" lon="-1.77944">
        <ele>95.2</ele>
        <time>2023-05-18T09:31:31Z</time>
      </trkpt>
      <trkpt lat="49.59874" lon="-1.77925">
        <ele>94.7</ele>
        <time>2023-05-18T09:31:34Z</time>
      </trkpt>
      <trkpt lat="49.59854" lon="-1.77908">
        <ele>94.3</ele>
        <time>2023-05-18T09:31:37Z</time>
      </trkpt>
      <trkpt lat="49.59834" lon="-1.7789">
        <ele>93.9</ele>
        <time>2023-05-18T09:31:40Z</time>
      </trkpt>
      <trkpt lat="49.59815" lon="-1.77874">
        <ele>93.7</ele>
        <time>2023-05-18T09:31:43Z</time>
      </trkpt>
      <trkpt lat="49.59793" lon="-1.77855">
        <ele>93.8</ele>
        <time>2023-05-18T09:31:46Z</time>
      </trkpt>
      <trkpt lat="49.59774" lon="-1.77838">
        <ele>94.1</ele>
        <time>2023-05-18T09:31:49Z</time>
      </trkpt>
      <trkpt lat="49.59757" lon="-1.77822">
        <ele>94.3</ele>
        <time>2023-05-18T09:31:52Z</time>
      </trkpt>
      <trkpt lat="49.59739" lon="-1.77797">
        <ele>94.7</ele>
        <time>2023-05-18T09:31:56Z</time>
      </trkpt>
      <trkpt lat="49.59728" lon="-1.77768">
        <ele>95.3</ele>
        <time>2023-05-18T09:32:00Z</time>
      </trkpt>
      <trkpt lat="49.59718" lon="-1.77739">
        <ele>96</ele>
        <time>2023-05-18T09:32:04Z</time>
      </trkpt>
      <trkpt lat="49.59711" lon="-1.77713">
        <ele>96.6</ele>
        <time>2023-05-18T09:32:08Z</time>
      </trkpt>
      <trkpt lat="49.59702" lon="-1.77687">
        <ele>97.3</ele>
        <time>2023-05-18T09:32:12Z</time>
      </trkpt>
      <trkpt lat="49.59693" lon="-1.77657">
        <ele>98</ele>
        <time>2023-05-18T09:32:17Z</time>
      </trkpt>
      <trkpt lat="49.59685" lon="-1.77627">
        <ele>98.6</ele>
        <time>2023-05-18T09:32:22Z</time>
      </trkpt>
      <trkpt lat="49.59672" lon="-1.77602">
        <ele>99.1</ele>
        <time>2023-05-18T09:32:27Z</time>
      </trkpt>
      <trkpt lat="49.59659" lon="-1.77579">
        <ele>99.7</ele>
        <time>2023-05-18T09:32:32Z</time>
      </trkpt>
      <trkpt lat="49.59644" lon="-1.77556">
        <ele>100.3</ele>
        <time>2023-05-18T09:32:37Z</time>
      </trkpt>
      <trkpt lat="49.59631" lon="-1.77533">
        <ele>100.9</ele>
        <time>2023-05-18T09:32:42Z</time>
      </trkpt>
      <trkpt lat="49.59618" lon="-1.7751">
        <ele>101.5</ele>
        <time>2023-05-18T09:32:47Z</time>
      </trkpt>
      <trkpt lat="49.59606" lon="-1.77489">
        <ele>102.1</ele>
        <time>2023-05-18T09:32:52Z</time>
      </trkpt>
      <trkpt lat="49.59591" lon="-1.77471">
        <ele>102.7</ele>
        <time>2023-05-18T09:32:57Z</time>
      </trkpt>
      <trkpt lat="49.59575" lon="-1.77456">
        <ele>103.3</ele>
        <time>2023-05-18T09:33:02Z</time>
      </trkpt>
      <trkpt lat="49.59558" lon="-1.77444">
        <ele>104</ele>
        <time>2023-05-18T09:33:07Z</time>
      </trkpt>
      <trkpt lat="49.5954" lon="-1.77434">
        <ele>104.6</ele>
        <time>2023-05-18T09:33:12Z</time>
      </trkpt>
      <trkpt lat="49.5952" lon="-1.77422">
        <ele>105.2</ele>
        <time>2023-05-18T09:33:17Z</time>
      </trkpt>
      <trkpt lat="49.59504" lon="-1.77409">
        <ele>105.7</ele>
        <time>2023-05-18T09:33:22Z</time>
      </trkpt>
      <trkpt lat="49.59487" lon="-1.77392">
        <ele>106.1</ele>
        <time>2023-05-18T09:33:27Z</time>
      </trkpt>
      <trkpt lat="49.59473" lon="-1.77372">
        <ele>106.5</ele>
        <time>2023-05-18T09:33:32Z</time>
      </trkpt>
      <trkpt lat="49.5946" lon="-1.7735">
        <ele>106.9</ele>
        <time>2023-05-18T09:33:44Z</time>
      </trkpt>
      <trkpt lat="49.5944" lon="-1.77348">
        <ele>107.8</ele>
        <time>2023-05-18T09:34:32Z</time>
      </trkpt>
      <trkpt lat="49.59429" lon="-1.77376">
        <ele>108.5</ele>
        <time>2023-05-18T09:34:38Z</time>
      </trkpt>
      <trkpt lat="49.59418" lon="-1.77402">
        <ele>109.1</ele>
        <time>2023-05-18T09:34:44Z</time>
      </trkpt>
      <trkpt lat="49.59406" lon="-1.77428">
        <ele>109.3</ele>
        <time>2023-05-18T09:34:49Z</time>
      </trkpt>
      <trkpt lat="49.59395" lon="-1.77454">
        <ele>109.5</ele>
        <time>2023-05-18T09:34:54Z</time>
      </trkpt>
      <trkpt lat="49.59382" lon="-1.77482">
        <ele>109.6</ele>
        <time>2023-05-18T09:34:59Z</time>
      </trkpt>
      <trkpt lat="49.59368" lon="-1.77507">
        <ele>109.6</ele>
        <time>2023-05-18T09:35:03Z</time>
      </trkpt>
      <trkpt lat="49.59355" lon="-1.77536">
        <ele>109.5</ele>
        <time>2023-05-18T09:35:07Z</time>
      </trkpt>
      <trkpt lat="49.59339" lon="-1.77562">
        <ele>109.4</ele>
        <time>2023-05-18T09:35:11Z</time>
      </trkpt>
      <trkpt lat="49.5932" lon="-1.77582">
        <ele>109.2</ele>
        <time>2023-05-18T09:35:15Z</time>
      </trkpt>
      <trkpt lat="49.59305" lon="-1.77602">
        <ele>109.1</ele>
        <time>2023-05-18T09:35:18Z</time>
      </trkpt>
      <trkpt lat="49.59288" lon="-1.77627">
        <ele>109</ele>
        <time>2023-05-18T09:35:22Z</time>
      </trkpt>
      <trkpt lat="49.59272" lon="-1.77653">
        <ele>108.9</ele>
        <time>2023-05-18T09:35:26Z</time>
      </trkpt>
      <trkpt lat="49.59262" lon="-1.77676">
        <ele>108.8</ele>
        <time>2023-05-18T09:35:29Z</time>
      </trkpt>
      <trkpt lat="49.59252" lon="-1.77701">
        <ele>108.8</ele>
        <time>2023-05-18T09:35:32Z</time>
      </trkpt>
      <trkpt lat="49.59243" lon="-1.77726">
        <ele>108.8</ele>
        <time>2023-05-18T09:35:35Z</time>
      </trkpt>
      <trkpt lat="49.59234" lon="-1.77751">
        <ele>108.7</ele>
        <time>2023-05-18T09:35:38Z</time>
      </trkpt>
      <trkpt lat="49.59224" lon="-1.77777">
        <ele>108.7</ele>
        <time>2023-05-18T09:35:41Z</time>
      </trkpt>
      <trkpt lat="49.59216" lon="-1.77802">
        <ele>108.7</ele>
        <time>2023-05-18T09:35:44Z</time>
      </trkpt>
      <trkpt lat="49.59206" lon="-1.77829">
        <ele>108.7</ele>
        <time>2023-05-18T09:35:47Z</time>
      </trkpt>
      <trkpt lat="49.59196" lon="-1.77854">
        <ele>108.6</ele>
        <time>2023-05-18T09:35:50Z</time>
      </trkpt>
      <trkpt lat="49.59183" lon="-1.77887">
        <ele>108.5</ele>
        <time>2023-05-18T09:35:54Z</time>
      </trkpt>
      <trkpt lat="49.59173" lon="-1.77914">
        <ele>108.5</ele>
        <time>2023-05-18T09:35:57Z</time>
      </trkpt>
      <trkpt lat="49.59163" lon="-1.77942">
        <ele>108.5</ele>
        <time>2023-05-18T09:36:00Z</time>
      </trkpt>
      <trkpt lat="49.59152" lon="-1.77973">
        <ele>108.4</ele>
        <time>2023-05-18T09:36:04Z</time>
      </trkpt>
      <trkpt lat="49.59142" lon="-1.77998">
        <ele>108.4</ele>
        <time>2023-05-18T09:36:07Z</time>
      </trkpt>
      <trkpt lat="49.5913" lon="-1.78026">
        <ele>108.4</ele>
        <time>2023-05-18T09:36:10Z</time>
      </trkpt>
      <trkpt lat="49.59119" lon="-1.78051">
        <ele>108.6</ele>
        <time>2023-05-18T09:36:13Z</time>
      </trkpt>
      <trkpt lat="49.59109" lon="-1.78075">
        <ele>108.7</ele>
        <time>2023-05-18T09:36:16Z</time>
      </trkpt>
      <trkpt lat="49.59097" lon="-1.781">
        <ele>108.9</ele>
        <time>2023-05-18T09:36:19Z</time>
      </trkpt>
      <trkpt lat="49.59083" lon="-1.7813">
        <ele>109.1</ele>
        <time>2023-05-18T09:36:23Z</time>
      </trkpt>
      <trkpt lat="49.59072" lon="-1.78152">
        <ele>109.2</ele>
        <time>2023-05-18T09:36:26Z</time>
      </trkpt>
      <trkpt lat="49.59061" lon="-1.78175">
        <ele>109.3</ele>
        <time>2023-05-18T09:36:29Z</time>
      </trkpt>
      <trkpt lat="49.59046" lon="-1.78204">
        <ele>109.4</ele>
        <time>2023-05-18T09:36:33Z</time>
      </trkpt>
      <trkpt lat="49.59034" lon="-1.78227">
        <ele>109.4</ele>
        <time>2023-05-18T09:36:36Z</time>
      </trkpt>
      <trkpt lat="49.5902" lon="-1.78256">
        <ele>109.5</ele>
        <time>2023-05-18T09:36:40Z</time>
      </trkpt>
      <trkpt lat="49.59008" lon="-1.78277">
        <ele>109.5</ele>
        <time>2023-05-18T09:36:43Z</time>
      </trkpt>
      <trkpt lat="49.58991" lon="-1.78304">
        <ele>109.6</ele>
        <time>2023-05-18T09:36:47Z</time>
      </trkpt>
      <trkpt lat="49.58978" lon="-1.78323">
        <ele>109.6</ele>
        <time>2023-05-18T09:36:50Z</time>
      </trkpt>
      <trkpt lat="49.58964" lon="-1.78343">
        <ele>109.5</ele>
        <time>2023-05-18T09:36:53Z</time>
      </trkpt>
      <trkpt lat="49.5895" lon="-1.78363">
        <ele>109.4</ele>
        <time>2023-05-18T09:36:56Z</time>
      </trkpt>
      <trkpt lat="49.58938" lon="-1.78385">
        <ele>109.4</ele>
        <time>2023-05-18T09:36:59Z</time>
      </trkpt>
      <trkpt lat="49.58927" lon="-1.78407">
        <ele>109.3</ele>
        <time>2023-05-18T09:37:02Z</time>
      </trkpt>
      <trkpt lat="49.58917" lon="-1.78434">
        <ele>109.1</ele>
        <time>2023-05-18T09:37:05Z</time>
      </trkpt>
      <trkpt lat="49.58909" lon="-1.78463">
        <ele>108.9</ele>
        <time>2023-05-18T09:37:08Z</time>
      </trkpt>
      <trkpt lat="49.58903" lon="-1.78491">
        <ele>108.8</ele>
        <time>2023-05-18T09:37:11Z</time>
      </trkpt>
      <trkpt lat="49.58898" lon="-1.7852">
        <ele>108.7</ele>
        <time>2023-05-18T09:37:14Z</time>
      </trkpt>
      <trkpt lat="49.58893" lon="-1.78549">
        <ele>108.7</ele>
        <time>2023-05-18T09:37:17Z</time>
      </trkpt>
      <trkpt lat="49.5889" lon="-1.78577">
        <ele>108.6</ele>
        <time>2023-05-18T09:37:20Z</time>
      </trkpt>
      <trkpt lat="49.58887" lon="-1.78606">
        <ele>108.6</ele>
        <time>2023-05-18T09:37:23Z</time>
      </trkpt>
      <trkpt lat="49.58883" lon="-1.78636">
        <ele>108.6</ele>
        <time>2023-05-18T09:37:26Z</time>
      </trkpt>
      <trkpt lat="49.5888" lon="-1.78664">
        <ele>108.6</ele>
        <time>2023-05-18T09:37:29Z</time>
      </trkpt>
      <trkpt lat="49.58878" lon="-1.78692">
        <ele>108.5</ele>
        <time>2023-05-18T09:37:32Z</time>
      </trkpt>
      <trkpt lat="49.58874" lon="-1.78722">
        <ele>108.4</ele>
        <time>2023-05-18T09:37:35Z</time>
      </trkpt>
      <trkpt lat="49.58871" lon="-1.78754">
        <ele>108.1</ele>
        <time>2023-05-18T09:37:38Z</time>
      </trkpt>
      <trkpt lat="49.58867" lon="-1.78785">
        <ele>107.8</ele>
        <time>2023-05-18T09:37:41Z</time>
      </trkpt>
      <trkpt lat="49.58863" lon="-1.78817">
        <ele>107.5</ele>
        <time>2023-05-18T09:37:44Z</time>
      </trkpt>
      <trkpt lat="49.58857" lon="-1.78848">
        <ele>107.2</ele>
        <time>2023-05-18T09:37:47Z</time>
      </trkpt>
      <trkpt lat="49.5885" lon="-1.78879">
        <ele>106.8</ele>
        <time>2023-05-18T09:37:50Z</time>
      </trkpt>
      <trkpt lat="49.5884" lon="-1.78909">
        <ele>106.2</ele>
        <time>2023-05-18T09:37:53Z</time>
      </trkpt>
      <trkpt lat="49.58826" lon="-1.78936">
        <ele>105.7</ele>
        <time>2023-05-18T09:37:56Z</time>
      </trkpt>
      <trkpt lat="49.5881" lon="-1.78963">
        <ele>105.4</ele>
        <time>2023-05-18T09:37:59Z</time>
      </trkpt>
      <trkpt lat="49.58794" lon="-1.78989">
        <ele>105.3</ele>
        <time>2023-05-18T09:38:02Z</time>
      </trkpt>
      <trkpt lat="49.58777" lon="-1.7901">
        <ele>105.2</ele>
        <time>2023-05-18T09:38:05Z</time>
      </trkpt>
      <trkpt lat="49.5876" lon="-1.7903">
        <ele>105.3</ele>
        <time>2023-05-18T09:38:08Z</time>
      </trkpt>
      <trkpt lat="49.58742" lon="-1.79052">
        <ele>105.3</ele>
        <time>2023-05-18T09:38:11Z</time>
      </trkpt>
      <trkpt lat="49.58724" lon="-1.79071">
        <ele>105.2</ele>
        <time>2023-05-18T09:38:14Z</time>
      </trkpt>
      <trkpt lat="49.58706" lon="-1.79088">
        <ele>104.9</ele>
        <time>2023-05-18T09:38:17Z</time>
      </trkpt>
      <trkpt lat="49.58688" lon="-1.79109">
        <ele>104.6</ele>
        <time>2023-05-18T09:38:20Z</time>
      </trkpt>
      <trkpt lat="49.5867" lon="-1.7913">
        <ele>104.2</ele>
        <time>2023-05-18T09:38:23Z</time>
      </trkpt>
      <trkpt lat="49.58653" lon="-1.79154">
        <ele>103.6</ele>
        <time>2023-05-18T09:38:26Z</time>
      </trkpt>
      <trkpt lat="49.58638" lon="-1.79181">
        <ele>103</ele>
        <time>2023-05-18T09:38:29Z</time>
      </trkpt>
      <trkpt lat="49.58623" lon="-1.7921">
        <ele>102.5</ele>
        <time>2023-05-18T09:38:32Z</time>
      </trkpt>
      <trkpt lat="49.58606" lon="-1.7924">
        <ele>101.9</ele>
        <time>2023-05-18T09:38:35Z</time>
      </trkpt>
      <trkpt lat="49.58589" lon="-1.79268">
        <ele>101.5</ele>
        <time>2023-05-18T09:38:38Z</time>
      </trkpt>
      <trkpt lat="49.58575" lon="-1.79302">
        <ele>101.3</ele>
        <time>2023-05-18T09:38:41Z</time>
      </trkpt>
      <trkpt lat="49.58561" lon="-1.79331">
        <ele>101.1</ele>
        <time>2023-05-18T09:38:44Z</time>
      </trkpt>
      <trkpt lat="49.58545" lon="-1.79359">
        <ele>101</ele>
        <time>2023-05-18T09:38:47Z</time>
      </trkpt>
      <trkpt lat="49.58529" lon="-1.79386">
        <ele>100.9</ele>
        <time>2023-05-18T09:38:50Z</time>
      </trkpt>
      <trkpt lat="49.58514" lon="-1.79411">
        <ele>100.8</ele>
        <time>2023-05-18T09:38:53Z</time>
      </trkpt>
      <trkpt lat="49.585" lon="-1.79438">
        <ele>100.6</ele>
        <time>2023-05-18T09:38:56Z</time>
      </trkpt>
      <trkpt lat="49.58486" lon="-1.79466">
        <ele>100.4</ele>
        <time>2023-05-18T09:38:59Z</time>
      </trkpt>
      <trkpt lat="49.58471" lon="-1.79494">
        <ele>100.1</ele>
        <time>2023-05-18T09:39:02Z</time>
      </trkpt>
      <trkpt lat="49.58455" lon="-1.79522">
        <ele>99.7</ele>
        <time>2023-05-18T09:39:05Z</time>
      </trkpt>
      <trkpt lat="49.58441" lon="-1.7955">
        <ele>99.4</ele>
        <time>2023-05-18T09:39:08Z</time>
      </trkpt>
      <trkpt lat="49.58428" lon="-1.79578">
        <ele>99.2</ele>
        <time>2023-05-18T09:39:11Z</time>
      </trkpt>
      <trkpt lat="49.58413" lon="-1.79603">
        <ele>98.9</ele>
        <time>2023-05-18T09:39:14Z</time>
      </trkpt>
      <trkpt lat="49.58397" lon="-1.79633">
        <ele>98.6</ele>
        <time>2023-05-18T09:39:17Z</time>
      </trkpt>
      <trkpt lat="49.58382" lon="-1.79661">
        <ele>98.2</ele>
        <time>2023-05-18T09:39:20Z</time>
      </trkpt>
      <trkpt lat="49.58366" lon="-1.79689">
        <ele>97.7</ele>
        <time>2023-05-18T09:39:23Z</time>
      </trkpt>
      <trkpt lat="49.58351" lon="-1.79717">
        <ele>96.7</ele>
        <time>2023-05-18T09:39:26Z</time>
      </trkpt>
      <trkpt lat="49.58333" lon="-1.79744">
        <ele>95.1</ele>
        <time>2023-05-18T09:39:29Z</time>
      </trkpt>
      <trkpt lat="49.58315" lon="-1.79756">
        <ele>93.6</ele>
        <time>2023-05-18T09:39:31Z</time>
      </trkpt>
      <trkpt lat="49.58297" lon="-1.79764">
        <ele>92</ele>
        <time>2023-05-18T09:39:33Z</time>
      </trkpt>
      <trkpt lat="49.58279" lon="-1.79772">
        <ele>90.3</ele>
        <time>2023-05-18T09:39:35Z</time>
      </trkpt>
      <trkpt lat="49.5826" lon="-1.79782">
        <ele>88.6</ele>
        <time>2023-05-18T09:39:37Z</time>
      </trkpt>
      <trkpt lat="49.58242" lon="-1.79791">
        <ele>87</ele>
        <time>2023-05-18T09:39:39Z</time>
      </trkpt>
      <trkpt lat="49.58223" lon="-1.79802">
        <ele>85.5</ele>
        <time>2023-05-18T09:39:41Z</time>
      </trkpt>
      <trkpt lat="49.58204" lon="-1.79812">
        <ele>84.2</ele>
        <time>2023-05-18T09:39:43Z</time>
      </trkpt>
      <trkpt lat="49.58185" lon="-1.79823">
        <ele>83.7</ele>
        <time>2023-05-18T09:39:45Z</time>
      </trkpt>
      <trkpt lat="49.58167" lon="-1.79833">
        <ele>83.9</ele>
        <time>2023-05-18T09:39:47Z</time>
      </trkpt>
      <trkpt lat="49.58149" lon="-1.79843">
        <ele>84.7</ele>
        <time>2023-05-18T09:39:49Z</time>
      </trkpt>
      <trkpt lat="49.58132" lon="-1.79852">
        <ele>86</ele>
        <time>2023-05-18T09:39:51Z</time>
      </trkpt>
      <trkpt lat="49.58109" lon="-1.7986">
        <ele>87.7</ele>
        <time>2023-05-18T09:39:54Z</time>
      </trkpt>
      <trkpt lat="49.58087" lon="-1.79858">
        <ele>89.3</ele>
        <time>2023-05-18T09:39:58Z</time>
      </trkpt>
      <trkpt lat="49.58065" lon="-1.79844">
        <ele>90</ele>
        <time>2023-05-18T09:40:02Z</time>
      </trkpt>
      <trkpt lat="49.58046" lon="-1.79825">
        <ele>90.5</ele>
        <time>2023-05-18T09:40:06Z</time>
      </trkpt>
      <trkpt lat="49.58028" lon="-1.79805">
        <ele>90.8</ele>
        <time>2023-05-18T09:40:10Z</time>
      </trkpt>
      <trkpt lat="49.58012" lon="-1.79789">
        <ele>90.8</ele>
        <time>2023-05-18T09:40:13Z</time>
      </trkpt>
      <trkpt lat="49.57997" lon="-1.79774">
        <ele>90.7</ele>
        <time>2023-05-18T09:40:16Z</time>
      </trkpt>
      <trkpt lat="49.57978" lon="-1.79757">
        <ele>90.5</ele>
        <time>2023-05-18T09:40:20Z</time>
      </trkpt>
      <trkpt lat="49.57961" lon="-1.79745">
        <ele>90.3</ele>
        <time>2023-05-18T09:40:23Z</time>
      </trkpt>
      <trkpt lat="49.57944" lon="-1.79733">
        <ele>90</ele>
        <time>2023-05-18T09:40:26Z</time>
      </trkpt>
      <trkpt lat="49.57927" lon="-1.79722">
        <ele>89.6</ele>
        <time>2023-05-18T09:40:29Z</time>
      </trkpt>
      <trkpt lat="49.5791" lon="-1.79709">
        <ele>89.1</ele>
        <time>2023-05-18T09:40:32Z</time>
      </trkpt>
      <trkpt lat="49.5789" lon="-1.79695">
        <ele>88.5</ele>
        <time>2023-05-18T09:40:35Z</time>
      </trkpt>
      <trkpt lat="49.57872" lon="-1.79682">
        <ele>88</ele>
        <time>2023-05-18T09:40:38Z</time>
      </trkpt>
      <trkpt lat="49.57854" lon="-1.7967">
        <ele>87.4</ele>
        <time>2023-05-18T09:40:41Z</time>
      </trkpt>
      <trkpt lat="49.57834" lon="-1.79656">
        <ele>86.6</ele>
        <time>2023-05-18T09:40:44Z</time>
      </trkpt>
      <trkpt lat="49.57814" lon="-1.79642">
        <ele>85.6</ele>
        <time>2023-05-18T09:40:47Z</time>
      </trkpt>
      <trkpt lat="49.57794" lon="-1.79627">
        <ele>84.4</ele>
        <time>2023-05-18T09:40:50Z</time>
      </trkpt>
      <trkpt lat="49.57773" lon="-1.79612">
        <ele>83.1</ele>
        <time>2023-05-18T09:40:53Z</time>
      </trkpt>
      <trkpt lat="49.57751" lon="-1.79596">
        <ele>81.7</ele>
        <time>2023-05-18T09:40:56Z</time>
      </trkpt>
      <trkpt lat="49.57729" lon="-1.79579">
        <ele>80.2</ele>
        <time>2023-05-18T09:40:59Z</time>
      </trkpt>
      <trkpt lat="49.57704" lon="-1.79562">
        <ele>78.6</ele>
        <time>2023-05-18T09:41:02Z</time>
      </trkpt>
      <trkpt lat="49.57687" lon="-1.79549">
        <ele>77.6</ele>
        <time>2023-05-18T09:41:04Z</time>
      </trkpt>
      <trkpt lat="49.5767" lon="-1.79537">
        <ele>76.5</ele>
        <time>2023-05-18T09:41:06Z</time>
      </trkpt>
      <trkpt lat="49.57645" lon="-1.79522">
        <ele>75.1</ele>
        <time>2023-05-18T09:41:09Z</time>
      </trkpt>
      <trkpt lat="49.57629" lon="-1.79508">
        <ele>73.9</ele>
        <time>2023-05-18T09:41:11Z</time>
      </trkpt>
      <trkpt lat="49.57612" lon="-1.79495">
        <ele>72.8</ele>
        <time>2023-05-18T09:41:13Z</time>
      </trkpt>
      <trkpt lat="49.57595" lon="-1.79482">
        <ele>71.6</ele>
        <time>2023-05-18T09:41:15Z</time>
      </trkpt>
      <trkpt lat="49.57578" lon="-1.7947">
        <ele>70.3</ele>
        <time>2023-05-18T09:41:17Z</time>
      </trkpt>
      <trkpt lat="49.57561" lon="-1.79459">
        <ele>68.9</ele>
        <time>2023-05-18T09:41:19Z</time>
      </trkpt>
      <trkpt lat="49.57541" lon="-1.79446">
        <ele>67.3</ele>
        <time>2023-05-18T09:41:21Z</time>
      </trkpt>
      <trkpt lat="49.57521" lon="-1.79442">
        <ele>65.6</ele>
        <time>2023-05-18T09:41:23Z</time>
      </trkpt>
      <trkpt lat="49.575" lon="-1.79447">
        <ele>64.4</ele>
        <time>2023-05-18T09:41:25Z</time>
      </trkpt>
      <trkpt lat="49.57482" lon="-1.7947">
        <ele>63.4</ele>
        <time>2023-05-18T09:41:27Z</time>
      </trkpt>
      <trkpt lat="49.57471" lon="-1.79502">
        <ele>62.9</ele>
        <time>2023-05-18T09:41:29Z</time>
      </trkpt>
      <trkpt lat="49.57463" lon="-1.79531">
        <ele>62.8</ele>
        <time>2023-05-18T09:41:31Z</time>
      </trkpt>
      <trkpt lat="49.57455" lon="-1.79558">
        <ele>62.7</ele>
        <time>2023-05-18T09:41:33Z</time>
      </trkpt>
      <trkpt lat="49.57445" lon="-1.79595">
        <ele>62.7</ele>
        <time>2023-05-18T09:41:36Z</time>
      </trkpt>
      <trkpt lat="49.57436" lon="-1.79634">
        <ele>62.7</ele>
        <time>2023-05-18T09:41:39Z</time>
      </trkpt>
      <trkpt lat="49.57424" lon="-1.7967">
        <ele>62.2</ele>
        <time>2023-05-18T09:41:42Z</time>
      </trkpt>
      <trkpt lat="49.57417" lon="-1.79696">
        <ele>61.8</ele>
        <time>2023-05-18T09:41:44Z</time>
      </trkpt>
      <trkpt lat="49.5741" lon="-1.79724">
        <ele>61.5</ele>
        <time>2023-05-18T09:41:46Z</time>
      </trkpt>
      <trkpt lat="49.57403" lon="-1.79762">
        <ele>61.2</ele>
        <time>2023-05-18T09:41:49Z</time>
      </trkpt>
      <trkpt lat="49.57394" lon="-1.79799">
        <ele>61.1</ele>
        <time>2023-05-18T09:41:52Z</time>
      </trkpt>
      <trkpt lat="49.57387" lon="-1.79834">
        <ele>61.2</ele>
        <time>2023-05-18T09:41:55Z</time>
      </trkpt>
      <trkpt lat="49.5738" lon="-1.79868">
        <ele>61.2</ele>
        <time>2023-05-18T09:41:58Z</time>
      </trkpt>
      <trkpt lat="49.57374" lon="-1.79898">
        <ele>61.1</ele>
        <time>2023-05-18T09:42:01Z</time>
      </trkpt>
      <trkpt lat="49.57369" lon="-1.79928">
        <ele>61</ele>
        <time>2023-05-18T09:42:04Z</time>
      </trkpt>
      <trkpt lat="49.57363" lon="-1.79958">
        <ele>60.9</ele>
        <time>2023-05-18T09:42:07Z</time>
      </trkpt>
      <trkpt lat="49.57358" lon="-1.79986">
        <ele>60.9</ele>
        <time>2023-05-18T09:42:10Z</time>
      </trkpt>
      <trkpt lat="49.57349" lon="-1.80019">
        <ele>60.9</ele>
        <time>2023-05-18T09:42:13Z</time>
      </trkpt>
      <trkpt lat="49.57341" lon="-1.80054">
        <ele>60.8</ele>
        <time>2023-05-18T09:42:16Z</time>
      </trkpt>
      <trkpt lat="49.57331" lon="-1.80086">
        <ele>60.5</ele>
        <time>2023-05-18T09:42:19Z</time>
      </trkpt>
      <trkpt lat="49.57321" lon="-1.80118">
        <ele>60.3</ele>
        <time>2023-05-18T09:42:22Z</time>
      </trkpt>
      <trkpt lat="49.57316" lon="-1.80149">
        <ele>60.2</ele>
        <time>2023-05-18T09:42:25Z</time>
      </trkpt>
      <trkpt lat="49.57309" lon="-1.80182">
        <ele>60</ele>
        <time>2023-05-18T09:42:29Z</time>
      </trkpt>
      <trkpt lat="49.57302" lon="-1.80213">
        <ele>59.6</ele>
        <time>2023-05-18T09:42:32Z</time>
      </trkpt>
      <trkpt lat="49.57287" lon="-1.8024">
        <ele>59.3</ele>
        <time>2023-05-18T09:42:35Z</time>
      </trkpt>
      <trkpt lat="49.57266" lon="-1.8025">
        <ele>58.7</ele>
        <time>2023-05-18T09:42:38Z</time>
      </trkpt>
      <trkpt lat="49.57242" lon="-1.80246">
        <ele>57.6</ele>
        <time>2023-05-18T09:42:42Z</time>
      </trkpt>
      <trkpt lat="49.57219" lon="-1.80246">
        <ele>56.4</ele>
        <time>2023-05-18T09:42:45Z</time>
      </trkpt>
      <trkpt lat="49.57202" lon="-1.80256">
        <ele>55.3</ele>
        <time>2023-05-18T09:42:47Z</time>
      </trkpt>
      <trkpt lat="49.57188" lon="-1.80275">
        <ele>54.2</ele>
        <time>2023-05-18T09:42:49Z</time>
      </trkpt>
      <trkpt lat="49.57181" lon="-1.80315">
        <ele>52.7</ele>
        <time>2023-05-18T09:42:52Z</time>
      </trkpt>
      <trkpt lat="49.57178" lon="-1.80342">
        <ele>51.8</ele>
        <time>2023-05-18T09:42:54Z</time>
      </trkpt>
      <trkpt lat="49.57172" lon="-1.80379">
        <ele>50.7</ele>
        <time>2023-05-18T09:42:57Z</time>
      </trkpt>
      <trkpt lat="49.57166" lon="-1.8041">
        <ele>49.9</ele>
        <time>2023-05-18T09:42:59Z</time>
      </trkpt>
      <trkpt lat="49.57158" lon="-1.80438">
        <ele>49.3</ele>
        <time>2023-05-18T09:43:01Z</time>
      </trkpt>
      <trkpt lat="49.57151" lon="-1.80466">
        <ele>48.8</ele>
        <time>2023-05-18T09:43:03Z</time>
      </trkpt>
      <trkpt lat="49.57142" lon="-1.80496">
        <ele>48.3</ele>
        <time>2023-05-18T09:43:05Z</time>
      </trkpt>
      <trkpt lat="49.57134" lon="-1.80523">
        <ele>48</ele>
        <time>2023-05-18T09:43:07Z</time>
      </trkpt>
      <trkpt lat="49.57125" lon="-1.80549">
        <ele>47.7</ele>
        <time>2023-05-18T09:43:09Z</time>
      </trkpt>
      <trkpt lat="49.5712" lon="-1.80576">
        <ele>47.5</ele>
        <time>2023-05-18T09:43:11Z</time>
      </trkpt>
      <trkpt lat="49.57108" lon="-1.80614">
        <ele>47.1</ele>
        <time>2023-05-18T09:43:14Z</time>
      </trkpt>
      <trkpt lat="49.57095" lon="-1.80643">
        <ele>46.8</ele>
        <time>2023-05-18T09:43:17Z</time>
      </trkpt>
      <trkpt lat="49.57077" lon="-1.8067">
        <ele>46.4</ele>
        <time>2023-05-18T09:43:20Z</time>
      </trkpt>
      <trkpt lat="49.5706" lon="-1.807">
        <ele>46</ele>
        <time>2023-05-18T09:43:23Z</time>
      </trkpt>
      <trkpt lat="49.57043" lon="-1.80727">
        <ele>45.7</ele>
        <time>2023-05-18T09:43:26Z</time>
      </trkpt>
      <trkpt lat="49.57031" lon="-1.8075">
        <ele>45.6</ele>
        <time>2023-05-18T09:43:28Z</time>
      </trkpt>
      <trkpt lat="49.57017" lon="-1.80768">
        <ele>45.5</ele>
        <time>2023-05-18T09:43:30Z</time>
      </trkpt>
      <trkpt lat="49.56999" lon="-1.80796">
        <ele>45.4</ele>
        <time>2023-05-18T09:43:33Z</time>
      </trkpt>
      <trkpt lat="49.56985" lon="-1.80826">
        <ele>45.4</ele>
        <time>2023-05-18T09:43:36Z</time>
      </trkpt>
      <trkpt lat="49.56975" lon="-1.80853">
        <ele>45.4</ele>
        <time>2023-05-18T09:43:39Z</time>
      </trkpt>
      <trkpt lat="49.56967" lon="-1.80885">
        <ele>45.1</ele>
        <time>2023-05-18T09:43:42Z</time>
      </trkpt>
      <trkpt lat="49.56963" lon="-1.80922">
        <ele>44.6</ele>
        <time>2023-05-18T09:43:45Z</time>
      </trkpt>
      <trkpt lat="49.5696" lon="-1.80955">
        <ele>43.8</ele>
        <time>2023-05-18T09:43:48Z</time>
      </trkpt>
      <trkpt lat="49.56956" lon="-1.8099">
        <ele>42.8</ele>
        <time>2023-05-18T09:43:51Z</time>
      </trkpt>
      <trkpt lat="49.56952" lon="-1.81031">
        <ele>41.6</ele>
        <time>2023-05-18T09:43:54Z</time>
      </trkpt>
      <trkpt lat="49.5695" lon="-1.81072">
        <ele>40.6</ele>
        <time>2023-05-18T09:43:57Z</time>
      </trkpt>
      <trkpt lat="49.56947" lon="-1.811">
        <ele>40</ele>
        <time>2023-05-18T09:43:59Z</time>
      </trkpt>
      <trkpt lat="49.5694" lon="-1.81136">
        <ele>39.5</ele>
        <time>2023-05-18T09:44:02Z</time>
      </trkpt>
      <trkpt lat="49.56934" lon="-1.81168">
        <ele>39.2</ele>
        <time>2023-05-18T09:44:05Z</time>
      </trkpt>
      <trkpt lat="49.56926" lon="-1.81203">
        <ele>38.6</ele>
        <time>2023-05-18T09:44:09Z</time>
      </trkpt>
      <trkpt lat="49.56916" lon="-1.81233">
        <ele>37.9</ele>
        <time>2023-05-18T09:44:12Z</time>
      </trkpt>
      <trkpt lat="49.56901" lon="-1.81265">
        <ele>36.9</ele>
        <time>2023-05-18T09:44:15Z</time>
      </trkpt>
      <trkpt lat="49.56886" lon="-1.81295">
        <ele>36.1</ele>
        <time>2023-05-18T09:44:18Z</time>
      </trkpt>
      <trkpt lat="49.56878" lon="-1.8132">
        <ele>35.7</ele>
        <time>2023-05-18T09:44:20Z</time>
      </trkpt>
      <trkpt lat="49.56865" lon="-1.81355">
        <ele>35</ele>
        <time>2023-05-18T09:44:23Z</time>
      </trkpt>
      <trkpt lat="49.56855" lon="-1.81388">
        <ele>34.5</ele>
        <time>2023-05-18T09:44:26Z</time>
      </trkpt>
      <trkpt lat="49.56852" lon="-1.81421">
        <ele>34</ele>
        <time>2023-05-18T09:44:29Z</time>
      </trkpt>
      <trkpt lat="49.56853" lon="-1.81459">
        <ele>33.4</ele>
        <time>2023-05-18T09:44:32Z</time>
      </trkpt>
      <trkpt lat="49.5686" lon="-1.81492">
        <ele>32.8</ele>
        <time>2023-05-18T09:44:35Z</time>
      </trkpt>
      <trkpt lat="49.56867" lon="-1.81526">
        <ele>32.1</ele>
        <time>2023-05-18T09:44:38Z</time>
      </trkpt>
      <trkpt lat="49.56875" lon="-1.81561">
        <ele>31.2</ele>
        <time>2023-05-18T09:44:41Z</time>
      </trkpt>
      <trkpt lat="49.56885" lon="-1.81595">
        <ele>30.4</ele>
        <time>2023-05-18T09:44:44Z</time>
      </trkpt>
      <trkpt lat="49.56892" lon="-1.81631">
        <ele>29.9</ele>
        <time>2023-05-18T09:44:47Z</time>
      </trkpt>
      <trkpt lat="49.56899" lon="-1.81666">
        <ele>29.5</ele>
        <time>2023-05-18T09:44:50Z</time>
      </trkpt>
      <trkpt lat="49.56907" lon="-1.81697">
        <ele>29.5</ele>
        <time>2023-05-18T09:44:53Z</time>
      </trkpt>
      <trkpt lat="49.56912" lon="-1.81729">
        <ele>29.5</ele>
        <time>2023-05-18T09:44:56Z</time>
      </trkpt>
      <trkpt lat="49.56916" lon="-1.81759">
        <ele>29.4</ele>
        <time>2023-05-18T09:44:59Z</time>
      </trkpt>
      <trkpt lat="49.56921" lon="-1.81796">
        <ele>29.2</ele>
        <time>2023-05-18T09:45:02Z</time>
      </trkpt>
      <trkpt lat="49.5693" lon="-1.81827">
        <ele>28.9</ele>
        <time>2023-05-18T09:45:05Z</time>
      </trkpt>
      <trkpt lat="49.56947" lon="-1.81847">
        <ele>28.5</ele>
        <time>2023-05-18T09:45:08Z</time>
      </trkpt>
      <trkpt lat="49.56968" lon="-1.81857">
        <ele>27.8</ele>
        <time>2023-05-18T09:45:11Z</time>
      </trkpt>
      <trkpt lat="49.5699" lon="-1.81864">
        <ele>27.1</ele>
        <time>2023-05-18T09:45:14Z</time>
      </trkpt>
      <trkpt lat="49.57012" lon="-1.81879">
        <ele>26.5</ele>
        <time>2023-05-18T09:45:17Z</time>
      </trkpt>
      <trkpt lat="49.57031" lon="-1.81896">
        <ele>25.8</ele>
        <time>2023-05-18T09:45:20Z</time>
      </trkpt>
      <trkpt lat="49.57049" lon="-1.81921">
        <ele>24.9</ele>
        <time>2023-05-18T09:45:23Z</time>
      </trkpt>
      <trkpt lat="49.57066" lon="-1.81949">
        <ele>24.1</ele>
        <time>2023-05-18T09:45:26Z</time>
      </trkpt>
      <trkpt lat="49.57083" lon="-1.81977">
        <ele>23.6</ele>
        <time>2023-05-18T09:45:29Z</time>
      </trkpt>
      <trkpt lat="49.57096" lon="-1.82008">
        <ele>23.3</ele>
        <time>2023-05-18T09:45:32Z</time>
      </trkpt>
      <trkpt lat="49.57107" lon="-1.82041">
        <ele>23.1</ele>
        <time>2023-05-18T09:45:35Z</time>
      </trkpt>
      <trkpt lat="49.5712" lon="-1.82069">
        <ele>23.1</ele>
        <time>2023-05-18T09:45:38Z</time>
      </trkpt>
      <trkpt lat="49.57133" lon="-1.82095">
        <ele>23</ele>
        <time>2023-05-18T09:45:41Z</time>
      </trkpt>
      <trkpt lat="49.57142" lon="-1.82127">
        <ele>22.9</ele>
        <time>2023-05-18T09:45:44Z</time>
      </trkpt>
      <trkpt lat="49.57154" lon="-1.82154">
        <ele>22.9</ele>
        <time>2023-05-18T09:45:47Z</time>
      </trkpt>
      <trkpt lat="49.57166" lon="-1.82182">
        <ele>22.8</ele>
        <time>2023-05-18T09:45:50Z</time>
      </trkpt>
      <trkpt lat="49.57178" lon="-1.82208">
        <ele>22.6</ele>
        <time>2023-05-18T09:45:53Z</time>
      </trkpt>
      <trkpt lat="49.57189" lon="-1.82237">
        <ele>22.2</ele>
        <time>2023-05-18T09:45:56Z</time>
      </trkpt>
      <trkpt lat="49.57199" lon="-1.82263">
        <ele>21.8</ele>
        <time>2023-05-18T09:45:59Z</time>
      </trkpt>
      <trkpt lat="49.57211" lon="-1.82294">
        <ele>21.4</ele>
        <time>2023-05-18T09:46:02Z</time>
      </trkpt>
      <trkpt lat="49.57221" lon="-1.82323">
        <ele>20.9</ele>
        <time>2023-05-18T09:46:05Z</time>
      </trkpt>
      <trkpt lat="49.57232" lon="-1.82353">
        <ele>20.3</ele>
        <time>2023-05-18T09:46:08Z</time>
      </trkpt>
      <trkpt lat="49.57242" lon="-1.82385">
        <ele>19.7</ele>
        <time>2023-05-18T09:46:11Z</time>
      </trkpt>
      <trkpt lat="49.57252" lon="-1.82418">
        <ele>19</ele>
        <time>2023-05-18T09:46:14Z</time>
      </trkpt>
      <trkpt lat="49.57257" lon="-1.82454">
        <ele>18.3</ele>
        <time>2023-05-18T09:46:17Z</time>
      </trkpt>
      <trkpt lat="49.57258" lon="-1.82488">
        <ele>17.3</ele>
        <time>2023-05-18T09:46:20Z</time>
      </trkpt>
      <trkpt lat="49.57252" lon="-1.82529">
        <ele>15.9</ele>
        <time>2023-05-18T09:46:23Z</time>
      </trkpt>
      <trkpt lat="49.57247" lon="-1.82558">
        <ele>15</ele>
        <time>2023-05-18T09:46:25Z</time>
      </trkpt>
      <trkpt lat="49.57242" lon="-1.82589">
        <ele>14.1</ele>
        <time>2023-05-18T09:46:27Z</time>
      </trkpt>
      <trkpt lat="49.57243" lon="-1.82619">
        <ele>13.4</ele>
        <time>2023-05-18T09:46:29Z</time>
      </trkpt>
      <trkpt lat="49.57248" lon="-1.82648">
        <ele>12.7</ele>
        <time>2023-05-18T09:46:31Z</time>
      </trkpt>
      <trkpt lat="49.57257" lon="-1.82686">
        <ele>12</ele>
        <time>2023-05-18T09:46:34Z</time>
      </trkpt>
      <trkpt lat="49.5727" lon="-1.82722">
        <ele>11.5</ele>
        <time>2023-05-18T09:46:37Z</time>
      </trkpt>
      <trkpt lat="49.57284" lon="-1.82755">
        <ele>11.2</ele>
        <time>2023-05-18T09:46:40Z</time>
      </trkpt>
      <trkpt lat="49.57292" lon="-1.82781">
        <ele>11.1</ele>
        <time>2023-05-18T09:46:42Z</time>
      </trkpt>
      <trkpt lat="49.57289" lon="-1.82819">
        <ele>11.4</ele>
        <time>2023-05-18T09:46:45Z</time>
      </trkpt>
      <trkpt lat="49.57267" lon="-1.82835">
        <ele>11.4</ele>
        <time>2023-05-18T09:46:48Z</time>
      </trkpt>
      <trkpt lat="49.57251" lon="-1.82862">
        <ele>11.4</ele>
        <time>2023-05-18T09:46:51Z</time>
      </trkpt>
      <trkpt lat="49.57242" lon="-1.82895">
        <ele>11.5</ele>
        <time>2023-05-18T09:46:54Z</time>
      </trkpt>
      <trkpt lat="49.57235" lon="-1.82927">
        <ele>11.9</ele>
        <time>2023-05-18T09:46:57Z</time>
      </trkpt>
      <trkpt lat="49.57227" lon="-1.82958">
        <ele>12.3</ele>
        <time>2023-05-18T09:47:00Z</time>
      </trkpt>
      <trkpt lat="49.57219" lon="-1.82985">
        <ele>12.5</ele>
        <time>2023-05-18T09:47:03Z</time>
      </trkpt>
      <trkpt lat="49.57211" lon="-1.83021">
        <ele>12.4</ele>
        <time>2023-05-18T09:47:07Z</time>
      </trkpt>
      <trkpt lat="49.57204" lon="-1.83051">
        <ele>12.1</ele>
        <time>2023-05-18T09:47:10Z</time>
      </trkpt>
      <trkpt lat="49.57198" lon="-1.83083">
        <ele>11.6</ele>
        <time>2023-05-18T09:47:13Z</time>
      </trkpt>
      <trkpt lat="49.57191" lon="-1.83117">
        <ele>11</ele>
        <time>2023-05-18T09:47:16Z</time>
      </trkpt>
      <trkpt lat="49.57184" lon="-1.83153">
        <ele>10.5</ele>
        <time>2023-05-18T09:47:19Z</time>
      </trkpt>
      <trkpt lat="49.57178" lon="-1.83187">
        <ele>10.2</ele>
        <time>2023-05-18T09:47:22Z</time>
      </trkpt>
      <trkpt lat="49.57173" lon="-1.8322">
        <ele>9.8</ele>
        <time>2023-05-18T09:47:25Z</time>
      </trkpt>
      <trkpt lat="49.57167" lon="-1.8325">
        <ele>9.5</ele>
        <time>2023-05-18T09:47:28Z</time>
      </trkpt>
      <trkpt lat="49.57164" lon="-1.83282">
        <ele>9.3</ele>
        <time>2023-05-18T09:47:31Z</time>
      </trkpt>
      <trkpt lat="49.57159" lon="-1.83315">
        <ele>9.1</ele>
        <time>2023-05-18T09:47:34Z</time>
      </trkpt>
      <trkpt lat="49.57155" lon="-1.83348">
        <ele>8.8</ele>
        <time>2023-05-18T09:47:37Z</time>
      </trkpt>
      <trkpt lat="49.57149" lon="-1.83383">
        <ele>8.6</ele>
        <time>2023-05-18T09:47:40Z</time>
      </trkpt>
      <trkpt lat="49.57146" lon="-1.83415">
        <ele>8.3</ele>
        <time>2023-05-18T09:47:43Z</time>
      </trkpt>
      <trkpt lat="49.57142" lon="-1.83447">
        <ele>8.2</ele>
        <time>2023-05-18T09:47:46Z</time>
      </trkpt>
      <trkpt lat="49.57137" lon="-1.83478">
        <ele>8.1</ele>
        <time>2023-05-18T09:47:49Z</time>
      </trkpt>
      <trkpt lat="49.57132" lon="-1.83508">
        <ele>8</ele>
        <time>2023-05-18T09:47:52Z</time>
      </trkpt>
      <trkpt lat="49.57128" lon="-1.8354">
        <ele>8</ele>
        <time>2023-05-18T09:47:55Z</time>
      </trkpt>
      <trkpt lat="49.57123" lon="-1.83567">
        <ele>8.2</ele>
        <time>2023-05-18T09:47:58Z</time>
      </trkpt>
      <trkpt lat="49.57105" lon="-1.83585">
        <ele>8.3</ele>
        <time>2023-05-18T09:48:02Z</time>
      </trkpt>
      <trkpt lat="49.57085" lon="-1.83583">
        <ele>8.4</ele>
        <time>2023-05-18T09:48:05Z</time>
      </trkpt>
      <trkpt lat="49.57061" lon="-1.83582">
        <ele>8.5</ele>
        <time>2023-05-18T09:48:09Z</time>
      </trkpt>
      <trkpt lat="49.57037" lon="-1.83581">
        <ele>8.5</ele>
        <time>2023-05-18T09:48:13Z</time>
      </trkpt>
      <trkpt lat="49.57019" lon="-1.83579">
        <ele>8.5</ele>
        <time>2023-05-18T09:48:16Z</time>
      </trkpt>
      <trkpt lat="49.56996" lon="-1.8358">
        <ele>8.6</ele>
        <time>2023-05-18T09:48:20Z</time>
      </trkpt>
      <trkpt lat="49.56974" lon="-1.83578">
        <ele>8.8</ele>
        <time>2023-05-18T09:48:24Z</time>
      </trkpt>
      <trkpt lat="49.56951" lon="-1.83571">
        <ele>8.9</ele>
        <time>2023-05-18T09:48:28Z</time>
      </trkpt>
      <trkpt lat="49.56934" lon="-1.83551">
        <ele>9</ele>
        <time>2023-05-18T09:48:32Z</time>
      </trkpt>
      <trkpt lat="49.56921" lon="-1.83531">
        <ele>9</ele>
        <time>2023-05-18T09:48:35Z</time>
      </trkpt>
      <trkpt lat="49.56905" lon="-1.83507">
        <ele>9</ele>
        <time>2023-05-18T09:48:39Z</time>
      </trkpt>
      <trkpt lat="49.56892" lon="-1.8348">
        <ele>9</ele>
        <time>2023-05-18T09:48:43Z</time>
      </trkpt>
      <trkpt lat="49.56877" lon="-1.83455">
        <ele>9.1</ele>
        <time>2023-05-18T09:48:47Z</time>
      </trkpt>
      <trkpt lat="49.56863" lon="-1.83434">
        <ele>9.3</ele>
        <time>2023-05-18T09:48:51Z</time>
      </trkpt>
      <trkpt lat="49.56849" lon="-1.83412">
        <ele>9.6</ele>
        <time>2023-05-18T09:48:55Z</time>
      </trkpt>
      <trkpt lat="49.56828" lon="-1.83416">
        <ele>9.8</ele>
        <time>2023-05-18T09:49:00Z</time>
      </trkpt>
      <trkpt lat="49.56817" lon="-1.83445">
        <ele>9.6</ele>
        <time>2023-05-18T09:49:04Z</time>
      </trkpt>
      <trkpt lat="49.56807" lon="-1.83477">
        <ele>9.6</ele>
        <time>2023-05-18T09:49:08Z</time>
      </trkpt>
      <trkpt lat="49.56798" lon="-1.83504">
        <ele>9.5</ele>
        <time>2023-05-18T09:49:11Z</time>
      </trkpt>
      <trkpt lat="49.56787" lon="-1.8353">
        <ele>9.5</ele>
        <time>2023-05-18T09:49:14Z</time>
      </trkpt>
      <trkpt lat="49.56775" lon="-1.83555">
        <ele>9.5</ele>
        <time>2023-05-18T09:49:17Z</time>
      </trkpt>
      <trkpt lat="49.56765" lon="-1.83582">
        <ele>9.4</ele>
        <time>2023-05-18T09:49:20Z</time>
      </trkpt>
      <trkpt lat="49.56752" lon="-1.83608">
        <ele>9.2</ele>
        <time>2023-05-18T09:49:23Z</time>
      </trkpt>
      <trkpt lat="49.56742" lon="-1.83635">
        <ele>9.1</ele>
        <time>2023-05-18T09:49:26Z</time>
      </trkpt>
      <trkpt lat="49.56732" lon="-1.83662">
        <ele>9</ele>
        <time>2023-05-18T09:49:29Z</time>
      </trkpt>
      <trkpt lat="49.56721" lon="-1.83689">
        <ele>8.9</ele>
        <time>2023-05-18T09:49:32Z</time>
      </trkpt>
      <trkpt lat="49.56712" lon="-1.83716">
        <ele>8.8</ele>
        <time>2023-05-18T09:49:35Z</time>
      </trkpt>
      <trkpt lat="49.56704" lon="-1.83744">
        <ele>8.7</ele>
        <time>2023-05-18T09:49:38Z</time>
      </trkpt>
      <trkpt lat="49.56696" lon="-1.83773">
        <ele>8.6</ele>
        <time>2023-05-18T09:49:41Z</time>
      </trkpt>
      <trkpt lat="49.56687" lon="-1.83798">
        <ele>8.5</ele>
        <time>2023-05-18T09:49:44Z</time>
      </trkpt>
      <trkpt lat="49.56676" lon="-1.83824">
        <ele>8.5</ele>
        <time>2023-05-18T09:49:47Z</time>
      </trkpt>
      <trkpt lat="49.56663" lon="-1.83849">
        <ele>8.4</ele>
        <time>2023-05-18T09:49:50Z</time>
      </trkpt>
      <trkpt lat="49.56649" lon="-1.83877">
        <ele>8.3</ele>
        <time>2023-05-18T09:49:53Z</time>
      </trkpt>
      <trkpt lat="49.56636" lon="-1.83905">
        <ele>8.1</ele>
        <time>2023-05-18T09:49:56Z</time>
      </trkpt>
      <trkpt lat="49.56624" lon="-1.83931">
        <ele>7.9</ele>
        <time>2023-05-18T09:49:59Z</time>
      </trkpt>
      <trkpt lat="49.56613" lon="-1.83957">
        <ele>7.8</ele>
        <time>2023-05-18T09:50:02Z</time>
      </trkpt>
      <trkpt lat="49.566" lon="-1.83982">
        <ele>7.6</ele>
        <time>2023-05-18T09:50:05Z</time>
      </trkpt>
      <trkpt lat="49.56588" lon="-1.84007">
        <ele>7.5</ele>
        <time>2023-05-18T09:50:08Z</time>
      </trkpt>
      <trkpt lat="49.56577" lon="-1.84032">
        <ele>7.5</ele>
        <time>2023-05-18T09:50:11Z</time>
      </trkpt>
      <trkpt lat="49.56566" lon="-1.84058">
        <ele>7.6</ele>
        <time>2023-05-18T09:50:14Z</time>
      </trkpt>
      <trkpt lat="49.56554" lon="-1.84083">
        <ele>7.7</ele>
        <time>2023-05-18T09:50:17Z</time>
      </trkpt>
      <trkpt lat="49.56544" lon="-1.84107">
        <ele>7.8</ele>
        <time>2023-05-18T09:50:20Z</time>
      </trkpt>
      <trkpt lat="49.56531" lon="-1.84138">
        <ele>8</ele>
        <time>2023-05-18T09:50:24Z</time>
      </trkpt>
      <trkpt lat="49.56519" lon="-1.84161">
        <ele>8.2</ele>
        <time>2023-05-18T09:50:27Z</time>
      </trkpt>
      <trkpt lat="49.56505" lon="-1.8418">
        <ele>8.3</ele>
        <time>2023-05-18T09:50:30Z</time>
      </trkpt>
      <trkpt lat="49.56492" lon="-1.84202">
        <ele>8.3</ele>
        <time>2023-05-18T09:50:33Z</time>
      </trkpt>
      <trkpt lat="49.56478" lon="-1.8423">
        <ele>8.5</ele>
        <time>2023-05-18T09:50:37Z</time>
      </trkpt>
      <trkpt lat="49.56463" lon="-1.84256">
        <ele>8.7</ele>
        <time>2023-05-18T09:50:41Z</time>
      </trkpt>
      <trkpt lat="49.56448" lon="-1.84283">
        <ele>8.8</ele>
        <time>2023-05-18T09:50:45Z</time>
      </trkpt>
      <trkpt lat="49.56433" lon="-1.84308">
        <ele>8.9</ele>
        <time>2023-05-18T09:50:49Z</time>
      </trkpt>
      <trkpt lat="49.56417" lon="-1.84334">
        <ele>9.1</ele>
        <time>2023-05-18T09:50:53Z</time>
      </trkpt>
      <trkpt lat="49.56402" lon="-1.84359">
        <ele>9.4</ele>
        <time>2023-05-18T09:50:57Z</time>
      </trkpt>
      <trkpt lat="49.56387" lon="-1.84383">
        <ele>9.5</ele>
        <time>2023-05-18T09:51:01Z</time>
      </trkpt>
      <trkpt lat="49.56372" lon="-1.84405">
        <ele>9.6</ele>
        <time>2023-05-18T09:51:05Z</time>
      </trkpt>
      <trkpt lat="49.56357" lon="-1.84428">
        <ele>9.8</ele>
        <time>2023-05-18T09:51:09Z</time>
      </trkpt>
      <trkpt lat="49.56343" lon="-1.84447">
        <ele>10.2</ele>
        <time>2023-05-18T09:51:13Z</time>
      </trkpt>
      <trkpt lat="49.56329" lon="-1.84466">
        <ele>10.5</ele>
        <time>2023-05-18T09:51:17Z</time>
      </trkpt>
      <trkpt lat="49.56317" lon="-1.84487">
        <ele>10.9</ele>
        <time>2023-05-18T09:51:21Z</time>
      </trkpt>
      <trkpt lat="49.56303" lon="-1.84506">
        <ele>11.3</ele>
        <time>2023-05-18T09:51:25Z</time>
      </trkpt>
      <trkpt lat="49.56286" lon="-1.8453">
        <ele>11.7</ele>
        <time>2023-05-18T09:51:30Z</time>
      </trkpt>
      <trkpt lat="49.56271" lon="-1.84549">
        <ele>12.2</ele>
        <time>2023-05-18T09:51:34Z</time>
      </trkpt>
      <trkpt lat="49.56257" lon="-1.84573">
        <ele>12.6</ele>
        <time>2023-05-18T09:51:39Z</time>
      </trkpt>
      <trkpt lat="49.56243" lon="-1.84593">
        <ele>13.1</ele>
        <time>2023-05-18T09:51:43Z</time>
      </trkpt>
      <trkpt lat="49.56233" lon="-1.84619">
        <ele>13.6</ele>
        <time>2023-05-18T09:51:47Z</time>
      </trkpt>
      <trkpt lat="49.56218" lon="-1.84633">
        <ele>14.3</ele>
        <time>2023-05-18T09:51:51Z</time>
      </trkpt>
      <trkpt lat="49.56199" lon="-1.84635">
        <ele>15.1</ele>
        <time>2023-05-18T09:51:56Z</time>
      </trkpt>
      <trkpt lat="49.56178" lon="-1.84631">
        <ele>16</ele>
        <time>2023-05-18T09:52:02Z</time>
      </trkpt>
      <trkpt lat="49.56155" lon="-1.8463">
        <ele>17.1</ele>
        <time>2023-05-18T09:52:08Z</time>
      </trkpt>
      <trkpt lat="49.56136" lon="-1.84631">
        <ele>18.3</ele>
        <time>2023-05-18T09:52:18Z</time>
      </trkpt>
      <trkpt lat="49.56116" lon="-1.84627">
        <ele>19.8</ele>
        <time>2023-05-18T09:52:26Z</time>
      </trkpt>
      <trkpt lat="49.56098" lon="-1.84618">
        <ele>21.3</ele>
        <time>2023-05-18T09:52:35Z</time>
      </trkpt>
      <trkpt lat="49.56079" lon="-1.84606">
        <ele>22.8</ele>
        <time>2023-05-18T09:52:44Z</time>
      </trkpt>
      <trkpt lat="49.56061" lon="-1.84594">
        <ele>24.4</ele>
        <time>2023-05-18T09:52:53Z</time>
      </trkpt>
      <trkpt lat="49.56045" lon="-1.84581">
        <ele>26</ele>
        <time>2023-05-18T09:53:00Z</time>
      </trkpt>
      <trkpt lat="49.56029" lon="-1.84568">
        <ele>27.7</ele>
        <time>2023-05-18T09:53:10Z</time>
      </trkpt>
      <trkpt lat="49.56013" lon="-1.84554">
        <ele>29.3</ele>
        <time>2023-05-18T09:53:18Z</time>
      </trkpt>
      <trkpt lat="49.55998" lon="-1.84537">
        <ele>31</ele>
        <time>2023-05-18T09:53:27Z</time>
      </trkpt>
      <trkpt lat="49.55983" lon="-1.84517">
        <ele>32.7</ele>
        <time>2023-05-18T09:53:38Z</time>
      </trkpt>
      <trkpt lat="49.5597" lon="-1.84494">
        <ele>34.5</ele>
        <time>2023-05-18T09:53:48Z</time>
      </trkpt>
      <trkpt lat="49.55964" lon="-1.84467">
        <ele>36.3</ele>
        <time>2023-05-18T09:53:58Z</time>
      </trkpt>
      <trkpt lat="49.55957" lon="-1.84439">
        <ele>38.2</ele>
        <time>2023-05-18T09:54:08Z</time>
      </trkpt>
      <trkpt lat="49.55949" lon="-1.84412">
        <ele>39.9</ele>
        <time>2023-05-18T09:54:18Z</time>
      </trkpt>
      <trkpt lat="49.55933" lon="-1.84395">
        <ele>41.5</ele>
        <time>2023-05-18T09:54:28Z</time>
      </trkpt>
      <trkpt lat="49.55915" lon="-1.84391">
        <ele>42.9</ele>
        <time>2023-05-18T09:54:37Z</time>
      </trkpt>
      <trkpt lat="49.55896" lon="-1.84389">
        <ele>44.1</ele>
        <time>2023-05-18T09:54:46Z</time>
      </trkpt>
      <trkpt lat="49.55876" lon="-1.8439">
        <ele>45.3</ele>
        <time>2023-05-18T09:54:55Z</time>
      </trkpt>
      <trkpt lat="49.55856" lon="-1.84388">
        <ele>46.5</ele>
        <time>2023-05-18T09:55:03Z</time>
      </trkpt>
      <trkpt lat="49.55837" lon="-1.84385">
        <ele>47.7</ele>
        <time>2023-05-18T09:55:10Z</time>
      </trkpt>
      <trkpt lat="49.55819" lon="-1.84378">
        <ele>48.8</ele>
        <time>2023-05-18T09:55:18Z</time>
      </trkpt>
      <trkpt lat="49.55799" lon="-1.84367">
        <ele>50</ele>
        <time>2023-05-18T09:55:26Z</time>
      </trkpt>
      <trkpt lat="49.55783" lon="-1.84353">
        <ele>51.3</ele>
        <time>2023-05-18T09:55:34Z</time>
      </trkpt>
      <trkpt lat="49.5577" lon="-1.84328">
        <ele>52.6</ele>
        <time>2023-05-18T09:55:42Z</time>
      </trkpt>
      <trkpt lat="49.55757" lon="-1.84307">
        <ele>54.1</ele>
        <time>2023-05-18T09:55:51Z</time>
      </trkpt>
      <trkpt lat="49.55746" lon="-1.84285">
        <ele>55.7</ele>
        <time>2023-05-18T09:55:59Z</time>
      </trkpt>
      <trkpt lat="49.55731" lon="-1.84265">
        <ele>57.5</ele>
        <time>2023-05-18T09:56:09Z</time>
      </trkpt>
      <trkpt lat="49.55718" lon="-1.84243">
        <ele>59.3</ele>
        <time>2023-05-18T09:56:21Z</time>
      </trkpt>
      <trkpt lat="49.55703" lon="-1.84224">
        <ele>60.7</ele>
        <time>2023-05-18T09:56:30Z</time>
      </trkpt>
      <trkpt lat="49.55688" lon="-1.84207">
        <ele>61.9</ele>
        <time>2023-05-18T09:56:38Z</time>
      </trkpt>
      <trkpt lat="49.55671" lon="-1.84192">
        <ele>63.3</ele>
        <time>2023-05-18T09:56:47Z</time>
      </trkpt>
      <trkpt lat="49.55655" lon="-1.84175">
        <ele>64.6</ele>
        <time>2023-05-18T09:56:56Z</time>
      </trkpt>
      <trkpt lat="49.5564" lon="-1.84157">
        <ele>65.9</ele>
        <time>2023-05-18T09:57:05Z</time>
      </trkpt>
      <trkpt lat="49.55621" lon="-1.84151">
        <ele>67.2</ele>
        <time>2023-05-18T09:57:14Z</time>
      </trkpt>
      <trkpt lat="49.55614" lon="-1.84176">
        <ele>67.3</ele>
        <time>2023-05-18T09:57:25Z</time>
      </trkpt>
      <trkpt lat="49.55615" lon="-1.84208">
        <ele>66.6</ele>
        <time>2023-05-18T09:57:31Z</time>
      </trkpt>
      <trkpt lat="49.55615" lon="-1.84241">
        <ele>65.9</ele>
        <time>2023-05-18T09:57:36Z</time>
      </trkpt>
      <trkpt lat="49.55614" lon="-1.84276">
        <ele>65.1</ele>
        <time>2023-05-18T09:57:41Z</time>
      </trkpt>
      <trkpt lat="49.55613" lon="-1.8431">
        <ele>64.2</ele>
        <time>2023-05-18T09:57:45Z</time>
      </trkpt>
      <trkpt lat="49.55618" lon="-1.84344">
        <ele>63</ele>
        <time>2023-05-18T09:57:49Z</time>
      </trkpt>
      <trkpt lat="49.55622" lon="-1.84375">
        <ele>61.8</ele>
        <time>2023-05-18T09:57:52Z</time>
      </trkpt>
      <trkpt lat="49.55628" lon="-1.84409">
        <ele>60.3</ele>
        <time>2023-05-18T09:57:55Z</time>
      </trkpt>
      <trkpt lat="49.55635" lon="-1.84449">
        <ele>58.7</ele>
        <time>2023-05-18T09:57:58Z</time>
      </trkpt>
      <trkpt lat="49.55642" lon="-1.84475">
        <ele>57.7</ele>
        <time>2023-05-18T09:58:00Z</time>
      </trkpt>
      <trkpt lat="49.55648" lon="-1.84503">
        <ele>56.8</ele>
        <time>2023-05-18T09:58:02Z</time>
      </trkpt>
      <trkpt lat="49.55655" lon="-1.8453">
        <ele>56</ele>
        <time>2023-05-18T09:58:04Z</time>
      </trkpt>
      <trkpt lat="49.55664" lon="-1.84557">
        <ele>55.1</ele>
        <time>2023-05-18T09:58:06Z</time>
      </trkpt>
      <trkpt lat="49.55674" lon="-1.84584">
        <ele>54.4</ele>
        <time>2023-05-18T09:58:08Z</time>
      </trkpt>
      <trkpt lat="49.55683" lon="-1.8461">
        <ele>54</ele>
        <time>2023-05-18T09:58:10Z</time>
      </trkpt>
      <trkpt lat="49.55697" lon="-1.84631">
        <ele>53.9</ele>
        <time>2023-05-18T09:58:12Z</time>
      </trkpt>
      <trkpt lat="49.55714" lon="-1.84661">
        <ele>54.1</ele>
        <time>2023-05-18T09:58:15Z</time>
      </trkpt>
      <trkpt lat="49.55724" lon="-1.84695">
        <ele>54.1</ele>
        <time>2023-05-18T09:58:18Z</time>
      </trkpt>
      <trkpt lat="49.55734" lon="-1.84728">
        <ele>54.3</ele>
        <time>2023-05-18T09:58:21Z</time>
      </trkpt>
      <trkpt lat="49.55743" lon="-1.84759">
        <ele>54.3</ele>
        <time>2023-05-18T09:58:24Z</time>
      </trkpt>
      <trkpt lat="49.5575" lon="-1.84789">
        <ele>54.1</ele>
        <time>2023-05-18T09:58:27Z</time>
      </trkpt>
      <trkpt lat="49.55756" lon="-1.84818">
        <ele>53.5</ele>
        <time>2023-05-18T09:58:30Z</time>
      </trkpt>
      <trkpt lat="49.55758" lon="-1.84848">
        <ele>52.7</ele>
        <time>2023-05-18T09:58:33Z</time>
      </trkpt>
      <trkpt lat="49.55758" lon="-1.84883">
        <ele>51.3</ele>
        <time>2023-05-18T09:58:36Z</time>
      </trkpt>
      <trkpt lat="49.5576" lon="-1.84922">
        <ele>49.5</ele>
        <time>2023-05-18T09:58:39Z</time>
      </trkpt>
      <trkpt lat="49.55765" lon="-1.84962">
        <ele>47.5</ele>
        <time>2023-05-18T09:58:42Z</time>
      </trkpt>
      <trkpt lat="49.55765" lon="-1.85001">
        <ele>45.3</ele>
        <time>2023-05-18T09:58:45Z</time>
      </trkpt>
      <trkpt lat="49.55761" lon="-1.85028">
        <ele>43.8</ele>
        <time>2023-05-18T09:58:47Z</time>
      </trkpt>
      <trkpt lat="49.5575" lon="-1.85051">
        <ele>42.3</ele>
        <time>2023-05-18T09:58:49Z</time>
      </trkpt>
      <trkpt lat="49.55738" lon="-1.85072">
        <ele>40.7</ele>
        <time>2023-05-18T09:58:51Z</time>
      </trkpt>
      <trkpt lat="49.55723" lon="-1.85095">
        <ele>39.1</ele>
        <time>2023-05-18T09:58:53Z</time>
      </trkpt>
      <trkpt lat="49.55708" lon="-1.85117">
        <ele>37.4</ele>
        <time>2023-05-18T09:58:55Z</time>
      </trkpt>
      <trkpt lat="49.5569" lon="-1.85138">
        <ele>35.6</ele>
        <time>2023-05-18T09:58:57Z</time>
      </trkpt>
      <trkpt lat="49.55671" lon="-1.85157">
        <ele>33.9</ele>
        <time>2023-05-18T09:58:59Z</time>
      </trkpt>
      <trkpt lat="49.55651" lon="-1.85176">
        <ele>32.1</ele>
        <time>2023-05-18T09:59:01Z</time>
      </trkpt>
      <trkpt lat="49.55631" lon="-1.85197">
        <ele>30.5</ele>
        <time>2023-05-18T09:59:03Z</time>
      </trkpt>
      <trkpt lat="49.55613" lon="-1.85223">
        <ele>29</ele>
        <time>2023-05-18T09:59:05Z</time>
      </trkpt>
      <trkpt lat="49.55598" lon="-1.85253">
        <ele>28</ele>
        <time>2023-05-18T09:59:07Z</time>
      </trkpt>
      <trkpt lat="49.55583" lon="-1.85281">
        <ele>27.3</ele>
        <time>2023-05-18T09:59:09Z</time>
      </trkpt>
      <trkpt lat="49.55568" lon="-1.85311">
        <ele>26.7</ele>
        <time>2023-05-18T09:59:11Z</time>
      </trkpt>
      <trkpt lat="49.55555" lon="-1.85339">
        <ele>26.3</ele>
        <time>2023-05-18T09:59:13Z</time>
      </trkpt>
      <trkpt lat="49.55543" lon="-1.85366">
        <ele>26</ele>
        <time>2023-05-18T09:59:15Z</time>
      </trkpt>
      <trkpt lat="49.55531" lon="-1.85391">
        <ele>25.8</ele>
        <time>2023-05-18T09:59:17Z</time>
      </trkpt>
      <trkpt lat="49.55519" lon="-1.85416">
        <ele>25.6</ele>
        <time>2023-05-18T09:59:19Z</time>
      </trkpt>
      <trkpt lat="49.55508" lon="-1.85442">
        <ele>25.5</ele>
        <time>2023-05-18T09:59:21Z</time>
      </trkpt>
      <trkpt lat="49.55497" lon="-1.85468">
        <ele>25.4</ele>
        <time>2023-05-18T09:59:23Z</time>
      </trkpt>
      <trkpt lat="49.55486" lon="-1.85491">
        <ele>25.3</ele>
        <time>2023-05-18T09:59:25Z</time>
      </trkpt>
      <trkpt lat="49.55474" lon="-1.85513">
        <ele>25.2</ele>
        <time>2023-05-18T09:59:27Z</time>
      </trkpt>
      <trkpt lat="49.55456" lon="-1.85543">
        <ele>24.9</ele>
        <time>2023-05-18T09:59:30Z</time>
      </trkpt>
      <trkpt lat="49.55439" lon="-1.85574">
        <ele>24.3</ele>
        <time>2023-05-18T09:59:33Z</time>
      </trkpt>
      <trkpt lat="49.55422" lon="-1.85603">
        <ele>23.1</ele>
        <time>2023-05-18T09:59:36Z</time>
      </trkpt>
      <trkpt lat="49.55409" lon="-1.85623">
        <ele>21.9</ele>
        <time>2023-05-18T09:59:38Z</time>
      </trkpt>
      <trkpt lat="49.55394" lon="-1.85644">
        <ele>20.5</ele>
        <time>2023-05-18T09:59:40Z</time>
      </trkpt>
      <trkpt lat="49.55378" lon="-1.85664">
        <ele>19.1</ele>
        <time>2023-05-18T09:59:42Z</time>
      </trkpt>
      <trkpt lat="49.5536" lon="-1.8568">
        <ele>17.3</ele>
        <time>2023-05-18T09:59:44Z</time>
      </trkpt>
      <trkpt lat="49.55338" lon="-1.85688">
        <ele>15.7</ele>
        <time>2023-05-18T09:59:46Z</time>
      </trkpt>
      <trkpt lat="49.55315" lon="-1.85683">
        <ele>14.2</ele>
        <time>2023-05-18T09:59:48Z</time>
      </trkpt>
      <trkpt lat="49.55292" lon="-1.85675">
        <ele>12.5</ele>
        <time>2023-05-18T09:59:50Z</time>
      </trkpt>
      <trkpt lat="49.5527" lon="-1.85667">
        <ele>10.8</ele>
        <time>2023-05-18T09:59:52Z</time>
      </trkpt>
      <trkpt lat="49.55251" lon="-1.85662">
        <ele>9.6</ele>
        <time>2023-05-18T09:59:54Z</time>
      </trkpt>
      <trkpt lat="49.55242" lon="-1.85689">
        <ele>8.8</ele>
        <time>2023-05-18T09:59:59Z</time>
      </trkpt>
      <trkpt lat="49.55255" lon="-1.85717">
        <ele>8.5</ele>
        <time>2023-05-18T10:00:03Z</time>
      </trkpt>
      <trkpt lat="49.55276" lon="-1.85723">
        <ele>8</ele>
        <time>2023-05-18T10:00:07Z</time>
      </trkpt>
      <trkpt lat="49.55297" lon="-1.85728">
        <ele>7.6</ele>
        <time>2023-05-18T10:00:11Z</time>
      </trkpt>
      <trkpt lat="49.55318" lon="-1.85737">
        <ele>7.3</ele>
        <time>2023-05-18T10:00:15Z</time>
      </trkpt>
      <trkpt lat="49.55334" lon="-1.8576">
        <ele>7.2</ele>
        <time>2023-05-18T10:00:19Z</time>
      </trkpt>
      <trkpt lat="49.55345" lon="-1.85785">
        <ele>7.1</ele>
        <time>2023-05-18T10:00:23Z</time>
      </trkpt>
      <trkpt lat="49.55353" lon="-1.8581">
        <ele>6.9</ele>
        <time>2023-05-18T10:00:27Z</time>
      </trkpt>
      <trkpt lat="49.55363" lon="-1.85838">
        <ele>6.7</ele>
        <time>2023-05-18T10:00:32Z</time>
      </trkpt>
      <trkpt lat="49.55358" lon="-1.85865">
        <ele>6.6</ele>
        <time>2023-05-18T10:00:38Z</time>
      </trkpt>
      <trkpt lat="49.55335" lon="-1.85864">
        <ele>6.5</ele>
        <time>2023-05-18T10:00:43Z</time>
      </trkpt>
      <trkpt lat="49.55315" lon="-1.85861">
        <ele>6.4</ele>
        <time>2023-05-18T10:00:48Z</time>
      </trkpt>
      <trkpt lat="49.55297" lon="-1.85858">
        <ele>6.3</ele>
        <time>2023-05-18T10:00:53Z</time>
      </trkpt>
      <trkpt lat="49.55282" lon="-1.85836">
        <ele>6.2</ele>
        <time>2023-05-18T10:00:58Z</time>
      </trkpt>
      <trkpt lat="49.55269" lon="-1.85813">
        <ele>6.2</ele>
        <time>2023-05-18T10:01:04Z</time>
      </trkpt>
      <trkpt lat="49.5527" lon="-1.8584">
        <ele>6.2</ele>
        <time>2023-05-18T10:01:11Z</time>
      </trkpt>
      <trkpt lat="49.55269" lon="-1.85869">
        <ele>6.2</ele>
        <time>2023-05-18T10:01:20Z</time>
      </trkpt>
      <trkpt lat="49.55268" lon="-1.85897">
        <ele>6.2</ele>
        <time>2023-05-18T10:03:41Z</time>
      </trkpt>
      <trkpt lat="49.55288" lon="-1.85886">
        <ele>6.2</ele>
        <time>2023-05-18T10:39:49Z</time>
      </trkpt>
      <trkpt lat="49.55271" lon="-1.859">
        <ele>6.2</ele>
        <time>2023-05-18T10:56:24Z</time>
      </trkpt>
      <trkpt lat="49.55267" lon="-1.85872">
        <ele>6.2</ele>
        <time>2023-05-18T10:56:31Z</time>
      </trkpt>
      <trkpt lat="49.55281" lon="-1.85853">
        <ele>6.3</ele>
        <time>2023-05-18T10:56:41Z</time>
      </trkpt>
      <trkpt lat="49.55299" lon="-1.85843">
        <ele>6.4</ele>
        <time>2023-05-18T10:56:48Z</time>
      </trkpt>
      <trkpt lat="49.55318" lon="-1.85842">
        <ele>6.5</ele>
        <time>2023-05-18T10:56:53Z</time>
      </trkpt>
      <trkpt lat="49.55339" lon="-1.85845">
        <ele>6.6</ele>
        <time>2023-05-18T10:56:58Z</time>
      </trkpt>
      <trkpt lat="49.55352" lon="-1.85826">
        <ele>6.7</ele>
        <time>2023-05-18T10:57:05Z</time>
      </trkpt>
      <trkpt lat="49.55344" lon="-1.858">
        <ele>7</ele>
        <time>2023-05-18T10:57:10Z</time>
      </trkpt>
      <trkpt lat="49.55336" lon="-1.85774">
        <ele>7.2</ele>
        <time>2023-05-18T10:57:15Z</time>
      </trkpt>
      <trkpt lat="49.55324" lon="-1.85751">
        <ele>7.3</ele>
        <time>2023-05-18T10:57:20Z</time>
      </trkpt>
      <trkpt lat="49.55306" lon="-1.85741">
        <ele>7.4</ele>
        <time>2023-05-18T10:57:25Z</time>
      </trkpt>
      <trkpt lat="49.55288" lon="-1.85736">
        <ele>7.7</ele>
        <time>2023-05-18T10:57:31Z</time>
      </trkpt>
      <trkpt lat="49.55269" lon="-1.85729">
        <ele>8.1</ele>
        <time>2023-05-18T10:57:39Z</time>
      </trkpt>
      <trkpt lat="49.55251" lon="-1.85719">
        <ele>8.5</ele>
        <time>2023-05-18T10:57:45Z</time>
      </trkpt>
      <trkpt lat="49.5524" lon="-1.85693">
        <ele>8.8</ele>
        <time>2023-05-18T10:57:51Z</time>
      </trkpt>
      <trkpt lat="49.55234" lon="-1.85663">
        <ele>9</ele>
        <time>2023-05-18T10:57:57Z</time>
      </trkpt>
      <trkpt lat="49.55214" lon="-1.85654">
        <ele>8.9</ele>
        <time>2023-05-18T10:58:01Z</time>
      </trkpt>
      <trkpt lat="49.55193" lon="-1.85649">
        <ele>8.4</ele>
        <time>2023-05-18T10:58:04Z</time>
      </trkpt>
      <trkpt lat="49.55173" lon="-1.85654">
        <ele>8.3</ele>
        <time>2023-05-18T10:58:07Z</time>
      </trkpt>
      <trkpt lat="49.55156" lon="-1.85664">
        <ele>7.9</ele>
        <time>2023-05-18T10:58:10Z</time>
      </trkpt>
      <trkpt lat="49.55138" lon="-1.85672">
        <ele>8.1</ele>
        <time>2023-05-18T10:58:13Z</time>
      </trkpt>
      <trkpt lat="49.55119" lon="-1.85681">
        <ele>8.5</ele>
        <time>2023-05-18T10:58:17Z</time>
      </trkpt>
      <trkpt lat="49.551" lon="-1.85689">
        <ele>9.3</ele>
        <time>2023-05-18T10:58:22Z</time>
      </trkpt>
      <trkpt lat="49.55081" lon="-1.85699">
        <ele>10.1</ele>
        <time>2023-05-18T10:58:28Z</time>
      </trkpt>
      <trkpt lat="49.55061" lon="-1.857">
        <ele>11.1</ele>
        <time>2023-05-18T10:58:35Z</time>
      </trkpt>
      <trkpt lat="49.55044" lon="-1.85685">
        <ele>12.5</ele>
        <time>2023-05-18T10:58:42Z</time>
      </trkpt>
      <trkpt lat="49.55029" lon="-1.85668">
        <ele>13.4</ele>
        <time>2023-05-18T10:58:49Z</time>
      </trkpt>
      <trkpt lat="49.55012" lon="-1.85678">
        <ele>14.1</ele>
        <time>2023-05-18T10:58:58Z</time>
      </trkpt>
      <trkpt lat="49.55024" lon="-1.857">
        <ele>13.7</ele>
        <time>2023-05-18T10:59:05Z</time>
      </trkpt>
      <trkpt lat="49.55042" lon="-1.85721">
        <ele>14.2</ele>
        <time>2023-05-18T10:59:10Z</time>
      </trkpt>
      <trkpt lat="49.55058" lon="-1.8574">
        <ele>15</ele>
        <time>2023-05-18T10:59:14Z</time>
      </trkpt>
      <trkpt lat="49.55073" lon="-1.85763">
        <ele>15.5</ele>
        <time>2023-05-18T10:59:18Z</time>
      </trkpt>
      <trkpt lat="49.55078" lon="-1.85793">
        <ele>16.2</ele>
        <time>2023-05-18T10:59:22Z</time>
      </trkpt>
      <trkpt lat="49.55076" lon="-1.85823">
        <ele>17.3</ele>
        <time>2023-05-18T10:59:27Z</time>
      </trkpt>
      <trkpt lat="49.55069" lon="-1.85851">
        <ele>18.8</ele>
        <time>2023-05-18T10:59:34Z</time>
      </trkpt>
      <trkpt lat="49.55053" lon="-1.85869">
        <ele>20.8</ele>
        <time>2023-05-18T10:59:43Z</time>
      </trkpt>
      <trkpt lat="49.55035" lon="-1.8588">
        <ele>22.7</ele>
        <time>2023-05-18T10:59:52Z</time>
      </trkpt>
      <trkpt lat="49.55017" lon="-1.8589">
        <ele>24.8</ele>
        <time>2023-05-18T11:00:02Z</time>
      </trkpt>
      <trkpt lat="49.55001" lon="-1.85904">
        <ele>26.9</ele>
        <time>2023-05-18T11:00:14Z</time>
      </trkpt>
      <trkpt lat="49.54985" lon="-1.8592">
        <ele>29</ele>
        <time>2023-05-18T11:00:23Z</time>
      </trkpt>
      <trkpt lat="49.5497" lon="-1.85939">
        <ele>31.2</ele>
        <time>2023-05-18T11:00:33Z</time>
      </trkpt>
      <trkpt lat="49.54952" lon="-1.85946">
        <ele>32.9</ele>
        <time>2023-05-18T11:00:42Z</time>
      </trkpt>
      <trkpt lat="49.54933" lon="-1.85951">
        <ele>34.5</ele>
        <time>2023-05-18T11:00:51Z</time>
      </trkpt>
      <trkpt lat="49.54951" lon="-1.8594">
        <ele>32.9</ele>
        <time>2023-05-18T11:02:19Z</time>
      </trkpt>
      <trkpt lat="49.54969" lon="-1.8596">
        <ele>30.1</ele>
        <time>2023-05-18T11:02:23Z</time>
      </trkpt>
      <trkpt lat="49.54976" lon="-1.85986">
        <ele>28</ele>
        <time>2023-05-18T11:02:25Z</time>
      </trkpt>
      <trkpt lat="49.54984" lon="-1.86011">
        <ele>26.2</ele>
        <time>2023-05-18T11:02:27Z</time>
      </trkpt>
      <trkpt lat="49.54993" lon="-1.86038">
        <ele>24.4</ele>
        <time>2023-05-18T11:02:29Z</time>
      </trkpt>
      <trkpt lat="49.55001" lon="-1.86066">
        <ele>22.5</ele>
        <time>2023-05-18T11:02:31Z</time>
      </trkpt>
      <trkpt lat="49.55011" lon="-1.86093">
        <ele>20.7</ele>
        <time>2023-05-18T11:02:33Z</time>
      </trkpt>
      <trkpt lat="49.55021" lon="-1.86121">
        <ele>18.9</ele>
        <time>2023-05-18T11:02:35Z</time>
      </trkpt>
      <trkpt lat="49.55021" lon="-1.8615">
        <ele>17</ele>
        <time>2023-05-18T11:02:37Z</time>
      </trkpt>
      <trkpt lat="49.55016" lon="-1.86182">
        <ele>14.6</ele>
        <time>2023-05-18T11:02:40Z</time>
      </trkpt>
      <trkpt lat="49.55021" lon="-1.8621">
        <ele>12.5</ele>
        <time>2023-05-18T11:02:44Z</time>
      </trkpt>
      <trkpt lat="49.55017" lon="-1.86241">
        <ele>12.5</ele>
        <time>2023-05-18T11:02:48Z</time>
      </trkpt>
      <trkpt lat="49.55006" lon="-1.86272">
        <ele>12.6</ele>
        <time>2023-05-18T11:02:52Z</time>
      </trkpt>
      <trkpt lat="49.54998" lon="-1.86305">
        <ele>12.8</ele>
        <time>2023-05-18T11:02:56Z</time>
      </trkpt>
      <trkpt lat="49.54994" lon="-1.86332">
        <ele>13</ele>
        <time>2023-05-18T11:02:59Z</time>
      </trkpt>
      <trkpt lat="49.54984" lon="-1.86364">
        <ele>13.3</ele>
        <time>2023-05-18T11:03:03Z</time>
      </trkpt>
      <trkpt lat="49.54971" lon="-1.86388">
        <ele>13.3</ele>
        <time>2023-05-18T11:03:07Z</time>
      </trkpt>
      <trkpt lat="49.54956" lon="-1.86411">
        <ele>12.9</ele>
        <time>2023-05-18T11:03:11Z</time>
      </trkpt>
      <trkpt lat="49.54947" lon="-1.86437">
        <ele>12.2</ele>
        <time>2023-05-18T11:03:14Z</time>
      </trkpt>
      <trkpt lat="49.54935" lon="-1.86461">
        <ele>11</ele>
        <time>2023-05-18T11:03:17Z</time>
      </trkpt>
      <trkpt lat="49.54922" lon="-1.86491">
        <ele>9.7</ele>
        <time>2023-05-18T11:03:20Z</time>
      </trkpt>
      <trkpt lat="49.54908" lon="-1.86525">
        <ele>8.2</ele>
        <time>2023-05-18T11:03:23Z</time>
      </trkpt>
      <trkpt lat="49.54904" lon="-1.86552">
        <ele>7.5</ele>
        <time>2023-05-18T11:03:25Z</time>
      </trkpt>
      <trkpt lat="49.54896" lon="-1.86579">
        <ele>7.6</ele>
        <time>2023-05-18T11:03:27Z</time>
      </trkpt>
      <trkpt lat="49.54889" lon="-1.86618">
        <ele>7.7</ele>
        <time>2023-05-18T11:03:30Z</time>
      </trkpt>
      <trkpt lat="49.54884" lon="-1.86655">
        <ele>7.9</ele>
        <time>2023-05-18T11:03:33Z</time>
      </trkpt>
      <trkpt lat="49.5488" lon="-1.8669">
        <ele>8.4</ele>
        <time>2023-05-18T11:03:36Z</time>
      </trkpt>
      <trkpt lat="49.54876" lon="-1.86723">
        <ele>8.8</ele>
        <time>2023-05-18T11:03:39Z</time>
      </trkpt>
      <trkpt lat="49.54871" lon="-1.86753">
        <ele>9.2</ele>
        <time>2023-05-18T11:03:42Z</time>
      </trkpt>
      <trkpt lat="49.54863" lon="-1.86782">
        <ele>9.7</ele>
        <time>2023-05-18T11:03:45Z</time>
      </trkpt>
      <trkpt lat="49.54852" lon="-1.86808">
        <ele>10.1</ele>
        <time>2023-05-18T11:03:48Z</time>
      </trkpt>
      <trkpt lat="49.54842" lon="-1.86834">
        <ele>10.4</ele>
        <time>2023-05-18T11:03:51Z</time>
      </trkpt>
      <trkpt lat="49.5483" lon="-1.86859">
        <ele>10.6</ele>
        <time>2023-05-18T11:03:54Z</time>
      </trkpt>
      <trkpt lat="49.54819" lon="-1.86881">
        <ele>10.8</ele>
        <time>2023-05-18T11:03:57Z</time>
      </trkpt>
      <trkpt lat="49.54806" lon="-1.86903">
        <ele>11</ele>
        <time>2023-05-18T11:04:00Z</time>
      </trkpt>
      <trkpt lat="49.54785" lon="-1.86923">
        <ele>11</ele>
        <time>2023-05-18T11:04:04Z</time>
      </trkpt>
      <trkpt lat="49.54766" lon="-1.86934">
        <ele>11</ele>
        <time>2023-05-18T11:04:07Z</time>
      </trkpt>
      <trkpt lat="49.54747" lon="-1.86943">
        <ele>11</ele>
        <time>2023-05-18T11:04:10Z</time>
      </trkpt>
      <trkpt lat="49.54729" lon="-1.86957">
        <ele>11</ele>
        <time>2023-05-18T11:04:13Z</time>
      </trkpt>
      <trkpt lat="49.54714" lon="-1.86976">
        <ele>11</ele>
        <time>2023-05-18T11:04:16Z</time>
      </trkpt>
      <trkpt lat="49.54703" lon="-1.87003">
        <ele>11.1</ele>
        <time>2023-05-18T11:04:19Z</time>
      </trkpt>
      <trkpt lat="49.54694" lon="-1.87032">
        <ele>11.2</ele>
        <time>2023-05-18T11:04:22Z</time>
      </trkpt>
      <trkpt lat="49.54687" lon="-1.87061">
        <ele>11.3</ele>
        <time>2023-05-18T11:04:25Z</time>
      </trkpt>
      <trkpt lat="49.54677" lon="-1.87086">
        <ele>11.3</ele>
        <time>2023-05-18T11:04:28Z</time>
      </trkpt>
      <trkpt lat="49.54662" lon="-1.87106">
        <ele>11.4</ele>
        <time>2023-05-18T11:04:31Z</time>
      </trkpt>
      <trkpt lat="49.54644" lon="-1.87126">
        <ele>11.3</ele>
        <time>2023-05-18T11:04:34Z</time>
      </trkpt>
      <trkpt lat="49.54628" lon="-1.87145">
        <ele>11.3</ele>
        <time>2023-05-18T11:04:37Z</time>
      </trkpt>
      <trkpt lat="49.54612" lon="-1.87164">
        <ele>11.4</ele>
        <time>2023-05-18T11:04:40Z</time>
      </trkpt>
      <trkpt lat="49.54596" lon="-1.87182">
        <ele>11.4</ele>
        <time>2023-05-18T11:04:43Z</time>
      </trkpt>
      <trkpt lat="49.54579" lon="-1.872">
        <ele>11.4</ele>
        <time>2023-05-18T11:04:46Z</time>
      </trkpt>
      <trkpt lat="49.54562" lon="-1.87219">
        <ele>11.4</ele>
        <time>2023-05-18T11:04:49Z</time>
      </trkpt>
      <trkpt lat="49.54551" lon="-1.87246">
        <ele>11.3</ele>
        <time>2023-05-18T11:04:52Z</time>
      </trkpt>
      <trkpt lat="49.54541" lon="-1.87278">
        <ele>11.4</ele>
        <time>2023-05-18T11:04:55Z</time>
      </trkpt>
      <trkpt lat="49.54533" lon="-1.87309">
        <ele>11.4</ele>
        <time>2023-05-18T11:04:58Z</time>
      </trkpt>
      <trkpt lat="49.54525" lon="-1.87338">
        <ele>11.7</ele>
        <time>2023-05-18T11:05:01Z</time>
      </trkpt>
      <trkpt lat="49.54518" lon="-1.87364">
        <ele>12.1</ele>
        <time>2023-05-18T11:05:04Z</time>
      </trkpt>
      <trkpt lat="49.54507" lon="-1.87389">
        <ele>12.7</ele>
        <time>2023-05-18T11:05:07Z</time>
      </trkpt>
      <trkpt lat="49.5449" lon="-1.87408">
        <ele>13.4</ele>
        <time>2023-05-18T11:05:11Z</time>
      </trkpt>
      <trkpt lat="49.5447" lon="-1.8742">
        <ele>13.9</ele>
        <time>2023-05-18T11:05:15Z</time>
      </trkpt>
      <trkpt lat="49.54449" lon="-1.87427">
        <ele>14.7</ele>
        <time>2023-05-18T11:05:19Z</time>
      </trkpt>
      <trkpt lat="49.5443" lon="-1.8743">
        <ele>15.6</ele>
        <time>2023-05-18T11:05:23Z</time>
      </trkpt>
      <trkpt lat="49.54412" lon="-1.87425">
        <ele>16.5</ele>
        <time>2023-05-18T11:05:27Z</time>
      </trkpt>
      <trkpt lat="49.54393" lon="-1.87417">
        <ele>17.5</ele>
        <time>2023-05-18T11:05:32Z</time>
      </trkpt>
      <trkpt lat="49.54375" lon="-1.874">
        <ele>18.3</ele>
        <time>2023-05-18T11:05:38Z</time>
      </trkpt>
      <trkpt lat="49.54361" lon="-1.87381">
        <ele>18.9</ele>
        <time>2023-05-18T11:05:43Z</time>
      </trkpt>
      <trkpt lat="49.54346" lon="-1.87361">
        <ele>19.4</ele>
        <time>2023-05-18T11:05:48Z</time>
      </trkpt>
      <trkpt lat="49.54331" lon="-1.87342">
        <ele>20</ele>
        <time>2023-05-18T11:05:53Z</time>
      </trkpt>
      <trkpt lat="49.54314" lon="-1.8732">
        <ele>20.8</ele>
        <time>2023-05-18T11:05:59Z</time>
      </trkpt>
      <trkpt lat="49.54295" lon="-1.87305">
        <ele>21</ele>
        <time>2023-05-18T11:06:05Z</time>
      </trkpt>
      <trkpt lat="49.54277" lon="-1.87306">
        <ele>21.7</ele>
        <time>2023-05-18T11:06:10Z</time>
      </trkpt>
      <trkpt lat="49.54263" lon="-1.87324">
        <ele>22.7</ele>
        <time>2023-05-18T11:06:16Z</time>
      </trkpt>
      <trkpt lat="49.54248" lon="-1.87345">
        <ele>24.1</ele>
        <time>2023-05-18T11:06:23Z</time>
      </trkpt>
      <trkpt lat="49.54232" lon="-1.87361">
        <ele>25.8</ele>
        <time>2023-05-18T11:06:33Z</time>
      </trkpt>
      <trkpt lat="49.54214" lon="-1.87374">
        <ele>27.6</ele>
        <time>2023-05-18T11:06:43Z</time>
      </trkpt>
      <trkpt lat="49.54197" lon="-1.87384">
        <ele>29.3</ele>
        <time>2023-05-18T11:06:52Z</time>
      </trkpt>
      <trkpt lat="49.5418" lon="-1.87395">
        <ele>31</ele>
        <time>2023-05-18T11:07:02Z</time>
      </trkpt>
      <trkpt lat="49.54162" lon="-1.87405">
        <ele>32.7</ele>
        <time>2023-05-18T11:07:12Z</time>
      </trkpt>
      <trkpt lat="49.54145" lon="-1.87415">
        <ele>34.4</ele>
        <time>2023-05-18T11:07:22Z</time>
      </trkpt>
      <trkpt lat="49.54127" lon="-1.87425">
        <ele>36.2</ele>
        <time>2023-05-18T11:07:33Z</time>
      </trkpt>
      <trkpt lat="49.54109" lon="-1.87433">
        <ele>38</ele>
        <time>2023-05-18T11:07:43Z</time>
      </trkpt>
      <trkpt lat="49.54091" lon="-1.87441">
        <ele>39.7</ele>
        <time>2023-05-18T11:07:53Z</time>
      </trkpt>
      <trkpt lat="49.54074" lon="-1.87448">
        <ele>41.4</ele>
        <time>2023-05-18T11:08:03Z</time>
      </trkpt>
      <trkpt lat="49.54056" lon="-1.87459">
        <ele>43.1</ele>
        <time>2023-05-18T11:08:14Z</time>
      </trkpt>
      <trkpt lat="49.54037" lon="-1.87467">
        <ele>44.8</ele>
        <time>2023-05-18T11:08:25Z</time>
      </trkpt>
      <trkpt lat="49.54019" lon="-1.87475">
        <ele>46.5</ele>
        <time>2023-05-18T11:08:35Z</time>
      </trkpt>
      <trkpt lat="49.54001" lon="-1.87482">
        <ele>48.1</ele>
        <time>2023-05-18T11:08:45Z</time>
      </trkpt>
      <trkpt lat="49.53983" lon="-1.87492">
        <ele>49.8</ele>
        <time>2023-05-18T11:08:55Z</time>
      </trkpt>
      <trkpt lat="49.53966" lon="-1.87499">
        <ele>51.4</ele>
        <time>2023-05-18T11:09:05Z</time>
      </trkpt>
      <trkpt lat="49.53947" lon="-1.87507">
        <ele>53.1</ele>
        <time>2023-05-18T11:09:15Z</time>
      </trkpt>
      <trkpt lat="49.53929" lon="-1.87515">
        <ele>54.7</ele>
        <time>2023-05-18T11:09:26Z</time>
      </trkpt>
      <trkpt lat="49.53911" lon="-1.87523">
        <ele>56.5</ele>
        <time>2023-05-18T11:09:36Z</time>
      </trkpt>
      <trkpt lat="49.53893" lon="-1.8753">
        <ele>58.1</ele>
        <time>2023-05-18T11:09:46Z</time>
      </trkpt>
      <trkpt lat="49.53874" lon="-1.87537">
        <ele>59.8</ele>
        <time>2023-05-18T11:09:56Z</time>
      </trkpt>
      <trkpt lat="49.53857" lon="-1.87545">
        <ele>61.4</ele>
        <time>2023-05-18T11:10:05Z</time>
      </trkpt>
      <trkpt lat="49.53838" lon="-1.8755">
        <ele>63.2</ele>
        <time>2023-05-18T11:10:15Z</time>
      </trkpt>
      <trkpt lat="49.53818" lon="-1.87557">
        <ele>64.9</ele>
        <time>2023-05-18T11:10:25Z</time>
      </trkpt>
      <trkpt lat="49.53799" lon="-1.87563">
        <ele>66.6</ele>
        <time>2023-05-18T11:10:35Z</time>
      </trkpt>
      <trkpt lat="49.53781" lon="-1.8757">
        <ele>68</ele>
        <time>2023-05-18T11:10:44Z</time>
      </trkpt>
      <trkpt lat="49.53763" lon="-1.8758">
        <ele>69.4</ele>
        <time>2023-05-18T11:10:53Z</time>
      </trkpt>
      <trkpt lat="49.53745" lon="-1.87587">
        <ele>70.6</ele>
        <time>2023-05-18T11:11:00Z</time>
      </trkpt>
      <trkpt lat="49.53727" lon="-1.87596">
        <ele>71.8</ele>
        <time>2023-05-18T11:11:07Z</time>
      </trkpt>
      <trkpt lat="49.53708" lon="-1.87604">
        <ele>73</ele>
        <time>2023-05-18T11:11:14Z</time>
      </trkpt>
      <trkpt lat="49.53688" lon="-1.87613">
        <ele>74.2</ele>
        <time>2023-05-18T11:11:22Z</time>
      </trkpt>
      <trkpt lat="49.53671" lon="-1.87624">
        <ele>75.4</ele>
        <time>2023-05-18T11:11:29Z</time>
      </trkpt>
      <trkpt lat="49.53651" lon="-1.87633">
        <ele>76.6</ele>
        <time>2023-05-18T11:11:37Z</time>
      </trkpt>
      <trkpt lat="49.53632" lon="-1.87643">
        <ele>77.7</ele>
        <time>2023-05-18T11:11:45Z</time>
      </trkpt>
      <trkpt lat="49.53614" lon="-1.87656">
        <ele>78.5</ele>
        <time>2023-05-18T11:11:52Z</time>
      </trkpt>
      <trkpt lat="49.53596" lon="-1.87663">
        <ele>79.2</ele>
        <time>2023-05-18T11:11:59Z</time>
      </trkpt>
      <trkpt lat="49.53577" lon="-1.87677">
        <ele>79.7</ele>
        <time>2023-05-18T11:12:05Z</time>
      </trkpt>
      <trkpt lat="49.53559" lon="-1.87686">
        <ele>80.1</ele>
        <time>2023-05-18T11:12:10Z</time>
      </trkpt>
      <trkpt lat="49.53539" lon="-1.87697">
        <ele>80.4</ele>
        <time>2023-05-18T11:12:15Z</time>
      </trkpt>
      <trkpt lat="49.53518" lon="-1.87706">
        <ele>80.6</ele>
        <time>2023-05-18T11:12:20Z</time>
      </trkpt>
      <trkpt lat="49.53496" lon="-1.87716">
        <ele>80.8</ele>
        <time>2023-05-18T11:12:25Z</time>
      </trkpt>
      <trkpt lat="49.53479" lon="-1.87725">
        <ele>81</ele>
        <time>2023-05-18T11:12:29Z</time>
      </trkpt>
      <trkpt lat="49.53458" lon="-1.87737">
        <ele>81.2</ele>
        <time>2023-05-18T11:12:34Z</time>
      </trkpt>
      <trkpt lat="49.53438" lon="-1.87749">
        <ele>81.5</ele>
        <time>2023-05-18T11:12:39Z</time>
      </trkpt>
      <trkpt lat="49.53417" lon="-1.87761">
        <ele>81.8</ele>
        <time>2023-05-18T11:12:44Z</time>
      </trkpt>
      <trkpt lat="49.53397" lon="-1.87773">
        <ele>82</ele>
        <time>2023-05-18T11:12:49Z</time>
      </trkpt>
      <trkpt lat="49.5338" lon="-1.87783">
        <ele>82.3</ele>
        <time>2023-05-18T11:12:53Z</time>
      </trkpt>
      <trkpt lat="49.53363" lon="-1.87793">
        <ele>82.4</ele>
        <time>2023-05-18T11:12:57Z</time>
      </trkpt>
      <trkpt lat="49.53346" lon="-1.87805">
        <ele>82.3</ele>
        <time>2023-05-18T11:13:01Z</time>
      </trkpt>
      <trkpt lat="49.53328" lon="-1.87815">
        <ele>81.9</ele>
        <time>2023-05-18T11:13:05Z</time>
      </trkpt>
      <trkpt lat="49.53306" lon="-1.87826">
        <ele>81.2</ele>
        <time>2023-05-18T11:13:09Z</time>
      </trkpt>
      <trkpt lat="49.53284" lon="-1.87838">
        <ele>80.5</ele>
        <time>2023-05-18T11:13:13Z</time>
      </trkpt>
      <trkpt lat="49.53266" lon="-1.87847">
        <ele>79.8</ele>
        <time>2023-05-18T11:13:16Z</time>
      </trkpt>
      <trkpt lat="49.53247" lon="-1.87857">
        <ele>79.2</ele>
        <time>2023-05-18T11:13:19Z</time>
      </trkpt>
      <trkpt lat="49.53228" lon="-1.87871">
        <ele>78.5</ele>
        <time>2023-05-18T11:13:22Z</time>
      </trkpt>
      <trkpt lat="49.53214" lon="-1.87896">
        <ele>77.6</ele>
        <time>2023-05-18T11:13:25Z</time>
      </trkpt>
      <trkpt lat="49.53205" lon="-1.87931">
        <ele>76.7</ele>
        <time>2023-05-18T11:13:28Z</time>
      </trkpt>
      <trkpt lat="49.53205" lon="-1.87972">
        <ele>76.5</ele>
        <time>2023-05-18T11:13:31Z</time>
      </trkpt>
      <trkpt lat="49.53205" lon="-1.88007">
        <ele>76.6</ele>
        <time>2023-05-18T11:13:34Z</time>
      </trkpt>
      <trkpt lat="49.53185" lon="-1.88013">
        <ele>75.7</ele>
        <time>2023-05-18T11:13:37Z</time>
      </trkpt>
      <trkpt lat="49.53161" lon="-1.88011">
        <ele>73.6</ele>
        <time>2023-05-18T11:13:40Z</time>
      </trkpt>
      <trkpt lat="49.53137" lon="-1.88014">
        <ele>71.7</ele>
        <time>2023-05-18T11:13:43Z</time>
      </trkpt>
      <trkpt lat="49.53118" lon="-1.88018">
        <ele>70.2</ele>
        <time>2023-05-18T11:13:45Z</time>
      </trkpt>
      <trkpt lat="49.53099" lon="-1.88022">
        <ele>68.9</ele>
        <time>2023-05-18T11:13:47Z</time>
      </trkpt>
      <trkpt lat="49.53079" lon="-1.88027">
        <ele>67.8</ele>
        <time>2023-05-18T11:13:49Z</time>
      </trkpt>
      <trkpt lat="49.53059" lon="-1.8803">
        <ele>67</ele>
        <time>2023-05-18T11:13:51Z</time>
      </trkpt>
      <trkpt lat="49.53039" lon="-1.88033">
        <ele>66.6</ele>
        <time>2023-05-18T11:13:53Z</time>
      </trkpt>
      <trkpt lat="49.5302" lon="-1.88029">
        <ele>66.5</ele>
        <time>2023-05-18T11:13:55Z</time>
      </trkpt>
      <trkpt lat="49.52997" lon="-1.88013">
        <ele>67</ele>
        <time>2023-05-18T11:13:58Z</time>
      </trkpt>
      <trkpt lat="49.52978" lon="-1.87989">
        <ele>68</ele>
        <time>2023-05-18T11:14:01Z</time>
      </trkpt>
      <trkpt lat="49.52967" lon="-1.87965">
        <ele>68.9</ele>
        <time>2023-05-18T11:14:04Z</time>
      </trkpt>
      <trkpt lat="49.52961" lon="-1.87933">
        <ele>69.9</ele>
        <time>2023-05-18T11:14:08Z</time>
      </trkpt>
      <trkpt lat="49.52957" lon="-1.87903">
        <ele>70.8</ele>
        <time>2023-05-18T11:14:12Z</time>
      </trkpt>
      <trkpt lat="49.52955" lon="-1.8787">
        <ele>71.5</ele>
        <time>2023-05-18T11:14:17Z</time>
      </trkpt>
      <trkpt lat="49.52952" lon="-1.87839">
        <ele>72.1</ele>
        <time>2023-05-18T11:14:22Z</time>
      </trkpt>
      <trkpt lat="49.52949" lon="-1.87807">
        <ele>72.6</ele>
        <time>2023-05-18T11:14:27Z</time>
      </trkpt>
      <trkpt lat="49.52945" lon="-1.87774">
        <ele>73.1</ele>
        <time>2023-05-18T11:14:32Z</time>
      </trkpt>
      <trkpt lat="49.52943" lon="-1.87743">
        <ele>73.6</ele>
        <time>2023-05-18T11:14:37Z</time>
      </trkpt>
      <trkpt lat="49.52939" lon="-1.87713">
        <ele>73.9</ele>
        <time>2023-05-18T11:14:42Z</time>
      </trkpt>
      <trkpt lat="49.52937" lon="-1.87681">
        <ele>74.1</ele>
        <time>2023-05-18T11:14:47Z</time>
      </trkpt>
      <trkpt lat="49.52933" lon="-1.87654">
        <ele>74.2</ele>
        <time>2023-05-18T11:14:51Z</time>
      </trkpt>
      <trkpt lat="49.5293" lon="-1.87626">
        <ele>74.2</ele>
        <time>2023-05-18T11:14:55Z</time>
      </trkpt>
      <trkpt lat="49.52923" lon="-1.87597">
        <ele>74</ele>
        <time>2023-05-18T11:14:59Z</time>
      </trkpt>
      <trkpt lat="49.52911" lon="-1.87568">
        <ele>73.7</ele>
        <time>2023-05-18T11:15:03Z</time>
      </trkpt>
      <trkpt lat="49.52897" lon="-1.8754">
        <ele>73.3</ele>
        <time>2023-05-18T11:15:07Z</time>
      </trkpt>
      <trkpt lat="49.52886" lon="-1.87517">
        <ele>72.9</ele>
        <time>2023-05-18T11:15:10Z</time>
      </trkpt>
      <trkpt lat="49.52871" lon="-1.87492">
        <ele>72.4</ele>
        <time>2023-05-18T11:15:14Z</time>
      </trkpt>
      <trkpt lat="49.52856" lon="-1.87467">
        <ele>71.9</ele>
        <time>2023-05-18T11:15:18Z</time>
      </trkpt>
      <trkpt lat="49.52842" lon="-1.87441">
        <ele>71.4</ele>
        <time>2023-05-18T11:15:22Z</time>
      </trkpt>
      <trkpt lat="49.52826" lon="-1.87415">
        <ele>71</ele>
        <time>2023-05-18T11:15:26Z</time>
      </trkpt>
      <trkpt lat="49.5281" lon="-1.8739">
        <ele>70.9</ele>
        <time>2023-05-18T11:15:30Z</time>
      </trkpt>
      <trkpt lat="49.52796" lon="-1.87373">
        <ele>70.8</ele>
        <time>2023-05-18T11:15:33Z</time>
      </trkpt>
      <trkpt lat="49.52776" lon="-1.87357">
        <ele>70.9</ele>
        <time>2023-05-18T11:15:37Z</time>
      </trkpt>
      <trkpt lat="49.52755" lon="-1.87344">
        <ele>70.9</ele>
        <time>2023-05-18T11:15:41Z</time>
      </trkpt>
      <trkpt lat="49.52733" lon="-1.87336">
        <ele>71</ele>
        <time>2023-05-18T11:15:45Z</time>
      </trkpt>
      <trkpt lat="49.5271" lon="-1.8733">
        <ele>71.1</ele>
        <time>2023-05-18T11:15:49Z</time>
      </trkpt>
      <trkpt lat="49.52688" lon="-1.87321">
        <ele>71.3</ele>
        <time>2023-05-18T11:15:53Z</time>
      </trkpt>
      <trkpt lat="49.52666" lon="-1.87314">
        <ele>71.7</ele>
        <time>2023-05-18T11:15:57Z</time>
      </trkpt>
      <trkpt lat="49.52645" lon="-1.87306">
        <ele>72.3</ele>
        <time>2023-05-18T11:16:01Z</time>
      </trkpt>
      <trkpt lat="49.52625" lon="-1.873">
        <ele>72.9</ele>
        <time>2023-05-18T11:16:05Z</time>
      </trkpt>
      <trkpt lat="49.52608" lon="-1.87294">
        <ele>73.5</ele>
        <time>2023-05-18T11:16:09Z</time>
      </trkpt>
      <trkpt lat="49.52586" lon="-1.87286">
        <ele>74.1</ele>
        <time>2023-05-18T11:16:14Z</time>
      </trkpt>
      <trkpt lat="49.52568" lon="-1.87282">
        <ele>74.5</ele>
        <time>2023-05-18T11:16:18Z</time>
      </trkpt>
      <trkpt lat="49.52549" lon="-1.87273">
        <ele>74.8</ele>
        <time>2023-05-18T11:16:23Z</time>
      </trkpt>
      <trkpt lat="49.52527" lon="-1.87267">
        <ele>75.1</ele>
        <time>2023-05-18T11:16:28Z</time>
      </trkpt>
      <trkpt lat="49.52508" lon="-1.87265">
        <ele>75.3</ele>
        <time>2023-05-18T11:16:32Z</time>
      </trkpt>
      <trkpt lat="49.52487" lon="-1.87264">
        <ele>75.5</ele>
        <time>2023-05-18T11:16:36Z</time>
      </trkpt>
      <trkpt lat="49.52466" lon="-1.87261">
        <ele>75.6</ele>
        <time>2023-05-18T11:16:40Z</time>
      </trkpt>
      <trkpt lat="49.52444" lon="-1.87261">
        <ele>75.8</ele>
        <time>2023-05-18T11:16:45Z</time>
      </trkpt>
      <trkpt lat="49.52425" lon="-1.87258">
        <ele>76</ele>
        <time>2023-05-18T11:16:49Z</time>
      </trkpt>
      <trkpt lat="49.52407" lon="-1.87255">
        <ele>76.2</ele>
        <time>2023-05-18T11:16:53Z</time>
      </trkpt>
      <trkpt lat="49.52388" lon="-1.8725">
        <ele>76.4</ele>
        <time>2023-05-18T11:16:57Z</time>
      </trkpt>
      <trkpt lat="49.52371" lon="-1.8724">
        <ele>76.6</ele>
        <time>2023-05-18T11:17:01Z</time>
      </trkpt>
      <trkpt lat="49.52354" lon="-1.87223">
        <ele>76.9</ele>
        <time>2023-05-18T11:17:05Z</time>
      </trkpt>
      <trkpt lat="49.52338" lon="-1.87207">
        <ele>77.2</ele>
        <time>2023-05-18T11:17:09Z</time>
      </trkpt>
      <trkpt lat="49.52322" lon="-1.87192">
        <ele>77.6</ele>
        <time>2023-05-18T11:17:13Z</time>
      </trkpt>
      <trkpt lat="49.52304" lon="-1.87171">
        <ele>78.3</ele>
        <time>2023-05-18T11:17:18Z</time>
      </trkpt>
      <trkpt lat="49.52288" lon="-1.87154">
        <ele>79</ele>
        <time>2023-05-18T11:17:23Z</time>
      </trkpt>
      <trkpt lat="49.52273" lon="-1.87138">
        <ele>79.7</ele>
        <time>2023-05-18T11:17:28Z</time>
      </trkpt>
      <trkpt lat="49.52259" lon="-1.87121">
        <ele>80.4</ele>
        <time>2023-05-18T11:17:33Z</time>
      </trkpt>
      <trkpt lat="49.52245" lon="-1.87099">
        <ele>81.2</ele>
        <time>2023-05-18T11:17:39Z</time>
      </trkpt>
      <trkpt lat="49.52234" lon="-1.87077">
        <ele>81.5</ele>
        <time>2023-05-18T11:17:44Z</time>
      </trkpt>
      <trkpt lat="49.52224" lon="-1.87049">
        <ele>81.8</ele>
        <time>2023-05-18T11:17:50Z</time>
      </trkpt>
      <trkpt lat="49.52217" lon="-1.87023">
        <ele>82</ele>
        <time>2023-05-18T11:17:55Z</time>
      </trkpt>
      <trkpt lat="49.52214" lon="-1.86992">
        <ele>82.1</ele>
        <time>2023-05-18T11:18:00Z</time>
      </trkpt>
      <trkpt lat="49.52212" lon="-1.86959">
        <ele>82.1</ele>
        <time>2023-05-18T11:18:05Z</time>
      </trkpt>
      <trkpt lat="49.52212" lon="-1.86931">
        <ele>82</ele>
        <time>2023-05-18T11:18:09Z</time>
      </trkpt>
      <trkpt lat="49.5221" lon="-1.86902">
        <ele>81.8</ele>
        <time>2023-05-18T11:18:13Z</time>
      </trkpt>
      <trkpt lat="49.52202" lon="-1.86874">
        <ele>81.7</ele>
        <time>2023-05-18T11:18:17Z</time>
      </trkpt>
      <trkpt lat="49.52188" lon="-1.8685">
        <ele>81.2</ele>
        <time>2023-05-18T11:18:21Z</time>
      </trkpt>
      <trkpt lat="49.52172" lon="-1.86822">
        <ele>80.4</ele>
        <time>2023-05-18T11:18:25Z</time>
      </trkpt>
      <trkpt lat="49.52158" lon="-1.86804">
        <ele>79.8</ele>
        <time>2023-05-18T11:18:28Z</time>
      </trkpt>
      <trkpt lat="49.52141" lon="-1.86787">
        <ele>79.3</ele>
        <time>2023-05-18T11:18:31Z</time>
      </trkpt>
      <trkpt lat="49.52123" lon="-1.86771">
        <ele>78.8</ele>
        <time>2023-05-18T11:18:34Z</time>
      </trkpt>
      <trkpt lat="49.52107" lon="-1.86754">
        <ele>78.4</ele>
        <time>2023-05-18T11:18:37Z</time>
      </trkpt>
      <trkpt lat="49.52091" lon="-1.86738">
        <ele>78</ele>
        <time>2023-05-18T11:18:40Z</time>
      </trkpt>
      <trkpt lat="49.52074" lon="-1.86725">
        <ele>77.7</ele>
        <time>2023-05-18T11:18:43Z</time>
      </trkpt>
      <trkpt lat="49.52054" lon="-1.86717">
        <ele>77.4</ele>
        <time>2023-05-18T11:18:46Z</time>
      </trkpt>
      <trkpt lat="49.52035" lon="-1.86713">
        <ele>77.3</ele>
        <time>2023-05-18T11:18:49Z</time>
      </trkpt>
      <trkpt lat="49.52017" lon="-1.86707">
        <ele>77.1</ele>
        <time>2023-05-18T11:18:52Z</time>
      </trkpt>
      <trkpt lat="49.51998" lon="-1.86698">
        <ele>77.1</ele>
        <time>2023-05-18T11:18:55Z</time>
      </trkpt>
      <trkpt lat="49.51976" lon="-1.86687">
        <ele>77.1</ele>
        <time>2023-05-18T11:18:59Z</time>
      </trkpt>
      <trkpt lat="49.51958" lon="-1.86679">
        <ele>77.5</ele>
        <time>2023-05-18T11:19:02Z</time>
      </trkpt>
      <trkpt lat="49.51938" lon="-1.86664">
        <ele>78.2</ele>
        <time>2023-05-18T11:19:06Z</time>
      </trkpt>
      <trkpt lat="49.51925" lon="-1.86639">
        <ele>78.5</ele>
        <time>2023-05-18T11:19:10Z</time>
      </trkpt>
      <trkpt lat="49.51915" lon="-1.86615">
        <ele>79.7</ele>
        <time>2023-05-18T11:19:15Z</time>
      </trkpt>
      <trkpt lat="49.51907" lon="-1.86586">
        <ele>81</ele>
        <time>2023-05-18T11:19:22Z</time>
      </trkpt>
      <trkpt lat="49.51895" lon="-1.86562">
        <ele>82.1</ele>
        <time>2023-05-18T11:19:28Z</time>
      </trkpt>
      <trkpt lat="49.51879" lon="-1.8654">
        <ele>83</ele>
        <time>2023-05-18T11:19:34Z</time>
      </trkpt>
      <trkpt lat="49.51863" lon="-1.8652">
        <ele>83.5</ele>
        <time>2023-05-18T11:19:40Z</time>
      </trkpt>
      <trkpt lat="49.5185" lon="-1.86501">
        <ele>83.6</ele>
        <time>2023-05-18T11:19:45Z</time>
      </trkpt>
      <trkpt lat="49.51834" lon="-1.86478">
        <ele>83.6</ele>
        <time>2023-05-18T11:19:50Z</time>
      </trkpt>
      <trkpt lat="49.51821" lon="-1.86457">
        <ele>83.5</ele>
        <time>2023-05-18T11:19:54Z</time>
      </trkpt>
      <trkpt lat="49.51809" lon="-1.86434">
        <ele>83.3</ele>
        <time>2023-05-18T11:19:58Z</time>
      </trkpt>
      <trkpt lat="49.51796" lon="-1.86409">
        <ele>83</ele>
        <time>2023-05-18T11:20:02Z</time>
      </trkpt>
      <trkpt lat="49.5178" lon="-1.86383">
        <ele>82.6</ele>
        <time>2023-05-18T11:20:06Z</time>
      </trkpt>
      <trkpt lat="49.51763" lon="-1.86362">
        <ele>82.3</ele>
        <time>2023-05-18T11:20:10Z</time>
      </trkpt>
      <trkpt lat="49.51745" lon="-1.86342">
        <ele>82</ele>
        <time>2023-05-18T11:20:14Z</time>
      </trkpt>
      <trkpt lat="49.51726" lon="-1.86323">
        <ele>81.7</ele>
        <time>2023-05-18T11:20:18Z</time>
      </trkpt>
      <trkpt lat="49.51709" lon="-1.86335">
        <ele>81.3</ele>
        <time>2023-05-18T11:20:22Z</time>
      </trkpt>
      <trkpt lat="49.51697" lon="-1.86364">
        <ele>81.3</ele>
        <time>2023-05-18T11:20:26Z</time>
      </trkpt>
      <trkpt lat="49.51685" lon="-1.86388">
        <ele>81.5</ele>
        <time>2023-05-18T11:20:30Z</time>
      </trkpt>
      <trkpt lat="49.51675" lon="-1.86412">
        <ele>81.8</ele>
        <time>2023-05-18T11:20:34Z</time>
      </trkpt>
      <trkpt lat="49.51656" lon="-1.86421">
        <ele>81.7</ele>
        <time>2023-05-18T11:20:39Z</time>
      </trkpt>
      <trkpt lat="49.51638" lon="-1.86396">
        <ele>81</ele>
        <time>2023-05-18T11:20:43Z</time>
      </trkpt>
      <trkpt lat="49.51626" lon="-1.86376">
        <ele>80.5</ele>
        <time>2023-05-18T11:20:46Z</time>
      </trkpt>
      <trkpt lat="49.51611" lon="-1.86354">
        <ele>80.1</ele>
        <time>2023-05-18T11:20:49Z</time>
      </trkpt>
      <trkpt lat="49.51598" lon="-1.86334">
        <ele>79.8</ele>
        <time>2023-05-18T11:20:52Z</time>
      </trkpt>
      <trkpt lat="49.51581" lon="-1.8631">
        <ele>79.3</ele>
        <time>2023-05-18T11:20:56Z</time>
      </trkpt>
      <trkpt lat="49.51566" lon="-1.86285">
        <ele>79</ele>
        <time>2023-05-18T11:21:00Z</time>
      </trkpt>
      <trkpt lat="49.51552" lon="-1.8626">
        <ele>78.6</ele>
        <time>2023-05-18T11:21:04Z</time>
      </trkpt>
      <trkpt lat="49.5154" lon="-1.8623">
        <ele>78.1</ele>
        <time>2023-05-18T11:21:08Z</time>
      </trkpt>
      <trkpt lat="49.51528" lon="-1.862">
        <ele>77.4</ele>
        <time>2023-05-18T11:21:12Z</time>
      </trkpt>
      <trkpt lat="49.51512" lon="-1.86173">
        <ele>76.4</ele>
        <time>2023-05-18T11:21:16Z</time>
      </trkpt>
      <trkpt lat="49.51492" lon="-1.86164">
        <ele>75.2</ele>
        <time>2023-05-18T11:21:19Z</time>
      </trkpt>
      <trkpt lat="49.51471" lon="-1.86153">
        <ele>73.8</ele>
        <time>2023-05-18T11:21:22Z</time>
      </trkpt>
      <trkpt lat="49.51451" lon="-1.86131">
        <ele>71.9</ele>
        <time>2023-05-18T11:21:25Z</time>
      </trkpt>
      <trkpt lat="49.51428" lon="-1.86113">
        <ele>69.3</ele>
        <time>2023-05-18T11:21:28Z</time>
      </trkpt>
      <trkpt lat="49.5141" lon="-1.86103">
        <ele>67.4</ele>
        <time>2023-05-18T11:21:30Z</time>
      </trkpt>
      <trkpt lat="49.5139" lon="-1.86097">
        <ele>65.4</ele>
        <time>2023-05-18T11:21:32Z</time>
      </trkpt>
      <trkpt lat="49.51366" lon="-1.86082">
        <ele>63.2</ele>
        <time>2023-05-18T11:21:35Z</time>
      </trkpt>
      <trkpt lat="49.5135" lon="-1.8605">
        <ele>61</ele>
        <time>2023-05-18T11:21:38Z</time>
      </trkpt>
      <trkpt lat="49.51349" lon="-1.86023">
        <ele>58.9</ele>
        <time>2023-05-18T11:21:40Z</time>
      </trkpt>
      <trkpt lat="49.51344" lon="-1.85993">
        <ele>56.7</ele>
        <time>2023-05-18T11:21:42Z</time>
      </trkpt>
      <trkpt lat="49.51338" lon="-1.85962">
        <ele>54.3</ele>
        <time>2023-05-18T11:21:44Z</time>
      </trkpt>
      <trkpt lat="49.51332" lon="-1.85929">
        <ele>51.7</ele>
        <time>2023-05-18T11:21:46Z</time>
      </trkpt>
      <trkpt lat="49.51319" lon="-1.859">
        <ele>49.3</ele>
        <time>2023-05-18T11:21:48Z</time>
      </trkpt>
      <trkpt lat="49.51302" lon="-1.85875">
        <ele>46.8</ele>
        <time>2023-05-18T11:21:50Z</time>
      </trkpt>
      <trkpt lat="49.51286" lon="-1.8585">
        <ele>44.4</ele>
        <time>2023-05-18T11:21:52Z</time>
      </trkpt>
      <trkpt lat="49.51277" lon="-1.85818">
        <ele>42.3</ele>
        <time>2023-05-18T11:21:54Z</time>
      </trkpt>
      <trkpt lat="49.51275" lon="-1.85782">
        <ele>40.6</ele>
        <time>2023-05-18T11:21:56Z</time>
      </trkpt>
      <trkpt lat="49.51273" lon="-1.85749">
        <ele>39.3</ele>
        <time>2023-05-18T11:21:58Z</time>
      </trkpt>
      <trkpt lat="49.51259" lon="-1.85722">
        <ele>37.8</ele>
        <time>2023-05-18T11:22:00Z</time>
      </trkpt>
      <trkpt lat="49.51242" lon="-1.85696">
        <ele>36.1</ele>
        <time>2023-05-18T11:22:02Z</time>
      </trkpt>
      <trkpt lat="49.51232" lon="-1.85667">
        <ele>34.7</ele>
        <time>2023-05-18T11:22:04Z</time>
      </trkpt>
      <trkpt lat="49.51223" lon="-1.85634">
        <ele>33.2</ele>
        <time>2023-05-18T11:22:06Z</time>
      </trkpt>
      <trkpt lat="49.51216" lon="-1.85601">
        <ele>31.7</ele>
        <time>2023-05-18T11:22:08Z</time>
      </trkpt>
      <trkpt lat="49.51207" lon="-1.85568">
        <ele>30.4</ele>
        <time>2023-05-18T11:22:10Z</time>
      </trkpt>
      <trkpt lat="49.51195" lon="-1.85539">
        <ele>29</ele>
        <time>2023-05-18T11:22:12Z</time>
      </trkpt>
      <trkpt lat="49.51182" lon="-1.8551">
        <ele>27.9</ele>
        <time>2023-05-18T11:22:14Z</time>
      </trkpt>
      <trkpt lat="49.51171" lon="-1.85481">
        <ele>27.3</ele>
        <time>2023-05-18T11:22:16Z</time>
      </trkpt>
      <trkpt lat="49.51167" lon="-1.85451">
        <ele>27.3</ele>
        <time>2023-05-18T11:22:18Z</time>
      </trkpt>
      <trkpt lat="49.51166" lon="-1.85413">
        <ele>29.1</ele>
        <time>2023-05-18T11:22:21Z</time>
      </trkpt>
      <trkpt lat="49.51166" lon="-1.85383">
        <ele>30.8</ele>
        <time>2023-05-18T11:22:24Z</time>
      </trkpt>
      <trkpt lat="49.51166" lon="-1.85349">
        <ele>32.5</ele>
        <time>2023-05-18T11:22:29Z</time>
      </trkpt>
      <trkpt lat="49.51164" lon="-1.85321">
        <ele>32.9</ele>
        <time>2023-05-18T11:22:33Z</time>
      </trkpt>
      <trkpt lat="49.51159" lon="-1.85287">
        <ele>33.2</ele>
        <time>2023-05-18T11:22:37Z</time>
      </trkpt>
      <trkpt lat="49.51151" lon="-1.85257">
        <ele>33.6</ele>
        <time>2023-05-18T11:22:41Z</time>
      </trkpt>
      <trkpt lat="49.51144" lon="-1.85232">
        <ele>34.2</ele>
        <time>2023-05-18T11:22:45Z</time>
      </trkpt>
      <trkpt lat="49.51133" lon="-1.85201">
        <ele>34.3</ele>
        <time>2023-05-18T11:22:50Z</time>
      </trkpt>
      <trkpt lat="49.51125" lon="-1.85175">
        <ele>33.3</ele>
        <time>2023-05-18T11:22:54Z</time>
      </trkpt>
      <trkpt lat="49.51116" lon="-1.8514">
        <ele>31.4</ele>
        <time>2023-05-18T11:22:58Z</time>
      </trkpt>
      <trkpt lat="49.51106" lon="-1.85108">
        <ele>29.2</ele>
        <time>2023-05-18T11:23:01Z</time>
      </trkpt>
      <trkpt lat="49.51094" lon="-1.85073">
        <ele>27.4</ele>
        <time>2023-05-18T11:23:04Z</time>
      </trkpt>
      <trkpt lat="49.51084" lon="-1.85038">
        <ele>26.7</ele>
        <time>2023-05-18T11:23:07Z</time>
      </trkpt>
      <trkpt lat="49.51073" lon="-1.85008">
        <ele>27.1</ele>
        <time>2023-05-18T11:23:10Z</time>
      </trkpt>
      <trkpt lat="49.51065" lon="-1.84982">
        <ele>27.7</ele>
        <time>2023-05-18T11:23:13Z</time>
      </trkpt>
      <trkpt lat="49.51056" lon="-1.84957">
        <ele>28.1</ele>
        <time>2023-05-18T11:23:16Z</time>
      </trkpt>
      <trkpt lat="49.51045" lon="-1.84925">
        <ele>28.3</ele>
        <time>2023-05-18T11:23:20Z</time>
      </trkpt>
      <trkpt lat="49.51036" lon="-1.84901">
        <ele>28.5</ele>
        <time>2023-05-18T11:23:23Z</time>
      </trkpt>
      <trkpt lat="49.51026" lon="-1.84869">
        <ele>28.6</ele>
        <time>2023-05-18T11:23:27Z</time>
      </trkpt>
      <trkpt lat="49.51014" lon="-1.84838">
        <ele>28.5</ele>
        <time>2023-05-18T11:23:31Z</time>
      </trkpt>
      <trkpt lat="49.51004" lon="-1.84814">
        <ele>28.5</ele>
        <time>2023-05-18T11:23:34Z</time>
      </trkpt>
      <trkpt lat="49.50991" lon="-1.84792">
        <ele>28.9</ele>
        <time>2023-05-18T11:23:37Z</time>
      </trkpt>
      <trkpt lat="49.50977" lon="-1.84769">
        <ele>30</ele>
        <time>2023-05-18T11:23:41Z</time>
      </trkpt>
      <trkpt lat="49.50961" lon="-1.84748">
        <ele>31.3</ele>
        <time>2023-05-18T11:23:46Z</time>
      </trkpt>
      <trkpt lat="49.50946" lon="-1.84727">
        <ele>32.5</ele>
        <time>2023-05-18T11:23:52Z</time>
      </trkpt>
      <trkpt lat="49.50932" lon="-1.84704">
        <ele>33.4</ele>
        <time>2023-05-18T11:23:58Z</time>
      </trkpt>
      <trkpt lat="49.50915" lon="-1.84683">
        <ele>34</ele>
        <time>2023-05-18T11:24:03Z</time>
      </trkpt>
      <trkpt lat="49.509" lon="-1.8466">
        <ele>34.4</ele>
        <time>2023-05-18T11:24:08Z</time>
      </trkpt>
      <trkpt lat="49.50887" lon="-1.84641">
        <ele>34.5</ele>
        <time>2023-05-18T11:24:12Z</time>
      </trkpt>
      <trkpt lat="49.50873" lon="-1.84623">
        <ele>34.5</ele>
        <time>2023-05-18T11:24:16Z</time>
      </trkpt>
      <trkpt lat="49.50857" lon="-1.84604">
        <ele>34.5</ele>
        <time>2023-05-18T11:24:21Z</time>
      </trkpt>
      <trkpt lat="49.50834" lon="-1.84608">
        <ele>32</ele>
        <time>2023-05-18T11:24:26Z</time>
      </trkpt>
      <trkpt lat="49.50812" lon="-1.84622">
        <ele>29.1</ele>
        <time>2023-05-18T11:24:29Z</time>
      </trkpt>
      <trkpt lat="49.50793" lon="-1.8463">
        <ele>26.7</ele>
        <time>2023-05-18T11:24:31Z</time>
      </trkpt>
      <trkpt lat="49.50771" lon="-1.84637">
        <ele>24.3</ele>
        <time>2023-05-18T11:24:33Z</time>
      </trkpt>
      <trkpt lat="49.50749" lon="-1.8464">
        <ele>22.3</ele>
        <time>2023-05-18T11:24:35Z</time>
      </trkpt>
      <trkpt lat="49.50728" lon="-1.84643">
        <ele>20.8</ele>
        <time>2023-05-18T11:24:37Z</time>
      </trkpt>
      <trkpt lat="49.50705" lon="-1.84651">
        <ele>19.4</ele>
        <time>2023-05-18T11:24:40Z</time>
      </trkpt>
      <trkpt lat="49.50689" lon="-1.84672">
        <ele>18.4</ele>
        <time>2023-05-18T11:24:44Z</time>
      </trkpt>
      <trkpt lat="49.50667" lon="-1.84666">
        <ele>17.7</ele>
        <time>2023-05-18T11:24:51Z</time>
      </trkpt>
      <trkpt lat="49.50644" lon="-1.84657">
        <ele>17.2</ele>
        <time>2023-05-18T11:24:55Z</time>
      </trkpt>
      <trkpt lat="49.50621" lon="-1.84644">
        <ele>16.7</ele>
        <time>2023-05-18T11:24:59Z</time>
      </trkpt>
      <trkpt lat="49.50603" lon="-1.84642">
        <ele>16.2</ele>
        <time>2023-05-18T11:25:02Z</time>
      </trkpt>
      <trkpt lat="49.50584" lon="-1.8465">
        <ele>15.5</ele>
        <time>2023-05-18T11:25:05Z</time>
      </trkpt>
      <trkpt lat="49.50564" lon="-1.84658">
        <ele>15</ele>
        <time>2023-05-18T11:25:08Z</time>
      </trkpt>
      <trkpt lat="49.50543" lon="-1.84663">
        <ele>14.4</ele>
        <time>2023-05-18T11:25:11Z</time>
      </trkpt>
      <trkpt lat="49.50522" lon="-1.84661">
        <ele>13.9</ele>
        <time>2023-05-18T11:25:14Z</time>
      </trkpt>
      <trkpt lat="49.50499" lon="-1.84655">
        <ele>13.3</ele>
        <time>2023-05-18T11:25:17Z</time>
      </trkpt>
      <trkpt lat="49.50479" lon="-1.8465">
        <ele>12.9</ele>
        <time>2023-05-18T11:25:20Z</time>
      </trkpt>
      <trkpt lat="49.50459" lon="-1.84645">
        <ele>12.6</ele>
        <time>2023-05-18T11:25:23Z</time>
      </trkpt>
      <trkpt lat="49.50439" lon="-1.84645">
        <ele>12.3</ele>
        <time>2023-05-18T11:25:26Z</time>
      </trkpt>
      <trkpt lat="49.50419" lon="-1.84646">
        <ele>12</ele>
        <time>2023-05-18T11:25:29Z</time>
      </trkpt>
      <trkpt lat="49.50398" lon="-1.84646">
        <ele>11.8</ele>
        <time>2023-05-18T11:25:32Z</time>
      </trkpt>
      <trkpt lat="49.50378" lon="-1.84646">
        <ele>11.7</ele>
        <time>2023-05-18T11:25:35Z</time>
      </trkpt>
      <trkpt lat="49.50359" lon="-1.84641">
        <ele>11.5</ele>
        <time>2023-05-18T11:25:38Z</time>
      </trkpt>
      <trkpt lat="49.50339" lon="-1.84632">
        <ele>11.3</ele>
        <time>2023-05-18T11:25:41Z</time>
      </trkpt>
      <trkpt lat="49.50319" lon="-1.84623">
        <ele>11.1</ele>
        <time>2023-05-18T11:25:44Z</time>
      </trkpt>
      <trkpt lat="49.50299" lon="-1.84619">
        <ele>10.9</ele>
        <time>2023-05-18T11:25:47Z</time>
      </trkpt>
      <trkpt lat="49.50279" lon="-1.84615">
        <ele>10.7</ele>
        <time>2023-05-18T11:25:50Z</time>
      </trkpt>
      <trkpt lat="49.50258" lon="-1.84614">
        <ele>10.5</ele>
        <time>2023-05-18T11:25:53Z</time>
      </trkpt>
      <trkpt lat="49.50239" lon="-1.84615">
        <ele>10.4</ele>
        <time>2023-05-18T11:25:56Z</time>
      </trkpt>
      <trkpt lat="49.5022" lon="-1.84609">
        <ele>10.2</ele>
        <time>2023-05-18T11:25:59Z</time>
      </trkpt>
      <trkpt lat="49.50202" lon="-1.846">
        <ele>10.2</ele>
        <time>2023-05-18T11:26:02Z</time>
      </trkpt>
      <trkpt lat="49.50185" lon="-1.8459">
        <ele>10.1</ele>
        <time>2023-05-18T11:26:05Z</time>
      </trkpt>
      <trkpt lat="49.50164" lon="-1.84579">
        <ele>10.2</ele>
        <time>2023-05-18T11:26:09Z</time>
      </trkpt>
      <trkpt lat="49.50143" lon="-1.84564">
        <ele>10.3</ele>
        <time>2023-05-18T11:26:13Z</time>
      </trkpt>
      <trkpt lat="49.50124" lon="-1.84549">
        <ele>10.3</ele>
        <time>2023-05-18T11:26:17Z</time>
      </trkpt>
      <trkpt lat="49.50104" lon="-1.84532">
        <ele>10.1</ele>
        <time>2023-05-18T11:26:21Z</time>
      </trkpt>
      <trkpt lat="49.50083" lon="-1.84515">
        <ele>9.9</ele>
        <time>2023-05-18T11:26:25Z</time>
      </trkpt>
      <trkpt lat="49.50063" lon="-1.84497">
        <ele>9.6</ele>
        <time>2023-05-18T11:26:29Z</time>
      </trkpt>
      <trkpt lat="49.50047" lon="-1.84481">
        <ele>9.4</ele>
        <time>2023-05-18T11:26:32Z</time>
      </trkpt>
      <trkpt lat="49.50032" lon="-1.84464">
        <ele>9.3</ele>
        <time>2023-05-18T11:26:35Z</time>
      </trkpt>
      <trkpt lat="49.50016" lon="-1.84446">
        <ele>9.2</ele>
        <time>2023-05-18T11:26:38Z</time>
      </trkpt>
      <trkpt lat="49.5" lon="-1.84431">
        <ele>9.2</ele>
        <time>2023-05-18T11:26:41Z</time>
      </trkpt>
      <trkpt lat="49.4998" lon="-1.84412">
        <ele>9.2</ele>
        <time>2023-05-18T11:26:45Z</time>
      </trkpt>
      <trkpt lat="49.49964" lon="-1.84399">
        <ele>9.2</ele>
        <time>2023-05-18T11:26:48Z</time>
      </trkpt>
      <trkpt lat="49.49947" lon="-1.84386">
        <ele>9.2</ele>
        <time>2023-05-18T11:26:51Z</time>
      </trkpt>
      <trkpt lat="49.49927" lon="-1.8437">
        <ele>9.3</ele>
        <time>2023-05-18T11:26:55Z</time>
      </trkpt>
      <trkpt lat="49.49911" lon="-1.84347">
        <ele>9.3</ele>
        <time>2023-05-18T11:26:59Z</time>
      </trkpt>
      <trkpt lat="49.49893" lon="-1.84322">
        <ele>9.2</ele>
        <time>2023-05-18T11:27:03Z</time>
      </trkpt>
      <trkpt lat="49.49876" lon="-1.84296">
        <ele>9.1</ele>
        <time>2023-05-18T11:27:07Z</time>
      </trkpt>
      <trkpt lat="49.49861" lon="-1.84278">
        <ele>9</ele>
        <time>2023-05-18T11:27:10Z</time>
      </trkpt>
      <trkpt lat="49.49842" lon="-1.84256">
        <ele>8.9</ele>
        <time>2023-05-18T11:27:14Z</time>
      </trkpt>
      <trkpt lat="49.49826" lon="-1.84241">
        <ele>9</ele>
        <time>2023-05-18T11:27:17Z</time>
      </trkpt>
      <trkpt lat="49.49806" lon="-1.84222">
        <ele>9</ele>
        <time>2023-05-18T11:27:21Z</time>
      </trkpt>
      <trkpt lat="49.49787" lon="-1.84203">
        <ele>9.2</ele>
        <time>2023-05-18T11:27:25Z</time>
      </trkpt>
      <trkpt lat="49.49769" lon="-1.84184">
        <ele>9.3</ele>
        <time>2023-05-18T11:27:29Z</time>
      </trkpt>
      <trkpt lat="49.49753" lon="-1.84161">
        <ele>9.7</ele>
        <time>2023-05-18T11:27:33Z</time>
      </trkpt>
      <trkpt lat="49.49741" lon="-1.84136">
        <ele>9.9</ele>
        <time>2023-05-18T11:27:37Z</time>
      </trkpt>
      <trkpt lat="49.49729" lon="-1.8411">
        <ele>10.2</ele>
        <time>2023-05-18T11:27:41Z</time>
      </trkpt>
      <trkpt lat="49.49718" lon="-1.84085">
        <ele>10.3</ele>
        <time>2023-05-18T11:27:45Z</time>
      </trkpt>
      <trkpt lat="49.49706" lon="-1.84056">
        <ele>10.3</ele>
        <time>2023-05-18T11:27:49Z</time>
      </trkpt>
      <trkpt lat="49.49697" lon="-1.84026">
        <ele>10.3</ele>
        <time>2023-05-18T11:27:53Z</time>
      </trkpt>
      <trkpt lat="49.49688" lon="-1.83996">
        <ele>10.4</ele>
        <time>2023-05-18T11:27:57Z</time>
      </trkpt>
      <trkpt lat="49.49683" lon="-1.83963">
        <ele>10.4</ele>
        <time>2023-05-18T11:28:01Z</time>
      </trkpt>
      <trkpt lat="49.49682" lon="-1.8393">
        <ele>10.6</ele>
        <time>2023-05-18T11:28:05Z</time>
      </trkpt>
      <trkpt lat="49.49681" lon="-1.83898">
        <ele>10.6</ele>
        <time>2023-05-18T11:28:09Z</time>
      </trkpt>
      <trkpt lat="49.49679" lon="-1.83866">
        <ele>10.6</ele>
        <time>2023-05-18T11:28:13Z</time>
      </trkpt>
      <trkpt lat="49.49678" lon="-1.83832">
        <ele>10.5</ele>
        <time>2023-05-18T11:28:17Z</time>
      </trkpt>
      <trkpt lat="49.49677" lon="-1.83797">
        <ele>10.5</ele>
        <time>2023-05-18T11:28:21Z</time>
      </trkpt>
      <trkpt lat="49.49675" lon="-1.83762">
        <ele>10.5</ele>
        <time>2023-05-18T11:28:25Z</time>
      </trkpt>
      <trkpt lat="49.49671" lon="-1.83728">
        <ele>10.6</ele>
        <time>2023-05-18T11:28:29Z</time>
      </trkpt>
      <trkpt lat="49.49664" lon="-1.83696">
        <ele>10.6</ele>
        <time>2023-05-18T11:28:33Z</time>
      </trkpt>
      <trkpt lat="49.49656" lon="-1.83663">
        <ele>10.7</ele>
        <time>2023-05-18T11:28:37Z</time>
      </trkpt>
      <trkpt lat="49.49646" lon="-1.83632">
        <ele>10.9</ele>
        <time>2023-05-18T11:28:41Z</time>
      </trkpt>
      <trkpt lat="49.49638" lon="-1.83602">
        <ele>11</ele>
        <time>2023-05-18T11:28:45Z</time>
      </trkpt>
      <trkpt lat="49.4963" lon="-1.83573">
        <ele>11.2</ele>
        <time>2023-05-18T11:28:49Z</time>
      </trkpt>
      <trkpt lat="49.49622" lon="-1.83545">
        <ele>11.3</ele>
        <time>2023-05-18T11:28:53Z</time>
      </trkpt>
      <trkpt lat="49.49615" lon="-1.83518">
        <ele>11.5</ele>
        <time>2023-05-18T11:28:57Z</time>
      </trkpt>
      <trkpt lat="49.49608" lon="-1.83488">
        <ele>11.7</ele>
        <time>2023-05-18T11:29:01Z</time>
      </trkpt>
      <trkpt lat="49.496" lon="-1.8346">
        <ele>11.9</ele>
        <time>2023-05-18T11:29:05Z</time>
      </trkpt>
      <trkpt lat="49.49592" lon="-1.83433">
        <ele>12.2</ele>
        <time>2023-05-18T11:29:09Z</time>
      </trkpt>
      <trkpt lat="49.49579" lon="-1.83405">
        <ele>12.7</ele>
        <time>2023-05-18T11:29:14Z</time>
      </trkpt>
      <trkpt lat="49.49571" lon="-1.8338">
        <ele>13.2</ele>
        <time>2023-05-18T11:29:18Z</time>
      </trkpt>
      <trkpt lat="49.49562" lon="-1.8335">
        <ele>13.7</ele>
        <time>2023-05-18T11:29:23Z</time>
      </trkpt>
      <trkpt lat="49.49556" lon="-1.83319">
        <ele>14.2</ele>
        <time>2023-05-18T11:29:28Z</time>
      </trkpt>
      <trkpt lat="49.4955" lon="-1.8329">
        <ele>14.7</ele>
        <time>2023-05-18T11:29:33Z</time>
      </trkpt>
      <trkpt lat="49.49545" lon="-1.8326">
        <ele>15.3</ele>
        <time>2023-05-18T11:29:38Z</time>
      </trkpt>
      <trkpt lat="49.49539" lon="-1.83231">
        <ele>15.8</ele>
        <time>2023-05-18T11:29:43Z</time>
      </trkpt>
      <trkpt lat="49.49534" lon="-1.83205">
        <ele>16.3</ele>
        <time>2023-05-18T11:29:48Z</time>
      </trkpt>
      <trkpt lat="49.49531" lon="-1.83174">
        <ele>16.7</ele>
        <time>2023-05-18T11:29:53Z</time>
      </trkpt>
      <trkpt lat="49.4953" lon="-1.83143">
        <ele>17.1</ele>
        <time>2023-05-18T11:29:58Z</time>
      </trkpt>
      <trkpt lat="49.49528" lon="-1.83112">
        <ele>17.6</ele>
        <time>2023-05-18T11:30:03Z</time>
      </trkpt>
      <trkpt lat="49.49522" lon="-1.83084">
        <ele>18</ele>
        <time>2023-05-18T11:30:08Z</time>
      </trkpt>
      <trkpt lat="49.49508" lon="-1.83065">
        <ele>18.4</ele>
        <time>2023-05-18T11:30:13Z</time>
      </trkpt>
      <trkpt lat="49.49495" lon="-1.83045">
        <ele>18.7</ele>
        <time>2023-05-18T11:30:18Z</time>
      </trkpt>
      <trkpt lat="49.49484" lon="-1.83019">
        <ele>19.4</ele>
        <time>2023-05-18T11:30:24Z</time>
      </trkpt>
      <trkpt lat="49.49475" lon="-1.82994">
        <ele>20.1</ele>
        <time>2023-05-18T11:30:30Z</time>
      </trkpt>
      <trkpt lat="49.49464" lon="-1.8297">
        <ele>20.9</ele>
        <time>2023-05-18T11:30:36Z</time>
      </trkpt>
      <trkpt lat="49.49449" lon="-1.82949">
        <ele>21.7</ele>
        <time>2023-05-18T11:30:43Z</time>
      </trkpt>
      <trkpt lat="49.49433" lon="-1.82933">
        <ele>22.1</ele>
        <time>2023-05-18T11:30:49Z</time>
      </trkpt>
      <trkpt lat="49.49414" lon="-1.82918">
        <ele>22</ele>
        <time>2023-05-18T11:30:54Z</time>
      </trkpt>
      <trkpt lat="49.49397" lon="-1.82902">
        <ele>21.5</ele>
        <time>2023-05-18T11:30:58Z</time>
      </trkpt>
      <trkpt lat="49.4938" lon="-1.82887">
        <ele>20.7</ele>
        <time>2023-05-18T11:31:02Z</time>
      </trkpt>
      <trkpt lat="49.49357" lon="-1.82872">
        <ele>19.6</ele>
        <time>2023-05-18T11:31:06Z</time>
      </trkpt>
      <trkpt lat="49.49337" lon="-1.82862">
        <ele>18.4</ele>
        <time>2023-05-18T11:31:09Z</time>
      </trkpt>
      <trkpt lat="49.49314" lon="-1.8285">
        <ele>17.3</ele>
        <time>2023-05-18T11:31:12Z</time>
      </trkpt>
      <trkpt lat="49.49288" lon="-1.8284">
        <ele>16.1</ele>
        <time>2023-05-18T11:31:15Z</time>
      </trkpt>
      <trkpt lat="49.49271" lon="-1.82836">
        <ele>15.3</ele>
        <time>2023-05-18T11:31:17Z</time>
      </trkpt>
      <trkpt lat="49.49252" lon="-1.82834">
        <ele>14.5</ele>
        <time>2023-05-18T11:31:19Z</time>
      </trkpt>
      <trkpt lat="49.49233" lon="-1.82832">
        <ele>13.8</ele>
        <time>2023-05-18T11:31:21Z</time>
      </trkpt>
      <trkpt lat="49.49214" lon="-1.82831">
        <ele>13.3</ele>
        <time>2023-05-18T11:31:23Z</time>
      </trkpt>
      <trkpt lat="49.49196" lon="-1.82828">
        <ele>13.1</ele>
        <time>2023-05-18T11:31:25Z</time>
      </trkpt>
      <trkpt lat="49.49178" lon="-1.82819">
        <ele>13.1</ele>
        <time>2023-05-18T11:31:27Z</time>
      </trkpt>
      <trkpt lat="49.49163" lon="-1.82786">
        <ele>13</ele>
        <time>2023-05-18T11:31:30Z</time>
      </trkpt>
      <trkpt lat="49.49153" lon="-1.82756">
        <ele>13.1</ele>
        <time>2023-05-18T11:31:33Z</time>
      </trkpt>
      <trkpt lat="49.49137" lon="-1.82738">
        <ele>13.3</ele>
        <time>2023-05-18T11:31:36Z</time>
      </trkpt>
      <trkpt lat="49.49114" lon="-1.82747">
        <ele>13.1</ele>
        <time>2023-05-18T11:31:40Z</time>
      </trkpt>
      <trkpt lat="49.49095" lon="-1.82758">
        <ele>13.4</ele>
        <time>2023-05-18T11:31:43Z</time>
      </trkpt>
      <trkpt lat="49.49077" lon="-1.8277">
        <ele>13.5</ele>
        <time>2023-05-18T11:31:46Z</time>
      </trkpt>
      <trkpt lat="49.49056" lon="-1.82787">
        <ele>14.2</ele>
        <time>2023-05-18T11:31:50Z</time>
      </trkpt>
      <trkpt lat="49.49038" lon="-1.82797">
        <ele>15.1</ele>
        <time>2023-05-18T11:31:55Z</time>
      </trkpt>
      <trkpt lat="49.49021" lon="-1.82811">
        <ele>16.3</ele>
        <time>2023-05-18T11:32:03Z</time>
      </trkpt>
      <trkpt lat="49.49003" lon="-1.82823">
        <ele>17.5</ele>
        <time>2023-05-18T11:32:10Z</time>
      </trkpt>
      <trkpt lat="49.48986" lon="-1.82834">
        <ele>18.3</ele>
        <time>2023-05-18T11:32:18Z</time>
      </trkpt>
      <trkpt lat="49.48966" lon="-1.82844">
        <ele>18.9</ele>
        <time>2023-05-18T11:36:56Z</time>
      </trkpt>
      <trkpt lat="49.48948" lon="-1.82852">
        <ele>19.1</ele>
        <time>2023-05-18T11:37:01Z</time>
      </trkpt>
      <trkpt lat="49.4893" lon="-1.82854">
        <ele>18.9</ele>
        <time>2023-05-18T11:37:06Z</time>
      </trkpt>
      <trkpt lat="49.48909" lon="-1.82859">
        <ele>18.5</ele>
        <time>2023-05-18T11:37:11Z</time>
      </trkpt>
      <trkpt lat="49.48888" lon="-1.82867">
        <ele>18</ele>
        <time>2023-05-18T11:37:16Z</time>
      </trkpt>
      <trkpt lat="49.48867" lon="-1.82874">
        <ele>17.5</ele>
        <time>2023-05-18T11:37:20Z</time>
      </trkpt>
      <trkpt lat="49.4885" lon="-1.82879">
        <ele>17.1</ele>
        <time>2023-05-18T11:37:23Z</time>
      </trkpt>
      <trkpt lat="49.48826" lon="-1.82883">
        <ele>16.8</ele>
        <time>2023-05-18T11:37:27Z</time>
      </trkpt>
      <trkpt lat="49.48804" lon="-1.82889">
        <ele>16.5</ele>
        <time>2023-05-18T11:37:31Z</time>
      </trkpt>
      <trkpt lat="49.48783" lon="-1.82892">
        <ele>16.1</ele>
        <time>2023-05-18T11:37:35Z</time>
      </trkpt>
      <trkpt lat="49.48763" lon="-1.82894">
        <ele>15.7</ele>
        <time>2023-05-18T11:37:38Z</time>
      </trkpt>
      <trkpt lat="49.48741" lon="-1.82895">
        <ele>15.5</ele>
        <time>2023-05-18T11:37:41Z</time>
      </trkpt>
      <trkpt lat="49.48719" lon="-1.82889">
        <ele>15.5</ele>
        <time>2023-05-18T11:37:44Z</time>
      </trkpt>
      <trkpt lat="49.48701" lon="-1.8288">
        <ele>15.4</ele>
        <time>2023-05-18T11:37:47Z</time>
      </trkpt>
      <trkpt lat="49.48677" lon="-1.82873">
        <ele>15.5</ele>
        <time>2023-05-18T11:37:51Z</time>
      </trkpt>
      <trkpt lat="49.48659" lon="-1.82877">
        <ele>15.7</ele>
        <time>2023-05-18T11:37:54Z</time>
      </trkpt>
      <trkpt lat="49.4864" lon="-1.82881">
        <ele>16</ele>
        <time>2023-05-18T11:37:57Z</time>
      </trkpt>
      <trkpt lat="49.48621" lon="-1.82887">
        <ele>16.1</ele>
        <time>2023-05-18T11:38:00Z</time>
      </trkpt>
      <trkpt lat="49.48604" lon="-1.82894">
        <ele>16.6</ele>
        <time>2023-05-18T11:38:03Z</time>
      </trkpt>
      <trkpt lat="49.48584" lon="-1.82894">
        <ele>16.9</ele>
        <time>2023-05-18T11:38:07Z</time>
      </trkpt>
      <trkpt lat="49.48575" lon="-1.82866">
        <ele>16.9</ele>
        <time>2023-05-18T11:38:11Z</time>
      </trkpt>
      <trkpt lat="49.48559" lon="-1.8285">
        <ele>17.2</ele>
        <time>2023-05-18T11:38:15Z</time>
      </trkpt>
      <trkpt lat="49.4854" lon="-1.82844">
        <ele>17.6</ele>
        <time>2023-05-18T11:38:19Z</time>
      </trkpt>
      <trkpt lat="49.4852" lon="-1.82843">
        <ele>18.1</ele>
        <time>2023-05-18T11:38:23Z</time>
      </trkpt>
      <trkpt lat="49.48503" lon="-1.82835">
        <ele>18.7</ele>
        <time>2023-05-18T11:38:27Z</time>
      </trkpt>
      <trkpt lat="49.48484" lon="-1.82824">
        <ele>19.5</ele>
        <time>2023-05-18T11:38:32Z</time>
      </trkpt>
      <trkpt lat="49.48466" lon="-1.82812">
        <ele>20.4</ele>
        <time>2023-05-18T11:38:38Z</time>
      </trkpt>
      <trkpt lat="49.4845" lon="-1.82797">
        <ele>21</ele>
        <time>2023-05-18T11:38:43Z</time>
      </trkpt>
      <trkpt lat="49.48433" lon="-1.82779">
        <ele>21.8</ele>
        <time>2023-05-18T11:38:49Z</time>
      </trkpt>
      <trkpt lat="49.48416" lon="-1.82766">
        <ele>22.6</ele>
        <time>2023-05-18T11:38:55Z</time>
      </trkpt>
      <trkpt lat="49.48399" lon="-1.82751">
        <ele>23.7</ele>
        <time>2023-05-18T11:39:03Z</time>
      </trkpt>
      <trkpt lat="49.4838" lon="-1.82739">
        <ele>24.9</ele>
        <time>2023-05-18T11:39:10Z</time>
      </trkpt>
      <trkpt lat="49.48361" lon="-1.82731">
        <ele>26.1</ele>
        <time>2023-05-18T11:39:18Z</time>
      </trkpt>
      <trkpt lat="49.48342" lon="-1.82726">
        <ele>27.3</ele>
        <time>2023-05-18T11:39:25Z</time>
      </trkpt>
      <trkpt lat="49.48324" lon="-1.82724">
        <ele>28.6</ele>
        <time>2023-05-18T11:39:33Z</time>
      </trkpt>
      <trkpt lat="49.48306" lon="-1.82724">
        <ele>29.7</ele>
        <time>2023-05-18T11:39:40Z</time>
      </trkpt>
      <trkpt lat="49.48287" lon="-1.82725">
        <ele>30.4</ele>
        <time>2023-05-18T11:39:46Z</time>
      </trkpt>
      <trkpt lat="49.48268" lon="-1.82732">
        <ele>31.1</ele>
        <time>2023-05-18T11:39:51Z</time>
      </trkpt>
      <trkpt lat="49.4825" lon="-1.82739">
        <ele>31.7</ele>
        <time>2023-05-18T11:39:56Z</time>
      </trkpt>
      <trkpt lat="49.4823" lon="-1.82748">
        <ele>32.3</ele>
        <time>2023-05-18T11:40:02Z</time>
      </trkpt>
      <trkpt lat="49.48209" lon="-1.82757">
        <ele>33.1</ele>
        <time>2023-05-18T11:40:08Z</time>
      </trkpt>
      <trkpt lat="49.48189" lon="-1.82766">
        <ele>33.8</ele>
        <time>2023-05-18T11:40:14Z</time>
      </trkpt>
      <trkpt lat="49.48172" lon="-1.82774">
        <ele>34.5</ele>
        <time>2023-05-18T11:40:19Z</time>
      </trkpt>
      <trkpt lat="49.48152" lon="-1.82785">
        <ele>35.3</ele>
        <time>2023-05-18T11:40:25Z</time>
      </trkpt>
      <trkpt lat="49.48132" lon="-1.82793">
        <ele>36.1</ele>
        <time>2023-05-18T11:40:31Z</time>
      </trkpt>
      <trkpt lat="49.48113" lon="-1.82801">
        <ele>37</ele>
        <time>2023-05-18T11:40:37Z</time>
      </trkpt>
      <trkpt lat="49.48096" lon="-1.82808">
        <ele>37.9</ele>
        <time>2023-05-18T11:40:43Z</time>
      </trkpt>
      <trkpt lat="49.48075" lon="-1.82817">
        <ele>39.1</ele>
        <time>2023-05-18T11:40:50Z</time>
      </trkpt>
      <trkpt lat="49.48055" lon="-1.82824">
        <ele>40.5</ele>
        <time>2023-05-18T11:40:57Z</time>
      </trkpt>
      <trkpt lat="49.48037" lon="-1.82832">
        <ele>41.9</ele>
        <time>2023-05-18T11:41:03Z</time>
      </trkpt>
      <trkpt lat="49.4802" lon="-1.82839">
        <ele>43.4</ele>
        <time>2023-05-18T11:41:09Z</time>
      </trkpt>
      <trkpt lat="49.48003" lon="-1.8285">
        <ele>44.9</ele>
        <time>2023-05-18T11:41:16Z</time>
      </trkpt>
      <trkpt lat="49.47986" lon="-1.82862">
        <ele>46.8</ele>
        <time>2023-05-18T11:41:24Z</time>
      </trkpt>
      <trkpt lat="49.47968" lon="-1.82871">
        <ele>48.6</ele>
        <time>2023-05-18T11:41:32Z</time>
      </trkpt>
      <trkpt lat="49.4795" lon="-1.82881">
        <ele>50.6</ele>
        <time>2023-05-18T11:41:41Z</time>
      </trkpt>
      <trkpt lat="49.47932" lon="-1.82889">
        <ele>52.4</ele>
        <time>2023-05-18T11:41:49Z</time>
      </trkpt>
      <trkpt lat="49.47914" lon="-1.82899">
        <ele>53.5</ele>
        <time>2023-05-18T11:41:56Z</time>
      </trkpt>
      <trkpt lat="49.47895" lon="-1.82913">
        <ele>53.5</ele>
        <time>2023-05-18T11:42:02Z</time>
      </trkpt>
      <trkpt lat="49.47878" lon="-1.82924">
        <ele>53.5</ele>
        <time>2023-05-18T11:42:06Z</time>
      </trkpt>
      <trkpt lat="49.47861" lon="-1.82943">
        <ele>53.3</ele>
        <time>2023-05-18T11:42:10Z</time>
      </trkpt>
      <trkpt lat="49.47857" lon="-1.82978">
        <ele>52.6</ele>
        <time>2023-05-18T11:42:14Z</time>
      </trkpt>
      <trkpt lat="49.47859" lon="-1.83006">
        <ele>52.1</ele>
        <time>2023-05-18T11:42:17Z</time>
      </trkpt>
      <trkpt lat="49.47864" lon="-1.83034">
        <ele>51.5</ele>
        <time>2023-05-18T11:42:20Z</time>
      </trkpt>
      <trkpt lat="49.47869" lon="-1.83061">
        <ele>50.8</ele>
        <time>2023-05-18T11:42:23Z</time>
      </trkpt>
      <trkpt lat="49.47873" lon="-1.8309">
        <ele>50</ele>
        <time>2023-05-18T11:42:27Z</time>
      </trkpt>
      <trkpt lat="49.47867" lon="-1.83063">
        <ele>50.8</ele>
        <time>2023-05-18T11:42:39Z</time>
      </trkpt>
      <trkpt lat="49.47861" lon="-1.83034">
        <ele>51.5</ele>
        <time>2023-05-18T11:42:44Z</time>
      </trkpt>
      <trkpt lat="49.47858" lon="-1.83001">
        <ele>52.2</ele>
        <time>2023-05-18T11:42:49Z</time>
      </trkpt>
      <trkpt lat="49.47856" lon="-1.82971">
        <ele>52.8</ele>
        <time>2023-05-18T11:42:54Z</time>
      </trkpt>
      <trkpt lat="49.47857" lon="-1.8294">
        <ele>53.5</ele>
        <time>2023-05-18T11:42:59Z</time>
      </trkpt>
      <trkpt lat="49.4784" lon="-1.82924">
        <ele>54.3</ele>
        <time>2023-05-18T11:43:05Z</time>
      </trkpt>
      <trkpt lat="49.47821" lon="-1.82927">
        <ele>55.4</ele>
        <time>2023-05-18T11:43:12Z</time>
      </trkpt>
      <trkpt lat="49.47802" lon="-1.82936">
        <ele>56.8</ele>
        <time>2023-05-18T11:43:20Z</time>
      </trkpt>
      <trkpt lat="49.47783" lon="-1.82943">
        <ele>58.1</ele>
        <time>2023-05-18T11:43:27Z</time>
      </trkpt>
      <trkpt lat="49.47763" lon="-1.8295">
        <ele>59.4</ele>
        <time>2023-05-18T11:43:34Z</time>
      </trkpt>
      <trkpt lat="49.47746" lon="-1.82963">
        <ele>60.5</ele>
        <time>2023-05-18T11:43:40Z</time>
      </trkpt>
      <trkpt lat="49.47731" lon="-1.82978">
        <ele>61.3</ele>
        <time>2023-05-18T11:43:45Z</time>
      </trkpt>
      <trkpt lat="49.47711" lon="-1.82994">
        <ele>62.1</ele>
        <time>2023-05-18T11:43:51Z</time>
      </trkpt>
      <trkpt lat="49.47692" lon="-1.83002">
        <ele>62.7</ele>
        <time>2023-05-18T11:43:56Z</time>
      </trkpt>
      <trkpt lat="49.47672" lon="-1.83006">
        <ele>63.2</ele>
        <time>2023-05-18T11:44:01Z</time>
      </trkpt>
      <trkpt lat="49.47651" lon="-1.8301">
        <ele>63.5</ele>
        <time>2023-05-18T11:44:06Z</time>
      </trkpt>
      <trkpt lat="49.4763" lon="-1.83008">
        <ele>63.6</ele>
        <time>2023-05-18T11:44:11Z</time>
      </trkpt>
      <trkpt lat="49.47611" lon="-1.83005">
        <ele>63.5</ele>
        <time>2023-05-18T11:44:15Z</time>
      </trkpt>
      <trkpt lat="49.4759" lon="-1.83003">
        <ele>63.2</ele>
        <time>2023-05-18T11:44:19Z</time>
      </trkpt>
      <trkpt lat="49.47568" lon="-1.83">
        <ele>62.6</ele>
        <time>2023-05-18T11:44:23Z</time>
      </trkpt>
      <trkpt lat="49.47544" lon="-1.82997">
        <ele>61.5</ele>
        <time>2023-05-18T11:44:27Z</time>
      </trkpt>
      <trkpt lat="49.47523" lon="-1.82994">
        <ele>60.4</ele>
        <time>2023-05-18T11:44:30Z</time>
      </trkpt>
      <trkpt lat="49.47501" lon="-1.82992">
        <ele>59.1</ele>
        <time>2023-05-18T11:44:33Z</time>
      </trkpt>
      <trkpt lat="49.47476" lon="-1.82992">
        <ele>57.6</ele>
        <time>2023-05-18T11:44:36Z</time>
      </trkpt>
      <trkpt lat="49.47449" lon="-1.82996">
        <ele>55.9</ele>
        <time>2023-05-18T11:44:39Z</time>
      </trkpt>
      <trkpt lat="49.4743" lon="-1.83003">
        <ele>54.5</ele>
        <time>2023-05-18T11:44:41Z</time>
      </trkpt>
      <trkpt lat="49.47411" lon="-1.83015">
        <ele>52.7</ele>
        <time>2023-05-18T11:44:43Z</time>
      </trkpt>
      <trkpt lat="49.47393" lon="-1.8303">
        <ele>50.9</ele>
        <time>2023-05-18T11:44:45Z</time>
      </trkpt>
      <trkpt lat="49.47375" lon="-1.83044">
        <ele>48.8</ele>
        <time>2023-05-18T11:44:47Z</time>
      </trkpt>
      <trkpt lat="49.47357" lon="-1.83051">
        <ele>46.4</ele>
        <time>2023-05-18T11:44:49Z</time>
      </trkpt>
      <trkpt lat="49.47338" lon="-1.83046">
        <ele>43.8</ele>
        <time>2023-05-18T11:44:51Z</time>
      </trkpt>
      <trkpt lat="49.47319" lon="-1.83036">
        <ele>41.2</ele>
        <time>2023-05-18T11:44:53Z</time>
      </trkpt>
      <trkpt lat="49.47301" lon="-1.83026">
        <ele>38.5</ele>
        <time>2023-05-18T11:44:55Z</time>
      </trkpt>
      <trkpt lat="49.47276" lon="-1.83015">
        <ele>34.8</ele>
        <time>2023-05-18T11:44:58Z</time>
      </trkpt>
      <trkpt lat="49.47259" lon="-1.83032">
        <ele>31.3</ele>
        <time>2023-05-18T11:45:01Z</time>
      </trkpt>
      <trkpt lat="49.47256" lon="-1.83062">
        <ele>28.4</ele>
        <time>2023-05-18T11:45:03Z</time>
      </trkpt>
      <trkpt lat="49.47252" lon="-1.83092">
        <ele>25.4</ele>
        <time>2023-05-18T11:45:05Z</time>
      </trkpt>
      <trkpt lat="49.47247" lon="-1.83122">
        <ele>22.6</ele>
        <time>2023-05-18T11:45:07Z</time>
      </trkpt>
      <trkpt lat="49.47236" lon="-1.8315">
        <ele>19.8</ele>
        <time>2023-05-18T11:45:09Z</time>
      </trkpt>
      <trkpt lat="49.47219" lon="-1.83175">
        <ele>16.9</ele>
        <time>2023-05-18T11:45:11Z</time>
      </trkpt>
      <trkpt lat="49.47197" lon="-1.83191">
        <ele>14.3</ele>
        <time>2023-05-18T11:45:13Z</time>
      </trkpt>
      <trkpt lat="49.47171" lon="-1.83204">
        <ele>11.7</ele>
        <time>2023-05-18T11:45:15Z</time>
      </trkpt>
      <trkpt lat="49.47146" lon="-1.83219">
        <ele>9.7</ele>
        <time>2023-05-18T11:45:17Z</time>
      </trkpt>
      <trkpt lat="49.47119" lon="-1.8323">
        <ele>8.5</ele>
        <time>2023-05-18T11:45:19Z</time>
      </trkpt>
      <trkpt lat="49.47093" lon="-1.83229">
        <ele>7.9</ele>
        <time>2023-05-18T11:45:21Z</time>
      </trkpt>
      <trkpt lat="49.47075" lon="-1.8321">
        <ele>7.7</ele>
        <time>2023-05-18T11:45:23Z</time>
      </trkpt>
      <trkpt lat="49.47066" lon="-1.83183">
        <ele>7.6</ele>
        <time>2023-05-18T11:45:25Z</time>
      </trkpt>
      <trkpt lat="49.47056" lon="-1.83158">
        <ele>7.6</ele>
        <time>2023-05-18T11:45:27Z</time>
      </trkpt>
      <trkpt lat="49.47043" lon="-1.83137">
        <ele>7.5</ele>
        <time>2023-05-18T11:45:29Z</time>
      </trkpt>
      <trkpt lat="49.47026" lon="-1.83107">
        <ele>7.5</ele>
        <time>2023-05-18T11:45:32Z</time>
      </trkpt>
      <trkpt lat="49.4701" lon="-1.83077">
        <ele>7.6</ele>
        <time>2023-05-18T11:45:35Z</time>
      </trkpt>
      <trkpt lat="49.46994" lon="-1.83051">
        <ele>7.6</ele>
        <time>2023-05-18T11:45:38Z</time>
      </trkpt>
      <trkpt lat="49.46979" lon="-1.83027">
        <ele>7.4</ele>
        <time>2023-05-18T11:45:41Z</time>
      </trkpt>
      <trkpt lat="49.46963" lon="-1.83003">
        <ele>7</ele>
        <time>2023-05-18T11:45:44Z</time>
      </trkpt>
      <trkpt lat="49.46943" lon="-1.82981">
        <ele>6.6</ele>
        <time>2023-05-18T11:45:47Z</time>
      </trkpt>
      <trkpt lat="49.46923" lon="-1.82959">
        <ele>6.3</ele>
        <time>2023-05-18T11:45:50Z</time>
      </trkpt>
      <trkpt lat="49.46904" lon="-1.82941">
        <ele>6.3</ele>
        <time>2023-05-18T11:45:53Z</time>
      </trkpt>
      <trkpt lat="49.46885" lon="-1.82921">
        <ele>6.4</ele>
        <time>2023-05-18T11:45:56Z</time>
      </trkpt>
      <trkpt lat="49.4687" lon="-1.829">
        <ele>6.5</ele>
        <time>2023-05-18T11:45:59Z</time>
      </trkpt>
      <trkpt lat="49.46856" lon="-1.82878">
        <ele>6.7</ele>
        <time>2023-05-18T11:46:02Z</time>
      </trkpt>
      <trkpt lat="49.46843" lon="-1.82858">
        <ele>6.9</ele>
        <time>2023-05-18T11:46:05Z</time>
      </trkpt>
      <trkpt lat="49.46829" lon="-1.82833">
        <ele>7.2</ele>
        <time>2023-05-18T11:46:09Z</time>
      </trkpt>
      <trkpt lat="49.46815" lon="-1.8281">
        <ele>7.4</ele>
        <time>2023-05-18T11:46:13Z</time>
      </trkpt>
      <trkpt lat="49.46801" lon="-1.82784">
        <ele>7.7</ele>
        <time>2023-05-18T11:46:17Z</time>
      </trkpt>
      <trkpt lat="49.46787" lon="-1.8276">
        <ele>7.8</ele>
        <time>2023-05-18T11:46:21Z</time>
      </trkpt>
      <trkpt lat="49.46772" lon="-1.82733">
        <ele>7.8</ele>
        <time>2023-05-18T11:46:25Z</time>
      </trkpt>
      <trkpt lat="49.46756" lon="-1.82706">
        <ele>7.8</ele>
        <time>2023-05-18T11:46:29Z</time>
      </trkpt>
      <trkpt lat="49.46742" lon="-1.82677">
        <ele>7.5</ele>
        <time>2023-05-18T11:46:33Z</time>
      </trkpt>
      <trkpt lat="49.46732" lon="-1.82654">
        <ele>7.2</ele>
        <time>2023-05-18T11:46:36Z</time>
      </trkpt>
      <trkpt lat="49.46721" lon="-1.8263">
        <ele>6.8</ele>
        <time>2023-05-18T11:46:39Z</time>
      </trkpt>
      <trkpt lat="49.46708" lon="-1.82606">
        <ele>6.5</ele>
        <time>2023-05-18T11:46:42Z</time>
      </trkpt>
      <trkpt lat="49.46695" lon="-1.82582">
        <ele>6.1</ele>
        <time>2023-05-18T11:46:45Z</time>
      </trkpt>
      <trkpt lat="49.46681" lon="-1.82556">
        <ele>5.8</ele>
        <time>2023-05-18T11:46:48Z</time>
      </trkpt>
      <trkpt lat="49.46669" lon="-1.82532">
        <ele>5.7</ele>
        <time>2023-05-18T11:46:51Z</time>
      </trkpt>
      <trkpt lat="49.46656" lon="-1.82507">
        <ele>5.8</ele>
        <time>2023-05-18T11:46:54Z</time>
      </trkpt>
      <trkpt lat="49.46645" lon="-1.82484">
        <ele>6</ele>
        <time>2023-05-18T11:46:57Z</time>
      </trkpt>
      <trkpt lat="49.46633" lon="-1.82463">
        <ele>6.2</ele>
        <time>2023-05-18T11:47:00Z</time>
      </trkpt>
      <trkpt lat="49.46621" lon="-1.82441">
        <ele>6.5</ele>
        <time>2023-05-18T11:47:03Z</time>
      </trkpt>
      <trkpt lat="49.46607" lon="-1.82414">
        <ele>6.8</ele>
        <time>2023-05-18T11:47:07Z</time>
      </trkpt>
      <trkpt lat="49.46592" lon="-1.82386">
        <ele>7.2</ele>
        <time>2023-05-18T11:47:11Z</time>
      </trkpt>
      <trkpt lat="49.46579" lon="-1.8236">
        <ele>7.6</ele>
        <time>2023-05-18T11:47:15Z</time>
      </trkpt>
      <trkpt lat="49.46566" lon="-1.82335">
        <ele>8.1</ele>
        <time>2023-05-18T11:47:19Z</time>
      </trkpt>
      <trkpt lat="49.46554" lon="-1.8231">
        <ele>8.6</ele>
        <time>2023-05-18T11:47:23Z</time>
      </trkpt>
      <trkpt lat="49.46542" lon="-1.82285">
        <ele>9.1</ele>
        <time>2023-05-18T11:47:27Z</time>
      </trkpt>
      <trkpt lat="49.4653" lon="-1.82261">
        <ele>9.5</ele>
        <time>2023-05-18T11:47:31Z</time>
      </trkpt>
      <trkpt lat="49.46516" lon="-1.82238">
        <ele>10</ele>
        <time>2023-05-18T11:47:35Z</time>
      </trkpt>
      <trkpt lat="49.46503" lon="-1.82217">
        <ele>10.2</ele>
        <time>2023-05-18T11:47:39Z</time>
      </trkpt>
      <trkpt lat="49.46488" lon="-1.82199">
        <ele>10.4</ele>
        <time>2023-05-18T11:47:43Z</time>
      </trkpt>
      <trkpt lat="49.46469" lon="-1.8218">
        <ele>10.5</ele>
        <time>2023-05-18T11:47:47Z</time>
      </trkpt>
      <trkpt lat="49.46451" lon="-1.82165">
        <ele>10.6</ele>
        <time>2023-05-18T11:47:51Z</time>
      </trkpt>
      <trkpt lat="49.46433" lon="-1.82149">
        <ele>10.7</ele>
        <time>2023-05-18T11:47:55Z</time>
      </trkpt>
      <trkpt lat="49.46414" lon="-1.82135">
        <ele>10.8</ele>
        <time>2023-05-18T11:47:59Z</time>
      </trkpt>
      <trkpt lat="49.46394" lon="-1.82123">
        <ele>10.7</ele>
        <time>2023-05-18T11:48:03Z</time>
      </trkpt>
      <trkpt lat="49.46372" lon="-1.82111">
        <ele>10.5</ele>
        <time>2023-05-18T11:48:07Z</time>
      </trkpt>
      <trkpt lat="49.46355" lon="-1.82099">
        <ele>10.2</ele>
        <time>2023-05-18T11:48:10Z</time>
      </trkpt>
      <trkpt lat="49.4634" lon="-1.82082">
        <ele>9.9</ele>
        <time>2023-05-18T11:48:13Z</time>
      </trkpt>
      <trkpt lat="49.46326" lon="-1.82062">
        <ele>9.5</ele>
        <time>2023-05-18T11:48:16Z</time>
      </trkpt>
      <trkpt lat="49.4631" lon="-1.82044">
        <ele>9</ele>
        <time>2023-05-18T11:48:19Z</time>
      </trkpt>
      <trkpt lat="49.46297" lon="-1.82024">
        <ele>8.6</ele>
        <time>2023-05-18T11:48:22Z</time>
      </trkpt>
      <trkpt lat="49.46283" lon="-1.82005">
        <ele>8.2</ele>
        <time>2023-05-18T11:48:25Z</time>
      </trkpt>
      <trkpt lat="49.46266" lon="-1.81988">
        <ele>7.7</ele>
        <time>2023-05-18T11:48:28Z</time>
      </trkpt>
      <trkpt lat="49.46248" lon="-1.81972">
        <ele>7.2</ele>
        <time>2023-05-18T11:48:31Z</time>
      </trkpt>
      <trkpt lat="49.46231" lon="-1.81956">
        <ele>7</ele>
        <time>2023-05-18T11:48:34Z</time>
      </trkpt>
      <trkpt lat="49.46215" lon="-1.81942">
        <ele>6.8</ele>
        <time>2023-05-18T11:48:37Z</time>
      </trkpt>
      <trkpt lat="49.46199" lon="-1.81927">
        <ele>7</ele>
        <time>2023-05-18T11:48:40Z</time>
      </trkpt>
      <trkpt lat="49.46182" lon="-1.81913">
        <ele>7.1</ele>
        <time>2023-05-18T11:48:44Z</time>
      </trkpt>
      <trkpt lat="49.46174" lon="-1.81887">
        <ele>7</ele>
        <time>2023-05-18T11:48:48Z</time>
      </trkpt>
      <trkpt lat="49.46168" lon="-1.81857">
        <ele>6.9</ele>
        <time>2023-05-18T11:48:52Z</time>
      </trkpt>
      <trkpt lat="49.46164" lon="-1.81829">
        <ele>6.8</ele>
        <time>2023-05-18T11:48:56Z</time>
      </trkpt>
      <trkpt lat="49.46159" lon="-1.81801">
        <ele>6.9</ele>
        <time>2023-05-18T11:49:00Z</time>
      </trkpt>
      <trkpt lat="49.46153" lon="-1.81772">
        <ele>7.1</ele>
        <time>2023-05-18T11:49:04Z</time>
      </trkpt>
      <trkpt lat="49.46148" lon="-1.81746">
        <ele>7.3</ele>
        <time>2023-05-18T11:49:08Z</time>
      </trkpt>
      <trkpt lat="49.46142" lon="-1.81714">
        <ele>7.6</ele>
        <time>2023-05-18T11:49:13Z</time>
      </trkpt>
      <trkpt lat="49.46137" lon="-1.81687">
        <ele>7.8</ele>
        <time>2023-05-18T11:49:17Z</time>
      </trkpt>
      <trkpt lat="49.4613" lon="-1.81656">
        <ele>8.1</ele>
        <time>2023-05-18T11:49:22Z</time>
      </trkpt>
      <trkpt lat="49.46126" lon="-1.81624">
        <ele>8.4</ele>
        <time>2023-05-18T11:49:27Z</time>
      </trkpt>
      <trkpt lat="49.4612" lon="-1.81594">
        <ele>8.9</ele>
        <time>2023-05-18T11:49:32Z</time>
      </trkpt>
      <trkpt lat="49.46115" lon="-1.81565">
        <ele>9.4</ele>
        <time>2023-05-18T11:49:37Z</time>
      </trkpt>
      <trkpt lat="49.46109" lon="-1.81533">
        <ele>10.1</ele>
        <time>2023-05-18T11:49:43Z</time>
      </trkpt>
      <trkpt lat="49.46104" lon="-1.81501">
        <ele>10.8</ele>
        <time>2023-05-18T11:49:49Z</time>
      </trkpt>
      <trkpt lat="49.461" lon="-1.81469">
        <ele>11.7</ele>
        <time>2023-05-18T11:49:55Z</time>
      </trkpt>
      <trkpt lat="49.46094" lon="-1.8144">
        <ele>12.7</ele>
        <time>2023-05-18T11:50:01Z</time>
      </trkpt>
      <trkpt lat="49.46082" lon="-1.81415">
        <ele>13.7</ele>
        <time>2023-05-18T11:50:08Z</time>
      </trkpt>
      <trkpt lat="49.46068" lon="-1.81392">
        <ele>14.6</ele>
        <time>2023-05-18T11:50:14Z</time>
      </trkpt>
      <trkpt lat="49.46052" lon="-1.81371">
        <ele>14.9</ele>
        <time>2023-05-18T11:50:20Z</time>
      </trkpt>
      <trkpt lat="49.46038" lon="-1.81352">
        <ele>14.4</ele>
        <time>2023-05-18T11:50:25Z</time>
      </trkpt>
      <trkpt lat="49.46023" lon="-1.81331">
        <ele>13.4</ele>
        <time>2023-05-18T11:50:29Z</time>
      </trkpt>
      <trkpt lat="49.46002" lon="-1.81312">
        <ele>12.1</ele>
        <time>2023-05-18T11:50:33Z</time>
      </trkpt>
      <trkpt lat="49.45982" lon="-1.813">
        <ele>10.7</ele>
        <time>2023-05-18T11:50:36Z</time>
      </trkpt>
      <trkpt lat="49.45957" lon="-1.813">
        <ele>9.8</ele>
        <time>2023-05-18T11:50:39Z</time>
      </trkpt>
      <trkpt lat="49.45934" lon="-1.81305">
        <ele>9.4</ele>
        <time>2023-05-18T11:50:42Z</time>
      </trkpt>
      <trkpt lat="49.45913" lon="-1.81305">
        <ele>9.3</ele>
        <time>2023-05-18T11:50:45Z</time>
      </trkpt>
      <trkpt lat="49.45892" lon="-1.813">
        <ele>9.4</ele>
        <time>2023-05-18T11:50:48Z</time>
      </trkpt>
      <trkpt lat="49.45873" lon="-1.81299">
        <ele>9.4</ele>
        <time>2023-05-18T11:50:51Z</time>
      </trkpt>
      <trkpt lat="49.45853" lon="-1.81298">
        <ele>9.4</ele>
        <time>2023-05-18T11:50:54Z</time>
      </trkpt>
      <trkpt lat="49.45836" lon="-1.81287">
        <ele>9.4</ele>
        <time>2023-05-18T11:50:57Z</time>
      </trkpt>
      <trkpt lat="49.45819" lon="-1.81277">
        <ele>9.4</ele>
        <time>2023-05-18T11:51:00Z</time>
      </trkpt>
      <trkpt lat="49.45802" lon="-1.81266">
        <ele>9.3</ele>
        <time>2023-05-18T11:51:03Z</time>
      </trkpt>
      <trkpt lat="49.45783" lon="-1.81255">
        <ele>8.9</ele>
        <time>2023-05-18T11:51:06Z</time>
      </trkpt>
      <trkpt lat="49.45765" lon="-1.81245">
        <ele>8.6</ele>
        <time>2023-05-18T11:51:09Z</time>
      </trkpt>
      <trkpt lat="49.45747" lon="-1.81235">
        <ele>8.5</ele>
        <time>2023-05-18T11:51:12Z</time>
      </trkpt>
      <trkpt lat="49.45728" lon="-1.81229">
        <ele>8.4</ele>
        <time>2023-05-18T11:51:15Z</time>
      </trkpt>
      <trkpt lat="49.45709" lon="-1.81227">
        <ele>8.4</ele>
        <time>2023-05-18T11:51:18Z</time>
      </trkpt>
      <trkpt lat="49.45691" lon="-1.81226">
        <ele>8.5</ele>
        <time>2023-05-18T11:51:21Z</time>
      </trkpt>
      <trkpt lat="49.45669" lon="-1.81225">
        <ele>8.6</ele>
        <time>2023-05-18T11:51:25Z</time>
      </trkpt>
      <trkpt lat="49.45647" lon="-1.81224">
        <ele>8.8</ele>
        <time>2023-05-18T11:51:29Z</time>
      </trkpt>
      <trkpt lat="49.45623" lon="-1.81221">
        <ele>9</ele>
        <time>2023-05-18T11:51:33Z</time>
      </trkpt>
      <trkpt lat="49.45603" lon="-1.81217">
        <ele>9.4</ele>
        <time>2023-05-18T11:51:37Z</time>
      </trkpt>
      <trkpt lat="49.45583" lon="-1.81208">
        <ele>9.7</ele>
        <time>2023-05-18T11:51:41Z</time>
      </trkpt>
      <trkpt lat="49.45565" lon="-1.81198">
        <ele>10.2</ele>
        <time>2023-05-18T11:51:45Z</time>
      </trkpt>
      <trkpt lat="49.45549" lon="-1.81186">
        <ele>10.7</ele>
        <time>2023-05-18T11:51:49Z</time>
      </trkpt>
      <trkpt lat="49.45531" lon="-1.81169">
        <ele>11.2</ele>
        <time>2023-05-18T11:51:54Z</time>
      </trkpt>
      <trkpt lat="49.45512" lon="-1.8115">
        <ele>11.6</ele>
        <time>2023-05-18T11:51:59Z</time>
      </trkpt>
      <trkpt lat="49.45494" lon="-1.81131">
        <ele>11.9</ele>
        <time>2023-05-18T11:52:04Z</time>
      </trkpt>
      <trkpt lat="49.45475" lon="-1.81113">
        <ele>12.1</ele>
        <time>2023-05-18T11:52:09Z</time>
      </trkpt>
      <trkpt lat="49.45457" lon="-1.81096">
        <ele>12.3</ele>
        <time>2023-05-18T11:52:14Z</time>
      </trkpt>
      <trkpt lat="49.45438" lon="-1.81077">
        <ele>12.5</ele>
        <time>2023-05-18T11:52:19Z</time>
      </trkpt>
      <trkpt lat="49.45421" lon="-1.81061">
        <ele>12.5</ele>
        <time>2023-05-18T11:52:23Z</time>
      </trkpt>
      <trkpt lat="49.45404" lon="-1.81044">
        <ele>12.4</ele>
        <time>2023-05-18T11:52:27Z</time>
      </trkpt>
      <trkpt lat="49.45384" lon="-1.8103">
        <ele>12.1</ele>
        <time>2023-05-18T11:52:31Z</time>
      </trkpt>
      <trkpt lat="49.45363" lon="-1.81019">
        <ele>11.7</ele>
        <time>2023-05-18T11:52:35Z</time>
      </trkpt>
      <trkpt lat="49.4534" lon="-1.81022">
        <ele>11.4</ele>
        <time>2023-05-18T11:52:39Z</time>
      </trkpt>
      <trkpt lat="49.45322" lon="-1.81028">
        <ele>11.1</ele>
        <time>2023-05-18T11:52:42Z</time>
      </trkpt>
      <trkpt lat="49.45299" lon="-1.81033">
        <ele>10.9</ele>
        <time>2023-05-18T11:52:46Z</time>
      </trkpt>
      <trkpt lat="49.45286" lon="-1.81008">
        <ele>10.8</ele>
        <time>2023-05-18T11:52:52Z</time>
      </trkpt>
      <trkpt lat="49.45272" lon="-1.80987">
        <ele>10.9</ele>
        <time>2023-05-18T11:52:57Z</time>
      </trkpt>
      <trkpt lat="49.45253" lon="-1.80974">
        <ele>11.2</ele>
        <time>2023-05-18T11:53:02Z</time>
      </trkpt>
      <trkpt lat="49.45237" lon="-1.80963">
        <ele>11.5</ele>
        <time>2023-05-18T11:53:06Z</time>
      </trkpt>
      <trkpt lat="49.45224" lon="-1.80942">
        <ele>11.8</ele>
        <time>2023-05-18T11:53:10Z</time>
      </trkpt>
      <trkpt lat="49.45218" lon="-1.80915">
        <ele>12.2</ele>
        <time>2023-05-18T11:53:14Z</time>
      </trkpt>
      <trkpt lat="49.452" lon="-1.80897">
        <ele>12.6</ele>
        <time>2023-05-18T11:53:19Z</time>
      </trkpt>
      <trkpt lat="49.4518" lon="-1.80889">
        <ele>12.5</ele>
        <time>2023-05-18T11:53:24Z</time>
      </trkpt>
      <trkpt lat="49.45158" lon="-1.80877">
        <ele>12.1</ele>
        <time>2023-05-18T11:53:28Z</time>
      </trkpt>
      <trkpt lat="49.4514" lon="-1.80868">
        <ele>11.8</ele>
        <time>2023-05-18T11:53:31Z</time>
      </trkpt>
      <trkpt lat="49.45123" lon="-1.80859">
        <ele>11.6</ele>
        <time>2023-05-18T11:53:34Z</time>
      </trkpt>
      <trkpt lat="49.45101" lon="-1.80846">
        <ele>11.3</ele>
        <time>2023-05-18T11:53:38Z</time>
      </trkpt>
      <trkpt lat="49.45084" lon="-1.80836">
        <ele>11.2</ele>
        <time>2023-05-18T11:53:41Z</time>
      </trkpt>
      <trkpt lat="49.45062" lon="-1.80824">
        <ele>11.2</ele>
        <time>2023-05-18T11:53:45Z</time>
      </trkpt>
      <trkpt lat="49.45041" lon="-1.80811">
        <ele>11.2</ele>
        <time>2023-05-18T11:53:49Z</time>
      </trkpt>
      <trkpt lat="49.45025" lon="-1.80797">
        <ele>11.1</ele>
        <time>2023-05-18T11:53:52Z</time>
      </trkpt>
      <trkpt lat="49.45005" lon="-1.80779">
        <ele>11</ele>
        <time>2023-05-18T11:53:56Z</time>
      </trkpt>
      <trkpt lat="49.44985" lon="-1.8076">
        <ele>10.8</ele>
        <time>2023-05-18T11:54:00Z</time>
      </trkpt>
      <trkpt lat="49.44968" lon="-1.80744">
        <ele>10.6</ele>
        <time>2023-05-18T11:54:03Z</time>
      </trkpt>
      <trkpt lat="49.44951" lon="-1.80728">
        <ele>10.4</ele>
        <time>2023-05-18T11:54:06Z</time>
      </trkpt>
      <trkpt lat="49.44935" lon="-1.8071">
        <ele>10.3</ele>
        <time>2023-05-18T11:54:09Z</time>
      </trkpt>
      <trkpt lat="49.44917" lon="-1.80701">
        <ele>10.1</ele>
        <time>2023-05-18T11:54:12Z</time>
      </trkpt>
      <trkpt lat="49.44898" lon="-1.80702">
        <ele>10</ele>
        <time>2023-05-18T11:54:15Z</time>
      </trkpt>
      <trkpt lat="49.44878" lon="-1.80697">
        <ele>9.8</ele>
        <time>2023-05-18T11:54:18Z</time>
      </trkpt>
      <trkpt lat="49.44862" lon="-1.80678">
        <ele>10</ele>
        <time>2023-05-18T11:54:21Z</time>
      </trkpt>
      <trkpt lat="49.44853" lon="-1.80652">
        <ele>10.3</ele>
        <time>2023-05-18T11:54:24Z</time>
      </trkpt>
      <trkpt lat="49.44838" lon="-1.80629">
        <ele>10.5</ele>
        <time>2023-05-18T11:54:28Z</time>
      </trkpt>
      <trkpt lat="49.44818" lon="-1.80616">
        <ele>10.7</ele>
        <time>2023-05-18T11:54:32Z</time>
      </trkpt>
      <trkpt lat="49.44799" lon="-1.80608">
        <ele>10.8</ele>
        <time>2023-05-18T11:54:36Z</time>
      </trkpt>
      <trkpt lat="49.4478" lon="-1.80598">
        <ele>10.9</ele>
        <time>2023-05-18T11:54:40Z</time>
      </trkpt>
      <trkpt lat="49.4476" lon="-1.8059">
        <ele>10.8</ele>
        <time>2023-05-18T11:54:44Z</time>
      </trkpt>
      <trkpt lat="49.4474" lon="-1.80581">
        <ele>10.9</ele>
        <time>2023-05-18T11:54:48Z</time>
      </trkpt>
      <trkpt lat="49.44719" lon="-1.80569">
        <ele>11</ele>
        <time>2023-05-18T11:54:52Z</time>
      </trkpt>
      <trkpt lat="49.44699" lon="-1.80558">
        <ele>11.1</ele>
        <time>2023-05-18T11:54:56Z</time>
      </trkpt>
      <trkpt lat="49.4468" lon="-1.80549">
        <ele>11</ele>
        <time>2023-05-18T11:55:00Z</time>
      </trkpt>
      <trkpt lat="49.44658" lon="-1.80542">
        <ele>10.6</ele>
        <time>2023-05-18T11:55:04Z</time>
      </trkpt>
      <trkpt lat="49.44634" lon="-1.80534">
        <ele>10.3</ele>
        <time>2023-05-18T11:55:08Z</time>
      </trkpt>
      <trkpt lat="49.44614" lon="-1.80528">
        <ele>10.1</ele>
        <time>2023-05-18T11:55:11Z</time>
      </trkpt>
      <trkpt lat="49.44596" lon="-1.80522">
        <ele>9.9</ele>
        <time>2023-05-18T11:55:14Z</time>
      </trkpt>
      <trkpt lat="49.44576" lon="-1.80515">
        <ele>10</ele>
        <time>2023-05-18T11:55:17Z</time>
      </trkpt>
      <trkpt lat="49.44557" lon="-1.80509">
        <ele>10.1</ele>
        <time>2023-05-18T11:55:20Z</time>
      </trkpt>
      <trkpt lat="49.44537" lon="-1.80504">
        <ele>10</ele>
        <time>2023-05-18T11:55:23Z</time>
      </trkpt>
      <trkpt lat="49.44519" lon="-1.805">
        <ele>9.9</ele>
        <time>2023-05-18T11:55:26Z</time>
      </trkpt>
      <trkpt lat="49.44495" lon="-1.80498">
        <ele>9.9</ele>
        <time>2023-05-18T11:55:30Z</time>
      </trkpt>
      <trkpt lat="49.44472" lon="-1.80492">
        <ele>10</ele>
        <time>2023-05-18T11:55:34Z</time>
      </trkpt>
      <trkpt lat="49.44449" lon="-1.80481">
        <ele>10.1</ele>
        <time>2023-05-18T11:55:38Z</time>
      </trkpt>
      <trkpt lat="49.44427" lon="-1.80472">
        <ele>10.2</ele>
        <time>2023-05-18T11:55:42Z</time>
      </trkpt>
      <trkpt lat="49.44404" lon="-1.80465">
        <ele>10.3</ele>
        <time>2023-05-18T11:55:46Z</time>
      </trkpt>
      <trkpt lat="49.44381" lon="-1.80464">
        <ele>10.5</ele>
        <time>2023-05-18T11:55:50Z</time>
      </trkpt>
      <trkpt lat="49.4436" lon="-1.80457">
        <ele>10.7</ele>
        <time>2023-05-18T11:55:54Z</time>
      </trkpt>
      <trkpt lat="49.4434" lon="-1.80447">
        <ele>10.8</ele>
        <time>2023-05-18T11:55:58Z</time>
      </trkpt>
      <trkpt lat="49.44321" lon="-1.80434">
        <ele>11.1</ele>
        <time>2023-05-18T11:56:02Z</time>
      </trkpt>
      <trkpt lat="49.44304" lon="-1.80426">
        <ele>11.7</ele>
        <time>2023-05-18T11:56:06Z</time>
      </trkpt>
      <trkpt lat="49.44291" lon="-1.8045">
        <ele>11.5</ele>
        <time>2023-05-18T11:56:11Z</time>
      </trkpt>
      <trkpt lat="49.44286" lon="-1.8048">
        <ele>11.5</ele>
        <time>2023-05-18T11:56:15Z</time>
      </trkpt>
      <trkpt lat="49.4428" lon="-1.80509">
        <ele>11.6</ele>
        <time>2023-05-18T11:56:19Z</time>
      </trkpt>
      <trkpt lat="49.44266" lon="-1.80535">
        <ele>11.9</ele>
        <time>2023-05-18T11:56:23Z</time>
      </trkpt>
      <trkpt lat="49.44245" lon="-1.80542">
        <ele>11.9</ele>
        <time>2023-05-18T11:56:27Z</time>
      </trkpt>
      <trkpt lat="49.44223" lon="-1.80548">
        <ele>12</ele>
        <time>2023-05-18T11:56:31Z</time>
      </trkpt>
      <trkpt lat="49.44202" lon="-1.80556">
        <ele>12.2</ele>
        <time>2023-05-18T11:56:35Z</time>
      </trkpt>
      <trkpt lat="49.44181" lon="-1.80561">
        <ele>12.5</ele>
        <time>2023-05-18T11:56:39Z</time>
      </trkpt>
      <trkpt lat="49.44161" lon="-1.80569">
        <ele>12.6</ele>
        <time>2023-05-18T11:56:43Z</time>
      </trkpt>
      <trkpt lat="49.44142" lon="-1.80575">
        <ele>12.6</ele>
        <time>2023-05-18T11:56:47Z</time>
      </trkpt>
      <trkpt lat="49.4412" lon="-1.80582">
        <ele>12.5</ele>
        <time>2023-05-18T11:56:51Z</time>
      </trkpt>
      <trkpt lat="49.44098" lon="-1.8059">
        <ele>12.5</ele>
        <time>2023-05-18T11:56:55Z</time>
      </trkpt>
      <trkpt lat="49.44076" lon="-1.80597">
        <ele>12.5</ele>
        <time>2023-05-18T11:56:59Z</time>
      </trkpt>
      <trkpt lat="49.44055" lon="-1.806">
        <ele>12.8</ele>
        <time>2023-05-18T11:57:03Z</time>
      </trkpt>
      <trkpt lat="49.44033" lon="-1.80598">
        <ele>13.1</ele>
        <time>2023-05-18T11:57:07Z</time>
      </trkpt>
      <trkpt lat="49.44012" lon="-1.80595">
        <ele>12.6</ele>
        <time>2023-05-18T11:57:11Z</time>
      </trkpt>
      <trkpt lat="49.43988" lon="-1.80592">
        <ele>12.3</ele>
        <time>2023-05-18T11:57:15Z</time>
      </trkpt>
      <trkpt lat="49.43966" lon="-1.8059">
        <ele>12.2</ele>
        <time>2023-05-18T11:57:19Z</time>
      </trkpt>
      <trkpt lat="49.43944" lon="-1.80586">
        <ele>12.1</ele>
        <time>2023-05-18T11:57:23Z</time>
      </trkpt>
      <trkpt lat="49.43921" lon="-1.80583">
        <ele>12.1</ele>
        <time>2023-05-18T11:57:27Z</time>
      </trkpt>
      <trkpt lat="49.43899" lon="-1.8058">
        <ele>12.1</ele>
        <time>2023-05-18T11:57:31Z</time>
      </trkpt>
      <trkpt lat="49.43877" lon="-1.80575">
        <ele>12.1</ele>
        <time>2023-05-18T11:57:35Z</time>
      </trkpt>
      <trkpt lat="49.43853" lon="-1.80571">
        <ele>12.2</ele>
        <time>2023-05-18T11:57:39Z</time>
      </trkpt>
      <trkpt lat="49.43831" lon="-1.80567">
        <ele>12.3</ele>
        <time>2023-05-18T11:57:43Z</time>
      </trkpt>
      <trkpt lat="49.4381" lon="-1.80564">
        <ele>12.4</ele>
        <time>2023-05-18T11:57:47Z</time>
      </trkpt>
      <trkpt lat="49.43788" lon="-1.80559">
        <ele>12.5</ele>
        <time>2023-05-18T11:57:51Z</time>
      </trkpt>
      <trkpt lat="49.43766" lon="-1.80555">
        <ele>12.8</ele>
        <time>2023-05-18T11:57:55Z</time>
      </trkpt>
      <trkpt lat="49.43745" lon="-1.80552">
        <ele>13</ele>
        <time>2023-05-18T11:57:59Z</time>
      </trkpt>
      <trkpt lat="49.43725" lon="-1.80548">
        <ele>13.2</ele>
        <time>2023-05-18T11:58:03Z</time>
      </trkpt>
      <trkpt lat="49.43704" lon="-1.80544">
        <ele>13.3</ele>
        <time>2023-05-18T11:58:07Z</time>
      </trkpt>
      <trkpt lat="49.43683" lon="-1.8054">
        <ele>13.6</ele>
        <time>2023-05-18T11:58:11Z</time>
      </trkpt>
      <trkpt lat="49.43663" lon="-1.80537">
        <ele>13.9</ele>
        <time>2023-05-18T11:58:15Z</time>
      </trkpt>
      <trkpt lat="49.43642" lon="-1.80534">
        <ele>14.2</ele>
        <time>2023-05-18T11:58:19Z</time>
      </trkpt>
      <trkpt lat="49.43621" lon="-1.8053">
        <ele>14.5</ele>
        <time>2023-05-18T11:58:23Z</time>
      </trkpt>
      <trkpt lat="49.436" lon="-1.80528">
        <ele>14.7</ele>
        <time>2023-05-18T11:58:27Z</time>
      </trkpt>
      <trkpt lat="49.43579" lon="-1.80524">
        <ele>15</ele>
        <time>2023-05-18T11:58:31Z</time>
      </trkpt>
      <trkpt lat="49.43556" lon="-1.8052">
        <ele>15.3</ele>
        <time>2023-05-18T11:58:35Z</time>
      </trkpt>
      <trkpt lat="49.43535" lon="-1.8051">
        <ele>15.6</ele>
        <time>2023-05-18T11:58:39Z</time>
      </trkpt>
      <trkpt lat="49.43532" lon="-1.80478">
        <ele>15.7</ele>
        <time>2023-05-18T11:58:43Z</time>
      </trkpt>
      <trkpt lat="49.43535" lon="-1.80447">
        <ele>15.8</ele>
        <time>2023-05-18T11:58:47Z</time>
      </trkpt>
      <trkpt lat="49.43516" lon="-1.80433">
        <ele>15.4</ele>
        <time>2023-05-18T11:58:52Z</time>
      </trkpt>
      <trkpt lat="49.43494" lon="-1.80438">
        <ele>15</ele>
        <time>2023-05-18T11:58:56Z</time>
      </trkpt>
      <trkpt lat="49.43471" lon="-1.8044">
        <ele>14.7</ele>
        <time>2023-05-18T11:59:00Z</time>
      </trkpt>
      <trkpt lat="49.43448" lon="-1.80442">
        <ele>14.5</ele>
        <time>2023-05-18T11:59:04Z</time>
      </trkpt>
      <trkpt lat="49.43424" lon="-1.80445">
        <ele>14.4</ele>
        <time>2023-05-18T11:59:08Z</time>
      </trkpt>
      <trkpt lat="49.43406" lon="-1.80447">
        <ele>14.3</ele>
        <time>2023-05-18T11:59:11Z</time>
      </trkpt>
      <trkpt lat="49.43389" lon="-1.8045">
        <ele>14.3</ele>
        <time>2023-05-18T11:59:14Z</time>
      </trkpt>
      <trkpt lat="49.43369" lon="-1.80452">
        <ele>14.4</ele>
        <time>2023-05-18T11:59:17Z</time>
      </trkpt>
      <trkpt lat="49.4335" lon="-1.80455">
        <ele>14.4</ele>
        <time>2023-05-18T11:59:20Z</time>
      </trkpt>
      <trkpt lat="49.43326" lon="-1.80459">
        <ele>14.5</ele>
        <time>2023-05-18T11:59:24Z</time>
      </trkpt>
      <trkpt lat="49.43308" lon="-1.80463">
        <ele>14.6</ele>
        <time>2023-05-18T11:59:27Z</time>
      </trkpt>
      <trkpt lat="49.43285" lon="-1.80467">
        <ele>14.8</ele>
        <time>2023-05-18T11:59:31Z</time>
      </trkpt>
      <trkpt lat="49.43267" lon="-1.80471">
        <ele>14.8</ele>
        <time>2023-05-18T11:59:34Z</time>
      </trkpt>
      <trkpt lat="49.43249" lon="-1.80473">
        <ele>14.9</ele>
        <time>2023-05-18T11:59:37Z</time>
      </trkpt>
      <trkpt lat="49.4323" lon="-1.80473">
        <ele>15.1</ele>
        <time>2023-05-18T11:59:40Z</time>
      </trkpt>
      <trkpt lat="49.43212" lon="-1.80473">
        <ele>15.2</ele>
        <time>2023-05-18T11:59:43Z</time>
      </trkpt>
      <trkpt lat="49.43188" lon="-1.80472">
        <ele>15.6</ele>
        <time>2023-05-18T11:59:47Z</time>
      </trkpt>
      <trkpt lat="49.43167" lon="-1.80471">
        <ele>16</ele>
        <time>2023-05-18T11:59:51Z</time>
      </trkpt>
      <trkpt lat="49.43146" lon="-1.8047">
        <ele>16.6</ele>
        <time>2023-05-18T11:59:55Z</time>
      </trkpt>
      <trkpt lat="49.43127" lon="-1.80471">
        <ele>17.5</ele>
        <time>2023-05-18T11:59:59Z</time>
      </trkpt>
      <trkpt lat="49.43107" lon="-1.8047">
        <ele>18.7</ele>
        <time>2023-05-18T12:00:04Z</time>
      </trkpt>
      <trkpt lat="49.43087" lon="-1.8047">
        <ele>20.3</ele>
        <time>2023-05-18T12:00:10Z</time>
      </trkpt>
      <trkpt lat="49.43068" lon="-1.80469">
        <ele>21.9</ele>
        <time>2023-05-18T12:00:17Z</time>
      </trkpt>
      <trkpt lat="49.43048" lon="-1.80469">
        <ele>23.5</ele>
        <time>2023-05-18T12:00:24Z</time>
      </trkpt>
      <trkpt lat="49.43028" lon="-1.8047">
        <ele>25</ele>
        <time>2023-05-18T12:00:31Z</time>
      </trkpt>
      <trkpt lat="49.43009" lon="-1.80468">
        <ele>26.3</ele>
        <time>2023-05-18T12:00:37Z</time>
      </trkpt>
      <trkpt lat="49.42989" lon="-1.80468">
        <ele>27.8</ele>
        <time>2023-05-18T12:00:44Z</time>
      </trkpt>
      <trkpt lat="49.42975" lon="-1.80448">
        <ele>29.3</ele>
        <time>2023-05-18T12:00:51Z</time>
      </trkpt>
      <trkpt lat="49.42972" lon="-1.80418">
        <ele>30.3</ele>
        <time>2023-05-18T12:00:58Z</time>
      </trkpt>
      <trkpt lat="49.42972" lon="-1.80388">
        <ele>31.3</ele>
        <time>2023-05-18T12:01:05Z</time>
      </trkpt>
      <trkpt lat="49.4297" lon="-1.80361">
        <ele>32</ele>
        <time>2023-05-18T12:01:11Z</time>
      </trkpt>
      <trkpt lat="49.42961" lon="-1.80332">
        <ele>32.5</ele>
        <time>2023-05-18T12:01:16Z</time>
      </trkpt>
      <trkpt lat="49.4295" lon="-1.80306">
        <ele>33</ele>
        <time>2023-05-18T12:01:21Z</time>
      </trkpt>
      <trkpt lat="49.42938" lon="-1.80282">
        <ele>33.5</ele>
        <time>2023-05-18T12:01:26Z</time>
      </trkpt>
      <trkpt lat="49.42927" lon="-1.80258">
        <ele>34.1</ele>
        <time>2023-05-18T12:01:31Z</time>
      </trkpt>
      <trkpt lat="49.42915" lon="-1.80237">
        <ele>34.6</ele>
        <time>2023-05-18T12:01:36Z</time>
      </trkpt>
      <trkpt lat="49.42905" lon="-1.80214">
        <ele>35.2</ele>
        <time>2023-05-18T12:01:41Z</time>
      </trkpt>
      <trkpt lat="49.42893" lon="-1.8019">
        <ele>36</ele>
        <time>2023-05-18T12:01:47Z</time>
      </trkpt>
      <trkpt lat="49.42882" lon="-1.80168">
        <ele>36.9</ele>
        <time>2023-05-18T12:01:53Z</time>
      </trkpt>
      <trkpt lat="49.42868" lon="-1.80144">
        <ele>37.8</ele>
        <time>2023-05-18T12:02:00Z</time>
      </trkpt>
      <trkpt lat="49.42853" lon="-1.80129">
        <ele>38.3</ele>
        <time>2023-05-18T12:02:06Z</time>
      </trkpt>
      <trkpt lat="49.42837" lon="-1.80113">
        <ele>38.9</ele>
        <time>2023-05-18T12:02:12Z</time>
      </trkpt>
      <trkpt lat="49.42821" lon="-1.80099">
        <ele>39.6</ele>
        <time>2023-05-18T12:02:18Z</time>
      </trkpt>
      <trkpt lat="49.42803" lon="-1.80086">
        <ele>40.3</ele>
        <time>2023-05-18T12:02:25Z</time>
      </trkpt>
      <trkpt lat="49.42783" lon="-1.80074">
        <ele>41.1</ele>
        <time>2023-05-18T12:02:32Z</time>
      </trkpt>
      <trkpt lat="49.42765" lon="-1.80063">
        <ele>41.9</ele>
        <time>2023-05-18T12:02:38Z</time>
      </trkpt>
      <trkpt lat="49.42745" lon="-1.80054">
        <ele>42.9</ele>
        <time>2023-05-18T12:02:45Z</time>
      </trkpt>
      <trkpt lat="49.42726" lon="-1.80044">
        <ele>43.9</ele>
        <time>2023-05-18T12:02:52Z</time>
      </trkpt>
      <trkpt lat="49.42708" lon="-1.80034">
        <ele>45.1</ele>
        <time>2023-05-18T12:02:59Z</time>
      </trkpt>
      <trkpt lat="49.42689" lon="-1.80023">
        <ele>46.4</ele>
        <time>2023-05-18T12:03:07Z</time>
      </trkpt>
      <trkpt lat="49.42671" lon="-1.80014">
        <ele>47.7</ele>
        <time>2023-05-18T12:03:14Z</time>
      </trkpt>
      <trkpt lat="49.42652" lon="-1.80002">
        <ele>49</ele>
        <time>2023-05-18T12:03:22Z</time>
      </trkpt>
      <trkpt lat="49.42633" lon="-1.79994">
        <ele>50</ele>
        <time>2023-05-18T12:03:28Z</time>
      </trkpt>
      <trkpt lat="49.42615" lon="-1.79988">
        <ele>51</ele>
        <time>2023-05-18T12:03:34Z</time>
      </trkpt>
      <trkpt lat="49.42594" lon="-1.79984">
        <ele>51.8</ele>
        <time>2023-05-18T12:03:41Z</time>
      </trkpt>
      <trkpt lat="49.42576" lon="-1.79983">
        <ele>52.1</ele>
        <time>2023-05-18T12:03:47Z</time>
      </trkpt>
      <trkpt lat="49.42554" lon="-1.7998">
        <ele>52.1</ele>
        <time>2023-05-18T12:03:52Z</time>
      </trkpt>
      <trkpt lat="49.42537" lon="-1.79965">
        <ele>52</ele>
        <time>2023-05-18T12:03:56Z</time>
      </trkpt>
      <trkpt lat="49.42528" lon="-1.79938">
        <ele>51.7</ele>
        <time>2023-05-18T12:04:00Z</time>
      </trkpt>
      <trkpt lat="49.42516" lon="-1.79911">
        <ele>51.4</ele>
        <time>2023-05-18T12:04:04Z</time>
      </trkpt>
      <trkpt lat="49.42504" lon="-1.79886">
        <ele>51</ele>
        <time>2023-05-18T12:04:08Z</time>
      </trkpt>
      <trkpt lat="49.42491" lon="-1.7986">
        <ele>50.7</ele>
        <time>2023-05-18T12:04:12Z</time>
      </trkpt>
      <trkpt lat="49.42477" lon="-1.79833">
        <ele>50.6</ele>
        <time>2023-05-18T12:04:16Z</time>
      </trkpt>
      <trkpt lat="49.42465" lon="-1.79807">
        <ele>50.7</ele>
        <time>2023-05-18T12:04:20Z</time>
      </trkpt>
      <trkpt lat="49.42452" lon="-1.79783">
        <ele>50.9</ele>
        <time>2023-05-18T12:04:24Z</time>
      </trkpt>
      <trkpt lat="49.42439" lon="-1.79761">
        <ele>51.2</ele>
        <time>2023-05-18T12:04:28Z</time>
      </trkpt>
      <trkpt lat="49.42424" lon="-1.79742">
        <ele>51.5</ele>
        <time>2023-05-18T12:04:32Z</time>
      </trkpt>
      <trkpt lat="49.42407" lon="-1.79726">
        <ele>51.7</ele>
        <time>2023-05-18T12:04:36Z</time>
      </trkpt>
      <trkpt lat="49.42389" lon="-1.79714">
        <ele>51.9</ele>
        <time>2023-05-18T12:04:40Z</time>
      </trkpt>
      <trkpt lat="49.4237" lon="-1.79708">
        <ele>52</ele>
        <time>2023-05-18T12:04:44Z</time>
      </trkpt>
      <trkpt lat="49.42349" lon="-1.79705">
        <ele>52.2</ele>
        <time>2023-05-18T12:04:48Z</time>
      </trkpt>
      <trkpt lat="49.42329" lon="-1.79705">
        <ele>52.2</ele>
        <time>2023-05-18T12:04:52Z</time>
      </trkpt>
      <trkpt lat="49.42307" lon="-1.79705">
        <ele>52.1</ele>
        <time>2023-05-18T12:04:56Z</time>
      </trkpt>
      <trkpt lat="49.42287" lon="-1.79704">
        <ele>51.6</ele>
        <time>2023-05-18T12:05:00Z</time>
      </trkpt>
      <trkpt lat="49.42262" lon="-1.79701">
        <ele>50.5</ele>
        <time>2023-05-18T12:05:04Z</time>
      </trkpt>
      <trkpt lat="49.42239" lon="-1.79698">
        <ele>49.8</ele>
        <time>2023-05-18T12:05:07Z</time>
      </trkpt>
      <trkpt lat="49.42219" lon="-1.79695">
        <ele>49.7</ele>
        <time>2023-05-18T12:05:10Z</time>
      </trkpt>
      <trkpt lat="49.42199" lon="-1.7969">
        <ele>50.2</ele>
        <time>2023-05-18T12:05:13Z</time>
      </trkpt>
      <trkpt lat="49.42177" lon="-1.79685">
        <ele>51.1</ele>
        <time>2023-05-18T12:05:17Z</time>
      </trkpt>
      <trkpt lat="49.42158" lon="-1.79681">
        <ele>51.9</ele>
        <time>2023-05-18T12:05:21Z</time>
      </trkpt>
      <trkpt lat="49.42137" lon="-1.79678">
        <ele>52.7</ele>
        <time>2023-05-18T12:05:25Z</time>
      </trkpt>
      <trkpt lat="49.42117" lon="-1.79673">
        <ele>53.8</ele>
        <time>2023-05-18T12:05:29Z</time>
      </trkpt>
      <trkpt lat="49.42097" lon="-1.79668">
        <ele>55.3</ele>
        <time>2023-05-18T12:05:34Z</time>
      </trkpt>
      <trkpt lat="49.42079" lon="-1.79664">
        <ele>56.7</ele>
        <time>2023-05-18T12:05:39Z</time>
      </trkpt>
      <trkpt lat="49.4206" lon="-1.79659">
        <ele>58.2</ele>
        <time>2023-05-18T12:05:45Z</time>
      </trkpt>
      <trkpt lat="49.4204" lon="-1.79656">
        <ele>59.6</ele>
        <time>2023-05-18T12:05:52Z</time>
      </trkpt>
      <trkpt lat="49.42021" lon="-1.79654">
        <ele>60.4</ele>
        <time>2023-05-18T12:05:58Z</time>
      </trkpt>
      <trkpt lat="49.42002" lon="-1.79655">
        <ele>60.8</ele>
        <time>2023-05-18T12:06:03Z</time>
      </trkpt>
      <trkpt lat="49.4198" lon="-1.79655">
        <ele>60.9</ele>
        <time>2023-05-18T12:06:08Z</time>
      </trkpt>
      <trkpt lat="49.41957" lon="-1.79659">
        <ele>60.7</ele>
        <time>2023-05-18T12:06:13Z</time>
      </trkpt>
      <trkpt lat="49.41937" lon="-1.79663">
        <ele>60.5</ele>
        <time>2023-05-18T12:06:17Z</time>
      </trkpt>
      <trkpt lat="49.41916" lon="-1.79666">
        <ele>60.1</ele>
        <time>2023-05-18T12:06:21Z</time>
      </trkpt>
      <trkpt lat="49.41892" lon="-1.79669">
        <ele>59.9</ele>
        <time>2023-05-18T12:06:25Z</time>
      </trkpt>
      <trkpt lat="49.41869" lon="-1.79672">
        <ele>59.7</ele>
        <time>2023-05-18T12:06:29Z</time>
      </trkpt>
      <trkpt lat="49.41847" lon="-1.79675">
        <ele>59.5</ele>
        <time>2023-05-18T12:06:33Z</time>
      </trkpt>
      <trkpt lat="49.41829" lon="-1.79677">
        <ele>59.4</ele>
        <time>2023-05-18T12:06:36Z</time>
      </trkpt>
      <trkpt lat="49.41805" lon="-1.79679">
        <ele>59.2</ele>
        <time>2023-05-18T12:06:40Z</time>
      </trkpt>
      <trkpt lat="49.41787" lon="-1.79677">
        <ele>58.5</ele>
        <time>2023-05-18T12:06:43Z</time>
      </trkpt>
      <trkpt lat="49.41767" lon="-1.79672">
        <ele>57</ele>
        <time>2023-05-18T12:06:46Z</time>
      </trkpt>
      <trkpt lat="49.41744" lon="-1.79671">
        <ele>54.8</ele>
        <time>2023-05-18T12:06:49Z</time>
      </trkpt>
      <trkpt lat="49.41726" lon="-1.79673">
        <ele>52.5</ele>
        <time>2023-05-18T12:06:51Z</time>
      </trkpt>
      <trkpt lat="49.41705" lon="-1.79677">
        <ele>49.9</ele>
        <time>2023-05-18T12:06:53Z</time>
      </trkpt>
      <trkpt lat="49.41684" lon="-1.7968">
        <ele>47.3</ele>
        <time>2023-05-18T12:06:55Z</time>
      </trkpt>
      <trkpt lat="49.41661" lon="-1.79679">
        <ele>44.9</ele>
        <time>2023-05-18T12:06:57Z</time>
      </trkpt>
      <trkpt lat="49.41637" lon="-1.79673">
        <ele>42.5</ele>
        <time>2023-05-18T12:06:59Z</time>
      </trkpt>
      <trkpt lat="49.41615" lon="-1.79667">
        <ele>40</ele>
        <time>2023-05-18T12:07:01Z</time>
      </trkpt>
      <trkpt lat="49.41591" lon="-1.79667">
        <ele>37.4</ele>
        <time>2023-05-18T12:07:03Z</time>
      </trkpt>
      <trkpt lat="49.41567" lon="-1.79673">
        <ele>35.2</ele>
        <time>2023-05-18T12:07:05Z</time>
      </trkpt>
      <trkpt lat="49.41546" lon="-1.79682">
        <ele>33.5</ele>
        <time>2023-05-18T12:07:07Z</time>
      </trkpt>
      <trkpt lat="49.41531" lon="-1.79699">
        <ele>32</ele>
        <time>2023-05-18T12:07:09Z</time>
      </trkpt>
      <trkpt lat="49.41508" lon="-1.79698">
        <ele>30.3</ele>
        <time>2023-05-18T12:07:12Z</time>
      </trkpt>
      <trkpt lat="49.41493" lon="-1.79684">
        <ele>29.8</ele>
        <time>2023-05-18T12:07:14Z</time>
      </trkpt>
      <trkpt lat="49.41472" lon="-1.79667">
        <ele>29.1</ele>
        <time>2023-05-18T12:07:17Z</time>
      </trkpt>
      <trkpt lat="49.41451" lon="-1.7965">
        <ele>28.8</ele>
        <time>2023-05-18T12:07:20Z</time>
      </trkpt>
      <trkpt lat="49.41433" lon="-1.7963">
        <ele>28.8</ele>
        <time>2023-05-18T12:07:23Z</time>
      </trkpt>
      <trkpt lat="49.41416" lon="-1.7961">
        <ele>29.3</ele>
        <time>2023-05-18T12:07:26Z</time>
      </trkpt>
      <trkpt lat="49.414" lon="-1.79594">
        <ele>30.5</ele>
        <time>2023-05-18T12:07:29Z</time>
      </trkpt>
      <trkpt lat="49.41388" lon="-1.79573">
        <ele>32.3</ele>
        <time>2023-05-18T12:07:34Z</time>
      </trkpt>
      <trkpt lat="49.41375" lon="-1.79554">
        <ele>34.8</ele>
        <time>2023-05-18T12:07:42Z</time>
      </trkpt>
      <trkpt lat="49.41363" lon="-1.79531">
        <ele>37.6</ele>
        <time>2023-05-18T12:07:52Z</time>
      </trkpt>
      <trkpt lat="49.41353" lon="-1.79508">
        <ele>39.6</ele>
        <time>2023-05-18T12:08:01Z</time>
      </trkpt>
      <trkpt lat="49.41341" lon="-1.79487">
        <ele>40.5</ele>
        <time>2023-05-18T12:08:07Z</time>
      </trkpt>
      <trkpt lat="49.41326" lon="-1.79462">
        <ele>40.8</ele>
        <time>2023-05-18T12:08:13Z</time>
      </trkpt>
      <trkpt lat="49.41312" lon="-1.79442">
        <ele>40.9</ele>
        <time>2023-05-18T12:08:18Z</time>
      </trkpt>
      <trkpt lat="49.41296" lon="-1.79418">
        <ele>40.9</ele>
        <time>2023-05-18T12:08:23Z</time>
      </trkpt>
      <trkpt lat="49.41284" lon="-1.79395">
        <ele>41</ele>
        <time>2023-05-18T12:08:27Z</time>
      </trkpt>
      <trkpt lat="49.4127" lon="-1.79374">
        <ele>41.2</ele>
        <time>2023-05-18T12:08:31Z</time>
      </trkpt>
      <trkpt lat="49.41259" lon="-1.79351">
        <ele>41.7</ele>
        <time>2023-05-18T12:08:35Z</time>
      </trkpt>
      <trkpt lat="49.41248" lon="-1.79325">
        <ele>42.4</ele>
        <time>2023-05-18T12:08:40Z</time>
      </trkpt>
      <trkpt lat="49.41239" lon="-1.79297">
        <ele>43.4</ele>
        <time>2023-05-18T12:08:46Z</time>
      </trkpt>
      <trkpt lat="49.41234" lon="-1.79269">
        <ele>44.5</ele>
        <time>2023-05-18T12:08:52Z</time>
      </trkpt>
      <trkpt lat="49.41232" lon="-1.79239">
        <ele>45.7</ele>
        <time>2023-05-18T12:08:58Z</time>
      </trkpt>
      <trkpt lat="49.41234" lon="-1.79206">
        <ele>46.9</ele>
        <time>2023-05-18T12:09:04Z</time>
      </trkpt>
      <trkpt lat="49.41237" lon="-1.79178">
        <ele>47.7</ele>
        <time>2023-05-18T12:09:10Z</time>
      </trkpt>
      <trkpt lat="49.41239" lon="-1.79148">
        <ele>48.6</ele>
        <time>2023-05-18T12:09:15Z</time>
      </trkpt>
      <trkpt lat="49.41236" lon="-1.79116">
        <ele>49.6</ele>
        <time>2023-05-18T12:09:21Z</time>
      </trkpt>
      <trkpt lat="49.41222" lon="-1.79094">
        <ele>50.8</ele>
        <time>2023-05-18T12:09:28Z</time>
      </trkpt>
      <trkpt lat="49.41207" lon="-1.79076">
        <ele>52.5</ele>
        <time>2023-05-18T12:09:35Z</time>
      </trkpt>
      <trkpt lat="49.41188" lon="-1.79055">
        <ele>55.1</ele>
        <time>2023-05-18T12:09:59Z</time>
      </trkpt>
      <trkpt lat="49.41173" lon="-1.79037">
        <ele>57.5</ele>
        <time>2023-05-18T12:10:17Z</time>
      </trkpt>
      <trkpt lat="49.41159" lon="-1.7902">
        <ele>60</ele>
        <time>2023-05-18T12:10:33Z</time>
      </trkpt>
      <trkpt lat="49.41146" lon="-1.78998">
        <ele>62.6</ele>
        <time>2023-05-18T12:10:51Z</time>
      </trkpt>
      <trkpt lat="49.41137" lon="-1.78974">
        <ele>64.8</ele>
        <time>2023-05-18T12:11:07Z</time>
      </trkpt>
      <trkpt lat="49.41125" lon="-1.78951">
        <ele>66.4</ele>
        <time>2023-05-18T12:12:22Z</time>
      </trkpt>
      <trkpt lat="49.41111" lon="-1.7893">
        <ele>67.5</ele>
        <time>2023-05-18T12:12:31Z</time>
      </trkpt>
      <trkpt lat="49.41097" lon="-1.78908">
        <ele>68.4</ele>
        <time>2023-05-18T12:12:38Z</time>
      </trkpt>
      <trkpt lat="49.41084" lon="-1.78887">
        <ele>69.2</ele>
        <time>2023-05-18T12:12:45Z</time>
      </trkpt>
      <trkpt lat="49.41069" lon="-1.78867">
        <ele>70.3</ele>
        <time>2023-05-18T12:12:52Z</time>
      </trkpt>
      <trkpt lat="49.41049" lon="-1.7886">
        <ele>71.4</ele>
        <time>2023-05-18T12:13:00Z</time>
      </trkpt>
      <trkpt lat="49.41028" lon="-1.78853">
        <ele>72.8</ele>
        <time>2023-05-18T12:13:08Z</time>
      </trkpt>
      <trkpt lat="49.41018" lon="-1.78828">
        <ele>73.9</ele>
        <time>2023-05-18T12:13:16Z</time>
      </trkpt>
      <trkpt lat="49.41014" lon="-1.78797">
        <ele>74.7</ele>
        <time>2023-05-18T12:13:23Z</time>
      </trkpt>
      <trkpt lat="49.41001" lon="-1.78776">
        <ele>75.3</ele>
        <time>2023-05-18T12:13:29Z</time>
      </trkpt>
      <trkpt lat="49.40982" lon="-1.78768">
        <ele>75.9</ele>
        <time>2023-05-18T12:13:35Z</time>
      </trkpt>
      <trkpt lat="49.40962" lon="-1.7876">
        <ele>76.7</ele>
        <time>2023-05-18T12:13:42Z</time>
      </trkpt>
      <trkpt lat="49.40944" lon="-1.78752">
        <ele>77.3</ele>
        <time>2023-05-18T12:13:48Z</time>
      </trkpt>
      <trkpt lat="49.40926" lon="-1.7874">
        <ele>77.8</ele>
        <time>2023-05-18T12:13:54Z</time>
      </trkpt>
      <trkpt lat="49.40909" lon="-1.78725">
        <ele>78.2</ele>
        <time>2023-05-18T12:14:00Z</time>
      </trkpt>
      <trkpt lat="49.40891" lon="-1.78717">
        <ele>78.5</ele>
        <time>2023-05-18T12:14:05Z</time>
      </trkpt>
      <trkpt lat="49.40872" lon="-1.78713">
        <ele>78.7</ele>
        <time>2023-05-18T12:14:10Z</time>
      </trkpt>
      <trkpt lat="49.40851" lon="-1.78712">
        <ele>78.7</ele>
        <time>2023-05-18T12:14:15Z</time>
      </trkpt>
      <trkpt lat="49.40829" lon="-1.78709">
        <ele>78.7</ele>
        <time>2023-05-18T12:14:20Z</time>
      </trkpt>
      <trkpt lat="49.40816" lon="-1.78691">
        <ele>78.6</ele>
        <time>2023-05-18T12:14:24Z</time>
      </trkpt>
      <trkpt lat="49.40804" lon="-1.78663">
        <ele>78.7</ele>
        <time>2023-05-18T12:14:28Z</time>
      </trkpt>
      <trkpt lat="49.4079" lon="-1.78639">
        <ele>78.8</ele>
        <time>2023-05-18T12:14:33Z</time>
      </trkpt>
      <trkpt lat="49.40774" lon="-1.78653">
        <ele>78.5</ele>
        <time>2023-05-18T12:14:37Z</time>
      </trkpt>
      <trkpt lat="49.40761" lon="-1.7868">
        <ele>78.2</ele>
        <time>2023-05-18T12:14:41Z</time>
      </trkpt>
      <trkpt lat="49.40748" lon="-1.78705">
        <ele>78.1</ele>
        <time>2023-05-18T12:14:45Z</time>
      </trkpt>
      <trkpt lat="49.40736" lon="-1.78735">
        <ele>78.1</ele>
        <time>2023-05-18T12:14:49Z</time>
      </trkpt>
      <trkpt lat="49.40724" lon="-1.78765">
        <ele>78.1</ele>
        <time>2023-05-18T12:14:53Z</time>
      </trkpt>
      <trkpt lat="49.40712" lon="-1.78796">
        <ele>78.1</ele>
        <time>2023-05-18T12:14:57Z</time>
      </trkpt>
      <trkpt lat="49.40702" lon="-1.78821">
        <ele>78</ele>
        <time>2023-05-18T12:15:00Z</time>
      </trkpt>
      <trkpt lat="49.40693" lon="-1.78847">
        <ele>77.8</ele>
        <time>2023-05-18T12:15:03Z</time>
      </trkpt>
      <trkpt lat="49.40683" lon="-1.78874">
        <ele>77.6</ele>
        <time>2023-05-18T12:15:06Z</time>
      </trkpt>
      <trkpt lat="49.40672" lon="-1.78901">
        <ele>77.4</ele>
        <time>2023-05-18T12:15:09Z</time>
      </trkpt>
      <trkpt lat="49.4066" lon="-1.78929">
        <ele>77.2</ele>
        <time>2023-05-18T12:15:12Z</time>
      </trkpt>
      <trkpt lat="49.40649" lon="-1.78958">
        <ele>77.1</ele>
        <time>2023-05-18T12:15:15Z</time>
      </trkpt>
      <trkpt lat="49.40637" lon="-1.78987">
        <ele>77</ele>
        <time>2023-05-18T12:15:18Z</time>
      </trkpt>
      <trkpt lat="49.40625" lon="-1.79015">
        <ele>77</ele>
        <time>2023-05-18T12:15:21Z</time>
      </trkpt>
      <trkpt lat="49.40612" lon="-1.79044">
        <ele>77</ele>
        <time>2023-05-18T12:15:24Z</time>
      </trkpt>
      <trkpt lat="49.40603" lon="-1.79072">
        <ele>77</ele>
        <time>2023-05-18T12:15:27Z</time>
      </trkpt>
      <trkpt lat="49.40593" lon="-1.791">
        <ele>77</ele>
        <time>2023-05-18T12:15:30Z</time>
      </trkpt>
      <trkpt lat="49.40582" lon="-1.79126">
        <ele>77.1</ele>
        <time>2023-05-18T12:15:33Z</time>
      </trkpt>
      <trkpt lat="49.40572" lon="-1.79153">
        <ele>77.2</ele>
        <time>2023-05-18T12:15:36Z</time>
      </trkpt>
      <trkpt lat="49.40561" lon="-1.79178">
        <ele>77.3</ele>
        <time>2023-05-18T12:15:39Z</time>
      </trkpt>
      <trkpt lat="49.40551" lon="-1.79205">
        <ele>77.3</ele>
        <time>2023-05-18T12:15:42Z</time>
      </trkpt>
      <trkpt lat="49.40541" lon="-1.79232">
        <ele>77.4</ele>
        <time>2023-05-18T12:15:45Z</time>
      </trkpt>
      <trkpt lat="49.4053" lon="-1.79259">
        <ele>77.5</ele>
        <time>2023-05-18T12:15:48Z</time>
      </trkpt>
      <trkpt lat="49.4052" lon="-1.79286">
        <ele>77.6</ele>
        <time>2023-05-18T12:15:51Z</time>
      </trkpt>
      <trkpt lat="49.4051" lon="-1.79313">
        <ele>77.6</ele>
        <time>2023-05-18T12:15:54Z</time>
      </trkpt>
      <trkpt lat="49.405" lon="-1.79339">
        <ele>77.7</ele>
        <time>2023-05-18T12:15:57Z</time>
      </trkpt>
      <trkpt lat="49.40491" lon="-1.79367">
        <ele>77.6</ele>
        <time>2023-05-18T12:16:00Z</time>
      </trkpt>
      <trkpt lat="49.4048" lon="-1.79393">
        <ele>77.5</ele>
        <time>2023-05-18T12:16:03Z</time>
      </trkpt>
      <trkpt lat="49.40468" lon="-1.79418">
        <ele>77.3</ele>
        <time>2023-05-18T12:16:06Z</time>
      </trkpt>
      <trkpt lat="49.40453" lon="-1.79441">
        <ele>76.9</ele>
        <time>2023-05-18T12:16:09Z</time>
      </trkpt>
      <trkpt lat="49.40437" lon="-1.79463">
        <ele>76.6</ele>
        <time>2023-05-18T12:16:12Z</time>
      </trkpt>
      <trkpt lat="49.40421" lon="-1.79484">
        <ele>76.5</ele>
        <time>2023-05-18T12:16:15Z</time>
      </trkpt>
      <trkpt lat="49.40404" lon="-1.79504">
        <ele>76.5</ele>
        <time>2023-05-18T12:16:18Z</time>
      </trkpt>
      <trkpt lat="49.40386" lon="-1.79521">
        <ele>76.4</ele>
        <time>2023-05-18T12:16:21Z</time>
      </trkpt>
      <trkpt lat="49.40367" lon="-1.79534">
        <ele>76.3</ele>
        <time>2023-05-18T12:16:24Z</time>
      </trkpt>
      <trkpt lat="49.40349" lon="-1.79545">
        <ele>76.2</ele>
        <time>2023-05-18T12:16:27Z</time>
      </trkpt>
      <trkpt lat="49.40331" lon="-1.79556">
        <ele>76.2</ele>
        <time>2023-05-18T12:16:30Z</time>
      </trkpt>
      <trkpt lat="49.40312" lon="-1.79569">
        <ele>76.1</ele>
        <time>2023-05-18T12:16:33Z</time>
      </trkpt>
      <trkpt lat="49.40294" lon="-1.79584">
        <ele>76</ele>
        <time>2023-05-18T12:16:36Z</time>
      </trkpt>
      <trkpt lat="49.40278" lon="-1.796">
        <ele>75.8</ele>
        <time>2023-05-18T12:16:39Z</time>
      </trkpt>
      <trkpt lat="49.40261" lon="-1.7962">
        <ele>75.5</ele>
        <time>2023-05-18T12:16:42Z</time>
      </trkpt>
      <trkpt lat="49.40246" lon="-1.7964">
        <ele>75.4</ele>
        <time>2023-05-18T12:16:45Z</time>
      </trkpt>
      <trkpt lat="49.40231" lon="-1.79663">
        <ele>75.2</ele>
        <time>2023-05-18T12:16:48Z</time>
      </trkpt>
      <trkpt lat="49.40216" lon="-1.79684">
        <ele>75.1</ele>
        <time>2023-05-18T12:16:51Z</time>
      </trkpt>
      <trkpt lat="49.40201" lon="-1.79705">
        <ele>74.9</ele>
        <time>2023-05-18T12:16:54Z</time>
      </trkpt>
      <trkpt lat="49.40188" lon="-1.79727">
        <ele>74.8</ele>
        <time>2023-05-18T12:16:57Z</time>
      </trkpt>
      <trkpt lat="49.40172" lon="-1.79751">
        <ele>74.5</ele>
        <time>2023-05-18T12:17:00Z</time>
      </trkpt>
      <trkpt lat="49.40156" lon="-1.79774">
        <ele>74.3</ele>
        <time>2023-05-18T12:17:03Z</time>
      </trkpt>
      <trkpt lat="49.40141" lon="-1.79797">
        <ele>74</ele>
        <time>2023-05-18T12:17:06Z</time>
      </trkpt>
      <trkpt lat="49.40123" lon="-1.79819">
        <ele>73.8</ele>
        <time>2023-05-18T12:17:09Z</time>
      </trkpt>
      <trkpt lat="49.40105" lon="-1.79841">
        <ele>73.4</ele>
        <time>2023-05-18T12:17:12Z</time>
      </trkpt>
      <trkpt lat="49.40089" lon="-1.79863">
        <ele>73</ele>
        <time>2023-05-18T12:17:15Z</time>
      </trkpt>
      <trkpt lat="49.40077" lon="-1.7989">
        <ele>72.8</ele>
        <time>2023-05-18T12:17:18Z</time>
      </trkpt>
      <trkpt lat="49.40065" lon="-1.79914">
        <ele>72.5</ele>
        <time>2023-05-18T12:17:21Z</time>
      </trkpt>
      <trkpt lat="49.40047" lon="-1.79919">
        <ele>71.8</ele>
        <time>2023-05-18T12:17:24Z</time>
      </trkpt>
      <trkpt lat="49.40027" lon="-1.79904">
        <ele>70.7</ele>
        <time>2023-05-18T12:17:27Z</time>
      </trkpt>
      <trkpt lat="49.40006" lon="-1.79884">
        <ele>69.7</ele>
        <time>2023-05-18T12:17:30Z</time>
      </trkpt>
      <trkpt lat="49.39983" lon="-1.79865">
        <ele>68.6</ele>
        <time>2023-05-18T12:17:33Z</time>
      </trkpt>
      <trkpt lat="49.39959" lon="-1.79851">
        <ele>67.8</ele>
        <time>2023-05-18T12:17:36Z</time>
      </trkpt>
      <trkpt lat="49.39937" lon="-1.79836">
        <ele>67.2</ele>
        <time>2023-05-18T12:17:39Z</time>
      </trkpt>
      <trkpt lat="49.39922" lon="-1.79807">
        <ele>67.3</ele>
        <time>2023-05-18T12:17:42Z</time>
      </trkpt>
      <trkpt lat="49.39914" lon="-1.79777">
        <ele>67.4</ele>
        <time>2023-05-18T12:17:45Z</time>
      </trkpt>
      <trkpt lat="49.39891" lon="-1.79772">
        <ele>67.3</ele>
        <time>2023-05-18T12:17:49Z</time>
      </trkpt>
      <trkpt lat="49.3987" lon="-1.79769">
        <ele>67.2</ele>
        <time>2023-05-18T12:17:52Z</time>
      </trkpt>
      <trkpt lat="49.39849" lon="-1.79759">
        <ele>67.1</ele>
        <time>2023-05-18T12:17:55Z</time>
      </trkpt>
      <trkpt lat="49.39828" lon="-1.79754">
        <ele>67</ele>
        <time>2023-05-18T12:17:58Z</time>
      </trkpt>
      <trkpt lat="49.39806" lon="-1.7975">
        <ele>66.8</ele>
        <time>2023-05-18T12:18:01Z</time>
      </trkpt>
      <trkpt lat="49.39785" lon="-1.79744">
        <ele>66.7</ele>
        <time>2023-05-18T12:18:04Z</time>
      </trkpt>
      <trkpt lat="49.39764" lon="-1.79741">
        <ele>66.5</ele>
        <time>2023-05-18T12:18:07Z</time>
      </trkpt>
      <trkpt lat="49.39744" lon="-1.79737">
        <ele>66.4</ele>
        <time>2023-05-18T12:18:10Z</time>
      </trkpt>
      <trkpt lat="49.39723" lon="-1.79735">
        <ele>66.2</ele>
        <time>2023-05-18T12:18:13Z</time>
      </trkpt>
      <trkpt lat="49.39701" lon="-1.79734">
        <ele>66.1</ele>
        <time>2023-05-18T12:18:16Z</time>
      </trkpt>
      <trkpt lat="49.3968" lon="-1.79735">
        <ele>65.9</ele>
        <time>2023-05-18T12:18:19Z</time>
      </trkpt>
      <trkpt lat="49.3966" lon="-1.79735">
        <ele>65.7</ele>
        <time>2023-05-18T12:18:22Z</time>
      </trkpt>
      <trkpt lat="49.39638" lon="-1.79737">
        <ele>65.5</ele>
        <time>2023-05-18T12:18:25Z</time>
      </trkpt>
      <trkpt lat="49.39618" lon="-1.7974">
        <ele>65.2</ele>
        <time>2023-05-18T12:18:28Z</time>
      </trkpt>
      <trkpt lat="49.39597" lon="-1.79743">
        <ele>64.9</ele>
        <time>2023-05-18T12:18:31Z</time>
      </trkpt>
      <trkpt lat="49.39576" lon="-1.79747">
        <ele>64.4</ele>
        <time>2023-05-18T12:18:34Z</time>
      </trkpt>
      <trkpt lat="49.39554" lon="-1.79751">
        <ele>63.8</ele>
        <time>2023-05-18T12:18:37Z</time>
      </trkpt>
      <trkpt lat="49.3953" lon="-1.79756">
        <ele>63.1</ele>
        <time>2023-05-18T12:18:40Z</time>
      </trkpt>
      <trkpt lat="49.39507" lon="-1.79761">
        <ele>62.3</ele>
        <time>2023-05-18T12:18:43Z</time>
      </trkpt>
      <trkpt lat="49.39483" lon="-1.79764">
        <ele>61.4</ele>
        <time>2023-05-18T12:18:46Z</time>
      </trkpt>
      <trkpt lat="49.3946" lon="-1.79769">
        <ele>60.5</ele>
        <time>2023-05-18T12:18:49Z</time>
      </trkpt>
      <trkpt lat="49.39436" lon="-1.79771">
        <ele>59</ele>
        <time>2023-05-18T12:18:52Z</time>
      </trkpt>
      <trkpt lat="49.39409" lon="-1.79773">
        <ele>56.9</ele>
        <time>2023-05-18T12:18:55Z</time>
      </trkpt>
      <trkpt lat="49.39391" lon="-1.79774">
        <ele>55.2</ele>
        <time>2023-05-18T12:18:57Z</time>
      </trkpt>
      <trkpt lat="49.39371" lon="-1.79775">
        <ele>53.2</ele>
        <time>2023-05-18T12:18:59Z</time>
      </trkpt>
      <trkpt lat="49.39349" lon="-1.79775">
        <ele>50.6</ele>
        <time>2023-05-18T12:19:01Z</time>
      </trkpt>
      <trkpt lat="49.39324" lon="-1.79774">
        <ele>47.6</ele>
        <time>2023-05-18T12:19:03Z</time>
      </trkpt>
      <trkpt lat="49.39301" lon="-1.79771">
        <ele>44.7</ele>
        <time>2023-05-18T12:19:05Z</time>
      </trkpt>
      <trkpt lat="49.39278" lon="-1.79761">
        <ele>42</ele>
        <time>2023-05-18T12:19:07Z</time>
      </trkpt>
      <trkpt lat="49.3926" lon="-1.79741">
        <ele>39.7</ele>
        <time>2023-05-18T12:19:09Z</time>
      </trkpt>
      <trkpt lat="49.39253" lon="-1.7971">
        <ele>37.9</ele>
        <time>2023-05-18T12:19:11Z</time>
      </trkpt>
      <trkpt lat="49.39253" lon="-1.79675">
        <ele>36.5</ele>
        <time>2023-05-18T12:19:13Z</time>
      </trkpt>
      <trkpt lat="49.39249" lon="-1.79641">
        <ele>35.6</ele>
        <time>2023-05-18T12:19:15Z</time>
      </trkpt>
      <trkpt lat="49.39235" lon="-1.79615">
        <ele>35.3</ele>
        <time>2023-05-18T12:19:17Z</time>
      </trkpt>
      <trkpt lat="49.39213" lon="-1.7961">
        <ele>35.1</ele>
        <time>2023-05-18T12:19:19Z</time>
      </trkpt>
      <trkpt lat="49.39194" lon="-1.79616">
        <ele>35.1</ele>
        <time>2023-05-18T12:19:21Z</time>
      </trkpt>
      <trkpt lat="49.39175" lon="-1.79615">
        <ele>35.1</ele>
        <time>2023-05-18T12:19:23Z</time>
      </trkpt>
      <trkpt lat="49.39153" lon="-1.79598">
        <ele>35.2</ele>
        <time>2023-05-18T12:19:26Z</time>
      </trkpt>
      <trkpt lat="49.39134" lon="-1.79573">
        <ele>35.3</ele>
        <time>2023-05-18T12:19:29Z</time>
      </trkpt>
      <trkpt lat="49.39115" lon="-1.79551">
        <ele>35</ele>
        <time>2023-05-18T12:19:32Z</time>
      </trkpt>
      <trkpt lat="49.39096" lon="-1.79527">
        <ele>34.4</ele>
        <time>2023-05-18T12:19:35Z</time>
      </trkpt>
      <trkpt lat="49.39076" lon="-1.79506">
        <ele>33.6</ele>
        <time>2023-05-18T12:19:38Z</time>
      </trkpt>
      <trkpt lat="49.39055" lon="-1.79484">
        <ele>32.3</ele>
        <time>2023-05-18T12:19:41Z</time>
      </trkpt>
      <trkpt lat="49.39033" lon="-1.7946">
        <ele>30.8</ele>
        <time>2023-05-18T12:19:44Z</time>
      </trkpt>
      <trkpt lat="49.39018" lon="-1.79445">
        <ele>29.8</ele>
        <time>2023-05-18T12:19:46Z</time>
      </trkpt>
      <trkpt lat="49.39002" lon="-1.79429">
        <ele>28.9</ele>
        <time>2023-05-18T12:19:48Z</time>
      </trkpt>
      <trkpt lat="49.38986" lon="-1.79412">
        <ele>28.5</ele>
        <time>2023-05-18T12:19:50Z</time>
      </trkpt>
      <trkpt lat="49.3897" lon="-1.79395">
        <ele>28.6</ele>
        <time>2023-05-18T12:19:52Z</time>
      </trkpt>
      <trkpt lat="49.3895" lon="-1.79377">
        <ele>29.2</ele>
        <time>2023-05-18T12:19:55Z</time>
      </trkpt>
      <trkpt lat="49.38932" lon="-1.79359">
        <ele>30</ele>
        <time>2023-05-18T12:19:58Z</time>
      </trkpt>
      <trkpt lat="49.38914" lon="-1.79344">
        <ele>30.6</ele>
        <time>2023-05-18T12:20:01Z</time>
      </trkpt>
      <trkpt lat="49.38896" lon="-1.79334">
        <ele>31.2</ele>
        <time>2023-05-18T12:20:04Z</time>
      </trkpt>
      <trkpt lat="49.38879" lon="-1.79324">
        <ele>31.7</ele>
        <time>2023-05-18T12:20:07Z</time>
      </trkpt>
      <trkpt lat="49.38861" lon="-1.79318">
        <ele>32.3</ele>
        <time>2023-05-18T12:20:10Z</time>
      </trkpt>
      <trkpt lat="49.38843" lon="-1.79315">
        <ele>32.6</ele>
        <time>2023-05-18T12:20:13Z</time>
      </trkpt>
      <trkpt lat="49.3882" lon="-1.79308">
        <ele>32.5</ele>
        <time>2023-05-18T12:20:17Z</time>
      </trkpt>
      <trkpt lat="49.388" lon="-1.79302">
        <ele>32</ele>
        <time>2023-05-18T12:20:20Z</time>
      </trkpt>
      <trkpt lat="49.38779" lon="-1.79298">
        <ele>31.3</ele>
        <time>2023-05-18T12:20:23Z</time>
      </trkpt>
      <trkpt lat="49.38757" lon="-1.79291">
        <ele>30.4</ele>
        <time>2023-05-18T12:20:26Z</time>
      </trkpt>
      <trkpt lat="49.38733" lon="-1.79284">
        <ele>29.1</ele>
        <time>2023-05-18T12:20:29Z</time>
      </trkpt>
      <trkpt lat="49.38708" lon="-1.79278">
        <ele>27.8</ele>
        <time>2023-05-18T12:20:32Z</time>
      </trkpt>
      <trkpt lat="49.38682" lon="-1.79275">
        <ele>26.5</ele>
        <time>2023-05-18T12:20:35Z</time>
      </trkpt>
      <trkpt lat="49.38655" lon="-1.79272">
        <ele>25</ele>
        <time>2023-05-18T12:20:38Z</time>
      </trkpt>
      <trkpt lat="49.38635" lon="-1.79274">
        <ele>23.8</ele>
        <time>2023-05-18T12:20:40Z</time>
      </trkpt>
      <trkpt lat="49.38616" lon="-1.79279">
        <ele>22.6</ele>
        <time>2023-05-18T12:20:42Z</time>
      </trkpt>
      <trkpt lat="49.38597" lon="-1.79284">
        <ele>21.4</ele>
        <time>2023-05-18T12:20:44Z</time>
      </trkpt>
      <trkpt lat="49.38578" lon="-1.7929">
        <ele>20.5</ele>
        <time>2023-05-18T12:20:46Z</time>
      </trkpt>
      <trkpt lat="49.38559" lon="-1.79296">
        <ele>19.8</ele>
        <time>2023-05-18T12:20:48Z</time>
      </trkpt>
      <trkpt lat="49.38541" lon="-1.79303">
        <ele>19.3</ele>
        <time>2023-05-18T12:20:50Z</time>
      </trkpt>
      <trkpt lat="49.38523" lon="-1.7931">
        <ele>19</ele>
        <time>2023-05-18T12:20:52Z</time>
      </trkpt>
      <trkpt lat="49.38505" lon="-1.79315">
        <ele>18.8</ele>
        <time>2023-05-18T12:20:54Z</time>
      </trkpt>
      <trkpt lat="49.38479" lon="-1.79321">
        <ele>18.5</ele>
        <time>2023-05-18T12:20:57Z</time>
      </trkpt>
      <trkpt lat="49.38454" lon="-1.79324">
        <ele>18.2</ele>
        <time>2023-05-18T12:21:00Z</time>
      </trkpt>
      <trkpt lat="49.38431" lon="-1.79321">
        <ele>17.9</ele>
        <time>2023-05-18T12:21:03Z</time>
      </trkpt>
      <trkpt lat="49.38408" lon="-1.79313">
        <ele>17.6</ele>
        <time>2023-05-18T12:21:06Z</time>
      </trkpt>
      <trkpt lat="49.38386" lon="-1.79297">
        <ele>17.4</ele>
        <time>2023-05-18T12:21:09Z</time>
      </trkpt>
      <trkpt lat="49.38365" lon="-1.7928">
        <ele>17.2</ele>
        <time>2023-05-18T12:21:12Z</time>
      </trkpt>
      <trkpt lat="49.38343" lon="-1.79262">
        <ele>16.9</ele>
        <time>2023-05-18T12:21:15Z</time>
      </trkpt>
      <trkpt lat="49.38323" lon="-1.79245">
        <ele>16.6</ele>
        <time>2023-05-18T12:21:18Z</time>
      </trkpt>
      <trkpt lat="49.38302" lon="-1.79229">
        <ele>16.2</ele>
        <time>2023-05-18T12:21:21Z</time>
      </trkpt>
      <trkpt lat="49.38285" lon="-1.79214">
        <ele>15.9</ele>
        <time>2023-05-18T12:21:24Z</time>
      </trkpt>
      <trkpt lat="49.38267" lon="-1.792">
        <ele>15.6</ele>
        <time>2023-05-18T12:21:27Z</time>
      </trkpt>
      <trkpt lat="49.3825" lon="-1.79185">
        <ele>15.4</ele>
        <time>2023-05-18T12:21:30Z</time>
      </trkpt>
      <trkpt lat="49.38236" lon="-1.79166">
        <ele>15</ele>
        <time>2023-05-18T12:21:33Z</time>
      </trkpt>
      <trkpt lat="49.38222" lon="-1.79146">
        <ele>14.7</ele>
        <time>2023-05-18T12:21:36Z</time>
      </trkpt>
      <trkpt lat="49.38208" lon="-1.79123">
        <ele>14.4</ele>
        <time>2023-05-18T12:21:39Z</time>
      </trkpt>
      <trkpt lat="49.38194" lon="-1.79102">
        <ele>14.1</ele>
        <time>2023-05-18T12:21:42Z</time>
      </trkpt>
      <trkpt lat="49.38181" lon="-1.79081">
        <ele>13.8</ele>
        <time>2023-05-18T12:21:45Z</time>
      </trkpt>
      <trkpt lat="49.38166" lon="-1.79058">
        <ele>13.5</ele>
        <time>2023-05-18T12:21:48Z</time>
      </trkpt>
      <trkpt lat="49.38153" lon="-1.79035">
        <ele>13.2</ele>
        <time>2023-05-18T12:21:51Z</time>
      </trkpt>
      <trkpt lat="49.38138" lon="-1.79013">
        <ele>12.8</ele>
        <time>2023-05-18T12:21:54Z</time>
      </trkpt>
      <trkpt lat="49.38123" lon="-1.78991">
        <ele>12.5</ele>
        <time>2023-05-18T12:21:57Z</time>
      </trkpt>
      <trkpt lat="49.3811" lon="-1.78969">
        <ele>12.3</ele>
        <time>2023-05-18T12:22:00Z</time>
      </trkpt>
      <trkpt lat="49.38095" lon="-1.78944">
        <ele>12</ele>
        <time>2023-05-18T12:22:04Z</time>
      </trkpt>
      <trkpt lat="49.38082" lon="-1.78922">
        <ele>11.7</ele>
        <time>2023-05-18T12:22:08Z</time>
      </trkpt>
      <trkpt lat="49.38068" lon="-1.78903">
        <ele>11.4</ele>
        <time>2023-05-18T12:23:03Z</time>
      </trkpt>
      <trkpt lat="49.38054" lon="-1.78881">
        <ele>11.1</ele>
        <time>2023-05-18T12:23:12Z</time>
      </trkpt>
      <trkpt lat="49.38042" lon="-1.78859">
        <ele>10.8</ele>
        <time>2023-05-18T12:23:19Z</time>
      </trkpt>
      <trkpt lat="49.38029" lon="-1.78834">
        <ele>10.5</ele>
        <time>2023-05-18T12:23:24Z</time>
      </trkpt>
      <trkpt lat="49.38015" lon="-1.78815">
        <ele>10.3</ele>
        <time>2023-05-18T12:23:28Z</time>
      </trkpt>
      <trkpt lat="49.37999" lon="-1.78788">
        <ele>10</ele>
        <time>2023-05-18T12:23:32Z</time>
      </trkpt>
      <trkpt lat="49.37985" lon="-1.78767">
        <ele>9.8</ele>
        <time>2023-05-18T12:23:35Z</time>
      </trkpt>
      <trkpt lat="49.3797" lon="-1.78743">
        <ele>9.5</ele>
        <time>2023-05-18T12:23:38Z</time>
      </trkpt>
      <trkpt lat="49.37956" lon="-1.78718">
        <ele>9.3</ele>
        <time>2023-05-18T12:23:41Z</time>
      </trkpt>
      <trkpt lat="49.3794" lon="-1.78693">
        <ele>9.1</ele>
        <time>2023-05-18T12:23:45Z</time>
      </trkpt>
      <trkpt lat="49.37924" lon="-1.78667">
        <ele>8.9</ele>
        <time>2023-05-18T12:23:49Z</time>
      </trkpt>
      <trkpt lat="49.37911" lon="-1.78647">
        <ele>8.7</ele>
        <time>2023-05-18T12:23:53Z</time>
      </trkpt>
      <trkpt lat="49.37895" lon="-1.78631">
        <ele>8.6</ele>
        <time>2023-05-18T12:23:57Z</time>
      </trkpt>
      <trkpt lat="49.37881" lon="-1.78606">
        <ele>8.5</ele>
        <time>2023-05-18T12:24:02Z</time>
      </trkpt>
      <trkpt lat="49.37865" lon="-1.78583">
        <ele>8.3</ele>
        <time>2023-05-18T12:24:08Z</time>
      </trkpt>
      <trkpt lat="49.37847" lon="-1.786">
        <ele>8</ele>
        <time>2023-05-18T12:24:13Z</time>
      </trkpt>
      <trkpt lat="49.37838" lon="-1.78626">
        <ele>8.1</ele>
        <time>2023-05-18T12:24:17Z</time>
      </trkpt>
      <trkpt lat="49.37825" lon="-1.78654">
        <ele>8.5</ele>
        <time>2023-05-18T12:24:22Z</time>
      </trkpt>
      <trkpt lat="49.3781" lon="-1.78678">
        <ele>9.1</ele>
        <time>2023-05-18T12:24:27Z</time>
      </trkpt>
      <trkpt lat="49.37801" lon="-1.78709">
        <ele>9.9</ele>
        <time>2023-05-18T12:24:32Z</time>
      </trkpt>
      <trkpt lat="49.37797" lon="-1.78739">
        <ele>10.6</ele>
        <time>2023-05-18T12:24:37Z</time>
      </trkpt>
      <trkpt lat="49.37794" lon="-1.78769">
        <ele>11.2</ele>
        <time>2023-05-18T12:24:42Z</time>
      </trkpt>
      <trkpt lat="49.37789" lon="-1.78803">
        <ele>12</ele>
        <time>2023-05-18T12:24:47Z</time>
      </trkpt>
      <trkpt lat="49.37787" lon="-1.78831">
        <ele>12.6</ele>
        <time>2023-05-18T12:24:51Z</time>
      </trkpt>
      <trkpt lat="49.37785" lon="-1.78865">
        <ele>13.3</ele>
        <time>2023-05-18T12:24:56Z</time>
      </trkpt>
      <trkpt lat="49.37782" lon="-1.78897">
        <ele>14.1</ele>
        <time>2023-05-18T12:25:01Z</time>
      </trkpt>
      <trkpt lat="49.37779" lon="-1.78927">
        <ele>14.7</ele>
        <time>2023-05-18T12:25:06Z</time>
      </trkpt>
      <trkpt lat="49.37774" lon="-1.78955">
        <ele>15.1</ele>
        <time>2023-05-18T12:25:11Z</time>
      </trkpt>
      <trkpt lat="49.37768" lon="-1.78986">
        <ele>15.8</ele>
        <time>2023-05-18T12:25:17Z</time>
      </trkpt>
      <trkpt lat="49.37761" lon="-1.79012">
        <ele>16.7</ele>
        <time>2023-05-18T12:25:22Z</time>
      </trkpt>
      <trkpt lat="49.37757" lon="-1.79039">
        <ele>17.8</ele>
        <time>2023-05-18T12:25:28Z</time>
      </trkpt>
      <trkpt lat="49.37749" lon="-1.79066">
        <ele>19.7</ele>
        <time>2023-05-18T12:25:36Z</time>
      </trkpt>
      <trkpt lat="49.37743" lon="-1.79093">
        <ele>21.8</ele>
        <time>2023-05-18T12:25:53Z</time>
      </trkpt>
      <trkpt lat="49.37737" lon="-1.79119">
        <ele>24.3</ele>
        <time>2023-05-18T12:26:13Z</time>
      </trkpt>
      <trkpt lat="49.3773" lon="-1.79146">
        <ele>27</ele>
        <time>2023-05-18T12:26:31Z</time>
      </trkpt>
      <trkpt lat="49.37721" lon="-1.79171">
        <ele>29.6</ele>
        <time>2023-05-18T12:26:50Z</time>
      </trkpt>
      <trkpt lat="49.37713" lon="-1.79197">
        <ele>32.2</ele>
        <time>2023-05-18T12:27:10Z</time>
      </trkpt>
      <trkpt lat="49.37702" lon="-1.7922">
        <ele>34.6</ele>
        <time>2023-05-18T12:27:29Z</time>
      </trkpt>
      <trkpt lat="49.37694" lon="-1.79248">
        <ele>37.3</ele>
        <time>2023-05-18T12:27:49Z</time>
      </trkpt>
      <trkpt lat="49.37688" lon="-1.79274">
        <ele>39.8</ele>
        <time>2023-05-18T12:28:08Z</time>
      </trkpt>
      <trkpt lat="49.37684" lon="-1.79302">
        <ele>42.3</ele>
        <time>2023-05-18T12:28:27Z</time>
      </trkpt>
      <trkpt lat="49.37681" lon="-1.7933">
        <ele>45</ele>
        <time>2023-05-18T12:28:46Z</time>
      </trkpt>
      <trkpt lat="49.37678" lon="-1.79358">
        <ele>47.7</ele>
        <time>2023-05-18T12:29:05Z</time>
      </trkpt>
      <trkpt lat="49.37675" lon="-1.79386">
        <ele>50.3</ele>
        <time>2023-05-18T12:29:23Z</time>
      </trkpt>
      <trkpt lat="49.3767" lon="-1.79413">
        <ele>52.8</ele>
        <time>2023-05-18T12:29:40Z</time>
      </trkpt>
      <trkpt lat="49.37661" lon="-1.79438">
        <ele>55.1</ele>
        <time>2023-05-18T12:29:59Z</time>
      </trkpt>
      <trkpt lat="49.37652" lon="-1.79462">
        <ele>57.1</ele>
        <time>2023-05-18T12:30:15Z</time>
      </trkpt>
      <trkpt lat="49.37646" lon="-1.79489">
        <ele>59</ele>
        <time>2023-05-18T12:30:33Z</time>
      </trkpt>
      <trkpt lat="49.37642" lon="-1.79516">
        <ele>60.9</ele>
        <time>2023-05-18T12:30:50Z</time>
      </trkpt>
      <trkpt lat="49.37638" lon="-1.79546">
        <ele>62.6</ele>
        <time>2023-05-18T12:31:16Z</time>
      </trkpt>
      <trkpt lat="49.37635" lon="-1.79574">
        <ele>63.8</ele>
        <time>2023-05-18T12:31:23Z</time>
      </trkpt>
      <trkpt lat="49.37631" lon="-1.79603">
        <ele>64.7</ele>
        <time>2023-05-18T12:31:30Z</time>
      </trkpt>
      <trkpt lat="49.37626" lon="-1.79631">
        <ele>65.2</ele>
        <time>2023-05-18T12:31:36Z</time>
      </trkpt>
      <trkpt lat="49.37623" lon="-1.79662">
        <ele>65.6</ele>
        <time>2023-05-18T12:31:42Z</time>
      </trkpt>
      <trkpt lat="49.37619" lon="-1.79689">
        <ele>65.9</ele>
        <time>2023-05-18T12:31:47Z</time>
      </trkpt>
      <trkpt lat="49.37615" lon="-1.79722">
        <ele>66.2</ele>
        <time>2023-05-18T12:31:52Z</time>
      </trkpt>
      <trkpt lat="49.37613" lon="-1.79754">
        <ele>66.5</ele>
        <time>2023-05-18T12:31:57Z</time>
      </trkpt>
      <trkpt lat="49.37611" lon="-1.79788">
        <ele>66.9</ele>
        <time>2023-05-18T12:32:02Z</time>
      </trkpt>
      <trkpt lat="49.37609" lon="-1.79819">
        <ele>67.2</ele>
        <time>2023-05-18T12:32:07Z</time>
      </trkpt>
      <trkpt lat="49.37607" lon="-1.7985">
        <ele>67.6</ele>
        <time>2023-05-18T12:32:12Z</time>
      </trkpt>
      <trkpt lat="49.37604" lon="-1.79881">
        <ele>67.9</ele>
        <time>2023-05-18T12:32:17Z</time>
      </trkpt>
      <trkpt lat="49.37597" lon="-1.7991">
        <ele>68</ele>
        <time>2023-05-18T12:32:22Z</time>
      </trkpt>
      <trkpt lat="49.37591" lon="-1.79937">
        <ele>68</ele>
        <time>2023-05-18T12:32:26Z</time>
      </trkpt>
      <trkpt lat="49.37584" lon="-1.79963">
        <ele>68</ele>
        <time>2023-05-18T12:32:30Z</time>
      </trkpt>
      <trkpt lat="49.37577" lon="-1.79994">
        <ele>68.1</ele>
        <time>2023-05-18T12:32:35Z</time>
      </trkpt>
      <trkpt lat="49.37567" lon="-1.80023">
        <ele>68.1</ele>
        <time>2023-05-18T12:32:40Z</time>
      </trkpt>
      <trkpt lat="49.37558" lon="-1.80051">
        <ele>67.9</ele>
        <time>2023-05-18T12:32:45Z</time>
      </trkpt>
      <trkpt lat="49.37546" lon="-1.8008">
        <ele>67.3</ele>
        <time>2023-05-18T12:32:50Z</time>
      </trkpt>
      <trkpt lat="49.37537" lon="-1.80106">
        <ele>66.1</ele>
        <time>2023-05-18T12:32:54Z</time>
      </trkpt>
      <trkpt lat="49.37528" lon="-1.80133">
        <ele>64.7</ele>
        <time>2023-05-18T12:32:57Z</time>
      </trkpt>
      <trkpt lat="49.37517" lon="-1.80168">
        <ele>62.5</ele>
        <time>2023-05-18T12:33:00Z</time>
      </trkpt>
      <trkpt lat="49.37509" lon="-1.80195">
        <ele>61</ele>
        <time>2023-05-18T12:33:02Z</time>
      </trkpt>
      <trkpt lat="49.37502" lon="-1.80226">
        <ele>59.5</ele>
        <time>2023-05-18T12:33:04Z</time>
      </trkpt>
      <trkpt lat="49.37495" lon="-1.80257">
        <ele>58.2</ele>
        <time>2023-05-18T12:33:06Z</time>
      </trkpt>
      <trkpt lat="49.37488" lon="-1.80284">
        <ele>57.4</ele>
        <time>2023-05-18T12:33:08Z</time>
      </trkpt>
      <trkpt lat="49.3748" lon="-1.80316">
        <ele>57</ele>
        <time>2023-05-18T12:33:11Z</time>
      </trkpt>
      <trkpt lat="49.37473" lon="-1.80345">
        <ele>57.6</ele>
        <time>2023-05-18T12:33:14Z</time>
      </trkpt>
      <trkpt lat="49.3747" lon="-1.80374">
        <ele>58.7</ele>
        <time>2023-05-18T12:33:18Z</time>
      </trkpt>
      <trkpt lat="49.37459" lon="-1.80395">
        <ele>60.1</ele>
        <time>2023-05-18T12:33:25Z</time>
      </trkpt>
      <trkpt lat="49.37448" lon="-1.80421">
        <ele>61.4</ele>
        <time>2023-05-18T12:33:32Z</time>
      </trkpt>
      <trkpt lat="49.37436" lon="-1.80446">
        <ele>62.8</ele>
        <time>2023-05-18T12:33:40Z</time>
      </trkpt>
      <trkpt lat="49.37428" lon="-1.80471">
        <ele>63.7</ele>
        <time>2023-05-18T12:33:47Z</time>
      </trkpt>
      <trkpt lat="49.3742" lon="-1.805">
        <ele>64.2</ele>
        <time>2023-05-18T12:33:54Z</time>
      </trkpt>
      <trkpt lat="49.37412" lon="-1.80528">
        <ele>64.3</ele>
        <time>2023-05-18T12:34:00Z</time>
      </trkpt>
      <trkpt lat="49.37404" lon="-1.80556">
        <ele>64.3</ele>
        <time>2023-05-18T12:34:06Z</time>
      </trkpt>
      <trkpt lat="49.37397" lon="-1.80585">
        <ele>64.2</ele>
        <time>2023-05-18T12:34:12Z</time>
      </trkpt>
      <trkpt lat="49.37389" lon="-1.80615">
        <ele>64.1</ele>
        <time>2023-05-18T12:34:18Z</time>
      </trkpt>
      <trkpt lat="49.37393" lon="-1.80584">
        <ele>64.2</ele>
        <time>2023-05-18T12:36:31Z</time>
      </trkpt>
      <trkpt lat="49.374" lon="-1.80554">
        <ele>64.3</ele>
        <time>2023-05-18T12:36:37Z</time>
      </trkpt>
      <trkpt lat="49.37409" lon="-1.80525">
        <ele>64.3</ele>
        <time>2023-05-18T12:36:43Z</time>
      </trkpt>
      <trkpt lat="49.37419" lon="-1.80495">
        <ele>64.2</ele>
        <time>2023-05-18T12:36:49Z</time>
      </trkpt>
      <trkpt lat="49.37426" lon="-1.8047">
        <ele>63.7</ele>
        <time>2023-05-18T12:36:54Z</time>
      </trkpt>
      <trkpt lat="49.37438" lon="-1.8044">
        <ele>62.5</ele>
        <time>2023-05-18T12:37:00Z</time>
      </trkpt>
      <trkpt lat="49.37448" lon="-1.80414">
        <ele>61</ele>
        <time>2023-05-18T12:37:04Z</time>
      </trkpt>
      <trkpt lat="49.3746" lon="-1.80388">
        <ele>59.8</ele>
        <time>2023-05-18T12:37:08Z</time>
      </trkpt>
      <trkpt lat="49.37471" lon="-1.80356">
        <ele>57.8</ele>
        <time>2023-05-18T12:37:12Z</time>
      </trkpt>
      <trkpt lat="49.37476" lon="-1.80326">
        <ele>57.2</ele>
        <time>2023-05-18T12:37:16Z</time>
      </trkpt>
      <trkpt lat="49.37454" lon="-1.80321">
        <ele>53.4</ele>
        <time>2023-05-18T12:38:00Z</time>
      </trkpt>
      <trkpt lat="49.37437" lon="-1.80307">
        <ele>50.3</ele>
        <time>2023-05-18T12:38:03Z</time>
      </trkpt>
      <trkpt lat="49.37428" lon="-1.80281">
        <ele>47.2</ele>
        <time>2023-05-18T12:38:06Z</time>
      </trkpt>
      <trkpt lat="49.37419" lon="-1.80253">
        <ele>43.9</ele>
        <time>2023-05-18T12:38:11Z</time>
      </trkpt>
      <trkpt lat="49.37411" lon="-1.80226">
        <ele>40.9</ele>
        <time>2023-05-18T12:38:14Z</time>
      </trkpt>
      <trkpt lat="49.37398" lon="-1.80192">
        <ele>37.3</ele>
        <time>2023-05-18T12:38:17Z</time>
      </trkpt>
      <trkpt lat="49.37387" lon="-1.80166">
        <ele>34.6</ele>
        <time>2023-05-18T12:38:19Z</time>
      </trkpt>
      <trkpt lat="49.37373" lon="-1.80138">
        <ele>32.3</ele>
        <time>2023-05-18T12:38:21Z</time>
      </trkpt>
      <trkpt lat="49.37363" lon="-1.8011">
        <ele>30.5</ele>
        <time>2023-05-18T12:38:23Z</time>
      </trkpt>
      <trkpt lat="49.37351" lon="-1.80078">
        <ele>28.5</ele>
        <time>2023-05-18T12:38:25Z</time>
      </trkpt>
      <trkpt lat="49.37341" lon="-1.80045">
        <ele>26.7</ele>
        <time>2023-05-18T12:38:27Z</time>
      </trkpt>
      <trkpt lat="49.3733" lon="-1.80011">
        <ele>25.4</ele>
        <time>2023-05-18T12:38:29Z</time>
      </trkpt>
      <trkpt lat="49.37322" lon="-1.79978">
        <ele>24.6</ele>
        <time>2023-05-18T12:38:31Z</time>
      </trkpt>
      <trkpt lat="49.37314" lon="-1.79948">
        <ele>24</ele>
        <time>2023-05-18T12:38:33Z</time>
      </trkpt>
      <trkpt lat="49.37308" lon="-1.79917">
        <ele>23.6</ele>
        <time>2023-05-18T12:38:35Z</time>
      </trkpt>
      <trkpt lat="49.37309" lon="-1.7989">
        <ele>23.6</ele>
        <time>2023-05-18T12:38:37Z</time>
      </trkpt>
      <trkpt lat="49.37309" lon="-1.79851">
        <ele>24</ele>
        <time>2023-05-18T12:38:40Z</time>
      </trkpt>
      <trkpt lat="49.37311" lon="-1.79818">
        <ele>24.7</ele>
        <time>2023-05-18T12:38:43Z</time>
      </trkpt>
      <trkpt lat="49.37312" lon="-1.79789">
        <ele>25.3</ele>
        <time>2023-05-18T12:38:46Z</time>
      </trkpt>
      <trkpt lat="49.37311" lon="-1.79755">
        <ele>26.3</ele>
        <time>2023-05-18T12:38:50Z</time>
      </trkpt>
      <trkpt lat="49.37308" lon="-1.79724">
        <ele>27.5</ele>
        <time>2023-05-18T12:38:55Z</time>
      </trkpt>
      <trkpt lat="49.37306" lon="-1.79695">
        <ele>28.5</ele>
        <time>2023-05-18T12:39:01Z</time>
      </trkpt>
      <trkpt lat="49.3731" lon="-1.79665">
        <ele>29.4</ele>
        <time>2023-05-18T12:39:07Z</time>
      </trkpt>
      <trkpt lat="49.37315" lon="-1.79636">
        <ele>30.3</ele>
        <time>2023-05-18T12:39:13Z</time>
      </trkpt>
      <trkpt lat="49.37318" lon="-1.79607">
        <ele>31.4</ele>
        <time>2023-05-18T12:39:19Z</time>
      </trkpt>
      <trkpt lat="49.37316" lon="-1.79578">
        <ele>32.5</ele>
        <time>2023-05-18T12:39:25Z</time>
      </trkpt>
      <trkpt lat="49.3731" lon="-1.7955">
        <ele>33.9</ele>
        <time>2023-05-18T12:39:34Z</time>
      </trkpt>
      <trkpt lat="49.37308" lon="-1.79522">
        <ele>35.3</ele>
        <time>2023-05-18T12:39:43Z</time>
      </trkpt>
      <trkpt lat="49.3731" lon="-1.79493">
        <ele>36.2</ele>
        <time>2023-05-18T12:39:52Z</time>
      </trkpt>
      <trkpt lat="49.373" lon="-1.79466">
        <ele>36.5</ele>
        <time>2023-05-18T12:40:00Z</time>
      </trkpt>
      <trkpt lat="49.3728" lon="-1.79448">
        <ele>35.9</ele>
        <time>2023-05-18T12:40:05Z</time>
      </trkpt>
      <trkpt lat="49.37262" lon="-1.79425">
        <ele>35.4</ele>
        <time>2023-05-18T12:40:09Z</time>
      </trkpt>
      <trkpt lat="49.37253" lon="-1.794">
        <ele>35.9</ele>
        <time>2023-05-18T12:40:12Z</time>
      </trkpt>
      <trkpt lat="49.37247" lon="-1.7937">
        <ele>37.2</ele>
        <time>2023-05-18T12:40:16Z</time>
      </trkpt>
      <trkpt lat="49.3724" lon="-1.79341">
        <ele>38.7</ele>
        <time>2023-05-18T12:40:23Z</time>
      </trkpt>
      <trkpt lat="49.37232" lon="-1.79317">
        <ele>40.3</ele>
        <time>2023-05-18T12:40:31Z</time>
      </trkpt>
      <trkpt lat="49.37228" lon="-1.79288">
        <ele>41.5</ele>
        <time>2023-05-18T12:40:39Z</time>
      </trkpt>
      <trkpt lat="49.37211" lon="-1.79265">
        <ele>41.9</ele>
        <time>2023-05-18T12:41:23Z</time>
      </trkpt>
      <trkpt lat="49.37227" lon="-1.79253">
        <ele>41.4</ele>
        <time>2023-05-18T12:43:10Z</time>
      </trkpt>
      <trkpt lat="49.37227" lon="-1.79224">
        <ele>40.4</ele>
        <time>2023-05-18T12:43:17Z</time>
      </trkpt>
      <trkpt lat="49.37232" lon="-1.79192">
        <ele>39</ele>
        <time>2023-05-18T12:43:22Z</time>
      </trkpt>
      <trkpt lat="49.37236" lon="-1.79159">
        <ele>37.4</ele>
        <time>2023-05-18T12:43:26Z</time>
      </trkpt>
      <trkpt lat="49.37246" lon="-1.79132">
        <ele>35.9</ele>
        <time>2023-05-18T12:43:29Z</time>
      </trkpt>
      <trkpt lat="49.37262" lon="-1.79106">
        <ele>34</ele>
        <time>2023-05-18T12:43:32Z</time>
      </trkpt>
      <trkpt lat="49.37287" lon="-1.79103">
        <ele>31.8</ele>
        <time>2023-05-18T12:43:35Z</time>
      </trkpt>
      <trkpt lat="49.37305" lon="-1.79107">
        <ele>30.1</ele>
        <time>2023-05-18T12:43:37Z</time>
      </trkpt>
      <trkpt lat="49.37323" lon="-1.79108">
        <ele>28.2</ele>
        <time>2023-05-18T12:43:39Z</time>
      </trkpt>
      <trkpt lat="49.37342" lon="-1.79104">
        <ele>26.3</ele>
        <time>2023-05-18T12:43:41Z</time>
      </trkpt>
      <trkpt lat="49.37361" lon="-1.79093">
        <ele>24.3</ele>
        <time>2023-05-18T12:43:43Z</time>
      </trkpt>
      <trkpt lat="49.37382" lon="-1.79077">
        <ele>21.8</ele>
        <time>2023-05-18T12:43:46Z</time>
      </trkpt>
      <trkpt lat="49.37405" lon="-1.79057">
        <ele>19.1</ele>
        <time>2023-05-18T12:43:49Z</time>
      </trkpt>
      <trkpt lat="49.37426" lon="-1.79032">
        <ele>16.6</ele>
        <time>2023-05-18T12:43:52Z</time>
      </trkpt>
      <trkpt lat="49.37443" lon="-1.79012">
        <ele>14.7</ele>
        <time>2023-05-18T12:43:55Z</time>
      </trkpt>
      <trkpt lat="49.3742" lon="-1.79019">
        <ele>10</ele>
        <time>2023-05-18T12:44:04Z</time>
      </trkpt>
      <trkpt lat="49.37399" lon="-1.79036">
        <ele>8.7</ele>
        <time>2023-05-18T12:44:07Z</time>
      </trkpt>
      <trkpt lat="49.3738" lon="-1.79036">
        <ele>8</ele>
        <time>2023-05-18T12:44:11Z</time>
      </trkpt>
      <trkpt lat="49.37386" lon="-1.79008">
        <ele>7.5</ele>
        <time>2023-05-18T12:44:17Z</time>
      </trkpt>
      <trkpt lat="49.37404" lon="-1.78998">
        <ele>7.3</ele>
        <time>2023-05-18T12:44:21Z</time>
      </trkpt>
      <trkpt lat="49.37422" lon="-1.78987">
        <ele>7.3</ele>
        <time>2023-05-18T12:44:25Z</time>
      </trkpt>
      <trkpt lat="49.37439" lon="-1.78971">
        <ele>7.2</ele>
        <time>2023-05-18T12:44:29Z</time>
      </trkpt>
      <trkpt lat="49.37455" lon="-1.78955">
        <ele>7.2</ele>
        <time>2023-05-18T12:44:33Z</time>
      </trkpt>
      <trkpt lat="49.37471" lon="-1.78936">
        <ele>7.2</ele>
        <time>2023-05-18T12:44:37Z</time>
      </trkpt>
      <trkpt lat="49.37487" lon="-1.7892">
        <ele>7.2</ele>
        <time>2023-05-18T12:44:41Z</time>
      </trkpt>
      <trkpt lat="49.37504" lon="-1.78907">
        <ele>7.2</ele>
        <time>2023-05-18T12:44:45Z</time>
      </trkpt>
      <trkpt lat="49.37522" lon="-1.78895">
        <ele>7.2</ele>
        <time>2023-05-18T12:44:49Z</time>
      </trkpt>
      <trkpt lat="49.37539" lon="-1.78883">
        <ele>7.3</ele>
        <time>2023-05-18T12:44:53Z</time>
      </trkpt>
      <trkpt lat="49.37559" lon="-1.7887">
        <ele>7.4</ele>
        <time>2023-05-18T12:44:58Z</time>
      </trkpt>
      <trkpt lat="49.37578" lon="-1.78858">
        <ele>7.6</ele>
        <time>2023-05-18T12:45:03Z</time>
      </trkpt>
      <trkpt lat="49.37598" lon="-1.78846">
        <ele>7.7</ele>
        <time>2023-05-18T12:45:08Z</time>
      </trkpt>
      <trkpt lat="49.37612" lon="-1.78826">
        <ele>7.8</ele>
        <time>2023-05-18T12:45:12Z</time>
      </trkpt>
      <trkpt lat="49.37624" lon="-1.78805">
        <ele>7.9</ele>
        <time>2023-05-18T12:45:16Z</time>
      </trkpt>
      <trkpt lat="49.37636" lon="-1.78785">
        <ele>8</ele>
        <time>2023-05-18T12:45:20Z</time>
      </trkpt>
      <trkpt lat="49.37649" lon="-1.78763">
        <ele>8</ele>
        <time>2023-05-18T12:45:24Z</time>
      </trkpt>
      <trkpt lat="49.37662" lon="-1.78744">
        <ele>8.1</ele>
        <time>2023-05-18T12:45:28Z</time>
      </trkpt>
      <trkpt lat="49.37679" lon="-1.78721">
        <ele>8.3</ele>
        <time>2023-05-18T12:45:33Z</time>
      </trkpt>
      <trkpt lat="49.37694" lon="-1.78696">
        <ele>8.4</ele>
        <time>2023-05-18T12:45:38Z</time>
      </trkpt>
      <trkpt lat="49.37706" lon="-1.78676">
        <ele>8.6</ele>
        <time>2023-05-18T12:45:42Z</time>
      </trkpt>
      <trkpt lat="49.37719" lon="-1.78655">
        <ele>8.9</ele>
        <time>2023-05-18T12:45:46Z</time>
      </trkpt>
      <trkpt lat="49.37733" lon="-1.78628">
        <ele>8.7</ele>
        <time>2023-05-18T12:45:51Z</time>
      </trkpt>
      <trkpt lat="49.37741" lon="-1.78603">
        <ele>8.6</ele>
        <time>2023-05-18T12:45:55Z</time>
      </trkpt>
      <trkpt lat="49.37752" lon="-1.78577">
        <ele>8.4</ele>
        <time>2023-05-18T12:45:59Z</time>
      </trkpt>
      <trkpt lat="49.37765" lon="-1.78557">
        <ele>8.1</ele>
        <time>2023-05-18T12:46:03Z</time>
      </trkpt>
      <trkpt lat="49.37775" lon="-1.78526">
        <ele>7.7</ele>
        <time>2023-05-18T12:46:07Z</time>
      </trkpt>
      <trkpt lat="49.37787" lon="-1.78498">
        <ele>7.3</ele>
        <time>2023-05-18T12:46:11Z</time>
      </trkpt>
      <trkpt lat="49.37796" lon="-1.78473">
        <ele>7.2</ele>
        <time>2023-05-18T12:46:14Z</time>
      </trkpt>
      <trkpt lat="49.37805" lon="-1.78442">
        <ele>7.1</ele>
        <time>2023-05-18T12:46:18Z</time>
      </trkpt>
      <trkpt lat="49.37813" lon="-1.78412">
        <ele>7</ele>
        <time>2023-05-18T12:46:22Z</time>
      </trkpt>
      <trkpt lat="49.37819" lon="-1.78381">
        <ele>7</ele>
        <time>2023-05-18T12:46:26Z</time>
      </trkpt>
      <trkpt lat="49.37821" lon="-1.78349">
        <ele>6.9</ele>
        <time>2023-05-18T12:46:30Z</time>
      </trkpt>
      <trkpt lat="49.3782" lon="-1.78317">
        <ele>6.8</ele>
        <time>2023-05-18T12:46:34Z</time>
      </trkpt>
      <trkpt lat="49.37822" lon="-1.78287">
        <ele>6.8</ele>
        <time>2023-05-18T12:46:38Z</time>
      </trkpt>
      <trkpt lat="49.37827" lon="-1.78257">
        <ele>6.9</ele>
        <time>2023-05-18T12:46:42Z</time>
      </trkpt>
      <trkpt lat="49.37832" lon="-1.78227">
        <ele>6.9</ele>
        <time>2023-05-18T12:46:46Z</time>
      </trkpt>
      <trkpt lat="49.37836" lon="-1.78199">
        <ele>6.9</ele>
        <time>2023-05-18T12:46:50Z</time>
      </trkpt>
      <trkpt lat="49.3784" lon="-1.78168">
        <ele>7</ele>
        <time>2023-05-18T12:46:54Z</time>
      </trkpt>
      <trkpt lat="49.37844" lon="-1.78138">
        <ele>7</ele>
        <time>2023-05-18T12:46:58Z</time>
      </trkpt>
      <trkpt lat="49.37849" lon="-1.78108">
        <ele>7</ele>
        <time>2023-05-18T12:47:02Z</time>
      </trkpt>
      <trkpt lat="49.37855" lon="-1.78076">
        <ele>6.9</ele>
        <time>2023-05-18T12:47:06Z</time>
      </trkpt>
      <trkpt lat="49.37861" lon="-1.78044">
        <ele>6.9</ele>
        <time>2023-05-18T12:47:10Z</time>
      </trkpt>
      <trkpt lat="49.37868" lon="-1.78014">
        <ele>6.8</ele>
        <time>2023-05-18T12:47:14Z</time>
      </trkpt>
      <trkpt lat="49.37879" lon="-1.77985">
        <ele>6.8</ele>
        <time>2023-05-18T12:47:18Z</time>
      </trkpt>
      <trkpt lat="49.37889" lon="-1.77958">
        <ele>6.8</ele>
        <time>2023-05-18T12:47:22Z</time>
      </trkpt>
      <trkpt lat="49.37902" lon="-1.77936">
        <ele>6.8</ele>
        <time>2023-05-18T12:47:26Z</time>
      </trkpt>
      <trkpt lat="49.37918" lon="-1.77949">
        <ele>6.8</ele>
        <time>2023-05-18T12:47:30Z</time>
      </trkpt>
      <trkpt lat="49.37937" lon="-1.77963">
        <ele>6.8</ele>
        <time>2023-05-18T12:47:34Z</time>
      </trkpt>
      <trkpt lat="49.37959" lon="-1.77972">
        <ele>6.8</ele>
        <time>2023-05-18T12:47:38Z</time>
      </trkpt>
      <trkpt lat="49.37978" lon="-1.77973">
        <ele>6.8</ele>
        <time>2023-05-18T12:47:42Z</time>
      </trkpt>
      <trkpt lat="49.37998" lon="-1.77977">
        <ele>6.9</ele>
        <time>2023-05-18T12:47:46Z</time>
      </trkpt>
      <trkpt lat="49.3802" lon="-1.77977">
        <ele>7</ele>
        <time>2023-05-18T12:47:50Z</time>
      </trkpt>
      <trkpt lat="49.3804" lon="-1.77978">
        <ele>7.1</ele>
        <time>2023-05-18T12:47:54Z</time>
      </trkpt>
      <trkpt lat="49.3806" lon="-1.7798">
        <ele>7.4</ele>
        <time>2023-05-18T12:47:58Z</time>
      </trkpt>
      <trkpt lat="49.38078" lon="-1.77972">
        <ele>7.7</ele>
        <time>2023-05-18T12:48:02Z</time>
      </trkpt>
      <trkpt lat="49.38087" lon="-1.77943">
        <ele>7.5</ele>
        <time>2023-05-18T12:48:06Z</time>
      </trkpt>
      <trkpt lat="49.38095" lon="-1.77912">
        <ele>7.4</ele>
        <time>2023-05-18T12:48:10Z</time>
      </trkpt>
      <trkpt lat="49.38104" lon="-1.77879">
        <ele>7.2</ele>
        <time>2023-05-18T12:48:14Z</time>
      </trkpt>
      <trkpt lat="49.38111" lon="-1.77854">
        <ele>7.1</ele>
        <time>2023-05-18T12:48:17Z</time>
      </trkpt>
      <trkpt lat="49.3812" lon="-1.77821">
        <ele>7</ele>
        <time>2023-05-18T12:48:21Z</time>
      </trkpt>
      <trkpt lat="49.38127" lon="-1.77793">
        <ele>6.9</ele>
        <time>2023-05-18T12:48:24Z</time>
      </trkpt>
      <trkpt lat="49.38132" lon="-1.77767">
        <ele>6.8</ele>
        <time>2023-05-18T12:48:27Z</time>
      </trkpt>
      <trkpt lat="49.38141" lon="-1.77732">
        <ele>6.9</ele>
        <time>2023-05-18T12:48:31Z</time>
      </trkpt>
      <trkpt lat="49.38148" lon="-1.77707">
        <ele>7</ele>
        <time>2023-05-18T12:48:34Z</time>
      </trkpt>
      <trkpt lat="49.38158" lon="-1.77675">
        <ele>7.4</ele>
        <time>2023-05-18T12:48:38Z</time>
      </trkpt>
      <trkpt lat="49.38166" lon="-1.77644">
        <ele>7.8</ele>
        <time>2023-05-18T12:48:42Z</time>
      </trkpt>
      <trkpt lat="49.38175" lon="-1.77614">
        <ele>8.2</ele>
        <time>2023-05-18T12:48:46Z</time>
      </trkpt>
      <trkpt lat="49.38182" lon="-1.77585">
        <ele>8.5</ele>
        <time>2023-05-18T12:48:50Z</time>
      </trkpt>
      <trkpt lat="49.38188" lon="-1.77556">
        <ele>8.9</ele>
        <time>2023-05-18T12:48:54Z</time>
      </trkpt>
      <trkpt lat="49.38196" lon="-1.77529">
        <ele>9.2</ele>
        <time>2023-05-18T12:48:58Z</time>
      </trkpt>
      <trkpt lat="49.38204" lon="-1.77504">
        <ele>9.4</ele>
        <time>2023-05-18T12:49:02Z</time>
      </trkpt>
      <trkpt lat="49.38213" lon="-1.77477">
        <ele>9.7</ele>
        <time>2023-05-18T12:49:06Z</time>
      </trkpt>
      <trkpt lat="49.3822" lon="-1.77451">
        <ele>9.9</ele>
        <time>2023-05-18T12:49:10Z</time>
      </trkpt>
      <trkpt lat="49.38226" lon="-1.77425">
        <ele>10.2</ele>
        <time>2023-05-18T12:49:14Z</time>
      </trkpt>
      <trkpt lat="49.38234" lon="-1.77399">
        <ele>10.4</ele>
        <time>2023-05-18T12:49:18Z</time>
      </trkpt>
      <trkpt lat="49.3824" lon="-1.77373">
        <ele>10.6</ele>
        <time>2023-05-18T12:49:22Z</time>
      </trkpt>
      <trkpt lat="49.38246" lon="-1.77346">
        <ele>10.8</ele>
        <time>2023-05-18T12:49:26Z</time>
      </trkpt>
      <trkpt lat="49.38252" lon="-1.77318">
        <ele>10.9</ele>
        <time>2023-05-18T12:49:30Z</time>
      </trkpt>
      <trkpt lat="49.38259" lon="-1.77289">
        <ele>10.9</ele>
        <time>2023-05-18T12:49:34Z</time>
      </trkpt>
      <trkpt lat="49.3827" lon="-1.7726">
        <ele>11</ele>
        <time>2023-05-18T12:49:38Z</time>
      </trkpt>
      <trkpt lat="49.38279" lon="-1.77234">
        <ele>11.2</ele>
        <time>2023-05-18T12:49:42Z</time>
      </trkpt>
      <trkpt lat="49.38287" lon="-1.77202">
        <ele>11.5</ele>
        <time>2023-05-18T12:49:47Z</time>
      </trkpt>
      <trkpt lat="49.38295" lon="-1.77172">
        <ele>11.9</ele>
        <time>2023-05-18T12:49:52Z</time>
      </trkpt>
      <trkpt lat="49.38302" lon="-1.77142">
        <ele>12.2</ele>
        <time>2023-05-18T12:49:57Z</time>
      </trkpt>
      <trkpt lat="49.3831" lon="-1.77111">
        <ele>12.4</ele>
        <time>2023-05-18T12:50:02Z</time>
      </trkpt>
      <trkpt lat="49.38318" lon="-1.77082">
        <ele>12.4</ele>
        <time>2023-05-18T12:50:07Z</time>
      </trkpt>
      <trkpt lat="49.38326" lon="-1.77052">
        <ele>12.5</ele>
        <time>2023-05-18T12:50:12Z</time>
      </trkpt>
      <trkpt lat="49.38335" lon="-1.77021">
        <ele>12.6</ele>
        <time>2023-05-18T12:50:17Z</time>
      </trkpt>
      <trkpt lat="49.38344" lon="-1.7699">
        <ele>12.7</ele>
        <time>2023-05-18T12:50:22Z</time>
      </trkpt>
      <trkpt lat="49.38351" lon="-1.76965">
        <ele>12.8</ele>
        <time>2023-05-18T12:50:26Z</time>
      </trkpt>
      <trkpt lat="49.38358" lon="-1.76938">
        <ele>13</ele>
        <time>2023-05-18T12:50:30Z</time>
      </trkpt>
      <trkpt lat="49.38365" lon="-1.76911">
        <ele>13.1</ele>
        <time>2023-05-18T12:50:34Z</time>
      </trkpt>
      <trkpt lat="49.38373" lon="-1.76884">
        <ele>13.4</ele>
        <time>2023-05-18T12:50:38Z</time>
      </trkpt>
      <trkpt lat="49.3838" lon="-1.76858">
        <ele>13.6</ele>
        <time>2023-05-18T12:50:42Z</time>
      </trkpt>
      <trkpt lat="49.3839" lon="-1.76833">
        <ele>13.7</ele>
        <time>2023-05-18T12:50:46Z</time>
      </trkpt>
      <trkpt lat="49.384" lon="-1.76809">
        <ele>13.7</ele>
        <time>2023-05-18T12:50:50Z</time>
      </trkpt>
      <trkpt lat="49.38404" lon="-1.76782">
        <ele>13.6</ele>
        <time>2023-05-18T12:50:54Z</time>
      </trkpt>
      <trkpt lat="49.3841" lon="-1.76753">
        <ele>13.4</ele>
        <time>2023-05-18T12:50:58Z</time>
      </trkpt>
      <trkpt lat="49.38415" lon="-1.76723">
        <ele>13.3</ele>
        <time>2023-05-18T12:51:02Z</time>
      </trkpt>
      <trkpt lat="49.38412" lon="-1.7669">
        <ele>12.6</ele>
        <time>2023-05-18T12:51:07Z</time>
      </trkpt>
      <trkpt lat="49.38404" lon="-1.7666">
        <ele>11.6</ele>
        <time>2023-05-18T12:51:11Z</time>
      </trkpt>
      <trkpt lat="49.38395" lon="-1.76625">
        <ele>10.5</ele>
        <time>2023-05-18T12:51:15Z</time>
      </trkpt>
      <trkpt lat="49.38388" lon="-1.76596">
        <ele>9.7</ele>
        <time>2023-05-18T12:51:18Z</time>
      </trkpt>
      <trkpt lat="49.38381" lon="-1.76565">
        <ele>8.9</ele>
        <time>2023-05-18T12:51:21Z</time>
      </trkpt>
      <trkpt lat="49.38374" lon="-1.76532">
        <ele>8.3</ele>
        <time>2023-05-18T12:51:24Z</time>
      </trkpt>
      <trkpt lat="49.38366" lon="-1.76496">
        <ele>8</ele>
        <time>2023-05-18T12:51:27Z</time>
      </trkpt>
      <trkpt lat="49.38359" lon="-1.76463">
        <ele>8</ele>
        <time>2023-05-18T12:51:30Z</time>
      </trkpt>
      <trkpt lat="49.38353" lon="-1.76433">
        <ele>8.1</ele>
        <time>2023-05-18T12:51:33Z</time>
      </trkpt>
      <trkpt lat="49.38346" lon="-1.76397">
        <ele>8.2</ele>
        <time>2023-05-18T12:51:37Z</time>
      </trkpt>
      <trkpt lat="49.38339" lon="-1.76369">
        <ele>8.1</ele>
        <time>2023-05-18T12:51:40Z</time>
      </trkpt>
      <trkpt lat="49.38331" lon="-1.76337">
        <ele>8.3</ele>
        <time>2023-05-18T12:51:44Z</time>
      </trkpt>
      <trkpt lat="49.38326" lon="-1.76307">
        <ele>8.6</ele>
        <time>2023-05-18T12:51:48Z</time>
      </trkpt>
      <trkpt lat="49.38321" lon="-1.76281">
        <ele>8.9</ele>
        <time>2023-05-18T12:51:52Z</time>
      </trkpt>
      <trkpt lat="49.38316" lon="-1.76254">
        <ele>9.3</ele>
        <time>2023-05-18T12:51:56Z</time>
      </trkpt>
      <trkpt lat="49.38311" lon="-1.76224">
        <ele>9.9</ele>
        <time>2023-05-18T12:52:01Z</time>
      </trkpt>
      <trkpt lat="49.38306" lon="-1.76194">
        <ele>10.5</ele>
        <time>2023-05-18T12:52:06Z</time>
      </trkpt>
      <trkpt lat="49.38301" lon="-1.76164">
        <ele>11.2</ele>
        <time>2023-05-18T12:52:11Z</time>
      </trkpt>
      <trkpt lat="49.38296" lon="-1.76135">
        <ele>11.8</ele>
        <time>2023-05-18T12:52:16Z</time>
      </trkpt>
      <trkpt lat="49.38292" lon="-1.76103">
        <ele>12.6</ele>
        <time>2023-05-18T12:52:22Z</time>
      </trkpt>
      <trkpt lat="49.38289" lon="-1.76074">
        <ele>13.4</ele>
        <time>2023-05-18T12:52:28Z</time>
      </trkpt>
      <trkpt lat="49.38284" lon="-1.76044">
        <ele>14.2</ele>
        <time>2023-05-18T12:52:35Z</time>
      </trkpt>
      <trkpt lat="49.3828" lon="-1.76012">
        <ele>15.2</ele>
        <time>2023-05-18T12:52:42Z</time>
      </trkpt>
      <trkpt lat="49.38277" lon="-1.75985">
        <ele>15.9</ele>
        <time>2023-05-18T12:52:48Z</time>
      </trkpt>
      <trkpt lat="49.38274" lon="-1.75956">
        <ele>16.8</ele>
        <time>2023-05-18T12:52:54Z</time>
      </trkpt>
      <trkpt lat="49.38271" lon="-1.75925">
        <ele>17.7</ele>
        <time>2023-05-18T12:53:01Z</time>
      </trkpt>
      <trkpt lat="49.38268" lon="-1.75895">
        <ele>18.7</ele>
        <time>2023-05-18T12:53:08Z</time>
      </trkpt>
      <trkpt lat="49.38265" lon="-1.75867">
        <ele>19.6</ele>
        <time>2023-05-18T12:53:15Z</time>
      </trkpt>
      <trkpt lat="49.38263" lon="-1.75838">
        <ele>20.5</ele>
        <time>2023-05-18T12:53:22Z</time>
      </trkpt>
      <trkpt lat="49.38261" lon="-1.75806">
        <ele>21.6</ele>
        <time>2023-05-18T12:53:29Z</time>
      </trkpt>
      <trkpt lat="49.38259" lon="-1.75774">
        <ele>22.2</ele>
        <time>2023-05-18T12:53:36Z</time>
      </trkpt>
      <trkpt lat="49.38257" lon="-1.75744">
        <ele>23</ele>
        <time>2023-05-18T12:53:43Z</time>
      </trkpt>
      <trkpt lat="49.38256" lon="-1.75716">
        <ele>23.8</ele>
        <time>2023-05-18T12:53:49Z</time>
      </trkpt>
      <trkpt lat="49.38255" lon="-1.75684">
        <ele>24.7</ele>
        <time>2023-05-18T12:53:56Z</time>
      </trkpt>
      <trkpt lat="49.38252" lon="-1.75656">
        <ele>25.4</ele>
        <time>2023-05-18T12:54:02Z</time>
      </trkpt>
      <trkpt lat="49.38251" lon="-1.75626">
        <ele>26.1</ele>
        <time>2023-05-18T12:54:08Z</time>
      </trkpt>
      <trkpt lat="49.38251" lon="-1.75596">
        <ele>26.8</ele>
        <time>2023-05-18T12:54:14Z</time>
      </trkpt>
      <trkpt lat="49.38249" lon="-1.75567">
        <ele>27.4</ele>
        <time>2023-05-18T12:54:20Z</time>
      </trkpt>
      <trkpt lat="49.38242" lon="-1.7554">
        <ele>28</ele>
        <time>2023-05-18T12:54:26Z</time>
      </trkpt>
      <trkpt lat="49.38238" lon="-1.75511">
        <ele>28.5</ele>
        <time>2023-05-18T12:54:32Z</time>
      </trkpt>
      <trkpt lat="49.38233" lon="-1.75482">
        <ele>29</ele>
        <time>2023-05-18T12:54:39Z</time>
      </trkpt>
      <trkpt lat="49.38224" lon="-1.75454">
        <ele>29.5</ele>
        <time>2023-05-18T12:54:45Z</time>
      </trkpt>
      <trkpt lat="49.38207" lon="-1.75432">
        <ele>30</ele>
        <time>2023-05-18T12:54:50Z</time>
      </trkpt>
      <trkpt lat="49.38201" lon="-1.75399">
        <ele>30.6</ele>
        <time>2023-05-18T12:54:55Z</time>
      </trkpt>
      <trkpt lat="49.38192" lon="-1.75375">
        <ele>31</ele>
        <time>2023-05-18T12:55:00Z</time>
      </trkpt>
      <trkpt lat="49.38184" lon="-1.75347">
        <ele>31.5</ele>
        <time>2023-05-18T12:55:06Z</time>
      </trkpt>
      <trkpt lat="49.38174" lon="-1.75318">
        <ele>32</ele>
        <time>2023-05-18T12:55:12Z</time>
      </trkpt>
      <trkpt lat="49.38164" lon="-1.7529">
        <ele>32.4</ele>
        <time>2023-05-18T12:55:17Z</time>
      </trkpt>
      <trkpt lat="49.3815" lon="-1.7527">
        <ele>32.7</ele>
        <time>2023-05-18T12:55:23Z</time>
      </trkpt>
      <trkpt lat="49.38135" lon="-1.75248">
        <ele>33.1</ele>
        <time>2023-05-18T12:55:28Z</time>
      </trkpt>
      <trkpt lat="49.38121" lon="-1.75227">
        <ele>33.9</ele>
        <time>2023-05-18T12:55:33Z</time>
      </trkpt>
      <trkpt lat="49.38109" lon="-1.75204">
        <ele>34.7</ele>
        <time>2023-05-18T12:55:38Z</time>
      </trkpt>
      <trkpt lat="49.38099" lon="-1.75178">
        <ele>35.4</ele>
        <time>2023-05-18T12:55:43Z</time>
      </trkpt>
      <trkpt lat="49.38099" lon="-1.75145">
        <ele>36</ele>
        <time>2023-05-18T12:55:48Z</time>
      </trkpt>
      <trkpt lat="49.38093" lon="-1.75116">
        <ele>36.8</ele>
        <time>2023-05-18T12:55:53Z</time>
      </trkpt>
      <trkpt lat="49.38082" lon="-1.75089">
        <ele>37.7</ele>
        <time>2023-05-18T12:55:59Z</time>
      </trkpt>
      <trkpt lat="49.38077" lon="-1.75062">
        <ele>38.2</ele>
        <time>2023-05-18T12:56:05Z</time>
      </trkpt>
      <trkpt lat="49.3807" lon="-1.75032">
        <ele>39</ele>
        <time>2023-05-18T12:56:11Z</time>
      </trkpt>
      <trkpt lat="49.38062" lon="-1.75003">
        <ele>40</ele>
        <time>2023-05-18T12:56:18Z</time>
      </trkpt>
      <trkpt lat="49.38052" lon="-1.74977">
        <ele>41.1</ele>
        <time>2023-05-18T12:56:25Z</time>
      </trkpt>
      <trkpt lat="49.38041" lon="-1.74954">
        <ele>42.1</ele>
        <time>2023-05-18T12:56:32Z</time>
      </trkpt>
      <trkpt lat="49.3803" lon="-1.74931">
        <ele>43.1</ele>
        <time>2023-05-18T12:56:39Z</time>
      </trkpt>
      <trkpt lat="49.38018" lon="-1.74907">
        <ele>44.2</ele>
        <time>2023-05-18T12:56:46Z</time>
      </trkpt>
      <trkpt lat="49.38005" lon="-1.74883">
        <ele>45.3</ele>
        <time>2023-05-18T12:56:53Z</time>
      </trkpt>
      <trkpt lat="49.37993" lon="-1.74862">
        <ele>46.4</ele>
        <time>2023-05-18T12:56:59Z</time>
      </trkpt>
      <trkpt lat="49.3798" lon="-1.7484">
        <ele>47.3</ele>
        <time>2023-05-18T12:57:06Z</time>
      </trkpt>
      <trkpt lat="49.37969" lon="-1.74818">
        <ele>48</ele>
        <time>2023-05-18T12:57:13Z</time>
      </trkpt>
      <trkpt lat="49.37955" lon="-1.74795">
        <ele>48.6</ele>
        <time>2023-05-18T12:57:20Z</time>
      </trkpt>
      <trkpt lat="49.3794" lon="-1.74776">
        <ele>48.7</ele>
        <time>2023-05-18T12:58:28Z</time>
      </trkpt>
      <trkpt lat="49.37924" lon="-1.74796">
        <ele>47</ele>
        <time>2023-05-18T12:58:36Z</time>
      </trkpt>
      <trkpt lat="49.37922" lon="-1.74825">
        <ele>45.2</ele>
        <time>2023-05-18T12:58:40Z</time>
      </trkpt>
      <trkpt lat="49.37923" lon="-1.74859">
        <ele>43.1</ele>
        <time>2023-05-18T12:58:44Z</time>
      </trkpt>
      <trkpt lat="49.37922" lon="-1.74894">
        <ele>40.8</ele>
        <time>2023-05-18T12:58:47Z</time>
      </trkpt>
      <trkpt lat="49.37921" lon="-1.74932">
        <ele>38.4</ele>
        <time>2023-05-18T12:58:50Z</time>
      </trkpt>
      <trkpt lat="49.37922" lon="-1.7497">
        <ele>36.1</ele>
        <time>2023-05-18T12:58:53Z</time>
      </trkpt>
      <trkpt lat="49.37926" lon="-1.75002">
        <ele>34.2</ele>
        <time>2023-05-18T12:58:56Z</time>
      </trkpt>
      <trkpt lat="49.37937" lon="-1.75027">
        <ele>32.1</ele>
        <time>2023-05-18T12:59:00Z</time>
      </trkpt>
      <trkpt lat="49.37917" lon="-1.75014">
        <ele>30.6</ele>
        <time>2023-05-18T12:59:10Z</time>
      </trkpt>
      <trkpt lat="49.37903" lon="-1.74992">
        <ele>29.2</ele>
        <time>2023-05-18T12:59:13Z</time>
      </trkpt>
      <trkpt lat="49.37887" lon="-1.74967">
        <ele>27.4</ele>
        <time>2023-05-18T12:59:16Z</time>
      </trkpt>
      <trkpt lat="49.37867" lon="-1.74942">
        <ele>25.8</ele>
        <time>2023-05-18T12:59:19Z</time>
      </trkpt>
      <trkpt lat="49.37843" lon="-1.7492">
        <ele>24.3</ele>
        <time>2023-05-18T12:59:22Z</time>
      </trkpt>
      <trkpt lat="49.37819" lon="-1.74902">
        <ele>23.1</ele>
        <time>2023-05-18T12:59:25Z</time>
      </trkpt>
      <trkpt lat="49.37802" lon="-1.74889">
        <ele>22.4</ele>
        <time>2023-05-18T12:59:27Z</time>
      </trkpt>
      <trkpt lat="49.37787" lon="-1.74874">
        <ele>21.8</ele>
        <time>2023-05-18T12:59:29Z</time>
      </trkpt>
      <trkpt lat="49.37765" lon="-1.74854">
        <ele>21.1</ele>
        <time>2023-05-18T12:59:32Z</time>
      </trkpt>
      <trkpt lat="49.37743" lon="-1.74832">
        <ele>20.4</ele>
        <time>2023-05-18T12:59:35Z</time>
      </trkpt>
      <trkpt lat="49.37724" lon="-1.74809">
        <ele>19.9</ele>
        <time>2023-05-18T12:59:38Z</time>
      </trkpt>
      <trkpt lat="49.37706" lon="-1.74784">
        <ele>19.5</ele>
        <time>2023-05-18T12:59:41Z</time>
      </trkpt>
      <trkpt lat="49.37687" lon="-1.7476">
        <ele>19.1</ele>
        <time>2023-05-18T12:59:44Z</time>
      </trkpt>
      <trkpt lat="49.37669" lon="-1.74736">
        <ele>18.6</ele>
        <time>2023-05-18T12:59:47Z</time>
      </trkpt>
      <trkpt lat="49.37651" lon="-1.74714">
        <ele>18.1</ele>
        <time>2023-05-18T12:59:50Z</time>
      </trkpt>
      <trkpt lat="49.37632" lon="-1.74693">
        <ele>17.6</ele>
        <time>2023-05-18T12:59:53Z</time>
      </trkpt>
      <trkpt lat="49.37611" lon="-1.74672">
        <ele>17.2</ele>
        <time>2023-05-18T12:59:56Z</time>
      </trkpt>
      <trkpt lat="49.37594" lon="-1.74649">
        <ele>17</ele>
        <time>2023-05-18T12:59:59Z</time>
      </trkpt>
      <trkpt lat="49.37578" lon="-1.74626">
        <ele>16.7</ele>
        <time>2023-05-18T13:00:02Z</time>
      </trkpt>
      <trkpt lat="49.37562" lon="-1.74603">
        <ele>16.4</ele>
        <time>2023-05-18T13:00:05Z</time>
      </trkpt>
      <trkpt lat="49.37543" lon="-1.74585">
        <ele>16.1</ele>
        <time>2023-05-18T13:00:08Z</time>
      </trkpt>
      <trkpt lat="49.37522" lon="-1.74575">
        <ele>16</ele>
        <time>2023-05-18T13:00:11Z</time>
      </trkpt>
      <trkpt lat="49.37501" lon="-1.74565">
        <ele>15.8</ele>
        <time>2023-05-18T13:00:14Z</time>
      </trkpt>
      <trkpt lat="49.37481" lon="-1.74553">
        <ele>15.4</ele>
        <time>2023-05-18T13:00:17Z</time>
      </trkpt>
      <trkpt lat="49.37461" lon="-1.74538">
        <ele>15</ele>
        <time>2023-05-18T13:00:20Z</time>
      </trkpt>
      <trkpt lat="49.37441" lon="-1.74522">
        <ele>14.6</ele>
        <time>2023-05-18T13:00:23Z</time>
      </trkpt>
      <trkpt lat="49.3742" lon="-1.74506">
        <ele>14.2</ele>
        <time>2023-05-18T13:00:26Z</time>
      </trkpt>
      <trkpt lat="49.374" lon="-1.74487">
        <ele>13.8</ele>
        <time>2023-05-18T13:00:29Z</time>
      </trkpt>
      <trkpt lat="49.37382" lon="-1.74464">
        <ele>13.6</ele>
        <time>2023-05-18T13:00:32Z</time>
      </trkpt>
      <trkpt lat="49.37365" lon="-1.74442">
        <ele>13.4</ele>
        <time>2023-05-18T13:00:35Z</time>
      </trkpt>
      <trkpt lat="49.37349" lon="-1.74419">
        <ele>13.3</ele>
        <time>2023-05-18T13:00:38Z</time>
      </trkpt>
      <trkpt lat="49.37335" lon="-1.74397">
        <ele>13.3</ele>
        <time>2023-05-18T13:00:41Z</time>
      </trkpt>
      <trkpt lat="49.37321" lon="-1.74373">
        <ele>13.5</ele>
        <time>2023-05-18T13:00:44Z</time>
      </trkpt>
      <trkpt lat="49.37309" lon="-1.7435">
        <ele>13.6</ele>
        <time>2023-05-18T13:00:47Z</time>
      </trkpt>
      <trkpt lat="49.37296" lon="-1.74328">
        <ele>13.7</ele>
        <time>2023-05-18T13:00:50Z</time>
      </trkpt>
      <trkpt lat="49.37283" lon="-1.74307">
        <ele>13.7</ele>
        <time>2023-05-18T13:00:53Z</time>
      </trkpt>
      <trkpt lat="49.3727" lon="-1.74286">
        <ele>13.6</ele>
        <time>2023-05-18T13:00:56Z</time>
      </trkpt>
      <trkpt lat="49.37257" lon="-1.74265">
        <ele>13.4</ele>
        <time>2023-05-18T13:00:59Z</time>
      </trkpt>
      <trkpt lat="49.37244" lon="-1.74242">
        <ele>13.1</ele>
        <time>2023-05-18T13:01:02Z</time>
      </trkpt>
      <trkpt lat="49.37229" lon="-1.7422">
        <ele>12.8</ele>
        <time>2023-05-18T13:01:05Z</time>
      </trkpt>
      <trkpt lat="49.37216" lon="-1.74197">
        <ele>12.5</ele>
        <time>2023-05-18T13:01:08Z</time>
      </trkpt>
      <trkpt lat="49.37201" lon="-1.74173">
        <ele>12.2</ele>
        <time>2023-05-18T13:01:11Z</time>
      </trkpt>
      <trkpt lat="49.37186" lon="-1.74147">
        <ele>12</ele>
        <time>2023-05-18T13:01:14Z</time>
      </trkpt>
      <trkpt lat="49.37174" lon="-1.74122">
        <ele>11.9</ele>
        <time>2023-05-18T13:01:17Z</time>
      </trkpt>
      <trkpt lat="49.37163" lon="-1.74099">
        <ele>11.7</ele>
        <time>2023-05-18T13:01:20Z</time>
      </trkpt>
      <trkpt lat="49.37151" lon="-1.74074">
        <ele>11.5</ele>
        <time>2023-05-18T13:01:23Z</time>
      </trkpt>
      <trkpt lat="49.37137" lon="-1.74051">
        <ele>11.2</ele>
        <time>2023-05-18T13:01:26Z</time>
      </trkpt>
      <trkpt lat="49.37121" lon="-1.74031">
        <ele>10.9</ele>
        <time>2023-05-18T13:01:29Z</time>
      </trkpt>
      <trkpt lat="49.37105" lon="-1.74014">
        <ele>10.7</ele>
        <time>2023-05-18T13:01:32Z</time>
      </trkpt>
      <trkpt lat="49.37088" lon="-1.73995">
        <ele>10.5</ele>
        <time>2023-05-18T13:01:35Z</time>
      </trkpt>
      <trkpt lat="49.37071" lon="-1.73976">
        <ele>10.3</ele>
        <time>2023-05-18T13:01:38Z</time>
      </trkpt>
      <trkpt lat="49.37057" lon="-1.73957">
        <ele>10.2</ele>
        <time>2023-05-18T13:01:41Z</time>
      </trkpt>
      <trkpt lat="49.37042" lon="-1.73938">
        <ele>10.2</ele>
        <time>2023-05-18T13:01:44Z</time>
      </trkpt>
      <trkpt lat="49.37028" lon="-1.73916">
        <ele>10.1</ele>
        <time>2023-05-18T13:01:47Z</time>
      </trkpt>
      <trkpt lat="49.37014" lon="-1.73896">
        <ele>10.2</ele>
        <time>2023-05-18T13:01:50Z</time>
      </trkpt>
      <trkpt lat="49.37" lon="-1.73877">
        <ele>10.3</ele>
        <time>2023-05-18T13:01:53Z</time>
      </trkpt>
      <trkpt lat="49.36983" lon="-1.73855">
        <ele>10.5</ele>
        <time>2023-05-18T13:01:57Z</time>
      </trkpt>
      <trkpt lat="49.36968" lon="-1.73831">
        <ele>10.7</ele>
        <time>2023-05-18T13:02:01Z</time>
      </trkpt>
      <trkpt lat="49.36955" lon="-1.73805">
        <ele>10.9</ele>
        <time>2023-05-18T13:02:05Z</time>
      </trkpt>
      <trkpt lat="49.36943" lon="-1.73776">
        <ele>11.1</ele>
        <time>2023-05-18T13:02:09Z</time>
      </trkpt>
      <trkpt lat="49.36933" lon="-1.73751">
        <ele>11.3</ele>
        <time>2023-05-18T13:02:13Z</time>
      </trkpt>
      <trkpt lat="49.36922" lon="-1.73726">
        <ele>11.5</ele>
        <time>2023-05-18T13:02:17Z</time>
      </trkpt>
      <trkpt lat="49.3691" lon="-1.73701">
        <ele>11.6</ele>
        <time>2023-05-18T13:02:21Z</time>
      </trkpt>
      <trkpt lat="49.36897" lon="-1.73675">
        <ele>11.7</ele>
        <time>2023-05-18T13:02:25Z</time>
      </trkpt>
      <trkpt lat="49.36884" lon="-1.73649">
        <ele>11.9</ele>
        <time>2023-05-18T13:02:29Z</time>
      </trkpt>
      <trkpt lat="49.36869" lon="-1.73622">
        <ele>11.9</ele>
        <time>2023-05-18T13:02:33Z</time>
      </trkpt>
      <trkpt lat="49.36854" lon="-1.73596">
        <ele>11.9</ele>
        <time>2023-05-18T13:02:37Z</time>
      </trkpt>
      <trkpt lat="49.36837" lon="-1.7357">
        <ele>12</ele>
        <time>2023-05-18T13:02:41Z</time>
      </trkpt>
      <trkpt lat="49.36821" lon="-1.73544">
        <ele>12.1</ele>
        <time>2023-05-18T13:02:45Z</time>
      </trkpt>
      <trkpt lat="49.36806" lon="-1.73518">
        <ele>12.2</ele>
        <time>2023-05-18T13:02:49Z</time>
      </trkpt>
      <trkpt lat="49.36793" lon="-1.73493">
        <ele>12.4</ele>
        <time>2023-05-18T13:02:53Z</time>
      </trkpt>
      <trkpt lat="49.36781" lon="-1.73467">
        <ele>12.6</ele>
        <time>2023-05-18T13:02:57Z</time>
      </trkpt>
      <trkpt lat="49.3677" lon="-1.73442">
        <ele>12.7</ele>
        <time>2023-05-18T13:03:01Z</time>
      </trkpt>
      <trkpt lat="49.36758" lon="-1.73417">
        <ele>12.8</ele>
        <time>2023-05-18T13:03:05Z</time>
      </trkpt>
      <trkpt lat="49.36745" lon="-1.73393">
        <ele>13</ele>
        <time>2023-05-18T13:03:09Z</time>
      </trkpt>
      <trkpt lat="49.36731" lon="-1.73368">
        <ele>13</ele>
        <time>2023-05-18T13:03:13Z</time>
      </trkpt>
      <trkpt lat="49.36717" lon="-1.73342">
        <ele>13.1</ele>
        <time>2023-05-18T13:03:17Z</time>
      </trkpt>
      <trkpt lat="49.36702" lon="-1.73315">
        <ele>13.1</ele>
        <time>2023-05-18T13:03:21Z</time>
      </trkpt>
      <trkpt lat="49.36688" lon="-1.73289">
        <ele>13.2</ele>
        <time>2023-05-18T13:03:25Z</time>
      </trkpt>
      <trkpt lat="49.36672" lon="-1.73263">
        <ele>13.3</ele>
        <time>2023-05-18T13:03:29Z</time>
      </trkpt>
      <trkpt lat="49.36655" lon="-1.73243">
        <ele>13.3</ele>
        <time>2023-05-18T13:03:33Z</time>
      </trkpt>
      <trkpt lat="49.36637" lon="-1.7322">
        <ele>13.3</ele>
        <time>2023-05-18T13:03:37Z</time>
      </trkpt>
      <trkpt lat="49.3662" lon="-1.73197">
        <ele>13.2</ele>
        <time>2023-05-18T13:03:41Z</time>
      </trkpt>
      <trkpt lat="49.36603" lon="-1.73175">
        <ele>13</ele>
        <time>2023-05-18T13:03:45Z</time>
      </trkpt>
      <trkpt lat="49.36586" lon="-1.73151">
        <ele>13</ele>
        <time>2023-05-18T13:03:49Z</time>
      </trkpt>
      <trkpt lat="49.36568" lon="-1.73127">
        <ele>12.8</ele>
        <time>2023-05-18T13:03:53Z</time>
      </trkpt>
      <trkpt lat="49.36552" lon="-1.73104">
        <ele>12.7</ele>
        <time>2023-05-18T13:03:57Z</time>
      </trkpt>
      <trkpt lat="49.36536" lon="-1.73084">
        <ele>12.6</ele>
        <time>2023-05-18T13:04:01Z</time>
      </trkpt>
      <trkpt lat="49.36517" lon="-1.73064">
        <ele>12.5</ele>
        <time>2023-05-18T13:04:05Z</time>
      </trkpt>
      <trkpt lat="49.36502" lon="-1.73045">
        <ele>12.4</ele>
        <time>2023-05-18T13:04:08Z</time>
      </trkpt>
      <trkpt lat="49.36486" lon="-1.73018">
        <ele>12.5</ele>
        <time>2023-05-18T13:04:12Z</time>
      </trkpt>
      <trkpt lat="49.3647" lon="-1.72994">
        <ele>12.6</ele>
        <time>2023-05-18T13:04:16Z</time>
      </trkpt>
      <trkpt lat="49.36457" lon="-1.7297">
        <ele>12.6</ele>
        <time>2023-05-18T13:04:20Z</time>
      </trkpt>
      <trkpt lat="49.36442" lon="-1.72945">
        <ele>12.7</ele>
        <time>2023-05-18T13:04:24Z</time>
      </trkpt>
      <trkpt lat="49.36428" lon="-1.72927">
        <ele>12.8</ele>
        <time>2023-05-18T13:04:27Z</time>
      </trkpt>
      <trkpt lat="49.36413" lon="-1.72904">
        <ele>12.9</ele>
        <time>2023-05-18T13:04:31Z</time>
      </trkpt>
      <trkpt lat="49.36396" lon="-1.72886">
        <ele>12.9</ele>
        <time>2023-05-18T13:04:35Z</time>
      </trkpt>
      <trkpt lat="49.3638" lon="-1.72867">
        <ele>12.9</ele>
        <time>2023-05-18T13:04:39Z</time>
      </trkpt>
      <trkpt lat="49.36363" lon="-1.72853">
        <ele>12.9</ele>
        <time>2023-05-18T13:04:43Z</time>
      </trkpt>
      <trkpt lat="49.36346" lon="-1.72836">
        <ele>12.9</ele>
        <time>2023-05-18T13:04:47Z</time>
      </trkpt>
      <trkpt lat="49.36329" lon="-1.72818">
        <ele>12.9</ele>
        <time>2023-05-18T13:04:51Z</time>
      </trkpt>
      <trkpt lat="49.36311" lon="-1.728">
        <ele>12.9</ele>
        <time>2023-05-18T13:04:55Z</time>
      </trkpt>
      <trkpt lat="49.36294" lon="-1.72781">
        <ele>12.9</ele>
        <time>2023-05-18T13:04:59Z</time>
      </trkpt>
      <trkpt lat="49.36277" lon="-1.72765">
        <ele>12.9</ele>
        <time>2023-05-18T13:05:03Z</time>
      </trkpt>
      <trkpt lat="49.36259" lon="-1.72747">
        <ele>12.9</ele>
        <time>2023-05-18T13:05:07Z</time>
      </trkpt>
      <trkpt lat="49.36243" lon="-1.72727">
        <ele>12.8</ele>
        <time>2023-05-18T13:05:11Z</time>
      </trkpt>
      <trkpt lat="49.36227" lon="-1.7271">
        <ele>12.8</ele>
        <time>2023-05-18T13:05:15Z</time>
      </trkpt>
      <trkpt lat="49.36207" lon="-1.72699">
        <ele>12.8</ele>
        <time>2023-05-18T13:05:19Z</time>
      </trkpt>
      <trkpt lat="49.36186" lon="-1.7269">
        <ele>12.6</ele>
        <time>2023-05-18T13:05:23Z</time>
      </trkpt>
      <trkpt lat="49.3617" lon="-1.72676">
        <ele>12.2</ele>
        <time>2023-05-18T13:05:26Z</time>
      </trkpt>
      <trkpt lat="49.36156" lon="-1.72657">
        <ele>11.8</ele>
        <time>2023-05-18T13:05:29Z</time>
      </trkpt>
      <trkpt lat="49.36141" lon="-1.72636">
        <ele>11.4</ele>
        <time>2023-05-18T13:05:32Z</time>
      </trkpt>
      <trkpt lat="49.36126" lon="-1.72617">
        <ele>11.1</ele>
        <time>2023-05-18T13:05:35Z</time>
      </trkpt>
      <trkpt lat="49.36112" lon="-1.72597">
        <ele>10.9</ele>
        <time>2023-05-18T13:05:38Z</time>
      </trkpt>
      <trkpt lat="49.36097" lon="-1.72579">
        <ele>10.7</ele>
        <time>2023-05-18T13:05:41Z</time>
      </trkpt>
      <trkpt lat="49.36083" lon="-1.7256">
        <ele>10.7</ele>
        <time>2023-05-18T13:05:44Z</time>
      </trkpt>
      <trkpt lat="49.3607" lon="-1.7254">
        <ele>10.7</ele>
        <time>2023-05-18T13:05:47Z</time>
      </trkpt>
      <trkpt lat="49.36054" lon="-1.72516">
        <ele>10.9</ele>
        <time>2023-05-18T13:05:51Z</time>
      </trkpt>
      <trkpt lat="49.36039" lon="-1.72491">
        <ele>10.9</ele>
        <time>2023-05-18T13:05:55Z</time>
      </trkpt>
      <trkpt lat="49.36024" lon="-1.72463">
        <ele>10.6</ele>
        <time>2023-05-18T13:05:59Z</time>
      </trkpt>
      <trkpt lat="49.36009" lon="-1.72435">
        <ele>10.6</ele>
        <time>2023-05-18T13:06:03Z</time>
      </trkpt>
      <trkpt lat="49.35997" lon="-1.72408">
        <ele>10.7</ele>
        <time>2023-05-18T13:06:07Z</time>
      </trkpt>
      <trkpt lat="49.3598" lon="-1.72387">
        <ele>10.8</ele>
        <time>2023-05-18T13:06:11Z</time>
      </trkpt>
      <trkpt lat="49.35962" lon="-1.72371">
        <ele>10.9</ele>
        <time>2023-05-18T13:06:15Z</time>
      </trkpt>
      <trkpt lat="49.35942" lon="-1.72355">
        <ele>10.9</ele>
        <time>2023-05-18T13:06:19Z</time>
      </trkpt>
      <trkpt lat="49.35925" lon="-1.72343">
        <ele>10.9</ele>
        <time>2023-05-18T13:06:22Z</time>
      </trkpt>
      <trkpt lat="49.35903" lon="-1.72332">
        <ele>11</ele>
        <time>2023-05-18T13:06:26Z</time>
      </trkpt>
      <trkpt lat="49.35886" lon="-1.7232">
        <ele>10.9</ele>
        <time>2023-05-18T13:06:29Z</time>
      </trkpt>
      <trkpt lat="49.35863" lon="-1.72311">
        <ele>10.8</ele>
        <time>2023-05-18T13:06:33Z</time>
      </trkpt>
      <trkpt lat="49.35845" lon="-1.72303">
        <ele>10.7</ele>
        <time>2023-05-18T13:06:36Z</time>
      </trkpt>
      <trkpt lat="49.35826" lon="-1.72293">
        <ele>10.7</ele>
        <time>2023-05-18T13:06:39Z</time>
      </trkpt>
      <trkpt lat="49.35809" lon="-1.72281">
        <ele>10.8</ele>
        <time>2023-05-18T13:06:42Z</time>
      </trkpt>
      <trkpt lat="49.35791" lon="-1.72269">
        <ele>10.9</ele>
        <time>2023-05-18T13:06:45Z</time>
      </trkpt>
      <trkpt lat="49.35774" lon="-1.72258">
        <ele>10.8</ele>
        <time>2023-05-18T13:06:48Z</time>
      </trkpt>
      <trkpt lat="49.35757" lon="-1.72247">
        <ele>10.8</ele>
        <time>2023-05-18T13:06:51Z</time>
      </trkpt>
      <trkpt lat="49.35739" lon="-1.72237">
        <ele>10.8</ele>
        <time>2023-05-18T13:06:54Z</time>
      </trkpt>
      <trkpt lat="49.3572" lon="-1.72223">
        <ele>10.7</ele>
        <time>2023-05-18T13:06:57Z</time>
      </trkpt>
      <trkpt lat="49.35702" lon="-1.72212">
        <ele>10.6</ele>
        <time>2023-05-18T13:07:00Z</time>
      </trkpt>
      <trkpt lat="49.35684" lon="-1.72198">
        <ele>10.5</ele>
        <time>2023-05-18T13:07:03Z</time>
      </trkpt>
      <trkpt lat="49.35667" lon="-1.72183">
        <ele>10.5</ele>
        <time>2023-05-18T13:07:06Z</time>
      </trkpt>
      <trkpt lat="49.35649" lon="-1.72169">
        <ele>10.4</ele>
        <time>2023-05-18T13:07:09Z</time>
      </trkpt>
      <trkpt lat="49.35632" lon="-1.72155">
        <ele>10.4</ele>
        <time>2023-05-18T13:07:12Z</time>
      </trkpt>
      <trkpt lat="49.35615" lon="-1.7214">
        <ele>10.5</ele>
        <time>2023-05-18T13:07:15Z</time>
      </trkpt>
      <trkpt lat="49.35599" lon="-1.72127">
        <ele>10.6</ele>
        <time>2023-05-18T13:07:18Z</time>
      </trkpt>
      <trkpt lat="49.35583" lon="-1.72113">
        <ele>10.8</ele>
        <time>2023-05-18T13:07:21Z</time>
      </trkpt>
      <trkpt lat="49.35569" lon="-1.72087">
        <ele>11</ele>
        <time>2023-05-18T13:07:25Z</time>
      </trkpt>
      <trkpt lat="49.35556" lon="-1.72062">
        <ele>11.1</ele>
        <time>2023-05-18T13:07:29Z</time>
      </trkpt>
      <trkpt lat="49.35542" lon="-1.72037">
        <ele>11</ele>
        <time>2023-05-18T13:07:33Z</time>
      </trkpt>
      <trkpt lat="49.35526" lon="-1.72024">
        <ele>10.9</ele>
        <time>2023-05-18T13:07:36Z</time>
      </trkpt>
      <trkpt lat="49.35507" lon="-1.72022">
        <ele>10.9</ele>
        <time>2023-05-18T13:07:39Z</time>
      </trkpt>
      <trkpt lat="49.35485" lon="-1.7203">
        <ele>10.6</ele>
        <time>2023-05-18T13:07:43Z</time>
      </trkpt>
      <trkpt lat="49.35463" lon="-1.72019">
        <ele>10.2</ele>
        <time>2023-05-18T13:07:47Z</time>
      </trkpt>
      <trkpt lat="49.35443" lon="-1.71998">
        <ele>9.9</ele>
        <time>2023-05-18T13:07:51Z</time>
      </trkpt>
      <trkpt lat="49.35426" lon="-1.71973">
        <ele>9.7</ele>
        <time>2023-05-18T13:07:55Z</time>
      </trkpt>
      <trkpt lat="49.35412" lon="-1.71955">
        <ele>9.3</ele>
        <time>2023-05-18T13:07:58Z</time>
      </trkpt>
      <trkpt lat="49.35397" lon="-1.71935">
        <ele>8.9</ele>
        <time>2023-05-18T13:08:01Z</time>
      </trkpt>
      <trkpt lat="49.3538" lon="-1.71915">
        <ele>8.5</ele>
        <time>2023-05-18T13:08:04Z</time>
      </trkpt>
      <trkpt lat="49.35363" lon="-1.71896">
        <ele>8.2</ele>
        <time>2023-05-18T13:08:07Z</time>
      </trkpt>
      <trkpt lat="49.35346" lon="-1.71878">
        <ele>8.1</ele>
        <time>2023-05-18T13:08:10Z</time>
      </trkpt>
      <trkpt lat="49.3533" lon="-1.71862">
        <ele>8</ele>
        <time>2023-05-18T13:08:13Z</time>
      </trkpt>
      <trkpt lat="49.35311" lon="-1.71849">
        <ele>7.9</ele>
        <time>2023-05-18T13:08:16Z</time>
      </trkpt>
      <trkpt lat="49.35291" lon="-1.71839">
        <ele>7.8</ele>
        <time>2023-05-18T13:08:19Z</time>
      </trkpt>
      <trkpt lat="49.35271" lon="-1.7183">
        <ele>7.9</ele>
        <time>2023-05-18T13:08:22Z</time>
      </trkpt>
      <trkpt lat="49.35254" lon="-1.71816">
        <ele>8</ele>
        <time>2023-05-18T13:08:25Z</time>
      </trkpt>
      <trkpt lat="49.35239" lon="-1.71794">
        <ele>8.2</ele>
        <time>2023-05-18T13:08:28Z</time>
      </trkpt>
      <trkpt lat="49.35225" lon="-1.71771">
        <ele>8.3</ele>
        <time>2023-05-18T13:08:31Z</time>
      </trkpt>
      <trkpt lat="49.35211" lon="-1.71751">
        <ele>8.5</ele>
        <time>2023-05-18T13:08:34Z</time>
      </trkpt>
      <trkpt lat="49.35197" lon="-1.71731">
        <ele>8.9</ele>
        <time>2023-05-18T13:08:37Z</time>
      </trkpt>
      <trkpt lat="49.35178" lon="-1.71712">
        <ele>9.3</ele>
        <time>2023-05-18T13:08:41Z</time>
      </trkpt>
      <trkpt lat="49.35157" lon="-1.71696">
        <ele>9.5</ele>
        <time>2023-05-18T13:08:45Z</time>
      </trkpt>
      <trkpt lat="49.35136" lon="-1.71681">
        <ele>9.7</ele>
        <time>2023-05-18T13:08:49Z</time>
      </trkpt>
      <trkpt lat="49.35117" lon="-1.71664">
        <ele>10.2</ele>
        <time>2023-05-18T13:08:53Z</time>
      </trkpt>
      <trkpt lat="49.35097" lon="-1.71648">
        <ele>10.5</ele>
        <time>2023-05-18T13:08:57Z</time>
      </trkpt>
      <trkpt lat="49.3508" lon="-1.7163">
        <ele>10.7</ele>
        <time>2023-05-18T13:09:01Z</time>
      </trkpt>
      <trkpt lat="49.35064" lon="-1.7161">
        <ele>10.8</ele>
        <time>2023-05-18T13:09:05Z</time>
      </trkpt>
      <trkpt lat="49.35047" lon="-1.71593">
        <ele>11</ele>
        <time>2023-05-18T13:09:09Z</time>
      </trkpt>
      <trkpt lat="49.35033" lon="-1.71573">
        <ele>11.1</ele>
        <time>2023-05-18T13:09:13Z</time>
      </trkpt>
      <trkpt lat="49.35017" lon="-1.71553">
        <ele>11.3</ele>
        <time>2023-05-18T13:09:17Z</time>
      </trkpt>
      <trkpt lat="49.35003" lon="-1.71532">
        <ele>11.3</ele>
        <time>2023-05-18T13:09:21Z</time>
      </trkpt>
      <trkpt lat="49.34987" lon="-1.71511">
        <ele>11.3</ele>
        <time>2023-05-18T13:09:25Z</time>
      </trkpt>
      <trkpt lat="49.34972" lon="-1.71491">
        <ele>11.2</ele>
        <time>2023-05-18T13:09:29Z</time>
      </trkpt>
      <trkpt lat="49.34952" lon="-1.71476">
        <ele>10.9</ele>
        <time>2023-05-18T13:09:33Z</time>
      </trkpt>
      <trkpt lat="49.34931" lon="-1.71463">
        <ele>10.7</ele>
        <time>2023-05-18T13:09:37Z</time>
      </trkpt>
      <trkpt lat="49.34915" lon="-1.71451">
        <ele>10.4</ele>
        <time>2023-05-18T13:09:40Z</time>
      </trkpt>
      <trkpt lat="49.34899" lon="-1.71434">
        <ele>10.1</ele>
        <time>2023-05-18T13:09:43Z</time>
      </trkpt>
      <trkpt lat="49.34882" lon="-1.71417">
        <ele>10</ele>
        <time>2023-05-18T13:09:46Z</time>
      </trkpt>
      <trkpt lat="49.34867" lon="-1.71401">
        <ele>9.9</ele>
        <time>2023-05-18T13:09:49Z</time>
      </trkpt>
      <trkpt lat="49.3485" lon="-1.71386">
        <ele>10</ele>
        <time>2023-05-18T13:09:52Z</time>
      </trkpt>
      <trkpt lat="49.34832" lon="-1.7137">
        <ele>10.3</ele>
        <time>2023-05-18T13:09:56Z</time>
      </trkpt>
      <trkpt lat="49.34815" lon="-1.71359">
        <ele>10.6</ele>
        <time>2023-05-18T13:10:00Z</time>
      </trkpt>
      <trkpt lat="49.34795" lon="-1.71348">
        <ele>10.7</ele>
        <time>2023-05-18T13:10:04Z</time>
      </trkpt>
      <trkpt lat="49.34775" lon="-1.71338">
        <ele>10.7</ele>
        <time>2023-05-18T13:10:08Z</time>
      </trkpt>
      <trkpt lat="49.34758" lon="-1.71325">
        <ele>10.6</ele>
        <time>2023-05-18T13:10:12Z</time>
      </trkpt>
      <trkpt lat="49.34778" lon="-1.71331">
        <ele>10.7</ele>
        <time>2023-05-18T13:10:21Z</time>
      </trkpt>
      <trkpt lat="49.34799" lon="-1.71343">
        <ele>10.7</ele>
        <time>2023-05-18T13:10:26Z</time>
      </trkpt>
      <trkpt lat="49.34816" lon="-1.71354">
        <ele>10.6</ele>
        <time>2023-05-18T13:10:30Z</time>
      </trkpt>
      <trkpt lat="49.34834" lon="-1.71366">
        <ele>10.3</ele>
        <time>2023-05-18T13:10:34Z</time>
      </trkpt>
      <trkpt lat="49.34853" lon="-1.71383">
        <ele>10</ele>
        <time>2023-05-18T13:10:38Z</time>
      </trkpt>
      <trkpt lat="49.34855" lon="-1.71412">
        <ele>9.2</ele>
        <time>2023-05-18T13:10:42Z</time>
      </trkpt>
      <trkpt lat="49.34841" lon="-1.71432">
        <ele>8.4</ele>
        <time>2023-05-18T13:10:45Z</time>
      </trkpt>
      <trkpt lat="49.34826" lon="-1.71451">
        <ele>7.7</ele>
        <time>2023-05-18T13:10:48Z</time>
      </trkpt>
      <trkpt lat="49.34811" lon="-1.71474">
        <ele>7</ele>
        <time>2023-05-18T13:10:51Z</time>
      </trkpt>
      <trkpt lat="49.34795" lon="-1.71496">
        <ele>6.6</ele>
        <time>2023-05-18T13:10:54Z</time>
      </trkpt>
      <trkpt lat="49.34779" lon="-1.71518">
        <ele>6.2</ele>
        <time>2023-05-18T13:10:57Z</time>
      </trkpt>
      <trkpt lat="49.34764" lon="-1.71539">
        <ele>5.9</ele>
        <time>2023-05-18T13:11:00Z</time>
      </trkpt>
      <trkpt lat="49.3475" lon="-1.7156">
        <ele>5.8</ele>
        <time>2023-05-18T13:11:03Z</time>
      </trkpt>
      <trkpt lat="49.34736" lon="-1.71583">
        <ele>5.6</ele>
        <time>2023-05-18T13:11:06Z</time>
      </trkpt>
      <trkpt lat="49.34723" lon="-1.71607">
        <ele>5.5</ele>
        <time>2023-05-18T13:11:09Z</time>
      </trkpt>
      <trkpt lat="49.3471" lon="-1.71631">
        <ele>5.3</ele>
        <time>2023-05-18T13:11:12Z</time>
      </trkpt>
      <trkpt lat="49.34698" lon="-1.71657">
        <ele>5.2</ele>
        <time>2023-05-18T13:11:15Z</time>
      </trkpt>
      <trkpt lat="49.34688" lon="-1.71684">
        <ele>5.1</ele>
        <time>2023-05-18T13:11:18Z</time>
      </trkpt>
      <trkpt lat="49.34681" lon="-1.71713">
        <ele>5</ele>
        <time>2023-05-18T13:11:21Z</time>
      </trkpt>
      <trkpt lat="49.34678" lon="-1.71742">
        <ele>4.8</ele>
        <time>2023-05-18T13:11:24Z</time>
      </trkpt>
      <trkpt lat="49.34678" lon="-1.71775">
        <ele>4.7</ele>
        <time>2023-05-18T13:11:27Z</time>
      </trkpt>
      <trkpt lat="49.34675" lon="-1.71807">
        <ele>4.7</ele>
        <time>2023-05-18T13:11:30Z</time>
      </trkpt>
      <trkpt lat="49.34669" lon="-1.71834">
        <ele>4.8</ele>
        <time>2023-05-18T13:11:33Z</time>
      </trkpt>
      <trkpt lat="49.34661" lon="-1.71859">
        <ele>4.8</ele>
        <time>2023-05-18T13:11:36Z</time>
      </trkpt>
      <trkpt lat="49.34652" lon="-1.71884">
        <ele>4.8</ele>
        <time>2023-05-18T13:11:39Z</time>
      </trkpt>
      <trkpt lat="49.34644" lon="-1.71909">
        <ele>4.8</ele>
        <time>2023-05-18T13:11:42Z</time>
      </trkpt>
      <trkpt lat="49.34635" lon="-1.71934">
        <ele>4.8</ele>
        <time>2023-05-18T13:11:45Z</time>
      </trkpt>
      <trkpt lat="49.34626" lon="-1.71959">
        <ele>4.9</ele>
        <time>2023-05-18T13:11:48Z</time>
      </trkpt>
      <trkpt lat="49.34616" lon="-1.71982">
        <ele>4.9</ele>
        <time>2023-05-18T13:11:51Z</time>
      </trkpt>
      <trkpt lat="49.34605" lon="-1.72005">
        <ele>5</ele>
        <time>2023-05-18T13:11:54Z</time>
      </trkpt>
      <trkpt lat="49.34595" lon="-1.72031">
        <ele>5.1</ele>
        <time>2023-05-18T13:11:57Z</time>
      </trkpt>
      <trkpt lat="49.34585" lon="-1.72054">
        <ele>5.3</ele>
        <time>2023-05-18T13:12:00Z</time>
      </trkpt>
      <trkpt lat="49.34571" lon="-1.72084">
        <ele>5.5</ele>
        <time>2023-05-18T13:12:04Z</time>
      </trkpt>
      <trkpt lat="49.34558" lon="-1.72115">
        <ele>5.8</ele>
        <time>2023-05-18T13:12:08Z</time>
      </trkpt>
      <trkpt lat="49.34546" lon="-1.72145">
        <ele>6.2</ele>
        <time>2023-05-18T13:12:12Z</time>
      </trkpt>
      <trkpt lat="49.34536" lon="-1.72168">
        <ele>6.5</ele>
        <time>2023-05-18T13:12:15Z</time>
      </trkpt>
      <trkpt lat="49.34526" lon="-1.72192">
        <ele>6.8</ele>
        <time>2023-05-18T13:12:18Z</time>
      </trkpt>
      <trkpt lat="49.34508" lon="-1.72214">
        <ele>7.1</ele>
        <time>2023-05-18T13:12:22Z</time>
      </trkpt>
      <trkpt lat="49.3449" lon="-1.72221">
        <ele>7.3</ele>
        <time>2023-05-18T13:12:25Z</time>
      </trkpt>
      <trkpt lat="49.34477" lon="-1.72241">
        <ele>7.4</ele>
        <time>2023-05-18T13:12:28Z</time>
      </trkpt>
      <trkpt lat="49.34466" lon="-1.72273">
        <ele>7.6</ele>
        <time>2023-05-18T13:12:32Z</time>
      </trkpt>
      <trkpt lat="49.34456" lon="-1.72297">
        <ele>7.7</ele>
        <time>2023-05-18T13:12:35Z</time>
      </trkpt>
      <trkpt lat="49.34446" lon="-1.7232">
        <ele>7.8</ele>
        <time>2023-05-18T13:12:38Z</time>
      </trkpt>
      <trkpt lat="49.34437" lon="-1.72345">
        <ele>7.8</ele>
        <time>2023-05-18T13:12:41Z</time>
      </trkpt>
      <trkpt lat="49.34426" lon="-1.7237">
        <ele>7.9</ele>
        <time>2023-05-18T13:12:44Z</time>
      </trkpt>
      <trkpt lat="49.34416" lon="-1.72394">
        <ele>8</ele>
        <time>2023-05-18T13:12:47Z</time>
      </trkpt>
      <trkpt lat="49.34408" lon="-1.72419">
        <ele>8.1</ele>
        <time>2023-05-18T13:12:50Z</time>
      </trkpt>
      <trkpt lat="49.34397" lon="-1.7245">
        <ele>8.2</ele>
        <time>2023-05-18T13:12:54Z</time>
      </trkpt>
      <trkpt lat="49.34384" lon="-1.72473">
        <ele>8.1</ele>
        <time>2023-05-18T13:12:57Z</time>
      </trkpt>
      <trkpt lat="49.34369" lon="-1.72497">
        <ele>8.1</ele>
        <time>2023-05-18T13:13:00Z</time>
      </trkpt>
      <trkpt lat="49.34354" lon="-1.72519">
        <ele>8</ele>
        <time>2023-05-18T13:13:03Z</time>
      </trkpt>
      <trkpt lat="49.3434" lon="-1.7254">
        <ele>8</ele>
        <time>2023-05-18T13:13:06Z</time>
      </trkpt>
      <trkpt lat="49.34326" lon="-1.72562">
        <ele>8</ele>
        <time>2023-05-18T13:13:09Z</time>
      </trkpt>
      <trkpt lat="49.34312" lon="-1.72585">
        <ele>8</ele>
        <time>2023-05-18T13:13:12Z</time>
      </trkpt>
      <trkpt lat="49.34298" lon="-1.72606">
        <ele>7.9</ele>
        <time>2023-05-18T13:13:15Z</time>
      </trkpt>
      <trkpt lat="49.34283" lon="-1.72628">
        <ele>7.9</ele>
        <time>2023-05-18T13:13:18Z</time>
      </trkpt>
      <trkpt lat="49.34268" lon="-1.72651">
        <ele>7.8</ele>
        <time>2023-05-18T13:13:21Z</time>
      </trkpt>
      <trkpt lat="49.34253" lon="-1.72674">
        <ele>7.7</ele>
        <time>2023-05-18T13:13:24Z</time>
      </trkpt>
      <trkpt lat="49.34239" lon="-1.72698">
        <ele>7.7</ele>
        <time>2023-05-18T13:13:27Z</time>
      </trkpt>
      <trkpt lat="49.34224" lon="-1.7272">
        <ele>7.6</ele>
        <time>2023-05-18T13:13:30Z</time>
      </trkpt>
      <trkpt lat="49.34209" lon="-1.72743">
        <ele>7.5</ele>
        <time>2023-05-18T13:13:33Z</time>
      </trkpt>
      <trkpt lat="49.34193" lon="-1.7277">
        <ele>7.4</ele>
        <time>2023-05-18T13:13:36Z</time>
      </trkpt>
      <trkpt lat="49.34178" lon="-1.72794">
        <ele>7.3</ele>
        <time>2023-05-18T13:13:39Z</time>
      </trkpt>
      <trkpt lat="49.34163" lon="-1.72818">
        <ele>7.3</ele>
        <time>2023-05-18T13:13:42Z</time>
      </trkpt>
      <trkpt lat="49.34149" lon="-1.72842">
        <ele>7.3</ele>
        <time>2023-05-18T13:13:45Z</time>
      </trkpt>
      <trkpt lat="49.34135" lon="-1.72864">
        <ele>7.2</ele>
        <time>2023-05-18T13:13:48Z</time>
      </trkpt>
      <trkpt lat="49.3412" lon="-1.72888">
        <ele>7.1</ele>
        <time>2023-05-18T13:13:51Z</time>
      </trkpt>
      <trkpt lat="49.34103" lon="-1.72912">
        <ele>7</ele>
        <time>2023-05-18T13:13:54Z</time>
      </trkpt>
      <trkpt lat="49.34089" lon="-1.72935">
        <ele>7</ele>
        <time>2023-05-18T13:13:57Z</time>
      </trkpt>
      <trkpt lat="49.34074" lon="-1.72958">
        <ele>6.9</ele>
        <time>2023-05-18T13:14:00Z</time>
      </trkpt>
      <trkpt lat="49.3406" lon="-1.72982">
        <ele>6.9</ele>
        <time>2023-05-18T13:14:03Z</time>
      </trkpt>
      <trkpt lat="49.34046" lon="-1.73004">
        <ele>6.9</ele>
        <time>2023-05-18T13:14:06Z</time>
      </trkpt>
      <trkpt lat="49.34032" lon="-1.73026">
        <ele>6.8</ele>
        <time>2023-05-18T13:14:09Z</time>
      </trkpt>
      <trkpt lat="49.34017" lon="-1.7305">
        <ele>6.7</ele>
        <time>2023-05-18T13:14:12Z</time>
      </trkpt>
      <trkpt lat="49.34003" lon="-1.73072">
        <ele>6.6</ele>
        <time>2023-05-18T13:14:15Z</time>
      </trkpt>
      <trkpt lat="49.33988" lon="-1.73095">
        <ele>6.5</ele>
        <time>2023-05-18T13:14:18Z</time>
      </trkpt>
      <trkpt lat="49.33974" lon="-1.73123">
        <ele>6.5</ele>
        <time>2023-05-18T13:14:21Z</time>
      </trkpt>
      <trkpt lat="49.33967" lon="-1.73153">
        <ele>6.4</ele>
        <time>2023-05-18T13:14:24Z</time>
      </trkpt>
      <trkpt lat="49.3396" lon="-1.73184">
        <ele>6.3</ele>
        <time>2023-05-18T13:14:27Z</time>
      </trkpt>
      <trkpt lat="49.33953" lon="-1.73214">
        <ele>6.3</ele>
        <time>2023-05-18T13:14:30Z</time>
      </trkpt>
      <trkpt lat="49.33944" lon="-1.7324">
        <ele>6.4</ele>
        <time>2023-05-18T13:14:33Z</time>
      </trkpt>
      <trkpt lat="49.33932" lon="-1.73264">
        <ele>6.5</ele>
        <time>2023-05-18T13:14:36Z</time>
      </trkpt>
      <trkpt lat="49.33917" lon="-1.73292">
        <ele>6.7</ele>
        <time>2023-05-18T13:14:40Z</time>
      </trkpt>
      <trkpt lat="49.33903" lon="-1.73321">
        <ele>6.9</ele>
        <time>2023-05-18T13:14:44Z</time>
      </trkpt>
      <trkpt lat="49.33891" lon="-1.73348">
        <ele>7</ele>
        <time>2023-05-18T13:14:48Z</time>
      </trkpt>
      <trkpt lat="49.33876" lon="-1.73373">
        <ele>7.2</ele>
        <time>2023-05-18T13:14:52Z</time>
      </trkpt>
      <trkpt lat="49.33859" lon="-1.7338">
        <ele>7.1</ele>
        <time>2023-05-18T13:14:56Z</time>
      </trkpt>
      <trkpt lat="49.33846" lon="-1.73359">
        <ele>6.6</ele>
        <time>2023-05-18T13:14:59Z</time>
      </trkpt>
      <trkpt lat="49.33833" lon="-1.73333">
        <ele>6.4</ele>
        <time>2023-05-18T13:15:02Z</time>
      </trkpt>
      <trkpt lat="49.33821" lon="-1.73307">
        <ele>6.3</ele>
        <time>2023-05-18T13:15:05Z</time>
      </trkpt>
      <trkpt lat="49.3381" lon="-1.7328">
        <ele>6.2</ele>
        <time>2023-05-18T13:15:08Z</time>
      </trkpt>
      <trkpt lat="49.33797" lon="-1.73255">
        <ele>6.2</ele>
        <time>2023-05-18T13:15:11Z</time>
      </trkpt>
      <trkpt lat="49.33783" lon="-1.73227">
        <ele>6.2</ele>
        <time>2023-05-18T13:15:15Z</time>
      </trkpt>
      <trkpt lat="49.33772" lon="-1.73205">
        <ele>6.2</ele>
        <time>2023-05-18T13:15:18Z</time>
      </trkpt>
      <trkpt lat="49.33758" lon="-1.73177">
        <ele>6.2</ele>
        <time>2023-05-18T13:15:22Z</time>
      </trkpt>
      <trkpt lat="49.33746" lon="-1.73153">
        <ele>6.2</ele>
        <time>2023-05-18T13:15:26Z</time>
      </trkpt>
      <trkpt lat="49.33733" lon="-1.73127">
        <ele>6.1</ele>
        <time>2023-05-18T13:15:30Z</time>
      </trkpt>
      <trkpt lat="49.3372" lon="-1.73102">
        <ele>6.1</ele>
        <time>2023-05-18T13:15:34Z</time>
      </trkpt>
      <trkpt lat="49.33707" lon="-1.73076">
        <ele>6.1</ele>
        <time>2023-05-18T13:15:38Z</time>
      </trkpt>
      <trkpt lat="49.33694" lon="-1.73048">
        <ele>5.9</ele>
        <time>2023-05-18T13:15:42Z</time>
      </trkpt>
      <trkpt lat="49.3368" lon="-1.7302">
        <ele>5.9</ele>
        <time>2023-05-18T13:15:46Z</time>
      </trkpt>
      <trkpt lat="49.33666" lon="-1.72993">
        <ele>5.9</ele>
        <time>2023-05-18T13:15:50Z</time>
      </trkpt>
      <trkpt lat="49.33652" lon="-1.72966">
        <ele>6</ele>
        <time>2023-05-18T13:15:54Z</time>
      </trkpt>
      <trkpt lat="49.33638" lon="-1.7294">
        <ele>5.9</ele>
        <time>2023-05-18T13:15:58Z</time>
      </trkpt>
      <trkpt lat="49.33624" lon="-1.72913">
        <ele>5.9</ele>
        <time>2023-05-18T13:16:02Z</time>
      </trkpt>
      <trkpt lat="49.33612" lon="-1.72884">
        <ele>5.9</ele>
        <time>2023-05-18T13:16:06Z</time>
      </trkpt>
      <trkpt lat="49.33598" lon="-1.72855">
        <ele>5.9</ele>
        <time>2023-05-18T13:16:10Z</time>
      </trkpt>
      <trkpt lat="49.33584" lon="-1.72827">
        <ele>5.9</ele>
        <time>2023-05-18T13:16:14Z</time>
      </trkpt>
      <trkpt lat="49.33571" lon="-1.72798">
        <ele>5.9</ele>
        <time>2023-05-18T13:16:18Z</time>
      </trkpt>
      <trkpt lat="49.33557" lon="-1.72769">
        <ele>6</ele>
        <time>2023-05-18T13:16:22Z</time>
      </trkpt>
      <trkpt lat="49.33543" lon="-1.72741">
        <ele>6</ele>
        <time>2023-05-18T13:16:26Z</time>
      </trkpt>
      <trkpt lat="49.33528" lon="-1.72715">
        <ele>6</ele>
        <time>2023-05-18T13:16:30Z</time>
      </trkpt>
      <trkpt lat="49.33516" lon="-1.72687">
        <ele>6.1</ele>
        <time>2023-05-18T13:16:34Z</time>
      </trkpt>
      <trkpt lat="49.33505" lon="-1.7266">
        <ele>6.2</ele>
        <time>2023-05-18T13:16:38Z</time>
      </trkpt>
      <trkpt lat="49.3349" lon="-1.72634">
        <ele>6.3</ele>
        <time>2023-05-18T13:16:42Z</time>
      </trkpt>
      <trkpt lat="49.33477" lon="-1.72608">
        <ele>6.2</ele>
        <time>2023-05-18T13:16:46Z</time>
      </trkpt>
      <trkpt lat="49.33465" lon="-1.72581">
        <ele>6.1</ele>
        <time>2023-05-18T13:16:50Z</time>
      </trkpt>
      <trkpt lat="49.33452" lon="-1.72555">
        <ele>6.1</ele>
        <time>2023-05-18T13:16:54Z</time>
      </trkpt>
      <trkpt lat="49.33438" lon="-1.72528">
        <ele>6</ele>
        <time>2023-05-18T13:16:58Z</time>
      </trkpt>
      <trkpt lat="49.33424" lon="-1.72503">
        <ele>6.1</ele>
        <time>2023-05-18T13:17:02Z</time>
      </trkpt>
      <trkpt lat="49.33413" lon="-1.72479">
        <ele>6.1</ele>
        <time>2023-05-18T13:17:06Z</time>
      </trkpt>
      <trkpt lat="49.334" lon="-1.72455">
        <ele>6.3</ele>
        <time>2023-05-18T13:17:10Z</time>
      </trkpt>
      <trkpt lat="49.33382" lon="-1.72438">
        <ele>6.5</ele>
        <time>2023-05-18T13:17:14Z</time>
      </trkpt>
      <trkpt lat="49.33365" lon="-1.72421">
        <ele>6.6</ele>
        <time>2023-05-18T13:17:18Z</time>
      </trkpt>
      <trkpt lat="49.33349" lon="-1.72403">
        <ele>6.9</ele>
        <time>2023-05-18T13:17:22Z</time>
      </trkpt>
      <trkpt lat="49.33333" lon="-1.72385">
        <ele>7.3</ele>
        <time>2023-05-18T13:17:26Z</time>
      </trkpt>
      <trkpt lat="49.33318" lon="-1.72367">
        <ele>7.7</ele>
        <time>2023-05-18T13:17:30Z</time>
      </trkpt>
      <trkpt lat="49.33303" lon="-1.72349">
        <ele>8</ele>
        <time>2023-05-18T13:17:34Z</time>
      </trkpt>
      <trkpt lat="49.33287" lon="-1.72331">
        <ele>8.2</ele>
        <time>2023-05-18T13:17:38Z</time>
      </trkpt>
      <trkpt lat="49.3327" lon="-1.72313">
        <ele>8.3</ele>
        <time>2023-05-18T13:17:42Z</time>
      </trkpt>
      <trkpt lat="49.33255" lon="-1.72294">
        <ele>8.2</ele>
        <time>2023-05-18T13:17:46Z</time>
      </trkpt>
      <trkpt lat="49.3324" lon="-1.72278">
        <ele>8.2</ele>
        <time>2023-05-18T13:17:50Z</time>
      </trkpt>
      <trkpt lat="49.33225" lon="-1.72258">
        <ele>8.2</ele>
        <time>2023-05-18T13:17:55Z</time>
      </trkpt>
      <trkpt lat="49.33213" lon="-1.72236">
        <ele>8.1</ele>
        <time>2023-05-18T13:18:40Z</time>
      </trkpt>
      <trkpt lat="49.33225" lon="-1.72213">
        <ele>7.8</ele>
        <time>2023-05-18T13:18:46Z</time>
      </trkpt>
      <trkpt lat="49.33238" lon="-1.72187">
        <ele>7.4</ele>
        <time>2023-05-18T13:18:51Z</time>
      </trkpt>
      <trkpt lat="49.3325" lon="-1.72162">
        <ele>7.2</ele>
        <time>2023-05-18T13:18:55Z</time>
      </trkpt>
      <trkpt lat="49.33262" lon="-1.72136">
        <ele>7</ele>
        <time>2023-05-18T13:18:59Z</time>
      </trkpt>
      <trkpt lat="49.33274" lon="-1.72111">
        <ele>6.8</ele>
        <time>2023-05-18T13:19:03Z</time>
      </trkpt>
      <trkpt lat="49.33286" lon="-1.72085">
        <ele>6.6</ele>
        <time>2023-05-18T13:19:07Z</time>
      </trkpt>
      <trkpt lat="49.33299" lon="-1.7206">
        <ele>6.4</ele>
        <time>2023-05-18T13:19:11Z</time>
      </trkpt>
      <trkpt lat="49.3331" lon="-1.72035">
        <ele>6.4</ele>
        <time>2023-05-18T13:19:15Z</time>
      </trkpt>
      <trkpt lat="49.33317" lon="-1.72008">
        <ele>6.5</ele>
        <time>2023-05-18T13:19:21Z</time>
      </trkpt>
      <trkpt lat="49.33299" lon="-1.71992">
        <ele>6.4</ele>
        <time>2023-05-18T13:19:26Z</time>
      </trkpt>
      <trkpt lat="49.33283" lon="-1.71978">
        <ele>6.3</ele>
        <time>2023-05-18T13:19:30Z</time>
      </trkpt>
      <trkpt lat="49.33267" lon="-1.71961">
        <ele>6.3</ele>
        <time>2023-05-18T13:19:34Z</time>
      </trkpt>
      <trkpt lat="49.33249" lon="-1.71945">
        <ele>6.3</ele>
        <time>2023-05-18T13:19:38Z</time>
      </trkpt>
      <trkpt lat="49.33231" lon="-1.71928">
        <ele>6.3</ele>
        <time>2023-05-18T13:19:42Z</time>
      </trkpt>
      <trkpt lat="49.33215" lon="-1.7191">
        <ele>6.3</ele>
        <time>2023-05-18T13:19:46Z</time>
      </trkpt>
      <trkpt lat="49.33199" lon="-1.71893">
        <ele>6.2</ele>
        <time>2023-05-18T13:19:50Z</time>
      </trkpt>
      <trkpt lat="49.33182" lon="-1.71876">
        <ele>6.2</ele>
        <time>2023-05-18T13:19:54Z</time>
      </trkpt>
      <trkpt lat="49.33165" lon="-1.71857">
        <ele>6.2</ele>
        <time>2023-05-18T13:19:58Z</time>
      </trkpt>
      <trkpt lat="49.33152" lon="-1.71832">
        <ele>6.2</ele>
        <time>2023-05-18T13:20:02Z</time>
      </trkpt>
      <trkpt lat="49.33142" lon="-1.71807">
        <ele>6.2</ele>
        <time>2023-05-18T13:20:06Z</time>
      </trkpt>
      <trkpt lat="49.3313" lon="-1.71783">
        <ele>6.2</ele>
        <time>2023-05-18T13:20:10Z</time>
      </trkpt>
      <trkpt lat="49.33118" lon="-1.71761">
        <ele>6.3</ele>
        <time>2023-05-18T13:20:14Z</time>
      </trkpt>
      <trkpt lat="49.33104" lon="-1.71736">
        <ele>6.3</ele>
        <time>2023-05-18T13:20:18Z</time>
      </trkpt>
      <trkpt lat="49.33091" lon="-1.71712">
        <ele>6.5</ele>
        <time>2023-05-18T13:20:22Z</time>
      </trkpt>
      <trkpt lat="49.33076" lon="-1.71688">
        <ele>6.7</ele>
        <time>2023-05-18T13:20:26Z</time>
      </trkpt>
      <trkpt lat="49.33063" lon="-1.71667">
        <ele>7</ele>
        <time>2023-05-18T13:20:30Z</time>
      </trkpt>
      <trkpt lat="49.33047" lon="-1.71646">
        <ele>7.5</ele>
        <time>2023-05-18T13:20:35Z</time>
      </trkpt>
      <trkpt lat="49.33034" lon="-1.71623">
        <ele>8.2</ele>
        <time>2023-05-18T13:20:41Z</time>
      </trkpt>
      <trkpt lat="49.33038" lon="-1.71594">
        <ele>8.2</ele>
        <time>2023-05-18T13:20:46Z</time>
      </trkpt>
      <trkpt lat="49.33044" lon="-1.71567">
        <ele>8.2</ele>
        <time>2023-05-18T13:20:50Z</time>
      </trkpt>
      <trkpt lat="49.3305" lon="-1.71539">
        <ele>8.3</ele>
        <time>2023-05-18T13:20:54Z</time>
      </trkpt>
      <trkpt lat="49.33053" lon="-1.7151">
        <ele>8.3</ele>
        <time>2023-05-18T13:20:58Z</time>
      </trkpt>
      <trkpt lat="49.33056" lon="-1.71482">
        <ele>8.3</ele>
        <time>2023-05-18T13:21:02Z</time>
      </trkpt>
      <trkpt lat="49.33058" lon="-1.71454">
        <ele>8.4</ele>
        <time>2023-05-18T13:21:06Z</time>
      </trkpt>
      <trkpt lat="49.3306" lon="-1.71419">
        <ele>8.6</ele>
        <time>2023-05-18T13:21:11Z</time>
      </trkpt>
      <trkpt lat="49.33059" lon="-1.71391">
        <ele>8.6</ele>
        <time>2023-05-18T13:21:15Z</time>
      </trkpt>
      <trkpt lat="49.33057" lon="-1.7136">
        <ele>8.7</ele>
        <time>2023-05-18T13:21:19Z</time>
      </trkpt>
      <trkpt lat="49.33053" lon="-1.7133">
        <ele>8.7</ele>
        <time>2023-05-18T13:21:23Z</time>
      </trkpt>
      <trkpt lat="49.33048" lon="-1.713">
        <ele>8.7</ele>
        <time>2023-05-18T13:21:27Z</time>
      </trkpt>
      <trkpt lat="49.33043" lon="-1.71268">
        <ele>8.7</ele>
        <time>2023-05-18T13:21:31Z</time>
      </trkpt>
      <trkpt lat="49.33037" lon="-1.71236">
        <ele>8.6</ele>
        <time>2023-05-18T13:21:35Z</time>
      </trkpt>
      <trkpt lat="49.33033" lon="-1.71204">
        <ele>8.7</ele>
        <time>2023-05-18T13:21:39Z</time>
      </trkpt>
      <trkpt lat="49.33029" lon="-1.71172">
        <ele>8.7</ele>
        <time>2023-05-18T13:21:43Z</time>
      </trkpt>
      <trkpt lat="49.33024" lon="-1.71139">
        <ele>8.6</ele>
        <time>2023-05-18T13:21:47Z</time>
      </trkpt>
      <trkpt lat="49.33019" lon="-1.71107">
        <ele>8.5</ele>
        <time>2023-05-18T13:21:51Z</time>
      </trkpt>
      <trkpt lat="49.33013" lon="-1.71073">
        <ele>8.3</ele>
        <time>2023-05-18T13:21:55Z</time>
      </trkpt>
      <trkpt lat="49.33007" lon="-1.71041">
        <ele>8</ele>
        <time>2023-05-18T13:21:59Z</time>
      </trkpt>
      <trkpt lat="49.33001" lon="-1.71007">
        <ele>7.7</ele>
        <time>2023-05-18T13:22:03Z</time>
      </trkpt>
      <trkpt lat="49.32996" lon="-1.70973">
        <ele>7.3</ele>
        <time>2023-05-18T13:22:07Z</time>
      </trkpt>
      <trkpt lat="49.32989" lon="-1.7094">
        <ele>7.1</ele>
        <time>2023-05-18T13:22:11Z</time>
      </trkpt>
      <trkpt lat="49.32984" lon="-1.70907">
        <ele>7</ele>
        <time>2023-05-18T13:22:15Z</time>
      </trkpt>
      <trkpt lat="49.32979" lon="-1.70876">
        <ele>6.9</ele>
        <time>2023-05-18T13:22:19Z</time>
      </trkpt>
      <trkpt lat="49.32973" lon="-1.70844">
        <ele>6.7</ele>
        <time>2023-05-18T13:22:23Z</time>
      </trkpt>
      <trkpt lat="49.32969" lon="-1.70813">
        <ele>6.6</ele>
        <time>2023-05-18T13:22:27Z</time>
      </trkpt>
      <trkpt lat="49.32968" lon="-1.70783">
        <ele>6.6</ele>
        <time>2023-05-18T13:22:31Z</time>
      </trkpt>
      <trkpt lat="49.3297" lon="-1.70754">
        <ele>6.6</ele>
        <time>2023-05-18T13:22:35Z</time>
      </trkpt>
      <trkpt lat="49.32975" lon="-1.70726">
        <ele>6.6</ele>
        <time>2023-05-18T13:22:39Z</time>
      </trkpt>
      <trkpt lat="49.32983" lon="-1.70702">
        <ele>6.6</ele>
        <time>2023-05-18T13:22:43Z</time>
      </trkpt>
      <trkpt lat="49.32994" lon="-1.70679">
        <ele>6.6</ele>
        <time>2023-05-18T13:22:47Z</time>
      </trkpt>
      <trkpt lat="49.33008" lon="-1.70657">
        <ele>6.6</ele>
        <time>2023-05-18T13:22:52Z</time>
      </trkpt>
      <trkpt lat="49.33023" lon="-1.70635">
        <ele>6.6</ele>
        <time>2023-05-18T13:22:57Z</time>
      </trkpt>
      <trkpt lat="49.33036" lon="-1.70613">
        <ele>6.6</ele>
        <time>2023-05-18T13:23:02Z</time>
      </trkpt>
      <trkpt lat="49.33051" lon="-1.70591">
        <ele>6.6</ele>
        <time>2023-05-18T13:23:07Z</time>
      </trkpt>
      <trkpt lat="49.33067" lon="-1.70568">
        <ele>6.7</ele>
        <time>2023-05-18T13:23:12Z</time>
      </trkpt>
      <trkpt lat="49.33083" lon="-1.70545">
        <ele>6.7</ele>
        <time>2023-05-18T13:23:17Z</time>
      </trkpt>
      <trkpt lat="49.33099" lon="-1.70522">
        <ele>6.7</ele>
        <time>2023-05-18T13:23:22Z</time>
      </trkpt>
      <trkpt lat="49.33114" lon="-1.70499">
        <ele>6.8</ele>
        <time>2023-05-18T13:23:27Z</time>
      </trkpt>
      <trkpt lat="49.33129" lon="-1.70477">
        <ele>6.9</ele>
        <time>2023-05-18T13:23:32Z</time>
      </trkpt>
      <trkpt lat="49.33144" lon="-1.70455">
        <ele>6.9</ele>
        <time>2023-05-18T13:23:37Z</time>
      </trkpt>
      <trkpt lat="49.3316" lon="-1.70431">
        <ele>6.9</ele>
        <time>2023-05-18T13:23:42Z</time>
      </trkpt>
      <trkpt lat="49.33176" lon="-1.70408">
        <ele>6.9</ele>
        <time>2023-05-18T13:23:47Z</time>
      </trkpt>
      <trkpt lat="49.33191" lon="-1.70385">
        <ele>6.9</ele>
        <time>2023-05-18T13:23:52Z</time>
      </trkpt>
      <trkpt lat="49.33206" lon="-1.70362">
        <ele>6.8</ele>
        <time>2023-05-18T13:23:57Z</time>
      </trkpt>
      <trkpt lat="49.33221" lon="-1.7034">
        <ele>6.8</ele>
        <time>2023-05-18T13:24:02Z</time>
      </trkpt>
      <trkpt lat="49.33234" lon="-1.70319">
        <ele>6.8</ele>
        <time>2023-05-18T13:24:07Z</time>
      </trkpt>
      <trkpt lat="49.33248" lon="-1.70297">
        <ele>6.8</ele>
        <time>2023-05-18T13:25:40Z</time>
      </trkpt>
      <trkpt lat="49.33263" lon="-1.70276">
        <ele>6.7</ele>
        <time>2023-05-18T13:25:47Z</time>
      </trkpt>
      <trkpt lat="49.33278" lon="-1.70255">
        <ele>6.8</ele>
        <time>2023-05-18T13:25:53Z</time>
      </trkpt>
      <trkpt lat="49.33291" lon="-1.70236">
        <ele>6.8</ele>
        <time>2023-05-18T13:25:58Z</time>
      </trkpt>
      <trkpt lat="49.33305" lon="-1.70215">
        <ele>6.8</ele>
        <time>2023-05-18T13:26:03Z</time>
      </trkpt>
      <trkpt lat="49.3332" lon="-1.70193">
        <ele>6.9</ele>
        <time>2023-05-18T13:26:08Z</time>
      </trkpt>
      <trkpt lat="49.33334" lon="-1.7017">
        <ele>6.9</ele>
        <time>2023-05-18T13:26:13Z</time>
      </trkpt>
      <trkpt lat="49.3335" lon="-1.70148">
        <ele>6.9</ele>
        <time>2023-05-18T13:26:18Z</time>
      </trkpt>
      <trkpt lat="49.33366" lon="-1.70126">
        <ele>7</ele>
        <time>2023-05-18T13:26:23Z</time>
      </trkpt>
      <trkpt lat="49.3338" lon="-1.70105">
        <ele>7.1</ele>
        <time>2023-05-18T13:26:28Z</time>
      </trkpt>
      <trkpt lat="49.33394" lon="-1.70084">
        <ele>7.1</ele>
        <time>2023-05-18T13:26:33Z</time>
      </trkpt>
      <trkpt lat="49.33409" lon="-1.70062">
        <ele>7.2</ele>
        <time>2023-05-18T13:26:38Z</time>
      </trkpt>
      <trkpt lat="49.33424" lon="-1.7004">
        <ele>7.1</ele>
        <time>2023-05-18T13:26:43Z</time>
      </trkpt>
      <trkpt lat="49.33439" lon="-1.70016">
        <ele>7.1</ele>
        <time>2023-05-18T13:26:48Z</time>
      </trkpt>
      <trkpt lat="49.33453" lon="-1.69996">
        <ele>7.1</ele>
        <time>2023-05-18T13:26:52Z</time>
      </trkpt>
      <trkpt lat="49.33465" lon="-1.69974">
        <ele>7.2</ele>
        <time>2023-05-18T13:26:56Z</time>
      </trkpt>
      <trkpt lat="49.33475" lon="-1.69948">
        <ele>7.6</ele>
        <time>2023-05-18T13:27:01Z</time>
      </trkpt>
      <trkpt lat="49.3348" lon="-1.69917">
        <ele>8.5</ele>
        <time>2023-05-18T13:27:07Z</time>
      </trkpt>
      <trkpt lat="49.33488" lon="-1.6989">
        <ele>9.3</ele>
        <time>2023-05-18T13:27:13Z</time>
      </trkpt>
      <trkpt lat="49.33496" lon="-1.69863">
        <ele>10.1</ele>
        <time>2023-05-18T13:27:19Z</time>
      </trkpt>
      <trkpt lat="49.33504" lon="-1.69836">
        <ele>10.7</ele>
        <time>2023-05-18T13:27:26Z</time>
      </trkpt>
      <trkpt lat="49.3351" lon="-1.6981">
        <ele>11.2</ele>
        <time>2023-05-18T13:27:32Z</time>
      </trkpt>
      <trkpt lat="49.33519" lon="-1.69784">
        <ele>11.5</ele>
        <time>2023-05-18T13:27:38Z</time>
      </trkpt>
      <trkpt lat="49.33527" lon="-1.69757">
        <ele>11.8</ele>
        <time>2023-05-18T13:27:43Z</time>
      </trkpt>
      <trkpt lat="49.33531" lon="-1.69727">
        <ele>12</ele>
        <time>2023-05-18T13:27:48Z</time>
      </trkpt>
      <trkpt lat="49.33541" lon="-1.69701">
        <ele>12.2</ele>
        <time>2023-05-18T13:27:53Z</time>
      </trkpt>
      <trkpt lat="49.33543" lon="-1.69671">
        <ele>12.4</ele>
        <time>2023-05-18T13:27:58Z</time>
      </trkpt>
      <trkpt lat="49.3354" lon="-1.69637">
        <ele>12.5</ele>
        <time>2023-05-18T13:28:03Z</time>
      </trkpt>
      <trkpt lat="49.33537" lon="-1.69604">
        <ele>12.5</ele>
        <time>2023-05-18T13:28:08Z</time>
      </trkpt>
      <trkpt lat="49.33537" lon="-1.69576">
        <ele>12.5</ele>
        <time>2023-05-18T13:28:12Z</time>
      </trkpt>
      <trkpt lat="49.33537" lon="-1.69548">
        <ele>12.6</ele>
        <time>2023-05-18T13:28:16Z</time>
      </trkpt>
      <trkpt lat="49.33536" lon="-1.69519">
        <ele>12.6</ele>
        <time>2023-05-18T13:28:20Z</time>
      </trkpt>
      <trkpt lat="49.33535" lon="-1.69485">
        <ele>12.7</ele>
        <time>2023-05-18T13:28:25Z</time>
      </trkpt>
      <trkpt lat="49.33533" lon="-1.69452">
        <ele>12.8</ele>
        <time>2023-05-18T13:28:30Z</time>
      </trkpt>
      <trkpt lat="49.33533" lon="-1.69424">
        <ele>12.9</ele>
        <time>2023-05-18T13:28:34Z</time>
      </trkpt>
      <trkpt lat="49.33531" lon="-1.69395">
        <ele>12.9</ele>
        <time>2023-05-18T13:28:38Z</time>
      </trkpt>
      <trkpt lat="49.3353" lon="-1.69367">
        <ele>13</ele>
        <time>2023-05-18T13:28:42Z</time>
      </trkpt>
      <trkpt lat="49.33527" lon="-1.69333">
        <ele>13.1</ele>
        <time>2023-05-18T13:28:47Z</time>
      </trkpt>
      <trkpt lat="49.33525" lon="-1.69305">
        <ele>13.2</ele>
        <time>2023-05-18T13:28:51Z</time>
      </trkpt>
      <trkpt lat="49.33521" lon="-1.69272">
        <ele>13.3</ele>
        <time>2023-05-18T13:28:56Z</time>
      </trkpt>
      <trkpt lat="49.33519" lon="-1.69242">
        <ele>13.4</ele>
        <time>2023-05-18T13:29:00Z</time>
      </trkpt>
      <trkpt lat="49.33521" lon="-1.69214">
        <ele>13.4</ele>
        <time>2023-05-18T13:29:04Z</time>
      </trkpt>
      <trkpt lat="49.33519" lon="-1.69186">
        <ele>13.5</ele>
        <time>2023-05-18T13:29:08Z</time>
      </trkpt>
      <trkpt lat="49.33516" lon="-1.69155">
        <ele>13.6</ele>
        <time>2023-05-18T13:29:12Z</time>
      </trkpt>
      <trkpt lat="49.33514" lon="-1.69126">
        <ele>13.7</ele>
        <time>2023-05-18T13:29:16Z</time>
      </trkpt>
      <trkpt lat="49.33512" lon="-1.69095">
        <ele>13.7</ele>
        <time>2023-05-18T13:29:20Z</time>
      </trkpt>
      <trkpt lat="49.3351" lon="-1.69061">
        <ele>13.7</ele>
        <time>2023-05-18T13:29:25Z</time>
      </trkpt>
      <trkpt lat="49.33508" lon="-1.69033">
        <ele>13.8</ele>
        <time>2023-05-18T13:29:29Z</time>
      </trkpt>
      <trkpt lat="49.33507" lon="-1.68999">
        <ele>14</ele>
        <time>2023-05-18T13:29:34Z</time>
      </trkpt>
      <trkpt lat="49.33505" lon="-1.68969">
        <ele>14.2</ele>
        <time>2023-05-18T13:29:38Z</time>
      </trkpt>
      <trkpt lat="49.33505" lon="-1.6894">
        <ele>14.3</ele>
        <time>2023-05-18T13:29:42Z</time>
      </trkpt>
      <trkpt lat="49.33502" lon="-1.6891">
        <ele>14.4</ele>
        <time>2023-05-18T13:29:46Z</time>
      </trkpt>
      <trkpt lat="49.335" lon="-1.6888">
        <ele>14.5</ele>
        <time>2023-05-18T13:29:50Z</time>
      </trkpt>
      <trkpt lat="49.33498" lon="-1.68851">
        <ele>14.6</ele>
        <time>2023-05-18T13:29:54Z</time>
      </trkpt>
      <trkpt lat="49.33498" lon="-1.6882">
        <ele>14.7</ele>
        <time>2023-05-18T13:29:58Z</time>
      </trkpt>
      <trkpt lat="49.33495" lon="-1.6879">
        <ele>14.7</ele>
        <time>2023-05-18T13:30:02Z</time>
      </trkpt>
      <trkpt lat="49.33494" lon="-1.6876">
        <ele>14.8</ele>
        <time>2023-05-18T13:30:06Z</time>
      </trkpt>
      <trkpt lat="49.33493" lon="-1.68731">
        <ele>14.9</ele>
        <time>2023-05-18T13:30:10Z</time>
      </trkpt>
      <trkpt lat="49.3349" lon="-1.68701">
        <ele>15</ele>
        <time>2023-05-18T13:30:14Z</time>
      </trkpt>
      <trkpt lat="49.3349" lon="-1.68674">
        <ele>15.1</ele>
        <time>2023-05-18T13:30:18Z</time>
      </trkpt>
      <trkpt lat="49.33488" lon="-1.68646">
        <ele>15.2</ele>
        <time>2023-05-18T13:30:22Z</time>
      </trkpt>
      <trkpt lat="49.33486" lon="-1.68613">
        <ele>15.3</ele>
        <time>2023-05-18T13:30:27Z</time>
      </trkpt>
      <trkpt lat="49.33485" lon="-1.68579">
        <ele>15.4</ele>
        <time>2023-05-18T13:30:32Z</time>
      </trkpt>
      <trkpt lat="49.33482" lon="-1.68546">
        <ele>15.4</ele>
        <time>2023-05-18T13:30:37Z</time>
      </trkpt>
      <trkpt lat="49.3348" lon="-1.68514">
        <ele>15.4</ele>
        <time>2023-05-18T13:30:42Z</time>
      </trkpt>
      <trkpt lat="49.33478" lon="-1.68485">
        <ele>15.4</ele>
        <time>2023-05-18T13:30:46Z</time>
      </trkpt>
      <trkpt lat="49.33477" lon="-1.68452">
        <ele>15.5</ele>
        <time>2023-05-18T13:30:51Z</time>
      </trkpt>
      <trkpt lat="49.33474" lon="-1.68419">
        <ele>15.4</ele>
        <time>2023-05-18T13:30:56Z</time>
      </trkpt>
      <trkpt lat="49.33472" lon="-1.68388">
        <ele>15.2</ele>
        <time>2023-05-18T13:31:01Z</time>
      </trkpt>
      <trkpt lat="49.33471" lon="-1.68354">
        <ele>14.9</ele>
        <time>2023-05-18T13:31:06Z</time>
      </trkpt>
      <trkpt lat="49.33469" lon="-1.68324">
        <ele>14.6</ele>
        <time>2023-05-18T13:31:10Z</time>
      </trkpt>
      <trkpt lat="49.33468" lon="-1.68294">
        <ele>14.1</ele>
        <time>2023-05-18T13:31:14Z</time>
      </trkpt>
      <trkpt lat="49.33465" lon="-1.68262">
        <ele>13.6</ele>
        <time>2023-05-18T13:31:18Z</time>
      </trkpt>
      <trkpt lat="49.33462" lon="-1.68228">
        <ele>13</ele>
        <time>2023-05-18T13:31:22Z</time>
      </trkpt>
      <trkpt lat="49.33462" lon="-1.68196">
        <ele>12.5</ele>
        <time>2023-05-18T13:31:26Z</time>
      </trkpt>
      <trkpt lat="49.33459" lon="-1.68162">
        <ele>12.2</ele>
        <time>2023-05-18T13:31:30Z</time>
      </trkpt>
      <trkpt lat="49.33457" lon="-1.68125">
        <ele>12.3</ele>
        <time>2023-05-18T13:31:34Z</time>
      </trkpt>
      <trkpt lat="49.33455" lon="-1.68091">
        <ele>12.6</ele>
        <time>2023-05-18T13:31:38Z</time>
      </trkpt>
      <trkpt lat="49.3345" lon="-1.68063">
        <ele>13.2</ele>
        <time>2023-05-18T13:31:42Z</time>
      </trkpt>
      <trkpt lat="49.33442" lon="-1.68035">
        <ele>13.3</ele>
        <time>2023-05-18T13:31:47Z</time>
      </trkpt>
      <trkpt lat="49.33436" lon="-1.68007">
        <ele>13.5</ele>
        <time>2023-05-18T13:31:52Z</time>
      </trkpt>
      <trkpt lat="49.3342" lon="-1.67984">
        <ele>14</ele>
        <time>2023-05-18T13:31:57Z</time>
      </trkpt>
      <trkpt lat="49.33406" lon="-1.67966">
        <ele>14.4</ele>
        <time>2023-05-18T13:32:01Z</time>
      </trkpt>
      <trkpt lat="49.33388" lon="-1.67958">
        <ele>14.6</ele>
        <time>2023-05-18T13:32:05Z</time>
      </trkpt>
      <trkpt lat="49.33369" lon="-1.67954">
        <ele>14.6</ele>
        <time>2023-05-18T13:32:09Z</time>
      </trkpt>
      <trkpt lat="49.33351" lon="-1.67952">
        <ele>14.4</ele>
        <time>2023-05-18T13:32:13Z</time>
      </trkpt>
      <trkpt lat="49.3333" lon="-1.67949">
        <ele>14.1</ele>
        <time>2023-05-18T13:32:17Z</time>
      </trkpt>
      <trkpt lat="49.33307" lon="-1.67946">
        <ele>13.7</ele>
        <time>2023-05-18T13:32:21Z</time>
      </trkpt>
      <trkpt lat="49.33283" lon="-1.67943">
        <ele>13.3</ele>
        <time>2023-05-18T13:32:25Z</time>
      </trkpt>
      <trkpt lat="49.33264" lon="-1.67941">
        <ele>13.1</ele>
        <time>2023-05-18T13:32:28Z</time>
      </trkpt>
      <trkpt lat="49.33245" lon="-1.67936">
        <ele>12.8</ele>
        <time>2023-05-18T13:32:31Z</time>
      </trkpt>
      <trkpt lat="49.33224" lon="-1.67934">
        <ele>12.4</ele>
        <time>2023-05-18T13:32:34Z</time>
      </trkpt>
      <trkpt lat="49.33203" lon="-1.6793">
        <ele>11.9</ele>
        <time>2023-05-18T13:32:37Z</time>
      </trkpt>
      <trkpt lat="49.3318" lon="-1.67926">
        <ele>11.4</ele>
        <time>2023-05-18T13:32:40Z</time>
      </trkpt>
      <trkpt lat="49.33158" lon="-1.67922">
        <ele>11</ele>
        <time>2023-05-18T13:32:43Z</time>
      </trkpt>
      <trkpt lat="49.33134" lon="-1.67918">
        <ele>10.5</ele>
        <time>2023-05-18T13:32:46Z</time>
      </trkpt>
      <trkpt lat="49.3311" lon="-1.67916">
        <ele>10</ele>
        <time>2023-05-18T13:32:49Z</time>
      </trkpt>
      <trkpt lat="49.33086" lon="-1.67913">
        <ele>9.4</ele>
        <time>2023-05-18T13:32:52Z</time>
      </trkpt>
      <trkpt lat="49.33062" lon="-1.67909">
        <ele>9</ele>
        <time>2023-05-18T13:32:55Z</time>
      </trkpt>
      <trkpt lat="49.33039" lon="-1.67905">
        <ele>8.7</ele>
        <time>2023-05-18T13:32:58Z</time>
      </trkpt>
      <trkpt lat="49.33015" lon="-1.67901">
        <ele>8.6</ele>
        <time>2023-05-18T13:33:01Z</time>
      </trkpt>
      <trkpt lat="49.32992" lon="-1.67899">
        <ele>8.1</ele>
        <time>2023-05-18T13:33:04Z</time>
      </trkpt>
      <trkpt lat="49.32968" lon="-1.67896">
        <ele>8</ele>
        <time>2023-05-18T13:33:07Z</time>
      </trkpt>
      <trkpt lat="49.32944" lon="-1.67892">
        <ele>7.9</ele>
        <time>2023-05-18T13:33:10Z</time>
      </trkpt>
      <trkpt lat="49.32924" lon="-1.6789">
        <ele>7.9</ele>
        <time>2023-05-18T13:33:13Z</time>
      </trkpt>
      <trkpt lat="49.32901" lon="-1.67887">
        <ele>8</ele>
        <time>2023-05-18T13:33:16Z</time>
      </trkpt>
      <trkpt lat="49.3288" lon="-1.67884">
        <ele>8.2</ele>
        <time>2023-05-18T13:33:19Z</time>
      </trkpt>
      <trkpt lat="49.3286" lon="-1.67882">
        <ele>8.4</ele>
        <time>2023-05-18T13:33:22Z</time>
      </trkpt>
      <trkpt lat="49.3284" lon="-1.67879">
        <ele>8.6</ele>
        <time>2023-05-18T13:33:25Z</time>
      </trkpt>
      <trkpt lat="49.3282" lon="-1.67877">
        <ele>8.9</ele>
        <time>2023-05-18T13:33:28Z</time>
      </trkpt>
      <trkpt lat="49.32802" lon="-1.67874">
        <ele>9.1</ele>
        <time>2023-05-18T13:33:31Z</time>
      </trkpt>
      <trkpt lat="49.32783" lon="-1.67871">
        <ele>9.4</ele>
        <time>2023-05-18T13:33:34Z</time>
      </trkpt>
      <trkpt lat="49.32765" lon="-1.67869">
        <ele>9.6</ele>
        <time>2023-05-18T13:33:37Z</time>
      </trkpt>
      <trkpt lat="49.32747" lon="-1.67866">
        <ele>9.9</ele>
        <time>2023-05-18T13:33:40Z</time>
      </trkpt>
      <trkpt lat="49.32725" lon="-1.67862">
        <ele>10.1</ele>
        <time>2023-05-18T13:33:44Z</time>
      </trkpt>
      <trkpt lat="49.32703" lon="-1.6786">
        <ele>10.2</ele>
        <time>2023-05-18T13:33:48Z</time>
      </trkpt>
      <trkpt lat="49.32681" lon="-1.67856">
        <ele>10.2</ele>
        <time>2023-05-18T13:33:52Z</time>
      </trkpt>
      <trkpt lat="49.32659" lon="-1.67854">
        <ele>10.5</ele>
        <time>2023-05-18T13:33:56Z</time>
      </trkpt>
      <trkpt lat="49.32637" lon="-1.67852">
        <ele>10.7</ele>
        <time>2023-05-18T13:34:00Z</time>
      </trkpt>
      <trkpt lat="49.32616" lon="-1.6785">
        <ele>11</ele>
        <time>2023-05-18T13:34:04Z</time>
      </trkpt>
      <trkpt lat="49.32595" lon="-1.67849">
        <ele>11.3</ele>
        <time>2023-05-18T13:34:08Z</time>
      </trkpt>
      <trkpt lat="49.32574" lon="-1.67848">
        <ele>11.6</ele>
        <time>2023-05-18T13:34:12Z</time>
      </trkpt>
      <trkpt lat="49.32552" lon="-1.67848">
        <ele>11.8</ele>
        <time>2023-05-18T13:34:16Z</time>
      </trkpt>
      <trkpt lat="49.32528" lon="-1.67849">
        <ele>12</ele>
        <time>2023-05-18T13:34:20Z</time>
      </trkpt>
      <trkpt lat="49.3251" lon="-1.6785">
        <ele>12.3</ele>
        <time>2023-05-18T13:34:23Z</time>
      </trkpt>
      <trkpt lat="49.32487" lon="-1.6785">
        <ele>12.6</ele>
        <time>2023-05-18T13:34:27Z</time>
      </trkpt>
      <trkpt lat="49.32464" lon="-1.67852">
        <ele>12.7</ele>
        <time>2023-05-18T13:34:31Z</time>
      </trkpt>
      <trkpt lat="49.32442" lon="-1.67854">
        <ele>12.8</ele>
        <time>2023-05-18T13:34:35Z</time>
      </trkpt>
      <trkpt lat="49.32419" lon="-1.67857">
        <ele>13</ele>
        <time>2023-05-18T13:34:39Z</time>
      </trkpt>
      <trkpt lat="49.32396" lon="-1.67862">
        <ele>13.1</ele>
        <time>2023-05-18T13:34:43Z</time>
      </trkpt>
      <trkpt lat="49.32376" lon="-1.67867">
        <ele>13.2</ele>
        <time>2023-05-18T13:34:46Z</time>
      </trkpt>
      <trkpt lat="49.32358" lon="-1.67871">
        <ele>13.3</ele>
        <time>2023-05-18T13:34:49Z</time>
      </trkpt>
      <trkpt lat="49.32335" lon="-1.67876">
        <ele>13.4</ele>
        <time>2023-05-18T13:34:53Z</time>
      </trkpt>
      <trkpt lat="49.32312" lon="-1.67882">
        <ele>13.4</ele>
        <time>2023-05-18T13:34:57Z</time>
      </trkpt>
      <trkpt lat="49.3229" lon="-1.67889">
        <ele>13.5</ele>
        <time>2023-05-18T13:35:01Z</time>
      </trkpt>
      <trkpt lat="49.32267" lon="-1.67897">
        <ele>13.7</ele>
        <time>2023-05-18T13:35:05Z</time>
      </trkpt>
      <trkpt lat="49.32244" lon="-1.67905">
        <ele>13.9</ele>
        <time>2023-05-18T13:35:09Z</time>
      </trkpt>
      <trkpt lat="49.32225" lon="-1.67911">
        <ele>14</ele>
        <time>2023-05-18T13:35:12Z</time>
      </trkpt>
      <trkpt lat="49.32207" lon="-1.67917">
        <ele>14.1</ele>
        <time>2023-05-18T13:35:15Z</time>
      </trkpt>
      <trkpt lat="49.32188" lon="-1.67923">
        <ele>14.2</ele>
        <time>2023-05-18T13:35:18Z</time>
      </trkpt>
      <trkpt lat="49.32171" lon="-1.6793">
        <ele>14.2</ele>
        <time>2023-05-18T13:35:21Z</time>
      </trkpt>
      <trkpt lat="49.32152" lon="-1.67937">
        <ele>14.3</ele>
        <time>2023-05-18T13:35:24Z</time>
      </trkpt>
      <trkpt lat="49.32134" lon="-1.67944">
        <ele>14.3</ele>
        <time>2023-05-18T13:35:27Z</time>
      </trkpt>
      <trkpt lat="49.32115" lon="-1.6795">
        <ele>14.4</ele>
        <time>2023-05-18T13:35:30Z</time>
      </trkpt>
      <trkpt lat="49.32096" lon="-1.67955">
        <ele>14.4</ele>
        <time>2023-05-18T13:35:33Z</time>
      </trkpt>
      <trkpt lat="49.32078" lon="-1.67961">
        <ele>14.5</ele>
        <time>2023-05-18T13:35:36Z</time>
      </trkpt>
      <trkpt lat="49.3206" lon="-1.67967">
        <ele>14.6</ele>
        <time>2023-05-18T13:35:39Z</time>
      </trkpt>
      <trkpt lat="49.32042" lon="-1.67973">
        <ele>14.7</ele>
        <time>2023-05-18T13:35:42Z</time>
      </trkpt>
      <trkpt lat="49.32024" lon="-1.67979">
        <ele>14.8</ele>
        <time>2023-05-18T13:35:45Z</time>
      </trkpt>
      <trkpt lat="49.32001" lon="-1.67986">
        <ele>15</ele>
        <time>2023-05-18T13:35:49Z</time>
      </trkpt>
      <trkpt lat="49.31977" lon="-1.67994">
        <ele>15.1</ele>
        <time>2023-05-18T13:35:53Z</time>
      </trkpt>
      <trkpt lat="49.31959" lon="-1.68">
        <ele>15.3</ele>
        <time>2023-05-18T13:35:56Z</time>
      </trkpt>
      <trkpt lat="49.31937" lon="-1.68008">
        <ele>15.4</ele>
        <time>2023-05-18T13:36:00Z</time>
      </trkpt>
      <trkpt lat="49.31913" lon="-1.68015">
        <ele>15.5</ele>
        <time>2023-05-18T13:36:04Z</time>
      </trkpt>
      <trkpt lat="49.31895" lon="-1.68021">
        <ele>15.6</ele>
        <time>2023-05-18T13:36:07Z</time>
      </trkpt>
      <trkpt lat="49.31873" lon="-1.68029">
        <ele>15.7</ele>
        <time>2023-05-18T13:36:11Z</time>
      </trkpt>
      <trkpt lat="49.31849" lon="-1.68036">
        <ele>15.8</ele>
        <time>2023-05-18T13:36:15Z</time>
      </trkpt>
      <trkpt lat="49.31827" lon="-1.68044">
        <ele>16</ele>
        <time>2023-05-18T13:36:19Z</time>
      </trkpt>
      <trkpt lat="49.31809" lon="-1.6805">
        <ele>16.1</ele>
        <time>2023-05-18T13:36:22Z</time>
      </trkpt>
      <trkpt lat="49.31791" lon="-1.68056">
        <ele>16.2</ele>
        <time>2023-05-18T13:36:25Z</time>
      </trkpt>
      <trkpt lat="49.31773" lon="-1.68062">
        <ele>16.3</ele>
        <time>2023-05-18T13:36:28Z</time>
      </trkpt>
      <trkpt lat="49.31751" lon="-1.6807">
        <ele>16.2</ele>
        <time>2023-05-18T13:36:32Z</time>
      </trkpt>
      <trkpt lat="49.31732" lon="-1.68075">
        <ele>16.3</ele>
        <time>2023-05-18T13:36:35Z</time>
      </trkpt>
      <trkpt lat="49.31714" lon="-1.68081">
        <ele>16.4</ele>
        <time>2023-05-18T13:36:38Z</time>
      </trkpt>
      <trkpt lat="49.31691" lon="-1.68087">
        <ele>16.4</ele>
        <time>2023-05-18T13:36:42Z</time>
      </trkpt>
      <trkpt lat="49.31673" lon="-1.68093">
        <ele>16.4</ele>
        <time>2023-05-18T13:36:45Z</time>
      </trkpt>
      <trkpt lat="49.31654" lon="-1.68097">
        <ele>16.4</ele>
        <time>2023-05-18T13:36:48Z</time>
      </trkpt>
      <trkpt lat="49.31636" lon="-1.68101">
        <ele>16.3</ele>
        <time>2023-05-18T13:36:51Z</time>
      </trkpt>
      <trkpt lat="49.31618" lon="-1.68103">
        <ele>16.3</ele>
        <time>2023-05-18T13:36:54Z</time>
      </trkpt>
      <trkpt lat="49.31599" lon="-1.68106">
        <ele>16.3</ele>
        <time>2023-05-18T13:36:57Z</time>
      </trkpt>
      <trkpt lat="49.31581" lon="-1.68108">
        <ele>16.2</ele>
        <time>2023-05-18T13:37:00Z</time>
      </trkpt>
      <trkpt lat="49.31563" lon="-1.68109">
        <ele>16.1</ele>
        <time>2023-05-18T13:37:03Z</time>
      </trkpt>
      <trkpt lat="49.31544" lon="-1.6811">
        <ele>16.1</ele>
        <time>2023-05-18T13:37:06Z</time>
      </trkpt>
      <trkpt lat="49.31526" lon="-1.68108">
        <ele>16</ele>
        <time>2023-05-18T13:37:09Z</time>
      </trkpt>
      <trkpt lat="49.31507" lon="-1.68107">
        <ele>15.9</ele>
        <time>2023-05-18T13:37:12Z</time>
      </trkpt>
      <trkpt lat="49.31489" lon="-1.68105">
        <ele>15.9</ele>
        <time>2023-05-18T13:37:15Z</time>
      </trkpt>
      <trkpt lat="49.31465" lon="-1.68101">
        <ele>15.8</ele>
        <time>2023-05-18T13:37:19Z</time>
      </trkpt>
      <trkpt lat="49.31443" lon="-1.68098">
        <ele>15.7</ele>
        <time>2023-05-18T13:37:23Z</time>
      </trkpt>
      <trkpt lat="49.3142" lon="-1.6809">
        <ele>15.5</ele>
        <time>2023-05-18T13:37:27Z</time>
      </trkpt>
      <trkpt lat="49.31398" lon="-1.68084">
        <ele>15.4</ele>
        <time>2023-05-18T13:37:31Z</time>
      </trkpt>
      <trkpt lat="49.3138" lon="-1.68079">
        <ele>15.3</ele>
        <time>2023-05-18T13:37:34Z</time>
      </trkpt>
      <trkpt lat="49.31362" lon="-1.68072">
        <ele>15.2</ele>
        <time>2023-05-18T13:37:37Z</time>
      </trkpt>
      <trkpt lat="49.31339" lon="-1.68063">
        <ele>15.1</ele>
        <time>2023-05-18T13:37:41Z</time>
      </trkpt>
      <trkpt lat="49.31317" lon="-1.68052">
        <ele>15</ele>
        <time>2023-05-18T13:37:45Z</time>
      </trkpt>
      <trkpt lat="49.313" lon="-1.68041">
        <ele>14.9</ele>
        <time>2023-05-18T13:37:48Z</time>
      </trkpt>
      <trkpt lat="49.31278" lon="-1.68028">
        <ele>14.9</ele>
        <time>2023-05-18T13:37:52Z</time>
      </trkpt>
      <trkpt lat="49.3126" lon="-1.68018">
        <ele>14.8</ele>
        <time>2023-05-18T13:37:55Z</time>
      </trkpt>
      <trkpt lat="49.31242" lon="-1.68009">
        <ele>14.7</ele>
        <time>2023-05-18T13:37:58Z</time>
      </trkpt>
      <trkpt lat="49.31223" lon="-1.68">
        <ele>14.6</ele>
        <time>2023-05-18T13:38:01Z</time>
      </trkpt>
      <trkpt lat="49.312" lon="-1.67989">
        <ele>14.5</ele>
        <time>2023-05-18T13:38:05Z</time>
      </trkpt>
      <trkpt lat="49.31183" lon="-1.6798">
        <ele>14.3</ele>
        <time>2023-05-18T13:38:08Z</time>
      </trkpt>
      <trkpt lat="49.31165" lon="-1.67969">
        <ele>14.2</ele>
        <time>2023-05-18T13:38:11Z</time>
      </trkpt>
      <trkpt lat="49.31147" lon="-1.67959">
        <ele>14.1</ele>
        <time>2023-05-18T13:38:14Z</time>
      </trkpt>
      <trkpt lat="49.31129" lon="-1.67949">
        <ele>14</ele>
        <time>2023-05-18T13:38:17Z</time>
      </trkpt>
      <trkpt lat="49.3111" lon="-1.67939">
        <ele>13.9</ele>
        <time>2023-05-18T13:38:20Z</time>
      </trkpt>
      <trkpt lat="49.31093" lon="-1.6793">
        <ele>13.9</ele>
        <time>2023-05-18T13:38:23Z</time>
      </trkpt>
      <trkpt lat="49.31074" lon="-1.6792">
        <ele>13.8</ele>
        <time>2023-05-18T13:38:26Z</time>
      </trkpt>
      <trkpt lat="49.31056" lon="-1.67911">
        <ele>13.6</ele>
        <time>2023-05-18T13:38:29Z</time>
      </trkpt>
      <trkpt lat="49.31038" lon="-1.67902">
        <ele>13.5</ele>
        <time>2023-05-18T13:38:32Z</time>
      </trkpt>
      <trkpt lat="49.31021" lon="-1.67893">
        <ele>13.5</ele>
        <time>2023-05-18T13:38:35Z</time>
      </trkpt>
      <trkpt lat="49.31002" lon="-1.67883">
        <ele>13.4</ele>
        <time>2023-05-18T13:38:38Z</time>
      </trkpt>
      <trkpt lat="49.30985" lon="-1.67874">
        <ele>13.4</ele>
        <time>2023-05-18T13:38:41Z</time>
      </trkpt>
      <trkpt lat="49.30966" lon="-1.67864">
        <ele>13.3</ele>
        <time>2023-05-18T13:38:44Z</time>
      </trkpt>
      <trkpt lat="49.30948" lon="-1.67853">
        <ele>13.2</ele>
        <time>2023-05-18T13:38:47Z</time>
      </trkpt>
      <trkpt lat="49.30928" lon="-1.67844">
        <ele>13.3</ele>
        <time>2023-05-18T13:38:50Z</time>
      </trkpt>
      <trkpt lat="49.30909" lon="-1.67833">
        <ele>13.1</ele>
        <time>2023-05-18T13:38:53Z</time>
      </trkpt>
      <trkpt lat="49.3089" lon="-1.67822">
        <ele>13</ele>
        <time>2023-05-18T13:38:56Z</time>
      </trkpt>
      <trkpt lat="49.3087" lon="-1.67811">
        <ele>12.9</ele>
        <time>2023-05-18T13:38:59Z</time>
      </trkpt>
      <trkpt lat="49.30851" lon="-1.678">
        <ele>12.8</ele>
        <time>2023-05-18T13:39:02Z</time>
      </trkpt>
      <trkpt lat="49.30831" lon="-1.6779">
        <ele>12.6</ele>
        <time>2023-05-18T13:39:05Z</time>
      </trkpt>
      <trkpt lat="49.30809" lon="-1.6778">
        <ele>12.5</ele>
        <time>2023-05-18T13:39:08Z</time>
      </trkpt>
      <trkpt lat="49.30789" lon="-1.67768">
        <ele>12.4</ele>
        <time>2023-05-18T13:39:11Z</time>
      </trkpt>
      <trkpt lat="49.30769" lon="-1.67757">
        <ele>12.3</ele>
        <time>2023-05-18T13:39:14Z</time>
      </trkpt>
      <trkpt lat="49.3075" lon="-1.67746">
        <ele>12.2</ele>
        <time>2023-05-18T13:39:17Z</time>
      </trkpt>
      <trkpt lat="49.30731" lon="-1.67736">
        <ele>12.1</ele>
        <time>2023-05-18T13:39:20Z</time>
      </trkpt>
      <trkpt lat="49.30711" lon="-1.67725">
        <ele>12</ele>
        <time>2023-05-18T13:39:23Z</time>
      </trkpt>
      <trkpt lat="49.30692" lon="-1.67716">
        <ele>11.8</ele>
        <time>2023-05-18T13:39:26Z</time>
      </trkpt>
      <trkpt lat="49.30672" lon="-1.67704">
        <ele>11.7</ele>
        <time>2023-05-18T13:39:29Z</time>
      </trkpt>
      <trkpt lat="49.30652" lon="-1.67693">
        <ele>11.6</ele>
        <time>2023-05-18T13:39:32Z</time>
      </trkpt>
      <trkpt lat="49.30633" lon="-1.67682">
        <ele>11.6</ele>
        <time>2023-05-18T13:39:35Z</time>
      </trkpt>
      <trkpt lat="49.30613" lon="-1.67672">
        <ele>11.5</ele>
        <time>2023-05-18T13:39:38Z</time>
      </trkpt>
      <trkpt lat="49.30594" lon="-1.67662">
        <ele>11.5</ele>
        <time>2023-05-18T13:39:41Z</time>
      </trkpt>
      <trkpt lat="49.30575" lon="-1.67652">
        <ele>11.4</ele>
        <time>2023-05-18T13:39:44Z</time>
      </trkpt>
      <trkpt lat="49.30557" lon="-1.67642">
        <ele>11.3</ele>
        <time>2023-05-18T13:39:47Z</time>
      </trkpt>
      <trkpt lat="49.30534" lon="-1.6763">
        <ele>11.1</ele>
        <time>2023-05-18T13:39:51Z</time>
      </trkpt>
      <trkpt lat="49.30517" lon="-1.6762">
        <ele>11</ele>
        <time>2023-05-18T13:39:54Z</time>
      </trkpt>
      <trkpt lat="49.30495" lon="-1.67608">
        <ele>10.8</ele>
        <time>2023-05-18T13:39:58Z</time>
      </trkpt>
      <trkpt lat="49.30473" lon="-1.67598">
        <ele>10.7</ele>
        <time>2023-05-18T13:40:02Z</time>
      </trkpt>
      <trkpt lat="49.30455" lon="-1.67588">
        <ele>10.6</ele>
        <time>2023-05-18T13:40:05Z</time>
      </trkpt>
      <trkpt lat="49.30434" lon="-1.67579">
        <ele>10.5</ele>
        <time>2023-05-18T13:40:09Z</time>
      </trkpt>
      <trkpt lat="49.30412" lon="-1.67569">
        <ele>10.4</ele>
        <time>2023-05-18T13:40:13Z</time>
      </trkpt>
      <trkpt lat="49.3039" lon="-1.6756">
        <ele>10.3</ele>
        <time>2023-05-18T13:40:17Z</time>
      </trkpt>
      <trkpt lat="49.30368" lon="-1.67551">
        <ele>10.2</ele>
        <time>2023-05-18T13:40:21Z</time>
      </trkpt>
      <trkpt lat="49.30347" lon="-1.67541">
        <ele>10</ele>
        <time>2023-05-18T13:40:25Z</time>
      </trkpt>
      <trkpt lat="49.30324" lon="-1.67533">
        <ele>9.8</ele>
        <time>2023-05-18T13:40:29Z</time>
      </trkpt>
      <trkpt lat="49.30301" lon="-1.67524">
        <ele>9.7</ele>
        <time>2023-05-18T13:40:33Z</time>
      </trkpt>
      <trkpt lat="49.30281" lon="-1.67517">
        <ele>9.6</ele>
        <time>2023-05-18T13:40:36Z</time>
      </trkpt>
      <trkpt lat="49.30262" lon="-1.67509">
        <ele>9.5</ele>
        <time>2023-05-18T13:40:39Z</time>
      </trkpt>
      <trkpt lat="49.30244" lon="-1.67501">
        <ele>9.5</ele>
        <time>2023-05-18T13:40:42Z</time>
      </trkpt>
      <trkpt lat="49.30226" lon="-1.67493">
        <ele>9.4</ele>
        <time>2023-05-18T13:40:45Z</time>
      </trkpt>
      <trkpt lat="49.30207" lon="-1.67487">
        <ele>9.3</ele>
        <time>2023-05-18T13:40:48Z</time>
      </trkpt>
      <trkpt lat="49.30184" lon="-1.67478">
        <ele>9.2</ele>
        <time>2023-05-18T13:40:52Z</time>
      </trkpt>
      <trkpt lat="49.30166" lon="-1.67471">
        <ele>9.2</ele>
        <time>2023-05-18T13:40:55Z</time>
      </trkpt>
      <trkpt lat="49.30147" lon="-1.67463">
        <ele>9.1</ele>
        <time>2023-05-18T13:40:58Z</time>
      </trkpt>
      <trkpt lat="49.30129" lon="-1.67455">
        <ele>9</ele>
        <time>2023-05-18T13:41:01Z</time>
      </trkpt>
      <trkpt lat="49.30112" lon="-1.67447">
        <ele>8.9</ele>
        <time>2023-05-18T13:41:04Z</time>
      </trkpt>
      <trkpt lat="49.30094" lon="-1.67439">
        <ele>8.8</ele>
        <time>2023-05-18T13:41:07Z</time>
      </trkpt>
      <trkpt lat="49.30077" lon="-1.67431">
        <ele>8.8</ele>
        <time>2023-05-18T13:41:10Z</time>
      </trkpt>
      <trkpt lat="49.30054" lon="-1.67419">
        <ele>8.7</ele>
        <time>2023-05-18T13:41:14Z</time>
      </trkpt>
      <trkpt lat="49.30036" lon="-1.67409">
        <ele>8.6</ele>
        <time>2023-05-18T13:41:17Z</time>
      </trkpt>
      <trkpt lat="49.30019" lon="-1.67399">
        <ele>8.5</ele>
        <time>2023-05-18T13:41:20Z</time>
      </trkpt>
      <trkpt lat="49.30002" lon="-1.67387">
        <ele>8.4</ele>
        <time>2023-05-18T13:41:23Z</time>
      </trkpt>
      <trkpt lat="49.29984" lon="-1.67376">
        <ele>8.3</ele>
        <time>2023-05-18T13:41:26Z</time>
      </trkpt>
      <trkpt lat="49.29968" lon="-1.67363">
        <ele>8.2</ele>
        <time>2023-05-18T13:41:29Z</time>
      </trkpt>
      <trkpt lat="49.2995" lon="-1.67349">
        <ele>8.1</ele>
        <time>2023-05-18T13:41:32Z</time>
      </trkpt>
      <trkpt lat="49.29934" lon="-1.67334">
        <ele>8</ele>
        <time>2023-05-18T13:41:35Z</time>
      </trkpt>
      <trkpt lat="49.29917" lon="-1.67319">
        <ele>8</ele>
        <time>2023-05-18T13:41:38Z</time>
      </trkpt>
      <trkpt lat="49.29901" lon="-1.67304">
        <ele>7.9</ele>
        <time>2023-05-18T13:41:41Z</time>
      </trkpt>
      <trkpt lat="49.29883" lon="-1.67288">
        <ele>7.7</ele>
        <time>2023-05-18T13:41:44Z</time>
      </trkpt>
      <trkpt lat="49.29865" lon="-1.67273">
        <ele>7.6</ele>
        <time>2023-05-18T13:41:47Z</time>
      </trkpt>
      <trkpt lat="49.29848" lon="-1.67258">
        <ele>7.4</ele>
        <time>2023-05-18T13:41:50Z</time>
      </trkpt>
      <trkpt lat="49.29832" lon="-1.67243">
        <ele>7.3</ele>
        <time>2023-05-18T13:41:53Z</time>
      </trkpt>
      <trkpt lat="49.29815" lon="-1.67227">
        <ele>7.2</ele>
        <time>2023-05-18T13:41:56Z</time>
      </trkpt>
      <trkpt lat="49.29798" lon="-1.67211">
        <ele>7.1</ele>
        <time>2023-05-18T13:41:59Z</time>
      </trkpt>
      <trkpt lat="49.29782" lon="-1.67196">
        <ele>7.1</ele>
        <time>2023-05-18T13:42:02Z</time>
      </trkpt>
      <trkpt lat="49.29765" lon="-1.67183">
        <ele>7.1</ele>
        <time>2023-05-18T13:42:05Z</time>
      </trkpt>
      <trkpt lat="49.29745" lon="-1.67164">
        <ele>7.3</ele>
        <time>2023-05-18T13:42:09Z</time>
      </trkpt>
      <trkpt lat="49.29725" lon="-1.67144">
        <ele>7.4</ele>
        <time>2023-05-18T13:42:13Z</time>
      </trkpt>
      <trkpt lat="49.2971" lon="-1.67129">
        <ele>7.5</ele>
        <time>2023-05-18T13:42:16Z</time>
      </trkpt>
      <trkpt lat="49.29693" lon="-1.67114">
        <ele>7.4</ele>
        <time>2023-05-18T13:42:19Z</time>
      </trkpt>
      <trkpt lat="49.29677" lon="-1.671">
        <ele>7.4</ele>
        <time>2023-05-18T13:42:22Z</time>
      </trkpt>
      <trkpt lat="49.29661" lon="-1.67085">
        <ele>7.5</ele>
        <time>2023-05-18T13:42:25Z</time>
      </trkpt>
      <trkpt lat="49.29641" lon="-1.67068">
        <ele>7.5</ele>
        <time>2023-05-18T13:42:29Z</time>
      </trkpt>
      <trkpt lat="49.29622" lon="-1.67049">
        <ele>7.5</ele>
        <time>2023-05-18T13:42:33Z</time>
      </trkpt>
      <trkpt lat="49.29602" lon="-1.6703">
        <ele>7.5</ele>
        <time>2023-05-18T13:42:37Z</time>
      </trkpt>
      <trkpt lat="49.29586" lon="-1.67016">
        <ele>7.6</ele>
        <time>2023-05-18T13:42:40Z</time>
      </trkpt>
      <trkpt lat="49.29566" lon="-1.66997">
        <ele>7.7</ele>
        <time>2023-05-18T13:42:44Z</time>
      </trkpt>
      <trkpt lat="49.29545" lon="-1.66979">
        <ele>7.8</ele>
        <time>2023-05-18T13:42:48Z</time>
      </trkpt>
      <trkpt lat="49.29525" lon="-1.6696">
        <ele>7.9</ele>
        <time>2023-05-18T13:42:52Z</time>
      </trkpt>
      <trkpt lat="49.29505" lon="-1.66942">
        <ele>7.9</ele>
        <time>2023-05-18T13:42:56Z</time>
      </trkpt>
      <trkpt lat="49.29485" lon="-1.66924">
        <ele>7.9</ele>
        <time>2023-05-18T13:43:00Z</time>
      </trkpt>
      <trkpt lat="49.29466" lon="-1.66906">
        <ele>7.9</ele>
        <time>2023-05-18T13:43:04Z</time>
      </trkpt>
      <trkpt lat="49.29447" lon="-1.66887">
        <ele>7.9</ele>
        <time>2023-05-18T13:43:08Z</time>
      </trkpt>
      <trkpt lat="49.29428" lon="-1.6687">
        <ele>7.9</ele>
        <time>2023-05-18T13:43:12Z</time>
      </trkpt>
      <trkpt lat="49.29409" lon="-1.66852">
        <ele>7.9</ele>
        <time>2023-05-18T13:43:16Z</time>
      </trkpt>
      <trkpt lat="49.29391" lon="-1.66833">
        <ele>7.9</ele>
        <time>2023-05-18T13:43:20Z</time>
      </trkpt>
      <trkpt lat="49.29374" lon="-1.66816">
        <ele>7.8</ele>
        <time>2023-05-18T13:43:24Z</time>
      </trkpt>
      <trkpt lat="49.29356" lon="-1.66796">
        <ele>7.7</ele>
        <time>2023-05-18T13:43:28Z</time>
      </trkpt>
      <trkpt lat="49.29338" lon="-1.66775">
        <ele>7.6</ele>
        <time>2023-05-18T13:43:32Z</time>
      </trkpt>
      <trkpt lat="49.29321" lon="-1.66754">
        <ele>7.5</ele>
        <time>2023-05-18T13:43:36Z</time>
      </trkpt>
      <trkpt lat="49.29305" lon="-1.66733">
        <ele>7.6</ele>
        <time>2023-05-18T13:43:40Z</time>
      </trkpt>
      <trkpt lat="49.29288" lon="-1.66712">
        <ele>7.5</ele>
        <time>2023-05-18T13:43:44Z</time>
      </trkpt>
      <trkpt lat="49.2927" lon="-1.66692">
        <ele>7.5</ele>
        <time>2023-05-18T13:43:48Z</time>
      </trkpt>
      <trkpt lat="49.29251" lon="-1.6667">
        <ele>7.4</ele>
        <time>2023-05-18T13:43:52Z</time>
      </trkpt>
      <trkpt lat="49.29231" lon="-1.66651">
        <ele>7.3</ele>
        <time>2023-05-18T13:43:56Z</time>
      </trkpt>
      <trkpt lat="49.29211" lon="-1.66633">
        <ele>7.3</ele>
        <time>2023-05-18T13:44:00Z</time>
      </trkpt>
      <trkpt lat="49.2919" lon="-1.66617">
        <ele>7.2</ele>
        <time>2023-05-18T13:44:04Z</time>
      </trkpt>
      <trkpt lat="49.29169" lon="-1.66602">
        <ele>7.2</ele>
        <time>2023-05-18T13:44:08Z</time>
      </trkpt>
      <trkpt lat="49.29149" lon="-1.66586">
        <ele>7.2</ele>
        <time>2023-05-18T13:44:12Z</time>
      </trkpt>
      <trkpt lat="49.29128" lon="-1.66575">
        <ele>7.2</ele>
        <time>2023-05-18T13:44:16Z</time>
      </trkpt>
      <trkpt lat="49.29106" lon="-1.66564">
        <ele>7.1</ele>
        <time>2023-05-18T13:44:20Z</time>
      </trkpt>
      <trkpt lat="49.29089" lon="-1.66556">
        <ele>7</ele>
        <time>2023-05-18T13:44:23Z</time>
      </trkpt>
      <trkpt lat="49.29067" lon="-1.66547">
        <ele>7</ele>
        <time>2023-05-18T13:44:27Z</time>
      </trkpt>
      <trkpt lat="49.29044" lon="-1.66539">
        <ele>7</ele>
        <time>2023-05-18T13:44:31Z</time>
      </trkpt>
      <trkpt lat="49.29022" lon="-1.66531">
        <ele>7.1</ele>
        <time>2023-05-18T13:44:35Z</time>
      </trkpt>
      <trkpt lat="49.29" lon="-1.66522">
        <ele>7.1</ele>
        <time>2023-05-18T13:44:39Z</time>
      </trkpt>
      <trkpt lat="49.28979" lon="-1.66514">
        <ele>7.1</ele>
        <time>2023-05-18T13:44:43Z</time>
      </trkpt>
      <trkpt lat="49.28958" lon="-1.66507">
        <ele>7.2</ele>
        <time>2023-05-18T13:44:47Z</time>
      </trkpt>
      <trkpt lat="49.28936" lon="-1.66498">
        <ele>7.3</ele>
        <time>2023-05-18T13:44:51Z</time>
      </trkpt>
      <trkpt lat="49.28913" lon="-1.66491">
        <ele>7.4</ele>
        <time>2023-05-18T13:44:55Z</time>
      </trkpt>
      <trkpt lat="49.28892" lon="-1.66483">
        <ele>7.6</ele>
        <time>2023-05-18T13:44:59Z</time>
      </trkpt>
      <trkpt lat="49.28872" lon="-1.66475">
        <ele>7.7</ele>
        <time>2023-05-18T13:45:03Z</time>
      </trkpt>
      <trkpt lat="49.28851" lon="-1.66468">
        <ele>7.8</ele>
        <time>2023-05-18T13:45:07Z</time>
      </trkpt>
      <trkpt lat="49.2883" lon="-1.6646">
        <ele>8</ele>
        <time>2023-05-18T13:45:11Z</time>
      </trkpt>
      <trkpt lat="49.28811" lon="-1.66453">
        <ele>8.2</ele>
        <time>2023-05-18T13:45:15Z</time>
      </trkpt>
      <trkpt lat="49.28792" lon="-1.66446">
        <ele>8.4</ele>
        <time>2023-05-18T13:45:19Z</time>
      </trkpt>
      <trkpt lat="49.28773" lon="-1.66438">
        <ele>8.6</ele>
        <time>2023-05-18T13:45:23Z</time>
      </trkpt>
      <trkpt lat="49.28755" lon="-1.66429">
        <ele>8.8</ele>
        <time>2023-05-18T13:45:27Z</time>
      </trkpt>
      <trkpt lat="49.28734" lon="-1.66418">
        <ele>9.1</ele>
        <time>2023-05-18T13:45:32Z</time>
      </trkpt>
      <trkpt lat="49.28716" lon="-1.66407">
        <ele>9.3</ele>
        <time>2023-05-18T13:45:36Z</time>
      </trkpt>
      <trkpt lat="49.28698" lon="-1.66396">
        <ele>9.5</ele>
        <time>2023-05-18T13:45:40Z</time>
      </trkpt>
      <trkpt lat="49.28681" lon="-1.66383">
        <ele>9.7</ele>
        <time>2023-05-18T13:45:44Z</time>
      </trkpt>
      <trkpt lat="49.28665" lon="-1.66367">
        <ele>9.9</ele>
        <time>2023-05-18T13:45:48Z</time>
      </trkpt>
      <trkpt lat="49.28648" lon="-1.66352">
        <ele>10</ele>
        <time>2023-05-18T13:45:52Z</time>
      </trkpt>
      <trkpt lat="49.28632" lon="-1.66334">
        <ele>10.2</ele>
        <time>2023-05-18T13:45:56Z</time>
      </trkpt>
      <trkpt lat="49.28616" lon="-1.66317">
        <ele>10.4</ele>
        <time>2023-05-18T13:46:00Z</time>
      </trkpt>
      <trkpt lat="49.28603" lon="-1.66295">
        <ele>10.2</ele>
        <time>2023-05-18T13:46:04Z</time>
      </trkpt>
      <trkpt lat="49.28589" lon="-1.66275">
        <ele>10.1</ele>
        <time>2023-05-18T13:46:08Z</time>
      </trkpt>
      <trkpt lat="49.28574" lon="-1.66252">
        <ele>10</ele>
        <time>2023-05-18T13:46:12Z</time>
      </trkpt>
      <trkpt lat="49.2856" lon="-1.66226">
        <ele>9.9</ele>
        <time>2023-05-18T13:46:16Z</time>
      </trkpt>
      <trkpt lat="49.28547" lon="-1.66199">
        <ele>9.8</ele>
        <time>2023-05-18T13:46:20Z</time>
      </trkpt>
      <trkpt lat="49.28534" lon="-1.6617">
        <ele>9.7</ele>
        <time>2023-05-18T13:46:24Z</time>
      </trkpt>
      <trkpt lat="49.28523" lon="-1.66139">
        <ele>9.6</ele>
        <time>2023-05-18T13:46:28Z</time>
      </trkpt>
      <trkpt lat="49.28512" lon="-1.66108">
        <ele>9.5</ele>
        <time>2023-05-18T13:46:32Z</time>
      </trkpt>
      <trkpt lat="49.28501" lon="-1.66077">
        <ele>9.4</ele>
        <time>2023-05-18T13:46:36Z</time>
      </trkpt>
      <trkpt lat="49.2849" lon="-1.66047">
        <ele>9.3</ele>
        <time>2023-05-18T13:46:40Z</time>
      </trkpt>
      <trkpt lat="49.28479" lon="-1.66017">
        <ele>9.3</ele>
        <time>2023-05-18T13:46:44Z</time>
      </trkpt>
      <trkpt lat="49.28469" lon="-1.65991">
        <ele>9.2</ele>
        <time>2023-05-18T13:46:48Z</time>
      </trkpt>
      <trkpt lat="49.28458" lon="-1.65966">
        <ele>9.2</ele>
        <time>2023-05-18T13:46:53Z</time>
      </trkpt>
      <trkpt lat="49.28444" lon="-1.65939">
        <ele>9.1</ele>
        <time>2023-05-18T13:46:58Z</time>
      </trkpt>
      <trkpt lat="49.28432" lon="-1.65917">
        <ele>9.1</ele>
        <time>2023-05-18T13:47:02Z</time>
      </trkpt>
      <trkpt lat="49.28419" lon="-1.65895">
        <ele>9.1</ele>
        <time>2023-05-18T13:47:06Z</time>
      </trkpt>
      <trkpt lat="49.28405" lon="-1.65873">
        <ele>9</ele>
        <time>2023-05-18T13:47:10Z</time>
      </trkpt>
      <trkpt lat="49.28389" lon="-1.6585">
        <ele>9</ele>
        <time>2023-05-18T13:47:14Z</time>
      </trkpt>
      <trkpt lat="49.28372" lon="-1.6583">
        <ele>9</ele>
        <time>2023-05-18T13:47:18Z</time>
      </trkpt>
      <trkpt lat="49.28354" lon="-1.65811">
        <ele>9</ele>
        <time>2023-05-18T13:47:22Z</time>
      </trkpt>
      <trkpt lat="49.28334" lon="-1.65793">
        <ele>8.9</ele>
        <time>2023-05-18T13:47:26Z</time>
      </trkpt>
      <trkpt lat="49.28315" lon="-1.65777">
        <ele>8.8</ele>
        <time>2023-05-18T13:47:30Z</time>
      </trkpt>
      <trkpt lat="49.28293" lon="-1.65763">
        <ele>8.7</ele>
        <time>2023-05-18T13:47:34Z</time>
      </trkpt>
      <trkpt lat="49.28277" lon="-1.65751">
        <ele>8.7</ele>
        <time>2023-05-18T13:47:37Z</time>
      </trkpt>
      <trkpt lat="49.28255" lon="-1.65741">
        <ele>8.6</ele>
        <time>2023-05-18T13:47:41Z</time>
      </trkpt>
      <trkpt lat="49.28237" lon="-1.65734">
        <ele>8.6</ele>
        <time>2023-05-18T13:47:44Z</time>
      </trkpt>
      <trkpt lat="49.28219" lon="-1.65727">
        <ele>8.6</ele>
        <time>2023-05-18T13:47:47Z</time>
      </trkpt>
      <trkpt lat="49.28201" lon="-1.65723">
        <ele>8.5</ele>
        <time>2023-05-18T13:47:50Z</time>
      </trkpt>
      <trkpt lat="49.28182" lon="-1.6572">
        <ele>8.4</ele>
        <time>2023-05-18T13:47:53Z</time>
      </trkpt>
      <trkpt lat="49.28164" lon="-1.65718">
        <ele>8.3</ele>
        <time>2023-05-18T13:47:56Z</time>
      </trkpt>
      <trkpt lat="49.28146" lon="-1.65715">
        <ele>8.2</ele>
        <time>2023-05-18T13:47:59Z</time>
      </trkpt>
      <trkpt lat="49.28128" lon="-1.65714">
        <ele>8.2</ele>
        <time>2023-05-18T13:48:02Z</time>
      </trkpt>
      <trkpt lat="49.28109" lon="-1.65713">
        <ele>8.1</ele>
        <time>2023-05-18T13:48:05Z</time>
      </trkpt>
      <trkpt lat="49.28091" lon="-1.65712">
        <ele>8.1</ele>
        <time>2023-05-18T13:48:08Z</time>
      </trkpt>
      <trkpt lat="49.28072" lon="-1.65711">
        <ele>8.1</ele>
        <time>2023-05-18T13:48:11Z</time>
      </trkpt>
      <trkpt lat="49.28053" lon="-1.6571">
        <ele>8</ele>
        <time>2023-05-18T13:48:14Z</time>
      </trkpt>
      <trkpt lat="49.28034" lon="-1.65708">
        <ele>7.9</ele>
        <time>2023-05-18T13:48:17Z</time>
      </trkpt>
      <trkpt lat="49.28015" lon="-1.65708">
        <ele>7.9</ele>
        <time>2023-05-18T13:48:20Z</time>
      </trkpt>
      <trkpt lat="49.27996" lon="-1.65706">
        <ele>7.8</ele>
        <time>2023-05-18T13:48:23Z</time>
      </trkpt>
      <trkpt lat="49.27977" lon="-1.65704">
        <ele>7.7</ele>
        <time>2023-05-18T13:48:26Z</time>
      </trkpt>
      <trkpt lat="49.27959" lon="-1.65703">
        <ele>7.6</ele>
        <time>2023-05-18T13:48:29Z</time>
      </trkpt>
      <trkpt lat="49.2794" lon="-1.65702">
        <ele>7.5</ele>
        <time>2023-05-18T13:48:32Z</time>
      </trkpt>
      <trkpt lat="49.27922" lon="-1.657">
        <ele>7.5</ele>
        <time>2023-05-18T13:48:35Z</time>
      </trkpt>
      <trkpt lat="49.279" lon="-1.65699">
        <ele>7.5</ele>
        <time>2023-05-18T13:48:39Z</time>
      </trkpt>
      <trkpt lat="49.27881" lon="-1.65697">
        <ele>7.5</ele>
        <time>2023-05-18T13:48:42Z</time>
      </trkpt>
      <trkpt lat="49.27863" lon="-1.65697">
        <ele>7.5</ele>
        <time>2023-05-18T13:48:45Z</time>
      </trkpt>
      <trkpt lat="49.27841" lon="-1.65695">
        <ele>7.5</ele>
        <time>2023-05-18T13:48:49Z</time>
      </trkpt>
      <trkpt lat="49.27818" lon="-1.65693">
        <ele>7.5</ele>
        <time>2023-05-18T13:48:53Z</time>
      </trkpt>
      <trkpt lat="49.27796" lon="-1.65691">
        <ele>7.5</ele>
        <time>2023-05-18T13:48:57Z</time>
      </trkpt>
      <trkpt lat="49.27773" lon="-1.65689">
        <ele>7.7</ele>
        <time>2023-05-18T13:49:01Z</time>
      </trkpt>
      <trkpt lat="49.27751" lon="-1.65686">
        <ele>7.8</ele>
        <time>2023-05-18T13:49:05Z</time>
      </trkpt>
      <trkpt lat="49.2773" lon="-1.65681">
        <ele>7.9</ele>
        <time>2023-05-18T13:49:09Z</time>
      </trkpt>
      <trkpt lat="49.27709" lon="-1.65676">
        <ele>7.9</ele>
        <time>2023-05-18T13:49:13Z</time>
      </trkpt>
      <trkpt lat="49.27687" lon="-1.6567">
        <ele>8</ele>
        <time>2023-05-18T13:49:17Z</time>
      </trkpt>
      <trkpt lat="49.27666" lon="-1.65662">
        <ele>8.1</ele>
        <time>2023-05-18T13:49:21Z</time>
      </trkpt>
      <trkpt lat="49.27644" lon="-1.65653">
        <ele>8.2</ele>
        <time>2023-05-18T13:49:25Z</time>
      </trkpt>
      <trkpt lat="49.27624" lon="-1.65643">
        <ele>8.3</ele>
        <time>2023-05-18T13:49:29Z</time>
      </trkpt>
      <trkpt lat="49.27604" lon="-1.65633">
        <ele>8.4</ele>
        <time>2023-05-18T13:49:33Z</time>
      </trkpt>
      <trkpt lat="49.27585" lon="-1.65622">
        <ele>8.5</ele>
        <time>2023-05-18T13:49:37Z</time>
      </trkpt>
      <trkpt lat="49.27567" lon="-1.6561">
        <ele>8.6</ele>
        <time>2023-05-18T13:49:41Z</time>
      </trkpt>
      <trkpt lat="49.27549" lon="-1.65597">
        <ele>8.6</ele>
        <time>2023-05-18T13:49:45Z</time>
      </trkpt>
      <trkpt lat="49.2753" lon="-1.65583">
        <ele>8.6</ele>
        <time>2023-05-18T13:49:49Z</time>
      </trkpt>
      <trkpt lat="49.27513" lon="-1.65569">
        <ele>8.7</ele>
        <time>2023-05-18T13:49:53Z</time>
      </trkpt>
      <trkpt lat="49.27496" lon="-1.65556">
        <ele>8.7</ele>
        <time>2023-05-18T13:49:57Z</time>
      </trkpt>
      <trkpt lat="49.2748" lon="-1.65538">
        <ele>8.7</ele>
        <time>2023-05-18T13:50:01Z</time>
      </trkpt>
      <trkpt lat="49.27461" lon="-1.65521">
        <ele>8.8</ele>
        <time>2023-05-18T13:50:05Z</time>
      </trkpt>
      <trkpt lat="49.27443" lon="-1.65502">
        <ele>8.8</ele>
        <time>2023-05-18T13:50:09Z</time>
      </trkpt>
      <trkpt lat="49.27426" lon="-1.65483">
        <ele>8.9</ele>
        <time>2023-05-18T13:50:13Z</time>
      </trkpt>
      <trkpt lat="49.27407" lon="-1.65463">
        <ele>8.9</ele>
        <time>2023-05-18T13:50:17Z</time>
      </trkpt>
      <trkpt lat="49.27388" lon="-1.65442">
        <ele>8.8</ele>
        <time>2023-05-18T13:50:21Z</time>
      </trkpt>
      <trkpt lat="49.2737" lon="-1.65422">
        <ele>8.7</ele>
        <time>2023-05-18T13:50:25Z</time>
      </trkpt>
      <trkpt lat="49.27351" lon="-1.654">
        <ele>8.6</ele>
        <time>2023-05-18T13:50:29Z</time>
      </trkpt>
      <trkpt lat="49.27332" lon="-1.6538">
        <ele>8.5</ele>
        <time>2023-05-18T13:50:33Z</time>
      </trkpt>
      <trkpt lat="49.27314" lon="-1.6536">
        <ele>8.5</ele>
        <time>2023-05-18T13:50:37Z</time>
      </trkpt>
      <trkpt lat="49.27296" lon="-1.65341">
        <ele>8.4</ele>
        <time>2023-05-18T13:50:41Z</time>
      </trkpt>
      <trkpt lat="49.27279" lon="-1.65321">
        <ele>8.4</ele>
        <time>2023-05-18T13:50:45Z</time>
      </trkpt>
      <trkpt lat="49.27261" lon="-1.65302">
        <ele>8.2</ele>
        <time>2023-05-18T13:50:49Z</time>
      </trkpt>
      <trkpt lat="49.27243" lon="-1.65281">
        <ele>8.1</ele>
        <time>2023-05-18T13:50:53Z</time>
      </trkpt>
      <trkpt lat="49.27226" lon="-1.65261">
        <ele>8.1</ele>
        <time>2023-05-18T13:50:57Z</time>
      </trkpt>
      <trkpt lat="49.27208" lon="-1.65242">
        <ele>8.1</ele>
        <time>2023-05-18T13:51:01Z</time>
      </trkpt>
      <trkpt lat="49.2719" lon="-1.65222">
        <ele>8</ele>
        <time>2023-05-18T13:51:05Z</time>
      </trkpt>
      <trkpt lat="49.27173" lon="-1.65202">
        <ele>8</ele>
        <time>2023-05-18T13:51:09Z</time>
      </trkpt>
      <trkpt lat="49.27154" lon="-1.65183">
        <ele>8</ele>
        <time>2023-05-18T13:51:13Z</time>
      </trkpt>
      <trkpt lat="49.27137" lon="-1.65163">
        <ele>7.9</ele>
        <time>2023-05-18T13:51:17Z</time>
      </trkpt>
      <trkpt lat="49.2712" lon="-1.65144">
        <ele>7.9</ele>
        <time>2023-05-18T13:51:21Z</time>
      </trkpt>
      <trkpt lat="49.27101" lon="-1.65128">
        <ele>7.8</ele>
        <time>2023-05-18T13:51:25Z</time>
      </trkpt>
      <trkpt lat="49.27084" lon="-1.65109">
        <ele>7.7</ele>
        <time>2023-05-18T13:51:29Z</time>
      </trkpt>
      <trkpt lat="49.27065" lon="-1.65093">
        <ele>7.7</ele>
        <time>2023-05-18T13:51:33Z</time>
      </trkpt>
      <trkpt lat="49.27046" lon="-1.65077">
        <ele>7.7</ele>
        <time>2023-05-18T13:51:37Z</time>
      </trkpt>
      <trkpt lat="49.27027" lon="-1.65062">
        <ele>7.6</ele>
        <time>2023-05-18T13:51:41Z</time>
      </trkpt>
      <trkpt lat="49.27007" lon="-1.65048">
        <ele>7.5</ele>
        <time>2023-05-18T13:51:45Z</time>
      </trkpt>
      <trkpt lat="49.26988" lon="-1.65034">
        <ele>7.4</ele>
        <time>2023-05-18T13:51:49Z</time>
      </trkpt>
      <trkpt lat="49.26969" lon="-1.6502">
        <ele>7.4</ele>
        <time>2023-05-18T13:51:53Z</time>
      </trkpt>
      <trkpt lat="49.26948" lon="-1.65006">
        <ele>7.3</ele>
        <time>2023-05-18T13:51:57Z</time>
      </trkpt>
      <trkpt lat="49.26929" lon="-1.64993">
        <ele>7.3</ele>
        <time>2023-05-18T13:52:01Z</time>
      </trkpt>
      <trkpt lat="49.26909" lon="-1.6498">
        <ele>7.3</ele>
        <time>2023-05-18T13:52:05Z</time>
      </trkpt>
      <trkpt lat="49.26891" lon="-1.64967">
        <ele>7.2</ele>
        <time>2023-05-18T13:52:09Z</time>
      </trkpt>
      <trkpt lat="49.26874" lon="-1.64958">
        <ele>7.2</ele>
        <time>2023-05-18T13:52:13Z</time>
      </trkpt>
      <trkpt lat="49.26854" lon="-1.64941">
        <ele>7.2</ele>
        <time>2023-05-18T13:52:17Z</time>
      </trkpt>
      <trkpt lat="49.26835" lon="-1.64928">
        <ele>7.3</ele>
        <time>2023-05-18T13:52:21Z</time>
      </trkpt>
      <trkpt lat="49.26816" lon="-1.64915">
        <ele>7.3</ele>
        <time>2023-05-18T13:52:25Z</time>
      </trkpt>
      <trkpt lat="49.26797" lon="-1.64902">
        <ele>7.4</ele>
        <time>2023-05-18T13:52:29Z</time>
      </trkpt>
      <trkpt lat="49.26778" lon="-1.64888">
        <ele>7.4</ele>
        <time>2023-05-18T13:52:33Z</time>
      </trkpt>
      <trkpt lat="49.2676" lon="-1.64875">
        <ele>7.5</ele>
        <time>2023-05-18T13:52:37Z</time>
      </trkpt>
      <trkpt lat="49.26743" lon="-1.64862">
        <ele>7.6</ele>
        <time>2023-05-18T13:52:41Z</time>
      </trkpt>
      <trkpt lat="49.26724" lon="-1.64849">
        <ele>7.7</ele>
        <time>2023-05-18T13:52:45Z</time>
      </trkpt>
      <trkpt lat="49.26706" lon="-1.64834">
        <ele>7.7</ele>
        <time>2023-05-18T13:52:49Z</time>
      </trkpt>
      <trkpt lat="49.26688" lon="-1.64819">
        <ele>7.7</ele>
        <time>2023-05-18T13:52:53Z</time>
      </trkpt>
      <trkpt lat="49.26669" lon="-1.64804">
        <ele>7.8</ele>
        <time>2023-05-18T13:52:57Z</time>
      </trkpt>
      <trkpt lat="49.26651" lon="-1.64789">
        <ele>7.8</ele>
        <time>2023-05-18T13:53:01Z</time>
      </trkpt>
      <trkpt lat="49.26634" lon="-1.64774">
        <ele>7.9</ele>
        <time>2023-05-18T13:53:05Z</time>
      </trkpt>
      <trkpt lat="49.26616" lon="-1.64759">
        <ele>7.9</ele>
        <time>2023-05-18T13:53:09Z</time>
      </trkpt>
      <trkpt lat="49.26598" lon="-1.64742">
        <ele>8</ele>
        <time>2023-05-18T13:53:13Z</time>
      </trkpt>
      <trkpt lat="49.26579" lon="-1.64726">
        <ele>8.1</ele>
        <time>2023-05-18T13:53:17Z</time>
      </trkpt>
      <trkpt lat="49.2656" lon="-1.64711">
        <ele>8.2</ele>
        <time>2023-05-18T13:53:21Z</time>
      </trkpt>
      <trkpt lat="49.26542" lon="-1.64695">
        <ele>8.3</ele>
        <time>2023-05-18T13:53:25Z</time>
      </trkpt>
      <trkpt lat="49.26525" lon="-1.64679">
        <ele>8.3</ele>
        <time>2023-05-18T13:53:29Z</time>
      </trkpt>
      <trkpt lat="49.26508" lon="-1.64664">
        <ele>8.4</ele>
        <time>2023-05-18T13:53:33Z</time>
      </trkpt>
      <trkpt lat="49.2649" lon="-1.64649">
        <ele>8.4</ele>
        <time>2023-05-18T13:53:37Z</time>
      </trkpt>
      <trkpt lat="49.26472" lon="-1.64634">
        <ele>8.5</ele>
        <time>2023-05-18T13:53:41Z</time>
      </trkpt>
      <trkpt lat="49.26456" lon="-1.6462">
        <ele>8.6</ele>
        <time>2023-05-18T13:53:45Z</time>
      </trkpt>
      <trkpt lat="49.26439" lon="-1.64604">
        <ele>8.7</ele>
        <time>2023-05-18T13:53:49Z</time>
      </trkpt>
      <trkpt lat="49.2642" lon="-1.64589">
        <ele>8.7</ele>
        <time>2023-05-18T13:53:53Z</time>
      </trkpt>
      <trkpt lat="49.26403" lon="-1.64573">
        <ele>8.6</ele>
        <time>2023-05-18T13:53:57Z</time>
      </trkpt>
      <trkpt lat="49.26384" lon="-1.64558">
        <ele>8.6</ele>
        <time>2023-05-18T13:54:01Z</time>
      </trkpt>
      <trkpt lat="49.26364" lon="-1.6454">
        <ele>8.6</ele>
        <time>2023-05-18T13:54:05Z</time>
      </trkpt>
      <trkpt lat="49.26344" lon="-1.64524">
        <ele>8.6</ele>
        <time>2023-05-18T13:54:09Z</time>
      </trkpt>
      <trkpt lat="49.26323" lon="-1.64507">
        <ele>8.5</ele>
        <time>2023-05-18T13:54:13Z</time>
      </trkpt>
      <trkpt lat="49.26303" lon="-1.64493">
        <ele>8.5</ele>
        <time>2023-05-18T13:54:17Z</time>
      </trkpt>
      <trkpt lat="49.26282" lon="-1.64474">
        <ele>8.4</ele>
        <time>2023-05-18T13:54:21Z</time>
      </trkpt>
      <trkpt lat="49.26266" lon="-1.64457">
        <ele>8.3</ele>
        <time>2023-05-18T13:54:24Z</time>
      </trkpt>
      <trkpt lat="49.26246" lon="-1.64441">
        <ele>8.3</ele>
        <time>2023-05-18T13:54:28Z</time>
      </trkpt>
      <trkpt lat="49.26226" lon="-1.64421">
        <ele>8.3</ele>
        <time>2023-05-18T13:54:32Z</time>
      </trkpt>
      <trkpt lat="49.2621" lon="-1.64406">
        <ele>8.2</ele>
        <time>2023-05-18T13:54:35Z</time>
      </trkpt>
      <trkpt lat="49.26189" lon="-1.64389">
        <ele>8.1</ele>
        <time>2023-05-18T13:54:39Z</time>
      </trkpt>
      <trkpt lat="49.26173" lon="-1.64375">
        <ele>8</ele>
        <time>2023-05-18T13:54:42Z</time>
      </trkpt>
      <trkpt lat="49.26157" lon="-1.64361">
        <ele>8</ele>
        <time>2023-05-18T13:54:45Z</time>
      </trkpt>
      <trkpt lat="49.26141" lon="-1.64348">
        <ele>8.1</ele>
        <time>2023-05-18T13:54:48Z</time>
      </trkpt>
      <trkpt lat="49.26125" lon="-1.64335">
        <ele>8</ele>
        <time>2023-05-18T13:54:51Z</time>
      </trkpt>
      <trkpt lat="49.26109" lon="-1.6432">
        <ele>7.9</ele>
        <time>2023-05-18T13:54:54Z</time>
      </trkpt>
      <trkpt lat="49.26089" lon="-1.64303">
        <ele>7.9</ele>
        <time>2023-05-18T13:54:58Z</time>
      </trkpt>
      <trkpt lat="49.26069" lon="-1.64286">
        <ele>8</ele>
        <time>2023-05-18T13:55:02Z</time>
      </trkpt>
      <trkpt lat="49.2605" lon="-1.64269">
        <ele>8.1</ele>
        <time>2023-05-18T13:55:06Z</time>
      </trkpt>
      <trkpt lat="49.26029" lon="-1.64251">
        <ele>8.2</ele>
        <time>2023-05-18T13:55:10Z</time>
      </trkpt>
      <trkpt lat="49.2601" lon="-1.64234">
        <ele>8.3</ele>
        <time>2023-05-18T13:55:14Z</time>
      </trkpt>
      <trkpt lat="49.2599" lon="-1.64218">
        <ele>8.4</ele>
        <time>2023-05-18T13:55:18Z</time>
      </trkpt>
      <trkpt lat="49.25971" lon="-1.64202">
        <ele>8.6</ele>
        <time>2023-05-18T13:55:22Z</time>
      </trkpt>
      <trkpt lat="49.25952" lon="-1.64185">
        <ele>8.7</ele>
        <time>2023-05-18T13:55:26Z</time>
      </trkpt>
      <trkpt lat="49.25932" lon="-1.64168">
        <ele>8.8</ele>
        <time>2023-05-18T13:55:30Z</time>
      </trkpt>
      <trkpt lat="49.25914" lon="-1.64152">
        <ele>8.9</ele>
        <time>2023-05-18T13:55:34Z</time>
      </trkpt>
      <trkpt lat="49.25895" lon="-1.64136">
        <ele>8.9</ele>
        <time>2023-05-18T13:55:38Z</time>
      </trkpt>
      <trkpt lat="49.25875" lon="-1.64119">
        <ele>9</ele>
        <time>2023-05-18T13:55:42Z</time>
      </trkpt>
      <trkpt lat="49.25856" lon="-1.64102">
        <ele>9</ele>
        <time>2023-05-18T13:55:46Z</time>
      </trkpt>
      <trkpt lat="49.25836" lon="-1.64086">
        <ele>9</ele>
        <time>2023-05-18T13:55:50Z</time>
      </trkpt>
      <trkpt lat="49.25816" lon="-1.64069">
        <ele>9</ele>
        <time>2023-05-18T13:55:54Z</time>
      </trkpt>
      <trkpt lat="49.25796" lon="-1.64053">
        <ele>9</ele>
        <time>2023-05-18T13:55:58Z</time>
      </trkpt>
      <trkpt lat="49.25776" lon="-1.64038">
        <ele>9</ele>
        <time>2023-05-18T13:56:02Z</time>
      </trkpt>
      <trkpt lat="49.25756" lon="-1.64023">
        <ele>9</ele>
        <time>2023-05-18T13:56:06Z</time>
      </trkpt>
      <trkpt lat="49.25734" lon="-1.64008">
        <ele>8.9</ele>
        <time>2023-05-18T13:56:10Z</time>
      </trkpt>
      <trkpt lat="49.25714" lon="-1.63993">
        <ele>8.9</ele>
        <time>2023-05-18T13:56:14Z</time>
      </trkpt>
      <trkpt lat="49.25694" lon="-1.63979">
        <ele>8.8</ele>
        <time>2023-05-18T13:56:18Z</time>
      </trkpt>
      <trkpt lat="49.25676" lon="-1.63967">
        <ele>8.8</ele>
        <time>2023-05-18T13:56:22Z</time>
      </trkpt>
      <trkpt lat="49.25657" lon="-1.63954">
        <ele>8.7</ele>
        <time>2023-05-18T13:56:26Z</time>
      </trkpt>
      <trkpt lat="49.25638" lon="-1.6394">
        <ele>8.6</ele>
        <time>2023-05-18T13:56:30Z</time>
      </trkpt>
      <trkpt lat="49.25617" lon="-1.63927">
        <ele>8.5</ele>
        <time>2023-05-18T13:56:34Z</time>
      </trkpt>
      <trkpt lat="49.25597" lon="-1.63914">
        <ele>8.5</ele>
        <time>2023-05-18T13:56:38Z</time>
      </trkpt>
      <trkpt lat="49.25578" lon="-1.63902">
        <ele>8.5</ele>
        <time>2023-05-18T13:56:42Z</time>
      </trkpt>
      <trkpt lat="49.25556" lon="-1.6389">
        <ele>8.3</ele>
        <time>2023-05-18T13:56:46Z</time>
      </trkpt>
      <trkpt lat="49.25533" lon="-1.63879">
        <ele>8.3</ele>
        <time>2023-05-18T13:56:50Z</time>
      </trkpt>
      <trkpt lat="49.25512" lon="-1.63866">
        <ele>8.4</ele>
        <time>2023-05-18T13:56:54Z</time>
      </trkpt>
      <trkpt lat="49.25489" lon="-1.63855">
        <ele>8.5</ele>
        <time>2023-05-18T13:56:58Z</time>
      </trkpt>
      <trkpt lat="49.25468" lon="-1.63844">
        <ele>8.4</ele>
        <time>2023-05-18T13:57:02Z</time>
      </trkpt>
      <trkpt lat="49.25447" lon="-1.63834">
        <ele>8.3</ele>
        <time>2023-05-18T13:57:06Z</time>
      </trkpt>
      <trkpt lat="49.25426" lon="-1.63824">
        <ele>8.4</ele>
        <time>2023-05-18T13:57:10Z</time>
      </trkpt>
      <trkpt lat="49.25405" lon="-1.63814">
        <ele>8.4</ele>
        <time>2023-05-18T13:57:14Z</time>
      </trkpt>
      <trkpt lat="49.25385" lon="-1.63804">
        <ele>8.5</ele>
        <time>2023-05-18T13:57:18Z</time>
      </trkpt>
      <trkpt lat="49.25366" lon="-1.63795">
        <ele>8.5</ele>
        <time>2023-05-18T13:57:22Z</time>
      </trkpt>
      <trkpt lat="49.25345" lon="-1.63785">
        <ele>8.6</ele>
        <time>2023-05-18T13:57:26Z</time>
      </trkpt>
      <trkpt lat="49.25326" lon="-1.63776">
        <ele>8.7</ele>
        <time>2023-05-18T13:57:30Z</time>
      </trkpt>
      <trkpt lat="49.25306" lon="-1.63767">
        <ele>8.8</ele>
        <time>2023-05-18T13:57:34Z</time>
      </trkpt>
      <trkpt lat="49.25286" lon="-1.63758">
        <ele>8.9</ele>
        <time>2023-05-18T13:57:38Z</time>
      </trkpt>
      <trkpt lat="49.25267" lon="-1.63748">
        <ele>9</ele>
        <time>2023-05-18T13:57:42Z</time>
      </trkpt>
      <trkpt lat="49.25246" lon="-1.63739">
        <ele>9.2</ele>
        <time>2023-05-18T13:57:46Z</time>
      </trkpt>
      <trkpt lat="49.25227" lon="-1.6373">
        <ele>9.3</ele>
        <time>2023-05-18T13:57:50Z</time>
      </trkpt>
      <trkpt lat="49.25208" lon="-1.63719">
        <ele>9.4</ele>
        <time>2023-05-18T13:57:54Z</time>
      </trkpt>
      <trkpt lat="49.25188" lon="-1.63709">
        <ele>9.5</ele>
        <time>2023-05-18T13:57:58Z</time>
      </trkpt>
      <trkpt lat="49.25169" lon="-1.63698">
        <ele>9.5</ele>
        <time>2023-05-18T13:58:02Z</time>
      </trkpt>
      <trkpt lat="49.25148" lon="-1.63687">
        <ele>9.6</ele>
        <time>2023-05-18T13:58:06Z</time>
      </trkpt>
      <trkpt lat="49.25128" lon="-1.63674">
        <ele>9.6</ele>
        <time>2023-05-18T13:58:10Z</time>
      </trkpt>
      <trkpt lat="49.25109" lon="-1.63659">
        <ele>9.5</ele>
        <time>2023-05-18T13:58:14Z</time>
      </trkpt>
      <trkpt lat="49.2509" lon="-1.63644">
        <ele>9.5</ele>
        <time>2023-05-18T13:58:18Z</time>
      </trkpt>
      <trkpt lat="49.25071" lon="-1.63629">
        <ele>9.4</ele>
        <time>2023-05-18T13:58:22Z</time>
      </trkpt>
      <trkpt lat="49.25053" lon="-1.63613">
        <ele>9.4</ele>
        <time>2023-05-18T13:58:26Z</time>
      </trkpt>
      <trkpt lat="49.25034" lon="-1.63596">
        <ele>9.4</ele>
        <time>2023-05-18T13:58:30Z</time>
      </trkpt>
      <trkpt lat="49.25015" lon="-1.63578">
        <ele>9.4</ele>
        <time>2023-05-18T13:58:34Z</time>
      </trkpt>
      <trkpt lat="49.24997" lon="-1.6356">
        <ele>9.3</ele>
        <time>2023-05-18T13:58:38Z</time>
      </trkpt>
      <trkpt lat="49.24981" lon="-1.63542">
        <ele>9.2</ele>
        <time>2023-05-18T13:58:42Z</time>
      </trkpt>
      <trkpt lat="49.24964" lon="-1.63521">
        <ele>9.1</ele>
        <time>2023-05-18T13:58:47Z</time>
      </trkpt>
      <trkpt lat="49.2495" lon="-1.63504">
        <ele>9.1</ele>
        <time>2023-05-18T13:58:51Z</time>
      </trkpt>
      <trkpt lat="49.24935" lon="-1.63484">
        <ele>9</ele>
        <time>2023-05-18T13:58:55Z</time>
      </trkpt>
      <trkpt lat="49.2492" lon="-1.63464">
        <ele>8.9</ele>
        <time>2023-05-18T13:58:59Z</time>
      </trkpt>
      <trkpt lat="49.24905" lon="-1.63442">
        <ele>8.8</ele>
        <time>2023-05-18T13:59:03Z</time>
      </trkpt>
      <trkpt lat="49.24889" lon="-1.6342">
        <ele>8.7</ele>
        <time>2023-05-18T13:59:07Z</time>
      </trkpt>
      <trkpt lat="49.24874" lon="-1.63397">
        <ele>8.7</ele>
        <time>2023-05-18T13:59:11Z</time>
      </trkpt>
      <trkpt lat="49.24858" lon="-1.63374">
        <ele>8.6</ele>
        <time>2023-05-18T13:59:15Z</time>
      </trkpt>
      <trkpt lat="49.24843" lon="-1.63352">
        <ele>8.5</ele>
        <time>2023-05-18T13:59:19Z</time>
      </trkpt>
      <trkpt lat="49.24827" lon="-1.63329">
        <ele>8.3</ele>
        <time>2023-05-18T13:59:23Z</time>
      </trkpt>
      <trkpt lat="49.24812" lon="-1.63307">
        <ele>8.2</ele>
        <time>2023-05-18T13:59:27Z</time>
      </trkpt>
      <trkpt lat="49.24796" lon="-1.63284">
        <ele>8.1</ele>
        <time>2023-05-18T13:59:31Z</time>
      </trkpt>
      <trkpt lat="49.2478" lon="-1.63261">
        <ele>8</ele>
        <time>2023-05-18T13:59:35Z</time>
      </trkpt>
      <trkpt lat="49.24764" lon="-1.63236">
        <ele>8</ele>
        <time>2023-05-18T13:59:39Z</time>
      </trkpt>
      <trkpt lat="49.24748" lon="-1.63214">
        <ele>7.9</ele>
        <time>2023-05-18T13:59:43Z</time>
      </trkpt>
      <trkpt lat="49.24732" lon="-1.63191">
        <ele>7.9</ele>
        <time>2023-05-18T13:59:47Z</time>
      </trkpt>
      <trkpt lat="49.24717" lon="-1.63168">
        <ele>7.8</ele>
        <time>2023-05-18T13:59:51Z</time>
      </trkpt>
      <trkpt lat="49.24701" lon="-1.63145">
        <ele>7.7</ele>
        <time>2023-05-18T13:59:55Z</time>
      </trkpt>
      <trkpt lat="49.24685" lon="-1.63121">
        <ele>7.6</ele>
        <time>2023-05-18T13:59:59Z</time>
      </trkpt>
      <trkpt lat="49.24669" lon="-1.63099">
        <ele>7.6</ele>
        <time>2023-05-18T14:00:03Z</time>
      </trkpt>
      <trkpt lat="49.24654" lon="-1.63076">
        <ele>7.6</ele>
        <time>2023-05-18T14:00:07Z</time>
      </trkpt>
      <trkpt lat="49.24639" lon="-1.63055">
        <ele>7.6</ele>
        <time>2023-05-18T14:00:11Z</time>
      </trkpt>
      <trkpt lat="49.24624" lon="-1.63033">
        <ele>7.7</ele>
        <time>2023-05-18T14:00:15Z</time>
      </trkpt>
      <trkpt lat="49.24609" lon="-1.63011">
        <ele>7.8</ele>
        <time>2023-05-18T14:00:19Z</time>
      </trkpt>
      <trkpt lat="49.24593" lon="-1.62989">
        <ele>7.9</ele>
        <time>2023-05-18T14:00:23Z</time>
      </trkpt>
      <trkpt lat="49.24579" lon="-1.62966">
        <ele>8</ele>
        <time>2023-05-18T14:00:27Z</time>
      </trkpt>
      <trkpt lat="49.24563" lon="-1.62945">
        <ele>8.1</ele>
        <time>2023-05-18T14:00:31Z</time>
      </trkpt>
      <trkpt lat="49.24547" lon="-1.62922">
        <ele>8.2</ele>
        <time>2023-05-18T14:00:35Z</time>
      </trkpt>
      <trkpt lat="49.24533" lon="-1.629">
        <ele>8.3</ele>
        <time>2023-05-18T14:00:39Z</time>
      </trkpt>
      <trkpt lat="49.24518" lon="-1.62878">
        <ele>8.3</ele>
        <time>2023-05-18T14:00:43Z</time>
      </trkpt>
      <trkpt lat="49.24502" lon="-1.62856">
        <ele>8.4</ele>
        <time>2023-05-18T14:00:47Z</time>
      </trkpt>
      <trkpt lat="49.24488" lon="-1.62834">
        <ele>8.4</ele>
        <time>2023-05-18T14:00:51Z</time>
      </trkpt>
      <trkpt lat="49.24471" lon="-1.62812">
        <ele>8.6</ele>
        <time>2023-05-18T14:00:56Z</time>
      </trkpt>
      <trkpt lat="49.24456" lon="-1.6279">
        <ele>8.7</ele>
        <time>2023-05-18T14:01:01Z</time>
      </trkpt>
      <trkpt lat="49.24442" lon="-1.62768">
        <ele>8.8</ele>
        <time>2023-05-18T14:01:05Z</time>
      </trkpt>
      <trkpt lat="49.24427" lon="-1.62748">
        <ele>8.9</ele>
        <time>2023-05-18T14:01:09Z</time>
      </trkpt>
      <trkpt lat="49.24413" lon="-1.62726">
        <ele>9</ele>
        <time>2023-05-18T14:01:13Z</time>
      </trkpt>
      <trkpt lat="49.24399" lon="-1.62705">
        <ele>9.1</ele>
        <time>2023-05-18T14:01:17Z</time>
      </trkpt>
      <trkpt lat="49.24385" lon="-1.62684">
        <ele>9.2</ele>
        <time>2023-05-18T14:01:21Z</time>
      </trkpt>
      <trkpt lat="49.24371" lon="-1.62664">
        <ele>9.2</ele>
        <time>2023-05-18T14:01:25Z</time>
      </trkpt>
      <trkpt lat="49.24357" lon="-1.62643">
        <ele>9.2</ele>
        <time>2023-05-18T14:01:29Z</time>
      </trkpt>
      <trkpt lat="49.24342" lon="-1.62622">
        <ele>9.2</ele>
        <time>2023-05-18T14:01:33Z</time>
      </trkpt>
      <trkpt lat="49.24328" lon="-1.626">
        <ele>9.2</ele>
        <time>2023-05-18T14:01:37Z</time>
      </trkpt>
      <trkpt lat="49.24313" lon="-1.62579">
        <ele>9.2</ele>
        <time>2023-05-18T14:01:41Z</time>
      </trkpt>
      <trkpt lat="49.24299" lon="-1.62559">
        <ele>9.1</ele>
        <time>2023-05-18T14:01:45Z</time>
      </trkpt>
      <trkpt lat="49.24285" lon="-1.62538">
        <ele>9</ele>
        <time>2023-05-18T14:01:49Z</time>
      </trkpt>
      <trkpt lat="49.2427" lon="-1.62517">
        <ele>9</ele>
        <time>2023-05-18T14:01:53Z</time>
      </trkpt>
      <trkpt lat="49.24254" lon="-1.62494">
        <ele>8.9</ele>
        <time>2023-05-18T14:01:57Z</time>
      </trkpt>
      <trkpt lat="49.24239" lon="-1.62471">
        <ele>8.8</ele>
        <time>2023-05-18T14:02:01Z</time>
      </trkpt>
      <trkpt lat="49.24224" lon="-1.62448">
        <ele>8.8</ele>
        <time>2023-05-18T14:02:05Z</time>
      </trkpt>
      <trkpt lat="49.24207" lon="-1.62425">
        <ele>8.7</ele>
        <time>2023-05-18T14:02:09Z</time>
      </trkpt>
      <trkpt lat="49.24192" lon="-1.62403">
        <ele>8.6</ele>
        <time>2023-05-18T14:02:13Z</time>
      </trkpt>
      <trkpt lat="49.24177" lon="-1.62381">
        <ele>8.5</ele>
        <time>2023-05-18T14:02:17Z</time>
      </trkpt>
      <trkpt lat="49.24161" lon="-1.62359">
        <ele>8.5</ele>
        <time>2023-05-18T14:02:21Z</time>
      </trkpt>
      <trkpt lat="49.24146" lon="-1.62337">
        <ele>8.5</ele>
        <time>2023-05-18T14:02:25Z</time>
      </trkpt>
      <trkpt lat="49.24131" lon="-1.62316">
        <ele>8.4</ele>
        <time>2023-05-18T14:02:29Z</time>
      </trkpt>
      <trkpt lat="49.24116" lon="-1.62294">
        <ele>8.4</ele>
        <time>2023-05-18T14:02:33Z</time>
      </trkpt>
      <trkpt lat="49.241" lon="-1.62274">
        <ele>8.3</ele>
        <time>2023-05-18T14:02:37Z</time>
      </trkpt>
      <trkpt lat="49.24085" lon="-1.62252">
        <ele>8.2</ele>
        <time>2023-05-18T14:02:41Z</time>
      </trkpt>
      <trkpt lat="49.2407" lon="-1.6223">
        <ele>8.1</ele>
        <time>2023-05-18T14:02:45Z</time>
      </trkpt>
      <trkpt lat="49.24054" lon="-1.62208">
        <ele>7.9</ele>
        <time>2023-05-18T14:02:49Z</time>
      </trkpt>
      <trkpt lat="49.2404" lon="-1.62186">
        <ele>7.8</ele>
        <time>2023-05-18T14:02:53Z</time>
      </trkpt>
      <trkpt lat="49.24025" lon="-1.62166">
        <ele>7.8</ele>
        <time>2023-05-18T14:02:57Z</time>
      </trkpt>
      <trkpt lat="49.2401" lon="-1.62144">
        <ele>7.7</ele>
        <time>2023-05-18T14:03:01Z</time>
      </trkpt>
      <trkpt lat="49.23995" lon="-1.62122">
        <ele>7.6</ele>
        <time>2023-05-18T14:03:05Z</time>
      </trkpt>
      <trkpt lat="49.2398" lon="-1.62099">
        <ele>7.6</ele>
        <time>2023-05-18T14:03:09Z</time>
      </trkpt>
      <trkpt lat="49.23965" lon="-1.62076">
        <ele>7.5</ele>
        <time>2023-05-18T14:03:13Z</time>
      </trkpt>
      <trkpt lat="49.23951" lon="-1.62052">
        <ele>7.4</ele>
        <time>2023-05-18T14:03:17Z</time>
      </trkpt>
      <trkpt lat="49.23936" lon="-1.62027">
        <ele>7.3</ele>
        <time>2023-05-18T14:03:21Z</time>
      </trkpt>
      <trkpt lat="49.23923" lon="-1.62002">
        <ele>7.2</ele>
        <time>2023-05-18T14:03:25Z</time>
      </trkpt>
      <trkpt lat="49.2391" lon="-1.61978">
        <ele>7.2</ele>
        <time>2023-05-18T14:03:29Z</time>
      </trkpt>
      <trkpt lat="49.23899" lon="-1.61953">
        <ele>7.1</ele>
        <time>2023-05-18T14:03:33Z</time>
      </trkpt>
      <trkpt lat="49.23889" lon="-1.6193">
        <ele>7.2</ele>
        <time>2023-05-18T14:03:37Z</time>
      </trkpt>
      <trkpt lat="49.23879" lon="-1.61905">
        <ele>7.2</ele>
        <time>2023-05-18T14:03:41Z</time>
      </trkpt>
      <trkpt lat="49.2387" lon="-1.6188">
        <ele>7.1</ele>
        <time>2023-05-18T14:03:45Z</time>
      </trkpt>
      <trkpt lat="49.23862" lon="-1.61855">
        <ele>7.1</ele>
        <time>2023-05-18T14:03:49Z</time>
      </trkpt>
      <trkpt lat="49.23853" lon="-1.61827">
        <ele>7.1</ele>
        <time>2023-05-18T14:03:53Z</time>
      </trkpt>
      <trkpt lat="49.23845" lon="-1.61799">
        <ele>7.3</ele>
        <time>2023-05-18T14:03:58Z</time>
      </trkpt>
      <trkpt lat="49.23837" lon="-1.61772">
        <ele>7.4</ele>
        <time>2023-05-18T14:04:05Z</time>
      </trkpt>
      <trkpt lat="49.23833" lon="-1.61741">
        <ele>7.4</ele>
        <time>2023-05-18T14:07:38Z</time>
      </trkpt>
      <trkpt lat="49.23826" lon="-1.61712">
        <ele>7.4</ele>
        <time>2023-05-18T14:07:44Z</time>
      </trkpt>
      <trkpt lat="49.23821" lon="-1.61681">
        <ele>7.5</ele>
        <time>2023-05-18T14:07:49Z</time>
      </trkpt>
      <trkpt lat="49.23818" lon="-1.61651">
        <ele>7.6</ele>
        <time>2023-05-18T14:07:54Z</time>
      </trkpt>
      <trkpt lat="49.23814" lon="-1.61623">
        <ele>7.7</ele>
        <time>2023-05-18T14:07:58Z</time>
      </trkpt>
      <trkpt lat="49.23812" lon="-1.61596">
        <ele>7.8</ele>
        <time>2023-05-18T14:08:02Z</time>
      </trkpt>
      <trkpt lat="49.2381" lon="-1.61562">
        <ele>7.9</ele>
        <time>2023-05-18T14:08:07Z</time>
      </trkpt>
      <trkpt lat="49.23809" lon="-1.61529">
        <ele>7.9</ele>
        <time>2023-05-18T14:08:12Z</time>
      </trkpt>
      <trkpt lat="49.23808" lon="-1.61501">
        <ele>7.9</ele>
        <time>2023-05-18T14:08:16Z</time>
      </trkpt>
      <trkpt lat="49.23806" lon="-1.61473">
        <ele>8</ele>
        <time>2023-05-18T14:08:20Z</time>
      </trkpt>
      <trkpt lat="49.23805" lon="-1.61439">
        <ele>8.1</ele>
        <time>2023-05-18T14:08:25Z</time>
      </trkpt>
      <trkpt lat="49.23804" lon="-1.61405">
        <ele>8.2</ele>
        <time>2023-05-18T14:08:30Z</time>
      </trkpt>
      <trkpt lat="49.23803" lon="-1.61376">
        <ele>8.2</ele>
        <time>2023-05-18T14:08:34Z</time>
      </trkpt>
      <trkpt lat="49.23802" lon="-1.61347">
        <ele>8.4</ele>
        <time>2023-05-18T14:08:38Z</time>
      </trkpt>
      <trkpt lat="49.23801" lon="-1.6132">
        <ele>8.5</ele>
        <time>2023-05-18T14:08:42Z</time>
      </trkpt>
      <trkpt lat="49.238" lon="-1.61287">
        <ele>8.7</ele>
        <time>2023-05-18T14:08:47Z</time>
      </trkpt>
      <trkpt lat="49.23799" lon="-1.61256">
        <ele>9</ele>
        <time>2023-05-18T14:08:52Z</time>
      </trkpt>
      <trkpt lat="49.23797" lon="-1.61222">
        <ele>9.2</ele>
        <time>2023-05-18T14:08:57Z</time>
      </trkpt>
      <trkpt lat="49.23795" lon="-1.61189">
        <ele>9.4</ele>
        <time>2023-05-18T14:09:02Z</time>
      </trkpt>
      <trkpt lat="49.23793" lon="-1.61155">
        <ele>9.5</ele>
        <time>2023-05-18T14:09:07Z</time>
      </trkpt>
      <trkpt lat="49.23794" lon="-1.61126">
        <ele>9.6</ele>
        <time>2023-05-18T14:09:12Z</time>
      </trkpt>
      <trkpt lat="49.23792" lon="-1.61093">
        <ele>9.7</ele>
        <time>2023-05-18T14:09:17Z</time>
      </trkpt>
      <trkpt lat="49.2379" lon="-1.61061">
        <ele>9.7</ele>
        <time>2023-05-18T14:09:22Z</time>
      </trkpt>
      <trkpt lat="49.23789" lon="-1.61028">
        <ele>9.7</ele>
        <time>2023-05-18T14:09:27Z</time>
      </trkpt>
      <trkpt lat="49.23789" lon="-1.60996">
        <ele>9.6</ele>
        <time>2023-05-18T14:09:32Z</time>
      </trkpt>
      <trkpt lat="49.23787" lon="-1.60962">
        <ele>9.4</ele>
        <time>2023-05-18T14:09:37Z</time>
      </trkpt>
      <trkpt lat="49.23787" lon="-1.60933">
        <ele>9.2</ele>
        <time>2023-05-18T14:09:41Z</time>
      </trkpt>
      <trkpt lat="49.23786" lon="-1.60904">
        <ele>9</ele>
        <time>2023-05-18T14:09:45Z</time>
      </trkpt>
      <trkpt lat="49.23784" lon="-1.60876">
        <ele>8.9</ele>
        <time>2023-05-18T14:09:49Z</time>
      </trkpt>
      <trkpt lat="49.23783" lon="-1.60848">
        <ele>8.7</ele>
        <time>2023-05-18T14:09:53Z</time>
      </trkpt>
      <trkpt lat="49.23782" lon="-1.6082">
        <ele>8.5</ele>
        <time>2023-05-18T14:09:57Z</time>
      </trkpt>
      <trkpt lat="49.23781" lon="-1.60791">
        <ele>8.4</ele>
        <time>2023-05-18T14:10:01Z</time>
      </trkpt>
      <trkpt lat="49.23781" lon="-1.60762">
        <ele>8.2</ele>
        <time>2023-05-18T14:10:05Z</time>
      </trkpt>
      <trkpt lat="49.23779" lon="-1.60731">
        <ele>8.1</ele>
        <time>2023-05-18T14:10:09Z</time>
      </trkpt>
      <trkpt lat="49.23777" lon="-1.607">
        <ele>8</ele>
        <time>2023-05-18T14:10:13Z</time>
      </trkpt>
      <trkpt lat="49.23776" lon="-1.6067">
        <ele>8</ele>
        <time>2023-05-18T14:10:17Z</time>
      </trkpt>
      <trkpt lat="49.23775" lon="-1.60638">
        <ele>7.9</ele>
        <time>2023-05-18T14:10:21Z</time>
      </trkpt>
      <trkpt lat="49.23775" lon="-1.60606">
        <ele>7.8</ele>
        <time>2023-05-18T14:10:25Z</time>
      </trkpt>
      <trkpt lat="49.23773" lon="-1.60575">
        <ele>7.9</ele>
        <time>2023-05-18T14:10:29Z</time>
      </trkpt>
      <trkpt lat="49.23772" lon="-1.60543">
        <ele>8</ele>
        <time>2023-05-18T14:10:33Z</time>
      </trkpt>
      <trkpt lat="49.2377" lon="-1.60513">
        <ele>8.1</ele>
        <time>2023-05-18T14:10:37Z</time>
      </trkpt>
      <trkpt lat="49.23769" lon="-1.60485">
        <ele>8.3</ele>
        <time>2023-05-18T14:10:41Z</time>
      </trkpt>
      <trkpt lat="49.23769" lon="-1.60457">
        <ele>8.5</ele>
        <time>2023-05-18T14:10:45Z</time>
      </trkpt>
      <trkpt lat="49.23768" lon="-1.60424">
        <ele>8.8</ele>
        <time>2023-05-18T14:10:50Z</time>
      </trkpt>
      <trkpt lat="49.23767" lon="-1.60395">
        <ele>9</ele>
        <time>2023-05-18T14:10:54Z</time>
      </trkpt>
      <trkpt lat="49.23765" lon="-1.60365">
        <ele>9.1</ele>
        <time>2023-05-18T14:10:59Z</time>
      </trkpt>
      <trkpt lat="49.23763" lon="-1.60334">
        <ele>9.3</ele>
        <time>2023-05-18T14:11:04Z</time>
      </trkpt>
      <trkpt lat="49.23763" lon="-1.60306">
        <ele>9.6</ele>
        <time>2023-05-18T14:11:09Z</time>
      </trkpt>
      <trkpt lat="49.23762" lon="-1.60277">
        <ele>9.8</ele>
        <time>2023-05-18T14:11:14Z</time>
      </trkpt>
      <trkpt lat="49.23759" lon="-1.60247">
        <ele>10</ele>
        <time>2023-05-18T14:11:19Z</time>
      </trkpt>
      <trkpt lat="49.23759" lon="-1.60219">
        <ele>10.2</ele>
        <time>2023-05-18T14:11:24Z</time>
      </trkpt>
      <trkpt lat="49.23757" lon="-1.60188">
        <ele>10.5</ele>
        <time>2023-05-18T14:11:29Z</time>
      </trkpt>
      <trkpt lat="49.23756" lon="-1.60158">
        <ele>10.8</ele>
        <time>2023-05-18T14:11:34Z</time>
      </trkpt>
      <trkpt lat="49.23754" lon="-1.60126">
        <ele>11.2</ele>
        <time>2023-05-18T14:11:40Z</time>
      </trkpt>
      <trkpt lat="49.23753" lon="-1.60097">
        <ele>11.4</ele>
        <time>2023-05-18T14:11:45Z</time>
      </trkpt>
      <trkpt lat="49.23753" lon="-1.60068">
        <ele>11.5</ele>
        <time>2023-05-18T14:11:50Z</time>
      </trkpt>
      <trkpt lat="49.23752" lon="-1.6004">
        <ele>11.7</ele>
        <time>2023-05-18T14:11:55Z</time>
      </trkpt>
      <trkpt lat="49.23751" lon="-1.60011">
        <ele>12</ele>
        <time>2023-05-18T14:12:00Z</time>
      </trkpt>
      <trkpt lat="49.23749" lon="-1.59982">
        <ele>12.2</ele>
        <time>2023-05-18T14:12:05Z</time>
      </trkpt>
      <trkpt lat="49.23749" lon="-1.59954">
        <ele>12.4</ele>
        <time>2023-05-18T14:12:10Z</time>
      </trkpt>
      <trkpt lat="49.23748" lon="-1.59925">
        <ele>12.5</ele>
        <time>2023-05-18T14:12:15Z</time>
      </trkpt>
      <trkpt lat="49.23746" lon="-1.59896">
        <ele>12.7</ele>
        <time>2023-05-18T14:12:20Z</time>
      </trkpt>
      <trkpt lat="49.23745" lon="-1.59866">
        <ele>13</ele>
        <time>2023-05-18T14:12:25Z</time>
      </trkpt>
      <trkpt lat="49.23745" lon="-1.59837">
        <ele>13.2</ele>
        <time>2023-05-18T14:12:30Z</time>
      </trkpt>
      <trkpt lat="49.23743" lon="-1.59809">
        <ele>13.4</ele>
        <time>2023-05-18T14:12:35Z</time>
      </trkpt>
      <trkpt lat="49.23742" lon="-1.59781">
        <ele>13.6</ele>
        <time>2023-05-18T14:12:40Z</time>
      </trkpt>
      <trkpt lat="49.2373" lon="-1.59754">
        <ele>13.9</ele>
        <time>2023-05-18T14:12:46Z</time>
      </trkpt>
      <trkpt lat="49.23713" lon="-1.59738">
        <ele>13.5</ele>
        <time>2023-05-18T14:12:51Z</time>
      </trkpt>
      <trkpt lat="49.23701" lon="-1.59709">
        <ele>13.3</ele>
        <time>2023-05-18T14:12:56Z</time>
      </trkpt>
      <trkpt lat="49.23687" lon="-1.59686">
        <ele>13.1</ele>
        <time>2023-05-18T14:13:01Z</time>
      </trkpt>
      <trkpt lat="49.23668" lon="-1.59667">
        <ele>13.1</ele>
        <time>2023-05-18T14:13:06Z</time>
      </trkpt>
      <trkpt lat="49.2365" lon="-1.59647">
        <ele>13.1</ele>
        <time>2023-05-18T14:13:11Z</time>
      </trkpt>
      <trkpt lat="49.23632" lon="-1.59629">
        <ele>13.1</ele>
        <time>2023-05-18T14:13:15Z</time>
      </trkpt>
      <trkpt lat="49.23618" lon="-1.59606">
        <ele>12.7</ele>
        <time>2023-05-18T14:13:19Z</time>
      </trkpt>
      <trkpt lat="49.23602" lon="-1.59585">
        <ele>12.2</ele>
        <time>2023-05-18T14:13:23Z</time>
      </trkpt>
      <trkpt lat="49.23587" lon="-1.59565">
        <ele>11.7</ele>
        <time>2023-05-18T14:13:27Z</time>
      </trkpt>
      <trkpt lat="49.23571" lon="-1.59548">
        <ele>11.1</ele>
        <time>2023-05-18T14:13:31Z</time>
      </trkpt>
      <trkpt lat="49.23551" lon="-1.5954">
        <ele>10.2</ele>
        <time>2023-05-18T14:13:35Z</time>
      </trkpt>
      <trkpt lat="49.23534" lon="-1.59526">
        <ele>9.3</ele>
        <time>2023-05-18T14:13:39Z</time>
      </trkpt>
    </trkseg>
  </trk>
</gpx>